<?xml version="1.0" encoding="UTF-8" standalone="no" ?>
<gpx xmlns="http://www.topografix.com/GPX/1/1" xmlns:xsi="http://www.w3.org/2001/XMLSchema-instance" xsi:schemaLocation="http://www.topografix.com/GPX/1/1 http://www.topografix.com/GPX/1/1/gpx.xsd" version="1.1" creator="VisuGPX - https://www.visugpx.com">
  <metadata>
    <name>barege st lary via refuge bastan</name>
    <desc><![CDATA[Ski de rando de barege à st lary sur 2 jour avec nuit au refuge Bastan]]></desc>
  </metadata>
  <trk>
    <name><![CDATA[13-FEV-12 20:12:38]]></name>
    <trkseg>
      <trkpt lat="42.90334" lon="0.10273">
        <ele>1417.12</ele>
        <time>2012-02-11T07:31:35Z</time>
      </trkpt>
      <trkpt lat="42.90337" lon="0.10273">
        <ele>1417.12</ele>
        <time>2012-02-11T07:31:36Z</time>
      </trkpt>
      <trkpt lat="42.90347" lon="0.10278">
        <ele>1417.12</ele>
        <time>2012-02-11T07:31:41Z</time>
      </trkpt>
      <trkpt lat="42.90357" lon="0.10288">
        <ele>1417.12</ele>
        <time>2012-02-11T07:31:51Z</time>
      </trkpt>
      <trkpt lat="42.90357" lon="0.10289">
        <ele>1418.08</ele>
        <time>2012-02-11T07:32:01Z</time>
      </trkpt>
      <trkpt lat="42.90355" lon="0.10291">
        <ele>1418.08</ele>
        <time>2012-02-11T07:32:03Z</time>
      </trkpt>
      <trkpt lat="42.90346" lon="0.10299">
        <ele>1419.04</ele>
        <time>2012-02-11T07:32:12Z</time>
      </trkpt>
      <trkpt lat="42.9034" lon="0.10302">
        <ele>1420.49</ele>
        <time>2012-02-11T07:32:24Z</time>
      </trkpt>
      <trkpt lat="42.90339" lon="0.10301">
        <ele>1420.49</ele>
        <time>2012-02-11T07:32:32Z</time>
      </trkpt>
      <trkpt lat="42.90344" lon="0.10307">
        <ele>1420.97</ele>
        <time>2012-02-11T07:32:43Z</time>
      </trkpt>
      <trkpt lat="42.90344" lon="0.10304">
        <ele>1420.97</ele>
        <time>2012-02-11T07:32:53Z</time>
      </trkpt>
      <trkpt lat="42.90338" lon="0.10301">
        <ele>1421.93</ele>
        <time>2012-02-11T07:33:06Z</time>
      </trkpt>
      <trkpt lat="42.90339" lon="0.10301">
        <ele>1421.45</ele>
        <time>2012-02-11T07:33:25Z</time>
      </trkpt>
      <trkpt lat="42.90341" lon="0.10303">
        <ele>1422.41</ele>
        <time>2012-02-11T07:33:37Z</time>
      </trkpt>
      <trkpt lat="42.90341" lon="0.10303">
        <ele>1422.41</ele>
        <time>2012-02-11T07:33:52Z</time>
      </trkpt>
      <trkpt lat="42.90342" lon="0.10307">
        <ele>1423.37</ele>
        <time>2012-02-11T07:34:10Z</time>
      </trkpt>
      <trkpt lat="42.90342" lon="0.10308">
        <ele>1422.89</ele>
        <time>2012-02-11T07:34:15Z</time>
      </trkpt>
      <trkpt lat="42.90341" lon="0.10311">
        <ele>1423.37</ele>
        <time>2012-02-11T07:34:17Z</time>
      </trkpt>
      <trkpt lat="42.90333" lon="0.10322">
        <ele>1424.81</ele>
        <time>2012-02-11T07:34:29Z</time>
      </trkpt>
      <trkpt lat="42.90324" lon="0.1033">
        <ele>1425.29</ele>
        <time>2012-02-11T07:34:40Z</time>
      </trkpt>
      <trkpt lat="42.90324" lon="0.10331">
        <ele>1425.29</ele>
        <time>2012-02-11T07:34:41Z</time>
      </trkpt>
      <trkpt lat="42.90318" lon="0.10334">
        <ele>1425.77</ele>
        <time>2012-02-11T07:34:47Z</time>
      </trkpt>
      <trkpt lat="42.90303" lon="0.1034">
        <ele>1426.73</ele>
        <time>2012-02-11T07:35:00Z</time>
      </trkpt>
      <trkpt lat="42.90286" lon="0.10345">
        <ele>1429.62</ele>
        <time>2012-02-11T07:35:15Z</time>
      </trkpt>
      <trkpt lat="42.90277" lon="0.10346">
        <ele>1430.1</ele>
        <time>2012-02-11T07:35:27Z</time>
      </trkpt>
      <trkpt lat="42.90274" lon="0.10348">
        <ele>1430.58</ele>
        <time>2012-02-11T07:35:31Z</time>
      </trkpt>
      <trkpt lat="42.90271" lon="0.1035">
        <ele>1430.58</ele>
        <time>2012-02-11T07:35:34Z</time>
      </trkpt>
      <trkpt lat="42.90256" lon="0.10353">
        <ele>1431.54</ele>
        <time>2012-02-11T07:35:48Z</time>
      </trkpt>
      <trkpt lat="42.90253" lon="0.10353">
        <ele>1432.02</ele>
        <time>2012-02-11T07:35:51Z</time>
      </trkpt>
      <trkpt lat="42.90235" lon="0.10359">
        <ele>1432.98</ele>
        <time>2012-02-11T07:36:09Z</time>
      </trkpt>
      <trkpt lat="42.90222" lon="0.10362">
        <ele>1433.94</ele>
        <time>2012-02-11T07:36:22Z</time>
      </trkpt>
      <trkpt lat="42.90208" lon="0.10367">
        <ele>1436.35</ele>
        <time>2012-02-11T07:36:37Z</time>
      </trkpt>
      <trkpt lat="42.90203" lon="0.10367">
        <ele>1437.31</ele>
        <time>2012-02-11T07:36:41Z</time>
      </trkpt>
      <trkpt lat="42.902" lon="0.10369">
        <ele>1437.31</ele>
        <time>2012-02-11T07:36:44Z</time>
      </trkpt>
      <trkpt lat="42.90186" lon="0.10376">
        <ele>1439.23</ele>
        <time>2012-02-11T07:37:00Z</time>
      </trkpt>
      <trkpt lat="42.90175" lon="0.1038">
        <ele>1440.67</ele>
        <time>2012-02-11T07:37:14Z</time>
      </trkpt>
      <trkpt lat="42.90174" lon="0.1038">
        <ele>1441.15</ele>
        <time>2012-02-11T07:37:15Z</time>
      </trkpt>
      <trkpt lat="42.90165" lon="0.10388">
        <ele>1442.6</ele>
        <time>2012-02-11T07:37:25Z</time>
      </trkpt>
      <trkpt lat="42.90163" lon="0.10389">
        <ele>1443.08</ele>
        <time>2012-02-11T07:37:28Z</time>
      </trkpt>
      <trkpt lat="42.90153" lon="0.10396">
        <ele>1444.52</ele>
        <time>2012-02-11T07:37:38Z</time>
      </trkpt>
      <trkpt lat="42.90149" lon="0.10398">
        <ele>1445</ele>
        <time>2012-02-11T07:37:42Z</time>
      </trkpt>
      <trkpt lat="42.90143" lon="0.10403">
        <ele>1446.92</ele>
        <time>2012-02-11T07:37:49Z</time>
      </trkpt>
      <trkpt lat="42.90141" lon="0.10405">
        <ele>1446.44</ele>
        <time>2012-02-11T07:37:52Z</time>
      </trkpt>
      <trkpt lat="42.90138" lon="0.10407">
        <ele>1446.44</ele>
        <time>2012-02-11T07:37:55Z</time>
      </trkpt>
      <trkpt lat="42.90128" lon="0.10416">
        <ele>1447.4</ele>
        <time>2012-02-11T07:38:08Z</time>
      </trkpt>
      <trkpt lat="42.90121" lon="0.10422">
        <ele>1448.84</ele>
        <time>2012-02-11T07:38:17Z</time>
      </trkpt>
      <trkpt lat="42.90116" lon="0.10427">
        <ele>1450.29</ele>
        <time>2012-02-11T07:38:24Z</time>
      </trkpt>
      <trkpt lat="42.90114" lon="0.10428">
        <ele>1450.77</ele>
        <time>2012-02-11T07:38:26Z</time>
      </trkpt>
      <trkpt lat="42.90113" lon="0.1043">
        <ele>1451.73</ele>
        <time>2012-02-11T07:38:28Z</time>
      </trkpt>
      <trkpt lat="42.9011" lon="0.10431">
        <ele>1452.21</ele>
        <time>2012-02-11T07:38:31Z</time>
      </trkpt>
      <trkpt lat="42.901" lon="0.10437">
        <ele>1453.65</ele>
        <time>2012-02-11T07:38:44Z</time>
      </trkpt>
      <trkpt lat="42.90089" lon="0.10443">
        <ele>1456.53</ele>
        <time>2012-02-11T07:38:57Z</time>
      </trkpt>
      <trkpt lat="42.90088" lon="0.10444">
        <ele>1456.53</ele>
        <time>2012-02-11T07:39:08Z</time>
      </trkpt>
      <trkpt lat="42.90087" lon="0.10445">
        <ele>1457.02</ele>
        <time>2012-02-11T07:39:16Z</time>
      </trkpt>
      <trkpt lat="42.90086" lon="0.10445">
        <ele>1457.5</ele>
        <time>2012-02-11T07:39:18Z</time>
      </trkpt>
      <trkpt lat="42.90084" lon="0.10447">
        <ele>1457.98</ele>
        <time>2012-02-11T07:39:21Z</time>
      </trkpt>
      <trkpt lat="42.90082" lon="0.10448">
        <ele>1458.94</ele>
        <time>2012-02-11T07:39:24Z</time>
      </trkpt>
      <trkpt lat="42.90078" lon="0.10451">
        <ele>1459.42</ele>
        <time>2012-02-11T07:39:29Z</time>
      </trkpt>
      <trkpt lat="42.90073" lon="0.10454">
        <ele>1460.38</ele>
        <time>2012-02-11T07:39:34Z</time>
      </trkpt>
      <trkpt lat="42.90072" lon="0.10455">
        <ele>1460.86</ele>
        <time>2012-02-11T07:39:36Z</time>
      </trkpt>
      <trkpt lat="42.90063" lon="0.10461">
        <ele>1461.82</ele>
        <time>2012-02-11T07:39:47Z</time>
      </trkpt>
      <trkpt lat="42.90055" lon="0.1047">
        <ele>1464.23</ele>
        <time>2012-02-11T07:40:00Z</time>
      </trkpt>
      <trkpt lat="42.90051" lon="0.10473">
        <ele>1464.23</ele>
        <time>2012-02-11T07:40:04Z</time>
      </trkpt>
      <trkpt lat="42.90045" lon="0.10481">
        <ele>1466.15</ele>
        <time>2012-02-11T07:40:15Z</time>
      </trkpt>
      <trkpt lat="42.90041" lon="0.10485">
        <ele>1467.59</ele>
        <time>2012-02-11T07:40:23Z</time>
      </trkpt>
      <trkpt lat="42.90037" lon="0.1049">
        <ele>1468.07</ele>
        <time>2012-02-11T07:40:28Z</time>
      </trkpt>
      <trkpt lat="42.90035" lon="0.10491">
        <ele>1468.07</ele>
        <time>2012-02-11T07:40:30Z</time>
      </trkpt>
      <trkpt lat="42.90033" lon="0.10493">
        <ele>1468.55</ele>
        <time>2012-02-11T07:40:32Z</time>
      </trkpt>
      <trkpt lat="42.90031" lon="0.10494">
        <ele>1469.03</ele>
        <time>2012-02-11T07:40:34Z</time>
      </trkpt>
      <trkpt lat="42.9003" lon="0.10496">
        <ele>1469.03</ele>
        <time>2012-02-11T07:40:36Z</time>
      </trkpt>
      <trkpt lat="42.90026" lon="0.10498">
        <ele>1470.47</ele>
        <time>2012-02-11T07:40:42Z</time>
      </trkpt>
      <trkpt lat="42.90023" lon="0.10499">
        <ele>1470.47</ele>
        <time>2012-02-11T07:40:44Z</time>
      </trkpt>
      <trkpt lat="42.90021" lon="0.10501">
        <ele>1471.44</ele>
        <time>2012-02-11T07:40:49Z</time>
      </trkpt>
      <trkpt lat="42.90017" lon="0.10504">
        <ele>1472.4</ele>
        <time>2012-02-11T07:40:55Z</time>
      </trkpt>
      <trkpt lat="42.90012" lon="0.10507">
        <ele>1473.84</ele>
        <time>2012-02-11T07:41:02Z</time>
      </trkpt>
      <trkpt lat="42.9001" lon="0.10509">
        <ele>1474.32</ele>
        <time>2012-02-11T07:41:04Z</time>
      </trkpt>
      <trkpt lat="42.90008" lon="0.1051">
        <ele>1474.32</ele>
        <time>2012-02-11T07:41:06Z</time>
      </trkpt>
      <trkpt lat="42.9" lon="0.10517">
        <ele>1477.2</ele>
        <time>2012-02-11T07:41:19Z</time>
      </trkpt>
      <trkpt lat="42.89996" lon="0.1052">
        <ele>1477.68</ele>
        <time>2012-02-11T07:41:25Z</time>
      </trkpt>
      <trkpt lat="42.8999" lon="0.10529">
        <ele>1479.13</ele>
        <time>2012-02-11T07:41:37Z</time>
      </trkpt>
      <trkpt lat="42.89988" lon="0.1053">
        <ele>1479.61</ele>
        <time>2012-02-11T07:41:39Z</time>
      </trkpt>
      <trkpt lat="42.89986" lon="0.10533">
        <ele>1481.05</ele>
        <time>2012-02-11T07:41:44Z</time>
      </trkpt>
      <trkpt lat="42.89975" lon="0.10539">
        <ele>1482.49</ele>
        <time>2012-02-11T07:41:57Z</time>
      </trkpt>
      <trkpt lat="42.89972" lon="0.10542">
        <ele>1483.45</ele>
        <time>2012-02-11T07:42:01Z</time>
      </trkpt>
      <trkpt lat="42.89968" lon="0.10548">
        <ele>1484.41</ele>
        <time>2012-02-11T07:42:09Z</time>
      </trkpt>
      <trkpt lat="42.89962" lon="0.10551">
        <ele>1485.37</ele>
        <time>2012-02-11T07:42:17Z</time>
      </trkpt>
      <trkpt lat="42.8996" lon="0.10552">
        <ele>1486.34</ele>
        <time>2012-02-11T07:42:19Z</time>
      </trkpt>
      <trkpt lat="42.89958" lon="0.10553">
        <ele>1486.82</ele>
        <time>2012-02-11T07:42:22Z</time>
      </trkpt>
      <trkpt lat="42.89951" lon="0.10558">
        <ele>1488.26</ele>
        <time>2012-02-11T07:42:32Z</time>
      </trkpt>
      <trkpt lat="42.89944" lon="0.10566">
        <ele>1490.18</ele>
        <time>2012-02-11T07:42:42Z</time>
      </trkpt>
      <trkpt lat="42.89944" lon="0.10566">
        <ele>1490.66</ele>
        <time>2012-02-11T07:42:44Z</time>
      </trkpt>
      <trkpt lat="42.89941" lon="0.10567">
        <ele>1491.14</ele>
        <time>2012-02-11T07:42:55Z</time>
      </trkpt>
      <trkpt lat="42.8994" lon="0.1057">
        <ele>1492.1</ele>
        <time>2012-02-11T07:42:58Z</time>
      </trkpt>
      <trkpt lat="42.89939" lon="0.10572">
        <ele>1492.1</ele>
        <time>2012-02-11T07:43:00Z</time>
      </trkpt>
      <trkpt lat="42.89936" lon="0.10574">
        <ele>1492.58</ele>
        <time>2012-02-11T07:43:04Z</time>
      </trkpt>
      <trkpt lat="42.8993" lon="0.10579">
        <ele>1493.55</ele>
        <time>2012-02-11T07:43:13Z</time>
      </trkpt>
      <trkpt lat="42.89923" lon="0.10585">
        <ele>1494.99</ele>
        <time>2012-02-11T07:43:26Z</time>
      </trkpt>
      <trkpt lat="42.89919" lon="0.1059">
        <ele>1496.91</ele>
        <time>2012-02-11T07:43:38Z</time>
      </trkpt>
      <trkpt lat="42.89917" lon="0.10591">
        <ele>1496.91</ele>
        <time>2012-02-11T07:43:40Z</time>
      </trkpt>
      <trkpt lat="42.89908" lon="0.10599">
        <ele>1497.87</ele>
        <time>2012-02-11T07:43:52Z</time>
      </trkpt>
      <trkpt lat="42.89902" lon="0.10604">
        <ele>1501.24</ele>
        <time>2012-02-11T07:44:03Z</time>
      </trkpt>
      <trkpt lat="42.89902" lon="0.10604">
        <ele>1501.24</ele>
        <time>2012-02-11T07:44:04Z</time>
      </trkpt>
      <trkpt lat="42.89897" lon="0.10611">
        <ele>1503.64</ele>
        <time>2012-02-11T07:44:14Z</time>
      </trkpt>
      <trkpt lat="42.89895" lon="0.10612">
        <ele>1504.6</ele>
        <time>2012-02-11T07:44:16Z</time>
      </trkpt>
      <trkpt lat="42.89887" lon="0.1062">
        <ele>1506.04</ele>
        <time>2012-02-11T07:44:29Z</time>
      </trkpt>
      <trkpt lat="42.89886" lon="0.10622">
        <ele>1506.52</ele>
        <time>2012-02-11T07:44:32Z</time>
      </trkpt>
      <trkpt lat="42.89877" lon="0.1063">
        <ele>1509.89</ele>
        <time>2012-02-11T07:44:45Z</time>
      </trkpt>
      <trkpt lat="42.8987" lon="0.10635">
        <ele>1510.85</ele>
        <time>2012-02-11T07:44:57Z</time>
      </trkpt>
      <trkpt lat="42.89868" lon="0.10637">
        <ele>1510.85</ele>
        <time>2012-02-11T07:45:00Z</time>
      </trkpt>
      <trkpt lat="42.89865" lon="0.10641">
        <ele>1512.29</ele>
        <time>2012-02-11T07:45:06Z</time>
      </trkpt>
      <trkpt lat="42.89861" lon="0.10644">
        <ele>1514.21</ele>
        <time>2012-02-11T07:45:11Z</time>
      </trkpt>
      <trkpt lat="42.89855" lon="0.10648">
        <ele>1515.18</ele>
        <time>2012-02-11T07:45:20Z</time>
      </trkpt>
      <trkpt lat="42.8985" lon="0.10654">
        <ele>1518.54</ele>
        <time>2012-02-11T07:45:30Z</time>
      </trkpt>
      <trkpt lat="42.89845" lon="0.1066">
        <ele>1519.98</ele>
        <time>2012-02-11T07:45:41Z</time>
      </trkpt>
      <trkpt lat="42.89839" lon="0.10664">
        <ele>1522.87</ele>
        <time>2012-02-11T07:45:51Z</time>
      </trkpt>
      <trkpt lat="42.89834" lon="0.10669">
        <ele>1523.83</ele>
        <time>2012-02-11T07:46:00Z</time>
      </trkpt>
      <trkpt lat="42.89832" lon="0.10671">
        <ele>1524.31</ele>
        <time>2012-02-11T07:46:04Z</time>
      </trkpt>
      <trkpt lat="42.89828" lon="0.10676">
        <ele>1525.27</ele>
        <time>2012-02-11T07:46:14Z</time>
      </trkpt>
      <trkpt lat="42.89828" lon="0.10676">
        <ele>1526.23</ele>
        <time>2012-02-11T07:46:23Z</time>
      </trkpt>
      <trkpt lat="42.89826" lon="0.10677">
        <ele>1527.19</ele>
        <time>2012-02-11T07:46:48Z</time>
      </trkpt>
      <trkpt lat="42.89824" lon="0.10679">
        <ele>1528.15</ele>
        <time>2012-02-11T07:46:50Z</time>
      </trkpt>
      <trkpt lat="42.8982" lon="0.10684">
        <ele>1528.63</ele>
        <time>2012-02-11T07:46:57Z</time>
      </trkpt>
      <trkpt lat="42.89819" lon="0.10686">
        <ele>1529.11</ele>
        <time>2012-02-11T07:47:00Z</time>
      </trkpt>
      <trkpt lat="42.89816" lon="0.1069">
        <ele>1529.11</ele>
        <time>2012-02-11T07:47:04Z</time>
      </trkpt>
      <trkpt lat="42.89811" lon="0.10694">
        <ele>1531.04</ele>
        <time>2012-02-11T07:47:11Z</time>
      </trkpt>
      <trkpt lat="42.89806" lon="0.10701">
        <ele>1532.48</ele>
        <time>2012-02-11T07:47:20Z</time>
      </trkpt>
      <trkpt lat="42.89802" lon="0.10705">
        <ele>1532.96</ele>
        <time>2012-02-11T07:47:25Z</time>
      </trkpt>
      <trkpt lat="42.89796" lon="0.10712">
        <ele>1535.84</ele>
        <time>2012-02-11T07:47:36Z</time>
      </trkpt>
      <trkpt lat="42.89795" lon="0.10713">
        <ele>1535.84</ele>
        <time>2012-02-11T07:47:39Z</time>
      </trkpt>
      <trkpt lat="42.8979" lon="0.10719">
        <ele>1536.32</ele>
        <time>2012-02-11T07:47:47Z</time>
      </trkpt>
      <trkpt lat="42.89787" lon="0.10723">
        <ele>1536.32</ele>
        <time>2012-02-11T07:47:51Z</time>
      </trkpt>
      <trkpt lat="42.89782" lon="0.10732">
        <ele>1537.77</ele>
        <time>2012-02-11T07:48:02Z</time>
      </trkpt>
      <trkpt lat="42.89774" lon="0.10741">
        <ele>1539.21</ele>
        <time>2012-02-11T07:48:15Z</time>
      </trkpt>
      <trkpt lat="42.89769" lon="0.10743">
        <ele>1539.69</ele>
        <time>2012-02-11T07:48:21Z</time>
      </trkpt>
      <trkpt lat="42.89761" lon="0.10749">
        <ele>1539.69</ele>
        <time>2012-02-11T07:48:33Z</time>
      </trkpt>
      <trkpt lat="42.89757" lon="0.10751">
        <ele>1540.65</ele>
        <time>2012-02-11T07:48:38Z</time>
      </trkpt>
      <trkpt lat="42.89753" lon="0.10754">
        <ele>1541.13</ele>
        <time>2012-02-11T07:48:43Z</time>
      </trkpt>
      <trkpt lat="42.89749" lon="0.10757">
        <ele>1542.09</ele>
        <time>2012-02-11T07:48:49Z</time>
      </trkpt>
      <trkpt lat="42.89746" lon="0.10759">
        <ele>1542.09</ele>
        <time>2012-02-11T07:48:53Z</time>
      </trkpt>
      <trkpt lat="42.89743" lon="0.1076">
        <ele>1542.57</ele>
        <time>2012-02-11T07:48:57Z</time>
      </trkpt>
      <trkpt lat="42.89735" lon="0.10759">
        <ele>1542.57</ele>
        <time>2012-02-11T07:49:07Z</time>
      </trkpt>
      <trkpt lat="42.89731" lon="0.1076">
        <ele>1543.05</ele>
        <time>2012-02-11T07:49:17Z</time>
      </trkpt>
      <trkpt lat="42.89724" lon="0.10763">
        <ele>1544.01</ele>
        <time>2012-02-11T07:49:28Z</time>
      </trkpt>
      <trkpt lat="42.89715" lon="0.10763">
        <ele>1545.94</ele>
        <time>2012-02-11T07:49:40Z</time>
      </trkpt>
      <trkpt lat="42.89713" lon="0.10764">
        <ele>1545.46</ele>
        <time>2012-02-11T07:49:43Z</time>
      </trkpt>
      <trkpt lat="42.8971" lon="0.10764">
        <ele>1545.94</ele>
        <time>2012-02-11T07:49:47Z</time>
      </trkpt>
      <trkpt lat="42.89703" lon="0.10765">
        <ele>1545.94</ele>
        <time>2012-02-11T07:50:00Z</time>
      </trkpt>
      <trkpt lat="42.89699" lon="0.10765">
        <ele>1545.46</ele>
        <time>2012-02-11T07:50:04Z</time>
      </trkpt>
      <trkpt lat="42.89692" lon="0.10768">
        <ele>1545.94</ele>
        <time>2012-02-11T07:50:12Z</time>
      </trkpt>
      <trkpt lat="42.89682" lon="0.10764">
        <ele>1546.9</ele>
        <time>2012-02-11T07:50:25Z</time>
      </trkpt>
      <trkpt lat="42.89674" lon="0.10764">
        <ele>1549.3</ele>
        <time>2012-02-11T07:50:35Z</time>
      </trkpt>
      <trkpt lat="42.89668" lon="0.10766">
        <ele>1550.26</ele>
        <time>2012-02-11T07:50:44Z</time>
      </trkpt>
      <trkpt lat="42.89661" lon="0.10769">
        <ele>1549.78</ele>
        <time>2012-02-11T07:50:53Z</time>
      </trkpt>
      <trkpt lat="42.89654" lon="0.10768">
        <ele>1551.71</ele>
        <time>2012-02-11T07:51:01Z</time>
      </trkpt>
      <trkpt lat="42.89646" lon="0.10769">
        <ele>1551.71</ele>
        <time>2012-02-11T07:51:13Z</time>
      </trkpt>
      <trkpt lat="42.8964" lon="0.1077">
        <ele>1552.19</ele>
        <time>2012-02-11T07:51:20Z</time>
      </trkpt>
      <trkpt lat="42.89635" lon="0.1077">
        <ele>1553.63</ele>
        <time>2012-02-11T07:51:27Z</time>
      </trkpt>
      <trkpt lat="42.89631" lon="0.10771">
        <ele>1554.59</ele>
        <time>2012-02-11T07:51:32Z</time>
      </trkpt>
      <trkpt lat="42.89622" lon="0.10775">
        <ele>1555.55</ele>
        <time>2012-02-11T07:51:45Z</time>
      </trkpt>
      <trkpt lat="42.89614" lon="0.10779">
        <ele>1556.99</ele>
        <time>2012-02-11T07:51:55Z</time>
      </trkpt>
      <trkpt lat="42.89613" lon="0.1078">
        <ele>1556.99</ele>
        <time>2012-02-11T07:51:57Z</time>
      </trkpt>
      <trkpt lat="42.89607" lon="0.10782">
        <ele>1557.95</ele>
        <time>2012-02-11T07:52:10Z</time>
      </trkpt>
      <trkpt lat="42.89602" lon="0.10783">
        <ele>1558.43</ele>
        <time>2012-02-11T07:52:16Z</time>
      </trkpt>
      <trkpt lat="42.89593" lon="0.10786">
        <ele>1560.84</ele>
        <time>2012-02-11T07:52:27Z</time>
      </trkpt>
      <trkpt lat="42.89592" lon="0.10786">
        <ele>1560.84</ele>
        <time>2012-02-11T07:52:28Z</time>
      </trkpt>
      <trkpt lat="42.89589" lon="0.10787">
        <ele>1561.32</ele>
        <time>2012-02-11T07:52:36Z</time>
      </trkpt>
      <trkpt lat="42.89585" lon="0.10787">
        <ele>1561.32</ele>
        <time>2012-02-11T07:52:40Z</time>
      </trkpt>
      <trkpt lat="42.89574" lon="0.10786">
        <ele>1562.76</ele>
        <time>2012-02-11T07:52:53Z</time>
      </trkpt>
      <trkpt lat="42.89565" lon="0.10784">
        <ele>1565.16</ele>
        <time>2012-02-11T07:53:05Z</time>
      </trkpt>
      <trkpt lat="42.89557" lon="0.10781">
        <ele>1566.12</ele>
        <time>2012-02-11T07:53:16Z</time>
      </trkpt>
      <trkpt lat="42.89547" lon="0.10778">
        <ele>1567.57</ele>
        <time>2012-02-11T07:53:28Z</time>
      </trkpt>
      <trkpt lat="42.89538" lon="0.10773">
        <ele>1570.45</ele>
        <time>2012-02-11T07:53:41Z</time>
      </trkpt>
      <trkpt lat="42.8953" lon="0.10769">
        <ele>1572.85</ele>
        <time>2012-02-11T07:53:52Z</time>
      </trkpt>
      <trkpt lat="42.89529" lon="0.10769">
        <ele>1572.37</ele>
        <time>2012-02-11T07:53:55Z</time>
      </trkpt>
      <trkpt lat="42.89526" lon="0.1077">
        <ele>1573.82</ele>
        <time>2012-02-11T07:53:58Z</time>
      </trkpt>
      <trkpt lat="42.89523" lon="0.10769">
        <ele>1573.33</ele>
        <time>2012-02-11T07:54:03Z</time>
      </trkpt>
      <trkpt lat="42.89511" lon="0.10766">
        <ele>1574.3</ele>
        <time>2012-02-11T07:54:14Z</time>
      </trkpt>
      <trkpt lat="42.8951" lon="0.10766">
        <ele>1574.3</ele>
        <time>2012-02-11T07:54:15Z</time>
      </trkpt>
      <trkpt lat="42.89508" lon="0.10764">
        <ele>1574.3</ele>
        <time>2012-02-11T07:54:19Z</time>
      </trkpt>
      <trkpt lat="42.89503" lon="0.10762">
        <ele>1575.26</ele>
        <time>2012-02-11T07:54:25Z</time>
      </trkpt>
      <trkpt lat="42.89492" lon="0.10757">
        <ele>1577.66</ele>
        <time>2012-02-11T07:54:38Z</time>
      </trkpt>
      <trkpt lat="42.89485" lon="0.10755">
        <ele>1579.1</ele>
        <time>2012-02-11T07:54:48Z</time>
      </trkpt>
      <trkpt lat="42.89483" lon="0.10755">
        <ele>1579.58</ele>
        <time>2012-02-11T07:54:50Z</time>
      </trkpt>
      <trkpt lat="42.89481" lon="0.10755">
        <ele>1580.06</ele>
        <time>2012-02-11T07:54:52Z</time>
      </trkpt>
      <trkpt lat="42.89472" lon="0.10754">
        <ele>1581.51</ele>
        <time>2012-02-11T07:55:04Z</time>
      </trkpt>
      <trkpt lat="42.8947" lon="0.10754">
        <ele>1581.03</ele>
        <time>2012-02-11T07:55:06Z</time>
      </trkpt>
      <trkpt lat="42.89463" lon="0.10755">
        <ele>1582.47</ele>
        <time>2012-02-11T07:55:14Z</time>
      </trkpt>
      <trkpt lat="42.89453" lon="0.10755">
        <ele>1583.43</ele>
        <time>2012-02-11T07:55:26Z</time>
      </trkpt>
      <trkpt lat="42.89443" lon="0.10754">
        <ele>1584.39</ele>
        <time>2012-02-11T07:55:37Z</time>
      </trkpt>
      <trkpt lat="42.89436" lon="0.10753">
        <ele>1585.35</ele>
        <time>2012-02-11T07:55:44Z</time>
      </trkpt>
      <trkpt lat="42.89428" lon="0.10758">
        <ele>1586.79</ele>
        <time>2012-02-11T07:55:56Z</time>
      </trkpt>
      <trkpt lat="42.89424" lon="0.10759">
        <ele>1588.72</ele>
        <time>2012-02-11T07:56:02Z</time>
      </trkpt>
      <trkpt lat="42.89419" lon="0.10759">
        <ele>1589.68</ele>
        <time>2012-02-11T07:56:07Z</time>
      </trkpt>
      <trkpt lat="42.89406" lon="0.10761">
        <ele>1590.16</ele>
        <time>2012-02-11T07:56:21Z</time>
      </trkpt>
      <trkpt lat="42.89397" lon="0.1076">
        <ele>1591.6</ele>
        <time>2012-02-11T07:56:31Z</time>
      </trkpt>
      <trkpt lat="42.89389" lon="0.1076">
        <ele>1593.04</ele>
        <time>2012-02-11T07:56:41Z</time>
      </trkpt>
      <trkpt lat="42.89386" lon="0.10759">
        <ele>1593.52</ele>
        <time>2012-02-11T07:56:43Z</time>
      </trkpt>
      <trkpt lat="42.89384" lon="0.10759">
        <ele>1593.52</ele>
        <time>2012-02-11T07:56:45Z</time>
      </trkpt>
      <trkpt lat="42.89382" lon="0.10759">
        <ele>1594.48</ele>
        <time>2012-02-11T07:56:47Z</time>
      </trkpt>
      <trkpt lat="42.89371" lon="0.1076">
        <ele>1595.45</ele>
        <time>2012-02-11T07:57:00Z</time>
      </trkpt>
      <trkpt lat="42.89362" lon="0.10762">
        <ele>1596.89</ele>
        <time>2012-02-11T07:57:11Z</time>
      </trkpt>
      <trkpt lat="42.89356" lon="0.10763">
        <ele>1597.85</ele>
        <time>2012-02-11T07:57:21Z</time>
      </trkpt>
      <trkpt lat="42.89353" lon="0.10765">
        <ele>1597.85</ele>
        <time>2012-02-11T07:57:25Z</time>
      </trkpt>
      <trkpt lat="42.8935" lon="0.10764">
        <ele>1597.85</ele>
        <time>2012-02-11T07:57:28Z</time>
      </trkpt>
      <trkpt lat="42.89344" lon="0.10763">
        <ele>1598.33</ele>
        <time>2012-02-11T07:57:33Z</time>
      </trkpt>
      <trkpt lat="42.89342" lon="0.10762">
        <ele>1599.29</ele>
        <time>2012-02-11T07:57:35Z</time>
      </trkpt>
      <trkpt lat="42.89333" lon="0.10754">
        <ele>1601.21</ele>
        <time>2012-02-11T07:57:48Z</time>
      </trkpt>
      <trkpt lat="42.89332" lon="0.10752">
        <ele>1601.21</ele>
        <time>2012-02-11T07:57:50Z</time>
      </trkpt>
      <trkpt lat="42.8933" lon="0.1075">
        <ele>1601.21</ele>
        <time>2012-02-11T07:57:52Z</time>
      </trkpt>
      <trkpt lat="42.89329" lon="0.10748">
        <ele>1601.69</ele>
        <time>2012-02-11T07:57:54Z</time>
      </trkpt>
      <trkpt lat="42.89324" lon="0.10745">
        <ele>1602.17</ele>
        <time>2012-02-11T07:58:00Z</time>
      </trkpt>
      <trkpt lat="42.89319" lon="0.10741">
        <ele>1602.66</ele>
        <time>2012-02-11T07:58:06Z</time>
      </trkpt>
      <trkpt lat="42.89316" lon="0.10739">
        <ele>1603.14</ele>
        <time>2012-02-11T07:58:10Z</time>
      </trkpt>
      <trkpt lat="42.89306" lon="0.10734">
        <ele>1604.58</ele>
        <time>2012-02-11T07:58:23Z</time>
      </trkpt>
      <trkpt lat="42.89303" lon="0.10732">
        <ele>1605.54</ele>
        <time>2012-02-11T07:58:27Z</time>
      </trkpt>
      <trkpt lat="42.89297" lon="0.10731">
        <ele>1606.5</ele>
        <time>2012-02-11T07:58:33Z</time>
      </trkpt>
      <trkpt lat="42.89295" lon="0.1073">
        <ele>1605.54</ele>
        <time>2012-02-11T07:58:35Z</time>
      </trkpt>
      <trkpt lat="42.89293" lon="0.10728">
        <ele>1606.5</ele>
        <time>2012-02-11T07:58:37Z</time>
      </trkpt>
      <trkpt lat="42.8929" lon="0.10728">
        <ele>1607.94</ele>
        <time>2012-02-11T07:58:41Z</time>
      </trkpt>
      <trkpt lat="42.89284" lon="0.10727">
        <ele>1607.94</ele>
        <time>2012-02-11T07:58:46Z</time>
      </trkpt>
      <trkpt lat="42.89283" lon="0.10726">
        <ele>1607.94</ele>
        <time>2012-02-11T07:58:48Z</time>
      </trkpt>
      <trkpt lat="42.89278" lon="0.10726">
        <ele>1609.38</ele>
        <time>2012-02-11T07:58:54Z</time>
      </trkpt>
      <trkpt lat="42.89276" lon="0.10726">
        <ele>1608.9</ele>
        <time>2012-02-11T07:58:56Z</time>
      </trkpt>
      <trkpt lat="42.89266" lon="0.10726">
        <ele>1609.38</ele>
        <time>2012-02-11T07:59:08Z</time>
      </trkpt>
      <trkpt lat="42.89261" lon="0.10723">
        <ele>1609.86</ele>
        <time>2012-02-11T07:59:14Z</time>
      </trkpt>
      <trkpt lat="42.89256" lon="0.10722">
        <ele>1611.31</ele>
        <time>2012-02-11T07:59:20Z</time>
      </trkpt>
      <trkpt lat="42.89248" lon="0.10721">
        <ele>1612.75</ele>
        <time>2012-02-11T07:59:29Z</time>
      </trkpt>
      <trkpt lat="42.89247" lon="0.10721">
        <ele>1613.23</ele>
        <time>2012-02-11T07:59:31Z</time>
      </trkpt>
      <trkpt lat="42.89237" lon="0.10719">
        <ele>1615.15</ele>
        <time>2012-02-11T07:59:42Z</time>
      </trkpt>
      <trkpt lat="42.89234" lon="0.10719">
        <ele>1615.15</ele>
        <time>2012-02-11T07:59:46Z</time>
      </trkpt>
      <trkpt lat="42.89232" lon="0.10718">
        <ele>1615.63</ele>
        <time>2012-02-11T07:59:48Z</time>
      </trkpt>
      <trkpt lat="42.89222" lon="0.10719">
        <ele>1616.11</ele>
        <time>2012-02-11T08:00:00Z</time>
      </trkpt>
      <trkpt lat="42.89222" lon="0.10719">
        <ele>1616.59</ele>
        <time>2012-02-11T08:00:01Z</time>
      </trkpt>
      <trkpt lat="42.89218" lon="0.1072">
        <ele>1616.59</ele>
        <time>2012-02-11T08:00:05Z</time>
      </trkpt>
      <trkpt lat="42.89213" lon="0.1072">
        <ele>1616.59</ele>
        <time>2012-02-11T08:00:10Z</time>
      </trkpt>
      <trkpt lat="42.89212" lon="0.10718">
        <ele>1617.56</ele>
        <time>2012-02-11T08:00:12Z</time>
      </trkpt>
      <trkpt lat="42.892" lon="0.10717">
        <ele>1619.48</ele>
        <time>2012-02-11T08:00:25Z</time>
      </trkpt>
      <trkpt lat="42.89195" lon="0.10717">
        <ele>1619.96</ele>
        <time>2012-02-11T08:00:30Z</time>
      </trkpt>
      <trkpt lat="42.89191" lon="0.10715">
        <ele>1620.44</ele>
        <time>2012-02-11T08:00:36Z</time>
      </trkpt>
      <trkpt lat="42.8918" lon="0.10714">
        <ele>1622.36</ele>
        <time>2012-02-11T08:00:46Z</time>
      </trkpt>
      <trkpt lat="42.89169" lon="0.10711">
        <ele>1623.8</ele>
        <time>2012-02-11T08:00:59Z</time>
      </trkpt>
      <trkpt lat="42.89166" lon="0.10711">
        <ele>1624.77</ele>
        <time>2012-02-11T08:01:04Z</time>
      </trkpt>
      <trkpt lat="42.89153" lon="0.10711">
        <ele>1626.69</ele>
        <time>2012-02-11T08:01:18Z</time>
      </trkpt>
      <trkpt lat="42.89144" lon="0.10713">
        <ele>1628.61</ele>
        <time>2012-02-11T08:01:29Z</time>
      </trkpt>
      <trkpt lat="42.89133" lon="0.10717">
        <ele>1629.57</ele>
        <time>2012-02-11T08:01:42Z</time>
      </trkpt>
      <trkpt lat="42.89132" lon="0.10717">
        <ele>1630.53</ele>
        <time>2012-02-11T08:01:43Z</time>
      </trkpt>
      <trkpt lat="42.89127" lon="0.1072">
        <ele>1631.49</ele>
        <time>2012-02-11T08:01:51Z</time>
      </trkpt>
      <trkpt lat="42.89124" lon="0.10721">
        <ele>1631.49</ele>
        <time>2012-02-11T08:01:55Z</time>
      </trkpt>
      <trkpt lat="42.8911" lon="0.10725">
        <ele>1632.94</ele>
        <time>2012-02-11T08:02:08Z</time>
      </trkpt>
      <trkpt lat="42.89109" lon="0.10724">
        <ele>1632.94</ele>
        <time>2012-02-11T08:02:10Z</time>
      </trkpt>
      <trkpt lat="42.89107" lon="0.10724">
        <ele>1633.42</ele>
        <time>2012-02-11T08:02:12Z</time>
      </trkpt>
      <trkpt lat="42.89105" lon="0.10724">
        <ele>1633.9</ele>
        <time>2012-02-11T08:02:14Z</time>
      </trkpt>
      <trkpt lat="42.89096" lon="0.10723">
        <ele>1635.34</ele>
        <time>2012-02-11T08:02:26Z</time>
      </trkpt>
      <trkpt lat="42.89094" lon="0.10722">
        <ele>1635.34</ele>
        <time>2012-02-11T08:02:28Z</time>
      </trkpt>
      <trkpt lat="42.89092" lon="0.10721">
        <ele>1637.26</ele>
        <time>2012-02-11T08:02:30Z</time>
      </trkpt>
      <trkpt lat="42.89091" lon="0.10721">
        <ele>1637.26</ele>
        <time>2012-02-11T08:02:31Z</time>
      </trkpt>
      <trkpt lat="42.89089" lon="0.1072">
        <ele>1637.74</ele>
        <time>2012-02-11T08:02:34Z</time>
      </trkpt>
      <trkpt lat="42.89087" lon="0.1072">
        <ele>1638.22</ele>
        <time>2012-02-11T08:02:36Z</time>
      </trkpt>
      <trkpt lat="42.89085" lon="0.10719">
        <ele>1638.7</ele>
        <time>2012-02-11T08:02:38Z</time>
      </trkpt>
      <trkpt lat="42.89083" lon="0.1072">
        <ele>1638.7</ele>
        <time>2012-02-11T08:02:40Z</time>
      </trkpt>
      <trkpt lat="42.89081" lon="0.10719">
        <ele>1639.19</ele>
        <time>2012-02-11T08:02:42Z</time>
      </trkpt>
      <trkpt lat="42.89073" lon="0.10721">
        <ele>1641.11</ele>
        <time>2012-02-11T08:02:54Z</time>
      </trkpt>
      <trkpt lat="42.89072" lon="0.10721">
        <ele>1640.15</ele>
        <time>2012-02-11T08:03:03Z</time>
      </trkpt>
      <trkpt lat="42.89072" lon="0.10721">
        <ele>1639.67</ele>
        <time>2012-02-11T08:03:15Z</time>
      </trkpt>
      <trkpt lat="42.89072" lon="0.1072">
        <ele>1640.15</ele>
        <time>2012-02-11T08:03:46Z</time>
      </trkpt>
      <trkpt lat="42.89073" lon="0.1072">
        <ele>1644.95</ele>
        <time>2012-02-11T08:03:50Z</time>
      </trkpt>
      <trkpt lat="42.89073" lon="0.1072">
        <ele>1641.11</ele>
        <time>2012-02-11T08:03:51Z</time>
      </trkpt>
      <trkpt lat="42.89073" lon="0.1072">
        <ele>1644.95</ele>
        <time>2012-02-11T08:04:18Z</time>
      </trkpt>
      <trkpt lat="42.89073" lon="0.1072">
        <ele>1639.19</ele>
        <time>2012-02-11T08:04:22Z</time>
      </trkpt>
      <trkpt lat="42.89073" lon="0.1072">
        <ele>1642.55</ele>
        <time>2012-02-11T08:04:23Z</time>
      </trkpt>
      <trkpt lat="42.89074" lon="0.10721">
        <ele>1642.07</ele>
        <time>2012-02-11T08:04:43Z</time>
      </trkpt>
      <trkpt lat="42.89074" lon="0.10721">
        <ele>1642.07</ele>
        <time>2012-02-11T08:05:00Z</time>
      </trkpt>
      <trkpt lat="42.89074" lon="0.10722">
        <ele>1643.03</ele>
        <time>2012-02-11T08:05:19Z</time>
      </trkpt>
      <trkpt lat="42.89075" lon="0.10721">
        <ele>1643.03</ele>
        <time>2012-02-11T08:05:27Z</time>
      </trkpt>
      <trkpt lat="42.89075" lon="0.10721">
        <ele>1643.51</ele>
        <time>2012-02-11T08:05:45Z</time>
      </trkpt>
      <trkpt lat="42.89073" lon="0.10723">
        <ele>1644.47</ele>
        <time>2012-02-11T08:05:57Z</time>
      </trkpt>
      <trkpt lat="42.89065" lon="0.10736">
        <ele>1645.43</ele>
        <time>2012-02-11T08:06:09Z</time>
      </trkpt>
      <trkpt lat="42.89063" lon="0.10737">
        <ele>1645.91</ele>
        <time>2012-02-11T08:06:11Z</time>
      </trkpt>
      <trkpt lat="42.89049" lon="0.10745">
        <ele>1646.88</ele>
        <time>2012-02-11T08:06:26Z</time>
      </trkpt>
      <trkpt lat="42.89043" lon="0.10747">
        <ele>1647.84</ele>
        <time>2012-02-11T08:06:33Z</time>
      </trkpt>
      <trkpt lat="42.89039" lon="0.10748">
        <ele>1647.84</ele>
        <time>2012-02-11T08:06:37Z</time>
      </trkpt>
      <trkpt lat="42.89033" lon="0.10749">
        <ele>1649.76</ele>
        <time>2012-02-11T08:06:43Z</time>
      </trkpt>
      <trkpt lat="42.89032" lon="0.10748">
        <ele>1649.76</ele>
        <time>2012-02-11T08:06:45Z</time>
      </trkpt>
      <trkpt lat="42.89019" lon="0.10749">
        <ele>1651.2</ele>
        <time>2012-02-11T08:06:58Z</time>
      </trkpt>
      <trkpt lat="42.89015" lon="0.10749">
        <ele>1652.16</ele>
        <time>2012-02-11T08:07:03Z</time>
      </trkpt>
      <trkpt lat="42.89011" lon="0.10749">
        <ele>1653.6</ele>
        <time>2012-02-11T08:07:07Z</time>
      </trkpt>
      <trkpt lat="42.89009" lon="0.10749">
        <ele>1652.64</ele>
        <time>2012-02-11T08:07:09Z</time>
      </trkpt>
      <trkpt lat="42.89007" lon="0.10749">
        <ele>1653.12</ele>
        <time>2012-02-11T08:07:12Z</time>
      </trkpt>
      <trkpt lat="42.89003" lon="0.10749">
        <ele>1654.09</ele>
        <time>2012-02-11T08:07:15Z</time>
      </trkpt>
      <trkpt lat="42.88999" lon="0.10749">
        <ele>1655.53</ele>
        <time>2012-02-11T08:07:19Z</time>
      </trkpt>
      <trkpt lat="42.88995" lon="0.1075">
        <ele>1655.05</ele>
        <time>2012-02-11T08:07:24Z</time>
      </trkpt>
      <trkpt lat="42.88987" lon="0.10748">
        <ele>1655.53</ele>
        <time>2012-02-11T08:07:33Z</time>
      </trkpt>
      <trkpt lat="42.88985" lon="0.10748">
        <ele>1653.6</ele>
        <time>2012-02-11T08:07:35Z</time>
      </trkpt>
      <trkpt lat="42.88983" lon="0.10747">
        <ele>1654.09</ele>
        <time>2012-02-11T08:07:37Z</time>
      </trkpt>
      <trkpt lat="42.8898" lon="0.10746">
        <ele>1654.57</ele>
        <time>2012-02-11T08:07:40Z</time>
      </trkpt>
      <trkpt lat="42.88973" lon="0.10744">
        <ele>1656.01</ele>
        <time>2012-02-11T08:07:47Z</time>
      </trkpt>
      <trkpt lat="42.88964" lon="0.10745">
        <ele>1656.49</ele>
        <time>2012-02-11T08:07:57Z</time>
      </trkpt>
      <trkpt lat="42.88962" lon="0.10746">
        <ele>1656.49</ele>
        <time>2012-02-11T08:07:59Z</time>
      </trkpt>
      <trkpt lat="42.88952" lon="0.10745">
        <ele>1657.45</ele>
        <time>2012-02-11T08:08:08Z</time>
      </trkpt>
      <trkpt lat="42.88951" lon="0.10745">
        <ele>1657.93</ele>
        <time>2012-02-11T08:08:10Z</time>
      </trkpt>
      <trkpt lat="42.88944" lon="0.10747">
        <ele>1658.41</ele>
        <time>2012-02-11T08:08:17Z</time>
      </trkpt>
      <trkpt lat="42.88942" lon="0.10746">
        <ele>1657.93</ele>
        <time>2012-02-11T08:08:19Z</time>
      </trkpt>
      <trkpt lat="42.88939" lon="0.10748">
        <ele>1658.41</ele>
        <time>2012-02-11T08:08:23Z</time>
      </trkpt>
      <trkpt lat="42.88938" lon="0.10751">
        <ele>1658.89</ele>
        <time>2012-02-11T08:08:25Z</time>
      </trkpt>
      <trkpt lat="42.88937" lon="0.10753">
        <ele>1658.89</ele>
        <time>2012-02-11T08:08:27Z</time>
      </trkpt>
      <trkpt lat="42.88936" lon="0.10755">
        <ele>1660.33</ele>
        <time>2012-02-11T08:08:29Z</time>
      </trkpt>
      <trkpt lat="42.88934" lon="0.10756">
        <ele>1659.37</ele>
        <time>2012-02-11T08:08:32Z</time>
      </trkpt>
      <trkpt lat="42.88923" lon="0.10762">
        <ele>1659.85</ele>
        <time>2012-02-11T08:08:45Z</time>
      </trkpt>
      <trkpt lat="42.8892" lon="0.10764">
        <ele>1659.85</ele>
        <time>2012-02-11T08:08:48Z</time>
      </trkpt>
      <trkpt lat="42.88915" lon="0.10771">
        <ele>1659.85</ele>
        <time>2012-02-11T08:08:57Z</time>
      </trkpt>
      <trkpt lat="42.88905" lon="0.10781">
        <ele>1659.85</ele>
        <time>2012-02-11T08:09:09Z</time>
      </trkpt>
      <trkpt lat="42.88897" lon="0.10784">
        <ele>1660.33</ele>
        <time>2012-02-11T08:09:17Z</time>
      </trkpt>
      <trkpt lat="42.88891" lon="0.10787">
        <ele>1660.81</ele>
        <time>2012-02-11T08:09:24Z</time>
      </trkpt>
      <trkpt lat="42.88889" lon="0.10787">
        <ele>1660.81</ele>
        <time>2012-02-11T08:09:26Z</time>
      </trkpt>
      <trkpt lat="42.8888" lon="0.10792">
        <ele>1662.26</ele>
        <time>2012-02-11T08:09:36Z</time>
      </trkpt>
      <trkpt lat="42.88873" lon="0.10796">
        <ele>1664.18</ele>
        <time>2012-02-11T08:09:45Z</time>
      </trkpt>
      <trkpt lat="42.88871" lon="0.10797">
        <ele>1663.7</ele>
        <time>2012-02-11T08:09:47Z</time>
      </trkpt>
      <trkpt lat="42.88863" lon="0.10799">
        <ele>1664.66</ele>
        <time>2012-02-11T08:09:55Z</time>
      </trkpt>
      <trkpt lat="42.88859" lon="0.10799">
        <ele>1664.66</ele>
        <time>2012-02-11T08:09:58Z</time>
      </trkpt>
      <trkpt lat="42.88855" lon="0.108">
        <ele>1666.1</ele>
        <time>2012-02-11T08:10:03Z</time>
      </trkpt>
      <trkpt lat="42.88845" lon="0.108">
        <ele>1666.58</ele>
        <time>2012-02-11T08:10:12Z</time>
      </trkpt>
      <trkpt lat="42.88844" lon="0.10802">
        <ele>1667.54</ele>
        <time>2012-02-11T08:10:14Z</time>
      </trkpt>
      <trkpt lat="42.88837" lon="0.10806">
        <ele>1667.54</ele>
        <time>2012-02-11T08:10:20Z</time>
      </trkpt>
      <trkpt lat="42.88834" lon="0.10809">
        <ele>1668.02</ele>
        <time>2012-02-11T08:10:24Z</time>
      </trkpt>
      <trkpt lat="42.88832" lon="0.10809">
        <ele>1668.51</ele>
        <time>2012-02-11T08:10:26Z</time>
      </trkpt>
      <trkpt lat="42.88826" lon="0.10812">
        <ele>1668.99</ele>
        <time>2012-02-11T08:10:32Z</time>
      </trkpt>
      <trkpt lat="42.88823" lon="0.10814">
        <ele>1668.99</ele>
        <time>2012-02-11T08:10:36Z</time>
      </trkpt>
      <trkpt lat="42.88816" lon="0.10815">
        <ele>1670.43</ele>
        <time>2012-02-11T08:10:43Z</time>
      </trkpt>
      <trkpt lat="42.88814" lon="0.10816">
        <ele>1670.43</ele>
        <time>2012-02-11T08:10:46Z</time>
      </trkpt>
      <trkpt lat="42.88812" lon="0.10815">
        <ele>1670.91</ele>
        <time>2012-02-11T08:10:48Z</time>
      </trkpt>
      <trkpt lat="42.8881" lon="0.10816">
        <ele>1671.87</ele>
        <time>2012-02-11T08:10:51Z</time>
      </trkpt>
      <trkpt lat="42.88806" lon="0.10817">
        <ele>1671.87</ele>
        <time>2012-02-11T08:10:54Z</time>
      </trkpt>
      <trkpt lat="42.88794" lon="0.10819">
        <ele>1673.31</ele>
        <time>2012-02-11T08:11:06Z</time>
      </trkpt>
      <trkpt lat="42.8879" lon="0.1082">
        <ele>1673.79</ele>
        <time>2012-02-11T08:11:11Z</time>
      </trkpt>
      <trkpt lat="42.88788" lon="0.10821">
        <ele>1673.79</ele>
        <time>2012-02-11T08:11:13Z</time>
      </trkpt>
      <trkpt lat="42.88783" lon="0.10824">
        <ele>1675.23</ele>
        <time>2012-02-11T08:11:19Z</time>
      </trkpt>
      <trkpt lat="42.88779" lon="0.10826">
        <ele>1675.23</ele>
        <time>2012-02-11T08:11:23Z</time>
      </trkpt>
      <trkpt lat="42.88776" lon="0.10829">
        <ele>1676.2</ele>
        <time>2012-02-11T08:11:29Z</time>
      </trkpt>
      <trkpt lat="42.88774" lon="0.10829">
        <ele>1675.72</ele>
        <time>2012-02-11T08:11:31Z</time>
      </trkpt>
      <trkpt lat="42.88771" lon="0.10833">
        <ele>1676.68</ele>
        <time>2012-02-11T08:11:37Z</time>
      </trkpt>
      <trkpt lat="42.88765" lon="0.10833">
        <ele>1677.64</ele>
        <time>2012-02-11T08:11:43Z</time>
      </trkpt>
      <trkpt lat="42.8876" lon="0.10834">
        <ele>1678.12</ele>
        <time>2012-02-11T08:11:48Z</time>
      </trkpt>
      <trkpt lat="42.88756" lon="0.10834">
        <ele>1678.6</ele>
        <time>2012-02-11T08:11:52Z</time>
      </trkpt>
      <trkpt lat="42.88752" lon="0.10833">
        <ele>1678.6</ele>
        <time>2012-02-11T08:11:56Z</time>
      </trkpt>
      <trkpt lat="42.88744" lon="0.10833">
        <ele>1679.56</ele>
        <time>2012-02-11T08:12:05Z</time>
      </trkpt>
      <trkpt lat="42.88742" lon="0.10835">
        <ele>1680.04</ele>
        <time>2012-02-11T08:12:08Z</time>
      </trkpt>
      <trkpt lat="42.88735" lon="0.10837">
        <ele>1681</ele>
        <time>2012-02-11T08:12:19Z</time>
      </trkpt>
      <trkpt lat="42.88734" lon="0.10837">
        <ele>1681.48</ele>
        <time>2012-02-11T08:12:21Z</time>
      </trkpt>
      <trkpt lat="42.8873" lon="0.10838">
        <ele>1681.96</ele>
        <time>2012-02-11T08:12:28Z</time>
      </trkpt>
      <trkpt lat="42.88723" lon="0.10836">
        <ele>1682.44</ele>
        <time>2012-02-11T08:12:39Z</time>
      </trkpt>
      <trkpt lat="42.8872" lon="0.10835">
        <ele>1682.93</ele>
        <time>2012-02-11T08:12:42Z</time>
      </trkpt>
      <trkpt lat="42.88714" lon="0.10838">
        <ele>1684.37</ele>
        <time>2012-02-11T08:12:54Z</time>
      </trkpt>
      <trkpt lat="42.88713" lon="0.10838">
        <ele>1684.85</ele>
        <time>2012-02-11T08:13:18Z</time>
      </trkpt>
      <trkpt lat="42.8871" lon="0.10837">
        <ele>1685.33</ele>
        <time>2012-02-11T08:13:34Z</time>
      </trkpt>
      <trkpt lat="42.88706" lon="0.10838">
        <ele>1685.33</ele>
        <time>2012-02-11T08:13:40Z</time>
      </trkpt>
      <trkpt lat="42.88702" lon="0.10838">
        <ele>1685.81</ele>
        <time>2012-02-11T08:13:44Z</time>
      </trkpt>
      <trkpt lat="42.88694" lon="0.10838">
        <ele>1686.77</ele>
        <time>2012-02-11T08:13:52Z</time>
      </trkpt>
      <trkpt lat="42.88683" lon="0.10841">
        <ele>1688.69</ele>
        <time>2012-02-11T08:14:05Z</time>
      </trkpt>
      <trkpt lat="42.88676" lon="0.10842">
        <ele>1690.14</ele>
        <time>2012-02-11T08:14:13Z</time>
      </trkpt>
      <trkpt lat="42.88672" lon="0.10841">
        <ele>1689.65</ele>
        <time>2012-02-11T08:14:16Z</time>
      </trkpt>
      <trkpt lat="42.88669" lon="0.10841">
        <ele>1690.14</ele>
        <time>2012-02-11T08:14:20Z</time>
      </trkpt>
      <trkpt lat="42.88666" lon="0.10841">
        <ele>1691.1</ele>
        <time>2012-02-11T08:14:23Z</time>
      </trkpt>
      <trkpt lat="42.88655" lon="0.10841">
        <ele>1692.06</ele>
        <time>2012-02-11T08:14:35Z</time>
      </trkpt>
      <trkpt lat="42.88653" lon="0.10841">
        <ele>1693.02</ele>
        <time>2012-02-11T08:14:45Z</time>
      </trkpt>
      <trkpt lat="42.88653" lon="0.10841">
        <ele>1693.02</ele>
        <time>2012-02-11T08:14:56Z</time>
      </trkpt>
      <trkpt lat="42.88653" lon="0.10841">
        <ele>1693.02</ele>
        <time>2012-02-11T08:15:08Z</time>
      </trkpt>
      <trkpt lat="42.88653" lon="0.10842">
        <ele>1693.98</ele>
        <time>2012-02-11T08:15:21Z</time>
      </trkpt>
      <trkpt lat="42.88654" lon="0.10842">
        <ele>1693.02</ele>
        <time>2012-02-11T08:15:34Z</time>
      </trkpt>
      <trkpt lat="42.88654" lon="0.10844">
        <ele>1691.58</ele>
        <time>2012-02-11T08:15:45Z</time>
      </trkpt>
      <trkpt lat="42.88654" lon="0.10844">
        <ele>1691.58</ele>
        <time>2012-02-11T08:16:05Z</time>
      </trkpt>
      <trkpt lat="42.88653" lon="0.10844">
        <ele>1691.58</ele>
        <time>2012-02-11T08:16:43Z</time>
      </trkpt>
      <trkpt lat="42.88653" lon="0.10843">
        <ele>1691.58</ele>
        <time>2012-02-11T08:17:19Z</time>
      </trkpt>
      <trkpt lat="42.88653" lon="0.10843">
        <ele>1691.1</ele>
        <time>2012-02-11T08:17:57Z</time>
      </trkpt>
      <trkpt lat="42.88653" lon="0.10841">
        <ele>1691.58</ele>
        <time>2012-02-11T08:18:09Z</time>
      </trkpt>
      <trkpt lat="42.88653" lon="0.10841">
        <ele>1690.62</ele>
        <time>2012-02-11T08:18:40Z</time>
      </trkpt>
      <trkpt lat="42.88653" lon="0.10841">
        <ele>1692.06</ele>
        <time>2012-02-11T08:19:02Z</time>
      </trkpt>
      <trkpt lat="42.88652" lon="0.10841">
        <ele>1689.65</ele>
        <time>2012-02-11T08:19:12Z</time>
      </trkpt>
      <trkpt lat="42.88652" lon="0.10841">
        <ele>1690.62</ele>
        <time>2012-02-11T08:19:17Z</time>
      </trkpt>
      <trkpt lat="42.88652" lon="0.10841">
        <ele>1690.62</ele>
        <time>2012-02-11T08:19:35Z</time>
      </trkpt>
      <trkpt lat="42.88652" lon="0.10841">
        <ele>1690.62</ele>
        <time>2012-02-11T08:19:55Z</time>
      </trkpt>
      <trkpt lat="42.88652" lon="0.10841">
        <ele>1691.58</ele>
        <time>2012-02-11T08:20:18Z</time>
      </trkpt>
      <trkpt lat="42.88652" lon="0.10841">
        <ele>1691.58</ele>
        <time>2012-02-11T08:20:41Z</time>
      </trkpt>
      <trkpt lat="42.88652" lon="0.10841">
        <ele>1692.54</ele>
        <time>2012-02-11T08:21:08Z</time>
      </trkpt>
      <trkpt lat="42.88652" lon="0.10841">
        <ele>1693.5</ele>
        <time>2012-02-11T08:21:35Z</time>
      </trkpt>
      <trkpt lat="42.88652" lon="0.10841">
        <ele>1693.5</ele>
        <time>2012-02-11T08:22:01Z</time>
      </trkpt>
      <trkpt lat="42.88652" lon="0.10841">
        <ele>1677.64</ele>
        <time>2012-02-11T08:22:24Z</time>
      </trkpt>
      <trkpt lat="42.88652" lon="0.10841">
        <ele>1694.94</ele>
        <time>2012-02-11T08:22:25Z</time>
      </trkpt>
      <trkpt lat="42.88652" lon="0.10841">
        <ele>1694.94</ele>
        <time>2012-02-11T08:22:31Z</time>
      </trkpt>
      <trkpt lat="42.88653" lon="0.10843">
        <ele>1694.94</ele>
        <time>2012-02-11T08:22:40Z</time>
      </trkpt>
      <trkpt lat="42.88659" lon="0.10851">
        <ele>1694.94</ele>
        <time>2012-02-11T08:22:56Z</time>
      </trkpt>
      <trkpt lat="42.88657" lon="0.10849">
        <ele>1695.42</ele>
        <time>2012-02-11T08:23:07Z</time>
      </trkpt>
      <trkpt lat="42.88655" lon="0.10849">
        <ele>1695.9</ele>
        <time>2012-02-11T08:23:23Z</time>
      </trkpt>
      <trkpt lat="42.88652" lon="0.10848">
        <ele>1696.38</ele>
        <time>2012-02-11T08:23:34Z</time>
      </trkpt>
      <trkpt lat="42.88651" lon="0.10848">
        <ele>1696.38</ele>
        <time>2012-02-11T08:23:43Z</time>
      </trkpt>
      <trkpt lat="42.88651" lon="0.10852">
        <ele>1698.31</ele>
        <time>2012-02-11T08:23:58Z</time>
      </trkpt>
      <trkpt lat="42.88649" lon="0.10854">
        <ele>1699.27</ele>
        <time>2012-02-11T08:24:08Z</time>
      </trkpt>
      <trkpt lat="42.88642" lon="0.10855">
        <ele>1700.71</ele>
        <time>2012-02-11T08:24:21Z</time>
      </trkpt>
      <trkpt lat="42.88641" lon="0.10855">
        <ele>1700.23</ele>
        <time>2012-02-11T08:24:34Z</time>
      </trkpt>
      <trkpt lat="42.88638" lon="0.10858">
        <ele>1701.67</ele>
        <time>2012-02-11T08:24:43Z</time>
      </trkpt>
      <trkpt lat="42.88633" lon="0.10857">
        <ele>1703.59</ele>
        <time>2012-02-11T08:24:54Z</time>
      </trkpt>
      <trkpt lat="42.88632" lon="0.10855">
        <ele>1704.07</ele>
        <time>2012-02-11T08:24:56Z</time>
      </trkpt>
      <trkpt lat="42.88623" lon="0.10852">
        <ele>1705.52</ele>
        <time>2012-02-11T08:25:08Z</time>
      </trkpt>
      <trkpt lat="42.8862" lon="0.10852">
        <ele>1705.52</ele>
        <time>2012-02-11T08:25:21Z</time>
      </trkpt>
      <trkpt lat="42.88614" lon="0.10848">
        <ele>1706</ele>
        <time>2012-02-11T08:25:33Z</time>
      </trkpt>
      <trkpt lat="42.88608" lon="0.10854">
        <ele>1708.4</ele>
        <time>2012-02-11T08:25:52Z</time>
      </trkpt>
      <trkpt lat="42.88605" lon="0.10857">
        <ele>1708.88</ele>
        <time>2012-02-11T08:26:05Z</time>
      </trkpt>
      <trkpt lat="42.88605" lon="0.10857">
        <ele>1708.88</ele>
        <time>2012-02-11T08:26:06Z</time>
      </trkpt>
      <trkpt lat="42.886" lon="0.10862">
        <ele>1709.84</ele>
        <time>2012-02-11T08:26:20Z</time>
      </trkpt>
      <trkpt lat="42.886" lon="0.10862">
        <ele>1709.84</ele>
        <time>2012-02-11T08:26:33Z</time>
      </trkpt>
      <trkpt lat="42.88599" lon="0.10863">
        <ele>1709.36</ele>
        <time>2012-02-11T08:26:51Z</time>
      </trkpt>
      <trkpt lat="42.88594" lon="0.10864">
        <ele>1709.84</ele>
        <time>2012-02-11T08:27:02Z</time>
      </trkpt>
      <trkpt lat="42.88591" lon="0.10865">
        <ele>1709.36</ele>
        <time>2012-02-11T08:27:10Z</time>
      </trkpt>
      <trkpt lat="42.88591" lon="0.10865">
        <ele>1709.36</ele>
        <time>2012-02-11T08:27:28Z</time>
      </trkpt>
      <trkpt lat="42.88591" lon="0.10865">
        <ele>1709.36</ele>
        <time>2012-02-11T08:27:41Z</time>
      </trkpt>
      <trkpt lat="42.8859" lon="0.10865">
        <ele>1709.36</ele>
        <time>2012-02-11T08:27:49Z</time>
      </trkpt>
      <trkpt lat="42.8859" lon="0.10865">
        <ele>1709.36</ele>
        <time>2012-02-11T08:28:02Z</time>
      </trkpt>
      <trkpt lat="42.8859" lon="0.10865">
        <ele>1708.88</ele>
        <time>2012-02-11T08:28:21Z</time>
      </trkpt>
      <trkpt lat="42.8859" lon="0.10864">
        <ele>1708.88</ele>
        <time>2012-02-11T08:28:38Z</time>
      </trkpt>
      <trkpt lat="42.8859" lon="0.10864">
        <ele>1708.88</ele>
        <time>2012-02-11T08:29:01Z</time>
      </trkpt>
      <trkpt lat="42.88591" lon="0.10865">
        <ele>1709.36</ele>
        <time>2012-02-11T08:29:20Z</time>
      </trkpt>
      <trkpt lat="42.88591" lon="0.10866">
        <ele>1709.36</ele>
        <time>2012-02-11T08:29:45Z</time>
      </trkpt>
      <trkpt lat="42.88592" lon="0.10867">
        <ele>1709.36</ele>
        <time>2012-02-11T08:30:09Z</time>
      </trkpt>
      <trkpt lat="42.8859" lon="0.10865">
        <ele>1709.36</ele>
        <time>2012-02-11T08:30:24Z</time>
      </trkpt>
      <trkpt lat="42.88591" lon="0.10866">
        <ele>1708.88</ele>
        <time>2012-02-11T08:30:35Z</time>
      </trkpt>
      <trkpt lat="42.88591" lon="0.10866">
        <ele>1709.84</ele>
        <time>2012-02-11T08:30:37Z</time>
      </trkpt>
      <trkpt lat="42.88588" lon="0.10869">
        <ele>1709.84</ele>
        <time>2012-02-11T08:30:57Z</time>
      </trkpt>
      <trkpt lat="42.88582" lon="0.10875">
        <ele>1710.8</ele>
        <time>2012-02-11T08:31:07Z</time>
      </trkpt>
      <trkpt lat="42.88579" lon="0.10878">
        <ele>1711.28</ele>
        <time>2012-02-11T08:31:14Z</time>
      </trkpt>
      <trkpt lat="42.88578" lon="0.10879">
        <ele>1712.73</ele>
        <time>2012-02-11T08:31:17Z</time>
      </trkpt>
      <trkpt lat="42.88573" lon="0.10884">
        <ele>1714.17</ele>
        <time>2012-02-11T08:31:26Z</time>
      </trkpt>
      <trkpt lat="42.88567" lon="0.10893">
        <ele>1715.13</ele>
        <time>2012-02-11T08:31:37Z</time>
      </trkpt>
      <trkpt lat="42.88565" lon="0.10895">
        <ele>1716.09</ele>
        <time>2012-02-11T08:31:40Z</time>
      </trkpt>
      <trkpt lat="42.88563" lon="0.10898">
        <ele>1716.57</ele>
        <time>2012-02-11T08:31:43Z</time>
      </trkpt>
      <trkpt lat="42.88562" lon="0.109">
        <ele>1717.05</ele>
        <time>2012-02-11T08:31:45Z</time>
      </trkpt>
      <trkpt lat="42.88558" lon="0.10911">
        <ele>1718.49</ele>
        <time>2012-02-11T08:31:57Z</time>
      </trkpt>
      <trkpt lat="42.88558" lon="0.10912">
        <ele>1718.49</ele>
        <time>2012-02-11T08:31:58Z</time>
      </trkpt>
      <trkpt lat="42.88556" lon="0.10916">
        <ele>1718.97</ele>
        <time>2012-02-11T08:32:02Z</time>
      </trkpt>
      <trkpt lat="42.88554" lon="0.10921">
        <ele>1719.94</ele>
        <time>2012-02-11T08:32:06Z</time>
      </trkpt>
      <trkpt lat="42.88554" lon="0.10923">
        <ele>1719.46</ele>
        <time>2012-02-11T08:32:08Z</time>
      </trkpt>
      <trkpt lat="42.88552" lon="0.10926">
        <ele>1719.94</ele>
        <time>2012-02-11T08:32:10Z</time>
      </trkpt>
      <trkpt lat="42.88541" lon="0.10938">
        <ele>1721.38</ele>
        <time>2012-02-11T08:32:24Z</time>
      </trkpt>
      <trkpt lat="42.88541" lon="0.1094">
        <ele>1721.86</ele>
        <time>2012-02-11T08:32:25Z</time>
      </trkpt>
      <trkpt lat="42.88535" lon="0.10949">
        <ele>1723.3</ele>
        <time>2012-02-11T08:32:34Z</time>
      </trkpt>
      <trkpt lat="42.88533" lon="0.1095">
        <ele>1723.3</ele>
        <time>2012-02-11T08:32:36Z</time>
      </trkpt>
      <trkpt lat="42.88531" lon="0.10952">
        <ele>1723.3</ele>
        <time>2012-02-11T08:32:40Z</time>
      </trkpt>
      <trkpt lat="42.88525" lon="0.10959">
        <ele>1724.74</ele>
        <time>2012-02-11T08:32:50Z</time>
      </trkpt>
      <trkpt lat="42.88522" lon="0.10961">
        <ele>1725.22</ele>
        <time>2012-02-11T08:32:53Z</time>
      </trkpt>
      <trkpt lat="42.88519" lon="0.10963">
        <ele>1725.22</ele>
        <time>2012-02-11T08:32:57Z</time>
      </trkpt>
      <trkpt lat="42.88516" lon="0.10967">
        <ele>1725.7</ele>
        <time>2012-02-11T08:33:01Z</time>
      </trkpt>
      <trkpt lat="42.88515" lon="0.10971">
        <ele>1726.18</ele>
        <time>2012-02-11T08:33:04Z</time>
      </trkpt>
      <trkpt lat="42.88513" lon="0.10972">
        <ele>1726.18</ele>
        <time>2012-02-11T08:33:06Z</time>
      </trkpt>
      <trkpt lat="42.88511" lon="0.10973">
        <ele>1726.67</ele>
        <time>2012-02-11T08:33:08Z</time>
      </trkpt>
      <trkpt lat="42.88503" lon="0.10987">
        <ele>1727.63</ele>
        <time>2012-02-11T08:33:22Z</time>
      </trkpt>
      <trkpt lat="42.88502" lon="0.10987">
        <ele>1728.11</ele>
        <time>2012-02-11T08:33:34Z</time>
      </trkpt>
      <trkpt lat="42.88502" lon="0.10987">
        <ele>1727.63</ele>
        <time>2012-02-11T08:33:53Z</time>
      </trkpt>
      <trkpt lat="42.88502" lon="0.10987">
        <ele>1727.63</ele>
        <time>2012-02-11T08:34:06Z</time>
      </trkpt>
      <trkpt lat="42.88502" lon="0.10987">
        <ele>1728.59</ele>
        <time>2012-02-11T08:34:31Z</time>
      </trkpt>
      <trkpt lat="42.88502" lon="0.10986">
        <ele>1728.59</ele>
        <time>2012-02-11T08:34:45Z</time>
      </trkpt>
      <trkpt lat="42.88502" lon="0.10986">
        <ele>1728.11</ele>
        <time>2012-02-11T08:35:02Z</time>
      </trkpt>
      <trkpt lat="42.88502" lon="0.10986">
        <ele>1728.11</ele>
        <time>2012-02-11T08:35:21Z</time>
      </trkpt>
      <trkpt lat="42.88502" lon="0.10986">
        <ele>1725.22</ele>
        <time>2012-02-11T08:35:41Z</time>
      </trkpt>
      <trkpt lat="42.88502" lon="0.10986">
        <ele>1718.01</ele>
        <time>2012-02-11T08:35:46Z</time>
      </trkpt>
      <trkpt lat="42.88502" lon="0.10986">
        <ele>1728.59</ele>
        <time>2012-02-11T08:35:47Z</time>
      </trkpt>
      <trkpt lat="42.88502" lon="0.10986">
        <ele>1722.82</ele>
        <time>2012-02-11T08:35:55Z</time>
      </trkpt>
      <trkpt lat="42.88502" lon="0.10986">
        <ele>1719.46</ele>
        <time>2012-02-11T08:35:56Z</time>
      </trkpt>
      <trkpt lat="42.88502" lon="0.10986">
        <ele>1729.07</ele>
        <time>2012-02-11T08:35:57Z</time>
      </trkpt>
      <trkpt lat="42.88502" lon="0.10986">
        <ele>1726.18</ele>
        <time>2012-02-11T08:35:58Z</time>
      </trkpt>
      <trkpt lat="42.88502" lon="0.10986">
        <ele>1730.51</ele>
        <time>2012-02-11T08:36:06Z</time>
      </trkpt>
      <trkpt lat="42.88502" lon="0.10986">
        <ele>1727.15</ele>
        <time>2012-02-11T08:36:07Z</time>
      </trkpt>
      <trkpt lat="42.88502" lon="0.10986">
        <ele>1735.8</ele>
        <time>2012-02-11T08:36:10Z</time>
      </trkpt>
      <trkpt lat="42.88502" lon="0.10986">
        <ele>1727.63</ele>
        <time>2012-02-11T08:36:11Z</time>
      </trkpt>
      <trkpt lat="42.88501" lon="0.10987">
        <ele>1727.15</ele>
        <time>2012-02-11T08:36:25Z</time>
      </trkpt>
      <trkpt lat="42.885" lon="0.10986">
        <ele>1726.67</ele>
        <time>2012-02-11T08:36:41Z</time>
      </trkpt>
      <trkpt lat="42.885" lon="0.10986">
        <ele>1726.67</ele>
        <time>2012-02-11T08:36:42Z</time>
      </trkpt>
      <trkpt lat="42.88497" lon="0.10991">
        <ele>1727.63</ele>
        <time>2012-02-11T08:36:47Z</time>
      </trkpt>
      <trkpt lat="42.88485" lon="0.11004">
        <ele>1730.03</ele>
        <time>2012-02-11T08:37:01Z</time>
      </trkpt>
      <trkpt lat="42.88484" lon="0.11004">
        <ele>1730.03</ele>
        <time>2012-02-11T08:37:02Z</time>
      </trkpt>
      <trkpt lat="42.88481" lon="0.11009">
        <ele>1730.99</ele>
        <time>2012-02-11T08:37:07Z</time>
      </trkpt>
      <trkpt lat="42.88475" lon="0.11018">
        <ele>1731.95</ele>
        <time>2012-02-11T08:37:16Z</time>
      </trkpt>
      <trkpt lat="42.88471" lon="0.11022">
        <ele>1732.91</ele>
        <time>2012-02-11T08:37:20Z</time>
      </trkpt>
      <trkpt lat="42.88459" lon="0.11037">
        <ele>1734.36</ele>
        <time>2012-02-11T08:37:33Z</time>
      </trkpt>
      <trkpt lat="42.88457" lon="0.11042">
        <ele>1734.36</ele>
        <time>2012-02-11T08:37:37Z</time>
      </trkpt>
      <trkpt lat="42.88455" lon="0.11047">
        <ele>1734.84</ele>
        <time>2012-02-11T08:37:41Z</time>
      </trkpt>
      <trkpt lat="42.88451" lon="0.11058">
        <ele>1736.28</ele>
        <time>2012-02-11T08:37:49Z</time>
      </trkpt>
      <trkpt lat="42.88448" lon="0.11064">
        <ele>1736.76</ele>
        <time>2012-02-11T08:37:54Z</time>
      </trkpt>
      <trkpt lat="42.8844" lon="0.11076">
        <ele>1736.76</ele>
        <time>2012-02-11T08:38:06Z</time>
      </trkpt>
      <trkpt lat="42.88428" lon="0.11087">
        <ele>1737.24</ele>
        <time>2012-02-11T08:38:18Z</time>
      </trkpt>
      <trkpt lat="42.8842" lon="0.11095">
        <ele>1737.72</ele>
        <time>2012-02-11T08:38:26Z</time>
      </trkpt>
      <trkpt lat="42.88416" lon="0.11099">
        <ele>1738.2</ele>
        <time>2012-02-11T08:38:30Z</time>
      </trkpt>
      <trkpt lat="42.8841" lon="0.11108">
        <ele>1738.68</ele>
        <time>2012-02-11T08:38:38Z</time>
      </trkpt>
      <trkpt lat="42.88409" lon="0.1111">
        <ele>1738.68</ele>
        <time>2012-02-11T08:38:40Z</time>
      </trkpt>
      <trkpt lat="42.884" lon="0.11122">
        <ele>1740.12</ele>
        <time>2012-02-11T08:38:50Z</time>
      </trkpt>
      <trkpt lat="42.88391" lon="0.11135">
        <ele>1740.6</ele>
        <time>2012-02-11T08:38:59Z</time>
      </trkpt>
      <trkpt lat="42.88388" lon="0.11141">
        <ele>1741.57</ele>
        <time>2012-02-11T08:39:03Z</time>
      </trkpt>
      <trkpt lat="42.88379" lon="0.11159">
        <ele>1742.53</ele>
        <time>2012-02-11T08:39:16Z</time>
      </trkpt>
      <trkpt lat="42.88364" lon="0.11165">
        <ele>1743.97</ele>
        <time>2012-02-11T08:39:28Z</time>
      </trkpt>
      <trkpt lat="42.88351" lon="0.1117">
        <ele>1745.89</ele>
        <time>2012-02-11T08:39:40Z</time>
      </trkpt>
      <trkpt lat="42.88339" lon="0.1118">
        <ele>1748.29</ele>
        <time>2012-02-11T08:39:53Z</time>
      </trkpt>
      <trkpt lat="42.88338" lon="0.11181">
        <ele>1748.29</ele>
        <time>2012-02-11T08:39:54Z</time>
      </trkpt>
      <trkpt lat="42.88336" lon="0.11183">
        <ele>1748.29</ele>
        <time>2012-02-11T08:39:56Z</time>
      </trkpt>
      <trkpt lat="42.88332" lon="0.11187">
        <ele>1749.26</ele>
        <time>2012-02-11T08:40:01Z</time>
      </trkpt>
      <trkpt lat="42.8833" lon="0.11189">
        <ele>1749.26</ele>
        <time>2012-02-11T08:40:03Z</time>
      </trkpt>
      <trkpt lat="42.88329" lon="0.1119">
        <ele>1749.74</ele>
        <time>2012-02-11T08:40:05Z</time>
      </trkpt>
      <trkpt lat="42.88327" lon="0.11193">
        <ele>1750.7</ele>
        <time>2012-02-11T08:40:07Z</time>
      </trkpt>
      <trkpt lat="42.88325" lon="0.11193">
        <ele>1750.22</ele>
        <time>2012-02-11T08:40:09Z</time>
      </trkpt>
      <trkpt lat="42.88324" lon="0.11195">
        <ele>1750.7</ele>
        <time>2012-02-11T08:40:11Z</time>
      </trkpt>
      <trkpt lat="42.88321" lon="0.11198">
        <ele>1751.66</ele>
        <time>2012-02-11T08:40:15Z</time>
      </trkpt>
      <trkpt lat="42.88317" lon="0.11204">
        <ele>1752.62</ele>
        <time>2012-02-11T08:40:21Z</time>
      </trkpt>
      <trkpt lat="42.88315" lon="0.11207">
        <ele>1752.62</ele>
        <time>2012-02-11T08:40:31Z</time>
      </trkpt>
      <trkpt lat="42.88315" lon="0.11207">
        <ele>1753.1</ele>
        <time>2012-02-11T08:40:49Z</time>
      </trkpt>
      <trkpt lat="42.88315" lon="0.11207">
        <ele>1752.62</ele>
        <time>2012-02-11T08:41:03Z</time>
      </trkpt>
      <trkpt lat="42.88315" lon="0.11207">
        <ele>1747.81</ele>
        <time>2012-02-11T08:41:12Z</time>
      </trkpt>
      <trkpt lat="42.88315" lon="0.11207">
        <ele>1752.62</ele>
        <time>2012-02-11T08:41:13Z</time>
      </trkpt>
      <trkpt lat="42.88315" lon="0.11207">
        <ele>1748.29</ele>
        <time>2012-02-11T08:41:14Z</time>
      </trkpt>
      <trkpt lat="42.88315" lon="0.11207">
        <ele>1753.1</ele>
        <time>2012-02-11T08:41:15Z</time>
      </trkpt>
      <trkpt lat="42.88315" lon="0.11207">
        <ele>1749.26</ele>
        <time>2012-02-11T08:41:25Z</time>
      </trkpt>
      <trkpt lat="42.88315" lon="0.11207">
        <ele>1751.18</ele>
        <time>2012-02-11T08:42:00Z</time>
      </trkpt>
      <trkpt lat="42.88315" lon="0.11207">
        <ele>1751.18</ele>
        <time>2012-02-11T08:42:32Z</time>
      </trkpt>
      <trkpt lat="42.88315" lon="0.11207">
        <ele>1750.7</ele>
        <time>2012-02-11T08:42:58Z</time>
      </trkpt>
      <trkpt lat="42.88315" lon="0.11207">
        <ele>1750.22</ele>
        <time>2012-02-11T08:43:33Z</time>
      </trkpt>
      <trkpt lat="42.88315" lon="0.11207">
        <ele>1750.22</ele>
        <time>2012-02-11T08:44:01Z</time>
      </trkpt>
      <trkpt lat="42.88315" lon="0.11208">
        <ele>1750.22</ele>
        <time>2012-02-11T08:44:30Z</time>
      </trkpt>
      <trkpt lat="42.88315" lon="0.11208">
        <ele>1750.22</ele>
        <time>2012-02-11T08:45:01Z</time>
      </trkpt>
      <trkpt lat="42.88315" lon="0.11208">
        <ele>1749.74</ele>
        <time>2012-02-11T08:45:26Z</time>
      </trkpt>
      <trkpt lat="42.88315" lon="0.11208">
        <ele>1749.26</ele>
        <time>2012-02-11T08:45:55Z</time>
      </trkpt>
      <trkpt lat="42.88315" lon="0.11208">
        <ele>1748.29</ele>
        <time>2012-02-11T08:46:19Z</time>
      </trkpt>
      <trkpt lat="42.88315" lon="0.11208">
        <ele>1749.26</ele>
        <time>2012-02-11T08:46:49Z</time>
      </trkpt>
      <trkpt lat="42.88315" lon="0.11208">
        <ele>1748.78</ele>
        <time>2012-02-11T08:47:21Z</time>
      </trkpt>
      <trkpt lat="42.88314" lon="0.11208">
        <ele>1749.74</ele>
        <time>2012-02-11T08:47:46Z</time>
      </trkpt>
      <trkpt lat="42.88315" lon="0.11208">
        <ele>1749.74</ele>
        <time>2012-02-11T08:48:13Z</time>
      </trkpt>
      <trkpt lat="42.88315" lon="0.11208">
        <ele>1749.74</ele>
        <time>2012-02-11T08:48:36Z</time>
      </trkpt>
      <trkpt lat="42.88315" lon="0.11208">
        <ele>1749.74</ele>
        <time>2012-02-11T08:49:02Z</time>
      </trkpt>
      <trkpt lat="42.88315" lon="0.11208">
        <ele>1750.22</ele>
        <time>2012-02-11T08:49:26Z</time>
      </trkpt>
      <trkpt lat="42.88315" lon="0.11208">
        <ele>1749.74</ele>
        <time>2012-02-11T08:49:58Z</time>
      </trkpt>
      <trkpt lat="42.88314" lon="0.11208">
        <ele>1749.26</ele>
        <time>2012-02-11T08:50:30Z</time>
      </trkpt>
      <trkpt lat="42.88315" lon="0.11208">
        <ele>1749.74</ele>
        <time>2012-02-11T08:51:06Z</time>
      </trkpt>
      <trkpt lat="42.88314" lon="0.11208">
        <ele>1749.74</ele>
        <time>2012-02-11T08:51:35Z</time>
      </trkpt>
      <trkpt lat="42.88314" lon="0.11208">
        <ele>1749.26</ele>
        <time>2012-02-11T08:52:04Z</time>
      </trkpt>
      <trkpt lat="42.88314" lon="0.11207">
        <ele>1748.78</ele>
        <time>2012-02-11T08:52:29Z</time>
      </trkpt>
      <trkpt lat="42.88314" lon="0.11207">
        <ele>1747.81</ele>
        <time>2012-02-11T08:52:57Z</time>
      </trkpt>
      <trkpt lat="42.88314" lon="0.11207">
        <ele>1751.18</ele>
        <time>2012-02-11T08:53:18Z</time>
      </trkpt>
      <trkpt lat="42.88314" lon="0.11207">
        <ele>1746.37</ele>
        <time>2012-02-11T08:53:19Z</time>
      </trkpt>
      <trkpt lat="42.88314" lon="0.11207">
        <ele>1751.18</ele>
        <time>2012-02-11T08:53:30Z</time>
      </trkpt>
      <trkpt lat="42.88314" lon="0.11208">
        <ele>1748.29</ele>
        <time>2012-02-11T08:53:31Z</time>
      </trkpt>
      <trkpt lat="42.88314" lon="0.11208">
        <ele>1747.81</ele>
        <time>2012-02-11T08:53:56Z</time>
      </trkpt>
      <trkpt lat="42.88314" lon="0.11208">
        <ele>1750.7</ele>
        <time>2012-02-11T08:54:04Z</time>
      </trkpt>
      <trkpt lat="42.88315" lon="0.11208">
        <ele>1749.74</ele>
        <time>2012-02-11T08:54:07Z</time>
      </trkpt>
      <trkpt lat="42.88315" lon="0.11208">
        <ele>1749.74</ele>
        <time>2012-02-11T08:54:09Z</time>
      </trkpt>
      <trkpt lat="42.88315" lon="0.11208">
        <ele>1749.74</ele>
        <time>2012-02-11T08:54:23Z</time>
      </trkpt>
      <trkpt lat="42.88315" lon="0.11209">
        <ele>1749.74</ele>
        <time>2012-02-11T08:54:36Z</time>
      </trkpt>
      <trkpt lat="42.88314" lon="0.11211">
        <ele>1750.7</ele>
        <time>2012-02-11T08:54:44Z</time>
      </trkpt>
      <trkpt lat="42.88312" lon="0.11212">
        <ele>1751.66</ele>
        <time>2012-02-11T08:54:46Z</time>
      </trkpt>
      <trkpt lat="42.88309" lon="0.1122">
        <ele>1753.1</ele>
        <time>2012-02-11T08:54:53Z</time>
      </trkpt>
      <trkpt lat="42.88306" lon="0.11226">
        <ele>1753.1</ele>
        <time>2012-02-11T08:54:57Z</time>
      </trkpt>
      <trkpt lat="42.88298" lon="0.1124">
        <ele>1755.5</ele>
        <time>2012-02-11T08:55:08Z</time>
      </trkpt>
      <trkpt lat="42.88294" lon="0.11248">
        <ele>1755.99</ele>
        <time>2012-02-11T08:55:14Z</time>
      </trkpt>
      <trkpt lat="42.88292" lon="0.11253">
        <ele>1756.95</ele>
        <time>2012-02-11T08:55:18Z</time>
      </trkpt>
      <trkpt lat="42.88284" lon="0.11273">
        <ele>1757.91</ele>
        <time>2012-02-11T08:55:33Z</time>
      </trkpt>
      <trkpt lat="42.88283" lon="0.11275">
        <ele>1758.87</ele>
        <time>2012-02-11T08:55:34Z</time>
      </trkpt>
      <trkpt lat="42.8828" lon="0.11282">
        <ele>1758.87</ele>
        <time>2012-02-11T08:55:39Z</time>
      </trkpt>
      <trkpt lat="42.8828" lon="0.11285">
        <ele>1758.87</ele>
        <time>2012-02-11T08:55:41Z</time>
      </trkpt>
      <trkpt lat="42.88279" lon="0.11291">
        <ele>1759.35</ele>
        <time>2012-02-11T08:55:45Z</time>
      </trkpt>
      <trkpt lat="42.8828" lon="0.11307">
        <ele>1760.31</ele>
        <time>2012-02-11T08:55:56Z</time>
      </trkpt>
      <trkpt lat="42.8828" lon="0.11316">
        <ele>1761.75</ele>
        <time>2012-02-11T08:56:01Z</time>
      </trkpt>
      <trkpt lat="42.88278" lon="0.11326">
        <ele>1762.23</ele>
        <time>2012-02-11T08:56:09Z</time>
      </trkpt>
      <trkpt lat="42.88278" lon="0.11329">
        <ele>1762.23</ele>
        <time>2012-02-11T08:56:11Z</time>
      </trkpt>
      <trkpt lat="42.88276" lon="0.11331">
        <ele>1762.71</ele>
        <time>2012-02-11T08:56:16Z</time>
      </trkpt>
      <trkpt lat="42.88276" lon="0.11332">
        <ele>1763.2</ele>
        <time>2012-02-11T08:56:18Z</time>
      </trkpt>
      <trkpt lat="42.88273" lon="0.11351">
        <ele>1764.64</ele>
        <time>2012-02-11T08:56:31Z</time>
      </trkpt>
      <trkpt lat="42.88272" lon="0.11352">
        <ele>1765.12</ele>
        <time>2012-02-11T08:56:32Z</time>
      </trkpt>
      <trkpt lat="42.88277" lon="0.11368">
        <ele>1766.08</ele>
        <time>2012-02-11T08:56:44Z</time>
      </trkpt>
      <trkpt lat="42.88277" lon="0.1137">
        <ele>1766.56</ele>
        <time>2012-02-11T08:56:45Z</time>
      </trkpt>
      <trkpt lat="42.88278" lon="0.11372">
        <ele>1766.56</ele>
        <time>2012-02-11T08:56:47Z</time>
      </trkpt>
      <trkpt lat="42.88278" lon="0.11383">
        <ele>1768.48</ele>
        <time>2012-02-11T08:56:56Z</time>
      </trkpt>
      <trkpt lat="42.88277" lon="0.11385">
        <ele>1768.96</ele>
        <time>2012-02-11T08:56:58Z</time>
      </trkpt>
      <trkpt lat="42.88277" lon="0.11391">
        <ele>1769.44</ele>
        <time>2012-02-11T08:57:02Z</time>
      </trkpt>
      <trkpt lat="42.88278" lon="0.11397">
        <ele>1769.44</ele>
        <time>2012-02-11T08:57:06Z</time>
      </trkpt>
      <trkpt lat="42.88278" lon="0.11411">
        <ele>1771.85</ele>
        <time>2012-02-11T08:57:17Z</time>
      </trkpt>
      <trkpt lat="42.88275" lon="0.11414">
        <ele>1772.33</ele>
        <time>2012-02-11T08:57:22Z</time>
      </trkpt>
      <trkpt lat="42.88272" lon="0.11412">
        <ele>1773.77</ele>
        <time>2012-02-11T08:57:26Z</time>
      </trkpt>
      <trkpt lat="42.88269" lon="0.11408">
        <ele>1773.77</ele>
        <time>2012-02-11T08:57:30Z</time>
      </trkpt>
      <trkpt lat="42.88266" lon="0.11403">
        <ele>1774.73</ele>
        <time>2012-02-11T08:57:35Z</time>
      </trkpt>
      <trkpt lat="42.88262" lon="0.11404">
        <ele>1775.21</ele>
        <time>2012-02-11T08:57:42Z</time>
      </trkpt>
      <trkpt lat="42.88262" lon="0.11411">
        <ele>1776.65</ele>
        <time>2012-02-11T08:57:48Z</time>
      </trkpt>
      <trkpt lat="42.88262" lon="0.11413">
        <ele>1777.13</ele>
        <time>2012-02-11T08:57:50Z</time>
      </trkpt>
      <trkpt lat="42.88262" lon="0.11416">
        <ele>1777.61</ele>
        <time>2012-02-11T08:57:52Z</time>
      </trkpt>
      <trkpt lat="42.88262" lon="0.11419">
        <ele>1778.1</ele>
        <time>2012-02-11T08:57:54Z</time>
      </trkpt>
      <trkpt lat="42.88262" lon="0.11421">
        <ele>1778.58</ele>
        <time>2012-02-11T08:57:56Z</time>
      </trkpt>
      <trkpt lat="42.88261" lon="0.11432">
        <ele>1780.98</ele>
        <time>2012-02-11T08:58:06Z</time>
      </trkpt>
      <trkpt lat="42.88259" lon="0.11435">
        <ele>1781.46</ele>
        <time>2012-02-11T08:58:12Z</time>
      </trkpt>
      <trkpt lat="42.88256" lon="0.11437">
        <ele>1782.42</ele>
        <time>2012-02-11T08:58:16Z</time>
      </trkpt>
      <trkpt lat="42.88254" lon="0.11439">
        <ele>1783.86</ele>
        <time>2012-02-11T08:58:19Z</time>
      </trkpt>
      <trkpt lat="42.88253" lon="0.11442">
        <ele>1783.86</ele>
        <time>2012-02-11T08:58:21Z</time>
      </trkpt>
      <trkpt lat="42.88252" lon="0.11444">
        <ele>1783.86</ele>
        <time>2012-02-11T08:58:23Z</time>
      </trkpt>
      <trkpt lat="42.8825" lon="0.11448">
        <ele>1784.82</ele>
        <time>2012-02-11T08:58:28Z</time>
      </trkpt>
      <trkpt lat="42.88246" lon="0.11456">
        <ele>1786.27</ele>
        <time>2012-02-11T08:58:36Z</time>
      </trkpt>
      <trkpt lat="42.88242" lon="0.11461">
        <ele>1787.71</ele>
        <time>2012-02-11T08:58:47Z</time>
      </trkpt>
      <trkpt lat="42.88242" lon="0.11467">
        <ele>1789.15</ele>
        <time>2012-02-11T08:58:51Z</time>
      </trkpt>
      <trkpt lat="42.88241" lon="0.11472">
        <ele>1790.11</ele>
        <time>2012-02-11T08:58:56Z</time>
      </trkpt>
      <trkpt lat="42.88238" lon="0.1148">
        <ele>1791.55</ele>
        <time>2012-02-11T08:59:04Z</time>
      </trkpt>
      <trkpt lat="42.88238" lon="0.11486">
        <ele>1793</ele>
        <time>2012-02-11T08:59:09Z</time>
      </trkpt>
      <trkpt lat="42.88238" lon="0.11491">
        <ele>1793.96</ele>
        <time>2012-02-11T08:59:14Z</time>
      </trkpt>
      <trkpt lat="42.88238" lon="0.11502">
        <ele>1793.96</ele>
        <time>2012-02-11T08:59:21Z</time>
      </trkpt>
      <trkpt lat="42.88239" lon="0.11514">
        <ele>1793.96</ele>
        <time>2012-02-11T08:59:30Z</time>
      </trkpt>
      <trkpt lat="42.88239" lon="0.11523">
        <ele>1795.4</ele>
        <time>2012-02-11T08:59:39Z</time>
      </trkpt>
      <trkpt lat="42.88239" lon="0.11528">
        <ele>1797.32</ele>
        <time>2012-02-11T08:59:44Z</time>
      </trkpt>
      <trkpt lat="42.88237" lon="0.11537">
        <ele>1800.21</ele>
        <time>2012-02-11T08:59:54Z</time>
      </trkpt>
      <trkpt lat="42.88235" lon="0.11549">
        <ele>1802.61</ele>
        <time>2012-02-11T09:00:05Z</time>
      </trkpt>
      <trkpt lat="42.88235" lon="0.11552">
        <ele>1802.61</ele>
        <time>2012-02-11T09:00:07Z</time>
      </trkpt>
      <trkpt lat="42.88235" lon="0.11555">
        <ele>1803.09</ele>
        <time>2012-02-11T09:00:09Z</time>
      </trkpt>
      <trkpt lat="42.88235" lon="0.11558">
        <ele>1803.57</ele>
        <time>2012-02-11T09:00:11Z</time>
      </trkpt>
      <trkpt lat="42.88233" lon="0.11566">
        <ele>1804.53</ele>
        <time>2012-02-11T09:00:20Z</time>
      </trkpt>
      <trkpt lat="42.88232" lon="0.11578">
        <ele>1805.97</ele>
        <time>2012-02-11T09:00:31Z</time>
      </trkpt>
      <trkpt lat="42.88232" lon="0.11579">
        <ele>1805.97</ele>
        <time>2012-02-11T09:00:32Z</time>
      </trkpt>
      <trkpt lat="42.88231" lon="0.11585">
        <ele>1806.45</ele>
        <time>2012-02-11T09:00:37Z</time>
      </trkpt>
      <trkpt lat="42.88231" lon="0.11588">
        <ele>1806.45</ele>
        <time>2012-02-11T09:00:40Z</time>
      </trkpt>
      <trkpt lat="42.88229" lon="0.11593">
        <ele>1805.97</ele>
        <time>2012-02-11T09:00:44Z</time>
      </trkpt>
      <trkpt lat="42.8823" lon="0.11597">
        <ele>1806.94</ele>
        <time>2012-02-11T09:00:47Z</time>
      </trkpt>
      <trkpt lat="42.88233" lon="0.11602">
        <ele>1807.42</ele>
        <time>2012-02-11T09:00:52Z</time>
      </trkpt>
      <trkpt lat="42.88234" lon="0.11608">
        <ele>1808.86</ele>
        <time>2012-02-11T09:00:57Z</time>
      </trkpt>
      <trkpt lat="42.88235" lon="0.11611">
        <ele>1809.34</ele>
        <time>2012-02-11T09:01:00Z</time>
      </trkpt>
      <trkpt lat="42.88233" lon="0.11618">
        <ele>1810.78</ele>
        <time>2012-02-11T09:01:08Z</time>
      </trkpt>
      <trkpt lat="42.88231" lon="0.11624">
        <ele>1812.7</ele>
        <time>2012-02-11T09:01:14Z</time>
      </trkpt>
      <trkpt lat="42.88229" lon="0.11626">
        <ele>1814.15</ele>
        <time>2012-02-11T09:01:17Z</time>
      </trkpt>
      <trkpt lat="42.88228" lon="0.11628">
        <ele>1814.15</ele>
        <time>2012-02-11T09:01:19Z</time>
      </trkpt>
      <trkpt lat="42.88224" lon="0.11637">
        <ele>1816.55</ele>
        <time>2012-02-11T09:01:29Z</time>
      </trkpt>
      <trkpt lat="42.88224" lon="0.11641">
        <ele>1816.07</ele>
        <time>2012-02-11T09:01:32Z</time>
      </trkpt>
      <trkpt lat="42.88224" lon="0.11647">
        <ele>1818.47</ele>
        <time>2012-02-11T09:01:40Z</time>
      </trkpt>
      <trkpt lat="42.88228" lon="0.11657">
        <ele>1820.87</ele>
        <time>2012-02-11T09:01:51Z</time>
      </trkpt>
      <trkpt lat="42.88226" lon="0.11658">
        <ele>1821.35</ele>
        <time>2012-02-11T09:01:56Z</time>
      </trkpt>
      <trkpt lat="42.88224" lon="0.11658">
        <ele>1821.35</ele>
        <time>2012-02-11T09:02:10Z</time>
      </trkpt>
      <trkpt lat="42.88221" lon="0.11659">
        <ele>1822.32</ele>
        <time>2012-02-11T09:02:16Z</time>
      </trkpt>
      <trkpt lat="42.88212" lon="0.11659">
        <ele>1824.72</ele>
        <time>2012-02-11T09:02:28Z</time>
      </trkpt>
      <trkpt lat="42.88211" lon="0.11658">
        <ele>1825.2</ele>
        <time>2012-02-11T09:02:32Z</time>
      </trkpt>
      <trkpt lat="42.88209" lon="0.11658">
        <ele>1825.68</ele>
        <time>2012-02-11T09:02:42Z</time>
      </trkpt>
      <trkpt lat="42.88209" lon="0.11658">
        <ele>1826.16</ele>
        <time>2012-02-11T09:02:44Z</time>
      </trkpt>
      <trkpt lat="42.88209" lon="0.11658">
        <ele>1826.16</ele>
        <time>2012-02-11T09:02:55Z</time>
      </trkpt>
      <trkpt lat="42.88209" lon="0.11659">
        <ele>1826.64</ele>
        <time>2012-02-11T09:02:58Z</time>
      </trkpt>
      <trkpt lat="42.88211" lon="0.11663">
        <ele>1827.12</ele>
        <time>2012-02-11T09:03:11Z</time>
      </trkpt>
      <trkpt lat="42.88212" lon="0.11668">
        <ele>1828.08</ele>
        <time>2012-02-11T09:03:17Z</time>
      </trkpt>
      <trkpt lat="42.88215" lon="0.11676">
        <ele>1828.56</ele>
        <time>2012-02-11T09:03:25Z</time>
      </trkpt>
      <trkpt lat="42.88218" lon="0.1168">
        <ele>1829.05</ele>
        <time>2012-02-11T09:03:29Z</time>
      </trkpt>
      <trkpt lat="42.88219" lon="0.11683">
        <ele>1829.05</ele>
        <time>2012-02-11T09:03:41Z</time>
      </trkpt>
      <trkpt lat="42.88219" lon="0.11682">
        <ele>1829.53</ele>
        <time>2012-02-11T09:03:56Z</time>
      </trkpt>
      <trkpt lat="42.88219" lon="0.11682">
        <ele>1830.01</ele>
        <time>2012-02-11T09:04:19Z</time>
      </trkpt>
      <trkpt lat="42.88219" lon="0.11681">
        <ele>1830.01</ele>
        <time>2012-02-11T09:04:31Z</time>
      </trkpt>
      <trkpt lat="42.88219" lon="0.11681">
        <ele>1830.01</ele>
        <time>2012-02-11T09:04:45Z</time>
      </trkpt>
      <trkpt lat="42.88219" lon="0.11681">
        <ele>1830.01</ele>
        <time>2012-02-11T09:05:08Z</time>
      </trkpt>
      <trkpt lat="42.88219" lon="0.11681">
        <ele>1830.97</ele>
        <time>2012-02-11T09:05:34Z</time>
      </trkpt>
      <trkpt lat="42.88218" lon="0.11681">
        <ele>1830.49</ele>
        <time>2012-02-11T09:05:59Z</time>
      </trkpt>
      <trkpt lat="42.88218" lon="0.11681">
        <ele>1830.01</ele>
        <time>2012-02-11T09:06:27Z</time>
      </trkpt>
      <trkpt lat="42.88218" lon="0.11681">
        <ele>1830.01</ele>
        <time>2012-02-11T09:06:51Z</time>
      </trkpt>
      <trkpt lat="42.88218" lon="0.11679">
        <ele>1826.16</ele>
        <time>2012-02-11T09:07:01Z</time>
      </trkpt>
      <trkpt lat="42.88218" lon="0.11679">
        <ele>1828.08</ele>
        <time>2012-02-11T09:07:02Z</time>
      </trkpt>
      <trkpt lat="42.88218" lon="0.11679">
        <ele>1829.05</ele>
        <time>2012-02-11T09:07:04Z</time>
      </trkpt>
      <trkpt lat="42.88218" lon="0.11679">
        <ele>1828.56</ele>
        <time>2012-02-11T09:07:32Z</time>
      </trkpt>
      <trkpt lat="42.88218" lon="0.11679">
        <ele>1830.49</ele>
        <time>2012-02-11T09:07:47Z</time>
      </trkpt>
      <trkpt lat="42.88218" lon="0.11679">
        <ele>1825.2</ele>
        <time>2012-02-11T09:07:52Z</time>
      </trkpt>
      <trkpt lat="42.88218" lon="0.11679">
        <ele>1828.56</ele>
        <time>2012-02-11T09:07:53Z</time>
      </trkpt>
      <trkpt lat="42.88218" lon="0.11679">
        <ele>1829.53</ele>
        <time>2012-02-11T09:08:14Z</time>
      </trkpt>
      <trkpt lat="42.88219" lon="0.1168">
        <ele>1830.01</ele>
        <time>2012-02-11T09:08:26Z</time>
      </trkpt>
      <trkpt lat="42.88219" lon="0.1168">
        <ele>1830.01</ele>
        <time>2012-02-11T09:08:40Z</time>
      </trkpt>
      <trkpt lat="42.88219" lon="0.1168">
        <ele>1830.01</ele>
        <time>2012-02-11T09:09:04Z</time>
      </trkpt>
      <trkpt lat="42.88218" lon="0.11679">
        <ele>1830.49</ele>
        <time>2012-02-11T09:09:31Z</time>
      </trkpt>
      <trkpt lat="42.88219" lon="0.1168">
        <ele>1830.49</ele>
        <time>2012-02-11T09:09:49Z</time>
      </trkpt>
      <trkpt lat="42.88219" lon="0.1168">
        <ele>1830.49</ele>
        <time>2012-02-11T09:10:09Z</time>
      </trkpt>
      <trkpt lat="42.88219" lon="0.1168">
        <ele>1830.01</ele>
        <time>2012-02-11T09:10:35Z</time>
      </trkpt>
      <trkpt lat="42.88219" lon="0.1168">
        <ele>1830.49</ele>
        <time>2012-02-11T09:10:44Z</time>
      </trkpt>
      <trkpt lat="42.88219" lon="0.11682">
        <ele>1830.49</ele>
        <time>2012-02-11T09:11:00Z</time>
      </trkpt>
      <trkpt lat="42.8822" lon="0.11682">
        <ele>1829.53</ele>
        <time>2012-02-11T09:11:15Z</time>
      </trkpt>
      <trkpt lat="42.88219" lon="0.11682">
        <ele>1829.53</ele>
        <time>2012-02-11T09:11:29Z</time>
      </trkpt>
      <trkpt lat="42.88219" lon="0.11682">
        <ele>1829.53</ele>
        <time>2012-02-11T09:11:47Z</time>
      </trkpt>
      <trkpt lat="42.88219" lon="0.11683">
        <ele>1829.53</ele>
        <time>2012-02-11T09:12:00Z</time>
      </trkpt>
      <trkpt lat="42.88218" lon="0.11685">
        <ele>1830.49</ele>
        <time>2012-02-11T09:12:16Z</time>
      </trkpt>
      <trkpt lat="42.88217" lon="0.11693">
        <ele>1831.45</ele>
        <time>2012-02-11T09:12:25Z</time>
      </trkpt>
      <trkpt lat="42.88217" lon="0.11695">
        <ele>1831.93</ele>
        <time>2012-02-11T09:12:27Z</time>
      </trkpt>
      <trkpt lat="42.88215" lon="0.11702">
        <ele>1832.89</ele>
        <time>2012-02-11T09:12:38Z</time>
      </trkpt>
      <trkpt lat="42.88212" lon="0.11699">
        <ele>1833.37</ele>
        <time>2012-02-11T09:12:49Z</time>
      </trkpt>
      <trkpt lat="42.88212" lon="0.117">
        <ele>1833.37</ele>
        <time>2012-02-11T09:13:02Z</time>
      </trkpt>
      <trkpt lat="42.88211" lon="0.11696">
        <ele>1834.33</ele>
        <time>2012-02-11T09:13:13Z</time>
      </trkpt>
      <trkpt lat="42.8821" lon="0.11694">
        <ele>1834.81</ele>
        <time>2012-02-11T09:13:23Z</time>
      </trkpt>
      <trkpt lat="42.8821" lon="0.11695">
        <ele>1834.81</ele>
        <time>2012-02-11T09:13:25Z</time>
      </trkpt>
      <trkpt lat="42.88211" lon="0.11698">
        <ele>1835.29</ele>
        <time>2012-02-11T09:13:35Z</time>
      </trkpt>
      <trkpt lat="42.88211" lon="0.11701">
        <ele>1835.29</ele>
        <time>2012-02-11T09:13:38Z</time>
      </trkpt>
      <trkpt lat="42.88212" lon="0.11704">
        <ele>1835.29</ele>
        <time>2012-02-11T09:13:41Z</time>
      </trkpt>
      <trkpt lat="42.88212" lon="0.1171">
        <ele>1836.26</ele>
        <time>2012-02-11T09:13:52Z</time>
      </trkpt>
      <trkpt lat="42.88211" lon="0.11711">
        <ele>1836.74</ele>
        <time>2012-02-11T09:14:02Z</time>
      </trkpt>
      <trkpt lat="42.88212" lon="0.11713">
        <ele>1836.74</ele>
        <time>2012-02-11T09:14:12Z</time>
      </trkpt>
      <trkpt lat="42.88212" lon="0.11714">
        <ele>1838.18</ele>
        <time>2012-02-11T09:14:22Z</time>
      </trkpt>
      <trkpt lat="42.88211" lon="0.11715">
        <ele>1838.18</ele>
        <time>2012-02-11T09:14:34Z</time>
      </trkpt>
      <trkpt lat="42.8821" lon="0.11717">
        <ele>1838.66</ele>
        <time>2012-02-11T09:14:44Z</time>
      </trkpt>
      <trkpt lat="42.88209" lon="0.11726">
        <ele>1839.62</ele>
        <time>2012-02-11T09:14:54Z</time>
      </trkpt>
      <trkpt lat="42.8821" lon="0.11733">
        <ele>1840.1</ele>
        <time>2012-02-11T09:14:59Z</time>
      </trkpt>
      <trkpt lat="42.88209" lon="0.11743">
        <ele>1840.58</ele>
        <time>2012-02-11T09:15:09Z</time>
      </trkpt>
      <trkpt lat="42.8821" lon="0.1175">
        <ele>1841.54</ele>
        <time>2012-02-11T09:15:18Z</time>
      </trkpt>
      <trkpt lat="42.88211" lon="0.11753">
        <ele>1842.02</ele>
        <time>2012-02-11T09:15:20Z</time>
      </trkpt>
      <trkpt lat="42.88211" lon="0.11762">
        <ele>1843.47</ele>
        <time>2012-02-11T09:15:30Z</time>
      </trkpt>
      <trkpt lat="42.88212" lon="0.11766">
        <ele>1843.95</ele>
        <time>2012-02-11T09:15:33Z</time>
      </trkpt>
      <trkpt lat="42.88211" lon="0.1177">
        <ele>1844.43</ele>
        <time>2012-02-11T09:15:37Z</time>
      </trkpt>
      <trkpt lat="42.88211" lon="0.11776">
        <ele>1844.43</ele>
        <time>2012-02-11T09:15:41Z</time>
      </trkpt>
      <trkpt lat="42.88212" lon="0.11788">
        <ele>1844.43</ele>
        <time>2012-02-11T09:15:53Z</time>
      </trkpt>
      <trkpt lat="42.88212" lon="0.11792">
        <ele>1844.91</ele>
        <time>2012-02-11T09:15:56Z</time>
      </trkpt>
      <trkpt lat="42.88213" lon="0.11802">
        <ele>1845.87</ele>
        <time>2012-02-11T09:16:05Z</time>
      </trkpt>
      <trkpt lat="42.88212" lon="0.11812">
        <ele>1847.79</ele>
        <time>2012-02-11T09:16:17Z</time>
      </trkpt>
      <trkpt lat="42.88212" lon="0.1182">
        <ele>1849.23</ele>
        <time>2012-02-11T09:16:26Z</time>
      </trkpt>
      <trkpt lat="42.88213" lon="0.11822">
        <ele>1849.71</ele>
        <time>2012-02-11T09:16:28Z</time>
      </trkpt>
      <trkpt lat="42.88213" lon="0.11827">
        <ele>1849.71</ele>
        <time>2012-02-11T09:16:32Z</time>
      </trkpt>
      <trkpt lat="42.88214" lon="0.1183">
        <ele>1849.71</ele>
        <time>2012-02-11T09:16:35Z</time>
      </trkpt>
      <trkpt lat="42.88216" lon="0.11841">
        <ele>1851.64</ele>
        <time>2012-02-11T09:16:46Z</time>
      </trkpt>
      <trkpt lat="42.88216" lon="0.11844">
        <ele>1852.6</ele>
        <time>2012-02-11T09:16:57Z</time>
      </trkpt>
      <trkpt lat="42.88217" lon="0.11849">
        <ele>1852.6</ele>
        <time>2012-02-11T09:17:06Z</time>
      </trkpt>
      <trkpt lat="42.88217" lon="0.11858">
        <ele>1854.52</ele>
        <time>2012-02-11T09:17:16Z</time>
      </trkpt>
      <trkpt lat="42.88216" lon="0.11865">
        <ele>1855</ele>
        <time>2012-02-11T09:17:25Z</time>
      </trkpt>
      <trkpt lat="42.88216" lon="0.11871">
        <ele>1856.44</ele>
        <time>2012-02-11T09:17:34Z</time>
      </trkpt>
      <trkpt lat="42.88219" lon="0.11881">
        <ele>1857.4</ele>
        <time>2012-02-11T09:17:43Z</time>
      </trkpt>
      <trkpt lat="42.8822" lon="0.11887">
        <ele>1857.89</ele>
        <time>2012-02-11T09:17:49Z</time>
      </trkpt>
      <trkpt lat="42.88221" lon="0.11891">
        <ele>1858.37</ele>
        <time>2012-02-11T09:18:00Z</time>
      </trkpt>
      <trkpt lat="42.88221" lon="0.11894">
        <ele>1858.85</ele>
        <time>2012-02-11T09:18:13Z</time>
      </trkpt>
      <trkpt lat="42.88221" lon="0.119">
        <ele>1859.81</ele>
        <time>2012-02-11T09:18:18Z</time>
      </trkpt>
      <trkpt lat="42.88222" lon="0.11903">
        <ele>1859.81</ele>
        <time>2012-02-11T09:18:21Z</time>
      </trkpt>
      <trkpt lat="42.88223" lon="0.11908">
        <ele>1860.77</ele>
        <time>2012-02-11T09:18:25Z</time>
      </trkpt>
      <trkpt lat="42.88224" lon="0.11917">
        <ele>1862.69</ele>
        <time>2012-02-11T09:18:35Z</time>
      </trkpt>
      <trkpt lat="42.88226" lon="0.11925">
        <ele>1865.09</ele>
        <time>2012-02-11T09:18:45Z</time>
      </trkpt>
      <trkpt lat="42.88228" lon="0.11932">
        <ele>1866.06</ele>
        <time>2012-02-11T09:18:56Z</time>
      </trkpt>
      <trkpt lat="42.88228" lon="0.11933">
        <ele>1866.54</ele>
        <time>2012-02-11T09:18:57Z</time>
      </trkpt>
      <trkpt lat="42.88229" lon="0.11936">
        <ele>1867.5</ele>
        <time>2012-02-11T09:19:01Z</time>
      </trkpt>
      <trkpt lat="42.88234" lon="0.11942">
        <ele>1869.42</ele>
        <time>2012-02-11T09:19:10Z</time>
      </trkpt>
      <trkpt lat="42.88238" lon="0.11947">
        <ele>1870.86</ele>
        <time>2012-02-11T09:19:20Z</time>
      </trkpt>
      <trkpt lat="42.8824" lon="0.11952">
        <ele>1870.86</ele>
        <time>2012-02-11T09:19:25Z</time>
      </trkpt>
      <trkpt lat="42.88242" lon="0.11955">
        <ele>1871.34</ele>
        <time>2012-02-11T09:19:37Z</time>
      </trkpt>
      <trkpt lat="42.88241" lon="0.11956">
        <ele>1871.34</ele>
        <time>2012-02-11T09:19:40Z</time>
      </trkpt>
      <trkpt lat="42.88243" lon="0.11957">
        <ele>1870.86</ele>
        <time>2012-02-11T09:19:43Z</time>
      </trkpt>
      <trkpt lat="42.88253" lon="0.11955">
        <ele>1870.86</ele>
        <time>2012-02-11T09:19:54Z</time>
      </trkpt>
      <trkpt lat="42.8826" lon="0.11952">
        <ele>1870.86</ele>
        <time>2012-02-11T09:20:04Z</time>
      </trkpt>
      <trkpt lat="42.88261" lon="0.11952">
        <ele>1870.86</ele>
        <time>2012-02-11T09:20:05Z</time>
      </trkpt>
      <trkpt lat="42.88265" lon="0.11955">
        <ele>1871.82</ele>
        <time>2012-02-11T09:20:15Z</time>
      </trkpt>
      <trkpt lat="42.88265" lon="0.11958">
        <ele>1871.82</ele>
        <time>2012-02-11T09:20:26Z</time>
      </trkpt>
      <trkpt lat="42.88264" lon="0.11959">
        <ele>1872.3</ele>
        <time>2012-02-11T09:20:36Z</time>
      </trkpt>
      <trkpt lat="42.88263" lon="0.11961">
        <ele>1874.23</ele>
        <time>2012-02-11T09:20:49Z</time>
      </trkpt>
      <trkpt lat="42.88262" lon="0.11964">
        <ele>1874.71</ele>
        <time>2012-02-11T09:20:55Z</time>
      </trkpt>
      <trkpt lat="42.88262" lon="0.11964">
        <ele>1874.71</ele>
        <time>2012-02-11T09:21:09Z</time>
      </trkpt>
      <trkpt lat="42.88268" lon="0.11974">
        <ele>1874.71</ele>
        <time>2012-02-11T09:21:19Z</time>
      </trkpt>
      <trkpt lat="42.88271" lon="0.11978">
        <ele>1874.71</ele>
        <time>2012-02-11T09:21:23Z</time>
      </trkpt>
      <trkpt lat="42.88272" lon="0.11985">
        <ele>1875.19</ele>
        <time>2012-02-11T09:21:30Z</time>
      </trkpt>
      <trkpt lat="42.88273" lon="0.11992">
        <ele>1877.11</ele>
        <time>2012-02-11T09:21:39Z</time>
      </trkpt>
      <trkpt lat="42.88273" lon="0.11996">
        <ele>1878.07</ele>
        <time>2012-02-11T09:21:45Z</time>
      </trkpt>
      <trkpt lat="42.88272" lon="0.12">
        <ele>1878.55</ele>
        <time>2012-02-11T09:21:47Z</time>
      </trkpt>
      <trkpt lat="42.88269" lon="0.12009">
        <ele>1878.55</ele>
        <time>2012-02-11T09:21:56Z</time>
      </trkpt>
      <trkpt lat="42.88268" lon="0.12011">
        <ele>1879.03</ele>
        <time>2012-02-11T09:21:58Z</time>
      </trkpt>
      <trkpt lat="42.88267" lon="0.12014">
        <ele>1879.51</ele>
        <time>2012-02-11T09:22:01Z</time>
      </trkpt>
      <trkpt lat="42.88267" lon="0.12017">
        <ele>1879.51</ele>
        <time>2012-02-11T09:22:03Z</time>
      </trkpt>
      <trkpt lat="42.88267" lon="0.12019">
        <ele>1879.51</ele>
        <time>2012-02-11T09:22:05Z</time>
      </trkpt>
      <trkpt lat="42.88265" lon="0.12034">
        <ele>1879.51</ele>
        <time>2012-02-11T09:22:18Z</time>
      </trkpt>
      <trkpt lat="42.88262" lon="0.12042">
        <ele>1880.48</ele>
        <time>2012-02-11T09:22:26Z</time>
      </trkpt>
      <trkpt lat="42.88258" lon="0.12051">
        <ele>1881.92</ele>
        <time>2012-02-11T09:22:36Z</time>
      </trkpt>
      <trkpt lat="42.88257" lon="0.12053">
        <ele>1882.88</ele>
        <time>2012-02-11T09:22:38Z</time>
      </trkpt>
      <trkpt lat="42.88255" lon="0.12055">
        <ele>1882.88</ele>
        <time>2012-02-11T09:22:41Z</time>
      </trkpt>
      <trkpt lat="42.88251" lon="0.1206">
        <ele>1884.32</ele>
        <time>2012-02-11T09:22:53Z</time>
      </trkpt>
      <trkpt lat="42.88244" lon="0.12064">
        <ele>1886.24</ele>
        <time>2012-02-11T09:23:04Z</time>
      </trkpt>
      <trkpt lat="42.88239" lon="0.12065">
        <ele>1887.21</ele>
        <time>2012-02-11T09:23:13Z</time>
      </trkpt>
      <trkpt lat="42.88238" lon="0.12068">
        <ele>1888.17</ele>
        <time>2012-02-11T09:23:15Z</time>
      </trkpt>
      <trkpt lat="42.88235" lon="0.12069">
        <ele>1888.65</ele>
        <time>2012-02-11T09:23:19Z</time>
      </trkpt>
      <trkpt lat="42.88229" lon="0.12073">
        <ele>1890.09</ele>
        <time>2012-02-11T09:23:29Z</time>
      </trkpt>
      <trkpt lat="42.88229" lon="0.12079">
        <ele>1891.05</ele>
        <time>2012-02-11T09:23:40Z</time>
      </trkpt>
      <trkpt lat="42.88228" lon="0.12083">
        <ele>1892.01</ele>
        <time>2012-02-11T09:23:43Z</time>
      </trkpt>
      <trkpt lat="42.88227" lon="0.12092">
        <ele>1893.45</ele>
        <time>2012-02-11T09:23:52Z</time>
      </trkpt>
      <trkpt lat="42.88227" lon="0.12097">
        <ele>1894.42</ele>
        <time>2012-02-11T09:24:01Z</time>
      </trkpt>
      <trkpt lat="42.88227" lon="0.12097">
        <ele>1894.9</ele>
        <time>2012-02-11T09:24:05Z</time>
      </trkpt>
      <trkpt lat="42.88228" lon="0.12098">
        <ele>1895.38</ele>
        <time>2012-02-11T09:24:07Z</time>
      </trkpt>
      <trkpt lat="42.88231" lon="0.12101">
        <ele>1895.86</ele>
        <time>2012-02-11T09:24:14Z</time>
      </trkpt>
      <trkpt lat="42.88236" lon="0.12107">
        <ele>1897.3</ele>
        <time>2012-02-11T09:24:25Z</time>
      </trkpt>
      <trkpt lat="42.88242" lon="0.12112">
        <ele>1898.26</ele>
        <time>2012-02-11T09:24:36Z</time>
      </trkpt>
      <trkpt lat="42.88242" lon="0.12117">
        <ele>1898.74</ele>
        <time>2012-02-11T09:24:41Z</time>
      </trkpt>
      <trkpt lat="42.88242" lon="0.12126">
        <ele>1900.66</ele>
        <time>2012-02-11T09:24:51Z</time>
      </trkpt>
      <trkpt lat="42.88244" lon="0.12133">
        <ele>1900.66</ele>
        <time>2012-02-11T09:24:58Z</time>
      </trkpt>
      <trkpt lat="42.88245" lon="0.12141">
        <ele>1901.14</ele>
        <time>2012-02-11T09:25:05Z</time>
      </trkpt>
      <trkpt lat="42.88247" lon="0.12153">
        <ele>1902.11</ele>
        <time>2012-02-11T09:25:16Z</time>
      </trkpt>
      <trkpt lat="42.88248" lon="0.12155">
        <ele>1902.11</ele>
        <time>2012-02-11T09:25:19Z</time>
      </trkpt>
      <trkpt lat="42.88254" lon="0.12166">
        <ele>1903.07</ele>
        <time>2012-02-11T09:25:30Z</time>
      </trkpt>
      <trkpt lat="42.88254" lon="0.12167">
        <ele>1902.59</ele>
        <time>2012-02-11T09:25:31Z</time>
      </trkpt>
      <trkpt lat="42.88258" lon="0.12171">
        <ele>1903.07</ele>
        <time>2012-02-11T09:25:37Z</time>
      </trkpt>
      <trkpt lat="42.8826" lon="0.12174">
        <ele>1904.03</ele>
        <time>2012-02-11T09:25:41Z</time>
      </trkpt>
      <trkpt lat="42.88261" lon="0.12181">
        <ele>1905.47</ele>
        <time>2012-02-11T09:25:51Z</time>
      </trkpt>
      <trkpt lat="42.88263" lon="0.12181">
        <ele>1905.47</ele>
        <time>2012-02-11T09:25:55Z</time>
      </trkpt>
      <trkpt lat="42.88265" lon="0.12189">
        <ele>1906.43</ele>
        <time>2012-02-11T09:26:06Z</time>
      </trkpt>
      <trkpt lat="42.88267" lon="0.12191">
        <ele>1906.91</ele>
        <time>2012-02-11T09:26:16Z</time>
      </trkpt>
      <trkpt lat="42.8827" lon="0.12194">
        <ele>1906.91</ele>
        <time>2012-02-11T09:26:24Z</time>
      </trkpt>
      <trkpt lat="42.88273" lon="0.12194">
        <ele>1906.43</ele>
        <time>2012-02-11T09:26:28Z</time>
      </trkpt>
      <trkpt lat="42.88277" lon="0.12194">
        <ele>1905.47</ele>
        <time>2012-02-11T09:26:30Z</time>
      </trkpt>
      <trkpt lat="42.88282" lon="0.12192">
        <ele>1905.47</ele>
        <time>2012-02-11T09:26:35Z</time>
      </trkpt>
      <trkpt lat="42.88283" lon="0.12194">
        <ele>1905.95</ele>
        <time>2012-02-11T09:26:37Z</time>
      </trkpt>
      <trkpt lat="42.88284" lon="0.12198">
        <ele>1905.95</ele>
        <time>2012-02-11T09:26:41Z</time>
      </trkpt>
      <trkpt lat="42.88284" lon="0.12201">
        <ele>1906.43</ele>
        <time>2012-02-11T09:26:55Z</time>
      </trkpt>
      <trkpt lat="42.88285" lon="0.12203">
        <ele>1907.39</ele>
        <time>2012-02-11T09:27:04Z</time>
      </trkpt>
      <trkpt lat="42.88285" lon="0.12204">
        <ele>1907.39</ele>
        <time>2012-02-11T09:27:18Z</time>
      </trkpt>
      <trkpt lat="42.88286" lon="0.12206">
        <ele>1909.32</ele>
        <time>2012-02-11T09:27:28Z</time>
      </trkpt>
      <trkpt lat="42.88287" lon="0.12208">
        <ele>1909.32</ele>
        <time>2012-02-11T09:27:32Z</time>
      </trkpt>
      <trkpt lat="42.88288" lon="0.12218">
        <ele>1909.8</ele>
        <time>2012-02-11T09:27:42Z</time>
      </trkpt>
      <trkpt lat="42.88288" lon="0.12223">
        <ele>1909.8</ele>
        <time>2012-02-11T09:27:47Z</time>
      </trkpt>
      <trkpt lat="42.88286" lon="0.12226">
        <ele>1911.24</ele>
        <time>2012-02-11T09:28:00Z</time>
      </trkpt>
      <trkpt lat="42.88283" lon="0.12231">
        <ele>1911.24</ele>
        <time>2012-02-11T09:28:08Z</time>
      </trkpt>
      <trkpt lat="42.88282" lon="0.12234">
        <ele>1910.76</ele>
        <time>2012-02-11T09:28:11Z</time>
      </trkpt>
      <trkpt lat="42.88278" lon="0.12239">
        <ele>1911.24</ele>
        <time>2012-02-11T09:28:17Z</time>
      </trkpt>
      <trkpt lat="42.88275" lon="0.12247">
        <ele>1911.24</ele>
        <time>2012-02-11T09:28:28Z</time>
      </trkpt>
      <trkpt lat="42.88273" lon="0.1225">
        <ele>1911.24</ele>
        <time>2012-02-11T09:28:32Z</time>
      </trkpt>
      <trkpt lat="42.88272" lon="0.12253">
        <ele>1911.24</ele>
        <time>2012-02-11T09:28:36Z</time>
      </trkpt>
      <trkpt lat="42.8827" lon="0.12258">
        <ele>1910.76</ele>
        <time>2012-02-11T09:28:41Z</time>
      </trkpt>
      <trkpt lat="42.8827" lon="0.12263">
        <ele>1911.24</ele>
        <time>2012-02-11T09:28:52Z</time>
      </trkpt>
      <trkpt lat="42.8827" lon="0.12263">
        <ele>1911.24</ele>
        <time>2012-02-11T09:28:53Z</time>
      </trkpt>
      <trkpt lat="42.88269" lon="0.12266">
        <ele>1911.72</ele>
        <time>2012-02-11T09:28:57Z</time>
      </trkpt>
      <trkpt lat="42.88267" lon="0.12269">
        <ele>1912.2</ele>
        <time>2012-02-11T09:29:00Z</time>
      </trkpt>
      <trkpt lat="42.88265" lon="0.12272">
        <ele>1912.2</ele>
        <time>2012-02-11T09:29:03Z</time>
      </trkpt>
      <trkpt lat="42.88263" lon="0.12276">
        <ele>1912.2</ele>
        <time>2012-02-11T09:29:12Z</time>
      </trkpt>
      <trkpt lat="42.88264" lon="0.12288">
        <ele>1913.16</ele>
        <time>2012-02-11T09:29:23Z</time>
      </trkpt>
      <trkpt lat="42.88265" lon="0.12291">
        <ele>1915.08</ele>
        <time>2012-02-11T09:29:36Z</time>
      </trkpt>
      <trkpt lat="42.88265" lon="0.12291">
        <ele>1914.12</ele>
        <time>2012-02-11T09:30:01Z</time>
      </trkpt>
      <trkpt lat="42.88265" lon="0.12292">
        <ele>1914.12</ele>
        <time>2012-02-11T09:30:18Z</time>
      </trkpt>
      <trkpt lat="42.88269" lon="0.12303">
        <ele>1916.04</ele>
        <time>2012-02-11T09:30:30Z</time>
      </trkpt>
      <trkpt lat="42.88267" lon="0.12312">
        <ele>1915.56</ele>
        <time>2012-02-11T09:30:43Z</time>
      </trkpt>
      <trkpt lat="42.88265" lon="0.12319">
        <ele>1914.12</ele>
        <time>2012-02-11T09:30:55Z</time>
      </trkpt>
      <trkpt lat="42.88265" lon="0.12327">
        <ele>1912.68</ele>
        <time>2012-02-11T09:31:06Z</time>
      </trkpt>
      <trkpt lat="42.88264" lon="0.12335">
        <ele>1912.2</ele>
        <time>2012-02-11T09:31:18Z</time>
      </trkpt>
      <trkpt lat="42.88264" lon="0.1234">
        <ele>1911.24</ele>
        <time>2012-02-11T09:31:27Z</time>
      </trkpt>
      <trkpt lat="42.88261" lon="0.12354">
        <ele>1911.24</ele>
        <time>2012-02-11T09:31:39Z</time>
      </trkpt>
      <trkpt lat="42.88257" lon="0.12367">
        <ele>1910.28</ele>
        <time>2012-02-11T09:31:52Z</time>
      </trkpt>
      <trkpt lat="42.88257" lon="0.12369">
        <ele>1910.28</ele>
        <time>2012-02-11T09:32:09Z</time>
      </trkpt>
      <trkpt lat="42.88256" lon="0.1237">
        <ele>1908.83</ele>
        <time>2012-02-11T09:32:18Z</time>
      </trkpt>
      <trkpt lat="42.88254" lon="0.12375">
        <ele>1907.87</ele>
        <time>2012-02-11T09:32:21Z</time>
      </trkpt>
      <trkpt lat="42.88249" lon="0.12389">
        <ele>1903.07</ele>
        <time>2012-02-11T09:32:25Z</time>
      </trkpt>
      <trkpt lat="42.88243" lon="0.12403">
        <ele>1898.74</ele>
        <time>2012-02-11T09:32:28Z</time>
      </trkpt>
      <trkpt lat="42.88241" lon="0.12407">
        <ele>1897.3</ele>
        <time>2012-02-11T09:32:31Z</time>
      </trkpt>
      <trkpt lat="42.8824" lon="0.12407">
        <ele>1897.3</ele>
        <time>2012-02-11T09:32:32Z</time>
      </trkpt>
      <trkpt lat="42.88232" lon="0.1242">
        <ele>1897.78</ele>
        <time>2012-02-11T09:32:43Z</time>
      </trkpt>
      <trkpt lat="42.8823" lon="0.12421">
        <ele>1898.26</ele>
        <time>2012-02-11T09:32:50Z</time>
      </trkpt>
      <trkpt lat="42.88227" lon="0.12426">
        <ele>1897.78</ele>
        <time>2012-02-11T09:32:54Z</time>
      </trkpt>
      <trkpt lat="42.88225" lon="0.12436">
        <ele>1897.3</ele>
        <time>2012-02-11T09:33:01Z</time>
      </trkpt>
      <trkpt lat="42.88225" lon="0.12439">
        <ele>1898.26</ele>
        <time>2012-02-11T09:33:03Z</time>
      </trkpt>
      <trkpt lat="42.88224" lon="0.12454">
        <ele>1899.22</ele>
        <time>2012-02-11T09:33:13Z</time>
      </trkpt>
      <trkpt lat="42.88223" lon="0.12479">
        <ele>1899.22</ele>
        <time>2012-02-11T09:33:28Z</time>
      </trkpt>
      <trkpt lat="42.88222" lon="0.12489">
        <ele>1898.26</ele>
        <time>2012-02-11T09:33:34Z</time>
      </trkpt>
      <trkpt lat="42.8822" lon="0.12498">
        <ele>1897.78</ele>
        <time>2012-02-11T09:33:40Z</time>
      </trkpt>
      <trkpt lat="42.8822" lon="0.1251">
        <ele>1898.74</ele>
        <time>2012-02-11T09:33:50Z</time>
      </trkpt>
      <trkpt lat="42.8822" lon="0.12516">
        <ele>1898.74</ele>
        <time>2012-02-11T09:33:54Z</time>
      </trkpt>
      <trkpt lat="42.88219" lon="0.1253">
        <ele>1899.22</ele>
        <time>2012-02-11T09:34:05Z</time>
      </trkpt>
      <trkpt lat="42.88219" lon="0.1253">
        <ele>1898.74</ele>
        <time>2012-02-11T09:34:09Z</time>
      </trkpt>
      <trkpt lat="42.88219" lon="0.12531">
        <ele>1898.74</ele>
        <time>2012-02-11T09:34:11Z</time>
      </trkpt>
      <trkpt lat="42.88218" lon="0.12539">
        <ele>1898.74</ele>
        <time>2012-02-11T09:34:16Z</time>
      </trkpt>
      <trkpt lat="42.88215" lon="0.12544">
        <ele>1899.7</ele>
        <time>2012-02-11T09:34:22Z</time>
      </trkpt>
      <trkpt lat="42.88212" lon="0.12549">
        <ele>1900.18</ele>
        <time>2012-02-11T09:34:27Z</time>
      </trkpt>
      <trkpt lat="42.88211" lon="0.12553">
        <ele>1901.14</ele>
        <time>2012-02-11T09:34:30Z</time>
      </trkpt>
      <trkpt lat="42.88209" lon="0.12556">
        <ele>1902.11</ele>
        <time>2012-02-11T09:34:33Z</time>
      </trkpt>
      <trkpt lat="42.88205" lon="0.12567">
        <ele>1902.59</ele>
        <time>2012-02-11T09:34:44Z</time>
      </trkpt>
      <trkpt lat="42.88205" lon="0.12567">
        <ele>1903.07</ele>
        <time>2012-02-11T09:34:45Z</time>
      </trkpt>
      <trkpt lat="42.88203" lon="0.12575">
        <ele>1903.55</ele>
        <time>2012-02-11T09:34:52Z</time>
      </trkpt>
      <trkpt lat="42.88203" lon="0.12579">
        <ele>1904.03</ele>
        <time>2012-02-11T09:34:55Z</time>
      </trkpt>
      <trkpt lat="42.88202" lon="0.12589">
        <ele>1905.47</ele>
        <time>2012-02-11T09:35:05Z</time>
      </trkpt>
      <trkpt lat="42.88201" lon="0.12597">
        <ele>1906.43</ele>
        <time>2012-02-11T09:35:15Z</time>
      </trkpt>
      <trkpt lat="42.88202" lon="0.12607">
        <ele>1907.87</ele>
        <time>2012-02-11T09:35:25Z</time>
      </trkpt>
      <trkpt lat="42.882" lon="0.12615">
        <ele>1909.8</ele>
        <time>2012-02-11T09:35:37Z</time>
      </trkpt>
      <trkpt lat="42.88201" lon="0.12626">
        <ele>1910.76</ele>
        <time>2012-02-11T09:35:48Z</time>
      </trkpt>
      <trkpt lat="42.88201" lon="0.12627">
        <ele>1910.76</ele>
        <time>2012-02-11T09:35:49Z</time>
      </trkpt>
      <trkpt lat="42.88202" lon="0.1263">
        <ele>1910.76</ele>
        <time>2012-02-11T09:35:53Z</time>
      </trkpt>
      <trkpt lat="42.88203" lon="0.12639">
        <ele>1912.68</ele>
        <time>2012-02-11T09:36:04Z</time>
      </trkpt>
      <trkpt lat="42.88204" lon="0.12645">
        <ele>1913.16</ele>
        <time>2012-02-11T09:36:14Z</time>
      </trkpt>
      <trkpt lat="42.88204" lon="0.12654">
        <ele>1914.6</ele>
        <time>2012-02-11T09:36:23Z</time>
      </trkpt>
      <trkpt lat="42.88204" lon="0.12662">
        <ele>1915.56</ele>
        <time>2012-02-11T09:36:29Z</time>
      </trkpt>
      <trkpt lat="42.88206" lon="0.12666">
        <ele>1916.04</ele>
        <time>2012-02-11T09:36:33Z</time>
      </trkpt>
      <trkpt lat="42.88205" lon="0.12677">
        <ele>1917.49</ele>
        <time>2012-02-11T09:36:44Z</time>
      </trkpt>
      <trkpt lat="42.88205" lon="0.12678">
        <ele>1917.97</ele>
        <time>2012-02-11T09:36:45Z</time>
      </trkpt>
      <trkpt lat="42.88204" lon="0.12685">
        <ele>1918.45</ele>
        <time>2012-02-11T09:36:53Z</time>
      </trkpt>
      <trkpt lat="42.88203" lon="0.12693">
        <ele>1919.41</ele>
        <time>2012-02-11T09:37:01Z</time>
      </trkpt>
      <trkpt lat="42.88204" lon="0.12705">
        <ele>1920.85</ele>
        <time>2012-02-11T09:37:12Z</time>
      </trkpt>
      <trkpt lat="42.88204" lon="0.12706">
        <ele>1921.33</ele>
        <time>2012-02-11T09:37:13Z</time>
      </trkpt>
      <trkpt lat="42.88202" lon="0.12713">
        <ele>1922.77</ele>
        <time>2012-02-11T09:37:20Z</time>
      </trkpt>
      <trkpt lat="42.88202" lon="0.12716">
        <ele>1922.29</ele>
        <time>2012-02-11T09:37:22Z</time>
      </trkpt>
      <trkpt lat="42.882" lon="0.12722">
        <ele>1923.74</ele>
        <time>2012-02-11T09:37:30Z</time>
      </trkpt>
      <trkpt lat="42.88196" lon="0.12732">
        <ele>1925.18</ele>
        <time>2012-02-11T09:37:42Z</time>
      </trkpt>
      <trkpt lat="42.88194" lon="0.1274">
        <ele>1924.7</ele>
        <time>2012-02-11T09:37:50Z</time>
      </trkpt>
      <trkpt lat="42.88191" lon="0.12747">
        <ele>1926.62</ele>
        <time>2012-02-11T09:37:58Z</time>
      </trkpt>
      <trkpt lat="42.88188" lon="0.12754">
        <ele>1927.58</ele>
        <time>2012-02-11T09:38:05Z</time>
      </trkpt>
      <trkpt lat="42.88188" lon="0.12758">
        <ele>1927.1</ele>
        <time>2012-02-11T09:38:08Z</time>
      </trkpt>
      <trkpt lat="42.88186" lon="0.12771">
        <ele>1926.62</ele>
        <time>2012-02-11T09:38:20Z</time>
      </trkpt>
      <trkpt lat="42.88184" lon="0.12781">
        <ele>1927.1</ele>
        <time>2012-02-11T09:38:27Z</time>
      </trkpt>
      <trkpt lat="42.88184" lon="0.12786">
        <ele>1926.62</ele>
        <time>2012-02-11T09:38:31Z</time>
      </trkpt>
      <trkpt lat="42.88185" lon="0.12796">
        <ele>1924.7</ele>
        <time>2012-02-11T09:38:38Z</time>
      </trkpt>
      <trkpt lat="42.88184" lon="0.1281">
        <ele>1924.22</ele>
        <time>2012-02-11T09:38:49Z</time>
      </trkpt>
      <trkpt lat="42.88183" lon="0.12818">
        <ele>1924.7</ele>
        <time>2012-02-11T09:38:55Z</time>
      </trkpt>
      <trkpt lat="42.88184" lon="0.12821">
        <ele>1924.7</ele>
        <time>2012-02-11T09:38:57Z</time>
      </trkpt>
      <trkpt lat="42.88184" lon="0.12824">
        <ele>1925.18</ele>
        <time>2012-02-11T09:39:00Z</time>
      </trkpt>
      <trkpt lat="42.88184" lon="0.12828">
        <ele>1925.66</ele>
        <time>2012-02-11T09:39:03Z</time>
      </trkpt>
      <trkpt lat="42.88183" lon="0.12834">
        <ele>1926.14</ele>
        <time>2012-02-11T09:39:08Z</time>
      </trkpt>
      <trkpt lat="42.88184" lon="0.12837">
        <ele>1926.62</ele>
        <time>2012-02-11T09:39:10Z</time>
      </trkpt>
      <trkpt lat="42.88184" lon="0.12841">
        <ele>1926.62</ele>
        <time>2012-02-11T09:39:13Z</time>
      </trkpt>
      <trkpt lat="42.88184" lon="0.12848">
        <ele>1927.1</ele>
        <time>2012-02-11T09:39:18Z</time>
      </trkpt>
      <trkpt lat="42.88185" lon="0.12851">
        <ele>1927.58</ele>
        <time>2012-02-11T09:39:20Z</time>
      </trkpt>
      <trkpt lat="42.88184" lon="0.12855">
        <ele>1928.06</ele>
        <time>2012-02-11T09:39:25Z</time>
      </trkpt>
      <trkpt lat="42.88185" lon="0.1286">
        <ele>1928.54</ele>
        <time>2012-02-11T09:39:28Z</time>
      </trkpt>
      <trkpt lat="42.88185" lon="0.12874">
        <ele>1929.5</ele>
        <time>2012-02-11T09:39:40Z</time>
      </trkpt>
      <trkpt lat="42.88183" lon="0.12886">
        <ele>1930.95</ele>
        <time>2012-02-11T09:39:51Z</time>
      </trkpt>
      <trkpt lat="42.88183" lon="0.12895">
        <ele>1932.39</ele>
        <time>2012-02-11T09:39:58Z</time>
      </trkpt>
      <trkpt lat="42.88184" lon="0.12896">
        <ele>1932.39</ele>
        <time>2012-02-11T09:40:00Z</time>
      </trkpt>
      <trkpt lat="42.88182" lon="0.12904">
        <ele>1932.87</ele>
        <time>2012-02-11T09:40:11Z</time>
      </trkpt>
      <trkpt lat="42.88182" lon="0.12904">
        <ele>1933.83</ele>
        <time>2012-02-11T09:40:12Z</time>
      </trkpt>
      <trkpt lat="42.88181" lon="0.12908">
        <ele>1933.83</ele>
        <time>2012-02-11T09:40:16Z</time>
      </trkpt>
      <trkpt lat="42.88178" lon="0.1292">
        <ele>1935.27</ele>
        <time>2012-02-11T09:40:27Z</time>
      </trkpt>
      <trkpt lat="42.88177" lon="0.12923">
        <ele>1935.75</ele>
        <time>2012-02-11T09:40:30Z</time>
      </trkpt>
      <trkpt lat="42.88172" lon="0.12933">
        <ele>1937.19</ele>
        <time>2012-02-11T09:40:41Z</time>
      </trkpt>
      <trkpt lat="42.8817" lon="0.12939">
        <ele>1937.67</ele>
        <time>2012-02-11T09:40:46Z</time>
      </trkpt>
      <trkpt lat="42.88169" lon="0.12944">
        <ele>1937.67</ele>
        <time>2012-02-11T09:40:51Z</time>
      </trkpt>
      <trkpt lat="42.88169" lon="0.12947">
        <ele>1938.16</ele>
        <time>2012-02-11T09:40:53Z</time>
      </trkpt>
      <trkpt lat="42.88168" lon="0.12957">
        <ele>1938.16</ele>
        <time>2012-02-11T09:41:02Z</time>
      </trkpt>
      <trkpt lat="42.88166" lon="0.12967">
        <ele>1938.16</ele>
        <time>2012-02-11T09:41:11Z</time>
      </trkpt>
      <trkpt lat="42.88166" lon="0.1297">
        <ele>1938.64</ele>
        <time>2012-02-11T09:41:13Z</time>
      </trkpt>
      <trkpt lat="42.88165" lon="0.12979">
        <ele>1938.64</ele>
        <time>2012-02-11T09:41:20Z</time>
      </trkpt>
      <trkpt lat="42.88162" lon="0.12992">
        <ele>1939.12</ele>
        <time>2012-02-11T09:41:31Z</time>
      </trkpt>
      <trkpt lat="42.88162" lon="0.12994">
        <ele>1939.12</ele>
        <time>2012-02-11T09:41:33Z</time>
      </trkpt>
      <trkpt lat="42.88164" lon="0.13">
        <ele>1940.08</ele>
        <time>2012-02-11T09:41:44Z</time>
      </trkpt>
      <trkpt lat="42.88164" lon="0.13">
        <ele>1940.08</ele>
        <time>2012-02-11T09:41:56Z</time>
      </trkpt>
      <trkpt lat="42.88164" lon="0.13002">
        <ele>1940.08</ele>
        <time>2012-02-11T09:41:58Z</time>
      </trkpt>
      <trkpt lat="42.88165" lon="0.13018">
        <ele>1941.04</ele>
        <time>2012-02-11T09:42:10Z</time>
      </trkpt>
      <trkpt lat="42.88165" lon="0.13023">
        <ele>1940.08</ele>
        <time>2012-02-11T09:42:15Z</time>
      </trkpt>
      <trkpt lat="42.88165" lon="0.13029">
        <ele>1940.56</ele>
        <time>2012-02-11T09:42:29Z</time>
      </trkpt>
      <trkpt lat="42.88165" lon="0.13032">
        <ele>1940.56</ele>
        <time>2012-02-11T09:42:31Z</time>
      </trkpt>
      <trkpt lat="42.88165" lon="0.13036">
        <ele>1940.08</ele>
        <time>2012-02-11T09:42:33Z</time>
      </trkpt>
      <trkpt lat="42.88163" lon="0.13054">
        <ele>1941.04</ele>
        <time>2012-02-11T09:42:44Z</time>
      </trkpt>
      <trkpt lat="42.88162" lon="0.13055">
        <ele>1941.04</ele>
        <time>2012-02-11T09:42:48Z</time>
      </trkpt>
      <trkpt lat="42.88161" lon="0.13064">
        <ele>1941.52</ele>
        <time>2012-02-11T09:42:54Z</time>
      </trkpt>
      <trkpt lat="42.88161" lon="0.13067">
        <ele>1942</ele>
        <time>2012-02-11T09:43:06Z</time>
      </trkpt>
      <trkpt lat="42.88161" lon="0.13068">
        <ele>1941.52</ele>
        <time>2012-02-11T09:43:08Z</time>
      </trkpt>
      <trkpt lat="42.8816" lon="0.13071">
        <ele>1941.52</ele>
        <time>2012-02-11T09:43:10Z</time>
      </trkpt>
      <trkpt lat="42.88158" lon="0.13079">
        <ele>1942</ele>
        <time>2012-02-11T09:43:16Z</time>
      </trkpt>
      <trkpt lat="42.88157" lon="0.13082">
        <ele>1942.48</ele>
        <time>2012-02-11T09:43:19Z</time>
      </trkpt>
      <trkpt lat="42.88155" lon="0.13093">
        <ele>1942</ele>
        <time>2012-02-11T09:43:26Z</time>
      </trkpt>
      <trkpt lat="42.88154" lon="0.13098">
        <ele>1942</ele>
        <time>2012-02-11T09:43:30Z</time>
      </trkpt>
      <trkpt lat="42.88153" lon="0.131">
        <ele>1942.48</ele>
        <time>2012-02-11T09:43:32Z</time>
      </trkpt>
      <trkpt lat="42.88151" lon="0.13102">
        <ele>1942.96</ele>
        <time>2012-02-11T09:43:35Z</time>
      </trkpt>
      <trkpt lat="42.88149" lon="0.13119">
        <ele>1943.92</ele>
        <time>2012-02-11T09:43:46Z</time>
      </trkpt>
      <trkpt lat="42.88148" lon="0.13128">
        <ele>1943.92</ele>
        <time>2012-02-11T09:43:53Z</time>
      </trkpt>
      <trkpt lat="42.88146" lon="0.1314">
        <ele>1942.96</ele>
        <time>2012-02-11T09:44:04Z</time>
      </trkpt>
      <trkpt lat="42.88142" lon="0.13155">
        <ele>1943.44</ele>
        <time>2012-02-11T09:44:17Z</time>
      </trkpt>
      <trkpt lat="42.88141" lon="0.13156">
        <ele>1943.44</ele>
        <time>2012-02-11T09:44:19Z</time>
      </trkpt>
      <trkpt lat="42.8814" lon="0.13158">
        <ele>1943.44</ele>
        <time>2012-02-11T09:44:21Z</time>
      </trkpt>
      <trkpt lat="42.88138" lon="0.13162">
        <ele>1943.92</ele>
        <time>2012-02-11T09:44:25Z</time>
      </trkpt>
      <trkpt lat="42.88136" lon="0.13166">
        <ele>1943.44</ele>
        <time>2012-02-11T09:44:33Z</time>
      </trkpt>
      <trkpt lat="42.88136" lon="0.13167">
        <ele>1943.92</ele>
        <time>2012-02-11T09:44:38Z</time>
      </trkpt>
      <trkpt lat="42.88136" lon="0.13166">
        <ele>1943.92</ele>
        <time>2012-02-11T09:44:54Z</time>
      </trkpt>
      <trkpt lat="42.88135" lon="0.13168">
        <ele>1943.92</ele>
        <time>2012-02-11T09:45:06Z</time>
      </trkpt>
      <trkpt lat="42.88135" lon="0.13173">
        <ele>1944.4</ele>
        <time>2012-02-11T09:45:09Z</time>
      </trkpt>
      <trkpt lat="42.88133" lon="0.13182">
        <ele>1944.4</ele>
        <time>2012-02-11T09:45:16Z</time>
      </trkpt>
      <trkpt lat="42.88133" lon="0.13196">
        <ele>1945.85</ele>
        <time>2012-02-11T09:45:28Z</time>
      </trkpt>
      <trkpt lat="42.88133" lon="0.13198">
        <ele>1946.33</ele>
        <time>2012-02-11T09:45:30Z</time>
      </trkpt>
      <trkpt lat="42.88131" lon="0.13205">
        <ele>1947.77</ele>
        <time>2012-02-11T09:45:43Z</time>
      </trkpt>
      <trkpt lat="42.88132" lon="0.13211">
        <ele>1948.73</ele>
        <time>2012-02-11T09:45:53Z</time>
      </trkpt>
      <trkpt lat="42.88133" lon="0.13216">
        <ele>1949.21</ele>
        <time>2012-02-11T09:45:57Z</time>
      </trkpt>
      <trkpt lat="42.88136" lon="0.13224">
        <ele>1949.69</ele>
        <time>2012-02-11T09:46:04Z</time>
      </trkpt>
      <trkpt lat="42.88135" lon="0.13228">
        <ele>1949.69</ele>
        <time>2012-02-11T09:46:07Z</time>
      </trkpt>
      <trkpt lat="42.88135" lon="0.13233">
        <ele>1949.69</ele>
        <time>2012-02-11T09:46:11Z</time>
      </trkpt>
      <trkpt lat="42.88135" lon="0.13236">
        <ele>1950.17</ele>
        <time>2012-02-11T09:46:14Z</time>
      </trkpt>
      <trkpt lat="42.88135" lon="0.13243">
        <ele>1950.17</ele>
        <time>2012-02-11T09:46:21Z</time>
      </trkpt>
      <trkpt lat="42.88134" lon="0.13252">
        <ele>1950.65</ele>
        <time>2012-02-11T09:46:33Z</time>
      </trkpt>
      <trkpt lat="42.88131" lon="0.13259">
        <ele>1951.61</ele>
        <time>2012-02-11T09:46:43Z</time>
      </trkpt>
      <trkpt lat="42.88131" lon="0.13262">
        <ele>1952.09</ele>
        <time>2012-02-11T09:46:45Z</time>
      </trkpt>
      <trkpt lat="42.8813" lon="0.13267">
        <ele>1953.06</ele>
        <time>2012-02-11T09:46:49Z</time>
      </trkpt>
      <trkpt lat="42.88129" lon="0.13271">
        <ele>1954.02</ele>
        <time>2012-02-11T09:46:53Z</time>
      </trkpt>
      <trkpt lat="42.88133" lon="0.13279">
        <ele>1954.5</ele>
        <time>2012-02-11T09:47:03Z</time>
      </trkpt>
      <trkpt lat="42.88133" lon="0.13286">
        <ele>1954.98</ele>
        <time>2012-02-11T09:47:14Z</time>
      </trkpt>
      <trkpt lat="42.88133" lon="0.13295">
        <ele>1955.46</ele>
        <time>2012-02-11T09:47:22Z</time>
      </trkpt>
      <trkpt lat="42.88132" lon="0.13308">
        <ele>1954.02</ele>
        <time>2012-02-11T09:47:35Z</time>
      </trkpt>
      <trkpt lat="42.88132" lon="0.13311">
        <ele>1954.02</ele>
        <time>2012-02-11T09:47:37Z</time>
      </trkpt>
      <trkpt lat="42.88132" lon="0.13322">
        <ele>1953.54</ele>
        <time>2012-02-11T09:47:45Z</time>
      </trkpt>
      <trkpt lat="42.88131" lon="0.13328">
        <ele>1953.54</ele>
        <time>2012-02-11T09:47:51Z</time>
      </trkpt>
      <trkpt lat="42.8813" lon="0.13331">
        <ele>1953.54</ele>
        <time>2012-02-11T09:47:57Z</time>
      </trkpt>
      <trkpt lat="42.88127" lon="0.13338">
        <ele>1954.98</ele>
        <time>2012-02-11T09:48:04Z</time>
      </trkpt>
      <trkpt lat="42.88126" lon="0.1334">
        <ele>1954.98</ele>
        <time>2012-02-11T09:48:06Z</time>
      </trkpt>
      <trkpt lat="42.88127" lon="0.13345">
        <ele>1954.98</ele>
        <time>2012-02-11T09:48:10Z</time>
      </trkpt>
      <trkpt lat="42.88127" lon="0.13352">
        <ele>1954.98</ele>
        <time>2012-02-11T09:48:15Z</time>
      </trkpt>
      <trkpt lat="42.88127" lon="0.13365">
        <ele>1955.94</ele>
        <time>2012-02-11T09:48:26Z</time>
      </trkpt>
      <trkpt lat="42.88129" lon="0.13371">
        <ele>1955.46</ele>
        <time>2012-02-11T09:48:31Z</time>
      </trkpt>
      <trkpt lat="42.8813" lon="0.13375">
        <ele>1955.46</ele>
        <time>2012-02-11T09:48:34Z</time>
      </trkpt>
      <trkpt lat="42.88131" lon="0.13379">
        <ele>1955.46</ele>
        <time>2012-02-11T09:48:37Z</time>
      </trkpt>
      <trkpt lat="42.88132" lon="0.13382">
        <ele>1955.94</ele>
        <time>2012-02-11T09:48:50Z</time>
      </trkpt>
      <trkpt lat="42.88133" lon="0.13382">
        <ele>1955.46</ele>
        <time>2012-02-11T09:49:10Z</time>
      </trkpt>
      <trkpt lat="42.88132" lon="0.13381">
        <ele>1955.94</ele>
        <time>2012-02-11T09:49:23Z</time>
      </trkpt>
      <trkpt lat="42.88132" lon="0.13381">
        <ele>1955.46</ele>
        <time>2012-02-11T09:49:43Z</time>
      </trkpt>
      <trkpt lat="42.88132" lon="0.13382">
        <ele>1954.02</ele>
        <time>2012-02-11T09:49:58Z</time>
      </trkpt>
      <trkpt lat="42.88132" lon="0.13382">
        <ele>1955.94</ele>
        <time>2012-02-11T09:50:00Z</time>
      </trkpt>
      <trkpt lat="42.88131" lon="0.13387">
        <ele>1956.42</ele>
        <time>2012-02-11T09:50:13Z</time>
      </trkpt>
      <trkpt lat="42.88131" lon="0.13389">
        <ele>1955.94</ele>
        <time>2012-02-11T09:50:23Z</time>
      </trkpt>
      <trkpt lat="42.88131" lon="0.13393">
        <ele>1955.94</ele>
        <time>2012-02-11T09:50:25Z</time>
      </trkpt>
      <trkpt lat="42.88128" lon="0.13402">
        <ele>1956.9</ele>
        <time>2012-02-11T09:50:31Z</time>
      </trkpt>
      <trkpt lat="42.88126" lon="0.13411">
        <ele>1957.38</ele>
        <time>2012-02-11T09:50:38Z</time>
      </trkpt>
      <trkpt lat="42.88125" lon="0.13415">
        <ele>1957.38</ele>
        <time>2012-02-11T09:50:42Z</time>
      </trkpt>
      <trkpt lat="42.88121" lon="0.13424">
        <ele>1958.34</ele>
        <time>2012-02-11T09:50:49Z</time>
      </trkpt>
      <trkpt lat="42.88119" lon="0.13435">
        <ele>1958.82</ele>
        <time>2012-02-11T09:50:57Z</time>
      </trkpt>
      <trkpt lat="42.88119" lon="0.13439">
        <ele>1959.78</ele>
        <time>2012-02-11T09:50:59Z</time>
      </trkpt>
      <trkpt lat="42.88117" lon="0.13441">
        <ele>1959.78</ele>
        <time>2012-02-11T09:51:01Z</time>
      </trkpt>
      <trkpt lat="42.88117" lon="0.13444">
        <ele>1959.78</ele>
        <time>2012-02-11T09:51:03Z</time>
      </trkpt>
      <trkpt lat="42.88116" lon="0.13446">
        <ele>1959.78</ele>
        <time>2012-02-11T09:51:05Z</time>
      </trkpt>
      <trkpt lat="42.88115" lon="0.13452">
        <ele>1960.27</ele>
        <time>2012-02-11T09:51:16Z</time>
      </trkpt>
      <trkpt lat="42.88115" lon="0.13452">
        <ele>1960.27</ele>
        <time>2012-02-11T09:51:31Z</time>
      </trkpt>
      <trkpt lat="42.88115" lon="0.13451">
        <ele>1960.75</ele>
        <time>2012-02-11T09:51:42Z</time>
      </trkpt>
      <trkpt lat="42.88115" lon="0.13451">
        <ele>1961.23</ele>
        <time>2012-02-11T09:52:04Z</time>
      </trkpt>
      <trkpt lat="42.88115" lon="0.13451">
        <ele>1960.27</ele>
        <time>2012-02-11T09:52:10Z</time>
      </trkpt>
      <trkpt lat="42.88113" lon="0.13455">
        <ele>1960.75</ele>
        <time>2012-02-11T09:52:17Z</time>
      </trkpt>
      <trkpt lat="42.88115" lon="0.13468">
        <ele>1961.23</ele>
        <time>2012-02-11T09:52:26Z</time>
      </trkpt>
      <trkpt lat="42.88114" lon="0.13473">
        <ele>1961.71</ele>
        <time>2012-02-11T09:52:32Z</time>
      </trkpt>
      <trkpt lat="42.88115" lon="0.13488">
        <ele>1963.63</ele>
        <time>2012-02-11T09:52:43Z</time>
      </trkpt>
      <trkpt lat="42.88115" lon="0.13492">
        <ele>1963.15</ele>
        <time>2012-02-11T09:52:54Z</time>
      </trkpt>
      <trkpt lat="42.88115" lon="0.13495">
        <ele>1963.63</ele>
        <time>2012-02-11T09:52:58Z</time>
      </trkpt>
      <trkpt lat="42.88117" lon="0.13498">
        <ele>1962.67</ele>
        <time>2012-02-11T09:53:10Z</time>
      </trkpt>
      <trkpt lat="42.88118" lon="0.13498">
        <ele>1962.67</ele>
        <time>2012-02-11T09:53:24Z</time>
      </trkpt>
      <trkpt lat="42.88119" lon="0.13498">
        <ele>1959.78</ele>
        <time>2012-02-11T09:53:33Z</time>
      </trkpt>
      <trkpt lat="42.88119" lon="0.13498">
        <ele>1962.67</ele>
        <time>2012-02-11T09:53:34Z</time>
      </trkpt>
      <trkpt lat="42.8812" lon="0.13499">
        <ele>1956.9</ele>
        <time>2012-02-11T09:53:42Z</time>
      </trkpt>
      <trkpt lat="42.8812" lon="0.13499">
        <ele>1960.75</ele>
        <time>2012-02-11T09:53:43Z</time>
      </trkpt>
      <trkpt lat="42.8812" lon="0.13499">
        <ele>1967.48</ele>
        <time>2012-02-11T09:53:44Z</time>
      </trkpt>
      <trkpt lat="42.8812" lon="0.13498">
        <ele>1962.67</ele>
        <time>2012-02-11T09:53:45Z</time>
      </trkpt>
      <trkpt lat="42.8812" lon="0.13498">
        <ele>1958.34</ele>
        <time>2012-02-11T09:53:46Z</time>
      </trkpt>
      <trkpt lat="42.8812" lon="0.13498">
        <ele>1961.23</ele>
        <time>2012-02-11T09:53:47Z</time>
      </trkpt>
      <trkpt lat="42.8812" lon="0.13498">
        <ele>1956.9</ele>
        <time>2012-02-11T09:53:48Z</time>
      </trkpt>
      <trkpt lat="42.8812" lon="0.13498">
        <ele>1961.23</ele>
        <time>2012-02-11T09:53:49Z</time>
      </trkpt>
      <trkpt lat="42.8812" lon="0.13498">
        <ele>1960.27</ele>
        <time>2012-02-11T09:54:14Z</time>
      </trkpt>
      <trkpt lat="42.8812" lon="0.13498">
        <ele>1962.19</ele>
        <time>2012-02-11T09:54:19Z</time>
      </trkpt>
      <trkpt lat="42.88119" lon="0.13498">
        <ele>1961.23</ele>
        <time>2012-02-11T09:54:47Z</time>
      </trkpt>
      <trkpt lat="42.88119" lon="0.13498">
        <ele>1961.71</ele>
        <time>2012-02-11T09:55:08Z</time>
      </trkpt>
      <trkpt lat="42.88119" lon="0.13498">
        <ele>1961.71</ele>
        <time>2012-02-11T09:55:29Z</time>
      </trkpt>
      <trkpt lat="42.8812" lon="0.13499">
        <ele>1962.19</ele>
        <time>2012-02-11T09:55:57Z</time>
      </trkpt>
      <trkpt lat="42.8812" lon="0.13499">
        <ele>1962.19</ele>
        <time>2012-02-11T09:56:18Z</time>
      </trkpt>
      <trkpt lat="42.8812" lon="0.13498">
        <ele>1961.71</ele>
        <time>2012-02-11T09:56:43Z</time>
      </trkpt>
      <trkpt lat="42.8812" lon="0.13498">
        <ele>1966.51</ele>
        <time>2012-02-11T09:56:46Z</time>
      </trkpt>
      <trkpt lat="42.8812" lon="0.13498">
        <ele>1962.19</ele>
        <time>2012-02-11T09:56:47Z</time>
      </trkpt>
      <trkpt lat="42.8812" lon="0.13498">
        <ele>1961.23</ele>
        <time>2012-02-11T09:56:49Z</time>
      </trkpt>
      <trkpt lat="42.88119" lon="0.13497">
        <ele>1961.23</ele>
        <time>2012-02-11T09:57:17Z</time>
      </trkpt>
      <trkpt lat="42.88119" lon="0.13497">
        <ele>1961.23</ele>
        <time>2012-02-11T09:57:43Z</time>
      </trkpt>
      <trkpt lat="42.88119" lon="0.13497">
        <ele>1960.27</ele>
        <time>2012-02-11T09:58:04Z</time>
      </trkpt>
      <trkpt lat="42.88119" lon="0.13496">
        <ele>1959.78</ele>
        <time>2012-02-11T09:58:29Z</time>
      </trkpt>
      <trkpt lat="42.88119" lon="0.13496">
        <ele>1959.78</ele>
        <time>2012-02-11T09:58:54Z</time>
      </trkpt>
      <trkpt lat="42.88119" lon="0.13499">
        <ele>1959.78</ele>
        <time>2012-02-11T09:59:18Z</time>
      </trkpt>
      <trkpt lat="42.88119" lon="0.13499">
        <ele>1959.3</ele>
        <time>2012-02-11T09:59:42Z</time>
      </trkpt>
      <trkpt lat="42.88119" lon="0.13499">
        <ele>1959.78</ele>
        <time>2012-02-11T10:00:08Z</time>
      </trkpt>
      <trkpt lat="42.88119" lon="0.13499">
        <ele>1960.27</ele>
        <time>2012-02-11T10:00:30Z</time>
      </trkpt>
      <trkpt lat="42.88119" lon="0.13499">
        <ele>1959.78</ele>
        <time>2012-02-11T10:00:54Z</time>
      </trkpt>
      <trkpt lat="42.88119" lon="0.13499">
        <ele>1960.75</ele>
        <time>2012-02-11T10:01:24Z</time>
      </trkpt>
      <trkpt lat="42.88119" lon="0.13499">
        <ele>1960.75</ele>
        <time>2012-02-11T10:01:54Z</time>
      </trkpt>
      <trkpt lat="42.88119" lon="0.13499">
        <ele>1960.27</ele>
        <time>2012-02-11T10:02:24Z</time>
      </trkpt>
      <trkpt lat="42.88119" lon="0.13498">
        <ele>1960.75</ele>
        <time>2012-02-11T10:02:49Z</time>
      </trkpt>
      <trkpt lat="42.88118" lon="0.13497">
        <ele>1959.78</ele>
        <time>2012-02-11T10:03:16Z</time>
      </trkpt>
      <trkpt lat="42.88119" lon="0.13496">
        <ele>1960.27</ele>
        <time>2012-02-11T10:03:46Z</time>
      </trkpt>
      <trkpt lat="42.88119" lon="0.13496">
        <ele>1960.27</ele>
        <time>2012-02-11T10:04:17Z</time>
      </trkpt>
      <trkpt lat="42.88119" lon="0.13497">
        <ele>1960.27</ele>
        <time>2012-02-11T10:04:44Z</time>
      </trkpt>
      <trkpt lat="42.88119" lon="0.13497">
        <ele>1959.3</ele>
        <time>2012-02-11T10:05:13Z</time>
      </trkpt>
      <trkpt lat="42.88118" lon="0.13497">
        <ele>1959.3</ele>
        <time>2012-02-11T10:05:46Z</time>
      </trkpt>
      <trkpt lat="42.88118" lon="0.13497">
        <ele>1959.78</ele>
        <time>2012-02-11T10:06:15Z</time>
      </trkpt>
      <trkpt lat="42.88118" lon="0.13497">
        <ele>1959.78</ele>
        <time>2012-02-11T10:06:49Z</time>
      </trkpt>
      <trkpt lat="42.88119" lon="0.13497">
        <ele>1958.34</ele>
        <time>2012-02-11T10:07:23Z</time>
      </trkpt>
      <trkpt lat="42.88118" lon="0.13497">
        <ele>1957.86</ele>
        <time>2012-02-11T10:07:52Z</time>
      </trkpt>
      <trkpt lat="42.88118" lon="0.13497">
        <ele>1958.34</ele>
        <time>2012-02-11T10:08:16Z</time>
      </trkpt>
      <trkpt lat="42.88117" lon="0.13497">
        <ele>1958.82</ele>
        <time>2012-02-11T10:08:43Z</time>
      </trkpt>
      <trkpt lat="42.88117" lon="0.13497">
        <ele>1958.34</ele>
        <time>2012-02-11T10:09:12Z</time>
      </trkpt>
      <trkpt lat="42.88117" lon="0.13497">
        <ele>1958.82</ele>
        <time>2012-02-11T10:09:40Z</time>
      </trkpt>
      <trkpt lat="42.88117" lon="0.13498">
        <ele>1957.86</ele>
        <time>2012-02-11T10:10:10Z</time>
      </trkpt>
      <trkpt lat="42.88118" lon="0.13498">
        <ele>1957.86</ele>
        <time>2012-02-11T10:10:39Z</time>
      </trkpt>
      <trkpt lat="42.88118" lon="0.13498">
        <ele>1957.86</ele>
        <time>2012-02-11T10:11:02Z</time>
      </trkpt>
      <trkpt lat="42.88117" lon="0.13499">
        <ele>1957.38</ele>
        <time>2012-02-11T10:11:11Z</time>
      </trkpt>
      <trkpt lat="42.88117" lon="0.13499">
        <ele>1957.86</ele>
        <time>2012-02-11T10:11:42Z</time>
      </trkpt>
      <trkpt lat="42.88117" lon="0.135">
        <ele>1957.86</ele>
        <time>2012-02-11T10:12:13Z</time>
      </trkpt>
      <trkpt lat="42.88117" lon="0.135">
        <ele>1953.06</ele>
        <time>2012-02-11T10:12:25Z</time>
      </trkpt>
      <trkpt lat="42.88117" lon="0.135">
        <ele>1957.86</ele>
        <time>2012-02-11T10:12:26Z</time>
      </trkpt>
      <trkpt lat="42.88117" lon="0.135">
        <ele>1957.38</ele>
        <time>2012-02-11T10:12:53Z</time>
      </trkpt>
      <trkpt lat="42.88116" lon="0.135">
        <ele>1959.3</ele>
        <time>2012-02-11T10:13:11Z</time>
      </trkpt>
      <trkpt lat="42.88116" lon="0.135">
        <ele>1957.86</ele>
        <time>2012-02-11T10:13:13Z</time>
      </trkpt>
      <trkpt lat="42.88116" lon="0.135">
        <ele>1957.86</ele>
        <time>2012-02-11T10:13:23Z</time>
      </trkpt>
      <trkpt lat="42.88119" lon="0.135">
        <ele>1959.78</ele>
        <time>2012-02-11T10:13:30Z</time>
      </trkpt>
      <trkpt lat="42.88118" lon="0.13499">
        <ele>1958.82</ele>
        <time>2012-02-11T10:13:42Z</time>
      </trkpt>
      <trkpt lat="42.88119" lon="0.13498">
        <ele>1959.3</ele>
        <time>2012-02-11T10:13:51Z</time>
      </trkpt>
      <trkpt lat="42.88119" lon="0.13497">
        <ele>1959.3</ele>
        <time>2012-02-11T10:14:03Z</time>
      </trkpt>
      <trkpt lat="42.88117" lon="0.13496">
        <ele>1958.34</ele>
        <time>2012-02-11T10:14:15Z</time>
      </trkpt>
      <trkpt lat="42.88115" lon="0.13495">
        <ele>1959.78</ele>
        <time>2012-02-11T10:14:23Z</time>
      </trkpt>
      <trkpt lat="42.88115" lon="0.13494">
        <ele>1959.78</ele>
        <time>2012-02-11T10:14:34Z</time>
      </trkpt>
      <trkpt lat="42.88115" lon="0.13494">
        <ele>1959.3</ele>
        <time>2012-02-11T10:14:37Z</time>
      </trkpt>
      <trkpt lat="42.88114" lon="0.13493">
        <ele>1960.75</ele>
        <time>2012-02-11T10:14:39Z</time>
      </trkpt>
      <trkpt lat="42.88112" lon="0.13493">
        <ele>1960.27</ele>
        <time>2012-02-11T10:14:50Z</time>
      </trkpt>
      <trkpt lat="42.88112" lon="0.13493">
        <ele>1959.78</ele>
        <time>2012-02-11T10:15:02Z</time>
      </trkpt>
      <trkpt lat="42.88111" lon="0.13493">
        <ele>1959.78</ele>
        <time>2012-02-11T10:15:16Z</time>
      </trkpt>
      <trkpt lat="42.88111" lon="0.13493">
        <ele>1959.78</ele>
        <time>2012-02-11T10:15:34Z</time>
      </trkpt>
      <trkpt lat="42.88111" lon="0.13493">
        <ele>1959.78</ele>
        <time>2012-02-11T10:15:38Z</time>
      </trkpt>
      <trkpt lat="42.8811" lon="0.13494">
        <ele>1959.78</ele>
        <time>2012-02-11T10:15:40Z</time>
      </trkpt>
      <trkpt lat="42.88109" lon="0.1351">
        <ele>1961.23</ele>
        <time>2012-02-11T10:15:49Z</time>
      </trkpt>
      <trkpt lat="42.88108" lon="0.13517">
        <ele>1960.75</ele>
        <time>2012-02-11T10:15:54Z</time>
      </trkpt>
      <trkpt lat="42.88106" lon="0.13521">
        <ele>1961.23</ele>
        <time>2012-02-11T10:15:57Z</time>
      </trkpt>
      <trkpt lat="42.88105" lon="0.13523">
        <ele>1961.23</ele>
        <time>2012-02-11T10:15:59Z</time>
      </trkpt>
      <trkpt lat="42.88104" lon="0.13528">
        <ele>1961.23</ele>
        <time>2012-02-11T10:16:03Z</time>
      </trkpt>
      <trkpt lat="42.88104" lon="0.13532">
        <ele>1962.19</ele>
        <time>2012-02-11T10:16:06Z</time>
      </trkpt>
      <trkpt lat="42.88104" lon="0.13536">
        <ele>1962.19</ele>
        <time>2012-02-11T10:16:09Z</time>
      </trkpt>
      <trkpt lat="42.88103" lon="0.13542">
        <ele>1962.19</ele>
        <time>2012-02-11T10:16:13Z</time>
      </trkpt>
      <trkpt lat="42.88103" lon="0.13545">
        <ele>1962.67</ele>
        <time>2012-02-11T10:16:15Z</time>
      </trkpt>
      <trkpt lat="42.88099" lon="0.1355">
        <ele>1963.63</ele>
        <time>2012-02-11T10:16:22Z</time>
      </trkpt>
      <trkpt lat="42.88097" lon="0.13553">
        <ele>1963.63</ele>
        <time>2012-02-11T10:16:25Z</time>
      </trkpt>
      <trkpt lat="42.88093" lon="0.13562">
        <ele>1964.11</ele>
        <time>2012-02-11T10:16:33Z</time>
      </trkpt>
      <trkpt lat="42.88091" lon="0.13564">
        <ele>1964.11</ele>
        <time>2012-02-11T10:16:42Z</time>
      </trkpt>
      <trkpt lat="42.88089" lon="0.13569">
        <ele>1964.11</ele>
        <time>2012-02-11T10:16:46Z</time>
      </trkpt>
      <trkpt lat="42.88088" lon="0.13571">
        <ele>1964.11</ele>
        <time>2012-02-11T10:16:48Z</time>
      </trkpt>
      <trkpt lat="42.88086" lon="0.13578">
        <ele>1964.59</ele>
        <time>2012-02-11T10:16:53Z</time>
      </trkpt>
      <trkpt lat="42.88084" lon="0.13591">
        <ele>1966.03</ele>
        <time>2012-02-11T10:17:04Z</time>
      </trkpt>
      <trkpt lat="42.88084" lon="0.13595">
        <ele>1964.11</ele>
        <time>2012-02-11T10:17:07Z</time>
      </trkpt>
      <trkpt lat="42.88082" lon="0.13599">
        <ele>1965.07</ele>
        <time>2012-02-11T10:17:11Z</time>
      </trkpt>
      <trkpt lat="42.88082" lon="0.13605">
        <ele>1966.51</ele>
        <time>2012-02-11T10:17:21Z</time>
      </trkpt>
      <trkpt lat="42.88082" lon="0.13605">
        <ele>1966.51</ele>
        <time>2012-02-11T10:17:35Z</time>
      </trkpt>
      <trkpt lat="42.88082" lon="0.13605">
        <ele>1966.03</ele>
        <time>2012-02-11T10:17:48Z</time>
      </trkpt>
      <trkpt lat="42.88082" lon="0.13605">
        <ele>1966.99</ele>
        <time>2012-02-11T10:17:59Z</time>
      </trkpt>
      <trkpt lat="42.88082" lon="0.13608">
        <ele>1967.96</ele>
        <time>2012-02-11T10:18:16Z</time>
      </trkpt>
      <trkpt lat="42.8808" lon="0.13614">
        <ele>1968.44</ele>
        <time>2012-02-11T10:18:22Z</time>
      </trkpt>
      <trkpt lat="42.8808" lon="0.13618">
        <ele>1969.88</ele>
        <time>2012-02-11T10:18:25Z</time>
      </trkpt>
      <trkpt lat="42.88079" lon="0.13621">
        <ele>1970.36</ele>
        <time>2012-02-11T10:18:27Z</time>
      </trkpt>
      <trkpt lat="42.88077" lon="0.13633">
        <ele>1973.24</ele>
        <time>2012-02-11T10:18:39Z</time>
      </trkpt>
      <trkpt lat="42.88077" lon="0.13634">
        <ele>1974.2</ele>
        <time>2012-02-11T10:18:40Z</time>
      </trkpt>
      <trkpt lat="42.88077" lon="0.13637">
        <ele>1974.69</ele>
        <time>2012-02-11T10:18:42Z</time>
      </trkpt>
      <trkpt lat="42.88075" lon="0.13641">
        <ele>1975.65</ele>
        <time>2012-02-11T10:18:52Z</time>
      </trkpt>
      <trkpt lat="42.88072" lon="0.13647">
        <ele>1978.53</ele>
        <time>2012-02-11T10:19:02Z</time>
      </trkpt>
      <trkpt lat="42.88073" lon="0.13647">
        <ele>1977.57</ele>
        <time>2012-02-11T10:19:16Z</time>
      </trkpt>
      <trkpt lat="42.88074" lon="0.13651">
        <ele>1977.57</ele>
        <time>2012-02-11T10:19:23Z</time>
      </trkpt>
      <trkpt lat="42.88073" lon="0.13655">
        <ele>1978.53</ele>
        <time>2012-02-11T10:19:26Z</time>
      </trkpt>
      <trkpt lat="42.88073" lon="0.1366">
        <ele>1979.49</ele>
        <time>2012-02-11T10:19:30Z</time>
      </trkpt>
      <trkpt lat="42.88072" lon="0.13665">
        <ele>1980.45</ele>
        <time>2012-02-11T10:19:35Z</time>
      </trkpt>
      <trkpt lat="42.88069" lon="0.13673">
        <ele>1981.9</ele>
        <time>2012-02-11T10:19:45Z</time>
      </trkpt>
      <trkpt lat="42.88071" lon="0.13683">
        <ele>1983.82</ele>
        <time>2012-02-11T10:19:54Z</time>
      </trkpt>
      <trkpt lat="42.88072" lon="0.13687">
        <ele>1984.78</ele>
        <time>2012-02-11T10:19:58Z</time>
      </trkpt>
      <trkpt lat="42.88072" lon="0.13693">
        <ele>1986.7</ele>
        <time>2012-02-11T10:20:08Z</time>
      </trkpt>
      <trkpt lat="42.88073" lon="0.13702">
        <ele>1988.62</ele>
        <time>2012-02-11T10:20:17Z</time>
      </trkpt>
      <trkpt lat="42.88075" lon="0.13712">
        <ele>1990.55</ele>
        <time>2012-02-11T10:20:26Z</time>
      </trkpt>
      <trkpt lat="42.88075" lon="0.13716">
        <ele>1990.55</ele>
        <time>2012-02-11T10:20:32Z</time>
      </trkpt>
      <trkpt lat="42.88077" lon="0.1372">
        <ele>1991.03</ele>
        <time>2012-02-11T10:20:37Z</time>
      </trkpt>
      <trkpt lat="42.88078" lon="0.13727">
        <ele>1993.43</ele>
        <time>2012-02-11T10:20:49Z</time>
      </trkpt>
      <trkpt lat="42.88076" lon="0.1373">
        <ele>1994.87</ele>
        <time>2012-02-11T10:20:58Z</time>
      </trkpt>
      <trkpt lat="42.88071" lon="0.13735">
        <ele>1994.87</ele>
        <time>2012-02-11T10:21:07Z</time>
      </trkpt>
      <trkpt lat="42.8807" lon="0.13738">
        <ele>1995.83</ele>
        <time>2012-02-11T10:21:12Z</time>
      </trkpt>
      <trkpt lat="42.88075" lon="0.13747">
        <ele>1996.8</ele>
        <time>2012-02-11T10:21:22Z</time>
      </trkpt>
      <trkpt lat="42.88077" lon="0.13749">
        <ele>1998.72</ele>
        <time>2012-02-11T10:21:31Z</time>
      </trkpt>
      <trkpt lat="42.8808" lon="0.13752">
        <ele>1998.72</ele>
        <time>2012-02-11T10:21:34Z</time>
      </trkpt>
      <trkpt lat="42.8808" lon="0.13755">
        <ele>1999.68</ele>
        <time>2012-02-11T10:21:36Z</time>
      </trkpt>
      <trkpt lat="42.88079" lon="0.1376">
        <ele>2000.64</ele>
        <time>2012-02-11T10:21:45Z</time>
      </trkpt>
      <trkpt lat="42.88079" lon="0.13764">
        <ele>2002.56</ele>
        <time>2012-02-11T10:21:54Z</time>
      </trkpt>
      <trkpt lat="42.88081" lon="0.13765">
        <ele>2003.04</ele>
        <time>2012-02-11T10:21:59Z</time>
      </trkpt>
      <trkpt lat="42.88081" lon="0.13769">
        <ele>2004.01</ele>
        <time>2012-02-11T10:22:07Z</time>
      </trkpt>
      <trkpt lat="42.88075" lon="0.13773">
        <ele>2005.45</ele>
        <time>2012-02-11T10:22:17Z</time>
      </trkpt>
      <trkpt lat="42.88068" lon="0.13774">
        <ele>2007.85</ele>
        <time>2012-02-11T10:22:26Z</time>
      </trkpt>
      <trkpt lat="42.88065" lon="0.13777">
        <ele>2009.29</ele>
        <time>2012-02-11T10:22:36Z</time>
      </trkpt>
      <trkpt lat="42.88068" lon="0.13783">
        <ele>2010.73</ele>
        <time>2012-02-11T10:22:46Z</time>
      </trkpt>
      <trkpt lat="42.88069" lon="0.13784">
        <ele>2011.7</ele>
        <time>2012-02-11T10:22:48Z</time>
      </trkpt>
      <trkpt lat="42.88074" lon="0.13791">
        <ele>2012.66</ele>
        <time>2012-02-11T10:22:57Z</time>
      </trkpt>
      <trkpt lat="42.8808" lon="0.13799">
        <ele>2014.1</ele>
        <time>2012-02-11T10:23:06Z</time>
      </trkpt>
      <trkpt lat="42.88081" lon="0.13805">
        <ele>2015.54</ele>
        <time>2012-02-11T10:23:14Z</time>
      </trkpt>
      <trkpt lat="42.88076" lon="0.13809">
        <ele>2016.98</ele>
        <time>2012-02-11T10:23:24Z</time>
      </trkpt>
      <trkpt lat="42.88071" lon="0.1381">
        <ele>2018.43</ele>
        <time>2012-02-11T10:23:33Z</time>
      </trkpt>
      <trkpt lat="42.88069" lon="0.13811">
        <ele>2019.39</ele>
        <time>2012-02-11T10:23:41Z</time>
      </trkpt>
      <trkpt lat="42.88069" lon="0.13813">
        <ele>2019.39</ele>
        <time>2012-02-11T10:23:45Z</time>
      </trkpt>
      <trkpt lat="42.88073" lon="0.1382">
        <ele>2019.87</ele>
        <time>2012-02-11T10:23:56Z</time>
      </trkpt>
      <trkpt lat="42.88076" lon="0.13823">
        <ele>2019.87</ele>
        <time>2012-02-11T10:24:07Z</time>
      </trkpt>
      <trkpt lat="42.88079" lon="0.13828">
        <ele>2020.35</ele>
        <time>2012-02-11T10:24:21Z</time>
      </trkpt>
      <trkpt lat="42.88079" lon="0.13829">
        <ele>2020.35</ele>
        <time>2012-02-11T10:24:23Z</time>
      </trkpt>
      <trkpt lat="42.88078" lon="0.13829">
        <ele>2021.31</ele>
        <time>2012-02-11T10:24:28Z</time>
      </trkpt>
      <trkpt lat="42.88069" lon="0.13829">
        <ele>2022.27</ele>
        <time>2012-02-11T10:24:39Z</time>
      </trkpt>
      <trkpt lat="42.88068" lon="0.13829">
        <ele>2022.27</ele>
        <time>2012-02-11T10:24:40Z</time>
      </trkpt>
      <trkpt lat="42.88066" lon="0.13828">
        <ele>2022.75</ele>
        <time>2012-02-11T10:24:42Z</time>
      </trkpt>
      <trkpt lat="42.88064" lon="0.13829">
        <ele>2022.75</ele>
        <time>2012-02-11T10:24:45Z</time>
      </trkpt>
      <trkpt lat="42.88061" lon="0.13829">
        <ele>2024.67</ele>
        <time>2012-02-11T10:24:49Z</time>
      </trkpt>
      <trkpt lat="42.88059" lon="0.13828">
        <ele>2024.19</ele>
        <time>2012-02-11T10:24:51Z</time>
      </trkpt>
      <trkpt lat="42.88054" lon="0.13828">
        <ele>2025.15</ele>
        <time>2012-02-11T10:24:57Z</time>
      </trkpt>
      <trkpt lat="42.88052" lon="0.13829">
        <ele>2027.56</ele>
        <time>2012-02-11T10:25:01Z</time>
      </trkpt>
      <trkpt lat="42.88048" lon="0.13831">
        <ele>2026.12</ele>
        <time>2012-02-11T10:25:10Z</time>
      </trkpt>
      <trkpt lat="42.88049" lon="0.13834">
        <ele>2026.6</ele>
        <time>2012-02-11T10:25:14Z</time>
      </trkpt>
      <trkpt lat="42.8805" lon="0.13837">
        <ele>2027.08</ele>
        <time>2012-02-11T10:25:17Z</time>
      </trkpt>
      <trkpt lat="42.88051" lon="0.13843">
        <ele>2027.56</ele>
        <time>2012-02-11T10:25:23Z</time>
      </trkpt>
      <trkpt lat="42.88055" lon="0.1385">
        <ele>2029.48</ele>
        <time>2012-02-11T10:25:32Z</time>
      </trkpt>
      <trkpt lat="42.88057" lon="0.13855">
        <ele>2029</ele>
        <time>2012-02-11T10:25:41Z</time>
      </trkpt>
      <trkpt lat="42.88057" lon="0.13856">
        <ele>2030.44</ele>
        <time>2012-02-11T10:25:44Z</time>
      </trkpt>
      <trkpt lat="42.88061" lon="0.13861">
        <ele>2031.4</ele>
        <time>2012-02-11T10:25:57Z</time>
      </trkpt>
      <trkpt lat="42.88061" lon="0.13862">
        <ele>2031.88</ele>
        <time>2012-02-11T10:26:04Z</time>
      </trkpt>
      <trkpt lat="42.8806" lon="0.13863">
        <ele>2031.88</ele>
        <time>2012-02-11T10:26:09Z</time>
      </trkpt>
      <trkpt lat="42.88052" lon="0.13864">
        <ele>2032.84</ele>
        <time>2012-02-11T10:26:19Z</time>
      </trkpt>
      <trkpt lat="42.88049" lon="0.13862">
        <ele>2033.81</ele>
        <time>2012-02-11T10:26:23Z</time>
      </trkpt>
      <trkpt lat="42.88043" lon="0.13862">
        <ele>2034.77</ele>
        <time>2012-02-11T10:26:33Z</time>
      </trkpt>
      <trkpt lat="42.88047" lon="0.13865">
        <ele>2034.77</ele>
        <time>2012-02-11T10:26:43Z</time>
      </trkpt>
      <trkpt lat="42.88047" lon="0.13865">
        <ele>2035.25</ele>
        <time>2012-02-11T10:26:44Z</time>
      </trkpt>
      <trkpt lat="42.88046" lon="0.1387">
        <ele>2036.69</ele>
        <time>2012-02-11T10:26:53Z</time>
      </trkpt>
      <trkpt lat="42.88047" lon="0.13871">
        <ele>2037.65</ele>
        <time>2012-02-11T10:26:54Z</time>
      </trkpt>
      <trkpt lat="42.88048" lon="0.13873">
        <ele>2037.17</ele>
        <time>2012-02-11T10:26:56Z</time>
      </trkpt>
      <trkpt lat="42.88049" lon="0.13875">
        <ele>2037.65</ele>
        <time>2012-02-11T10:27:00Z</time>
      </trkpt>
      <trkpt lat="42.88055" lon="0.1388">
        <ele>2039.09</ele>
        <time>2012-02-11T10:27:09Z</time>
      </trkpt>
      <trkpt lat="42.88056" lon="0.13881">
        <ele>2040.05</ele>
        <time>2012-02-11T10:27:12Z</time>
      </trkpt>
      <trkpt lat="42.88058" lon="0.13887">
        <ele>2041.5</ele>
        <time>2012-02-11T10:27:21Z</time>
      </trkpt>
      <trkpt lat="42.8806" lon="0.13888">
        <ele>2041.5</ele>
        <time>2012-02-11T10:27:26Z</time>
      </trkpt>
      <trkpt lat="42.88066" lon="0.13895">
        <ele>2042.46</ele>
        <time>2012-02-11T10:27:36Z</time>
      </trkpt>
      <trkpt lat="42.88069" lon="0.13904">
        <ele>2042.94</ele>
        <time>2012-02-11T10:27:46Z</time>
      </trkpt>
      <trkpt lat="42.8807" lon="0.1391">
        <ele>2043.9</ele>
        <time>2012-02-11T10:27:56Z</time>
      </trkpt>
      <trkpt lat="42.8807" lon="0.1391">
        <ele>2044.38</ele>
        <time>2012-02-11T10:28:14Z</time>
      </trkpt>
      <trkpt lat="42.88071" lon="0.13913">
        <ele>2043.9</ele>
        <time>2012-02-11T10:28:17Z</time>
      </trkpt>
      <trkpt lat="42.88072" lon="0.13915">
        <ele>2045.34</ele>
        <time>2012-02-11T10:28:19Z</time>
      </trkpt>
      <trkpt lat="42.88077" lon="0.13925">
        <ele>2045.82</ele>
        <time>2012-02-11T10:28:28Z</time>
      </trkpt>
      <trkpt lat="42.8808" lon="0.13928">
        <ele>2046.78</ele>
        <time>2012-02-11T10:28:31Z</time>
      </trkpt>
      <trkpt lat="42.88082" lon="0.13931">
        <ele>2048.23</ele>
        <time>2012-02-11T10:28:35Z</time>
      </trkpt>
      <trkpt lat="42.88086" lon="0.13939">
        <ele>2047.75</ele>
        <time>2012-02-11T10:28:44Z</time>
      </trkpt>
      <trkpt lat="42.88087" lon="0.13943">
        <ele>2048.23</ele>
        <time>2012-02-11T10:28:51Z</time>
      </trkpt>
      <trkpt lat="42.88089" lon="0.13947">
        <ele>2049.67</ele>
        <time>2012-02-11T10:28:57Z</time>
      </trkpt>
      <trkpt lat="42.8809" lon="0.13952">
        <ele>2049.19</ele>
        <time>2012-02-11T10:29:01Z</time>
      </trkpt>
      <trkpt lat="42.88091" lon="0.13959">
        <ele>2049.67</ele>
        <time>2012-02-11T10:29:08Z</time>
      </trkpt>
      <trkpt lat="42.88092" lon="0.13965">
        <ele>2050.63</ele>
        <time>2012-02-11T10:29:14Z</time>
      </trkpt>
      <trkpt lat="42.88089" lon="0.13969">
        <ele>2052.55</ele>
        <time>2012-02-11T10:29:22Z</time>
      </trkpt>
      <trkpt lat="42.88088" lon="0.1397">
        <ele>2053.03</ele>
        <time>2012-02-11T10:29:24Z</time>
      </trkpt>
      <trkpt lat="42.88084" lon="0.13972">
        <ele>2054.47</ele>
        <time>2012-02-11T10:29:33Z</time>
      </trkpt>
      <trkpt lat="42.88079" lon="0.13971">
        <ele>2055.92</ele>
        <time>2012-02-11T10:29:42Z</time>
      </trkpt>
      <trkpt lat="42.88076" lon="0.13971">
        <ele>2055.92</ele>
        <time>2012-02-11T10:29:54Z</time>
      </trkpt>
      <trkpt lat="42.8807" lon="0.13971">
        <ele>2057.84</ele>
        <time>2012-02-11T10:30:06Z</time>
      </trkpt>
      <trkpt lat="42.88065" lon="0.13971">
        <ele>2058.8</ele>
        <time>2012-02-11T10:30:13Z</time>
      </trkpt>
      <trkpt lat="42.88059" lon="0.13968">
        <ele>2060.72</ele>
        <time>2012-02-11T10:30:23Z</time>
      </trkpt>
      <trkpt lat="42.88057" lon="0.13967">
        <ele>2061.2</ele>
        <time>2012-02-11T10:30:29Z</time>
      </trkpt>
      <trkpt lat="42.88056" lon="0.13971">
        <ele>2061.68</ele>
        <time>2012-02-11T10:30:41Z</time>
      </trkpt>
      <trkpt lat="42.88056" lon="0.13971">
        <ele>2060.72</ele>
        <time>2012-02-11T10:30:52Z</time>
      </trkpt>
      <trkpt lat="42.88056" lon="0.13971">
        <ele>2062.17</ele>
        <time>2012-02-11T10:30:59Z</time>
      </trkpt>
      <trkpt lat="42.88053" lon="0.13977">
        <ele>2061.68</ele>
        <time>2012-02-11T10:31:06Z</time>
      </trkpt>
      <trkpt lat="42.88048" lon="0.1399">
        <ele>2063.13</ele>
        <time>2012-02-11T10:31:19Z</time>
      </trkpt>
      <trkpt lat="42.88046" lon="0.13995">
        <ele>2063.61</ele>
        <time>2012-02-11T10:31:25Z</time>
      </trkpt>
      <trkpt lat="42.88043" lon="0.14">
        <ele>2065.53</ele>
        <time>2012-02-11T10:31:32Z</time>
      </trkpt>
      <trkpt lat="42.88041" lon="0.14005">
        <ele>2065.05</ele>
        <time>2012-02-11T10:31:37Z</time>
      </trkpt>
      <trkpt lat="42.88038" lon="0.14012">
        <ele>2066.49</ele>
        <time>2012-02-11T10:31:45Z</time>
      </trkpt>
      <trkpt lat="42.88037" lon="0.14016">
        <ele>2066.97</ele>
        <time>2012-02-11T10:31:48Z</time>
      </trkpt>
      <trkpt lat="42.88034" lon="0.14027">
        <ele>2067.45</ele>
        <time>2012-02-11T10:31:59Z</time>
      </trkpt>
      <trkpt lat="42.88032" lon="0.14033">
        <ele>2069.38</ele>
        <time>2012-02-11T10:32:06Z</time>
      </trkpt>
      <trkpt lat="42.8803" lon="0.14036">
        <ele>2069.38</ele>
        <time>2012-02-11T10:32:11Z</time>
      </trkpt>
      <trkpt lat="42.88028" lon="0.14043">
        <ele>2069.86</ele>
        <time>2012-02-11T10:32:24Z</time>
      </trkpt>
      <trkpt lat="42.88028" lon="0.14046">
        <ele>2070.34</ele>
        <time>2012-02-11T10:32:26Z</time>
      </trkpt>
      <trkpt lat="42.88025" lon="0.14052">
        <ele>2072.26</ele>
        <time>2012-02-11T10:32:33Z</time>
      </trkpt>
      <trkpt lat="42.8802" lon="0.1406">
        <ele>2071.78</ele>
        <time>2012-02-11T10:32:43Z</time>
      </trkpt>
      <trkpt lat="42.88019" lon="0.14062">
        <ele>2071.78</ele>
        <time>2012-02-11T10:32:45Z</time>
      </trkpt>
      <trkpt lat="42.88013" lon="0.14073">
        <ele>2073.22</ele>
        <time>2012-02-11T10:32:58Z</time>
      </trkpt>
      <trkpt lat="42.88013" lon="0.14073">
        <ele>2072.74</ele>
        <time>2012-02-11T10:33:12Z</time>
      </trkpt>
      <trkpt lat="42.88009" lon="0.14078">
        <ele>2072.26</ele>
        <time>2012-02-11T10:33:20Z</time>
      </trkpt>
      <trkpt lat="42.88008" lon="0.14086">
        <ele>2074.18</ele>
        <time>2012-02-11T10:33:27Z</time>
      </trkpt>
      <trkpt lat="42.88" lon="0.14094">
        <ele>2074.66</ele>
        <time>2012-02-11T10:33:38Z</time>
      </trkpt>
      <trkpt lat="42.87999" lon="0.14095">
        <ele>2074.18</ele>
        <time>2012-02-11T10:33:39Z</time>
      </trkpt>
      <trkpt lat="42.87997" lon="0.14105">
        <ele>2075.14</ele>
        <time>2012-02-11T10:33:49Z</time>
      </trkpt>
      <trkpt lat="42.87995" lon="0.14112">
        <ele>2076.59</ele>
        <time>2012-02-11T10:33:56Z</time>
      </trkpt>
      <trkpt lat="42.87995" lon="0.14115">
        <ele>2077.07</ele>
        <time>2012-02-11T10:33:59Z</time>
      </trkpt>
      <trkpt lat="42.87994" lon="0.14117">
        <ele>2077.07</ele>
        <time>2012-02-11T10:34:01Z</time>
      </trkpt>
      <trkpt lat="42.87994" lon="0.14121">
        <ele>2077.07</ele>
        <time>2012-02-11T10:34:04Z</time>
      </trkpt>
      <trkpt lat="42.87992" lon="0.14127">
        <ele>2077.07</ele>
        <time>2012-02-11T10:34:09Z</time>
      </trkpt>
      <trkpt lat="42.8799" lon="0.14131">
        <ele>2078.03</ele>
        <time>2012-02-11T10:34:13Z</time>
      </trkpt>
      <trkpt lat="42.87987" lon="0.14137">
        <ele>2078.51</ele>
        <time>2012-02-11T10:34:22Z</time>
      </trkpt>
      <trkpt lat="42.87987" lon="0.14137">
        <ele>2079.95</ele>
        <time>2012-02-11T10:34:38Z</time>
      </trkpt>
      <trkpt lat="42.87985" lon="0.14145">
        <ele>2079.95</ele>
        <time>2012-02-11T10:34:47Z</time>
      </trkpt>
      <trkpt lat="42.87983" lon="0.14148">
        <ele>2080.43</ele>
        <time>2012-02-11T10:34:51Z</time>
      </trkpt>
      <trkpt lat="42.8798" lon="0.14151">
        <ele>2081.39</ele>
        <time>2012-02-11T10:34:57Z</time>
      </trkpt>
      <trkpt lat="42.87981" lon="0.14155">
        <ele>2081.87</ele>
        <time>2012-02-11T10:34:59Z</time>
      </trkpt>
      <trkpt lat="42.87983" lon="0.14157">
        <ele>2081.87</ele>
        <time>2012-02-11T10:35:03Z</time>
      </trkpt>
      <trkpt lat="42.87983" lon="0.14161">
        <ele>2082.35</ele>
        <time>2012-02-11T10:35:08Z</time>
      </trkpt>
      <trkpt lat="42.87986" lon="0.1417">
        <ele>2083.79</ele>
        <time>2012-02-11T10:35:18Z</time>
      </trkpt>
      <trkpt lat="42.87987" lon="0.14173">
        <ele>2085.72</ele>
        <time>2012-02-11T10:35:28Z</time>
      </trkpt>
      <trkpt lat="42.87987" lon="0.14174">
        <ele>2084.76</ele>
        <time>2012-02-11T10:35:42Z</time>
      </trkpt>
      <trkpt lat="42.87989" lon="0.14179">
        <ele>2085.72</ele>
        <time>2012-02-11T10:35:53Z</time>
      </trkpt>
      <trkpt lat="42.87993" lon="0.14186">
        <ele>2088.6</ele>
        <time>2012-02-11T10:36:02Z</time>
      </trkpt>
      <trkpt lat="42.87995" lon="0.14189">
        <ele>2089.56</ele>
        <time>2012-02-11T10:36:09Z</time>
      </trkpt>
      <trkpt lat="42.87997" lon="0.14192">
        <ele>2090.52</ele>
        <time>2012-02-11T10:36:11Z</time>
      </trkpt>
      <trkpt lat="42.87998" lon="0.14194">
        <ele>2091.49</ele>
        <time>2012-02-11T10:36:16Z</time>
      </trkpt>
      <trkpt lat="42.88003" lon="0.142">
        <ele>2093.89</ele>
        <time>2012-02-11T10:36:26Z</time>
      </trkpt>
      <trkpt lat="42.88005" lon="0.14203">
        <ele>2095.81</ele>
        <time>2012-02-11T10:36:36Z</time>
      </trkpt>
      <trkpt lat="42.88009" lon="0.14208">
        <ele>2096.77</ele>
        <time>2012-02-11T10:36:51Z</time>
      </trkpt>
      <trkpt lat="42.88009" lon="0.1421">
        <ele>2099.18</ele>
        <time>2012-02-11T10:37:00Z</time>
      </trkpt>
      <trkpt lat="42.8801" lon="0.14215">
        <ele>2099.66</ele>
        <time>2012-02-11T10:37:10Z</time>
      </trkpt>
      <trkpt lat="42.88012" lon="0.14226">
        <ele>2100.62</ele>
        <time>2012-02-11T10:37:21Z</time>
      </trkpt>
      <trkpt lat="42.88011" lon="0.14226">
        <ele>2099.66</ele>
        <time>2012-02-11T10:37:31Z</time>
      </trkpt>
      <trkpt lat="42.88012" lon="0.14227">
        <ele>2100.14</ele>
        <time>2012-02-11T10:37:48Z</time>
      </trkpt>
      <trkpt lat="42.88012" lon="0.14227">
        <ele>2101.1</ele>
        <time>2012-02-11T10:38:10Z</time>
      </trkpt>
      <trkpt lat="42.88012" lon="0.14228">
        <ele>2101.1</ele>
        <time>2012-02-11T10:38:28Z</time>
      </trkpt>
      <trkpt lat="42.88012" lon="0.14228">
        <ele>2101.1</ele>
        <time>2012-02-11T10:38:46Z</time>
      </trkpt>
      <trkpt lat="42.88012" lon="0.14229">
        <ele>2101.1</ele>
        <time>2012-02-11T10:39:09Z</time>
      </trkpt>
      <trkpt lat="42.88012" lon="0.14229">
        <ele>2100.62</ele>
        <time>2012-02-11T10:39:26Z</time>
      </trkpt>
      <trkpt lat="42.88012" lon="0.1423">
        <ele>2101.1</ele>
        <time>2012-02-11T10:39:33Z</time>
      </trkpt>
      <trkpt lat="42.88011" lon="0.14238">
        <ele>2100.62</ele>
        <time>2012-02-11T10:39:43Z</time>
      </trkpt>
      <trkpt lat="42.88009" lon="0.1425">
        <ele>2102.06</ele>
        <time>2012-02-11T10:39:55Z</time>
      </trkpt>
      <trkpt lat="42.88008" lon="0.14252">
        <ele>2102.06</ele>
        <time>2012-02-11T10:39:57Z</time>
      </trkpt>
      <trkpt lat="42.88004" lon="0.14263">
        <ele>2102.06</ele>
        <time>2012-02-11T10:40:09Z</time>
      </trkpt>
      <trkpt lat="42.88004" lon="0.14262">
        <ele>2103.02</ele>
        <time>2012-02-11T10:40:21Z</time>
      </trkpt>
      <trkpt lat="42.88004" lon="0.14264">
        <ele>2102.54</ele>
        <time>2012-02-11T10:40:23Z</time>
      </trkpt>
      <trkpt lat="42.87998" lon="0.14271">
        <ele>2103.5</ele>
        <time>2012-02-11T10:40:32Z</time>
      </trkpt>
      <trkpt lat="42.87996" lon="0.14277">
        <ele>2103.98</ele>
        <time>2012-02-11T10:40:37Z</time>
      </trkpt>
      <trkpt lat="42.87993" lon="0.14283">
        <ele>2103.98</ele>
        <time>2012-02-11T10:40:42Z</time>
      </trkpt>
      <trkpt lat="42.8799" lon="0.14287">
        <ele>2105.42</ele>
        <time>2012-02-11T10:40:46Z</time>
      </trkpt>
      <trkpt lat="42.87983" lon="0.14296">
        <ele>2106.87</ele>
        <time>2012-02-11T10:40:57Z</time>
      </trkpt>
      <trkpt lat="42.8798" lon="0.14304">
        <ele>2107.35</ele>
        <time>2012-02-11T10:41:06Z</time>
      </trkpt>
      <trkpt lat="42.87976" lon="0.14309">
        <ele>2108.31</ele>
        <time>2012-02-11T10:41:13Z</time>
      </trkpt>
      <trkpt lat="42.87972" lon="0.1432">
        <ele>2108.31</ele>
        <time>2012-02-11T10:41:25Z</time>
      </trkpt>
      <trkpt lat="42.87968" lon="0.14328">
        <ele>2109.27</ele>
        <time>2012-02-11T10:41:34Z</time>
      </trkpt>
      <trkpt lat="42.87965" lon="0.14331">
        <ele>2109.75</ele>
        <time>2012-02-11T10:41:39Z</time>
      </trkpt>
      <trkpt lat="42.87962" lon="0.14337">
        <ele>2111.19</ele>
        <time>2012-02-11T10:41:49Z</time>
      </trkpt>
      <trkpt lat="42.87962" lon="0.14343">
        <ele>2112.15</ele>
        <time>2012-02-11T10:41:57Z</time>
      </trkpt>
      <trkpt lat="42.87961" lon="0.14345">
        <ele>2112.63</ele>
        <time>2012-02-11T10:42:00Z</time>
      </trkpt>
      <trkpt lat="42.87961" lon="0.14353">
        <ele>2113.6</ele>
        <time>2012-02-11T10:42:08Z</time>
      </trkpt>
      <trkpt lat="42.87965" lon="0.14359">
        <ele>2115.04</ele>
        <time>2012-02-11T10:42:16Z</time>
      </trkpt>
      <trkpt lat="42.87969" lon="0.14362">
        <ele>2115.52</ele>
        <time>2012-02-11T10:42:22Z</time>
      </trkpt>
      <trkpt lat="42.87977" lon="0.14364">
        <ele>2116.96</ele>
        <time>2012-02-11T10:42:33Z</time>
      </trkpt>
      <trkpt lat="42.8798" lon="0.14366">
        <ele>2117.92</ele>
        <time>2012-02-11T10:42:41Z</time>
      </trkpt>
      <trkpt lat="42.87982" lon="0.14367">
        <ele>2118.4</ele>
        <time>2012-02-11T10:42:45Z</time>
      </trkpt>
      <trkpt lat="42.87982" lon="0.14368">
        <ele>2118.88</ele>
        <time>2012-02-11T10:42:50Z</time>
      </trkpt>
      <trkpt lat="42.87978" lon="0.14374">
        <ele>2119.36</ele>
        <time>2012-02-11T10:43:02Z</time>
      </trkpt>
      <trkpt lat="42.87977" lon="0.14376">
        <ele>2119.84</ele>
        <time>2012-02-11T10:43:04Z</time>
      </trkpt>
      <trkpt lat="42.87976" lon="0.14379">
        <ele>2119.84</ele>
        <time>2012-02-11T10:43:08Z</time>
      </trkpt>
      <trkpt lat="42.87974" lon="0.14385">
        <ele>2121.29</ele>
        <time>2012-02-11T10:43:14Z</time>
      </trkpt>
      <trkpt lat="42.87973" lon="0.1439">
        <ele>2121.77</ele>
        <time>2012-02-11T10:43:21Z</time>
      </trkpt>
      <trkpt lat="42.87975" lon="0.14393">
        <ele>2123.69</ele>
        <time>2012-02-11T10:43:32Z</time>
      </trkpt>
      <trkpt lat="42.87977" lon="0.14398">
        <ele>2123.69</ele>
        <time>2012-02-11T10:43:47Z</time>
      </trkpt>
      <trkpt lat="42.87977" lon="0.14399">
        <ele>2123.69</ele>
        <time>2012-02-11T10:43:48Z</time>
      </trkpt>
      <trkpt lat="42.87977" lon="0.1441">
        <ele>2125.61</ele>
        <time>2012-02-11T10:43:58Z</time>
      </trkpt>
      <trkpt lat="42.87975" lon="0.14418">
        <ele>2126.09</ele>
        <time>2012-02-11T10:44:07Z</time>
      </trkpt>
      <trkpt lat="42.87975" lon="0.14421">
        <ele>2127.05</ele>
        <time>2012-02-11T10:44:10Z</time>
      </trkpt>
      <trkpt lat="42.87974" lon="0.14429">
        <ele>2128.5</ele>
        <time>2012-02-11T10:44:21Z</time>
      </trkpt>
      <trkpt lat="42.87975" lon="0.14432">
        <ele>2129.94</ele>
        <time>2012-02-11T10:44:25Z</time>
      </trkpt>
      <trkpt lat="42.87975" lon="0.1444">
        <ele>2129.94</ele>
        <time>2012-02-11T10:44:32Z</time>
      </trkpt>
      <trkpt lat="42.87975" lon="0.1445">
        <ele>2130.9</ele>
        <time>2012-02-11T10:44:43Z</time>
      </trkpt>
      <trkpt lat="42.87976" lon="0.14456">
        <ele>2131.38</ele>
        <time>2012-02-11T10:44:48Z</time>
      </trkpt>
      <trkpt lat="42.87978" lon="0.14468">
        <ele>2131.86</ele>
        <time>2012-02-11T10:44:59Z</time>
      </trkpt>
      <trkpt lat="42.87977" lon="0.14474">
        <ele>2132.82</ele>
        <time>2012-02-11T10:45:04Z</time>
      </trkpt>
      <trkpt lat="42.87978" lon="0.14482">
        <ele>2133.78</ele>
        <time>2012-02-11T10:45:14Z</time>
      </trkpt>
      <trkpt lat="42.87978" lon="0.14493">
        <ele>2134.74</ele>
        <time>2012-02-11T10:45:25Z</time>
      </trkpt>
      <trkpt lat="42.87978" lon="0.14497">
        <ele>2134.74</ele>
        <time>2012-02-11T10:45:29Z</time>
      </trkpt>
      <trkpt lat="42.87977" lon="0.14501">
        <ele>2134.74</ele>
        <time>2012-02-11T10:45:32Z</time>
      </trkpt>
      <trkpt lat="42.87979" lon="0.14503">
        <ele>2135.23</ele>
        <time>2012-02-11T10:45:35Z</time>
      </trkpt>
      <trkpt lat="42.87976" lon="0.14511">
        <ele>2134.74</ele>
        <time>2012-02-11T10:45:46Z</time>
      </trkpt>
      <trkpt lat="42.87976" lon="0.14512">
        <ele>2135.23</ele>
        <time>2012-02-11T10:45:47Z</time>
      </trkpt>
      <trkpt lat="42.87976" lon="0.14515">
        <ele>2135.71</ele>
        <time>2012-02-11T10:45:50Z</time>
      </trkpt>
      <trkpt lat="42.87973" lon="0.1452">
        <ele>2135.71</ele>
        <time>2012-02-11T10:46:01Z</time>
      </trkpt>
      <trkpt lat="42.87972" lon="0.14521">
        <ele>2136.19</ele>
        <time>2012-02-11T10:46:03Z</time>
      </trkpt>
      <trkpt lat="42.8797" lon="0.14525">
        <ele>2136.19</ele>
        <time>2012-02-11T10:46:07Z</time>
      </trkpt>
      <trkpt lat="42.87967" lon="0.14532">
        <ele>2136.19</ele>
        <time>2012-02-11T10:46:20Z</time>
      </trkpt>
      <trkpt lat="42.87966" lon="0.14534">
        <ele>2136.19</ele>
        <time>2012-02-11T10:46:36Z</time>
      </trkpt>
      <trkpt lat="42.87964" lon="0.14538">
        <ele>2136.67</ele>
        <time>2012-02-11T10:46:41Z</time>
      </trkpt>
      <trkpt lat="42.87963" lon="0.14542">
        <ele>2136.19</ele>
        <time>2012-02-11T10:46:44Z</time>
      </trkpt>
      <trkpt lat="42.87958" lon="0.14553">
        <ele>2135.71</ele>
        <time>2012-02-11T10:46:55Z</time>
      </trkpt>
      <trkpt lat="42.87957" lon="0.14555">
        <ele>2135.71</ele>
        <time>2012-02-11T10:46:57Z</time>
      </trkpt>
      <trkpt lat="42.87954" lon="0.14562">
        <ele>2135.71</ele>
        <time>2012-02-11T10:47:04Z</time>
      </trkpt>
      <trkpt lat="42.87953" lon="0.14567">
        <ele>2135.71</ele>
        <time>2012-02-11T10:47:08Z</time>
      </trkpt>
      <trkpt lat="42.87949" lon="0.14575">
        <ele>2135.71</ele>
        <time>2012-02-11T10:47:15Z</time>
      </trkpt>
      <trkpt lat="42.87944" lon="0.14586">
        <ele>2135.71</ele>
        <time>2012-02-11T10:47:26Z</time>
      </trkpt>
      <trkpt lat="42.87942" lon="0.14589">
        <ele>2136.67</ele>
        <time>2012-02-11T10:47:29Z</time>
      </trkpt>
      <trkpt lat="42.87941" lon="0.14591">
        <ele>2136.19</ele>
        <time>2012-02-11T10:47:32Z</time>
      </trkpt>
      <trkpt lat="42.8794" lon="0.14597">
        <ele>2136.67</ele>
        <time>2012-02-11T10:47:36Z</time>
      </trkpt>
      <trkpt lat="42.87939" lon="0.146">
        <ele>2136.67</ele>
        <time>2012-02-11T10:47:39Z</time>
      </trkpt>
      <trkpt lat="42.87938" lon="0.14601">
        <ele>2136.19</ele>
        <time>2012-02-11T10:47:41Z</time>
      </trkpt>
      <trkpt lat="42.87937" lon="0.14604">
        <ele>2136.67</ele>
        <time>2012-02-11T10:47:44Z</time>
      </trkpt>
      <trkpt lat="42.87937" lon="0.14608">
        <ele>2137.15</ele>
        <time>2012-02-11T10:47:54Z</time>
      </trkpt>
      <trkpt lat="42.87937" lon="0.14608">
        <ele>2137.15</ele>
        <time>2012-02-11T10:48:01Z</time>
      </trkpt>
      <trkpt lat="42.87934" lon="0.14617">
        <ele>2137.63</ele>
        <time>2012-02-11T10:48:14Z</time>
      </trkpt>
      <trkpt lat="42.87933" lon="0.14625">
        <ele>2137.15</ele>
        <time>2012-02-11T10:48:20Z</time>
      </trkpt>
      <trkpt lat="42.87931" lon="0.1463">
        <ele>2137.15</ele>
        <time>2012-02-11T10:48:25Z</time>
      </trkpt>
      <trkpt lat="42.8793" lon="0.14637">
        <ele>2137.63</ele>
        <time>2012-02-11T10:48:30Z</time>
      </trkpt>
      <trkpt lat="42.87929" lon="0.14641">
        <ele>2137.63</ele>
        <time>2012-02-11T10:48:41Z</time>
      </trkpt>
      <trkpt lat="42.87929" lon="0.14642">
        <ele>2138.11</ele>
        <time>2012-02-11T10:48:42Z</time>
      </trkpt>
      <trkpt lat="42.87929" lon="0.14655">
        <ele>2138.59</ele>
        <time>2012-02-11T10:48:52Z</time>
      </trkpt>
      <trkpt lat="42.8793" lon="0.14657">
        <ele>2138.11</ele>
        <time>2012-02-11T10:49:00Z</time>
      </trkpt>
      <trkpt lat="42.87929" lon="0.14663">
        <ele>2138.59</ele>
        <time>2012-02-11T10:49:05Z</time>
      </trkpt>
      <trkpt lat="42.8793" lon="0.14668">
        <ele>2139.07</ele>
        <time>2012-02-11T10:49:09Z</time>
      </trkpt>
      <trkpt lat="42.8793" lon="0.14675">
        <ele>2139.55</ele>
        <time>2012-02-11T10:49:14Z</time>
      </trkpt>
      <trkpt lat="42.87929" lon="0.14684">
        <ele>2139.55</ele>
        <time>2012-02-11T10:49:22Z</time>
      </trkpt>
      <trkpt lat="42.8793" lon="0.14688">
        <ele>2140.03</ele>
        <time>2012-02-11T10:49:27Z</time>
      </trkpt>
      <trkpt lat="42.87929" lon="0.14693">
        <ele>2140.51</ele>
        <time>2012-02-11T10:49:32Z</time>
      </trkpt>
      <trkpt lat="42.8793" lon="0.14702">
        <ele>2140.99</ele>
        <time>2012-02-11T10:49:40Z</time>
      </trkpt>
      <trkpt lat="42.87931" lon="0.14711">
        <ele>2141.95</ele>
        <time>2012-02-11T10:49:48Z</time>
      </trkpt>
      <trkpt lat="42.87931" lon="0.14717">
        <ele>2143.4</ele>
        <time>2012-02-11T10:49:59Z</time>
      </trkpt>
      <trkpt lat="42.87931" lon="0.14717">
        <ele>2142.92</ele>
        <time>2012-02-11T10:50:20Z</time>
      </trkpt>
      <trkpt lat="42.87931" lon="0.14717">
        <ele>2143.4</ele>
        <time>2012-02-11T10:50:21Z</time>
      </trkpt>
      <trkpt lat="42.8793" lon="0.14729">
        <ele>2144.36</ele>
        <time>2012-02-11T10:50:32Z</time>
      </trkpt>
      <trkpt lat="42.8793" lon="0.14742">
        <ele>2145.8</ele>
        <time>2012-02-11T10:50:43Z</time>
      </trkpt>
      <trkpt lat="42.8793" lon="0.14743">
        <ele>2144.84</ele>
        <time>2012-02-11T10:50:44Z</time>
      </trkpt>
      <trkpt lat="42.8793" lon="0.14754">
        <ele>2145.32</ele>
        <time>2012-02-11T10:50:54Z</time>
      </trkpt>
      <trkpt lat="42.8793" lon="0.14761">
        <ele>2146.28</ele>
        <time>2012-02-11T10:51:01Z</time>
      </trkpt>
      <trkpt lat="42.8793" lon="0.14775">
        <ele>2147.72</ele>
        <time>2012-02-11T10:51:14Z</time>
      </trkpt>
      <trkpt lat="42.8793" lon="0.14779">
        <ele>2147.72</ele>
        <time>2012-02-11T10:51:17Z</time>
      </trkpt>
      <trkpt lat="42.87931" lon="0.14784">
        <ele>2148.68</ele>
        <time>2012-02-11T10:51:30Z</time>
      </trkpt>
      <trkpt lat="42.87929" lon="0.14793">
        <ele>2150.13</ele>
        <time>2012-02-11T10:51:40Z</time>
      </trkpt>
      <trkpt lat="42.87929" lon="0.14799">
        <ele>2151.57</ele>
        <time>2012-02-11T10:51:48Z</time>
      </trkpt>
      <trkpt lat="42.87929" lon="0.14809">
        <ele>2153.49</ele>
        <time>2012-02-11T10:51:59Z</time>
      </trkpt>
      <trkpt lat="42.8793" lon="0.14814">
        <ele>2154.45</ele>
        <time>2012-02-11T10:52:07Z</time>
      </trkpt>
      <trkpt lat="42.87929" lon="0.14823">
        <ele>2155.89</ele>
        <time>2012-02-11T10:52:19Z</time>
      </trkpt>
      <trkpt lat="42.8793" lon="0.14831">
        <ele>2156.86</ele>
        <time>2012-02-11T10:52:29Z</time>
      </trkpt>
      <trkpt lat="42.87931" lon="0.14838">
        <ele>2157.34</ele>
        <time>2012-02-11T10:52:38Z</time>
      </trkpt>
      <trkpt lat="42.87931" lon="0.1484">
        <ele>2157.82</ele>
        <time>2012-02-11T10:52:48Z</time>
      </trkpt>
      <trkpt lat="42.87931" lon="0.14849">
        <ele>2159.26</ele>
        <time>2012-02-11T10:52:57Z</time>
      </trkpt>
      <trkpt lat="42.87931" lon="0.1486">
        <ele>2161.18</ele>
        <time>2012-02-11T10:53:08Z</time>
      </trkpt>
      <trkpt lat="42.8793" lon="0.14868">
        <ele>2161.66</ele>
        <time>2012-02-11T10:53:18Z</time>
      </trkpt>
      <trkpt lat="42.87929" lon="0.14871">
        <ele>2162.14</ele>
        <time>2012-02-11T10:53:29Z</time>
      </trkpt>
      <trkpt lat="42.87929" lon="0.14871">
        <ele>2161.66</ele>
        <time>2012-02-11T10:53:45Z</time>
      </trkpt>
      <trkpt lat="42.87929" lon="0.14871">
        <ele>2161.18</ele>
        <time>2012-02-11T10:54:10Z</time>
      </trkpt>
      <trkpt lat="42.87929" lon="0.14874">
        <ele>2161.66</ele>
        <time>2012-02-11T10:54:27Z</time>
      </trkpt>
      <trkpt lat="42.8793" lon="0.14878">
        <ele>2161.66</ele>
        <time>2012-02-11T10:54:39Z</time>
      </trkpt>
      <trkpt lat="42.87931" lon="0.14882">
        <ele>2162.62</ele>
        <time>2012-02-11T10:54:42Z</time>
      </trkpt>
      <trkpt lat="42.8793" lon="0.14885">
        <ele>2163.1</ele>
        <time>2012-02-11T10:54:45Z</time>
      </trkpt>
      <trkpt lat="42.8793" lon="0.14893">
        <ele>2164.06</ele>
        <time>2012-02-11T10:54:51Z</time>
      </trkpt>
      <trkpt lat="42.87929" lon="0.14895">
        <ele>2165.03</ele>
        <time>2012-02-11T10:54:55Z</time>
      </trkpt>
      <trkpt lat="42.87925" lon="0.14904">
        <ele>2166.95</ele>
        <time>2012-02-11T10:55:04Z</time>
      </trkpt>
      <trkpt lat="42.87924" lon="0.14909">
        <ele>2167.43</ele>
        <time>2012-02-11T10:55:08Z</time>
      </trkpt>
      <trkpt lat="42.87924" lon="0.14913">
        <ele>2168.39</ele>
        <time>2012-02-11T10:55:12Z</time>
      </trkpt>
      <trkpt lat="42.87925" lon="0.14918">
        <ele>2169.35</ele>
        <time>2012-02-11T10:55:17Z</time>
      </trkpt>
      <trkpt lat="42.87926" lon="0.14922">
        <ele>2169.83</ele>
        <time>2012-02-11T10:55:29Z</time>
      </trkpt>
      <trkpt lat="42.87926" lon="0.14929">
        <ele>2170.79</ele>
        <time>2012-02-11T10:55:42Z</time>
      </trkpt>
      <trkpt lat="42.87926" lon="0.14936">
        <ele>2171.76</ele>
        <time>2012-02-11T10:55:50Z</time>
      </trkpt>
      <trkpt lat="42.87926" lon="0.14944">
        <ele>2173.68</ele>
        <time>2012-02-11T10:56:00Z</time>
      </trkpt>
      <trkpt lat="42.87926" lon="0.14951">
        <ele>2174.64</ele>
        <time>2012-02-11T10:56:08Z</time>
      </trkpt>
      <trkpt lat="42.87927" lon="0.14959">
        <ele>2176.08</ele>
        <time>2012-02-11T10:56:18Z</time>
      </trkpt>
      <trkpt lat="42.87926" lon="0.14961">
        <ele>2177.04</ele>
        <time>2012-02-11T10:56:20Z</time>
      </trkpt>
      <trkpt lat="42.87926" lon="0.14965">
        <ele>2178</ele>
        <time>2012-02-11T10:56:27Z</time>
      </trkpt>
      <trkpt lat="42.87924" lon="0.14974">
        <ele>2178.97</ele>
        <time>2012-02-11T10:56:38Z</time>
      </trkpt>
      <trkpt lat="42.87925" lon="0.14984">
        <ele>2180.41</ele>
        <time>2012-02-11T10:56:49Z</time>
      </trkpt>
      <trkpt lat="42.87926" lon="0.14992">
        <ele>2181.85</ele>
        <time>2012-02-11T10:57:00Z</time>
      </trkpt>
      <trkpt lat="42.87927" lon="0.15001">
        <ele>2183.29</ele>
        <time>2012-02-11T10:57:11Z</time>
      </trkpt>
      <trkpt lat="42.87922" lon="0.15009">
        <ele>2184.73</ele>
        <time>2012-02-11T10:57:21Z</time>
      </trkpt>
      <trkpt lat="42.87921" lon="0.15013">
        <ele>2185.21</ele>
        <time>2012-02-11T10:57:26Z</time>
      </trkpt>
      <trkpt lat="42.87918" lon="0.15019">
        <ele>2186.66</ele>
        <time>2012-02-11T10:57:36Z</time>
      </trkpt>
      <trkpt lat="42.87918" lon="0.1502">
        <ele>2186.18</ele>
        <time>2012-02-11T10:57:37Z</time>
      </trkpt>
      <trkpt lat="42.87916" lon="0.15026">
        <ele>2187.14</ele>
        <time>2012-02-11T10:57:44Z</time>
      </trkpt>
      <trkpt lat="42.87917" lon="0.15034">
        <ele>2187.14</ele>
        <time>2012-02-11T10:57:54Z</time>
      </trkpt>
      <trkpt lat="42.87919" lon="0.15041">
        <ele>2188.58</ele>
        <time>2012-02-11T10:58:03Z</time>
      </trkpt>
      <trkpt lat="42.87921" lon="0.15048">
        <ele>2189.54</ele>
        <time>2012-02-11T10:58:14Z</time>
      </trkpt>
      <trkpt lat="42.87923" lon="0.15058">
        <ele>2190.02</ele>
        <time>2012-02-11T10:58:26Z</time>
      </trkpt>
      <trkpt lat="42.87922" lon="0.15064">
        <ele>2190.98</ele>
        <time>2012-02-11T10:58:36Z</time>
      </trkpt>
      <trkpt lat="42.87921" lon="0.1507">
        <ele>2192.42</ele>
        <time>2012-02-11T10:58:45Z</time>
      </trkpt>
      <trkpt lat="42.87915" lon="0.15078">
        <ele>2192.9</ele>
        <time>2012-02-11T10:58:56Z</time>
      </trkpt>
      <trkpt lat="42.8791" lon="0.15085">
        <ele>2194.35</ele>
        <time>2012-02-11T10:59:06Z</time>
      </trkpt>
      <trkpt lat="42.87908" lon="0.15085">
        <ele>2194.83</ele>
        <time>2012-02-11T10:59:11Z</time>
      </trkpt>
      <trkpt lat="42.8791" lon="0.15088">
        <ele>2194.35</ele>
        <time>2012-02-11T10:59:20Z</time>
      </trkpt>
      <trkpt lat="42.87912" lon="0.15095">
        <ele>2195.79</ele>
        <time>2012-02-11T10:59:29Z</time>
      </trkpt>
      <trkpt lat="42.87917" lon="0.15099">
        <ele>2197.71</ele>
        <time>2012-02-11T10:59:42Z</time>
      </trkpt>
      <trkpt lat="42.87917" lon="0.151">
        <ele>2198.67</ele>
        <time>2012-02-11T10:59:52Z</time>
      </trkpt>
      <trkpt lat="42.87919" lon="0.15103">
        <ele>2200.11</ele>
        <time>2012-02-11T11:00:02Z</time>
      </trkpt>
      <trkpt lat="42.87917" lon="0.15107">
        <ele>2200.59</ele>
        <time>2012-02-11T11:00:07Z</time>
      </trkpt>
      <trkpt lat="42.87914" lon="0.15111">
        <ele>2201.56</ele>
        <time>2012-02-11T11:00:19Z</time>
      </trkpt>
      <trkpt lat="42.87913" lon="0.15113">
        <ele>2202.04</ele>
        <time>2012-02-11T11:00:22Z</time>
      </trkpt>
      <trkpt lat="42.8791" lon="0.15119">
        <ele>2203.48</ele>
        <time>2012-02-11T11:00:30Z</time>
      </trkpt>
      <trkpt lat="42.87912" lon="0.15124">
        <ele>2204.44</ele>
        <time>2012-02-11T11:00:40Z</time>
      </trkpt>
      <trkpt lat="42.87913" lon="0.15133">
        <ele>2206.36</ele>
        <time>2012-02-11T11:00:51Z</time>
      </trkpt>
      <trkpt lat="42.87912" lon="0.15136">
        <ele>2206.84</ele>
        <time>2012-02-11T11:01:00Z</time>
      </trkpt>
      <trkpt lat="42.87911" lon="0.15146">
        <ele>2207.32</ele>
        <time>2012-02-11T11:01:11Z</time>
      </trkpt>
      <trkpt lat="42.87911" lon="0.15153">
        <ele>2208.77</ele>
        <time>2012-02-11T11:01:22Z</time>
      </trkpt>
      <trkpt lat="42.87911" lon="0.15161">
        <ele>2209.73</ele>
        <time>2012-02-11T11:01:33Z</time>
      </trkpt>
      <trkpt lat="42.8791" lon="0.15168">
        <ele>2211.65</ele>
        <time>2012-02-11T11:01:43Z</time>
      </trkpt>
      <trkpt lat="42.87909" lon="0.15174">
        <ele>2212.13</ele>
        <time>2012-02-11T11:01:56Z</time>
      </trkpt>
      <trkpt lat="42.87908" lon="0.15176">
        <ele>2213.09</ele>
        <time>2012-02-11T11:02:07Z</time>
      </trkpt>
      <trkpt lat="42.87908" lon="0.15176">
        <ele>2212.61</ele>
        <time>2012-02-11T11:02:08Z</time>
      </trkpt>
      <trkpt lat="42.87907" lon="0.15176">
        <ele>2211.17</ele>
        <time>2012-02-11T11:02:10Z</time>
      </trkpt>
      <trkpt lat="42.87908" lon="0.15176">
        <ele>2212.61</ele>
        <time>2012-02-11T11:02:18Z</time>
      </trkpt>
      <trkpt lat="42.87907" lon="0.15176">
        <ele>2208.77</ele>
        <time>2012-02-11T11:02:29Z</time>
      </trkpt>
      <trkpt lat="42.87907" lon="0.15176">
        <ele>2215.01</ele>
        <time>2012-02-11T11:02:30Z</time>
      </trkpt>
      <trkpt lat="42.87907" lon="0.15176">
        <ele>2213.09</ele>
        <time>2012-02-11T11:02:31Z</time>
      </trkpt>
      <trkpt lat="42.87907" lon="0.15174">
        <ele>2213.09</ele>
        <time>2012-02-11T11:02:39Z</time>
      </trkpt>
      <trkpt lat="42.87906" lon="0.15178">
        <ele>2213.09</ele>
        <time>2012-02-11T11:02:49Z</time>
      </trkpt>
      <trkpt lat="42.87905" lon="0.15187">
        <ele>2213.57</ele>
        <time>2012-02-11T11:02:58Z</time>
      </trkpt>
      <trkpt lat="42.87903" lon="0.15197">
        <ele>2215.5</ele>
        <time>2012-02-11T11:03:09Z</time>
      </trkpt>
      <trkpt lat="42.87902" lon="0.15201">
        <ele>2216.46</ele>
        <time>2012-02-11T11:03:13Z</time>
      </trkpt>
      <trkpt lat="42.87901" lon="0.15211">
        <ele>2216.94</ele>
        <time>2012-02-11T11:03:23Z</time>
      </trkpt>
      <trkpt lat="42.879" lon="0.15219">
        <ele>2217.9</ele>
        <time>2012-02-11T11:03:33Z</time>
      </trkpt>
      <trkpt lat="42.87899" lon="0.15226">
        <ele>2217.9</ele>
        <time>2012-02-11T11:03:45Z</time>
      </trkpt>
      <trkpt lat="42.87899" lon="0.15236">
        <ele>2218.86</ele>
        <time>2012-02-11T11:03:55Z</time>
      </trkpt>
      <trkpt lat="42.87898" lon="0.15241">
        <ele>2218.86</ele>
        <time>2012-02-11T11:04:00Z</time>
      </trkpt>
      <trkpt lat="42.87898" lon="0.15249">
        <ele>2218.86</ele>
        <time>2012-02-11T11:04:08Z</time>
      </trkpt>
      <trkpt lat="42.87899" lon="0.15255">
        <ele>2219.34</ele>
        <time>2012-02-11T11:04:13Z</time>
      </trkpt>
      <trkpt lat="42.87897" lon="0.15261">
        <ele>2220.3</ele>
        <time>2012-02-11T11:04:19Z</time>
      </trkpt>
      <trkpt lat="42.87899" lon="0.15265">
        <ele>2219.82</ele>
        <time>2012-02-11T11:04:23Z</time>
      </trkpt>
      <trkpt lat="42.87899" lon="0.15275">
        <ele>2221.26</ele>
        <time>2012-02-11T11:04:33Z</time>
      </trkpt>
      <trkpt lat="42.87898" lon="0.15277">
        <ele>2221.74</ele>
        <time>2012-02-11T11:04:37Z</time>
      </trkpt>
      <trkpt lat="42.87894" lon="0.15284">
        <ele>2223.19</ele>
        <time>2012-02-11T11:04:48Z</time>
      </trkpt>
      <trkpt lat="42.87894" lon="0.15287">
        <ele>2224.63</ele>
        <time>2012-02-11T11:04:52Z</time>
      </trkpt>
      <trkpt lat="42.87892" lon="0.15293">
        <ele>2226.07</ele>
        <time>2012-02-11T11:05:02Z</time>
      </trkpt>
      <trkpt lat="42.87889" lon="0.15298">
        <ele>2226.55</ele>
        <time>2012-02-11T11:05:12Z</time>
      </trkpt>
      <trkpt lat="42.87886" lon="0.15304">
        <ele>2227.51</ele>
        <time>2012-02-11T11:05:22Z</time>
      </trkpt>
      <trkpt lat="42.87886" lon="0.15304">
        <ele>2227.51</ele>
        <time>2012-02-11T11:05:41Z</time>
      </trkpt>
      <trkpt lat="42.87886" lon="0.15304">
        <ele>2228.47</ele>
        <time>2012-02-11T11:05:57Z</time>
      </trkpt>
      <trkpt lat="42.87884" lon="0.15305">
        <ele>2227.99</ele>
        <time>2012-02-11T11:06:03Z</time>
      </trkpt>
      <trkpt lat="42.8788" lon="0.15311">
        <ele>2228.47</ele>
        <time>2012-02-11T11:06:11Z</time>
      </trkpt>
      <trkpt lat="42.87874" lon="0.15318">
        <ele>2229.43</ele>
        <time>2012-02-11T11:06:21Z</time>
      </trkpt>
      <trkpt lat="42.8787" lon="0.15324">
        <ele>2229.92</ele>
        <time>2012-02-11T11:06:28Z</time>
      </trkpt>
      <trkpt lat="42.87868" lon="0.15333">
        <ele>2229.92</ele>
        <time>2012-02-11T11:06:37Z</time>
      </trkpt>
      <trkpt lat="42.87863" lon="0.15344">
        <ele>2230.88</ele>
        <time>2012-02-11T11:06:51Z</time>
      </trkpt>
      <trkpt lat="42.87863" lon="0.15345">
        <ele>2230.4</ele>
        <time>2012-02-11T11:07:05Z</time>
      </trkpt>
      <trkpt lat="42.87862" lon="0.15346">
        <ele>2230.88</ele>
        <time>2012-02-11T11:07:06Z</time>
      </trkpt>
      <trkpt lat="42.87862" lon="0.15349">
        <ele>2230.88</ele>
        <time>2012-02-11T11:07:09Z</time>
      </trkpt>
      <trkpt lat="42.87861" lon="0.15354">
        <ele>2231.36</ele>
        <time>2012-02-11T11:07:14Z</time>
      </trkpt>
      <trkpt lat="42.87859" lon="0.15363">
        <ele>2232.32</ele>
        <time>2012-02-11T11:07:24Z</time>
      </trkpt>
      <trkpt lat="42.87857" lon="0.15367">
        <ele>2233.76</ele>
        <time>2012-02-11T11:07:36Z</time>
      </trkpt>
      <trkpt lat="42.87857" lon="0.15367">
        <ele>2233.76</ele>
        <time>2012-02-11T11:07:38Z</time>
      </trkpt>
      <trkpt lat="42.87861" lon="0.1537">
        <ele>2234.72</ele>
        <time>2012-02-11T11:07:47Z</time>
      </trkpt>
      <trkpt lat="42.87864" lon="0.15374">
        <ele>2236.64</ele>
        <time>2012-02-11T11:07:56Z</time>
      </trkpt>
      <trkpt lat="42.87864" lon="0.15376">
        <ele>2237.13</ele>
        <time>2012-02-11T11:08:08Z</time>
      </trkpt>
      <trkpt lat="42.87862" lon="0.15378">
        <ele>2238.57</ele>
        <time>2012-02-11T11:08:14Z</time>
      </trkpt>
      <trkpt lat="42.8786" lon="0.15383">
        <ele>2240.49</ele>
        <time>2012-02-11T11:08:23Z</time>
      </trkpt>
      <trkpt lat="42.87862" lon="0.15385">
        <ele>2241.45</ele>
        <time>2012-02-11T11:08:33Z</time>
      </trkpt>
      <trkpt lat="42.87861" lon="0.15388">
        <ele>2241.93</ele>
        <time>2012-02-11T11:08:40Z</time>
      </trkpt>
      <trkpt lat="42.87859" lon="0.15391">
        <ele>2242.41</ele>
        <time>2012-02-11T11:08:43Z</time>
      </trkpt>
      <trkpt lat="42.87856" lon="0.15398">
        <ele>2244.33</ele>
        <time>2012-02-11T11:08:55Z</time>
      </trkpt>
      <trkpt lat="42.87856" lon="0.15399">
        <ele>2243.85</ele>
        <time>2012-02-11T11:09:06Z</time>
      </trkpt>
      <trkpt lat="42.87853" lon="0.15408">
        <ele>2245.78</ele>
        <time>2012-02-11T11:09:18Z</time>
      </trkpt>
      <trkpt lat="42.87851" lon="0.15408">
        <ele>2245.3</ele>
        <time>2012-02-11T11:09:33Z</time>
      </trkpt>
      <trkpt lat="42.87851" lon="0.1541">
        <ele>2244.82</ele>
        <time>2012-02-11T11:09:42Z</time>
      </trkpt>
      <trkpt lat="42.87847" lon="0.15414">
        <ele>2241.93</ele>
        <time>2012-02-11T11:09:54Z</time>
      </trkpt>
      <trkpt lat="42.87843" lon="0.15421">
        <ele>2240.01</ele>
        <time>2012-02-11T11:10:05Z</time>
      </trkpt>
      <trkpt lat="42.87839" lon="0.15425">
        <ele>2237.13</ele>
        <time>2012-02-11T11:10:17Z</time>
      </trkpt>
      <trkpt lat="42.87835" lon="0.15432">
        <ele>2233.76</ele>
        <time>2012-02-11T11:10:31Z</time>
      </trkpt>
      <trkpt lat="42.8783" lon="0.15434">
        <ele>2231.36</ele>
        <time>2012-02-11T11:10:44Z</time>
      </trkpt>
      <trkpt lat="42.87829" lon="0.15438">
        <ele>2230.4</ele>
        <time>2012-02-11T11:10:54Z</time>
      </trkpt>
      <trkpt lat="42.87826" lon="0.15443">
        <ele>2227.51</ele>
        <time>2012-02-11T11:11:05Z</time>
      </trkpt>
      <trkpt lat="42.87821" lon="0.15448">
        <ele>2225.11</ele>
        <time>2012-02-11T11:11:19Z</time>
      </trkpt>
      <trkpt lat="42.87818" lon="0.15455">
        <ele>2222.71</ele>
        <time>2012-02-11T11:11:34Z</time>
      </trkpt>
      <trkpt lat="42.87816" lon="0.1546">
        <ele>2220.3</ele>
        <time>2012-02-11T11:11:47Z</time>
      </trkpt>
      <trkpt lat="42.87815" lon="0.15463">
        <ele>2219.82</ele>
        <time>2012-02-11T11:11:59Z</time>
      </trkpt>
      <trkpt lat="42.87814" lon="0.15463">
        <ele>2219.34</ele>
        <time>2012-02-11T11:12:14Z</time>
      </trkpt>
      <trkpt lat="42.87812" lon="0.15467">
        <ele>2218.38</ele>
        <time>2012-02-11T11:12:26Z</time>
      </trkpt>
      <trkpt lat="42.87808" lon="0.15474">
        <ele>2215.01</ele>
        <time>2012-02-11T11:12:38Z</time>
      </trkpt>
      <trkpt lat="42.87803" lon="0.15479">
        <ele>2212.13</ele>
        <time>2012-02-11T11:12:52Z</time>
      </trkpt>
      <trkpt lat="42.87802" lon="0.1548">
        <ele>2212.13</ele>
        <time>2012-02-11T11:12:53Z</time>
      </trkpt>
      <trkpt lat="42.87796" lon="0.15485">
        <ele>2208.77</ele>
        <time>2012-02-11T11:12:59Z</time>
      </trkpt>
      <trkpt lat="42.87795" lon="0.15485">
        <ele>2208.29</ele>
        <time>2012-02-11T11:13:00Z</time>
      </trkpt>
      <trkpt lat="42.87792" lon="0.15486">
        <ele>2206.36</ele>
        <time>2012-02-11T11:13:03Z</time>
      </trkpt>
      <trkpt lat="42.87789" lon="0.15487">
        <ele>2204.92</ele>
        <time>2012-02-11T11:13:05Z</time>
      </trkpt>
      <trkpt lat="42.87785" lon="0.15489">
        <ele>2202.52</ele>
        <time>2012-02-11T11:13:17Z</time>
      </trkpt>
      <trkpt lat="42.87784" lon="0.1549">
        <ele>2202.52</ele>
        <time>2012-02-11T11:13:21Z</time>
      </trkpt>
      <trkpt lat="42.8778" lon="0.15494">
        <ele>2201.56</ele>
        <time>2012-02-11T11:13:31Z</time>
      </trkpt>
      <trkpt lat="42.87778" lon="0.15495">
        <ele>2201.56</ele>
        <time>2012-02-11T11:13:41Z</time>
      </trkpt>
      <trkpt lat="42.87776" lon="0.15495">
        <ele>2200.59</ele>
        <time>2012-02-11T11:13:52Z</time>
      </trkpt>
      <trkpt lat="42.87776" lon="0.15494">
        <ele>2201.08</ele>
        <time>2012-02-11T11:14:04Z</time>
      </trkpt>
      <trkpt lat="42.87776" lon="0.15495">
        <ele>2201.56</ele>
        <time>2012-02-11T11:14:13Z</time>
      </trkpt>
      <trkpt lat="42.87775" lon="0.15495">
        <ele>2200.59</ele>
        <time>2012-02-11T11:14:21Z</time>
      </trkpt>
      <trkpt lat="42.87775" lon="0.15496">
        <ele>2201.08</ele>
        <time>2012-02-11T11:14:31Z</time>
      </trkpt>
      <trkpt lat="42.87774" lon="0.15495">
        <ele>2201.08</ele>
        <time>2012-02-11T11:14:52Z</time>
      </trkpt>
      <trkpt lat="42.87769" lon="0.15498">
        <ele>2200.59</ele>
        <time>2012-02-11T11:15:00Z</time>
      </trkpt>
      <trkpt lat="42.87765" lon="0.15502">
        <ele>2200.59</ele>
        <time>2012-02-11T11:15:04Z</time>
      </trkpt>
      <trkpt lat="42.87763" lon="0.15506">
        <ele>2201.08</ele>
        <time>2012-02-11T11:15:08Z</time>
      </trkpt>
      <trkpt lat="42.87761" lon="0.1551">
        <ele>2201.08</ele>
        <time>2012-02-11T11:15:12Z</time>
      </trkpt>
      <trkpt lat="42.87758" lon="0.15513">
        <ele>2200.11</ele>
        <time>2012-02-11T11:15:16Z</time>
      </trkpt>
      <trkpt lat="42.8775" lon="0.15524">
        <ele>2200.11</ele>
        <time>2012-02-11T11:15:29Z</time>
      </trkpt>
      <trkpt lat="42.87748" lon="0.15529">
        <ele>2200.59</ele>
        <time>2012-02-11T11:15:38Z</time>
      </trkpt>
      <trkpt lat="42.87748" lon="0.15528">
        <ele>2201.56</ele>
        <time>2012-02-11T11:15:57Z</time>
      </trkpt>
      <trkpt lat="42.87748" lon="0.15528">
        <ele>2201.08</ele>
        <time>2012-02-11T11:15:58Z</time>
      </trkpt>
      <trkpt lat="42.87751" lon="0.15536">
        <ele>2201.08</ele>
        <time>2012-02-11T11:16:11Z</time>
      </trkpt>
      <trkpt lat="42.87751" lon="0.15536">
        <ele>2201.56</ele>
        <time>2012-02-11T11:16:36Z</time>
      </trkpt>
      <trkpt lat="42.87751" lon="0.15537">
        <ele>2201.56</ele>
        <time>2012-02-11T11:16:49Z</time>
      </trkpt>
      <trkpt lat="42.87751" lon="0.15536">
        <ele>2201.56</ele>
        <time>2012-02-11T11:17:02Z</time>
      </trkpt>
      <trkpt lat="42.87751" lon="0.15536">
        <ele>2201.08</ele>
        <time>2012-02-11T11:17:13Z</time>
      </trkpt>
      <trkpt lat="42.87751" lon="0.15536">
        <ele>2202.04</ele>
        <time>2012-02-11T11:17:31Z</time>
      </trkpt>
      <trkpt lat="42.8775" lon="0.15537">
        <ele>2201.56</ele>
        <time>2012-02-11T11:17:45Z</time>
      </trkpt>
      <trkpt lat="42.87752" lon="0.15537">
        <ele>2202.04</ele>
        <time>2012-02-11T11:17:55Z</time>
      </trkpt>
      <trkpt lat="42.8775" lon="0.15537">
        <ele>2202.04</ele>
        <time>2012-02-11T11:18:08Z</time>
      </trkpt>
      <trkpt lat="42.8775" lon="0.15537">
        <ele>2201.08</ele>
        <time>2012-02-11T11:18:34Z</time>
      </trkpt>
      <trkpt lat="42.8775" lon="0.15539">
        <ele>2201.56</ele>
        <time>2012-02-11T11:18:36Z</time>
      </trkpt>
      <trkpt lat="42.87751" lon="0.15543">
        <ele>2201.56</ele>
        <time>2012-02-11T11:18:40Z</time>
      </trkpt>
      <trkpt lat="42.87752" lon="0.1555">
        <ele>2201.08</ele>
        <time>2012-02-11T11:18:53Z</time>
      </trkpt>
      <trkpt lat="42.87754" lon="0.15565">
        <ele>2201.08</ele>
        <time>2012-02-11T11:19:03Z</time>
      </trkpt>
      <trkpt lat="42.87755" lon="0.15577">
        <ele>2201.08</ele>
        <time>2012-02-11T11:19:11Z</time>
      </trkpt>
      <trkpt lat="42.87756" lon="0.1558">
        <ele>2201.56</ele>
        <time>2012-02-11T11:19:14Z</time>
      </trkpt>
      <trkpt lat="42.87756" lon="0.15583">
        <ele>2201.56</ele>
        <time>2012-02-11T11:19:16Z</time>
      </trkpt>
      <trkpt lat="42.87757" lon="0.1559">
        <ele>2201.56</ele>
        <time>2012-02-11T11:19:23Z</time>
      </trkpt>
      <trkpt lat="42.87757" lon="0.15597">
        <ele>2201.08</ele>
        <time>2012-02-11T11:19:38Z</time>
      </trkpt>
      <trkpt lat="42.87758" lon="0.15602">
        <ele>2201.08</ele>
        <time>2012-02-11T11:19:42Z</time>
      </trkpt>
      <trkpt lat="42.87761" lon="0.15614">
        <ele>2200.59</ele>
        <time>2012-02-11T11:19:53Z</time>
      </trkpt>
      <trkpt lat="42.87761" lon="0.15616">
        <ele>2200.59</ele>
        <time>2012-02-11T11:19:55Z</time>
      </trkpt>
      <trkpt lat="42.87763" lon="0.15628">
        <ele>2200.11</ele>
        <time>2012-02-11T11:20:05Z</time>
      </trkpt>
      <trkpt lat="42.87763" lon="0.15631">
        <ele>2200.59</ele>
        <time>2012-02-11T11:20:07Z</time>
      </trkpt>
      <trkpt lat="42.87763" lon="0.15634">
        <ele>2201.08</ele>
        <time>2012-02-11T11:20:10Z</time>
      </trkpt>
      <trkpt lat="42.87763" lon="0.15637">
        <ele>2201.08</ele>
        <time>2012-02-11T11:20:12Z</time>
      </trkpt>
      <trkpt lat="42.87764" lon="0.15639">
        <ele>2200.11</ele>
        <time>2012-02-11T11:20:14Z</time>
      </trkpt>
      <trkpt lat="42.87764" lon="0.15645">
        <ele>2200.11</ele>
        <time>2012-02-11T11:20:19Z</time>
      </trkpt>
      <trkpt lat="42.87765" lon="0.15655">
        <ele>2200.59</ele>
        <time>2012-02-11T11:20:31Z</time>
      </trkpt>
      <trkpt lat="42.87765" lon="0.15655">
        <ele>2200.59</ele>
        <time>2012-02-11T11:20:40Z</time>
      </trkpt>
      <trkpt lat="42.87766" lon="0.15661">
        <ele>2200.59</ele>
        <time>2012-02-11T11:20:44Z</time>
      </trkpt>
      <trkpt lat="42.87767" lon="0.15668">
        <ele>2200.59</ele>
        <time>2012-02-11T11:20:50Z</time>
      </trkpt>
      <trkpt lat="42.87767" lon="0.15671">
        <ele>2200.59</ele>
        <time>2012-02-11T11:20:52Z</time>
      </trkpt>
      <trkpt lat="42.87768" lon="0.15676">
        <ele>2200.59</ele>
        <time>2012-02-11T11:20:56Z</time>
      </trkpt>
      <trkpt lat="42.87769" lon="0.1568">
        <ele>2200.59</ele>
        <time>2012-02-11T11:20:59Z</time>
      </trkpt>
      <trkpt lat="42.87769" lon="0.15683">
        <ele>2200.59</ele>
        <time>2012-02-11T11:21:01Z</time>
      </trkpt>
      <trkpt lat="42.87768" lon="0.15685">
        <ele>2200.11</ele>
        <time>2012-02-11T11:21:03Z</time>
      </trkpt>
      <trkpt lat="42.87769" lon="0.15699">
        <ele>2200.11</ele>
        <time>2012-02-11T11:21:15Z</time>
      </trkpt>
      <trkpt lat="42.87769" lon="0.15702">
        <ele>2200.11</ele>
        <time>2012-02-11T11:21:17Z</time>
      </trkpt>
      <trkpt lat="42.87769" lon="0.15706">
        <ele>2200.11</ele>
        <time>2012-02-11T11:21:20Z</time>
      </trkpt>
      <trkpt lat="42.8777" lon="0.15715">
        <ele>2200.11</ele>
        <time>2012-02-11T11:21:27Z</time>
      </trkpt>
      <trkpt lat="42.87771" lon="0.15723">
        <ele>2200.11</ele>
        <time>2012-02-11T11:21:34Z</time>
      </trkpt>
      <trkpt lat="42.87772" lon="0.15726">
        <ele>2200.11</ele>
        <time>2012-02-11T11:21:36Z</time>
      </trkpt>
      <trkpt lat="42.87772" lon="0.15736">
        <ele>2200.11</ele>
        <time>2012-02-11T11:21:45Z</time>
      </trkpt>
      <trkpt lat="42.87771" lon="0.1575">
        <ele>2199.63</ele>
        <time>2012-02-11T11:21:56Z</time>
      </trkpt>
      <trkpt lat="42.8777" lon="0.1576">
        <ele>2199.15</ele>
        <time>2012-02-11T11:22:05Z</time>
      </trkpt>
      <trkpt lat="42.87771" lon="0.15772">
        <ele>2199.15</ele>
        <time>2012-02-11T11:22:15Z</time>
      </trkpt>
      <trkpt lat="42.87771" lon="0.15782">
        <ele>2199.15</ele>
        <time>2012-02-11T11:22:25Z</time>
      </trkpt>
      <trkpt lat="42.87768" lon="0.1579">
        <ele>2199.63</ele>
        <time>2012-02-11T11:22:36Z</time>
      </trkpt>
      <trkpt lat="42.87766" lon="0.15802">
        <ele>2201.08</ele>
        <time>2012-02-11T11:22:47Z</time>
      </trkpt>
      <trkpt lat="42.87766" lon="0.15805">
        <ele>2201.08</ele>
        <time>2012-02-11T11:22:49Z</time>
      </trkpt>
      <trkpt lat="42.87765" lon="0.15809">
        <ele>2201.08</ele>
        <time>2012-02-11T11:22:53Z</time>
      </trkpt>
      <trkpt lat="42.87765" lon="0.15817">
        <ele>2201.56</ele>
        <time>2012-02-11T11:22:59Z</time>
      </trkpt>
      <trkpt lat="42.87765" lon="0.1582">
        <ele>2201.56</ele>
        <time>2012-02-11T11:23:02Z</time>
      </trkpt>
      <trkpt lat="42.87765" lon="0.15827">
        <ele>2202.52</ele>
        <time>2012-02-11T11:23:09Z</time>
      </trkpt>
      <trkpt lat="42.87765" lon="0.15832">
        <ele>2203</ele>
        <time>2012-02-11T11:23:21Z</time>
      </trkpt>
      <trkpt lat="42.87764" lon="0.15839">
        <ele>2203.96</ele>
        <time>2012-02-11T11:23:30Z</time>
      </trkpt>
      <trkpt lat="42.87764" lon="0.15844">
        <ele>2204.44</ele>
        <time>2012-02-11T11:23:35Z</time>
      </trkpt>
      <trkpt lat="42.87761" lon="0.15851">
        <ele>2206.36</ele>
        <time>2012-02-11T11:23:45Z</time>
      </trkpt>
      <trkpt lat="42.8776" lon="0.15859">
        <ele>2207.32</ele>
        <time>2012-02-11T11:23:53Z</time>
      </trkpt>
      <trkpt lat="42.8776" lon="0.15863">
        <ele>2206.84</ele>
        <time>2012-02-11T11:23:57Z</time>
      </trkpt>
      <trkpt lat="42.8776" lon="0.15867">
        <ele>2207.32</ele>
        <time>2012-02-11T11:24:01Z</time>
      </trkpt>
      <trkpt lat="42.87759" lon="0.15871">
        <ele>2208.29</ele>
        <time>2012-02-11T11:24:05Z</time>
      </trkpt>
      <trkpt lat="42.8776" lon="0.15878">
        <ele>2208.77</ele>
        <time>2012-02-11T11:24:12Z</time>
      </trkpt>
      <trkpt lat="42.87761" lon="0.15889">
        <ele>2209.25</ele>
        <time>2012-02-11T11:24:22Z</time>
      </trkpt>
      <trkpt lat="42.87761" lon="0.15892">
        <ele>2209.73</ele>
        <time>2012-02-11T11:24:25Z</time>
      </trkpt>
      <trkpt lat="42.87761" lon="0.15903">
        <ele>2210.69</ele>
        <time>2012-02-11T11:24:35Z</time>
      </trkpt>
      <trkpt lat="42.8776" lon="0.15913">
        <ele>2210.69</ele>
        <time>2012-02-11T11:24:45Z</time>
      </trkpt>
      <trkpt lat="42.8776" lon="0.15921">
        <ele>2211.65</ele>
        <time>2012-02-11T11:24:52Z</time>
      </trkpt>
      <trkpt lat="42.8776" lon="0.15927">
        <ele>2211.65</ele>
        <time>2012-02-11T11:24:58Z</time>
      </trkpt>
      <trkpt lat="42.8776" lon="0.15931">
        <ele>2212.13</ele>
        <time>2012-02-11T11:25:01Z</time>
      </trkpt>
      <trkpt lat="42.8776" lon="0.15934">
        <ele>2212.13</ele>
        <time>2012-02-11T11:25:04Z</time>
      </trkpt>
      <trkpt lat="42.87759" lon="0.15945">
        <ele>2212.13</ele>
        <time>2012-02-11T11:25:15Z</time>
      </trkpt>
      <trkpt lat="42.87757" lon="0.15952">
        <ele>2213.09</ele>
        <time>2012-02-11T11:25:21Z</time>
      </trkpt>
      <trkpt lat="42.87757" lon="0.15956">
        <ele>2213.57</ele>
        <time>2012-02-11T11:25:25Z</time>
      </trkpt>
      <trkpt lat="42.87756" lon="0.15961">
        <ele>2213.09</ele>
        <time>2012-02-11T11:25:29Z</time>
      </trkpt>
      <trkpt lat="42.87756" lon="0.15965">
        <ele>2214.05</ele>
        <time>2012-02-11T11:25:32Z</time>
      </trkpt>
      <trkpt lat="42.87757" lon="0.15968">
        <ele>2214.05</ele>
        <time>2012-02-11T11:25:40Z</time>
      </trkpt>
      <trkpt lat="42.87756" lon="0.15972">
        <ele>2214.53</ele>
        <time>2012-02-11T11:25:44Z</time>
      </trkpt>
      <trkpt lat="42.87756" lon="0.15977">
        <ele>2215.01</ele>
        <time>2012-02-11T11:25:48Z</time>
      </trkpt>
      <trkpt lat="42.87755" lon="0.15982">
        <ele>2215.01</ele>
        <time>2012-02-11T11:25:53Z</time>
      </trkpt>
      <trkpt lat="42.87754" lon="0.15988">
        <ele>2215.98</ele>
        <time>2012-02-11T11:26:06Z</time>
      </trkpt>
      <trkpt lat="42.87754" lon="0.15988">
        <ele>2215.98</ele>
        <time>2012-02-11T11:26:07Z</time>
      </trkpt>
      <trkpt lat="42.87755" lon="0.15993">
        <ele>2215.98</ele>
        <time>2012-02-11T11:26:11Z</time>
      </trkpt>
      <trkpt lat="42.87755" lon="0.15997">
        <ele>2216.46</ele>
        <time>2012-02-11T11:26:14Z</time>
      </trkpt>
      <trkpt lat="42.87756" lon="0.16005">
        <ele>2217.9</ele>
        <time>2012-02-11T11:26:22Z</time>
      </trkpt>
      <trkpt lat="42.87756" lon="0.16008">
        <ele>2218.38</ele>
        <time>2012-02-11T11:26:25Z</time>
      </trkpt>
      <trkpt lat="42.87755" lon="0.16013">
        <ele>2218.38</ele>
        <time>2012-02-11T11:26:29Z</time>
      </trkpt>
      <trkpt lat="42.87754" lon="0.16017">
        <ele>2219.34</ele>
        <time>2012-02-11T11:26:33Z</time>
      </trkpt>
      <trkpt lat="42.87754" lon="0.16026">
        <ele>2220.78</ele>
        <time>2012-02-11T11:26:41Z</time>
      </trkpt>
      <trkpt lat="42.87755" lon="0.16035">
        <ele>2222.22</ele>
        <time>2012-02-11T11:26:50Z</time>
      </trkpt>
      <trkpt lat="42.87754" lon="0.16046">
        <ele>2223.67</ele>
        <time>2012-02-11T11:27:01Z</time>
      </trkpt>
      <trkpt lat="42.87755" lon="0.16054">
        <ele>2224.63</ele>
        <time>2012-02-11T11:27:13Z</time>
      </trkpt>
      <trkpt lat="42.87756" lon="0.16062">
        <ele>2225.59</ele>
        <time>2012-02-11T11:27:21Z</time>
      </trkpt>
      <trkpt lat="42.87757" lon="0.16068">
        <ele>2227.51</ele>
        <time>2012-02-11T11:27:28Z</time>
      </trkpt>
      <trkpt lat="42.87758" lon="0.16073">
        <ele>2227.03</ele>
        <time>2012-02-11T11:27:33Z</time>
      </trkpt>
      <trkpt lat="42.87756" lon="0.1608">
        <ele>2228.47</ele>
        <time>2012-02-11T11:27:45Z</time>
      </trkpt>
      <trkpt lat="42.87755" lon="0.16083">
        <ele>2228.47</ele>
        <time>2012-02-11T11:27:49Z</time>
      </trkpt>
      <trkpt lat="42.87754" lon="0.16087">
        <ele>2228.95</ele>
        <time>2012-02-11T11:27:52Z</time>
      </trkpt>
      <trkpt lat="42.87752" lon="0.16093">
        <ele>2228.95</ele>
        <time>2012-02-11T11:27:58Z</time>
      </trkpt>
      <trkpt lat="42.87752" lon="0.16097">
        <ele>2229.43</ele>
        <time>2012-02-11T11:28:02Z</time>
      </trkpt>
      <trkpt lat="42.8775" lon="0.1611">
        <ele>2229.43</ele>
        <time>2012-02-11T11:28:14Z</time>
      </trkpt>
      <trkpt lat="42.87749" lon="0.16116">
        <ele>2229.43</ele>
        <time>2012-02-11T11:28:20Z</time>
      </trkpt>
      <trkpt lat="42.87747" lon="0.16125">
        <ele>2229.43</ele>
        <time>2012-02-11T11:28:31Z</time>
      </trkpt>
      <trkpt lat="42.87746" lon="0.1613">
        <ele>2229.43</ele>
        <time>2012-02-11T11:28:49Z</time>
      </trkpt>
      <trkpt lat="42.87746" lon="0.16134">
        <ele>2228.95</ele>
        <time>2012-02-11T11:28:51Z</time>
      </trkpt>
      <trkpt lat="42.87742" lon="0.1615">
        <ele>2228.47</ele>
        <time>2012-02-11T11:29:05Z</time>
      </trkpt>
      <trkpt lat="42.87741" lon="0.16162">
        <ele>2229.92</ele>
        <time>2012-02-11T11:29:15Z</time>
      </trkpt>
      <trkpt lat="42.87739" lon="0.16173">
        <ele>2231.84</ele>
        <time>2012-02-11T11:29:25Z</time>
      </trkpt>
      <trkpt lat="42.87738" lon="0.16178">
        <ele>2232.8</ele>
        <time>2012-02-11T11:29:31Z</time>
      </trkpt>
      <trkpt lat="42.87738" lon="0.16187">
        <ele>2234.24</ele>
        <time>2012-02-11T11:29:41Z</time>
      </trkpt>
      <trkpt lat="42.87735" lon="0.16193">
        <ele>2234.72</ele>
        <time>2012-02-11T11:29:54Z</time>
      </trkpt>
      <trkpt lat="42.87735" lon="0.16196">
        <ele>2236.16</ele>
        <time>2012-02-11T11:29:58Z</time>
      </trkpt>
      <trkpt lat="42.87735" lon="0.16204">
        <ele>2237.13</ele>
        <time>2012-02-11T11:30:07Z</time>
      </trkpt>
      <trkpt lat="42.87735" lon="0.16208">
        <ele>2237.61</ele>
        <time>2012-02-11T11:30:12Z</time>
      </trkpt>
      <trkpt lat="42.87734" lon="0.16214">
        <ele>2238.57</ele>
        <time>2012-02-11T11:30:19Z</time>
      </trkpt>
      <trkpt lat="42.87733" lon="0.16219">
        <ele>2240.01</ele>
        <time>2012-02-11T11:30:25Z</time>
      </trkpt>
      <trkpt lat="42.87731" lon="0.16227">
        <ele>2240.97</ele>
        <time>2012-02-11T11:30:37Z</time>
      </trkpt>
      <trkpt lat="42.87731" lon="0.16233">
        <ele>2242.41</ele>
        <time>2012-02-11T11:30:54Z</time>
      </trkpt>
      <trkpt lat="42.87729" lon="0.16235">
        <ele>2241.93</ele>
        <time>2012-02-11T11:30:57Z</time>
      </trkpt>
      <trkpt lat="42.87728" lon="0.16242">
        <ele>2243.85</ele>
        <time>2012-02-11T11:31:05Z</time>
      </trkpt>
      <trkpt lat="42.87725" lon="0.1625">
        <ele>2246.26</ele>
        <time>2012-02-11T11:31:16Z</time>
      </trkpt>
      <trkpt lat="42.87724" lon="0.16257">
        <ele>2246.26</ele>
        <time>2012-02-11T11:31:25Z</time>
      </trkpt>
      <trkpt lat="42.87722" lon="0.16265">
        <ele>2248.66</ele>
        <time>2012-02-11T11:31:37Z</time>
      </trkpt>
      <trkpt lat="42.8772" lon="0.1627">
        <ele>2249.14</ele>
        <time>2012-02-11T11:31:45Z</time>
      </trkpt>
      <trkpt lat="42.87718" lon="0.16279">
        <ele>2250.58</ele>
        <time>2012-02-11T11:31:56Z</time>
      </trkpt>
      <trkpt lat="42.87716" lon="0.16283">
        <ele>2251.54</ele>
        <time>2012-02-11T11:32:04Z</time>
      </trkpt>
      <trkpt lat="42.87713" lon="0.16287">
        <ele>2253.47</ele>
        <time>2012-02-11T11:32:14Z</time>
      </trkpt>
      <trkpt lat="42.8771" lon="0.16294">
        <ele>2255.39</ele>
        <time>2012-02-11T11:32:25Z</time>
      </trkpt>
      <trkpt lat="42.87708" lon="0.16298">
        <ele>2256.83</ele>
        <time>2012-02-11T11:32:34Z</time>
      </trkpt>
      <trkpt lat="42.87707" lon="0.16301">
        <ele>2257.79</ele>
        <time>2012-02-11T11:32:40Z</time>
      </trkpt>
      <trkpt lat="42.87706" lon="0.16308">
        <ele>2258.75</ele>
        <time>2012-02-11T11:32:49Z</time>
      </trkpt>
      <trkpt lat="42.87704" lon="0.16314">
        <ele>2260.2</ele>
        <time>2012-02-11T11:32:59Z</time>
      </trkpt>
      <trkpt lat="42.87704" lon="0.16316">
        <ele>2260.68</ele>
        <time>2012-02-11T11:33:01Z</time>
      </trkpt>
      <trkpt lat="42.87704" lon="0.16323">
        <ele>2262.12</ele>
        <time>2012-02-11T11:33:10Z</time>
      </trkpt>
      <trkpt lat="42.87705" lon="0.16326">
        <ele>2262.12</ele>
        <time>2012-02-11T11:33:14Z</time>
      </trkpt>
      <trkpt lat="42.87706" lon="0.16335">
        <ele>2263.56</ele>
        <time>2012-02-11T11:33:24Z</time>
      </trkpt>
      <trkpt lat="42.87706" lon="0.16341">
        <ele>2264.52</ele>
        <time>2012-02-11T11:33:35Z</time>
      </trkpt>
      <trkpt lat="42.87705" lon="0.16348">
        <ele>2265</ele>
        <time>2012-02-11T11:33:43Z</time>
      </trkpt>
      <trkpt lat="42.87704" lon="0.16358">
        <ele>2265.48</ele>
        <time>2012-02-11T11:33:54Z</time>
      </trkpt>
      <trkpt lat="42.877" lon="0.16364">
        <ele>2265.48</ele>
        <time>2012-02-11T11:34:04Z</time>
      </trkpt>
      <trkpt lat="42.877" lon="0.16364">
        <ele>2265.96</ele>
        <time>2012-02-11T11:34:20Z</time>
      </trkpt>
      <trkpt lat="42.877" lon="0.16364">
        <ele>2265.48</ele>
        <time>2012-02-11T11:34:38Z</time>
      </trkpt>
      <trkpt lat="42.877" lon="0.16364">
        <ele>2265.48</ele>
        <time>2012-02-11T11:34:54Z</time>
      </trkpt>
      <trkpt lat="42.877" lon="0.16364">
        <ele>2265</ele>
        <time>2012-02-11T11:35:13Z</time>
      </trkpt>
      <trkpt lat="42.877" lon="0.16364">
        <ele>2264.52</ele>
        <time>2012-02-11T11:35:43Z</time>
      </trkpt>
      <trkpt lat="42.877" lon="0.16364">
        <ele>2267.89</ele>
        <time>2012-02-11T11:35:50Z</time>
      </trkpt>
      <trkpt lat="42.877" lon="0.16364">
        <ele>2264.52</ele>
        <time>2012-02-11T11:35:52Z</time>
      </trkpt>
      <trkpt lat="42.877" lon="0.16364">
        <ele>2250.58</ele>
        <time>2012-02-11T11:35:58Z</time>
      </trkpt>
      <trkpt lat="42.877" lon="0.16364">
        <ele>2266.93</ele>
        <time>2012-02-11T11:35:59Z</time>
      </trkpt>
      <trkpt lat="42.877" lon="0.16364">
        <ele>2266.93</ele>
        <time>2012-02-11T11:36:00Z</time>
      </trkpt>
      <trkpt lat="42.877" lon="0.16364">
        <ele>2265</ele>
        <time>2012-02-11T11:36:03Z</time>
      </trkpt>
      <trkpt lat="42.877" lon="0.16364">
        <ele>2264.52</ele>
        <time>2012-02-11T11:36:38Z</time>
      </trkpt>
      <trkpt lat="42.87701" lon="0.16364">
        <ele>2265</ele>
        <time>2012-02-11T11:37:12Z</time>
      </trkpt>
      <trkpt lat="42.87701" lon="0.16363">
        <ele>2264.52</ele>
        <time>2012-02-11T11:37:50Z</time>
      </trkpt>
      <trkpt lat="42.877" lon="0.16364">
        <ele>2264.04</ele>
        <time>2012-02-11T11:38:25Z</time>
      </trkpt>
      <trkpt lat="42.877" lon="0.16364">
        <ele>2265</ele>
        <time>2012-02-11T11:38:58Z</time>
      </trkpt>
      <trkpt lat="42.877" lon="0.16364">
        <ele>2264.52</ele>
        <time>2012-02-11T11:39:31Z</time>
      </trkpt>
      <trkpt lat="42.87701" lon="0.16364">
        <ele>2264.04</ele>
        <time>2012-02-11T11:40:01Z</time>
      </trkpt>
      <trkpt lat="42.87701" lon="0.16364">
        <ele>2259.24</ele>
        <time>2012-02-11T11:40:02Z</time>
      </trkpt>
      <trkpt lat="42.87701" lon="0.16364">
        <ele>2265</ele>
        <time>2012-02-11T11:40:03Z</time>
      </trkpt>
      <trkpt lat="42.87701" lon="0.16364">
        <ele>2263.56</ele>
        <time>2012-02-11T11:40:28Z</time>
      </trkpt>
      <trkpt lat="42.87701" lon="0.16364">
        <ele>2263.08</ele>
        <time>2012-02-11T11:40:53Z</time>
      </trkpt>
      <trkpt lat="42.87701" lon="0.16364">
        <ele>2263.56</ele>
        <time>2012-02-11T11:41:20Z</time>
      </trkpt>
      <trkpt lat="42.87701" lon="0.16364">
        <ele>2265</ele>
        <time>2012-02-11T11:41:24Z</time>
      </trkpt>
      <trkpt lat="42.87701" lon="0.16364">
        <ele>2264.52</ele>
        <time>2012-02-11T11:41:31Z</time>
      </trkpt>
      <trkpt lat="42.87701" lon="0.16363">
        <ele>2264.52</ele>
        <time>2012-02-11T11:41:46Z</time>
      </trkpt>
      <trkpt lat="42.87701" lon="0.16364">
        <ele>2264.04</ele>
        <time>2012-02-11T11:42:07Z</time>
      </trkpt>
      <trkpt lat="42.87701" lon="0.16364">
        <ele>2263.56</ele>
        <time>2012-02-11T11:42:19Z</time>
      </trkpt>
      <trkpt lat="42.877" lon="0.16363">
        <ele>2264.52</ele>
        <time>2012-02-11T11:42:30Z</time>
      </trkpt>
      <trkpt lat="42.877" lon="0.16363">
        <ele>2264.52</ele>
        <time>2012-02-11T11:42:54Z</time>
      </trkpt>
      <trkpt lat="42.877" lon="0.16364">
        <ele>2265</ele>
        <time>2012-02-11T11:43:08Z</time>
      </trkpt>
      <trkpt lat="42.877" lon="0.16364">
        <ele>2264.52</ele>
        <time>2012-02-11T11:43:35Z</time>
      </trkpt>
      <trkpt lat="42.877" lon="0.16364">
        <ele>2264.52</ele>
        <time>2012-02-11T11:44:00Z</time>
      </trkpt>
      <trkpt lat="42.87701" lon="0.16365">
        <ele>2264.52</ele>
        <time>2012-02-11T11:44:16Z</time>
      </trkpt>
      <trkpt lat="42.87701" lon="0.16365">
        <ele>2264.52</ele>
        <time>2012-02-11T11:44:40Z</time>
      </trkpt>
      <trkpt lat="42.877" lon="0.16365">
        <ele>2264.04</ele>
        <time>2012-02-11T11:45:00Z</time>
      </trkpt>
      <trkpt lat="42.877" lon="0.16365">
        <ele>2265</ele>
        <time>2012-02-11T11:45:14Z</time>
      </trkpt>
      <trkpt lat="42.877" lon="0.16364">
        <ele>2265</ele>
        <time>2012-02-11T11:45:32Z</time>
      </trkpt>
      <trkpt lat="42.877" lon="0.16364">
        <ele>2265</ele>
        <time>2012-02-11T11:45:57Z</time>
      </trkpt>
      <trkpt lat="42.87701" lon="0.16364">
        <ele>2264.52</ele>
        <time>2012-02-11T11:46:23Z</time>
      </trkpt>
      <trkpt lat="42.87701" lon="0.16365">
        <ele>2265</ele>
        <time>2012-02-11T11:46:37Z</time>
      </trkpt>
      <trkpt lat="42.87701" lon="0.16366">
        <ele>2264.52</ele>
        <time>2012-02-11T11:46:58Z</time>
      </trkpt>
      <trkpt lat="42.87702" lon="0.16365">
        <ele>2264.52</ele>
        <time>2012-02-11T11:47:17Z</time>
      </trkpt>
      <trkpt lat="42.87701" lon="0.16365">
        <ele>2265.96</ele>
        <time>2012-02-11T11:47:29Z</time>
      </trkpt>
      <trkpt lat="42.87702" lon="0.16365">
        <ele>2265.48</ele>
        <time>2012-02-11T11:47:39Z</time>
      </trkpt>
      <trkpt lat="42.87702" lon="0.16365">
        <ele>2264.52</ele>
        <time>2012-02-11T11:48:02Z</time>
      </trkpt>
      <trkpt lat="42.87702" lon="0.16367">
        <ele>2264.52</ele>
        <time>2012-02-11T11:48:14Z</time>
      </trkpt>
      <trkpt lat="42.87702" lon="0.16369">
        <ele>2264.52</ele>
        <time>2012-02-11T11:48:23Z</time>
      </trkpt>
      <trkpt lat="42.87701" lon="0.16372">
        <ele>2264.52</ele>
        <time>2012-02-11T11:48:26Z</time>
      </trkpt>
      <trkpt lat="42.877" lon="0.16375">
        <ele>2264.52</ele>
        <time>2012-02-11T11:48:28Z</time>
      </trkpt>
      <trkpt lat="42.877" lon="0.16381">
        <ele>2265</ele>
        <time>2012-02-11T11:48:34Z</time>
      </trkpt>
      <trkpt lat="42.87699" lon="0.16384">
        <ele>2265</ele>
        <time>2012-02-11T11:48:37Z</time>
      </trkpt>
      <trkpt lat="42.877" lon="0.16392">
        <ele>2265.48</ele>
        <time>2012-02-11T11:48:44Z</time>
      </trkpt>
      <trkpt lat="42.877" lon="0.16395">
        <ele>2265.96</ele>
        <time>2012-02-11T11:48:55Z</time>
      </trkpt>
      <trkpt lat="42.877" lon="0.16395">
        <ele>2265.48</ele>
        <time>2012-02-11T11:49:05Z</time>
      </trkpt>
      <trkpt lat="42.877" lon="0.16398">
        <ele>2265.48</ele>
        <time>2012-02-11T11:49:07Z</time>
      </trkpt>
      <trkpt lat="42.877" lon="0.16404">
        <ele>2265.48</ele>
        <time>2012-02-11T11:49:12Z</time>
      </trkpt>
      <trkpt lat="42.87699" lon="0.16422">
        <ele>2265</ele>
        <time>2012-02-11T11:49:24Z</time>
      </trkpt>
      <trkpt lat="42.877" lon="0.16425">
        <ele>2265.48</ele>
        <time>2012-02-11T11:49:26Z</time>
      </trkpt>
      <trkpt lat="42.87701" lon="0.16429">
        <ele>2265.48</ele>
        <time>2012-02-11T11:49:29Z</time>
      </trkpt>
      <trkpt lat="42.87701" lon="0.16438">
        <ele>2266.45</ele>
        <time>2012-02-11T11:49:36Z</time>
      </trkpt>
      <trkpt lat="42.87702" lon="0.16441">
        <ele>2265.96</ele>
        <time>2012-02-11T11:49:38Z</time>
      </trkpt>
      <trkpt lat="42.87701" lon="0.16445">
        <ele>2266.45</ele>
        <time>2012-02-11T11:49:46Z</time>
      </trkpt>
      <trkpt lat="42.877" lon="0.16448">
        <ele>2265.96</ele>
        <time>2012-02-11T11:49:48Z</time>
      </trkpt>
      <trkpt lat="42.877" lon="0.16455">
        <ele>2266.45</ele>
        <time>2012-02-11T11:49:53Z</time>
      </trkpt>
      <trkpt lat="42.87699" lon="0.16459">
        <ele>2266.45</ele>
        <time>2012-02-11T11:49:56Z</time>
      </trkpt>
      <trkpt lat="42.87698" lon="0.16463">
        <ele>2266.93</ele>
        <time>2012-02-11T11:49:59Z</time>
      </trkpt>
      <trkpt lat="42.87699" lon="0.16465">
        <ele>2266.45</ele>
        <time>2012-02-11T11:50:01Z</time>
      </trkpt>
      <trkpt lat="42.87696" lon="0.16471">
        <ele>2266.93</ele>
        <time>2012-02-11T11:50:07Z</time>
      </trkpt>
      <trkpt lat="42.87695" lon="0.16476">
        <ele>2267.41</ele>
        <time>2012-02-11T11:50:11Z</time>
      </trkpt>
      <trkpt lat="42.87695" lon="0.16479">
        <ele>2267.41</ele>
        <time>2012-02-11T11:50:13Z</time>
      </trkpt>
      <trkpt lat="42.87695" lon="0.16481">
        <ele>2267.89</ele>
        <time>2012-02-11T11:50:15Z</time>
      </trkpt>
      <trkpt lat="42.87694" lon="0.16493">
        <ele>2268.37</ele>
        <time>2012-02-11T11:50:23Z</time>
      </trkpt>
      <trkpt lat="42.87693" lon="0.16503">
        <ele>2268.85</ele>
        <time>2012-02-11T11:50:32Z</time>
      </trkpt>
      <trkpt lat="42.87692" lon="0.16507">
        <ele>2269.81</ele>
        <time>2012-02-11T11:50:36Z</time>
      </trkpt>
      <trkpt lat="42.8769" lon="0.16509">
        <ele>2269.81</ele>
        <time>2012-02-11T11:50:48Z</time>
      </trkpt>
      <trkpt lat="42.8769" lon="0.1651">
        <ele>2268.37</ele>
        <time>2012-02-11T11:51:02Z</time>
      </trkpt>
      <trkpt lat="42.87689" lon="0.16514">
        <ele>2268.85</ele>
        <time>2012-02-11T11:51:05Z</time>
      </trkpt>
      <trkpt lat="42.87688" lon="0.16516">
        <ele>2268.85</ele>
        <time>2012-02-11T11:51:07Z</time>
      </trkpt>
      <trkpt lat="42.87685" lon="0.16526">
        <ele>2269.81</ele>
        <time>2012-02-11T11:51:14Z</time>
      </trkpt>
      <trkpt lat="42.87685" lon="0.16538">
        <ele>2270.77</ele>
        <time>2012-02-11T11:51:24Z</time>
      </trkpt>
      <trkpt lat="42.87684" lon="0.16542">
        <ele>2270.77</ele>
        <time>2012-02-11T11:51:27Z</time>
      </trkpt>
      <trkpt lat="42.87684" lon="0.16545">
        <ele>2270.77</ele>
        <time>2012-02-11T11:51:34Z</time>
      </trkpt>
      <trkpt lat="42.87683" lon="0.16553">
        <ele>2272.21</ele>
        <time>2012-02-11T11:51:42Z</time>
      </trkpt>
      <trkpt lat="42.87683" lon="0.16556">
        <ele>2272.21</ele>
        <time>2012-02-11T11:51:45Z</time>
      </trkpt>
      <trkpt lat="42.87683" lon="0.16563">
        <ele>2272.69</ele>
        <time>2012-02-11T11:51:54Z</time>
      </trkpt>
      <trkpt lat="42.87683" lon="0.16565">
        <ele>2273.17</ele>
        <time>2012-02-11T11:51:59Z</time>
      </trkpt>
      <trkpt lat="42.87681" lon="0.16574">
        <ele>2274.14</ele>
        <time>2012-02-11T11:52:09Z</time>
      </trkpt>
      <trkpt lat="42.87679" lon="0.16583">
        <ele>2275.58</ele>
        <time>2012-02-11T11:52:19Z</time>
      </trkpt>
      <trkpt lat="42.87678" lon="0.16583">
        <ele>2275.58</ele>
        <time>2012-02-11T11:52:30Z</time>
      </trkpt>
      <trkpt lat="42.87677" lon="0.16591">
        <ele>2276.06</ele>
        <time>2012-02-11T11:52:40Z</time>
      </trkpt>
      <trkpt lat="42.87672" lon="0.16596">
        <ele>2277.5</ele>
        <time>2012-02-11T11:52:50Z</time>
      </trkpt>
      <trkpt lat="42.87673" lon="0.166">
        <ele>2277.5</ele>
        <time>2012-02-11T11:52:54Z</time>
      </trkpt>
      <trkpt lat="42.87674" lon="0.1661">
        <ele>2278.94</ele>
        <time>2012-02-11T11:53:05Z</time>
      </trkpt>
      <trkpt lat="42.87673" lon="0.16619">
        <ele>2280.38</ele>
        <time>2012-02-11T11:53:12Z</time>
      </trkpt>
      <trkpt lat="42.87675" lon="0.16622">
        <ele>2280.38</ele>
        <time>2012-02-11T11:53:15Z</time>
      </trkpt>
      <trkpt lat="42.87677" lon="0.16625">
        <ele>2281.35</ele>
        <time>2012-02-11T11:53:19Z</time>
      </trkpt>
      <trkpt lat="42.87675" lon="0.16632">
        <ele>2282.31</ele>
        <time>2012-02-11T11:53:29Z</time>
      </trkpt>
      <trkpt lat="42.87672" lon="0.16638">
        <ele>2283.27</ele>
        <time>2012-02-11T11:53:47Z</time>
      </trkpt>
      <trkpt lat="42.87672" lon="0.16645">
        <ele>2284.23</ele>
        <time>2012-02-11T11:53:55Z</time>
      </trkpt>
      <trkpt lat="42.87669" lon="0.16651">
        <ele>2285.19</ele>
        <time>2012-02-11T11:54:02Z</time>
      </trkpt>
      <trkpt lat="42.87664" lon="0.16662">
        <ele>2286.63</ele>
        <time>2012-02-11T11:54:13Z</time>
      </trkpt>
      <trkpt lat="42.87663" lon="0.16662">
        <ele>2286.63</ele>
        <time>2012-02-11T11:54:14Z</time>
      </trkpt>
      <trkpt lat="42.87663" lon="0.1667">
        <ele>2287.11</ele>
        <time>2012-02-11T11:54:25Z</time>
      </trkpt>
      <trkpt lat="42.87663" lon="0.1667">
        <ele>2287.11</ele>
        <time>2012-02-11T11:54:26Z</time>
      </trkpt>
      <trkpt lat="42.8766" lon="0.16677">
        <ele>2288.56</ele>
        <time>2012-02-11T11:54:36Z</time>
      </trkpt>
      <trkpt lat="42.87657" lon="0.16684">
        <ele>2288.56</ele>
        <time>2012-02-11T11:54:46Z</time>
      </trkpt>
      <trkpt lat="42.87654" lon="0.16695">
        <ele>2290</ele>
        <time>2012-02-11T11:54:57Z</time>
      </trkpt>
      <trkpt lat="42.87653" lon="0.16698">
        <ele>2290</ele>
        <time>2012-02-11T11:55:14Z</time>
      </trkpt>
      <trkpt lat="42.87651" lon="0.16707">
        <ele>2291.92</ele>
        <time>2012-02-11T11:55:24Z</time>
      </trkpt>
      <trkpt lat="42.8765" lon="0.16709">
        <ele>2292.4</ele>
        <time>2012-02-11T11:55:27Z</time>
      </trkpt>
      <trkpt lat="42.87645" lon="0.16719">
        <ele>2293.36</ele>
        <time>2012-02-11T11:55:38Z</time>
      </trkpt>
      <trkpt lat="42.87644" lon="0.1672">
        <ele>2293.36</ele>
        <time>2012-02-11T11:55:39Z</time>
      </trkpt>
      <trkpt lat="42.87642" lon="0.16724">
        <ele>2293.84</ele>
        <time>2012-02-11T11:55:47Z</time>
      </trkpt>
      <trkpt lat="42.8764" lon="0.1673">
        <ele>2293.36</ele>
        <time>2012-02-11T11:55:52Z</time>
      </trkpt>
      <trkpt lat="42.87639" lon="0.16735">
        <ele>2293.84</ele>
        <time>2012-02-11T11:56:03Z</time>
      </trkpt>
      <trkpt lat="42.87638" lon="0.16737">
        <ele>2293.84</ele>
        <time>2012-02-11T11:56:05Z</time>
      </trkpt>
      <trkpt lat="42.87635" lon="0.16744">
        <ele>2294.8</ele>
        <time>2012-02-11T11:56:16Z</time>
      </trkpt>
      <trkpt lat="42.87635" lon="0.16744">
        <ele>2293.36</ele>
        <time>2012-02-11T11:56:28Z</time>
      </trkpt>
      <trkpt lat="42.87634" lon="0.16744">
        <ele>2291.92</ele>
        <time>2012-02-11T11:56:31Z</time>
      </trkpt>
      <trkpt lat="42.87635" lon="0.16744">
        <ele>2295.77</ele>
        <time>2012-02-11T11:56:32Z</time>
      </trkpt>
      <trkpt lat="42.87635" lon="0.16744">
        <ele>2293.84</ele>
        <time>2012-02-11T11:56:33Z</time>
      </trkpt>
      <trkpt lat="42.87635" lon="0.16743">
        <ele>2297.69</ele>
        <time>2012-02-11T11:56:55Z</time>
      </trkpt>
      <trkpt lat="42.87635" lon="0.16744">
        <ele>2295.77</ele>
        <time>2012-02-11T11:56:56Z</time>
      </trkpt>
      <trkpt lat="42.87636" lon="0.16743">
        <ele>2294.8</ele>
        <time>2012-02-11T11:56:59Z</time>
      </trkpt>
      <trkpt lat="42.87635" lon="0.16744">
        <ele>2294.8</ele>
        <time>2012-02-11T11:57:10Z</time>
      </trkpt>
      <trkpt lat="42.87634" lon="0.16747">
        <ele>2294.8</ele>
        <time>2012-02-11T11:57:26Z</time>
      </trkpt>
      <trkpt lat="42.87633" lon="0.16749">
        <ele>2295.28</ele>
        <time>2012-02-11T11:57:35Z</time>
      </trkpt>
      <trkpt lat="42.87631" lon="0.16752">
        <ele>2295.77</ele>
        <time>2012-02-11T11:57:38Z</time>
      </trkpt>
      <trkpt lat="42.87622" lon="0.16765">
        <ele>2296.25</ele>
        <time>2012-02-11T11:57:52Z</time>
      </trkpt>
      <trkpt lat="42.87618" lon="0.16776">
        <ele>2298.17</ele>
        <time>2012-02-11T11:58:03Z</time>
      </trkpt>
      <trkpt lat="42.87617" lon="0.16779">
        <ele>2299.13</ele>
        <time>2012-02-11T11:58:09Z</time>
      </trkpt>
      <trkpt lat="42.87615" lon="0.16789">
        <ele>2301.05</ele>
        <time>2012-02-11T11:58:20Z</time>
      </trkpt>
      <trkpt lat="42.87614" lon="0.16795">
        <ele>2302.01</ele>
        <time>2012-02-11T11:58:31Z</time>
      </trkpt>
      <trkpt lat="42.87613" lon="0.168">
        <ele>2303.46</ele>
        <time>2012-02-11T11:58:39Z</time>
      </trkpt>
      <trkpt lat="42.87612" lon="0.16804">
        <ele>2303.94</ele>
        <time>2012-02-11T11:58:50Z</time>
      </trkpt>
      <trkpt lat="42.87611" lon="0.16811">
        <ele>2306.34</ele>
        <time>2012-02-11T11:59:00Z</time>
      </trkpt>
      <trkpt lat="42.87612" lon="0.16813">
        <ele>2306.34</ele>
        <time>2012-02-11T11:59:09Z</time>
      </trkpt>
      <trkpt lat="42.87611" lon="0.16818">
        <ele>2308.26</ele>
        <time>2012-02-11T11:59:19Z</time>
      </trkpt>
      <trkpt lat="42.87609" lon="0.16827">
        <ele>2309.7</ele>
        <time>2012-02-11T11:59:29Z</time>
      </trkpt>
      <trkpt lat="42.87608" lon="0.16835">
        <ele>2311.15</ele>
        <time>2012-02-11T11:59:40Z</time>
      </trkpt>
      <trkpt lat="42.87607" lon="0.16843">
        <ele>2312.11</ele>
        <time>2012-02-11T11:59:53Z</time>
      </trkpt>
      <trkpt lat="42.87607" lon="0.16846">
        <ele>2313.55</ele>
        <time>2012-02-11T12:00:02Z</time>
      </trkpt>
      <trkpt lat="42.87606" lon="0.16852">
        <ele>2314.99</ele>
        <time>2012-02-11T12:00:10Z</time>
      </trkpt>
      <trkpt lat="42.87606" lon="0.16857">
        <ele>2316.43</ele>
        <time>2012-02-11T12:00:20Z</time>
      </trkpt>
      <trkpt lat="42.87606" lon="0.16861">
        <ele>2316.91</ele>
        <time>2012-02-11T12:00:30Z</time>
      </trkpt>
      <trkpt lat="42.87605" lon="0.16867">
        <ele>2318.84</ele>
        <time>2012-02-11T12:00:44Z</time>
      </trkpt>
      <trkpt lat="42.87604" lon="0.16873">
        <ele>2321.24</ele>
        <time>2012-02-11T12:00:58Z</time>
      </trkpt>
      <trkpt lat="42.87606" lon="0.16881">
        <ele>2322.2</ele>
        <time>2012-02-11T12:01:09Z</time>
      </trkpt>
      <trkpt lat="42.87605" lon="0.16886">
        <ele>2324.12</ele>
        <time>2012-02-11T12:01:17Z</time>
      </trkpt>
      <trkpt lat="42.87602" lon="0.16891">
        <ele>2325.57</ele>
        <time>2012-02-11T12:01:26Z</time>
      </trkpt>
      <trkpt lat="42.87602" lon="0.16894">
        <ele>2327.49</ele>
        <time>2012-02-11T12:01:37Z</time>
      </trkpt>
      <trkpt lat="42.87602" lon="0.16896">
        <ele>2327.49</ele>
        <time>2012-02-11T12:01:50Z</time>
      </trkpt>
      <trkpt lat="42.87603" lon="0.16898">
        <ele>2328.45</ele>
        <time>2012-02-11T12:01:59Z</time>
      </trkpt>
      <trkpt lat="42.87605" lon="0.16905">
        <ele>2329.41</ele>
        <time>2012-02-11T12:02:15Z</time>
      </trkpt>
      <trkpt lat="42.87606" lon="0.16912">
        <ele>2330.85</ele>
        <time>2012-02-11T12:02:25Z</time>
      </trkpt>
      <trkpt lat="42.87606" lon="0.16918">
        <ele>2332.3</ele>
        <time>2012-02-11T12:02:31Z</time>
      </trkpt>
      <trkpt lat="42.87606" lon="0.16923">
        <ele>2333.26</ele>
        <time>2012-02-11T12:02:40Z</time>
      </trkpt>
      <trkpt lat="42.87606" lon="0.16924">
        <ele>2333.74</ele>
        <time>2012-02-11T12:02:41Z</time>
      </trkpt>
      <trkpt lat="42.87606" lon="0.16927">
        <ele>2335.18</ele>
        <time>2012-02-11T12:02:50Z</time>
      </trkpt>
      <trkpt lat="42.87603" lon="0.16937">
        <ele>2337.1</ele>
        <time>2012-02-11T12:03:05Z</time>
      </trkpt>
      <trkpt lat="42.87599" lon="0.16941">
        <ele>2339.02</ele>
        <time>2012-02-11T12:03:14Z</time>
      </trkpt>
      <trkpt lat="42.87596" lon="0.16943">
        <ele>2338.54</ele>
        <time>2012-02-11T12:03:21Z</time>
      </trkpt>
      <trkpt lat="42.87592" lon="0.16945">
        <ele>2339.51</ele>
        <time>2012-02-11T12:03:30Z</time>
      </trkpt>
      <trkpt lat="42.87587" lon="0.16944">
        <ele>2341.43</ele>
        <time>2012-02-11T12:03:43Z</time>
      </trkpt>
      <trkpt lat="42.87582" lon="0.16952">
        <ele>2342.39</ele>
        <time>2012-02-11T12:03:55Z</time>
      </trkpt>
      <trkpt lat="42.87581" lon="0.1696">
        <ele>2343.83</ele>
        <time>2012-02-11T12:04:05Z</time>
      </trkpt>
      <trkpt lat="42.87581" lon="0.16964">
        <ele>2344.79</ele>
        <time>2012-02-11T12:04:16Z</time>
      </trkpt>
      <trkpt lat="42.87581" lon="0.16971">
        <ele>2346.23</ele>
        <time>2012-02-11T12:04:28Z</time>
      </trkpt>
      <trkpt lat="42.87579" lon="0.16977">
        <ele>2346.72</ele>
        <time>2012-02-11T12:04:37Z</time>
      </trkpt>
      <trkpt lat="42.87576" lon="0.16975">
        <ele>2347.68</ele>
        <time>2012-02-11T12:04:46Z</time>
      </trkpt>
      <trkpt lat="42.87573" lon="0.16973">
        <ele>2349.12</ele>
        <time>2012-02-11T12:04:56Z</time>
      </trkpt>
      <trkpt lat="42.87567" lon="0.16977">
        <ele>2350.56</ele>
        <time>2012-02-11T12:05:06Z</time>
      </trkpt>
      <trkpt lat="42.87567" lon="0.16977">
        <ele>2351.04</ele>
        <time>2012-02-11T12:05:16Z</time>
      </trkpt>
      <trkpt lat="42.87567" lon="0.16979">
        <ele>2351.52</ele>
        <time>2012-02-11T12:05:33Z</time>
      </trkpt>
      <trkpt lat="42.87567" lon="0.16978">
        <ele>2351.04</ele>
        <time>2012-02-11T12:06:02Z</time>
      </trkpt>
      <trkpt lat="42.87566" lon="0.16984">
        <ele>2352.48</ele>
        <time>2012-02-11T12:06:13Z</time>
      </trkpt>
      <trkpt lat="42.87566" lon="0.16985">
        <ele>2352</ele>
        <time>2012-02-11T12:06:34Z</time>
      </trkpt>
      <trkpt lat="42.87563" lon="0.16993">
        <ele>2353.93</ele>
        <time>2012-02-11T12:06:44Z</time>
      </trkpt>
      <trkpt lat="42.87558" lon="0.17001">
        <ele>2355.37</ele>
        <time>2012-02-11T12:06:54Z</time>
      </trkpt>
      <trkpt lat="42.87554" lon="0.17008">
        <ele>2357.29</ele>
        <time>2012-02-11T12:07:04Z</time>
      </trkpt>
      <trkpt lat="42.87554" lon="0.17008">
        <ele>2356.81</ele>
        <time>2012-02-11T12:07:19Z</time>
      </trkpt>
      <trkpt lat="42.87552" lon="0.1701">
        <ele>2357.77</ele>
        <time>2012-02-11T12:07:30Z</time>
      </trkpt>
      <trkpt lat="42.87548" lon="0.17017">
        <ele>2359.21</ele>
        <time>2012-02-11T12:07:43Z</time>
      </trkpt>
      <trkpt lat="42.87543" lon="0.17023">
        <ele>2360.17</ele>
        <time>2012-02-11T12:07:53Z</time>
      </trkpt>
      <trkpt lat="42.87542" lon="0.17029">
        <ele>2362.1</ele>
        <time>2012-02-11T12:08:03Z</time>
      </trkpt>
      <trkpt lat="42.87539" lon="0.17034">
        <ele>2364.02</ele>
        <time>2012-02-11T12:08:18Z</time>
      </trkpt>
      <trkpt lat="42.87538" lon="0.17039">
        <ele>2365.46</ele>
        <time>2012-02-11T12:08:29Z</time>
      </trkpt>
      <trkpt lat="42.87537" lon="0.17041">
        <ele>2365.94</ele>
        <time>2012-02-11T12:08:31Z</time>
      </trkpt>
      <trkpt lat="42.87536" lon="0.17045">
        <ele>2366.42</ele>
        <time>2012-02-11T12:08:43Z</time>
      </trkpt>
      <trkpt lat="42.87535" lon="0.17049">
        <ele>2367.86</ele>
        <time>2012-02-11T12:08:54Z</time>
      </trkpt>
      <trkpt lat="42.87535" lon="0.17049">
        <ele>2367.86</ele>
        <time>2012-02-11T12:09:08Z</time>
      </trkpt>
      <trkpt lat="42.87535" lon="0.17051">
        <ele>2368.35</ele>
        <time>2012-02-11T12:09:27Z</time>
      </trkpt>
      <trkpt lat="42.87535" lon="0.1706">
        <ele>2370.27</ele>
        <time>2012-02-11T12:09:38Z</time>
      </trkpt>
      <trkpt lat="42.8753" lon="0.17064">
        <ele>2372.19</ele>
        <time>2012-02-11T12:09:47Z</time>
      </trkpt>
      <trkpt lat="42.87528" lon="0.17065">
        <ele>2374.11</ele>
        <time>2012-02-11T12:09:57Z</time>
      </trkpt>
      <trkpt lat="42.87527" lon="0.17064">
        <ele>2373.63</ele>
        <time>2012-02-11T12:10:03Z</time>
      </trkpt>
      <trkpt lat="42.87521" lon="0.17059">
        <ele>2376.52</ele>
        <time>2012-02-11T12:10:13Z</time>
      </trkpt>
      <trkpt lat="42.87518" lon="0.17055">
        <ele>2377.48</ele>
        <time>2012-02-11T12:10:22Z</time>
      </trkpt>
      <trkpt lat="42.87513" lon="0.17052">
        <ele>2378.92</ele>
        <time>2012-02-11T12:10:32Z</time>
      </trkpt>
      <trkpt lat="42.87513" lon="0.17052">
        <ele>2380.36</ele>
        <time>2012-02-11T12:10:45Z</time>
      </trkpt>
      <trkpt lat="42.87511" lon="0.17047">
        <ele>2380.84</ele>
        <time>2012-02-11T12:11:02Z</time>
      </trkpt>
      <trkpt lat="42.87509" lon="0.17045">
        <ele>2381.32</ele>
        <time>2012-02-11T12:11:17Z</time>
      </trkpt>
      <trkpt lat="42.87508" lon="0.17046">
        <ele>2381.8</ele>
        <time>2012-02-11T12:11:19Z</time>
      </trkpt>
      <trkpt lat="42.87507" lon="0.1705">
        <ele>2382.28</ele>
        <time>2012-02-11T12:11:35Z</time>
      </trkpt>
      <trkpt lat="42.87504" lon="0.17053">
        <ele>2383.25</ele>
        <time>2012-02-11T12:11:55Z</time>
      </trkpt>
      <trkpt lat="42.87502" lon="0.17057">
        <ele>2384.69</ele>
        <time>2012-02-11T12:12:06Z</time>
      </trkpt>
      <trkpt lat="42.875" lon="0.1706">
        <ele>2384.69</ele>
        <time>2012-02-11T12:12:29Z</time>
      </trkpt>
      <trkpt lat="42.87496" lon="0.17069">
        <ele>2387.09</ele>
        <time>2012-02-11T12:12:39Z</time>
      </trkpt>
      <trkpt lat="42.87496" lon="0.17075">
        <ele>2388.05</ele>
        <time>2012-02-11T12:12:49Z</time>
      </trkpt>
      <trkpt lat="42.87497" lon="0.17082">
        <ele>2389.01</ele>
        <time>2012-02-11T12:12:58Z</time>
      </trkpt>
      <trkpt lat="42.87494" lon="0.17089">
        <ele>2389.49</ele>
        <time>2012-02-11T12:13:13Z</time>
      </trkpt>
      <trkpt lat="42.87494" lon="0.17091">
        <ele>2390.46</ele>
        <time>2012-02-11T12:13:24Z</time>
      </trkpt>
      <trkpt lat="42.87493" lon="0.1709">
        <ele>2390.94</ele>
        <time>2012-02-11T12:13:29Z</time>
      </trkpt>
      <trkpt lat="42.8749" lon="0.1709">
        <ele>2391.9</ele>
        <time>2012-02-11T12:13:39Z</time>
      </trkpt>
      <trkpt lat="42.87487" lon="0.17089">
        <ele>2392.86</ele>
        <time>2012-02-11T12:13:48Z</time>
      </trkpt>
      <trkpt lat="42.87482" lon="0.17087">
        <ele>2394.3</ele>
        <time>2012-02-11T12:13:54Z</time>
      </trkpt>
      <trkpt lat="42.8748" lon="0.17088">
        <ele>2395.26</ele>
        <time>2012-02-11T12:14:05Z</time>
      </trkpt>
      <trkpt lat="42.87477" lon="0.17087">
        <ele>2396.7</ele>
        <time>2012-02-11T12:14:15Z</time>
      </trkpt>
      <trkpt lat="42.87476" lon="0.17086">
        <ele>2397.67</ele>
        <time>2012-02-11T12:14:25Z</time>
      </trkpt>
      <trkpt lat="42.87474" lon="0.17092">
        <ele>2399.59</ele>
        <time>2012-02-11T12:14:39Z</time>
      </trkpt>
      <trkpt lat="42.87473" lon="0.17098">
        <ele>2401.51</ele>
        <time>2012-02-11T12:14:49Z</time>
      </trkpt>
      <trkpt lat="42.87472" lon="0.17099">
        <ele>2402.47</ele>
        <time>2012-02-11T12:14:58Z</time>
      </trkpt>
      <trkpt lat="42.87472" lon="0.17099">
        <ele>2401.99</ele>
        <time>2012-02-11T12:15:06Z</time>
      </trkpt>
      <trkpt lat="42.87466" lon="0.17097">
        <ele>2403.43</ele>
        <time>2012-02-11T12:15:15Z</time>
      </trkpt>
      <trkpt lat="42.87462" lon="0.17094">
        <ele>2405.36</ele>
        <time>2012-02-11T12:15:25Z</time>
      </trkpt>
      <trkpt lat="42.87463" lon="0.17096">
        <ele>2405.36</ele>
        <time>2012-02-11T12:15:38Z</time>
      </trkpt>
      <trkpt lat="42.87463" lon="0.17096">
        <ele>2405.84</ele>
        <time>2012-02-11T12:15:43Z</time>
      </trkpt>
      <trkpt lat="42.87461" lon="0.17104">
        <ele>2407.28</ele>
        <time>2012-02-11T12:15:55Z</time>
      </trkpt>
      <trkpt lat="42.87461" lon="0.17105">
        <ele>2408.72</ele>
        <time>2012-02-11T12:16:08Z</time>
      </trkpt>
      <trkpt lat="42.87461" lon="0.17105">
        <ele>2408.72</ele>
        <time>2012-02-11T12:16:12Z</time>
      </trkpt>
      <trkpt lat="42.87459" lon="0.17105">
        <ele>2409.68</ele>
        <time>2012-02-11T12:16:23Z</time>
      </trkpt>
      <trkpt lat="42.87458" lon="0.17105">
        <ele>2411.12</ele>
        <time>2012-02-11T12:16:32Z</time>
      </trkpt>
      <trkpt lat="42.87458" lon="0.17103">
        <ele>2412.09</ele>
        <time>2012-02-11T12:16:41Z</time>
      </trkpt>
      <trkpt lat="42.87457" lon="0.17103">
        <ele>2412.09</ele>
        <time>2012-02-11T12:16:55Z</time>
      </trkpt>
      <trkpt lat="42.87456" lon="0.17107">
        <ele>2413.53</ele>
        <time>2012-02-11T12:17:11Z</time>
      </trkpt>
      <trkpt lat="42.87455" lon="0.17112">
        <ele>2414.97</ele>
        <time>2012-02-11T12:17:22Z</time>
      </trkpt>
      <trkpt lat="42.87455" lon="0.17117">
        <ele>2417.37</ele>
        <time>2012-02-11T12:17:34Z</time>
      </trkpt>
      <trkpt lat="42.87454" lon="0.17115">
        <ele>2418.33</ele>
        <time>2012-02-11T12:17:44Z</time>
      </trkpt>
      <trkpt lat="42.87452" lon="0.17114">
        <ele>2418.33</ele>
        <time>2012-02-11T12:18:01Z</time>
      </trkpt>
      <trkpt lat="42.8745" lon="0.17111">
        <ele>2419.3</ele>
        <time>2012-02-11T12:18:11Z</time>
      </trkpt>
      <trkpt lat="42.87447" lon="0.17108">
        <ele>2421.22</ele>
        <time>2012-02-11T12:18:23Z</time>
      </trkpt>
      <trkpt lat="42.87441" lon="0.17106">
        <ele>2421.7</ele>
        <time>2012-02-11T12:18:35Z</time>
      </trkpt>
      <trkpt lat="42.87441" lon="0.17106">
        <ele>2421.7</ele>
        <time>2012-02-11T12:18:52Z</time>
      </trkpt>
      <trkpt lat="42.87439" lon="0.1711">
        <ele>2423.62</ele>
        <time>2012-02-11T12:19:00Z</time>
      </trkpt>
      <trkpt lat="42.87437" lon="0.17115">
        <ele>2424.58</ele>
        <time>2012-02-11T12:19:12Z</time>
      </trkpt>
      <trkpt lat="42.87437" lon="0.1712">
        <ele>2425.54</ele>
        <time>2012-02-11T12:19:16Z</time>
      </trkpt>
      <trkpt lat="42.87435" lon="0.17123">
        <ele>2427.47</ele>
        <time>2012-02-11T12:19:25Z</time>
      </trkpt>
      <trkpt lat="42.87432" lon="0.17129">
        <ele>2428.91</ele>
        <time>2012-02-11T12:19:34Z</time>
      </trkpt>
      <trkpt lat="42.87429" lon="0.17132">
        <ele>2429.87</ele>
        <time>2012-02-11T12:19:43Z</time>
      </trkpt>
      <trkpt lat="42.8743" lon="0.17133">
        <ele>2430.35</ele>
        <time>2012-02-11T12:20:02Z</time>
      </trkpt>
      <trkpt lat="42.8743" lon="0.17139">
        <ele>2432.27</ele>
        <time>2012-02-11T12:20:13Z</time>
      </trkpt>
      <trkpt lat="42.8743" lon="0.1714">
        <ele>2434.2</ele>
        <time>2012-02-11T12:20:24Z</time>
      </trkpt>
      <trkpt lat="42.87429" lon="0.17148">
        <ele>2435.64</ele>
        <time>2012-02-11T12:20:36Z</time>
      </trkpt>
      <trkpt lat="42.87429" lon="0.17154">
        <ele>2437.56</ele>
        <time>2012-02-11T12:20:50Z</time>
      </trkpt>
      <trkpt lat="42.87429" lon="0.17158">
        <ele>2438.04</ele>
        <time>2012-02-11T12:21:00Z</time>
      </trkpt>
      <trkpt lat="42.87429" lon="0.17163">
        <ele>2439</ele>
        <time>2012-02-11T12:21:12Z</time>
      </trkpt>
      <trkpt lat="42.87429" lon="0.17168">
        <ele>2439.48</ele>
        <time>2012-02-11T12:21:29Z</time>
      </trkpt>
      <trkpt lat="42.8743" lon="0.17173">
        <ele>2441.89</ele>
        <time>2012-02-11T12:21:42Z</time>
      </trkpt>
      <trkpt lat="42.8743" lon="0.17174">
        <ele>2442.85</ele>
        <time>2012-02-11T12:21:58Z</time>
      </trkpt>
      <trkpt lat="42.8743" lon="0.17181">
        <ele>2443.81</ele>
        <time>2012-02-11T12:22:09Z</time>
      </trkpt>
      <trkpt lat="42.87427" lon="0.17182">
        <ele>2445.73</ele>
        <time>2012-02-11T12:22:17Z</time>
      </trkpt>
      <trkpt lat="42.87424" lon="0.17183">
        <ele>2448.13</ele>
        <time>2012-02-11T12:22:26Z</time>
      </trkpt>
      <trkpt lat="42.87422" lon="0.17186">
        <ele>2449.1</ele>
        <time>2012-02-11T12:22:34Z</time>
      </trkpt>
      <trkpt lat="42.87425" lon="0.17194">
        <ele>2449.58</ele>
        <time>2012-02-11T12:22:48Z</time>
      </trkpt>
      <trkpt lat="42.87426" lon="0.17195">
        <ele>2450.06</ele>
        <time>2012-02-11T12:22:50Z</time>
      </trkpt>
      <trkpt lat="42.87427" lon="0.17199">
        <ele>2450.54</ele>
        <time>2012-02-11T12:23:04Z</time>
      </trkpt>
      <trkpt lat="42.87428" lon="0.17207">
        <ele>2452.46</ele>
        <time>2012-02-11T12:23:15Z</time>
      </trkpt>
      <trkpt lat="42.87428" lon="0.17209">
        <ele>2454.38</ele>
        <time>2012-02-11T12:23:28Z</time>
      </trkpt>
      <trkpt lat="42.87426" lon="0.17212">
        <ele>2455.82</ele>
        <time>2012-02-11T12:23:41Z</time>
      </trkpt>
      <trkpt lat="42.8742" lon="0.17213">
        <ele>2456.31</ele>
        <time>2012-02-11T12:23:52Z</time>
      </trkpt>
      <trkpt lat="42.87419" lon="0.17214">
        <ele>2457.75</ele>
        <time>2012-02-11T12:24:03Z</time>
      </trkpt>
      <trkpt lat="42.87415" lon="0.17214">
        <ele>2459.19</ele>
        <time>2012-02-11T12:24:14Z</time>
      </trkpt>
      <trkpt lat="42.87411" lon="0.17214">
        <ele>2461.11</ele>
        <time>2012-02-11T12:24:26Z</time>
      </trkpt>
      <trkpt lat="42.87411" lon="0.17215">
        <ele>2462.07</ele>
        <time>2012-02-11T12:24:36Z</time>
      </trkpt>
      <trkpt lat="42.87406" lon="0.17215">
        <ele>2463.04</ele>
        <time>2012-02-11T12:24:46Z</time>
      </trkpt>
      <trkpt lat="42.874" lon="0.17219">
        <ele>2464.48</ele>
        <time>2012-02-11T12:24:59Z</time>
      </trkpt>
      <trkpt lat="42.874" lon="0.17219">
        <ele>2466.4</ele>
        <time>2012-02-11T12:25:03Z</time>
      </trkpt>
      <trkpt lat="42.87394" lon="0.1722">
        <ele>2467.84</ele>
        <time>2012-02-11T12:25:17Z</time>
      </trkpt>
      <trkpt lat="42.87387" lon="0.17218">
        <ele>2469.28</ele>
        <time>2012-02-11T12:25:27Z</time>
      </trkpt>
      <trkpt lat="42.87384" lon="0.17218">
        <ele>2470.73</ele>
        <time>2012-02-11T12:25:31Z</time>
      </trkpt>
      <trkpt lat="42.87379" lon="0.17218">
        <ele>2473.61</ele>
        <time>2012-02-11T12:25:40Z</time>
      </trkpt>
      <trkpt lat="42.87376" lon="0.17217">
        <ele>2473.61</ele>
        <time>2012-02-11T12:25:54Z</time>
      </trkpt>
      <trkpt lat="42.87374" lon="0.17207">
        <ele>2473.61</ele>
        <time>2012-02-11T12:26:06Z</time>
      </trkpt>
      <trkpt lat="42.87372" lon="0.17202">
        <ele>2475.05</ele>
        <time>2012-02-11T12:26:16Z</time>
      </trkpt>
      <trkpt lat="42.87371" lon="0.17203">
        <ele>2475.53</ele>
        <time>2012-02-11T12:26:27Z</time>
      </trkpt>
      <trkpt lat="42.87371" lon="0.17212">
        <ele>2473.13</ele>
        <time>2012-02-11T12:26:39Z</time>
      </trkpt>
      <trkpt lat="42.87371" lon="0.17212">
        <ele>2475.05</ele>
        <time>2012-02-11T12:26:49Z</time>
      </trkpt>
      <trkpt lat="42.8737" lon="0.17213">
        <ele>2472.65</ele>
        <time>2012-02-11T12:27:01Z</time>
      </trkpt>
      <trkpt lat="42.8737" lon="0.17212">
        <ele>2472.17</ele>
        <time>2012-02-11T12:27:13Z</time>
      </trkpt>
      <trkpt lat="42.8737" lon="0.17213">
        <ele>2473.13</ele>
        <time>2012-02-11T12:27:30Z</time>
      </trkpt>
      <trkpt lat="42.8737" lon="0.17213">
        <ele>2464</ele>
        <time>2012-02-11T12:27:35Z</time>
      </trkpt>
      <trkpt lat="42.8737" lon="0.17213">
        <ele>2470.24</ele>
        <time>2012-02-11T12:27:36Z</time>
      </trkpt>
      <trkpt lat="42.8737" lon="0.17213">
        <ele>2468.32</ele>
        <time>2012-02-11T12:28:03Z</time>
      </trkpt>
      <trkpt lat="42.8737" lon="0.17213">
        <ele>2501.01</ele>
        <time>2012-02-11T12:28:17Z</time>
      </trkpt>
      <trkpt lat="42.8737" lon="0.17213">
        <ele>2462.55</ele>
        <time>2012-02-11T12:28:18Z</time>
      </trkpt>
      <trkpt lat="42.8737" lon="0.17213">
        <ele>2463.52</ele>
        <time>2012-02-11T12:28:19Z</time>
      </trkpt>
      <trkpt lat="42.8737" lon="0.17213">
        <ele>2468.32</ele>
        <time>2012-02-11T12:28:20Z</time>
      </trkpt>
      <trkpt lat="42.8737" lon="0.17213">
        <ele>2466.4</ele>
        <time>2012-02-11T12:28:32Z</time>
      </trkpt>
      <trkpt lat="42.8737" lon="0.17213">
        <ele>2469.76</ele>
        <time>2012-02-11T12:28:42Z</time>
      </trkpt>
      <trkpt lat="42.8737" lon="0.17213">
        <ele>2468.32</ele>
        <time>2012-02-11T12:29:16Z</time>
      </trkpt>
      <trkpt lat="42.8737" lon="0.17213">
        <ele>2467.36</ele>
        <time>2012-02-11T12:29:56Z</time>
      </trkpt>
      <trkpt lat="42.8737" lon="0.17213">
        <ele>2467.84</ele>
        <time>2012-02-11T12:30:37Z</time>
      </trkpt>
      <trkpt lat="42.8737" lon="0.17213">
        <ele>2468.32</ele>
        <time>2012-02-11T12:31:26Z</time>
      </trkpt>
      <trkpt lat="42.8737" lon="0.17212">
        <ele>2467.84</ele>
        <time>2012-02-11T12:32:02Z</time>
      </trkpt>
      <trkpt lat="42.8737" lon="0.17212">
        <ele>2467.36</ele>
        <time>2012-02-11T12:32:40Z</time>
      </trkpt>
      <trkpt lat="42.8737" lon="0.17212">
        <ele>2463.04</ele>
        <time>2012-02-11T12:33:04Z</time>
      </trkpt>
      <trkpt lat="42.8737" lon="0.17212">
        <ele>2466.4</ele>
        <time>2012-02-11T12:33:06Z</time>
      </trkpt>
      <trkpt lat="42.8737" lon="0.17212">
        <ele>2451.98</ele>
        <time>2012-02-11T12:33:19Z</time>
      </trkpt>
      <trkpt lat="42.8737" lon="0.17212">
        <ele>2469.28</ele>
        <time>2012-02-11T12:33:20Z</time>
      </trkpt>
      <trkpt lat="42.8737" lon="0.17212">
        <ele>2466.88</ele>
        <time>2012-02-11T12:33:21Z</time>
      </trkpt>
      <trkpt lat="42.8737" lon="0.17212">
        <ele>2472.17</ele>
        <time>2012-02-11T12:33:23Z</time>
      </trkpt>
      <trkpt lat="42.8737" lon="0.17212">
        <ele>2466.4</ele>
        <time>2012-02-11T12:33:24Z</time>
      </trkpt>
      <trkpt lat="42.8737" lon="0.17212">
        <ele>2466.88</ele>
        <time>2012-02-11T12:33:57Z</time>
      </trkpt>
      <trkpt lat="42.8737" lon="0.17212">
        <ele>2452.46</ele>
        <time>2012-02-11T12:34:01Z</time>
      </trkpt>
      <trkpt lat="42.8737" lon="0.17212">
        <ele>2488.03</ele>
        <time>2012-02-11T12:34:02Z</time>
      </trkpt>
      <trkpt lat="42.8737" lon="0.17212">
        <ele>2466.88</ele>
        <time>2012-02-11T12:34:03Z</time>
      </trkpt>
      <trkpt lat="42.8737" lon="0.17212">
        <ele>2465.44</ele>
        <time>2012-02-11T12:34:10Z</time>
      </trkpt>
      <trkpt lat="42.8737" lon="0.17212">
        <ele>2461.59</ele>
        <time>2012-02-11T12:34:30Z</time>
      </trkpt>
      <trkpt lat="42.8737" lon="0.17212">
        <ele>2463.04</ele>
        <time>2012-02-11T12:34:31Z</time>
      </trkpt>
      <trkpt lat="42.8737" lon="0.17212">
        <ele>2468.32</ele>
        <time>2012-02-11T12:34:33Z</time>
      </trkpt>
      <trkpt lat="42.8737" lon="0.17212">
        <ele>2464</ele>
        <time>2012-02-11T12:34:37Z</time>
      </trkpt>
      <trkpt lat="42.8737" lon="0.17212">
        <ele>2468.8</ele>
        <time>2012-02-11T12:34:47Z</time>
      </trkpt>
      <trkpt lat="42.8737" lon="0.17212">
        <ele>2465.92</ele>
        <time>2012-02-11T12:34:56Z</time>
      </trkpt>
      <trkpt lat="42.8737" lon="0.17212">
        <ele>2467.84</ele>
        <time>2012-02-11T12:35:18Z</time>
      </trkpt>
      <trkpt lat="42.8737" lon="0.17212">
        <ele>2465.44</ele>
        <time>2012-02-11T12:35:21Z</time>
      </trkpt>
      <trkpt lat="42.87371" lon="0.17212">
        <ele>2465.44</ele>
        <time>2012-02-11T12:35:59Z</time>
      </trkpt>
      <trkpt lat="42.87371" lon="0.17212">
        <ele>2467.36</ele>
        <time>2012-02-11T12:36:33Z</time>
      </trkpt>
      <trkpt lat="42.87371" lon="0.17212">
        <ele>2465.44</ele>
        <time>2012-02-11T12:37:06Z</time>
      </trkpt>
      <trkpt lat="42.87371" lon="0.17212">
        <ele>2464.48</ele>
        <time>2012-02-11T12:37:43Z</time>
      </trkpt>
      <trkpt lat="42.87371" lon="0.17212">
        <ele>2453.9</ele>
        <time>2012-02-11T12:37:44Z</time>
      </trkpt>
      <trkpt lat="42.87371" lon="0.17212">
        <ele>2485.63</ele>
        <time>2012-02-11T12:37:45Z</time>
      </trkpt>
      <trkpt lat="42.87371" lon="0.17212">
        <ele>2466.88</ele>
        <time>2012-02-11T12:37:46Z</time>
      </trkpt>
      <trkpt lat="42.8737" lon="0.17212">
        <ele>2466.4</ele>
        <time>2012-02-11T12:37:51Z</time>
      </trkpt>
      <trkpt lat="42.8737" lon="0.17212">
        <ele>2467.36</ele>
        <time>2012-02-11T12:37:58Z</time>
      </trkpt>
      <trkpt lat="42.87369" lon="0.17212">
        <ele>2465.92</ele>
        <time>2012-02-11T12:38:09Z</time>
      </trkpt>
      <trkpt lat="42.87369" lon="0.17212">
        <ele>2467.36</ele>
        <time>2012-02-11T12:38:20Z</time>
      </trkpt>
      <trkpt lat="42.87367" lon="0.17212">
        <ele>2466.4</ele>
        <time>2012-02-11T12:38:29Z</time>
      </trkpt>
      <trkpt lat="42.87367" lon="0.17212">
        <ele>2465.92</ele>
        <time>2012-02-11T12:38:40Z</time>
      </trkpt>
      <trkpt lat="42.87369" lon="0.17213">
        <ele>2466.4</ele>
        <time>2012-02-11T12:38:52Z</time>
      </trkpt>
      <trkpt lat="42.87369" lon="0.17213">
        <ele>2466.4</ele>
        <time>2012-02-11T12:39:14Z</time>
      </trkpt>
      <trkpt lat="42.87366" lon="0.17214">
        <ele>2466.4</ele>
        <time>2012-02-11T12:39:26Z</time>
      </trkpt>
      <trkpt lat="42.87366" lon="0.17214">
        <ele>2465.92</ele>
        <time>2012-02-11T12:39:33Z</time>
      </trkpt>
      <trkpt lat="42.87365" lon="0.17216">
        <ele>2464</ele>
        <time>2012-02-11T12:39:38Z</time>
      </trkpt>
      <trkpt lat="42.87361" lon="0.17218">
        <ele>2460.63</ele>
        <time>2012-02-11T12:39:42Z</time>
      </trkpt>
      <trkpt lat="42.87355" lon="0.17219">
        <ele>2456.31</ele>
        <time>2012-02-11T12:39:46Z</time>
      </trkpt>
      <trkpt lat="42.87355" lon="0.17219">
        <ele>2455.34</ele>
        <time>2012-02-11T12:39:47Z</time>
      </trkpt>
      <trkpt lat="42.87348" lon="0.17217">
        <ele>2451.02</ele>
        <time>2012-02-11T12:39:50Z</time>
      </trkpt>
      <trkpt lat="42.87348" lon="0.17217">
        <ele>2451.5</ele>
        <time>2012-02-11T12:39:51Z</time>
      </trkpt>
      <trkpt lat="42.87348" lon="0.17218">
        <ele>2451.02</ele>
        <time>2012-02-11T12:39:58Z</time>
      </trkpt>
      <trkpt lat="42.8734" lon="0.17217">
        <ele>2448.13</ele>
        <time>2012-02-11T12:40:02Z</time>
      </trkpt>
      <trkpt lat="42.8734" lon="0.17217">
        <ele>2447.17</ele>
        <time>2012-02-11T12:40:09Z</time>
      </trkpt>
      <trkpt lat="42.8733" lon="0.17224">
        <ele>2440.92</ele>
        <time>2012-02-11T12:40:13Z</time>
      </trkpt>
      <trkpt lat="42.87328" lon="0.17222">
        <ele>2439.96</ele>
        <time>2012-02-11T12:40:15Z</time>
      </trkpt>
      <trkpt lat="42.87326" lon="0.17223">
        <ele>2439</ele>
        <time>2012-02-11T12:40:29Z</time>
      </trkpt>
      <trkpt lat="42.87324" lon="0.17223">
        <ele>2437.56</ele>
        <time>2012-02-11T12:40:32Z</time>
      </trkpt>
      <trkpt lat="42.87325" lon="0.17224">
        <ele>2437.08</ele>
        <time>2012-02-11T12:40:38Z</time>
      </trkpt>
      <trkpt lat="42.87316" lon="0.17224">
        <ele>2433.71</ele>
        <time>2012-02-11T12:40:41Z</time>
      </trkpt>
      <trkpt lat="42.87313" lon="0.17223">
        <ele>2432.75</ele>
        <time>2012-02-11T12:40:42Z</time>
      </trkpt>
      <trkpt lat="42.87299" lon="0.1722">
        <ele>2428.91</ele>
        <time>2012-02-11T12:40:45Z</time>
      </trkpt>
      <trkpt lat="42.87293" lon="0.17217">
        <ele>2426.5</ele>
        <time>2012-02-11T12:40:47Z</time>
      </trkpt>
      <trkpt lat="42.87286" lon="0.17213">
        <ele>2425.06</ele>
        <time>2012-02-11T12:40:50Z</time>
      </trkpt>
      <trkpt lat="42.87278" lon="0.17221">
        <ele>2420.74</ele>
        <time>2012-02-11T12:40:54Z</time>
      </trkpt>
      <trkpt lat="42.87277" lon="0.17238">
        <ele>2416.41</ele>
        <time>2012-02-11T12:40:57Z</time>
      </trkpt>
      <trkpt lat="42.8728" lon="0.17247">
        <ele>2411.12</ele>
        <time>2012-02-11T12:40:59Z</time>
      </trkpt>
      <trkpt lat="42.87278" lon="0.17259">
        <ele>2407.76</ele>
        <time>2012-02-11T12:41:02Z</time>
      </trkpt>
      <trkpt lat="42.87275" lon="0.17273">
        <ele>2404.39</ele>
        <time>2012-02-11T12:41:04Z</time>
      </trkpt>
      <trkpt lat="42.87273" lon="0.17281">
        <ele>2400.07</ele>
        <time>2012-02-11T12:41:05Z</time>
      </trkpt>
      <trkpt lat="42.87271" lon="0.17294">
        <ele>2393.82</ele>
        <time>2012-02-11T12:41:07Z</time>
      </trkpt>
      <trkpt lat="42.87268" lon="0.17307">
        <ele>2389.01</ele>
        <time>2012-02-11T12:41:09Z</time>
      </trkpt>
      <trkpt lat="42.87268" lon="0.17314">
        <ele>2386.61</ele>
        <time>2012-02-11T12:41:10Z</time>
      </trkpt>
      <trkpt lat="42.87272" lon="0.17329">
        <ele>2379.4</ele>
        <time>2012-02-11T12:41:14Z</time>
      </trkpt>
      <trkpt lat="42.87272" lon="0.17329">
        <ele>2379.4</ele>
        <time>2012-02-11T12:41:26Z</time>
      </trkpt>
      <trkpt lat="42.87272" lon="0.17329">
        <ele>2378.44</ele>
        <time>2012-02-11T12:41:39Z</time>
      </trkpt>
      <trkpt lat="42.87268" lon="0.1734">
        <ele>2375.55</ele>
        <time>2012-02-11T12:41:42Z</time>
      </trkpt>
      <trkpt lat="42.87261" lon="0.17356">
        <ele>2371.71</ele>
        <time>2012-02-11T12:41:45Z</time>
      </trkpt>
      <trkpt lat="42.8726" lon="0.17363">
        <ele>2368.35</ele>
        <time>2012-02-11T12:41:46Z</time>
      </trkpt>
      <trkpt lat="42.87257" lon="0.17379">
        <ele>2364.02</ele>
        <time>2012-02-11T12:41:48Z</time>
      </trkpt>
      <trkpt lat="42.87256" lon="0.17395">
        <ele>2358.73</ele>
        <time>2012-02-11T12:41:50Z</time>
      </trkpt>
      <trkpt lat="42.87255" lon="0.17411">
        <ele>2354.41</ele>
        <time>2012-02-11T12:41:52Z</time>
      </trkpt>
      <trkpt lat="42.8725" lon="0.17443">
        <ele>2342.39</ele>
        <time>2012-02-11T12:41:56Z</time>
      </trkpt>
      <trkpt lat="42.87247" lon="0.1745">
        <ele>2337.1</ele>
        <time>2012-02-11T12:41:57Z</time>
      </trkpt>
      <trkpt lat="42.87243" lon="0.17457">
        <ele>2333.74</ele>
        <time>2012-02-11T12:41:58Z</time>
      </trkpt>
      <trkpt lat="42.8724" lon="0.17462">
        <ele>2330.37</ele>
        <time>2012-02-11T12:41:59Z</time>
      </trkpt>
      <trkpt lat="42.87235" lon="0.17461">
        <ele>2326.53</ele>
        <time>2012-02-11T12:42:01Z</time>
      </trkpt>
      <trkpt lat="42.87234" lon="0.1746">
        <ele>2327.01</ele>
        <time>2012-02-11T12:42:02Z</time>
      </trkpt>
      <trkpt lat="42.87234" lon="0.17461">
        <ele>2326.53</ele>
        <time>2012-02-11T12:42:15Z</time>
      </trkpt>
      <trkpt lat="42.87235" lon="0.1746">
        <ele>2327.01</ele>
        <time>2012-02-11T12:42:32Z</time>
      </trkpt>
      <trkpt lat="42.87235" lon="0.1746">
        <ele>2327.01</ele>
        <time>2012-02-11T12:43:04Z</time>
      </trkpt>
      <trkpt lat="42.87225" lon="0.17466">
        <ele>2322.2</ele>
        <time>2012-02-11T12:43:09Z</time>
      </trkpt>
      <trkpt lat="42.87217" lon="0.17464">
        <ele>2317.4</ele>
        <time>2012-02-11T12:43:12Z</time>
      </trkpt>
      <trkpt lat="42.87207" lon="0.17462">
        <ele>2314.03</ele>
        <time>2012-02-11T12:43:14Z</time>
      </trkpt>
      <trkpt lat="42.87202" lon="0.17466">
        <ele>2311.15</ele>
        <time>2012-02-11T12:43:15Z</time>
      </trkpt>
      <trkpt lat="42.87197" lon="0.17471">
        <ele>2307.3</ele>
        <time>2012-02-11T12:43:16Z</time>
      </trkpt>
      <trkpt lat="42.87187" lon="0.17479">
        <ele>2302.01</ele>
        <time>2012-02-11T12:43:18Z</time>
      </trkpt>
      <trkpt lat="42.87182" lon="0.17482">
        <ele>2298.17</ele>
        <time>2012-02-11T12:43:19Z</time>
      </trkpt>
      <trkpt lat="42.87177" lon="0.17486">
        <ele>2295.28</ele>
        <time>2012-02-11T12:43:20Z</time>
      </trkpt>
      <trkpt lat="42.87172" lon="0.17491">
        <ele>2290.96</ele>
        <time>2012-02-11T12:43:21Z</time>
      </trkpt>
      <trkpt lat="42.87167" lon="0.17496">
        <ele>2285.67</ele>
        <time>2012-02-11T12:43:22Z</time>
      </trkpt>
      <trkpt lat="42.87156" lon="0.17505">
        <ele>2280.38</ele>
        <time>2012-02-11T12:43:24Z</time>
      </trkpt>
      <trkpt lat="42.87145" lon="0.17515">
        <ele>2274.62</ele>
        <time>2012-02-11T12:43:26Z</time>
      </trkpt>
      <trkpt lat="42.8714" lon="0.17519">
        <ele>2270.77</ele>
        <time>2012-02-11T12:43:27Z</time>
      </trkpt>
      <trkpt lat="42.87132" lon="0.1753">
        <ele>2264.52</ele>
        <time>2012-02-11T12:43:29Z</time>
      </trkpt>
      <trkpt lat="42.87124" lon="0.17545">
        <ele>2259.24</ele>
        <time>2012-02-11T12:43:31Z</time>
      </trkpt>
      <trkpt lat="42.87115" lon="0.1756">
        <ele>2254.91</ele>
        <time>2012-02-11T12:43:33Z</time>
      </trkpt>
      <trkpt lat="42.87106" lon="0.17575">
        <ele>2250.1</ele>
        <time>2012-02-11T12:43:35Z</time>
      </trkpt>
      <trkpt lat="42.87097" lon="0.17596">
        <ele>2245.78</ele>
        <time>2012-02-11T12:43:37Z</time>
      </trkpt>
      <trkpt lat="42.87091" lon="0.17625">
        <ele>2241.93</ele>
        <time>2012-02-11T12:43:42Z</time>
      </trkpt>
      <trkpt lat="42.87091" lon="0.17625">
        <ele>2242.89</ele>
        <time>2012-02-11T12:43:49Z</time>
      </trkpt>
      <trkpt lat="42.87091" lon="0.17628">
        <ele>2241.93</ele>
        <time>2012-02-11T12:43:57Z</time>
      </trkpt>
      <trkpt lat="42.87091" lon="0.17627">
        <ele>2242.89</ele>
        <time>2012-02-11T12:44:09Z</time>
      </trkpt>
      <trkpt lat="42.87091" lon="0.17628">
        <ele>2242.41</ele>
        <time>2012-02-11T12:44:23Z</time>
      </trkpt>
      <trkpt lat="42.87091" lon="0.17628">
        <ele>2242.41</ele>
        <time>2012-02-11T12:44:37Z</time>
      </trkpt>
      <trkpt lat="42.87089" lon="0.17632">
        <ele>2242.41</ele>
        <time>2012-02-11T12:44:48Z</time>
      </trkpt>
      <trkpt lat="42.87088" lon="0.17635">
        <ele>2242.41</ele>
        <time>2012-02-11T12:44:58Z</time>
      </trkpt>
      <trkpt lat="42.87087" lon="0.17634">
        <ele>2243.37</ele>
        <time>2012-02-11T12:45:12Z</time>
      </trkpt>
      <trkpt lat="42.87088" lon="0.17632">
        <ele>2240.97</ele>
        <time>2012-02-11T12:45:20Z</time>
      </trkpt>
      <trkpt lat="42.87088" lon="0.17632">
        <ele>2237.61</ele>
        <time>2012-02-11T12:45:24Z</time>
      </trkpt>
      <trkpt lat="42.87088" lon="0.17632">
        <ele>2240.01</ele>
        <time>2012-02-11T12:45:25Z</time>
      </trkpt>
      <trkpt lat="42.87088" lon="0.17632">
        <ele>2240.97</ele>
        <time>2012-02-11T12:45:27Z</time>
      </trkpt>
      <trkpt lat="42.87088" lon="0.17632">
        <ele>2241.45</ele>
        <time>2012-02-11T12:45:56Z</time>
      </trkpt>
      <trkpt lat="42.87088" lon="0.17632">
        <ele>2240.01</ele>
        <time>2012-02-11T12:46:21Z</time>
      </trkpt>
      <trkpt lat="42.87088" lon="0.17632">
        <ele>2240.97</ele>
        <time>2012-02-11T12:46:52Z</time>
      </trkpt>
      <trkpt lat="42.87088" lon="0.17632">
        <ele>2240.97</ele>
        <time>2012-02-11T12:47:26Z</time>
      </trkpt>
      <trkpt lat="42.87088" lon="0.17632">
        <ele>2240.49</ele>
        <time>2012-02-11T12:48:03Z</time>
      </trkpt>
      <trkpt lat="42.87088" lon="0.17632">
        <ele>2241.45</ele>
        <time>2012-02-11T12:48:37Z</time>
      </trkpt>
      <trkpt lat="42.87088" lon="0.17633">
        <ele>2240.97</ele>
        <time>2012-02-11T12:49:05Z</time>
      </trkpt>
      <trkpt lat="42.87087" lon="0.17634">
        <ele>2240.97</ele>
        <time>2012-02-11T12:49:42Z</time>
      </trkpt>
      <trkpt lat="42.87087" lon="0.17633">
        <ele>2240.97</ele>
        <time>2012-02-11T12:50:16Z</time>
      </trkpt>
      <trkpt lat="42.87087" lon="0.17633">
        <ele>2243.37</ele>
        <time>2012-02-11T12:50:39Z</time>
      </trkpt>
      <trkpt lat="42.87087" lon="0.17633">
        <ele>2241.45</ele>
        <time>2012-02-11T12:51:07Z</time>
      </trkpt>
      <trkpt lat="42.87087" lon="0.17634">
        <ele>2242.41</ele>
        <time>2012-02-11T12:51:24Z</time>
      </trkpt>
      <trkpt lat="42.87087" lon="0.17634">
        <ele>2240.97</ele>
        <time>2012-02-11T12:51:32Z</time>
      </trkpt>
      <trkpt lat="42.87087" lon="0.17634">
        <ele>2242.41</ele>
        <time>2012-02-11T12:51:34Z</time>
      </trkpt>
      <trkpt lat="42.87087" lon="0.17634">
        <ele>2241.93</ele>
        <time>2012-02-11T12:52:09Z</time>
      </trkpt>
      <trkpt lat="42.87087" lon="0.17634">
        <ele>2245.78</ele>
        <time>2012-02-11T12:52:10Z</time>
      </trkpt>
      <trkpt lat="42.87087" lon="0.17634">
        <ele>2243.37</ele>
        <time>2012-02-11T12:52:18Z</time>
      </trkpt>
      <trkpt lat="42.87087" lon="0.17634">
        <ele>2243.37</ele>
        <time>2012-02-11T12:52:39Z</time>
      </trkpt>
      <trkpt lat="42.87086" lon="0.17636">
        <ele>2243.85</ele>
        <time>2012-02-11T12:53:00Z</time>
      </trkpt>
      <trkpt lat="42.87086" lon="0.17638">
        <ele>2244.33</ele>
        <time>2012-02-11T12:53:03Z</time>
      </trkpt>
      <trkpt lat="42.87081" lon="0.1764">
        <ele>2243.85</ele>
        <time>2012-02-11T12:53:08Z</time>
      </trkpt>
      <trkpt lat="42.8708" lon="0.17644">
        <ele>2244.82</ele>
        <time>2012-02-11T12:53:24Z</time>
      </trkpt>
      <trkpt lat="42.87077" lon="0.17647">
        <ele>2244.33</ele>
        <time>2012-02-11T12:53:28Z</time>
      </trkpt>
      <trkpt lat="42.87074" lon="0.1765">
        <ele>2244.33</ele>
        <time>2012-02-11T12:53:30Z</time>
      </trkpt>
      <trkpt lat="42.87071" lon="0.17659">
        <ele>2244.33</ele>
        <time>2012-02-11T12:53:37Z</time>
      </trkpt>
      <trkpt lat="42.87066" lon="0.17671">
        <ele>2244.82</ele>
        <time>2012-02-11T12:53:46Z</time>
      </trkpt>
      <trkpt lat="42.87063" lon="0.17675">
        <ele>2244.33</ele>
        <time>2012-02-11T12:53:49Z</time>
      </trkpt>
      <trkpt lat="42.87063" lon="0.17677">
        <ele>2243.85</ele>
        <time>2012-02-11T12:53:51Z</time>
      </trkpt>
      <trkpt lat="42.87061" lon="0.17692">
        <ele>2244.82</ele>
        <time>2012-02-11T12:54:01Z</time>
      </trkpt>
      <trkpt lat="42.8706" lon="0.17695">
        <ele>2244.82</ele>
        <time>2012-02-11T12:54:03Z</time>
      </trkpt>
      <trkpt lat="42.87054" lon="0.17706">
        <ele>2244.33</ele>
        <time>2012-02-11T12:54:13Z</time>
      </trkpt>
      <trkpt lat="42.87049" lon="0.17718">
        <ele>2244.33</ele>
        <time>2012-02-11T12:54:25Z</time>
      </trkpt>
      <trkpt lat="42.87041" lon="0.17733">
        <ele>2244.33</ele>
        <time>2012-02-11T12:54:39Z</time>
      </trkpt>
      <trkpt lat="42.8704" lon="0.17736">
        <ele>2244.33</ele>
        <time>2012-02-11T12:54:42Z</time>
      </trkpt>
      <trkpt lat="42.87037" lon="0.17751">
        <ele>2244.33</ele>
        <time>2012-02-11T12:54:50Z</time>
      </trkpt>
      <trkpt lat="42.87036" lon="0.17756">
        <ele>2243.85</ele>
        <time>2012-02-11T12:54:56Z</time>
      </trkpt>
      <trkpt lat="42.87036" lon="0.17759">
        <ele>2243.85</ele>
        <time>2012-02-11T12:54:58Z</time>
      </trkpt>
      <trkpt lat="42.87034" lon="0.17763">
        <ele>2244.82</ele>
        <time>2012-02-11T12:55:03Z</time>
      </trkpt>
      <trkpt lat="42.87032" lon="0.17767">
        <ele>2244.33</ele>
        <time>2012-02-11T12:55:06Z</time>
      </trkpt>
      <trkpt lat="42.87026" lon="0.17782">
        <ele>2244.33</ele>
        <time>2012-02-11T12:55:21Z</time>
      </trkpt>
      <trkpt lat="42.87023" lon="0.17787">
        <ele>2244.33</ele>
        <time>2012-02-11T12:55:25Z</time>
      </trkpt>
      <trkpt lat="42.87017" lon="0.17804">
        <ele>2245.3</ele>
        <time>2012-02-11T12:55:40Z</time>
      </trkpt>
      <trkpt lat="42.87015" lon="0.17808">
        <ele>2244.82</ele>
        <time>2012-02-11T12:55:43Z</time>
      </trkpt>
      <trkpt lat="42.87013" lon="0.17818">
        <ele>2244.82</ele>
        <time>2012-02-11T12:55:55Z</time>
      </trkpt>
      <trkpt lat="42.87012" lon="0.17829">
        <ele>2246.74</ele>
        <time>2012-02-11T12:56:09Z</time>
      </trkpt>
      <trkpt lat="42.8701" lon="0.17835">
        <ele>2246.26</ele>
        <time>2012-02-11T12:56:14Z</time>
      </trkpt>
      <trkpt lat="42.87007" lon="0.17838">
        <ele>2245.78</ele>
        <time>2012-02-11T12:56:17Z</time>
      </trkpt>
      <trkpt lat="42.87004" lon="0.17852">
        <ele>2244.82</ele>
        <time>2012-02-11T12:56:30Z</time>
      </trkpt>
      <trkpt lat="42.87003" lon="0.17856">
        <ele>2243.85</ele>
        <time>2012-02-11T12:56:33Z</time>
      </trkpt>
      <trkpt lat="42.86999" lon="0.1787">
        <ele>2243.85</ele>
        <time>2012-02-11T12:56:44Z</time>
      </trkpt>
      <trkpt lat="42.86997" lon="0.17877">
        <ele>2244.33</ele>
        <time>2012-02-11T12:56:52Z</time>
      </trkpt>
      <trkpt lat="42.86994" lon="0.17889">
        <ele>2244.33</ele>
        <time>2012-02-11T12:57:01Z</time>
      </trkpt>
      <trkpt lat="42.86993" lon="0.17892">
        <ele>2243.85</ele>
        <time>2012-02-11T12:57:04Z</time>
      </trkpt>
      <trkpt lat="42.86993" lon="0.17898">
        <ele>2243.85</ele>
        <time>2012-02-11T12:57:08Z</time>
      </trkpt>
      <trkpt lat="42.86991" lon="0.17902">
        <ele>2243.85</ele>
        <time>2012-02-11T12:57:14Z</time>
      </trkpt>
      <trkpt lat="42.86992" lon="0.17908">
        <ele>2244.33</ele>
        <time>2012-02-11T12:57:17Z</time>
      </trkpt>
      <trkpt lat="42.86992" lon="0.17918">
        <ele>2244.33</ele>
        <time>2012-02-11T12:57:24Z</time>
      </trkpt>
      <trkpt lat="42.8699" lon="0.17926">
        <ele>2243.85</ele>
        <time>2012-02-11T12:57:31Z</time>
      </trkpt>
      <trkpt lat="42.86991" lon="0.17932">
        <ele>2243.85</ele>
        <time>2012-02-11T12:57:46Z</time>
      </trkpt>
      <trkpt lat="42.86991" lon="0.17932">
        <ele>2243.85</ele>
        <time>2012-02-11T12:58:00Z</time>
      </trkpt>
      <trkpt lat="42.8699" lon="0.17938">
        <ele>2243.85</ele>
        <time>2012-02-11T12:58:13Z</time>
      </trkpt>
      <trkpt lat="42.86989" lon="0.1794">
        <ele>2244.33</ele>
        <time>2012-02-11T12:58:33Z</time>
      </trkpt>
      <trkpt lat="42.86988" lon="0.17957">
        <ele>2244.33</ele>
        <time>2012-02-11T12:58:45Z</time>
      </trkpt>
      <trkpt lat="42.86988" lon="0.17958">
        <ele>2244.33</ele>
        <time>2012-02-11T12:58:46Z</time>
      </trkpt>
      <trkpt lat="42.86986" lon="0.17965">
        <ele>2244.33</ele>
        <time>2012-02-11T12:58:53Z</time>
      </trkpt>
      <trkpt lat="42.86985" lon="0.17972">
        <ele>2244.82</ele>
        <time>2012-02-11T12:59:02Z</time>
      </trkpt>
      <trkpt lat="42.86979" lon="0.17987">
        <ele>2244.33</ele>
        <time>2012-02-11T12:59:16Z</time>
      </trkpt>
      <trkpt lat="42.86977" lon="0.17988">
        <ele>2244.33</ele>
        <time>2012-02-11T12:59:32Z</time>
      </trkpt>
      <trkpt lat="42.86975" lon="0.1799">
        <ele>2243.85</ele>
        <time>2012-02-11T12:59:35Z</time>
      </trkpt>
      <trkpt lat="42.86972" lon="0.17991">
        <ele>2243.85</ele>
        <time>2012-02-11T12:59:38Z</time>
      </trkpt>
      <trkpt lat="42.86967" lon="0.17994">
        <ele>2244.33</ele>
        <time>2012-02-11T12:59:45Z</time>
      </trkpt>
      <trkpt lat="42.86966" lon="0.17996">
        <ele>2244.33</ele>
        <time>2012-02-11T12:59:47Z</time>
      </trkpt>
      <trkpt lat="42.86963" lon="0.17998">
        <ele>2244.82</ele>
        <time>2012-02-11T12:59:51Z</time>
      </trkpt>
      <trkpt lat="42.8696" lon="0.18">
        <ele>2245.3</ele>
        <time>2012-02-11T12:59:59Z</time>
      </trkpt>
      <trkpt lat="42.86958" lon="0.18005">
        <ele>2246.74</ele>
        <time>2012-02-11T13:00:07Z</time>
      </trkpt>
      <trkpt lat="42.86955" lon="0.18009">
        <ele>2247.22</ele>
        <time>2012-02-11T13:00:16Z</time>
      </trkpt>
      <trkpt lat="42.86951" lon="0.18012">
        <ele>2247.7</ele>
        <time>2012-02-11T13:00:23Z</time>
      </trkpt>
      <trkpt lat="42.86948" lon="0.18014">
        <ele>2248.18</ele>
        <time>2012-02-11T13:00:32Z</time>
      </trkpt>
      <trkpt lat="42.86946" lon="0.18017">
        <ele>2248.18</ele>
        <time>2012-02-11T13:00:45Z</time>
      </trkpt>
      <trkpt lat="42.86942" lon="0.18019">
        <ele>2247.7</ele>
        <time>2012-02-11T13:00:50Z</time>
      </trkpt>
      <trkpt lat="42.86937" lon="0.18021">
        <ele>2248.18</ele>
        <time>2012-02-11T13:00:57Z</time>
      </trkpt>
      <trkpt lat="42.8693" lon="0.18025">
        <ele>2248.66</ele>
        <time>2012-02-11T13:01:08Z</time>
      </trkpt>
      <trkpt lat="42.86924" lon="0.18029">
        <ele>2249.14</ele>
        <time>2012-02-11T13:01:15Z</time>
      </trkpt>
      <trkpt lat="42.8692" lon="0.18032">
        <ele>2248.18</ele>
        <time>2012-02-11T13:01:29Z</time>
      </trkpt>
      <trkpt lat="42.86915" lon="0.18038">
        <ele>2247.22</ele>
        <time>2012-02-11T13:01:51Z</time>
      </trkpt>
      <trkpt lat="42.86913" lon="0.18041">
        <ele>2246.74</ele>
        <time>2012-02-11T13:02:05Z</time>
      </trkpt>
      <trkpt lat="42.86913" lon="0.18041">
        <ele>2247.22</ele>
        <time>2012-02-11T13:02:22Z</time>
      </trkpt>
      <trkpt lat="42.86913" lon="0.18041">
        <ele>2247.22</ele>
        <time>2012-02-11T13:02:33Z</time>
      </trkpt>
      <trkpt lat="42.86907" lon="0.18046">
        <ele>2246.74</ele>
        <time>2012-02-11T13:02:42Z</time>
      </trkpt>
      <trkpt lat="42.86905" lon="0.18048">
        <ele>2246.74</ele>
        <time>2012-02-11T13:02:44Z</time>
      </trkpt>
      <trkpt lat="42.86895" lon="0.18053">
        <ele>2244.82</ele>
        <time>2012-02-11T13:02:57Z</time>
      </trkpt>
      <trkpt lat="42.86893" lon="0.18057">
        <ele>2244.33</ele>
        <time>2012-02-11T13:03:12Z</time>
      </trkpt>
      <trkpt lat="42.86893" lon="0.18056">
        <ele>2244.33</ele>
        <time>2012-02-11T13:03:28Z</time>
      </trkpt>
      <trkpt lat="42.86893" lon="0.18056">
        <ele>2243.85</ele>
        <time>2012-02-11T13:03:50Z</time>
      </trkpt>
      <trkpt lat="42.86891" lon="0.1806">
        <ele>2243.85</ele>
        <time>2012-02-11T13:04:15Z</time>
      </trkpt>
      <trkpt lat="42.86889" lon="0.1806">
        <ele>2243.85</ele>
        <time>2012-02-11T13:04:16Z</time>
      </trkpt>
      <trkpt lat="42.86872" lon="0.18074">
        <ele>2240.97</ele>
        <time>2012-02-11T13:04:24Z</time>
      </trkpt>
      <trkpt lat="42.86857" lon="0.18095">
        <ele>2235.68</ele>
        <time>2012-02-11T13:04:28Z</time>
      </trkpt>
      <trkpt lat="42.86843" lon="0.18115">
        <ele>2232.32</ele>
        <time>2012-02-11T13:04:32Z</time>
      </trkpt>
      <trkpt lat="42.86831" lon="0.18133">
        <ele>2227.99</ele>
        <time>2012-02-11T13:04:35Z</time>
      </trkpt>
      <trkpt lat="42.86817" lon="0.18153">
        <ele>2223.67</ele>
        <time>2012-02-11T13:04:38Z</time>
      </trkpt>
      <trkpt lat="42.86812" lon="0.18161">
        <ele>2222.22</ele>
        <time>2012-02-11T13:04:39Z</time>
      </trkpt>
      <trkpt lat="42.86802" lon="0.18187">
        <ele>2217.42</ele>
        <time>2012-02-11T13:04:42Z</time>
      </trkpt>
      <trkpt lat="42.86798" lon="0.18218">
        <ele>2212.13</ele>
        <time>2012-02-11T13:04:45Z</time>
      </trkpt>
      <trkpt lat="42.86798" lon="0.18236">
        <ele>2211.65</ele>
        <time>2012-02-11T13:04:47Z</time>
      </trkpt>
      <trkpt lat="42.86798" lon="0.18249">
        <ele>2210.69</ele>
        <time>2012-02-11T13:04:49Z</time>
      </trkpt>
      <trkpt lat="42.86797" lon="0.18253">
        <ele>2211.17</ele>
        <time>2012-02-11T13:04:57Z</time>
      </trkpt>
      <trkpt lat="42.86797" lon="0.18254">
        <ele>2211.17</ele>
        <time>2012-02-11T13:04:59Z</time>
      </trkpt>
      <trkpt lat="42.86795" lon="0.18258">
        <ele>2211.17</ele>
        <time>2012-02-11T13:05:05Z</time>
      </trkpt>
      <trkpt lat="42.86795" lon="0.18262">
        <ele>2211.17</ele>
        <time>2012-02-11T13:05:09Z</time>
      </trkpt>
      <trkpt lat="42.86793" lon="0.18268">
        <ele>2211.65</ele>
        <time>2012-02-11T13:05:18Z</time>
      </trkpt>
      <trkpt lat="42.86794" lon="0.1827">
        <ele>2213.09</ele>
        <time>2012-02-11T13:05:28Z</time>
      </trkpt>
      <trkpt lat="42.86795" lon="0.18273">
        <ele>2213.09</ele>
        <time>2012-02-11T13:05:30Z</time>
      </trkpt>
      <trkpt lat="42.86794" lon="0.18277">
        <ele>2213.09</ele>
        <time>2012-02-11T13:05:40Z</time>
      </trkpt>
      <trkpt lat="42.86793" lon="0.18278">
        <ele>2213.09</ele>
        <time>2012-02-11T13:05:41Z</time>
      </trkpt>
      <trkpt lat="42.86792" lon="0.1828">
        <ele>2213.09</ele>
        <time>2012-02-11T13:05:52Z</time>
      </trkpt>
      <trkpt lat="42.86792" lon="0.1828">
        <ele>2213.09</ele>
        <time>2012-02-11T13:06:15Z</time>
      </trkpt>
      <trkpt lat="42.86792" lon="0.1828">
        <ele>2213.09</ele>
        <time>2012-02-11T13:06:27Z</time>
      </trkpt>
      <trkpt lat="42.86792" lon="0.18281">
        <ele>2213.57</ele>
        <time>2012-02-11T13:06:46Z</time>
      </trkpt>
      <trkpt lat="42.86792" lon="0.18281">
        <ele>2212.61</ele>
        <time>2012-02-11T13:07:09Z</time>
      </trkpt>
      <trkpt lat="42.86792" lon="0.18281">
        <ele>2212.13</ele>
        <time>2012-02-11T13:07:20Z</time>
      </trkpt>
      <trkpt lat="42.8679" lon="0.18283">
        <ele>2212.61</ele>
        <time>2012-02-11T13:07:24Z</time>
      </trkpt>
      <trkpt lat="42.8679" lon="0.18289">
        <ele>2212.13</ele>
        <time>2012-02-11T13:07:29Z</time>
      </trkpt>
      <trkpt lat="42.86789" lon="0.18306">
        <ele>2209.73</ele>
        <time>2012-02-11T13:07:33Z</time>
      </trkpt>
      <trkpt lat="42.86789" lon="0.18344">
        <ele>2204.92</ele>
        <time>2012-02-11T13:07:37Z</time>
      </trkpt>
      <trkpt lat="42.86787" lon="0.18361">
        <ele>2205.88</ele>
        <time>2012-02-11T13:07:44Z</time>
      </trkpt>
      <trkpt lat="42.86786" lon="0.18365">
        <ele>2205.4</ele>
        <time>2012-02-11T13:07:48Z</time>
      </trkpt>
      <trkpt lat="42.86777" lon="0.18388">
        <ele>2202.52</ele>
        <time>2012-02-11T13:08:01Z</time>
      </trkpt>
      <trkpt lat="42.86769" lon="0.18404">
        <ele>2200.59</ele>
        <time>2012-02-11T13:08:04Z</time>
      </trkpt>
      <trkpt lat="42.86766" lon="0.1841">
        <ele>2200.11</ele>
        <time>2012-02-11T13:08:05Z</time>
      </trkpt>
      <trkpt lat="42.86757" lon="0.18434">
        <ele>2196.27</ele>
        <time>2012-02-11T13:08:08Z</time>
      </trkpt>
      <trkpt lat="42.86744" lon="0.1847">
        <ele>2192.9</ele>
        <time>2012-02-11T13:08:13Z</time>
      </trkpt>
      <trkpt lat="42.86738" lon="0.18483">
        <ele>2193.39</ele>
        <time>2012-02-11T13:08:20Z</time>
      </trkpt>
      <trkpt lat="42.86738" lon="0.18484">
        <ele>2192.9</ele>
        <time>2012-02-11T13:08:50Z</time>
      </trkpt>
      <trkpt lat="42.86733" lon="0.18489">
        <ele>2193.39</ele>
        <time>2012-02-11T13:08:58Z</time>
      </trkpt>
      <trkpt lat="42.86731" lon="0.18496">
        <ele>2193.39</ele>
        <time>2012-02-11T13:09:06Z</time>
      </trkpt>
      <trkpt lat="42.86731" lon="0.18501">
        <ele>2193.87</ele>
        <time>2012-02-11T13:09:10Z</time>
      </trkpt>
      <trkpt lat="42.86728" lon="0.18506">
        <ele>2193.87</ele>
        <time>2012-02-11T13:09:21Z</time>
      </trkpt>
      <trkpt lat="42.86727" lon="0.18506">
        <ele>2193.87</ele>
        <time>2012-02-11T13:09:25Z</time>
      </trkpt>
      <trkpt lat="42.86725" lon="0.18514">
        <ele>2194.35</ele>
        <time>2012-02-11T13:09:34Z</time>
      </trkpt>
      <trkpt lat="42.86722" lon="0.18518">
        <ele>2194.35</ele>
        <time>2012-02-11T13:09:45Z</time>
      </trkpt>
      <trkpt lat="42.86722" lon="0.18519">
        <ele>2194.83</ele>
        <time>2012-02-11T13:09:54Z</time>
      </trkpt>
      <trkpt lat="42.86721" lon="0.1852">
        <ele>2194.83</ele>
        <time>2012-02-11T13:10:13Z</time>
      </trkpt>
      <trkpt lat="42.86722" lon="0.18522">
        <ele>2193.39</ele>
        <time>2012-02-11T13:10:25Z</time>
      </trkpt>
      <trkpt lat="42.86722" lon="0.18522">
        <ele>2201.08</ele>
        <time>2012-02-11T13:10:27Z</time>
      </trkpt>
      <trkpt lat="42.86722" lon="0.18522">
        <ele>2191.94</ele>
        <time>2012-02-11T13:10:28Z</time>
      </trkpt>
      <trkpt lat="42.86722" lon="0.18522">
        <ele>2193.39</ele>
        <time>2012-02-11T13:10:58Z</time>
      </trkpt>
      <trkpt lat="42.86722" lon="0.18522">
        <ele>2193.87</ele>
        <time>2012-02-11T13:11:28Z</time>
      </trkpt>
      <trkpt lat="42.86722" lon="0.18522">
        <ele>2193.87</ele>
        <time>2012-02-11T13:11:56Z</time>
      </trkpt>
      <trkpt lat="42.86722" lon="0.18522">
        <ele>2193.87</ele>
        <time>2012-02-11T13:12:24Z</time>
      </trkpt>
      <trkpt lat="42.86722" lon="0.18522">
        <ele>2193.87</ele>
        <time>2012-02-11T13:12:48Z</time>
      </trkpt>
      <trkpt lat="42.86722" lon="0.18522">
        <ele>2193.87</ele>
        <time>2012-02-11T13:13:18Z</time>
      </trkpt>
      <trkpt lat="42.86722" lon="0.18522">
        <ele>2193.87</ele>
        <time>2012-02-11T13:13:44Z</time>
      </trkpt>
      <trkpt lat="42.86722" lon="0.18522">
        <ele>2194.35</ele>
        <time>2012-02-11T13:14:06Z</time>
      </trkpt>
      <trkpt lat="42.86722" lon="0.18521">
        <ele>2194.83</ele>
        <time>2012-02-11T13:14:25Z</time>
      </trkpt>
      <trkpt lat="42.86722" lon="0.18521">
        <ele>2193.39</ele>
        <time>2012-02-11T13:14:49Z</time>
      </trkpt>
      <trkpt lat="42.86722" lon="0.18521">
        <ele>2194.35</ele>
        <time>2012-02-11T13:15:14Z</time>
      </trkpt>
      <trkpt lat="42.86722" lon="0.18521">
        <ele>2193.87</ele>
        <time>2012-02-11T13:15:36Z</time>
      </trkpt>
      <trkpt lat="42.86722" lon="0.18521">
        <ele>2193.87</ele>
        <time>2012-02-11T13:16:04Z</time>
      </trkpt>
      <trkpt lat="42.86722" lon="0.18521">
        <ele>2194.35</ele>
        <time>2012-02-11T13:16:27Z</time>
      </trkpt>
      <trkpt lat="42.86722" lon="0.18521">
        <ele>2193.39</ele>
        <time>2012-02-11T13:17:01Z</time>
      </trkpt>
      <trkpt lat="42.86722" lon="0.18521">
        <ele>2193.39</ele>
        <time>2012-02-11T13:17:34Z</time>
      </trkpt>
      <trkpt lat="42.86722" lon="0.18521">
        <ele>2194.35</ele>
        <time>2012-02-11T13:17:58Z</time>
      </trkpt>
      <trkpt lat="42.86722" lon="0.18521">
        <ele>2190.5</ele>
        <time>2012-02-11T13:18:12Z</time>
      </trkpt>
      <trkpt lat="42.86722" lon="0.18521">
        <ele>2196.75</ele>
        <time>2012-02-11T13:18:13Z</time>
      </trkpt>
      <trkpt lat="42.86722" lon="0.18521">
        <ele>2195.31</ele>
        <time>2012-02-11T13:18:14Z</time>
      </trkpt>
      <trkpt lat="42.86722" lon="0.18521">
        <ele>2190.5</ele>
        <time>2012-02-11T13:18:15Z</time>
      </trkpt>
      <trkpt lat="42.86722" lon="0.18521">
        <ele>2193.87</ele>
        <time>2012-02-11T13:18:16Z</time>
      </trkpt>
      <trkpt lat="42.86722" lon="0.18521">
        <ele>2190.02</ele>
        <time>2012-02-11T13:18:20Z</time>
      </trkpt>
      <trkpt lat="42.86722" lon="0.18521">
        <ele>2191.94</ele>
        <time>2012-02-11T13:18:21Z</time>
      </trkpt>
      <trkpt lat="42.86722" lon="0.18521">
        <ele>2194.35</ele>
        <time>2012-02-11T13:18:23Z</time>
      </trkpt>
      <trkpt lat="42.86722" lon="0.18521">
        <ele>2198.19</ele>
        <time>2012-02-11T13:18:30Z</time>
      </trkpt>
      <trkpt lat="42.86722" lon="0.18521">
        <ele>2194.35</ele>
        <time>2012-02-11T13:18:31Z</time>
      </trkpt>
      <trkpt lat="42.86722" lon="0.18521">
        <ele>2194.35</ele>
        <time>2012-02-11T13:18:55Z</time>
      </trkpt>
      <trkpt lat="42.86721" lon="0.18521">
        <ele>2195.31</ele>
        <time>2012-02-11T13:19:06Z</time>
      </trkpt>
      <trkpt lat="42.86721" lon="0.18521">
        <ele>2194.83</ele>
        <time>2012-02-11T13:19:17Z</time>
      </trkpt>
      <trkpt lat="42.86721" lon="0.18521">
        <ele>2193.87</ele>
        <time>2012-02-11T13:19:33Z</time>
      </trkpt>
      <trkpt lat="42.86721" lon="0.18521">
        <ele>2193.39</ele>
        <time>2012-02-11T13:19:49Z</time>
      </trkpt>
      <trkpt lat="42.86721" lon="0.18521">
        <ele>2195.31</ele>
        <time>2012-02-11T13:20:05Z</time>
      </trkpt>
      <trkpt lat="42.86721" lon="0.18521">
        <ele>2194.35</ele>
        <time>2012-02-11T13:20:25Z</time>
      </trkpt>
      <trkpt lat="42.86721" lon="0.18521">
        <ele>2194.35</ele>
        <time>2012-02-11T13:20:36Z</time>
      </trkpt>
      <trkpt lat="42.86719" lon="0.18526">
        <ele>2195.31</ele>
        <time>2012-02-11T13:20:51Z</time>
      </trkpt>
      <trkpt lat="42.86716" lon="0.18531">
        <ele>2195.79</ele>
        <time>2012-02-11T13:20:56Z</time>
      </trkpt>
      <trkpt lat="42.86712" lon="0.18538">
        <ele>2196.75</ele>
        <time>2012-02-11T13:21:07Z</time>
      </trkpt>
      <trkpt lat="42.86711" lon="0.18541">
        <ele>2196.75</ele>
        <time>2012-02-11T13:21:20Z</time>
      </trkpt>
      <trkpt lat="42.8671" lon="0.18544">
        <ele>2196.75</ele>
        <time>2012-02-11T13:21:23Z</time>
      </trkpt>
      <trkpt lat="42.86708" lon="0.18549">
        <ele>2196.75</ele>
        <time>2012-02-11T13:21:27Z</time>
      </trkpt>
      <trkpt lat="42.86704" lon="0.18563">
        <ele>2197.23</ele>
        <time>2012-02-11T13:21:38Z</time>
      </trkpt>
      <trkpt lat="42.86702" lon="0.18568">
        <ele>2197.71</ele>
        <time>2012-02-11T13:21:43Z</time>
      </trkpt>
      <trkpt lat="42.86699" lon="0.18576">
        <ele>2196.75</ele>
        <time>2012-02-11T13:21:49Z</time>
      </trkpt>
      <trkpt lat="42.86695" lon="0.1859">
        <ele>2197.71</ele>
        <time>2012-02-11T13:22:02Z</time>
      </trkpt>
      <trkpt lat="42.86695" lon="0.18593">
        <ele>2196.75</ele>
        <time>2012-02-11T13:22:05Z</time>
      </trkpt>
      <trkpt lat="42.86694" lon="0.18597">
        <ele>2197.23</ele>
        <time>2012-02-11T13:22:09Z</time>
      </trkpt>
      <trkpt lat="42.86689" lon="0.18612">
        <ele>2196.75</ele>
        <time>2012-02-11T13:22:21Z</time>
      </trkpt>
      <trkpt lat="42.86688" lon="0.18617">
        <ele>2196.27</ele>
        <time>2012-02-11T13:22:25Z</time>
      </trkpt>
      <trkpt lat="42.86686" lon="0.18623">
        <ele>2196.75</ele>
        <time>2012-02-11T13:22:37Z</time>
      </trkpt>
      <trkpt lat="42.86686" lon="0.18625">
        <ele>2196.27</ele>
        <time>2012-02-11T13:22:42Z</time>
      </trkpt>
      <trkpt lat="42.86685" lon="0.18628">
        <ele>2195.79</ele>
        <time>2012-02-11T13:22:44Z</time>
      </trkpt>
      <trkpt lat="42.86685" lon="0.18631">
        <ele>2196.27</ele>
        <time>2012-02-11T13:22:46Z</time>
      </trkpt>
      <trkpt lat="42.86683" lon="0.18635">
        <ele>2196.27</ele>
        <time>2012-02-11T13:22:50Z</time>
      </trkpt>
      <trkpt lat="42.86681" lon="0.18641">
        <ele>2196.27</ele>
        <time>2012-02-11T13:22:56Z</time>
      </trkpt>
      <trkpt lat="42.86677" lon="0.18657">
        <ele>2196.75</ele>
        <time>2012-02-11T13:23:09Z</time>
      </trkpt>
      <trkpt lat="42.86676" lon="0.18658">
        <ele>2196.75</ele>
        <time>2012-02-11T13:23:10Z</time>
      </trkpt>
      <trkpt lat="42.86676" lon="0.18664">
        <ele>2196.75</ele>
        <time>2012-02-11T13:23:15Z</time>
      </trkpt>
      <trkpt lat="42.86676" lon="0.18667">
        <ele>2196.75</ele>
        <time>2012-02-11T13:23:18Z</time>
      </trkpt>
      <trkpt lat="42.86673" lon="0.18676">
        <ele>2197.23</ele>
        <time>2012-02-11T13:23:25Z</time>
      </trkpt>
      <trkpt lat="42.86667" lon="0.18686">
        <ele>2196.75</ele>
        <time>2012-02-11T13:23:36Z</time>
      </trkpt>
      <trkpt lat="42.86665" lon="0.18687">
        <ele>2196.75</ele>
        <time>2012-02-11T13:23:38Z</time>
      </trkpt>
      <trkpt lat="42.86661" lon="0.1869">
        <ele>2197.23</ele>
        <time>2012-02-11T13:23:43Z</time>
      </trkpt>
      <trkpt lat="42.86651" lon="0.18698">
        <ele>2198.67</ele>
        <time>2012-02-11T13:23:55Z</time>
      </trkpt>
      <trkpt lat="42.8665" lon="0.18699">
        <ele>2199.15</ele>
        <time>2012-02-11T13:23:56Z</time>
      </trkpt>
      <trkpt lat="42.86642" lon="0.18706">
        <ele>2198.67</ele>
        <time>2012-02-11T13:24:09Z</time>
      </trkpt>
      <trkpt lat="42.86642" lon="0.18706">
        <ele>2198.67</ele>
        <time>2012-02-11T13:24:15Z</time>
      </trkpt>
      <trkpt lat="42.86642" lon="0.18707">
        <ele>2192.9</ele>
        <time>2012-02-11T13:24:18Z</time>
      </trkpt>
      <trkpt lat="42.86642" lon="0.18707">
        <ele>2197.71</ele>
        <time>2012-02-11T13:24:19Z</time>
      </trkpt>
      <trkpt lat="42.86642" lon="0.18707">
        <ele>2198.19</ele>
        <time>2012-02-11T13:24:21Z</time>
      </trkpt>
      <trkpt lat="42.86642" lon="0.18706">
        <ele>2198.19</ele>
        <time>2012-02-11T13:24:53Z</time>
      </trkpt>
      <trkpt lat="42.86642" lon="0.18705">
        <ele>2199.63</ele>
        <time>2012-02-11T13:25:13Z</time>
      </trkpt>
      <trkpt lat="42.8664" lon="0.18706">
        <ele>2199.63</ele>
        <time>2012-02-11T13:25:26Z</time>
      </trkpt>
      <trkpt lat="42.86633" lon="0.18711">
        <ele>2199.63</ele>
        <time>2012-02-11T13:25:36Z</time>
      </trkpt>
      <trkpt lat="42.86629" lon="0.18723">
        <ele>2200.11</ele>
        <time>2012-02-11T13:25:47Z</time>
      </trkpt>
      <trkpt lat="42.86624" lon="0.18735">
        <ele>2201.08</ele>
        <time>2012-02-11T13:25:58Z</time>
      </trkpt>
      <trkpt lat="42.86622" lon="0.18747">
        <ele>2201.08</ele>
        <time>2012-02-11T13:26:08Z</time>
      </trkpt>
      <trkpt lat="42.86621" lon="0.18757">
        <ele>2200.59</ele>
        <time>2012-02-11T13:26:16Z</time>
      </trkpt>
      <trkpt lat="42.86619" lon="0.18765">
        <ele>2200.11</ele>
        <time>2012-02-11T13:26:24Z</time>
      </trkpt>
      <trkpt lat="42.86618" lon="0.18769">
        <ele>2199.63</ele>
        <time>2012-02-11T13:26:28Z</time>
      </trkpt>
      <trkpt lat="42.86616" lon="0.18781">
        <ele>2200.11</ele>
        <time>2012-02-11T13:26:39Z</time>
      </trkpt>
      <trkpt lat="42.86615" lon="0.18784">
        <ele>2199.63</ele>
        <time>2012-02-11T13:26:48Z</time>
      </trkpt>
      <trkpt lat="42.8661" lon="0.1879">
        <ele>2201.08</ele>
        <time>2012-02-11T13:26:56Z</time>
      </trkpt>
      <trkpt lat="42.86609" lon="0.18801">
        <ele>2202.52</ele>
        <time>2012-02-11T13:27:07Z</time>
      </trkpt>
      <trkpt lat="42.86609" lon="0.18802">
        <ele>2203</ele>
        <time>2012-02-11T13:27:08Z</time>
      </trkpt>
      <trkpt lat="42.8661" lon="0.18808">
        <ele>2203.96</ele>
        <time>2012-02-11T13:27:15Z</time>
      </trkpt>
      <trkpt lat="42.8661" lon="0.18812">
        <ele>2204.44</ele>
        <time>2012-02-11T13:27:20Z</time>
      </trkpt>
      <trkpt lat="42.86609" lon="0.18821">
        <ele>2206.84</ele>
        <time>2012-02-11T13:27:30Z</time>
      </trkpt>
      <trkpt lat="42.86606" lon="0.18826">
        <ele>2208.77</ele>
        <time>2012-02-11T13:27:40Z</time>
      </trkpt>
      <trkpt lat="42.86606" lon="0.18826">
        <ele>2208.77</ele>
        <time>2012-02-11T13:27:57Z</time>
      </trkpt>
      <trkpt lat="42.86603" lon="0.18829">
        <ele>2209.25</ele>
        <time>2012-02-11T13:28:00Z</time>
      </trkpt>
      <trkpt lat="42.86597" lon="0.18841">
        <ele>2209.73</ele>
        <time>2012-02-11T13:28:09Z</time>
      </trkpt>
      <trkpt lat="42.86591" lon="0.18851">
        <ele>2209.73</ele>
        <time>2012-02-11T13:28:18Z</time>
      </trkpt>
      <trkpt lat="42.86583" lon="0.18865">
        <ele>2206.84</ele>
        <time>2012-02-11T13:28:31Z</time>
      </trkpt>
      <trkpt lat="42.86584" lon="0.18868">
        <ele>2205.88</ele>
        <time>2012-02-11T13:28:35Z</time>
      </trkpt>
      <trkpt lat="42.86583" lon="0.1887">
        <ele>2204.92</ele>
        <time>2012-02-11T13:28:38Z</time>
      </trkpt>
      <trkpt lat="42.86583" lon="0.18872">
        <ele>2203.96</ele>
        <time>2012-02-11T13:28:40Z</time>
      </trkpt>
      <trkpt lat="42.86581" lon="0.18884">
        <ele>2203.96</ele>
        <time>2012-02-11T13:28:50Z</time>
      </trkpt>
      <trkpt lat="42.8658" lon="0.18886">
        <ele>2203.48</ele>
        <time>2012-02-11T13:28:52Z</time>
      </trkpt>
      <trkpt lat="42.86578" lon="0.1889">
        <ele>2203.96</ele>
        <time>2012-02-11T13:28:56Z</time>
      </trkpt>
      <trkpt lat="42.86572" lon="0.189">
        <ele>2205.4</ele>
        <time>2012-02-11T13:29:05Z</time>
      </trkpt>
      <trkpt lat="42.86571" lon="0.18901">
        <ele>2205.4</ele>
        <time>2012-02-11T13:29:07Z</time>
      </trkpt>
      <trkpt lat="42.86566" lon="0.18906">
        <ele>2204.92</ele>
        <time>2012-02-11T13:29:14Z</time>
      </trkpt>
      <trkpt lat="42.86555" lon="0.18912">
        <ele>2204.44</ele>
        <time>2012-02-11T13:29:27Z</time>
      </trkpt>
      <trkpt lat="42.86553" lon="0.18914">
        <ele>2204.44</ele>
        <time>2012-02-11T13:29:30Z</time>
      </trkpt>
      <trkpt lat="42.8655" lon="0.18917">
        <ele>2203.96</ele>
        <time>2012-02-11T13:29:34Z</time>
      </trkpt>
      <trkpt lat="42.86539" lon="0.18927">
        <ele>2203.48</ele>
        <time>2012-02-11T13:29:49Z</time>
      </trkpt>
      <trkpt lat="42.86533" lon="0.18936">
        <ele>2203</ele>
        <time>2012-02-11T13:30:02Z</time>
      </trkpt>
      <trkpt lat="42.86531" lon="0.18937">
        <ele>2203</ele>
        <time>2012-02-11T13:30:05Z</time>
      </trkpt>
      <trkpt lat="42.86526" lon="0.18944">
        <ele>2203</ele>
        <time>2012-02-11T13:30:18Z</time>
      </trkpt>
      <trkpt lat="42.86522" lon="0.18948">
        <ele>2202.52</ele>
        <time>2012-02-11T13:30:30Z</time>
      </trkpt>
      <trkpt lat="42.86514" lon="0.18959">
        <ele>2203</ele>
        <time>2012-02-11T13:30:42Z</time>
      </trkpt>
      <trkpt lat="42.86505" lon="0.18966">
        <ele>2203</ele>
        <time>2012-02-11T13:30:53Z</time>
      </trkpt>
      <trkpt lat="42.86499" lon="0.18972">
        <ele>2203.96</ele>
        <time>2012-02-11T13:31:04Z</time>
      </trkpt>
      <trkpt lat="42.86497" lon="0.18974">
        <ele>2204.44</ele>
        <time>2012-02-11T13:31:16Z</time>
      </trkpt>
      <trkpt lat="42.86497" lon="0.18976">
        <ele>2203.96</ele>
        <time>2012-02-11T13:31:18Z</time>
      </trkpt>
      <trkpt lat="42.86495" lon="0.18977">
        <ele>2203.48</ele>
        <time>2012-02-11T13:31:20Z</time>
      </trkpt>
      <trkpt lat="42.86485" lon="0.18985">
        <ele>2203.48</ele>
        <time>2012-02-11T13:31:32Z</time>
      </trkpt>
      <trkpt lat="42.86481" lon="0.1899">
        <ele>2204.44</ele>
        <time>2012-02-11T13:31:39Z</time>
      </trkpt>
      <trkpt lat="42.86473" lon="0.18998">
        <ele>2203.96</ele>
        <time>2012-02-11T13:31:51Z</time>
      </trkpt>
      <trkpt lat="42.86467" lon="0.19005">
        <ele>2205.88</ele>
        <time>2012-02-11T13:32:01Z</time>
      </trkpt>
      <trkpt lat="42.86463" lon="0.19011">
        <ele>2205.88</ele>
        <time>2012-02-11T13:32:08Z</time>
      </trkpt>
      <trkpt lat="42.8646" lon="0.19021">
        <ele>2206.36</ele>
        <time>2012-02-11T13:32:17Z</time>
      </trkpt>
      <trkpt lat="42.86455" lon="0.19031">
        <ele>2206.36</ele>
        <time>2012-02-11T13:32:29Z</time>
      </trkpt>
      <trkpt lat="42.86451" lon="0.19042">
        <ele>2205.4</ele>
        <time>2012-02-11T13:32:41Z</time>
      </trkpt>
      <trkpt lat="42.86449" lon="0.19046">
        <ele>2206.36</ele>
        <time>2012-02-11T13:32:51Z</time>
      </trkpt>
      <trkpt lat="42.86449" lon="0.19046">
        <ele>2206.84</ele>
        <time>2012-02-11T13:33:19Z</time>
      </trkpt>
      <trkpt lat="42.86447" lon="0.19047">
        <ele>2207.32</ele>
        <time>2012-02-11T13:33:45Z</time>
      </trkpt>
      <trkpt lat="42.86442" lon="0.19052">
        <ele>2208.29</ele>
        <time>2012-02-11T13:33:56Z</time>
      </trkpt>
      <trkpt lat="42.86441" lon="0.19053">
        <ele>2208.77</ele>
        <time>2012-02-11T13:34:06Z</time>
      </trkpt>
      <trkpt lat="42.86442" lon="0.19054">
        <ele>2210.69</ele>
        <time>2012-02-11T13:34:12Z</time>
      </trkpt>
      <trkpt lat="42.86444" lon="0.19056">
        <ele>2209.73</ele>
        <time>2012-02-11T13:34:24Z</time>
      </trkpt>
      <trkpt lat="42.86444" lon="0.19056">
        <ele>2210.21</ele>
        <time>2012-02-11T13:34:49Z</time>
      </trkpt>
      <trkpt lat="42.86444" lon="0.19056">
        <ele>2210.21</ele>
        <time>2012-02-11T13:35:21Z</time>
      </trkpt>
      <trkpt lat="42.86448" lon="0.1906">
        <ele>2212.13</ele>
        <time>2012-02-11T13:35:35Z</time>
      </trkpt>
      <trkpt lat="42.86453" lon="0.19064">
        <ele>2214.05</ele>
        <time>2012-02-11T13:35:47Z</time>
      </trkpt>
      <trkpt lat="42.86459" lon="0.19067">
        <ele>2215.5</ele>
        <time>2012-02-11T13:35:58Z</time>
      </trkpt>
      <trkpt lat="42.8646" lon="0.19067">
        <ele>2215.98</ele>
        <time>2012-02-11T13:36:06Z</time>
      </trkpt>
      <trkpt lat="42.86458" lon="0.19069">
        <ele>2216.46</ele>
        <time>2012-02-11T13:36:15Z</time>
      </trkpt>
      <trkpt lat="42.86456" lon="0.19071">
        <ele>2216.46</ele>
        <time>2012-02-11T13:36:41Z</time>
      </trkpt>
      <trkpt lat="42.86452" lon="0.19075">
        <ele>2218.38</ele>
        <time>2012-02-11T13:36:52Z</time>
      </trkpt>
      <trkpt lat="42.86447" lon="0.1908">
        <ele>2221.26</ele>
        <time>2012-02-11T13:37:03Z</time>
      </trkpt>
      <trkpt lat="42.86442" lon="0.19084">
        <ele>2222.71</ele>
        <time>2012-02-11T13:37:14Z</time>
      </trkpt>
      <trkpt lat="42.86441" lon="0.19086">
        <ele>2222.71</ele>
        <time>2012-02-11T13:37:23Z</time>
      </trkpt>
      <trkpt lat="42.86442" lon="0.19086">
        <ele>2223.19</ele>
        <time>2012-02-11T13:37:38Z</time>
      </trkpt>
      <trkpt lat="42.86445" lon="0.19093">
        <ele>2225.11</ele>
        <time>2012-02-11T13:37:49Z</time>
      </trkpt>
      <trkpt lat="42.86448" lon="0.191">
        <ele>2227.03</ele>
        <time>2012-02-11T13:38:00Z</time>
      </trkpt>
      <trkpt lat="42.86448" lon="0.19101">
        <ele>2227.51</ele>
        <time>2012-02-11T13:38:06Z</time>
      </trkpt>
      <trkpt lat="42.86447" lon="0.19101">
        <ele>2227.99</ele>
        <time>2012-02-11T13:38:21Z</time>
      </trkpt>
      <trkpt lat="42.86442" lon="0.19103">
        <ele>2228.95</ele>
        <time>2012-02-11T13:38:31Z</time>
      </trkpt>
      <trkpt lat="42.86439" lon="0.19106">
        <ele>2229.92</ele>
        <time>2012-02-11T13:38:38Z</time>
      </trkpt>
      <trkpt lat="42.86434" lon="0.19106">
        <ele>2232.32</ele>
        <time>2012-02-11T13:38:49Z</time>
      </trkpt>
      <trkpt lat="42.86434" lon="0.19107">
        <ele>2232.32</ele>
        <time>2012-02-11T13:38:56Z</time>
      </trkpt>
      <trkpt lat="42.86433" lon="0.19112">
        <ele>2233.28</ele>
        <time>2012-02-11T13:39:05Z</time>
      </trkpt>
      <trkpt lat="42.86431" lon="0.19117">
        <ele>2234.24</ele>
        <time>2012-02-11T13:39:17Z</time>
      </trkpt>
      <trkpt lat="42.86428" lon="0.19121">
        <ele>2236.64</ele>
        <time>2012-02-11T13:39:27Z</time>
      </trkpt>
      <trkpt lat="42.86427" lon="0.19125">
        <ele>2238.09</ele>
        <time>2012-02-11T13:39:35Z</time>
      </trkpt>
      <trkpt lat="42.86425" lon="0.19125">
        <ele>2239.05</ele>
        <time>2012-02-11T13:39:48Z</time>
      </trkpt>
      <trkpt lat="42.86423" lon="0.19126">
        <ele>2240.49</ele>
        <time>2012-02-11T13:39:58Z</time>
      </trkpt>
      <trkpt lat="42.86418" lon="0.19129">
        <ele>2241.93</ele>
        <time>2012-02-11T13:40:09Z</time>
      </trkpt>
      <trkpt lat="42.86412" lon="0.19134">
        <ele>2243.37</ele>
        <time>2012-02-11T13:40:20Z</time>
      </trkpt>
      <trkpt lat="42.86411" lon="0.19135">
        <ele>2243.37</ele>
        <time>2012-02-11T13:40:28Z</time>
      </trkpt>
      <trkpt lat="42.86408" lon="0.19139">
        <ele>2244.82</ele>
        <time>2012-02-11T13:40:39Z</time>
      </trkpt>
      <trkpt lat="42.86405" lon="0.19142">
        <ele>2246.26</ele>
        <time>2012-02-11T13:40:55Z</time>
      </trkpt>
      <trkpt lat="42.86405" lon="0.19142">
        <ele>2246.26</ele>
        <time>2012-02-11T13:41:14Z</time>
      </trkpt>
      <trkpt lat="42.86404" lon="0.19148">
        <ele>2247.22</ele>
        <time>2012-02-11T13:41:23Z</time>
      </trkpt>
      <trkpt lat="42.86404" lon="0.1915">
        <ele>2248.66</ele>
        <time>2012-02-11T13:41:28Z</time>
      </trkpt>
      <trkpt lat="42.86405" lon="0.19154">
        <ele>2248.66</ele>
        <time>2012-02-11T13:41:39Z</time>
      </trkpt>
      <trkpt lat="42.864" lon="0.19161">
        <ele>2250.1</ele>
        <time>2012-02-11T13:41:49Z</time>
      </trkpt>
      <trkpt lat="42.86398" lon="0.19163">
        <ele>2250.1</ele>
        <time>2012-02-11T13:42:02Z</time>
      </trkpt>
      <trkpt lat="42.86393" lon="0.19168">
        <ele>2252.99</ele>
        <time>2012-02-11T13:42:13Z</time>
      </trkpt>
      <trkpt lat="42.86393" lon="0.1917">
        <ele>2252.51</ele>
        <time>2012-02-11T13:42:15Z</time>
      </trkpt>
      <trkpt lat="42.86396" lon="0.19174">
        <ele>2253.95</ele>
        <time>2012-02-11T13:42:24Z</time>
      </trkpt>
      <trkpt lat="42.86396" lon="0.19175">
        <ele>2253.95</ele>
        <time>2012-02-11T13:42:38Z</time>
      </trkpt>
      <trkpt lat="42.86397" lon="0.19176">
        <ele>2253.47</ele>
        <time>2012-02-11T13:43:13Z</time>
      </trkpt>
      <trkpt lat="42.86401" lon="0.19181">
        <ele>2253.95</ele>
        <time>2012-02-11T13:43:26Z</time>
      </trkpt>
      <trkpt lat="42.86403" lon="0.19189">
        <ele>2254.91</ele>
        <time>2012-02-11T13:43:41Z</time>
      </trkpt>
      <trkpt lat="42.86405" lon="0.19199">
        <ele>2255.87</ele>
        <time>2012-02-11T13:43:52Z</time>
      </trkpt>
      <trkpt lat="42.86406" lon="0.19203">
        <ele>2256.35</ele>
        <time>2012-02-11T13:43:56Z</time>
      </trkpt>
      <trkpt lat="42.86406" lon="0.1921">
        <ele>2257.79</ele>
        <time>2012-02-11T13:44:07Z</time>
      </trkpt>
      <trkpt lat="42.86405" lon="0.19214">
        <ele>2257.79</ele>
        <time>2012-02-11T13:44:16Z</time>
      </trkpt>
      <trkpt lat="42.86402" lon="0.1922">
        <ele>2259.24</ele>
        <time>2012-02-11T13:44:24Z</time>
      </trkpt>
      <trkpt lat="42.86398" lon="0.19228">
        <ele>2259.24</ele>
        <time>2012-02-11T13:44:35Z</time>
      </trkpt>
      <trkpt lat="42.86392" lon="0.19233">
        <ele>2261.16</ele>
        <time>2012-02-11T13:44:47Z</time>
      </trkpt>
      <trkpt lat="42.86387" lon="0.19236">
        <ele>2261.64</ele>
        <time>2012-02-11T13:44:56Z</time>
      </trkpt>
      <trkpt lat="42.86386" lon="0.19237">
        <ele>2263.08</ele>
        <time>2012-02-11T13:45:07Z</time>
      </trkpt>
      <trkpt lat="42.86381" lon="0.19244">
        <ele>2264.52</ele>
        <time>2012-02-11T13:45:18Z</time>
      </trkpt>
      <trkpt lat="42.86378" lon="0.19246">
        <ele>2265.96</ele>
        <time>2012-02-11T13:45:30Z</time>
      </trkpt>
      <trkpt lat="42.86371" lon="0.19251">
        <ele>2267.41</ele>
        <time>2012-02-11T13:45:41Z</time>
      </trkpt>
      <trkpt lat="42.86368" lon="0.1925">
        <ele>2269.81</ele>
        <time>2012-02-11T13:45:53Z</time>
      </trkpt>
      <trkpt lat="42.8636" lon="0.19254">
        <ele>2270.29</ele>
        <time>2012-02-11T13:46:04Z</time>
      </trkpt>
      <trkpt lat="42.86352" lon="0.19257">
        <ele>2269.81</ele>
        <time>2012-02-11T13:46:15Z</time>
      </trkpt>
      <trkpt lat="42.86351" lon="0.19258">
        <ele>2270.77</ele>
        <time>2012-02-11T13:46:28Z</time>
      </trkpt>
      <trkpt lat="42.86347" lon="0.19262">
        <ele>2269.81</ele>
        <time>2012-02-11T13:46:39Z</time>
      </trkpt>
      <trkpt lat="42.8634" lon="0.1927">
        <ele>2268.85</ele>
        <time>2012-02-11T13:46:51Z</time>
      </trkpt>
      <trkpt lat="42.86333" lon="0.1928">
        <ele>2267.41</ele>
        <time>2012-02-11T13:47:03Z</time>
      </trkpt>
      <trkpt lat="42.86325" lon="0.19292">
        <ele>2265.48</ele>
        <time>2012-02-11T13:47:16Z</time>
      </trkpt>
      <trkpt lat="42.86322" lon="0.193">
        <ele>2263.08</ele>
        <time>2012-02-11T13:47:25Z</time>
      </trkpt>
      <trkpt lat="42.86315" lon="0.19308">
        <ele>2261.64</ele>
        <time>2012-02-11T13:47:36Z</time>
      </trkpt>
      <trkpt lat="42.86309" lon="0.19318">
        <ele>2261.16</ele>
        <time>2012-02-11T13:47:48Z</time>
      </trkpt>
      <trkpt lat="42.86304" lon="0.19325">
        <ele>2259.72</ele>
        <time>2012-02-11T13:48:01Z</time>
      </trkpt>
      <trkpt lat="42.86301" lon="0.19329">
        <ele>2260.2</ele>
        <time>2012-02-11T13:48:18Z</time>
      </trkpt>
      <trkpt lat="42.86299" lon="0.19333">
        <ele>2260.68</ele>
        <time>2012-02-11T13:48:25Z</time>
      </trkpt>
      <trkpt lat="42.86296" lon="0.19343">
        <ele>2262.12</ele>
        <time>2012-02-11T13:48:35Z</time>
      </trkpt>
      <trkpt lat="42.86293" lon="0.19353">
        <ele>2264.04</ele>
        <time>2012-02-11T13:48:46Z</time>
      </trkpt>
      <trkpt lat="42.86289" lon="0.1936">
        <ele>2265.48</ele>
        <time>2012-02-11T13:48:57Z</time>
      </trkpt>
      <trkpt lat="42.86287" lon="0.19361">
        <ele>2265.96</ele>
        <time>2012-02-11T13:49:11Z</time>
      </trkpt>
      <trkpt lat="42.86281" lon="0.19362">
        <ele>2267.41</ele>
        <time>2012-02-11T13:49:23Z</time>
      </trkpt>
      <trkpt lat="42.86275" lon="0.19365">
        <ele>2268.37</ele>
        <time>2012-02-11T13:49:33Z</time>
      </trkpt>
      <trkpt lat="42.86268" lon="0.19366">
        <ele>2269.33</ele>
        <time>2012-02-11T13:49:45Z</time>
      </trkpt>
      <trkpt lat="42.86262" lon="0.19366">
        <ele>2271.25</ele>
        <time>2012-02-11T13:49:56Z</time>
      </trkpt>
      <trkpt lat="42.86257" lon="0.19367">
        <ele>2272.21</ele>
        <time>2012-02-11T13:50:07Z</time>
      </trkpt>
      <trkpt lat="42.86253" lon="0.19371">
        <ele>2274.62</ele>
        <time>2012-02-11T13:50:17Z</time>
      </trkpt>
      <trkpt lat="42.8625" lon="0.19373">
        <ele>2276.06</ele>
        <time>2012-02-11T13:50:27Z</time>
      </trkpt>
      <trkpt lat="42.86247" lon="0.19377">
        <ele>2277.02</ele>
        <time>2012-02-11T13:50:37Z</time>
      </trkpt>
      <trkpt lat="42.86243" lon="0.19382">
        <ele>2279.42</ele>
        <time>2012-02-11T13:50:48Z</time>
      </trkpt>
      <trkpt lat="42.86242" lon="0.19383">
        <ele>2279.9</ele>
        <time>2012-02-11T13:50:49Z</time>
      </trkpt>
      <trkpt lat="42.86239" lon="0.19388">
        <ele>2280.87</ele>
        <time>2012-02-11T13:51:01Z</time>
      </trkpt>
      <trkpt lat="42.86237" lon="0.19396">
        <ele>2281.83</ele>
        <time>2012-02-11T13:51:11Z</time>
      </trkpt>
      <trkpt lat="42.86236" lon="0.19399">
        <ele>2282.31</ele>
        <time>2012-02-11T13:51:24Z</time>
      </trkpt>
      <trkpt lat="42.86233" lon="0.19405">
        <ele>2282.79</ele>
        <time>2012-02-11T13:51:34Z</time>
      </trkpt>
      <trkpt lat="42.86225" lon="0.19418">
        <ele>2281.83</ele>
        <time>2012-02-11T13:51:48Z</time>
      </trkpt>
      <trkpt lat="42.86219" lon="0.19424">
        <ele>2282.79</ele>
        <time>2012-02-11T13:51:59Z</time>
      </trkpt>
      <trkpt lat="42.86214" lon="0.1943">
        <ele>2282.31</ele>
        <time>2012-02-11T13:52:08Z</time>
      </trkpt>
      <trkpt lat="42.86209" lon="0.19442">
        <ele>2282.79</ele>
        <time>2012-02-11T13:52:20Z</time>
      </trkpt>
      <trkpt lat="42.86207" lon="0.19448">
        <ele>2283.75</ele>
        <time>2012-02-11T13:52:26Z</time>
      </trkpt>
      <trkpt lat="42.86204" lon="0.19457">
        <ele>2283.27</ele>
        <time>2012-02-11T13:52:36Z</time>
      </trkpt>
      <trkpt lat="42.86203" lon="0.19458">
        <ele>2283.27</ele>
        <time>2012-02-11T13:52:37Z</time>
      </trkpt>
      <trkpt lat="42.86198" lon="0.19472">
        <ele>2281.83</ele>
        <time>2012-02-11T13:52:50Z</time>
      </trkpt>
      <trkpt lat="42.86196" lon="0.19483">
        <ele>2279.42</ele>
        <time>2012-02-11T13:52:59Z</time>
      </trkpt>
      <trkpt lat="42.86194" lon="0.19495">
        <ele>2276.54</ele>
        <time>2012-02-11T13:53:12Z</time>
      </trkpt>
      <trkpt lat="42.86193" lon="0.19499">
        <ele>2276.06</ele>
        <time>2012-02-11T13:53:21Z</time>
      </trkpt>
      <trkpt lat="42.86189" lon="0.19516">
        <ele>2272.21</ele>
        <time>2012-02-11T13:53:37Z</time>
      </trkpt>
      <trkpt lat="42.86185" lon="0.19527">
        <ele>2269.33</ele>
        <time>2012-02-11T13:53:49Z</time>
      </trkpt>
      <trkpt lat="42.86184" lon="0.19529">
        <ele>2268.85</ele>
        <time>2012-02-11T13:53:51Z</time>
      </trkpt>
      <trkpt lat="42.8618" lon="0.1954">
        <ele>2267.41</ele>
        <time>2012-02-11T13:54:02Z</time>
      </trkpt>
      <trkpt lat="42.86175" lon="0.19549">
        <ele>2267.41</ele>
        <time>2012-02-11T13:54:13Z</time>
      </trkpt>
      <trkpt lat="42.86172" lon="0.19554">
        <ele>2266.93</ele>
        <time>2012-02-11T13:54:20Z</time>
      </trkpt>
      <trkpt lat="42.86172" lon="0.1956">
        <ele>2264.52</ele>
        <time>2012-02-11T13:54:30Z</time>
      </trkpt>
      <trkpt lat="42.86172" lon="0.19561">
        <ele>2264.52</ele>
        <time>2012-02-11T13:54:31Z</time>
      </trkpt>
      <trkpt lat="42.86171" lon="0.19566">
        <ele>2264.52</ele>
        <time>2012-02-11T13:54:35Z</time>
      </trkpt>
      <trkpt lat="42.86168" lon="0.19572">
        <ele>2263.08</ele>
        <time>2012-02-11T13:54:46Z</time>
      </trkpt>
      <trkpt lat="42.86167" lon="0.19575">
        <ele>2263.08</ele>
        <time>2012-02-11T13:54:56Z</time>
      </trkpt>
      <trkpt lat="42.86167" lon="0.19576">
        <ele>2263.08</ele>
        <time>2012-02-11T13:55:05Z</time>
      </trkpt>
      <trkpt lat="42.86167" lon="0.19576">
        <ele>2262.12</ele>
        <time>2012-02-11T13:55:11Z</time>
      </trkpt>
      <trkpt lat="42.86162" lon="0.19581">
        <ele>2261.16</ele>
        <time>2012-02-11T13:55:21Z</time>
      </trkpt>
      <trkpt lat="42.86157" lon="0.1959">
        <ele>2259.72</ele>
        <time>2012-02-11T13:55:35Z</time>
      </trkpt>
      <trkpt lat="42.86153" lon="0.19594">
        <ele>2258.27</ele>
        <time>2012-02-11T13:55:49Z</time>
      </trkpt>
      <trkpt lat="42.86149" lon="0.19603">
        <ele>2254.91</ele>
        <time>2012-02-11T13:56:00Z</time>
      </trkpt>
      <trkpt lat="42.86145" lon="0.1961">
        <ele>2251.54</ele>
        <time>2012-02-11T13:56:12Z</time>
      </trkpt>
      <trkpt lat="42.86142" lon="0.19614">
        <ele>2249.62</ele>
        <time>2012-02-11T13:56:15Z</time>
      </trkpt>
      <trkpt lat="42.86138" lon="0.19618">
        <ele>2248.18</ele>
        <time>2012-02-11T13:56:21Z</time>
      </trkpt>
      <trkpt lat="42.86136" lon="0.19619">
        <ele>2247.7</ele>
        <time>2012-02-11T13:56:23Z</time>
      </trkpt>
      <trkpt lat="42.86129" lon="0.19624">
        <ele>2247.22</ele>
        <time>2012-02-11T13:56:34Z</time>
      </trkpt>
      <trkpt lat="42.86126" lon="0.19627">
        <ele>2247.22</ele>
        <time>2012-02-11T13:56:46Z</time>
      </trkpt>
      <trkpt lat="42.86126" lon="0.19627">
        <ele>2247.22</ele>
        <time>2012-02-11T13:57:05Z</time>
      </trkpt>
      <trkpt lat="42.86126" lon="0.19627">
        <ele>2246.74</ele>
        <time>2012-02-11T13:57:29Z</time>
      </trkpt>
      <trkpt lat="42.86126" lon="0.19626">
        <ele>2246.74</ele>
        <time>2012-02-11T13:57:53Z</time>
      </trkpt>
      <trkpt lat="42.86126" lon="0.19626">
        <ele>2246.74</ele>
        <time>2012-02-11T13:58:13Z</time>
      </trkpt>
      <trkpt lat="42.86126" lon="0.19626">
        <ele>2246.74</ele>
        <time>2012-02-11T13:58:33Z</time>
      </trkpt>
      <trkpt lat="42.86126" lon="0.19626">
        <ele>2246.74</ele>
        <time>2012-02-11T13:58:58Z</time>
      </trkpt>
      <trkpt lat="42.86126" lon="0.19627">
        <ele>2247.7</ele>
        <time>2012-02-11T13:59:38Z</time>
      </trkpt>
      <trkpt lat="42.86126" lon="0.19627">
        <ele>2247.7</ele>
        <time>2012-02-11T14:00:03Z</time>
      </trkpt>
      <trkpt lat="42.86124" lon="0.19629">
        <ele>2247.22</ele>
        <time>2012-02-11T14:00:24Z</time>
      </trkpt>
      <trkpt lat="42.86118" lon="0.19634">
        <ele>2247.7</ele>
        <time>2012-02-11T14:00:35Z</time>
      </trkpt>
      <trkpt lat="42.86115" lon="0.19642">
        <ele>2246.74</ele>
        <time>2012-02-11T14:00:43Z</time>
      </trkpt>
      <trkpt lat="42.86107" lon="0.19656">
        <ele>2247.7</ele>
        <time>2012-02-11T14:00:56Z</time>
      </trkpt>
      <trkpt lat="42.86098" lon="0.1967">
        <ele>2247.7</ele>
        <time>2012-02-11T14:01:11Z</time>
      </trkpt>
      <trkpt lat="42.86097" lon="0.19671">
        <ele>2247.7</ele>
        <time>2012-02-11T14:01:12Z</time>
      </trkpt>
      <trkpt lat="42.86095" lon="0.19675">
        <ele>2247.7</ele>
        <time>2012-02-11T14:01:16Z</time>
      </trkpt>
      <trkpt lat="42.86091" lon="0.1968">
        <ele>2248.66</ele>
        <time>2012-02-11T14:01:21Z</time>
      </trkpt>
      <trkpt lat="42.86089" lon="0.19683">
        <ele>2247.22</ele>
        <time>2012-02-11T14:01:24Z</time>
      </trkpt>
      <trkpt lat="42.86085" lon="0.19687">
        <ele>2247.7</ele>
        <time>2012-02-11T14:01:28Z</time>
      </trkpt>
      <trkpt lat="42.86083" lon="0.1969">
        <ele>2247.22</ele>
        <time>2012-02-11T14:01:32Z</time>
      </trkpt>
      <trkpt lat="42.86075" lon="0.197">
        <ele>2247.7</ele>
        <time>2012-02-11T14:01:43Z</time>
      </trkpt>
      <trkpt lat="42.86067" lon="0.19711">
        <ele>2246.74</ele>
        <time>2012-02-11T14:01:56Z</time>
      </trkpt>
      <trkpt lat="42.86059" lon="0.1972">
        <ele>2247.22</ele>
        <time>2012-02-11T14:02:07Z</time>
      </trkpt>
      <trkpt lat="42.86055" lon="0.19725">
        <ele>2247.7</ele>
        <time>2012-02-11T14:02:13Z</time>
      </trkpt>
      <trkpt lat="42.86049" lon="0.19732">
        <ele>2247.7</ele>
        <time>2012-02-11T14:02:22Z</time>
      </trkpt>
      <trkpt lat="42.86045" lon="0.19737">
        <ele>2246.26</ele>
        <time>2012-02-11T14:02:28Z</time>
      </trkpt>
      <trkpt lat="42.86044" lon="0.19739">
        <ele>2246.26</ele>
        <time>2012-02-11T14:02:30Z</time>
      </trkpt>
      <trkpt lat="42.86039" lon="0.19747">
        <ele>2246.74</ele>
        <time>2012-02-11T14:02:39Z</time>
      </trkpt>
      <trkpt lat="42.86038" lon="0.19749">
        <ele>2246.74</ele>
        <time>2012-02-11T14:02:41Z</time>
      </trkpt>
      <trkpt lat="42.86037" lon="0.19751">
        <ele>2247.22</ele>
        <time>2012-02-11T14:02:43Z</time>
      </trkpt>
      <trkpt lat="42.86035" lon="0.19752">
        <ele>2247.22</ele>
        <time>2012-02-11T14:02:45Z</time>
      </trkpt>
      <trkpt lat="42.86034" lon="0.19755">
        <ele>2247.22</ele>
        <time>2012-02-11T14:02:47Z</time>
      </trkpt>
      <trkpt lat="42.86027" lon="0.19765">
        <ele>2247.22</ele>
        <time>2012-02-11T14:02:59Z</time>
      </trkpt>
      <trkpt lat="42.86026" lon="0.19765">
        <ele>2247.7</ele>
        <time>2012-02-11T14:03:01Z</time>
      </trkpt>
      <trkpt lat="42.86024" lon="0.19768">
        <ele>2247.7</ele>
        <time>2012-02-11T14:03:04Z</time>
      </trkpt>
      <trkpt lat="42.86018" lon="0.19776">
        <ele>2249.62</ele>
        <time>2012-02-11T14:03:14Z</time>
      </trkpt>
      <trkpt lat="42.86013" lon="0.19784">
        <ele>2250.58</ele>
        <time>2012-02-11T14:03:25Z</time>
      </trkpt>
      <trkpt lat="42.86012" lon="0.19788">
        <ele>2251.06</ele>
        <time>2012-02-11T14:03:28Z</time>
      </trkpt>
      <trkpt lat="42.86008" lon="0.19794">
        <ele>2251.54</ele>
        <time>2012-02-11T14:03:35Z</time>
      </trkpt>
      <trkpt lat="42.86007" lon="0.19795">
        <ele>2252.03</ele>
        <time>2012-02-11T14:03:37Z</time>
      </trkpt>
      <trkpt lat="42.86003" lon="0.19803">
        <ele>2252.03</ele>
        <time>2012-02-11T14:03:49Z</time>
      </trkpt>
      <trkpt lat="42.85997" lon="0.19812">
        <ele>2252.99</ele>
        <time>2012-02-11T14:04:02Z</time>
      </trkpt>
      <trkpt lat="42.85993" lon="0.19822">
        <ele>2251.06</ele>
        <time>2012-02-11T14:04:15Z</time>
      </trkpt>
      <trkpt lat="42.85993" lon="0.19825">
        <ele>2249.62</ele>
        <time>2012-02-11T14:04:28Z</time>
      </trkpt>
      <trkpt lat="42.85987" lon="0.19833">
        <ele>2246.26</ele>
        <time>2012-02-11T14:04:39Z</time>
      </trkpt>
      <trkpt lat="42.85982" lon="0.19837">
        <ele>2244.82</ele>
        <time>2012-02-11T14:04:46Z</time>
      </trkpt>
      <trkpt lat="42.85973" lon="0.19841">
        <ele>2242.41</ele>
        <time>2012-02-11T14:05:01Z</time>
      </trkpt>
      <trkpt lat="42.85964" lon="0.19848">
        <ele>2240.01</ele>
        <time>2012-02-11T14:05:13Z</time>
      </trkpt>
      <trkpt lat="42.85961" lon="0.19849">
        <ele>2238.57</ele>
        <time>2012-02-11T14:05:17Z</time>
      </trkpt>
      <trkpt lat="42.85959" lon="0.1985">
        <ele>2237.61</ele>
        <time>2012-02-11T14:05:19Z</time>
      </trkpt>
      <trkpt lat="42.85957" lon="0.19851">
        <ele>2236.64</ele>
        <time>2012-02-11T14:05:21Z</time>
      </trkpt>
      <trkpt lat="42.85955" lon="0.19852">
        <ele>2236.16</ele>
        <time>2012-02-11T14:05:23Z</time>
      </trkpt>
      <trkpt lat="42.85952" lon="0.19852">
        <ele>2234.24</ele>
        <time>2012-02-11T14:05:26Z</time>
      </trkpt>
      <trkpt lat="42.85945" lon="0.19856">
        <ele>2232.8</ele>
        <time>2012-02-11T14:05:33Z</time>
      </trkpt>
      <trkpt lat="42.85938" lon="0.19859">
        <ele>2230.88</ele>
        <time>2012-02-11T14:05:41Z</time>
      </trkpt>
      <trkpt lat="42.85936" lon="0.1986">
        <ele>2229.92</ele>
        <time>2012-02-11T14:05:43Z</time>
      </trkpt>
      <trkpt lat="42.85923" lon="0.19865">
        <ele>2227.51</ele>
        <time>2012-02-11T14:05:57Z</time>
      </trkpt>
      <trkpt lat="42.8592" lon="0.19868">
        <ele>2227.03</ele>
        <time>2012-02-11T14:06:01Z</time>
      </trkpt>
      <trkpt lat="42.85907" lon="0.19879">
        <ele>2226.07</ele>
        <time>2012-02-11T14:06:17Z</time>
      </trkpt>
      <trkpt lat="42.85898" lon="0.19885">
        <ele>2225.11</ele>
        <time>2012-02-11T14:06:29Z</time>
      </trkpt>
      <trkpt lat="42.85891" lon="0.1989">
        <ele>2224.15</ele>
        <time>2012-02-11T14:06:42Z</time>
      </trkpt>
      <trkpt lat="42.8589" lon="0.19891">
        <ele>2223.67</ele>
        <time>2012-02-11T14:06:44Z</time>
      </trkpt>
      <trkpt lat="42.85888" lon="0.19892">
        <ele>2224.15</ele>
        <time>2012-02-11T14:06:46Z</time>
      </trkpt>
      <trkpt lat="42.85878" lon="0.19899">
        <ele>2222.22</ele>
        <time>2012-02-11T14:06:59Z</time>
      </trkpt>
      <trkpt lat="42.85874" lon="0.19903">
        <ele>2221.26</ele>
        <time>2012-02-11T14:07:04Z</time>
      </trkpt>
      <trkpt lat="42.85873" lon="0.19905">
        <ele>2221.74</ele>
        <time>2012-02-11T14:07:19Z</time>
      </trkpt>
      <trkpt lat="42.85868" lon="0.19909">
        <ele>2221.26</ele>
        <time>2012-02-11T14:07:32Z</time>
      </trkpt>
      <trkpt lat="42.85862" lon="0.19916">
        <ele>2219.34</ele>
        <time>2012-02-11T14:07:43Z</time>
      </trkpt>
      <trkpt lat="42.85859" lon="0.19919">
        <ele>2218.38</ele>
        <time>2012-02-11T14:07:47Z</time>
      </trkpt>
      <trkpt lat="42.85856" lon="0.19925">
        <ele>2215.98</ele>
        <time>2012-02-11T14:07:52Z</time>
      </trkpt>
      <trkpt lat="42.85854" lon="0.19927">
        <ele>2214.53</ele>
        <time>2012-02-11T14:07:54Z</time>
      </trkpt>
      <trkpt lat="42.85852" lon="0.1993">
        <ele>2213.57</ele>
        <time>2012-02-11T14:07:57Z</time>
      </trkpt>
      <trkpt lat="42.85851" lon="0.19933">
        <ele>2213.09</ele>
        <time>2012-02-11T14:07:59Z</time>
      </trkpt>
      <trkpt lat="42.85851" lon="0.19934">
        <ele>2213.09</ele>
        <time>2012-02-11T14:08:00Z</time>
      </trkpt>
      <trkpt lat="42.85848" lon="0.19935">
        <ele>2211.17</ele>
        <time>2012-02-11T14:08:08Z</time>
      </trkpt>
      <trkpt lat="42.85846" lon="0.19938">
        <ele>2210.69</ele>
        <time>2012-02-11T14:08:11Z</time>
      </trkpt>
      <trkpt lat="42.85844" lon="0.19942">
        <ele>2209.73</ele>
        <time>2012-02-11T14:08:14Z</time>
      </trkpt>
      <trkpt lat="42.85842" lon="0.19944">
        <ele>2208.77</ele>
        <time>2012-02-11T14:08:17Z</time>
      </trkpt>
      <trkpt lat="42.85841" lon="0.19946">
        <ele>2208.29</ele>
        <time>2012-02-11T14:08:19Z</time>
      </trkpt>
      <trkpt lat="42.8584" lon="0.19948">
        <ele>2206.84</ele>
        <time>2012-02-11T14:08:28Z</time>
      </trkpt>
      <trkpt lat="42.85834" lon="0.19958">
        <ele>2203.48</ele>
        <time>2012-02-11T14:08:39Z</time>
      </trkpt>
      <trkpt lat="42.85832" lon="0.19962">
        <ele>2202.52</ele>
        <time>2012-02-11T14:08:43Z</time>
      </trkpt>
      <trkpt lat="42.8583" lon="0.19967">
        <ele>2201.56</ele>
        <time>2012-02-11T14:08:53Z</time>
      </trkpt>
      <trkpt lat="42.85827" lon="0.19972">
        <ele>2200.59</ele>
        <time>2012-02-11T14:08:58Z</time>
      </trkpt>
      <trkpt lat="42.85824" lon="0.19981">
        <ele>2198.67</ele>
        <time>2012-02-11T14:09:06Z</time>
      </trkpt>
      <trkpt lat="42.85818" lon="0.19997">
        <ele>2195.31</ele>
        <time>2012-02-11T14:09:21Z</time>
      </trkpt>
      <trkpt lat="42.8581" lon="0.20011">
        <ele>2194.83</ele>
        <time>2012-02-11T14:09:35Z</time>
      </trkpt>
      <trkpt lat="42.85802" lon="0.20015">
        <ele>2195.31</ele>
        <time>2012-02-11T14:09:44Z</time>
      </trkpt>
      <trkpt lat="42.858" lon="0.20015">
        <ele>2194.83</ele>
        <time>2012-02-11T14:09:46Z</time>
      </trkpt>
      <trkpt lat="42.85791" lon="0.20017">
        <ele>2194.83</ele>
        <time>2012-02-11T14:09:58Z</time>
      </trkpt>
      <trkpt lat="42.85786" lon="0.20019">
        <ele>2195.31</ele>
        <time>2012-02-11T14:10:10Z</time>
      </trkpt>
      <trkpt lat="42.85778" lon="0.20021">
        <ele>2195.31</ele>
        <time>2012-02-11T14:10:21Z</time>
      </trkpt>
      <trkpt lat="42.85777" lon="0.20021">
        <ele>2195.79</ele>
        <time>2012-02-11T14:10:24Z</time>
      </trkpt>
      <trkpt lat="42.85775" lon="0.20022">
        <ele>2196.27</ele>
        <time>2012-02-11T14:10:39Z</time>
      </trkpt>
      <trkpt lat="42.85771" lon="0.20025">
        <ele>2196.75</ele>
        <time>2012-02-11T14:10:50Z</time>
      </trkpt>
      <trkpt lat="42.85763" lon="0.2003">
        <ele>2196.27</ele>
        <time>2012-02-11T14:11:00Z</time>
      </trkpt>
      <trkpt lat="42.85758" lon="0.20035">
        <ele>2197.71</ele>
        <time>2012-02-11T14:11:11Z</time>
      </trkpt>
      <trkpt lat="42.8575" lon="0.2004">
        <ele>2199.15</ele>
        <time>2012-02-11T14:11:22Z</time>
      </trkpt>
      <trkpt lat="42.8575" lon="0.2004">
        <ele>2200.11</ele>
        <time>2012-02-11T14:11:38Z</time>
      </trkpt>
      <trkpt lat="42.85746" lon="0.20041">
        <ele>2201.08</ele>
        <time>2012-02-11T14:11:52Z</time>
      </trkpt>
      <trkpt lat="42.85739" lon="0.20043">
        <ele>2202.52</ele>
        <time>2012-02-11T14:12:03Z</time>
      </trkpt>
      <trkpt lat="42.85735" lon="0.20044">
        <ele>2203</ele>
        <time>2012-02-11T14:12:09Z</time>
      </trkpt>
      <trkpt lat="42.85732" lon="0.20044">
        <ele>2203</ele>
        <time>2012-02-11T14:12:21Z</time>
      </trkpt>
      <trkpt lat="42.85731" lon="0.20045">
        <ele>2203.48</ele>
        <time>2012-02-11T14:12:35Z</time>
      </trkpt>
      <trkpt lat="42.85731" lon="0.20046">
        <ele>2197.71</ele>
        <time>2012-02-11T14:12:40Z</time>
      </trkpt>
      <trkpt lat="42.85731" lon="0.20046">
        <ele>2207.32</ele>
        <time>2012-02-11T14:12:41Z</time>
      </trkpt>
      <trkpt lat="42.85731" lon="0.20046">
        <ele>2203</ele>
        <time>2012-02-11T14:12:42Z</time>
      </trkpt>
      <trkpt lat="42.85731" lon="0.20046">
        <ele>2202.52</ele>
        <time>2012-02-11T14:13:14Z</time>
      </trkpt>
      <trkpt lat="42.85731" lon="0.20046">
        <ele>2203.48</ele>
        <time>2012-02-11T14:13:49Z</time>
      </trkpt>
      <trkpt lat="42.85731" lon="0.20046">
        <ele>2200.11</ele>
        <time>2012-02-11T14:13:57Z</time>
      </trkpt>
      <trkpt lat="42.85731" lon="0.20046">
        <ele>2204.44</ele>
        <time>2012-02-11T14:13:58Z</time>
      </trkpt>
      <trkpt lat="42.85731" lon="0.20046">
        <ele>2203.96</ele>
        <time>2012-02-11T14:14:02Z</time>
      </trkpt>
      <trkpt lat="42.85731" lon="0.20046">
        <ele>2203</ele>
        <time>2012-02-11T14:14:15Z</time>
      </trkpt>
      <trkpt lat="42.8573" lon="0.20045">
        <ele>2204.44</ele>
        <time>2012-02-11T14:14:40Z</time>
      </trkpt>
      <trkpt lat="42.8573" lon="0.20044">
        <ele>2203.96</ele>
        <time>2012-02-11T14:14:51Z</time>
      </trkpt>
      <trkpt lat="42.85724" lon="0.20046">
        <ele>2204.44</ele>
        <time>2012-02-11T14:15:09Z</time>
      </trkpt>
      <trkpt lat="42.85712" lon="0.20047">
        <ele>2204.44</ele>
        <time>2012-02-11T14:15:23Z</time>
      </trkpt>
      <trkpt lat="42.85706" lon="0.20049">
        <ele>2206.36</ele>
        <time>2012-02-11T14:15:34Z</time>
      </trkpt>
      <trkpt lat="42.85698" lon="0.2005">
        <ele>2207.32</ele>
        <time>2012-02-11T14:15:48Z</time>
      </trkpt>
      <trkpt lat="42.85692" lon="0.20049">
        <ele>2208.77</ele>
        <time>2012-02-11T14:15:56Z</time>
      </trkpt>
      <trkpt lat="42.85688" lon="0.20047">
        <ele>2209.25</ele>
        <time>2012-02-11T14:16:02Z</time>
      </trkpt>
      <trkpt lat="42.85683" lon="0.20046">
        <ele>2210.21</ele>
        <time>2012-02-11T14:16:13Z</time>
      </trkpt>
      <trkpt lat="42.85683" lon="0.20046">
        <ele>2210.21</ele>
        <time>2012-02-11T14:16:33Z</time>
      </trkpt>
      <trkpt lat="42.85683" lon="0.20047">
        <ele>2211.17</ele>
        <time>2012-02-11T14:16:51Z</time>
      </trkpt>
      <trkpt lat="42.85676" lon="0.20046">
        <ele>2211.17</ele>
        <time>2012-02-11T14:17:01Z</time>
      </trkpt>
      <trkpt lat="42.85675" lon="0.20046">
        <ele>2212.13</ele>
        <time>2012-02-11T14:17:04Z</time>
      </trkpt>
      <trkpt lat="42.85676" lon="0.20053">
        <ele>2213.09</ele>
        <time>2012-02-11T14:17:12Z</time>
      </trkpt>
      <trkpt lat="42.85675" lon="0.20058">
        <ele>2213.57</ele>
        <time>2012-02-11T14:17:17Z</time>
      </trkpt>
      <trkpt lat="42.85675" lon="0.20061">
        <ele>2214.53</ele>
        <time>2012-02-11T14:17:20Z</time>
      </trkpt>
      <trkpt lat="42.85675" lon="0.20064">
        <ele>2214.05</ele>
        <time>2012-02-11T14:17:22Z</time>
      </trkpt>
      <trkpt lat="42.85675" lon="0.20072">
        <ele>2215.98</ele>
        <time>2012-02-11T14:17:32Z</time>
      </trkpt>
      <trkpt lat="42.85674" lon="0.20081">
        <ele>2217.42</ele>
        <time>2012-02-11T14:17:43Z</time>
      </trkpt>
      <trkpt lat="42.85674" lon="0.20086">
        <ele>2218.86</ele>
        <time>2012-02-11T14:17:54Z</time>
      </trkpt>
      <trkpt lat="42.85674" lon="0.20086">
        <ele>2218.38</ele>
        <time>2012-02-11T14:18:11Z</time>
      </trkpt>
      <trkpt lat="42.85673" lon="0.20095">
        <ele>2220.3</ele>
        <time>2012-02-11T14:18:24Z</time>
      </trkpt>
      <trkpt lat="42.85674" lon="0.20103">
        <ele>2221.26</ele>
        <time>2012-02-11T14:18:35Z</time>
      </trkpt>
      <trkpt lat="42.85674" lon="0.20108">
        <ele>2222.71</ele>
        <time>2012-02-11T14:18:41Z</time>
      </trkpt>
      <trkpt lat="42.8567" lon="0.20111">
        <ele>2224.15</ele>
        <time>2012-02-11T14:18:49Z</time>
      </trkpt>
      <trkpt lat="42.85664" lon="0.20109">
        <ele>2225.11</ele>
        <time>2012-02-11T14:18:59Z</time>
      </trkpt>
      <trkpt lat="42.85663" lon="0.20109">
        <ele>2226.07</ele>
        <time>2012-02-11T14:19:01Z</time>
      </trkpt>
      <trkpt lat="42.85657" lon="0.20106">
        <ele>2226.55</ele>
        <time>2012-02-11T14:19:11Z</time>
      </trkpt>
      <trkpt lat="42.85652" lon="0.20104">
        <ele>2227.51</ele>
        <time>2012-02-11T14:19:22Z</time>
      </trkpt>
      <trkpt lat="42.85646" lon="0.20101">
        <ele>2228.47</ele>
        <time>2012-02-11T14:19:32Z</time>
      </trkpt>
      <trkpt lat="42.85641" lon="0.20098">
        <ele>2230.4</ele>
        <time>2012-02-11T14:19:42Z</time>
      </trkpt>
      <trkpt lat="42.85639" lon="0.20104">
        <ele>2231.84</ele>
        <time>2012-02-11T14:19:53Z</time>
      </trkpt>
      <trkpt lat="42.85638" lon="0.20109">
        <ele>2233.28</ele>
        <time>2012-02-11T14:20:03Z</time>
      </trkpt>
      <trkpt lat="42.85638" lon="0.2011">
        <ele>2234.72</ele>
        <time>2012-02-11T14:20:26Z</time>
      </trkpt>
      <trkpt lat="42.85638" lon="0.20114">
        <ele>2234.72</ele>
        <time>2012-02-11T14:20:29Z</time>
      </trkpt>
      <trkpt lat="42.85635" lon="0.20125">
        <ele>2236.64</ele>
        <time>2012-02-11T14:20:41Z</time>
      </trkpt>
      <trkpt lat="42.85632" lon="0.20133">
        <ele>2237.61</ele>
        <time>2012-02-11T14:20:52Z</time>
      </trkpt>
      <trkpt lat="42.8563" lon="0.20141">
        <ele>2239.53</ele>
        <time>2012-02-11T14:21:02Z</time>
      </trkpt>
      <trkpt lat="42.85629" lon="0.20145">
        <ele>2240.01</ele>
        <time>2012-02-11T14:21:20Z</time>
      </trkpt>
      <trkpt lat="42.85627" lon="0.2015">
        <ele>2240.49</ele>
        <time>2012-02-11T14:21:36Z</time>
      </trkpt>
      <trkpt lat="42.85626" lon="0.20151">
        <ele>2240.49</ele>
        <time>2012-02-11T14:21:41Z</time>
      </trkpt>
      <trkpt lat="42.85624" lon="0.20145">
        <ele>2240.97</ele>
        <time>2012-02-11T14:21:52Z</time>
      </trkpt>
      <trkpt lat="42.8562" lon="0.20138">
        <ele>2242.41</ele>
        <time>2012-02-11T14:22:01Z</time>
      </trkpt>
      <trkpt lat="42.85619" lon="0.20135">
        <ele>2241.93</ele>
        <time>2012-02-11T14:22:04Z</time>
      </trkpt>
      <trkpt lat="42.85614" lon="0.20127">
        <ele>2244.33</ele>
        <time>2012-02-11T14:22:16Z</time>
      </trkpt>
      <trkpt lat="42.85612" lon="0.20124">
        <ele>2244.82</ele>
        <time>2012-02-11T14:22:35Z</time>
      </trkpt>
      <trkpt lat="42.85608" lon="0.2012">
        <ele>2245.78</ele>
        <time>2012-02-11T14:22:43Z</time>
      </trkpt>
      <trkpt lat="42.85608" lon="0.2012">
        <ele>2246.26</ele>
        <time>2012-02-11T14:22:56Z</time>
      </trkpt>
      <trkpt lat="42.85607" lon="0.20126">
        <ele>2247.22</ele>
        <time>2012-02-11T14:23:06Z</time>
      </trkpt>
      <trkpt lat="42.85604" lon="0.20135">
        <ele>2248.18</ele>
        <time>2012-02-11T14:23:16Z</time>
      </trkpt>
      <trkpt lat="42.85602" lon="0.2014">
        <ele>2248.18</ele>
        <time>2012-02-11T14:23:29Z</time>
      </trkpt>
      <trkpt lat="42.85599" lon="0.20147">
        <ele>2249.14</ele>
        <time>2012-02-11T14:23:42Z</time>
      </trkpt>
      <trkpt lat="42.85599" lon="0.20148">
        <ele>2249.14</ele>
        <time>2012-02-11T14:23:43Z</time>
      </trkpt>
      <trkpt lat="42.85597" lon="0.20157">
        <ele>2250.58</ele>
        <time>2012-02-11T14:23:53Z</time>
      </trkpt>
      <trkpt lat="42.85597" lon="0.20167">
        <ele>2253.47</ele>
        <time>2012-02-11T14:24:03Z</time>
      </trkpt>
      <trkpt lat="42.85597" lon="0.2017">
        <ele>2254.43</ele>
        <time>2012-02-11T14:24:07Z</time>
      </trkpt>
      <trkpt lat="42.85597" lon="0.20177">
        <ele>2255.39</ele>
        <time>2012-02-11T14:24:17Z</time>
      </trkpt>
      <trkpt lat="42.85597" lon="0.20179">
        <ele>2259.24</ele>
        <time>2012-02-11T14:24:23Z</time>
      </trkpt>
      <trkpt lat="42.85597" lon="0.20179">
        <ele>2256.83</ele>
        <time>2012-02-11T14:24:27Z</time>
      </trkpt>
      <trkpt lat="42.85596" lon="0.20187">
        <ele>2257.31</ele>
        <time>2012-02-11T14:24:41Z</time>
      </trkpt>
      <trkpt lat="42.85596" lon="0.20198">
        <ele>2257.79</ele>
        <time>2012-02-11T14:24:52Z</time>
      </trkpt>
      <trkpt lat="42.85596" lon="0.20207">
        <ele>2258.27</ele>
        <time>2012-02-11T14:25:04Z</time>
      </trkpt>
      <trkpt lat="42.85597" lon="0.20213">
        <ele>2259.24</ele>
        <time>2012-02-11T14:25:16Z</time>
      </trkpt>
      <trkpt lat="42.85598" lon="0.20222">
        <ele>2260.68</ele>
        <time>2012-02-11T14:25:26Z</time>
      </trkpt>
      <trkpt lat="42.85597" lon="0.20228">
        <ele>2261.16</ele>
        <time>2012-02-11T14:25:36Z</time>
      </trkpt>
      <trkpt lat="42.85598" lon="0.20233">
        <ele>2262.6</ele>
        <time>2012-02-11T14:25:51Z</time>
      </trkpt>
      <trkpt lat="42.85597" lon="0.20243">
        <ele>2264.52</ele>
        <time>2012-02-11T14:26:03Z</time>
      </trkpt>
      <trkpt lat="42.85599" lon="0.20247">
        <ele>2265.96</ele>
        <time>2012-02-11T14:26:13Z</time>
      </trkpt>
      <trkpt lat="42.85602" lon="0.2025">
        <ele>2266.93</ele>
        <time>2012-02-11T14:26:22Z</time>
      </trkpt>
      <trkpt lat="42.85604" lon="0.20255">
        <ele>2267.89</ele>
        <time>2012-02-11T14:26:32Z</time>
      </trkpt>
      <trkpt lat="42.85607" lon="0.2026">
        <ele>2268.37</ele>
        <time>2012-02-11T14:26:49Z</time>
      </trkpt>
      <trkpt lat="42.85608" lon="0.20265">
        <ele>2269.33</ele>
        <time>2012-02-11T14:26:59Z</time>
      </trkpt>
      <trkpt lat="42.85605" lon="0.20266">
        <ele>2269.81</ele>
        <time>2012-02-11T14:27:09Z</time>
      </trkpt>
      <trkpt lat="42.85598" lon="0.20268">
        <ele>2271.25</ele>
        <time>2012-02-11T14:27:19Z</time>
      </trkpt>
      <trkpt lat="42.85596" lon="0.20268">
        <ele>2272.21</ele>
        <time>2012-02-11T14:27:30Z</time>
      </trkpt>
      <trkpt lat="42.85597" lon="0.20268">
        <ele>2272.69</ele>
        <time>2012-02-11T14:27:39Z</time>
      </trkpt>
      <trkpt lat="42.85599" lon="0.20273">
        <ele>2273.17</ele>
        <time>2012-02-11T14:27:47Z</time>
      </trkpt>
      <trkpt lat="42.85604" lon="0.20279">
        <ele>2275.58</ele>
        <time>2012-02-11T14:27:58Z</time>
      </trkpt>
      <trkpt lat="42.8561" lon="0.20284">
        <ele>2276.54</ele>
        <time>2012-02-11T14:28:09Z</time>
      </trkpt>
      <trkpt lat="42.85615" lon="0.20288">
        <ele>2278.94</ele>
        <time>2012-02-11T14:28:21Z</time>
      </trkpt>
      <trkpt lat="42.85617" lon="0.2029">
        <ele>2280.38</ele>
        <time>2012-02-11T14:28:38Z</time>
      </trkpt>
      <trkpt lat="42.85623" lon="0.20293">
        <ele>2281.83</ele>
        <time>2012-02-11T14:28:49Z</time>
      </trkpt>
      <trkpt lat="42.85626" lon="0.20296">
        <ele>2282.79</ele>
        <time>2012-02-11T14:28:57Z</time>
      </trkpt>
      <trkpt lat="42.85631" lon="0.20298">
        <ele>2283.27</ele>
        <time>2012-02-11T14:29:10Z</time>
      </trkpt>
      <trkpt lat="42.85636" lon="0.203">
        <ele>2285.19</ele>
        <time>2012-02-11T14:29:21Z</time>
      </trkpt>
      <trkpt lat="42.85639" lon="0.20301">
        <ele>2285.67</ele>
        <time>2012-02-11T14:29:35Z</time>
      </trkpt>
      <trkpt lat="42.85643" lon="0.20303">
        <ele>2286.15</ele>
        <time>2012-02-11T14:29:45Z</time>
      </trkpt>
      <trkpt lat="42.85647" lon="0.20304">
        <ele>2287.59</ele>
        <time>2012-02-11T14:29:55Z</time>
      </trkpt>
      <trkpt lat="42.85649" lon="0.20305">
        <ele>2288.56</ele>
        <time>2012-02-11T14:30:04Z</time>
      </trkpt>
      <trkpt lat="42.8565" lon="0.20305">
        <ele>2288.08</ele>
        <time>2012-02-11T14:30:19Z</time>
      </trkpt>
      <trkpt lat="42.85652" lon="0.20305">
        <ele>2288.08</ele>
        <time>2012-02-11T14:30:33Z</time>
      </trkpt>
      <trkpt lat="42.85652" lon="0.20305">
        <ele>2291.44</ele>
        <time>2012-02-11T14:30:53Z</time>
      </trkpt>
      <trkpt lat="42.85653" lon="0.20306">
        <ele>2290</ele>
        <time>2012-02-11T14:31:08Z</time>
      </trkpt>
      <trkpt lat="42.85654" lon="0.20308">
        <ele>2291.44</ele>
        <time>2012-02-11T14:31:19Z</time>
      </trkpt>
      <trkpt lat="42.85655" lon="0.20309">
        <ele>2291.92</ele>
        <time>2012-02-11T14:31:32Z</time>
      </trkpt>
      <trkpt lat="42.85657" lon="0.20311">
        <ele>2292.4</ele>
        <time>2012-02-11T14:31:42Z</time>
      </trkpt>
      <trkpt lat="42.85659" lon="0.20313">
        <ele>2293.84</ele>
        <time>2012-02-11T14:31:54Z</time>
      </trkpt>
      <trkpt lat="42.85661" lon="0.20314">
        <ele>2293.36</ele>
        <time>2012-02-11T14:32:05Z</time>
      </trkpt>
      <trkpt lat="42.85663" lon="0.20317">
        <ele>2293.36</ele>
        <time>2012-02-11T14:32:14Z</time>
      </trkpt>
      <trkpt lat="42.85667" lon="0.20322">
        <ele>2294.8</ele>
        <time>2012-02-11T14:32:23Z</time>
      </trkpt>
      <trkpt lat="42.85669" lon="0.20324">
        <ele>2296.25</ele>
        <time>2012-02-11T14:32:27Z</time>
      </trkpt>
      <trkpt lat="42.85674" lon="0.20329">
        <ele>2297.21</ele>
        <time>2012-02-11T14:32:40Z</time>
      </trkpt>
      <trkpt lat="42.85674" lon="0.2033">
        <ele>2298.65</ele>
        <time>2012-02-11T14:32:43Z</time>
      </trkpt>
      <trkpt lat="42.85676" lon="0.20333">
        <ele>2299.13</ele>
        <time>2012-02-11T14:32:49Z</time>
      </trkpt>
      <trkpt lat="42.85679" lon="0.20337">
        <ele>2300.57</ele>
        <time>2012-02-11T14:33:03Z</time>
      </trkpt>
      <trkpt lat="42.85682" lon="0.20339">
        <ele>2300.57</ele>
        <time>2012-02-11T14:33:17Z</time>
      </trkpt>
      <trkpt lat="42.85687" lon="0.20344">
        <ele>2302.01</ele>
        <time>2012-02-11T14:33:28Z</time>
      </trkpt>
      <trkpt lat="42.85687" lon="0.2035">
        <ele>2303.94</ele>
        <time>2012-02-11T14:33:39Z</time>
      </trkpt>
      <trkpt lat="42.85687" lon="0.20358">
        <ele>2305.86</ele>
        <time>2012-02-11T14:33:46Z</time>
      </trkpt>
      <trkpt lat="42.85688" lon="0.20361">
        <ele>2304.9</ele>
        <time>2012-02-11T14:33:50Z</time>
      </trkpt>
      <trkpt lat="42.85692" lon="0.2037">
        <ele>2304.42</ele>
        <time>2012-02-11T14:34:02Z</time>
      </trkpt>
      <trkpt lat="42.85697" lon="0.20378">
        <ele>2304.9</ele>
        <time>2012-02-11T14:34:14Z</time>
      </trkpt>
      <trkpt lat="42.85704" lon="0.20388">
        <ele>2302.98</ele>
        <time>2012-02-11T14:34:28Z</time>
      </trkpt>
      <trkpt lat="42.85709" lon="0.20394">
        <ele>2305.38</ele>
        <time>2012-02-11T14:34:39Z</time>
      </trkpt>
      <trkpt lat="42.85714" lon="0.204">
        <ele>2307.78</ele>
        <time>2012-02-11T14:34:50Z</time>
      </trkpt>
      <trkpt lat="42.85716" lon="0.20403">
        <ele>2308.26</ele>
        <time>2012-02-11T14:35:05Z</time>
      </trkpt>
      <trkpt lat="42.85721" lon="0.20407">
        <ele>2309.22</ele>
        <time>2012-02-11T14:35:15Z</time>
      </trkpt>
      <trkpt lat="42.85727" lon="0.20412">
        <ele>2311.15</ele>
        <time>2012-02-11T14:35:27Z</time>
      </trkpt>
      <trkpt lat="42.85733" lon="0.20417">
        <ele>2312.59</ele>
        <time>2012-02-11T14:35:40Z</time>
      </trkpt>
      <trkpt lat="42.85734" lon="0.20419">
        <ele>2313.55</ele>
        <time>2012-02-11T14:35:55Z</time>
      </trkpt>
      <trkpt lat="42.85737" lon="0.20425">
        <ele>2314.99</ele>
        <time>2012-02-11T14:36:06Z</time>
      </trkpt>
      <trkpt lat="42.85737" lon="0.20433">
        <ele>2315.47</ele>
        <time>2012-02-11T14:36:17Z</time>
      </trkpt>
      <trkpt lat="42.85738" lon="0.20438">
        <ele>2316.43</ele>
        <time>2012-02-11T14:36:26Z</time>
      </trkpt>
      <trkpt lat="42.85738" lon="0.20442">
        <ele>2317.4</ele>
        <time>2012-02-11T14:36:41Z</time>
      </trkpt>
      <trkpt lat="42.85739" lon="0.20449">
        <ele>2317.88</ele>
        <time>2012-02-11T14:36:54Z</time>
      </trkpt>
      <trkpt lat="42.85739" lon="0.2045">
        <ele>2318.36</ele>
        <time>2012-02-11T14:37:07Z</time>
      </trkpt>
      <trkpt lat="42.85739" lon="0.20453">
        <ele>2321.72</ele>
        <time>2012-02-11T14:37:27Z</time>
      </trkpt>
      <trkpt lat="42.85738" lon="0.20464">
        <ele>2320.28</ele>
        <time>2012-02-11T14:37:38Z</time>
      </trkpt>
      <trkpt lat="42.85737" lon="0.20465">
        <ele>2320.28</ele>
        <time>2012-02-11T14:37:50Z</time>
      </trkpt>
      <trkpt lat="42.85732" lon="0.20464">
        <ele>2320.76</ele>
        <time>2012-02-11T14:38:05Z</time>
      </trkpt>
      <trkpt lat="42.85724" lon="0.20459">
        <ele>2322.2</ele>
        <time>2012-02-11T14:38:16Z</time>
      </trkpt>
      <trkpt lat="42.85722" lon="0.20459">
        <ele>2323.16</ele>
        <time>2012-02-11T14:38:18Z</time>
      </trkpt>
      <trkpt lat="42.85713" lon="0.20458">
        <ele>2323.16</ele>
        <time>2012-02-11T14:38:29Z</time>
      </trkpt>
      <trkpt lat="42.85705" lon="0.20456">
        <ele>2323.16</ele>
        <time>2012-02-11T14:38:41Z</time>
      </trkpt>
      <trkpt lat="42.85698" lon="0.20457">
        <ele>2324.61</ele>
        <time>2012-02-11T14:38:52Z</time>
      </trkpt>
      <trkpt lat="42.85697" lon="0.20457">
        <ele>2324.12</ele>
        <time>2012-02-11T14:38:53Z</time>
      </trkpt>
      <trkpt lat="42.85692" lon="0.20457">
        <ele>2324.61</ele>
        <time>2012-02-11T14:39:05Z</time>
      </trkpt>
      <trkpt lat="42.85688" lon="0.2045">
        <ele>2326.05</ele>
        <time>2012-02-11T14:39:16Z</time>
      </trkpt>
      <trkpt lat="42.85686" lon="0.20448">
        <ele>2327.97</ele>
        <time>2012-02-11T14:39:25Z</time>
      </trkpt>
      <trkpt lat="42.85679" lon="0.20454">
        <ele>2328.93</ele>
        <time>2012-02-11T14:39:37Z</time>
      </trkpt>
      <trkpt lat="42.85678" lon="0.20455">
        <ele>2329.41</ele>
        <time>2012-02-11T14:39:40Z</time>
      </trkpt>
      <trkpt lat="42.8567" lon="0.20457">
        <ele>2329.89</ele>
        <time>2012-02-11T14:39:53Z</time>
      </trkpt>
      <trkpt lat="42.85668" lon="0.20459">
        <ele>2329.89</ele>
        <time>2012-02-11T14:40:07Z</time>
      </trkpt>
      <trkpt lat="42.8566" lon="0.20464">
        <ele>2330.37</ele>
        <time>2012-02-11T14:40:18Z</time>
      </trkpt>
      <trkpt lat="42.85659" lon="0.20464">
        <ele>2329.89</ele>
        <time>2012-02-11T14:40:21Z</time>
      </trkpt>
      <trkpt lat="42.85657" lon="0.20465">
        <ele>2329.89</ele>
        <time>2012-02-11T14:40:31Z</time>
      </trkpt>
      <trkpt lat="42.85651" lon="0.20467">
        <ele>2330.85</ele>
        <time>2012-02-11T14:40:41Z</time>
      </trkpt>
      <trkpt lat="42.85649" lon="0.20467">
        <ele>2331.33</ele>
        <time>2012-02-11T14:40:57Z</time>
      </trkpt>
      <trkpt lat="42.8565" lon="0.20468">
        <ele>2330.37</ele>
        <time>2012-02-11T14:41:12Z</time>
      </trkpt>
      <trkpt lat="42.85649" lon="0.20468">
        <ele>2328.45</ele>
        <time>2012-02-11T14:41:28Z</time>
      </trkpt>
      <trkpt lat="42.85649" lon="0.20468">
        <ele>2330.85</ele>
        <time>2012-02-11T14:41:51Z</time>
      </trkpt>
      <trkpt lat="42.85649" lon="0.20468">
        <ele>2327.49</ele>
        <time>2012-02-11T14:42:19Z</time>
      </trkpt>
      <trkpt lat="42.85649" lon="0.20468">
        <ele>2332.78</ele>
        <time>2012-02-11T14:42:23Z</time>
      </trkpt>
      <trkpt lat="42.85649" lon="0.20468">
        <ele>2331.81</ele>
        <time>2012-02-11T14:42:24Z</time>
      </trkpt>
      <trkpt lat="42.85649" lon="0.20468">
        <ele>2327.97</ele>
        <time>2012-02-11T14:42:25Z</time>
      </trkpt>
      <trkpt lat="42.85649" lon="0.20468">
        <ele>2329.41</ele>
        <time>2012-02-11T14:42:26Z</time>
      </trkpt>
      <trkpt lat="42.8565" lon="0.20467">
        <ele>2329.89</ele>
        <time>2012-02-11T14:42:55Z</time>
      </trkpt>
      <trkpt lat="42.8565" lon="0.20467">
        <ele>2329.41</ele>
        <time>2012-02-11T14:43:24Z</time>
      </trkpt>
      <trkpt lat="42.8565" lon="0.20467">
        <ele>2329.41</ele>
        <time>2012-02-11T14:43:50Z</time>
      </trkpt>
      <trkpt lat="42.8565" lon="0.20468">
        <ele>2323.64</ele>
        <time>2012-02-11T14:43:57Z</time>
      </trkpt>
      <trkpt lat="42.8565" lon="0.20468">
        <ele>2327.97</ele>
        <time>2012-02-11T14:43:58Z</time>
      </trkpt>
      <trkpt lat="42.8565" lon="0.20468">
        <ele>2329.41</ele>
        <time>2012-02-11T14:44:22Z</time>
      </trkpt>
      <trkpt lat="42.8565" lon="0.20468">
        <ele>2327.01</ele>
        <time>2012-02-11T14:44:55Z</time>
      </trkpt>
      <trkpt lat="42.8565" lon="0.20468">
        <ele>2340.95</ele>
        <time>2012-02-11T14:45:17Z</time>
      </trkpt>
      <trkpt lat="42.8565" lon="0.20467">
        <ele>2331.33</ele>
        <time>2012-02-11T14:45:18Z</time>
      </trkpt>
      <trkpt lat="42.8565" lon="0.20467">
        <ele>2327.97</ele>
        <time>2012-02-11T14:45:19Z</time>
      </trkpt>
      <trkpt lat="42.8565" lon="0.20467">
        <ele>2327.97</ele>
        <time>2012-02-11T14:45:20Z</time>
      </trkpt>
      <trkpt lat="42.8565" lon="0.20467">
        <ele>2329.41</ele>
        <time>2012-02-11T14:45:22Z</time>
      </trkpt>
      <trkpt lat="42.85649" lon="0.20466">
        <ele>2329.41</ele>
        <time>2012-02-11T14:45:31Z</time>
      </trkpt>
      <trkpt lat="42.8565" lon="0.20467">
        <ele>2329.89</ele>
        <time>2012-02-11T14:45:46Z</time>
      </trkpt>
      <trkpt lat="42.8565" lon="0.20468">
        <ele>2329.89</ele>
        <time>2012-02-11T14:46:04Z</time>
      </trkpt>
      <trkpt lat="42.85652" lon="0.20467">
        <ele>2330.85</ele>
        <time>2012-02-11T14:46:19Z</time>
      </trkpt>
      <trkpt lat="42.8565" lon="0.20467">
        <ele>2329.41</ele>
        <time>2012-02-11T14:46:31Z</time>
      </trkpt>
      <trkpt lat="42.8565" lon="0.20467">
        <ele>2330.37</ele>
        <time>2012-02-11T14:46:46Z</time>
      </trkpt>
      <trkpt lat="42.8565" lon="0.20467">
        <ele>2330.37</ele>
        <time>2012-02-11T14:47:01Z</time>
      </trkpt>
      <trkpt lat="42.85649" lon="0.20467">
        <ele>2329.41</ele>
        <time>2012-02-11T14:47:28Z</time>
      </trkpt>
      <trkpt lat="42.8565" lon="0.20467">
        <ele>2329.41</ele>
        <time>2012-02-11T14:47:50Z</time>
      </trkpt>
      <trkpt lat="42.85648" lon="0.20466">
        <ele>2328.93</ele>
        <time>2012-02-11T14:48:13Z</time>
      </trkpt>
      <trkpt lat="42.85644" lon="0.20465">
        <ele>2328.45</ele>
        <time>2012-02-11T14:48:19Z</time>
      </trkpt>
      <trkpt lat="42.85636" lon="0.20466">
        <ele>2327.49</ele>
        <time>2012-02-11T14:48:24Z</time>
      </trkpt>
      <trkpt lat="42.85628" lon="0.20465">
        <ele>2325.09</ele>
        <time>2012-02-11T14:48:26Z</time>
      </trkpt>
      <trkpt lat="42.85614" lon="0.20465">
        <ele>2321.72</ele>
        <time>2012-02-11T14:48:29Z</time>
      </trkpt>
      <trkpt lat="42.85597" lon="0.20464">
        <ele>2317.88</ele>
        <time>2012-02-11T14:48:32Z</time>
      </trkpt>
      <trkpt lat="42.85577" lon="0.20475">
        <ele>2313.55</ele>
        <time>2012-02-11T14:48:37Z</time>
      </trkpt>
      <trkpt lat="42.85567" lon="0.20498">
        <ele>2310.19</ele>
        <time>2012-02-11T14:48:43Z</time>
      </trkpt>
      <trkpt lat="42.85566" lon="0.20504">
        <ele>2309.7</ele>
        <time>2012-02-11T14:48:44Z</time>
      </trkpt>
      <trkpt lat="42.85558" lon="0.20535">
        <ele>2304.42</ele>
        <time>2012-02-11T14:48:49Z</time>
      </trkpt>
      <trkpt lat="42.85557" lon="0.20544">
        <ele>2301.53</ele>
        <time>2012-02-11T14:48:50Z</time>
      </trkpt>
      <trkpt lat="42.85549" lon="0.20575">
        <ele>2294.32</ele>
        <time>2012-02-11T14:48:53Z</time>
      </trkpt>
      <trkpt lat="42.85546" lon="0.20582">
        <ele>2292.88</ele>
        <time>2012-02-11T14:48:54Z</time>
      </trkpt>
      <trkpt lat="42.85539" lon="0.20606">
        <ele>2287.59</ele>
        <time>2012-02-11T14:48:57Z</time>
      </trkpt>
      <trkpt lat="42.85534" lon="0.20625">
        <ele>2282.79</ele>
        <time>2012-02-11T14:48:59Z</time>
      </trkpt>
      <trkpt lat="42.85521" lon="0.20653">
        <ele>2274.62</ele>
        <time>2012-02-11T14:49:02Z</time>
      </trkpt>
      <trkpt lat="42.85498" lon="0.20683">
        <ele>2271.25</ele>
        <time>2012-02-11T14:49:09Z</time>
      </trkpt>
      <trkpt lat="42.85497" lon="0.20686">
        <ele>2271.73</ele>
        <time>2012-02-11T14:49:17Z</time>
      </trkpt>
      <trkpt lat="42.85495" lon="0.20689">
        <ele>2271.25</ele>
        <time>2012-02-11T14:49:20Z</time>
      </trkpt>
      <trkpt lat="42.8549" lon="0.20697">
        <ele>2270.77</ele>
        <time>2012-02-11T14:49:26Z</time>
      </trkpt>
      <trkpt lat="42.85482" lon="0.20706">
        <ele>2270.77</ele>
        <time>2012-02-11T14:49:39Z</time>
      </trkpt>
      <trkpt lat="42.85477" lon="0.20713">
        <ele>2270.29</ele>
        <time>2012-02-11T14:49:50Z</time>
      </trkpt>
      <trkpt lat="42.85475" lon="0.20719">
        <ele>2270.29</ele>
        <time>2012-02-11T14:49:59Z</time>
      </trkpt>
      <trkpt lat="42.85473" lon="0.20723">
        <ele>2270.77</ele>
        <time>2012-02-11T14:50:09Z</time>
      </trkpt>
      <trkpt lat="42.85472" lon="0.20724">
        <ele>2271.25</ele>
        <time>2012-02-11T14:50:19Z</time>
      </trkpt>
      <trkpt lat="42.85472" lon="0.20724">
        <ele>2270.77</ele>
        <time>2012-02-11T14:50:35Z</time>
      </trkpt>
      <trkpt lat="42.85472" lon="0.20724">
        <ele>2270.29</ele>
        <time>2012-02-11T14:50:49Z</time>
      </trkpt>
      <trkpt lat="42.85472" lon="0.20724">
        <ele>2271.25</ele>
        <time>2012-02-11T14:50:55Z</time>
      </trkpt>
      <trkpt lat="42.85472" lon="0.20716">
        <ele>2270.29</ele>
        <time>2012-02-11T14:51:00Z</time>
      </trkpt>
      <trkpt lat="42.85472" lon="0.2071">
        <ele>2269.33</ele>
        <time>2012-02-11T14:51:02Z</time>
      </trkpt>
      <trkpt lat="42.85466" lon="0.20691">
        <ele>2265.48</ele>
        <time>2012-02-11T14:51:06Z</time>
      </trkpt>
      <trkpt lat="42.85466" lon="0.20685">
        <ele>2264.52</ele>
        <time>2012-02-11T14:51:07Z</time>
      </trkpt>
      <trkpt lat="42.85466" lon="0.20675">
        <ele>2263.56</ele>
        <time>2012-02-11T14:51:09Z</time>
      </trkpt>
      <trkpt lat="42.85466" lon="0.2067">
        <ele>2261.64</ele>
        <time>2012-02-11T14:51:10Z</time>
      </trkpt>
      <trkpt lat="42.85454" lon="0.2066">
        <ele>2256.35</ele>
        <time>2012-02-11T14:51:13Z</time>
      </trkpt>
      <trkpt lat="42.85449" lon="0.20655">
        <ele>2253.95</ele>
        <time>2012-02-11T14:51:14Z</time>
      </trkpt>
      <trkpt lat="42.85419" lon="0.20647">
        <ele>2244.82</ele>
        <time>2012-02-11T14:51:18Z</time>
      </trkpt>
      <trkpt lat="42.85406" lon="0.20655">
        <ele>2243.37</ele>
        <time>2012-02-11T14:51:20Z</time>
      </trkpt>
      <trkpt lat="42.85398" lon="0.2067">
        <ele>2239.05</ele>
        <time>2012-02-11T14:51:22Z</time>
      </trkpt>
      <trkpt lat="42.85392" lon="0.20687">
        <ele>2233.76</ele>
        <time>2012-02-11T14:51:24Z</time>
      </trkpt>
      <trkpt lat="42.85385" lon="0.20717">
        <ele>2227.51</ele>
        <time>2012-02-11T14:51:27Z</time>
      </trkpt>
      <trkpt lat="42.85382" lon="0.20727">
        <ele>2223.67</ele>
        <time>2012-02-11T14:51:28Z</time>
      </trkpt>
      <trkpt lat="42.85377" lon="0.20746">
        <ele>2219.82</ele>
        <time>2012-02-11T14:51:30Z</time>
      </trkpt>
      <trkpt lat="42.85373" lon="0.20767">
        <ele>2216.46</ele>
        <time>2012-02-11T14:51:33Z</time>
      </trkpt>
      <trkpt lat="42.85371" lon="0.20783">
        <ele>2214.05</ele>
        <time>2012-02-11T14:51:41Z</time>
      </trkpt>
      <trkpt lat="42.85371" lon="0.20786">
        <ele>2214.53</ele>
        <time>2012-02-11T14:51:57Z</time>
      </trkpt>
      <trkpt lat="42.85371" lon="0.20787">
        <ele>2214.53</ele>
        <time>2012-02-11T14:52:12Z</time>
      </trkpt>
      <trkpt lat="42.85371" lon="0.20788">
        <ele>2213.57</ele>
        <time>2012-02-11T14:52:28Z</time>
      </trkpt>
      <trkpt lat="42.85371" lon="0.20788">
        <ele>2213.09</ele>
        <time>2012-02-11T14:52:41Z</time>
      </trkpt>
      <trkpt lat="42.85371" lon="0.20788">
        <ele>2212.61</ele>
        <time>2012-02-11T14:52:57Z</time>
      </trkpt>
      <trkpt lat="42.85371" lon="0.2079">
        <ele>2212.61</ele>
        <time>2012-02-11T14:53:11Z</time>
      </trkpt>
      <trkpt lat="42.8537" lon="0.20791">
        <ele>2212.61</ele>
        <time>2012-02-11T14:53:25Z</time>
      </trkpt>
      <trkpt lat="42.85371" lon="0.20791">
        <ele>2212.13</ele>
        <time>2012-02-11T14:53:40Z</time>
      </trkpt>
      <trkpt lat="42.8537" lon="0.20798">
        <ele>2212.13</ele>
        <time>2012-02-11T14:53:56Z</time>
      </trkpt>
      <trkpt lat="42.85368" lon="0.20805">
        <ele>2213.09</ele>
        <time>2012-02-11T14:54:02Z</time>
      </trkpt>
      <trkpt lat="42.85367" lon="0.2081">
        <ele>2213.09</ele>
        <time>2012-02-11T14:54:15Z</time>
      </trkpt>
      <trkpt lat="42.85367" lon="0.20817">
        <ele>2213.57</ele>
        <time>2012-02-11T14:54:26Z</time>
      </trkpt>
      <trkpt lat="42.85366" lon="0.2082">
        <ele>2214.05</ele>
        <time>2012-02-11T14:54:39Z</time>
      </trkpt>
      <trkpt lat="42.85366" lon="0.20823">
        <ele>2214.53</ele>
        <time>2012-02-11T14:54:55Z</time>
      </trkpt>
      <trkpt lat="42.85365" lon="0.20832">
        <ele>2214.53</ele>
        <time>2012-02-11T14:55:08Z</time>
      </trkpt>
      <trkpt lat="42.85365" lon="0.20834">
        <ele>2215.01</ele>
        <time>2012-02-11T14:55:14Z</time>
      </trkpt>
      <trkpt lat="42.85366" lon="0.20836">
        <ele>2215.01</ele>
        <time>2012-02-11T14:55:17Z</time>
      </trkpt>
      <trkpt lat="42.85365" lon="0.20837">
        <ele>2214.05</ele>
        <time>2012-02-11T14:55:24Z</time>
      </trkpt>
      <trkpt lat="42.85367" lon="0.20835">
        <ele>2215.5</ele>
        <time>2012-02-11T14:55:34Z</time>
      </trkpt>
      <trkpt lat="42.85366" lon="0.20839">
        <ele>2215.5</ele>
        <time>2012-02-11T14:55:49Z</time>
      </trkpt>
      <trkpt lat="42.85366" lon="0.20842">
        <ele>2215.98</ele>
        <time>2012-02-11T14:55:55Z</time>
      </trkpt>
      <trkpt lat="42.85365" lon="0.20843">
        <ele>2215.98</ele>
        <time>2012-02-11T14:56:05Z</time>
      </trkpt>
      <trkpt lat="42.85365" lon="0.20843">
        <ele>2215.98</ele>
        <time>2012-02-11T14:56:17Z</time>
      </trkpt>
      <trkpt lat="42.85364" lon="0.20844">
        <ele>2216.46</ele>
        <time>2012-02-11T14:56:25Z</time>
      </trkpt>
      <trkpt lat="42.85361" lon="0.20844">
        <ele>2216.94</ele>
        <time>2012-02-11T14:56:34Z</time>
      </trkpt>
      <trkpt lat="42.85361" lon="0.20845">
        <ele>2216.94</ele>
        <time>2012-02-11T14:56:36Z</time>
      </trkpt>
      <trkpt lat="42.8536" lon="0.20845">
        <ele>2217.42</ele>
        <time>2012-02-11T14:56:39Z</time>
      </trkpt>
      <trkpt lat="42.85361" lon="0.20848">
        <ele>2217.9</ele>
        <time>2012-02-11T14:56:47Z</time>
      </trkpt>
      <trkpt lat="42.85361" lon="0.20848">
        <ele>2217.9</ele>
        <time>2012-02-11T14:57:00Z</time>
      </trkpt>
      <trkpt lat="42.85364" lon="0.20855">
        <ele>2217.9</ele>
        <time>2012-02-11T14:57:12Z</time>
      </trkpt>
      <trkpt lat="42.85365" lon="0.20858">
        <ele>2217.9</ele>
        <time>2012-02-11T14:57:30Z</time>
      </trkpt>
      <trkpt lat="42.85365" lon="0.20858">
        <ele>2218.86</ele>
        <time>2012-02-11T14:57:32Z</time>
      </trkpt>
      <trkpt lat="42.85365" lon="0.20858">
        <ele>2217.42</ele>
        <time>2012-02-11T14:57:52Z</time>
      </trkpt>
      <trkpt lat="42.85367" lon="0.20865">
        <ele>2217.42</ele>
        <time>2012-02-11T14:58:04Z</time>
      </trkpt>
      <trkpt lat="42.85369" lon="0.2087">
        <ele>2218.38</ele>
        <time>2012-02-11T14:58:08Z</time>
      </trkpt>
      <trkpt lat="42.85371" lon="0.20875">
        <ele>2217.42</ele>
        <time>2012-02-11T14:58:20Z</time>
      </trkpt>
      <trkpt lat="42.85372" lon="0.20877">
        <ele>2218.38</ele>
        <time>2012-02-11T14:58:22Z</time>
      </trkpt>
      <trkpt lat="42.85373" lon="0.20883">
        <ele>2217.9</ele>
        <time>2012-02-11T14:58:26Z</time>
      </trkpt>
      <trkpt lat="42.85375" lon="0.20891">
        <ele>2217.9</ele>
        <time>2012-02-11T14:58:37Z</time>
      </trkpt>
      <trkpt lat="42.85375" lon="0.20895">
        <ele>2217.9</ele>
        <time>2012-02-11T14:58:50Z</time>
      </trkpt>
      <trkpt lat="42.85375" lon="0.20895">
        <ele>2217.9</ele>
        <time>2012-02-11T14:59:06Z</time>
      </trkpt>
      <trkpt lat="42.85376" lon="0.20895">
        <ele>2218.38</ele>
        <time>2012-02-11T14:59:21Z</time>
      </trkpt>
      <trkpt lat="42.85375" lon="0.20896">
        <ele>2213.57</ele>
        <time>2012-02-11T14:59:27Z</time>
      </trkpt>
      <trkpt lat="42.85375" lon="0.20896">
        <ele>2228.47</ele>
        <time>2012-02-11T14:59:28Z</time>
      </trkpt>
      <trkpt lat="42.85375" lon="0.20896">
        <ele>2216.46</ele>
        <time>2012-02-11T14:59:29Z</time>
      </trkpt>
      <trkpt lat="42.85375" lon="0.20896">
        <ele>2222.71</ele>
        <time>2012-02-11T14:59:33Z</time>
      </trkpt>
      <trkpt lat="42.85375" lon="0.20896">
        <ele>2210.69</ele>
        <time>2012-02-11T14:59:34Z</time>
      </trkpt>
      <trkpt lat="42.85375" lon="0.20896">
        <ele>2218.38</ele>
        <time>2012-02-11T14:59:35Z</time>
      </trkpt>
      <trkpt lat="42.85375" lon="0.20896">
        <ele>2213.57</ele>
        <time>2012-02-11T14:59:50Z</time>
      </trkpt>
      <trkpt lat="42.85375" lon="0.20896">
        <ele>2214.53</ele>
        <time>2012-02-11T14:59:51Z</time>
      </trkpt>
      <trkpt lat="42.85375" lon="0.20896">
        <ele>2218.86</ele>
        <time>2012-02-11T14:59:52Z</time>
      </trkpt>
      <trkpt lat="42.85375" lon="0.20896">
        <ele>2218.38</ele>
        <time>2012-02-11T14:59:53Z</time>
      </trkpt>
      <trkpt lat="42.85375" lon="0.20896">
        <ele>2212.13</ele>
        <time>2012-02-11T15:00:10Z</time>
      </trkpt>
      <trkpt lat="42.85375" lon="0.20896">
        <ele>2217.9</ele>
        <time>2012-02-11T15:00:11Z</time>
      </trkpt>
      <trkpt lat="42.85375" lon="0.20896">
        <ele>2214.53</ele>
        <time>2012-02-11T15:00:23Z</time>
      </trkpt>
      <trkpt lat="42.85375" lon="0.20896">
        <ele>2219.34</ele>
        <time>2012-02-11T15:00:24Z</time>
      </trkpt>
      <trkpt lat="42.85375" lon="0.20896">
        <ele>2220.3</ele>
        <time>2012-02-11T15:00:26Z</time>
      </trkpt>
      <trkpt lat="42.85375" lon="0.20896">
        <ele>2215.98</ele>
        <time>2012-02-11T15:00:30Z</time>
      </trkpt>
      <trkpt lat="42.85375" lon="0.20896">
        <ele>2219.82</ele>
        <time>2012-02-11T15:00:39Z</time>
      </trkpt>
      <trkpt lat="42.85376" lon="0.20896">
        <ele>2216.46</ele>
        <time>2012-02-11T15:01:01Z</time>
      </trkpt>
      <trkpt lat="42.85376" lon="0.20896">
        <ele>2215.98</ele>
        <time>2012-02-11T15:01:02Z</time>
      </trkpt>
      <trkpt lat="42.85376" lon="0.20897">
        <ele>2217.42</ele>
        <time>2012-02-11T15:01:29Z</time>
      </trkpt>
      <trkpt lat="42.85375" lon="0.20897">
        <ele>2218.86</ele>
        <time>2012-02-11T15:01:40Z</time>
      </trkpt>
      <trkpt lat="42.85375" lon="0.20898">
        <ele>2219.34</ele>
        <time>2012-02-11T15:01:55Z</time>
      </trkpt>
      <trkpt lat="42.85377" lon="0.20898">
        <ele>2218.38</ele>
        <time>2012-02-11T15:02:04Z</time>
      </trkpt>
      <trkpt lat="42.85375" lon="0.20904">
        <ele>2219.34</ele>
        <time>2012-02-11T15:02:13Z</time>
      </trkpt>
      <trkpt lat="42.85375" lon="0.20904">
        <ele>2218.86</ele>
        <time>2012-02-11T15:02:22Z</time>
      </trkpt>
      <trkpt lat="42.85375" lon="0.20904">
        <ele>2218.86</ele>
        <time>2012-02-11T15:02:33Z</time>
      </trkpt>
      <trkpt lat="42.85375" lon="0.20907">
        <ele>2219.34</ele>
        <time>2012-02-11T15:02:43Z</time>
      </trkpt>
      <trkpt lat="42.85373" lon="0.20909">
        <ele>2219.34</ele>
        <time>2012-02-11T15:02:59Z</time>
      </trkpt>
      <trkpt lat="42.85371" lon="0.20912">
        <ele>2220.3</ele>
        <time>2012-02-11T15:03:10Z</time>
      </trkpt>
      <trkpt lat="42.8537" lon="0.20916">
        <ele>2221.26</ele>
        <time>2012-02-11T15:03:17Z</time>
      </trkpt>
      <trkpt lat="42.85369" lon="0.20918">
        <ele>2220.78</ele>
        <time>2012-02-11T15:03:19Z</time>
      </trkpt>
      <trkpt lat="42.85369" lon="0.20918">
        <ele>2221.74</ele>
        <time>2012-02-11T15:03:29Z</time>
      </trkpt>
      <trkpt lat="42.85369" lon="0.20918">
        <ele>2222.22</ele>
        <time>2012-02-11T15:03:37Z</time>
      </trkpt>
      <trkpt lat="42.85369" lon="0.20918">
        <ele>2224.15</ele>
        <time>2012-02-11T15:03:42Z</time>
      </trkpt>
      <trkpt lat="42.85366" lon="0.20923">
        <ele>2224.15</ele>
        <time>2012-02-11T15:04:00Z</time>
      </trkpt>
      <trkpt lat="42.85363" lon="0.20926">
        <ele>2225.59</ele>
        <time>2012-02-11T15:04:09Z</time>
      </trkpt>
      <trkpt lat="42.85363" lon="0.20926">
        <ele>2227.51</ele>
        <time>2012-02-11T15:04:18Z</time>
      </trkpt>
      <trkpt lat="42.85361" lon="0.20927">
        <ele>2228.47</ele>
        <time>2012-02-11T15:04:29Z</time>
      </trkpt>
      <trkpt lat="42.85359" lon="0.20929">
        <ele>2227.99</ele>
        <time>2012-02-11T15:04:43Z</time>
      </trkpt>
      <trkpt lat="42.85356" lon="0.20933">
        <ele>2229.92</ele>
        <time>2012-02-11T15:04:52Z</time>
      </trkpt>
      <trkpt lat="42.85356" lon="0.20933">
        <ele>2230.4</ele>
        <time>2012-02-11T15:05:00Z</time>
      </trkpt>
      <trkpt lat="42.85353" lon="0.20934">
        <ele>2230.4</ele>
        <time>2012-02-11T15:05:09Z</time>
      </trkpt>
      <trkpt lat="42.85351" lon="0.20935">
        <ele>2230.4</ele>
        <time>2012-02-11T15:05:21Z</time>
      </trkpt>
      <trkpt lat="42.85349" lon="0.20939">
        <ele>2232.32</ele>
        <time>2012-02-11T15:05:30Z</time>
      </trkpt>
      <trkpt lat="42.85346" lon="0.20943">
        <ele>2233.76</ele>
        <time>2012-02-11T15:05:39Z</time>
      </trkpt>
      <trkpt lat="42.85346" lon="0.20943">
        <ele>2234.72</ele>
        <time>2012-02-11T15:05:50Z</time>
      </trkpt>
      <trkpt lat="42.85348" lon="0.20943">
        <ele>2234.72</ele>
        <time>2012-02-11T15:06:04Z</time>
      </trkpt>
      <trkpt lat="42.85347" lon="0.20943">
        <ele>2234.72</ele>
        <time>2012-02-11T15:06:21Z</time>
      </trkpt>
      <trkpt lat="42.85347" lon="0.20943">
        <ele>2234.72</ele>
        <time>2012-02-11T15:06:31Z</time>
      </trkpt>
      <trkpt lat="42.85347" lon="0.20944">
        <ele>2235.68</ele>
        <time>2012-02-11T15:06:39Z</time>
      </trkpt>
      <trkpt lat="42.85348" lon="0.20945">
        <ele>2236.16</ele>
        <time>2012-02-11T15:06:50Z</time>
      </trkpt>
      <trkpt lat="42.85348" lon="0.20945">
        <ele>2236.16</ele>
        <time>2012-02-11T15:06:56Z</time>
      </trkpt>
      <trkpt lat="42.85348" lon="0.20949">
        <ele>2238.09</ele>
        <time>2012-02-11T15:07:06Z</time>
      </trkpt>
      <trkpt lat="42.85347" lon="0.20952">
        <ele>2239.53</ele>
        <time>2012-02-11T15:07:16Z</time>
      </trkpt>
      <trkpt lat="42.85346" lon="0.20952">
        <ele>2238.57</ele>
        <time>2012-02-11T15:07:18Z</time>
      </trkpt>
      <trkpt lat="42.85345" lon="0.20955">
        <ele>2240.01</ele>
        <time>2012-02-11T15:07:27Z</time>
      </trkpt>
      <trkpt lat="42.85345" lon="0.20957">
        <ele>2240.49</ele>
        <time>2012-02-11T15:07:36Z</time>
      </trkpt>
      <trkpt lat="42.85345" lon="0.20959">
        <ele>2240.49</ele>
        <time>2012-02-11T15:07:52Z</time>
      </trkpt>
      <trkpt lat="42.85342" lon="0.20961">
        <ele>2241.45</ele>
        <time>2012-02-11T15:08:03Z</time>
      </trkpt>
      <trkpt lat="42.8534" lon="0.20965">
        <ele>2242.89</ele>
        <time>2012-02-11T15:08:14Z</time>
      </trkpt>
      <trkpt lat="42.85336" lon="0.20969">
        <ele>2243.37</ele>
        <time>2012-02-11T15:08:28Z</time>
      </trkpt>
      <trkpt lat="42.85333" lon="0.20973">
        <ele>2242.89</ele>
        <time>2012-02-11T15:08:39Z</time>
      </trkpt>
      <trkpt lat="42.85331" lon="0.20974">
        <ele>2243.85</ele>
        <time>2012-02-11T15:08:49Z</time>
      </trkpt>
      <trkpt lat="42.85331" lon="0.20971">
        <ele>2241.93</ele>
        <time>2012-02-11T15:09:01Z</time>
      </trkpt>
      <trkpt lat="42.85332" lon="0.20973">
        <ele>2243.37</ele>
        <time>2012-02-11T15:09:13Z</time>
      </trkpt>
      <trkpt lat="42.85332" lon="0.20972">
        <ele>2240.01</ele>
        <time>2012-02-11T15:09:20Z</time>
      </trkpt>
      <trkpt lat="42.85331" lon="0.20971">
        <ele>2242.41</ele>
        <time>2012-02-11T15:09:31Z</time>
      </trkpt>
      <trkpt lat="42.8533" lon="0.20971">
        <ele>2242.89</ele>
        <time>2012-02-11T15:09:50Z</time>
      </trkpt>
      <trkpt lat="42.85327" lon="0.20973">
        <ele>2243.37</ele>
        <time>2012-02-11T15:10:19Z</time>
      </trkpt>
      <trkpt lat="42.85342" lon="0.20972">
        <ele>2245.78</ele>
        <time>2012-02-12T07:12:24Z</time>
      </trkpt>
      <trkpt lat="42.85342" lon="0.20972">
        <ele>2247.22</ele>
        <time>2012-02-12T07:12:25Z</time>
      </trkpt>
      <trkpt lat="42.85342" lon="0.20971">
        <ele>2246.74</ele>
        <time>2012-02-12T07:12:26Z</time>
      </trkpt>
      <trkpt lat="42.85329" lon="0.2097">
        <ele>2240.97</ele>
        <time>2012-02-12T07:12:41Z</time>
      </trkpt>
      <trkpt lat="42.85328" lon="0.20971">
        <ele>2245.3</ele>
        <time>2012-02-12T07:12:42Z</time>
      </trkpt>
      <trkpt lat="42.85328" lon="0.20971">
        <ele>2242.41</ele>
        <time>2012-02-12T07:12:44Z</time>
      </trkpt>
      <trkpt lat="42.85328" lon="0.20972">
        <ele>2245.78</ele>
        <time>2012-02-12T07:12:45Z</time>
      </trkpt>
      <trkpt lat="42.85328" lon="0.20972">
        <ele>2246.74</ele>
        <time>2012-02-12T07:12:47Z</time>
      </trkpt>
      <trkpt lat="42.85329" lon="0.20971">
        <ele>2252.03</ele>
        <time>2012-02-12T07:12:50Z</time>
      </trkpt>
      <trkpt lat="42.8533" lon="0.20972">
        <ele>2249.62</ele>
        <time>2012-02-12T07:12:51Z</time>
      </trkpt>
      <trkpt lat="42.85327" lon="0.2097">
        <ele>2252.99</ele>
        <time>2012-02-12T07:12:57Z</time>
      </trkpt>
      <trkpt lat="42.85328" lon="0.2097">
        <ele>2255.39</ele>
        <time>2012-02-12T07:13:00Z</time>
      </trkpt>
      <trkpt lat="42.85328" lon="0.20971">
        <ele>2260.2</ele>
        <time>2012-02-12T07:13:04Z</time>
      </trkpt>
      <trkpt lat="42.85331" lon="0.20971">
        <ele>2262.6</ele>
        <time>2012-02-12T07:13:13Z</time>
      </trkpt>
      <trkpt lat="42.85331" lon="0.20969">
        <ele>2263.08</ele>
        <time>2012-02-12T07:13:27Z</time>
      </trkpt>
      <trkpt lat="42.85332" lon="0.20969">
        <ele>2262.12</ele>
        <time>2012-02-12T07:13:38Z</time>
      </trkpt>
      <trkpt lat="42.85332" lon="0.20969">
        <ele>2262.12</ele>
        <time>2012-02-12T07:13:48Z</time>
      </trkpt>
      <trkpt lat="42.85332" lon="0.20968">
        <ele>2262.12</ele>
        <time>2012-02-12T07:13:49Z</time>
      </trkpt>
      <trkpt lat="42.85333" lon="0.20964">
        <ele>2261.16</ele>
        <time>2012-02-12T07:13:52Z</time>
      </trkpt>
      <trkpt lat="42.8534" lon="0.2095">
        <ele>2259.72</ele>
        <time>2012-02-12T07:14:03Z</time>
      </trkpt>
      <trkpt lat="42.85342" lon="0.20947">
        <ele>2259.24</ele>
        <time>2012-02-12T07:14:05Z</time>
      </trkpt>
      <trkpt lat="42.85347" lon="0.2094">
        <ele>2256.83</ele>
        <time>2012-02-12T07:14:11Z</time>
      </trkpt>
      <trkpt lat="42.8535" lon="0.20937">
        <ele>2253.95</ele>
        <time>2012-02-12T07:14:15Z</time>
      </trkpt>
      <trkpt lat="42.85353" lon="0.20931">
        <ele>2251.54</ele>
        <time>2012-02-12T07:14:24Z</time>
      </trkpt>
      <trkpt lat="42.85355" lon="0.20926">
        <ele>2249.62</ele>
        <time>2012-02-12T07:14:36Z</time>
      </trkpt>
      <trkpt lat="42.85355" lon="0.20922">
        <ele>2246.74</ele>
        <time>2012-02-12T07:14:46Z</time>
      </trkpt>
      <trkpt lat="42.85358" lon="0.20917">
        <ele>2244.33</ele>
        <time>2012-02-12T07:14:57Z</time>
      </trkpt>
      <trkpt lat="42.8536" lon="0.20912">
        <ele>2242.41</ele>
        <time>2012-02-12T07:15:12Z</time>
      </trkpt>
      <trkpt lat="42.85364" lon="0.20905">
        <ele>2239.05</ele>
        <time>2012-02-12T07:15:20Z</time>
      </trkpt>
      <trkpt lat="42.85364" lon="0.20903">
        <ele>2239.53</ele>
        <time>2012-02-12T07:15:22Z</time>
      </trkpt>
      <trkpt lat="42.85365" lon="0.20899">
        <ele>2238.09</ele>
        <time>2012-02-12T07:15:25Z</time>
      </trkpt>
      <trkpt lat="42.85366" lon="0.20894">
        <ele>2237.13</ele>
        <time>2012-02-12T07:15:29Z</time>
      </trkpt>
      <trkpt lat="42.85367" lon="0.20875">
        <ele>2238.09</ele>
        <time>2012-02-12T07:15:40Z</time>
      </trkpt>
      <trkpt lat="42.85366" lon="0.20872">
        <ele>2238.09</ele>
        <time>2012-02-12T07:15:42Z</time>
      </trkpt>
      <trkpt lat="42.85363" lon="0.20865">
        <ele>2237.61</ele>
        <time>2012-02-12T07:15:48Z</time>
      </trkpt>
      <trkpt lat="42.85362" lon="0.20854">
        <ele>2236.64</ele>
        <time>2012-02-12T07:15:55Z</time>
      </trkpt>
      <trkpt lat="42.85363" lon="0.20847">
        <ele>2235.68</ele>
        <time>2012-02-12T07:16:00Z</time>
      </trkpt>
      <trkpt lat="42.85363" lon="0.2084">
        <ele>2235.2</ele>
        <time>2012-02-12T07:16:04Z</time>
      </trkpt>
      <trkpt lat="42.85362" lon="0.20818">
        <ele>2234.24</ele>
        <time>2012-02-12T07:16:17Z</time>
      </trkpt>
      <trkpt lat="42.85364" lon="0.20811">
        <ele>2233.76</ele>
        <time>2012-02-12T07:16:22Z</time>
      </trkpt>
      <trkpt lat="42.85364" lon="0.20804">
        <ele>2232.8</ele>
        <time>2012-02-12T07:16:34Z</time>
      </trkpt>
      <trkpt lat="42.85364" lon="0.20804">
        <ele>2233.28</ele>
        <time>2012-02-12T07:16:37Z</time>
      </trkpt>
      <trkpt lat="42.85365" lon="0.20801">
        <ele>2232.8</ele>
        <time>2012-02-12T07:16:39Z</time>
      </trkpt>
      <trkpt lat="42.85366" lon="0.20782">
        <ele>2232.8</ele>
        <time>2012-02-12T07:16:51Z</time>
      </trkpt>
      <trkpt lat="42.85366" lon="0.20781">
        <ele>2232.8</ele>
        <time>2012-02-12T07:16:52Z</time>
      </trkpt>
      <trkpt lat="42.85367" lon="0.20776">
        <ele>2232.32</ele>
        <time>2012-02-12T07:16:56Z</time>
      </trkpt>
      <trkpt lat="42.85368" lon="0.20769">
        <ele>2232.8</ele>
        <time>2012-02-12T07:17:02Z</time>
      </trkpt>
      <trkpt lat="42.85369" lon="0.20764">
        <ele>2232.32</ele>
        <time>2012-02-12T07:17:05Z</time>
      </trkpt>
      <trkpt lat="42.85369" lon="0.20755">
        <ele>2233.76</ele>
        <time>2012-02-12T07:17:17Z</time>
      </trkpt>
      <trkpt lat="42.8537" lon="0.20752">
        <ele>2233.76</ele>
        <time>2012-02-12T07:17:24Z</time>
      </trkpt>
      <trkpt lat="42.85372" lon="0.20738">
        <ele>2234.72</ele>
        <time>2012-02-12T07:17:35Z</time>
      </trkpt>
      <trkpt lat="42.85374" lon="0.20728">
        <ele>2235.2</ele>
        <time>2012-02-12T07:17:43Z</time>
      </trkpt>
      <trkpt lat="42.85378" lon="0.20723">
        <ele>2236.64</ele>
        <time>2012-02-12T07:17:56Z</time>
      </trkpt>
      <trkpt lat="42.85384" lon="0.20716">
        <ele>2238.57</ele>
        <time>2012-02-12T07:18:07Z</time>
      </trkpt>
      <trkpt lat="42.85383" lon="0.2071">
        <ele>2240.01</ele>
        <time>2012-02-12T07:18:14Z</time>
      </trkpt>
      <trkpt lat="42.85381" lon="0.20704">
        <ele>2240.97</ele>
        <time>2012-02-12T07:18:27Z</time>
      </trkpt>
      <trkpt lat="42.85381" lon="0.20704">
        <ele>2240.97</ele>
        <time>2012-02-12T07:18:30Z</time>
      </trkpt>
      <trkpt lat="42.85381" lon="0.20697">
        <ele>2242.41</ele>
        <time>2012-02-12T07:18:39Z</time>
      </trkpt>
      <trkpt lat="42.85382" lon="0.20697">
        <ele>2242.89</ele>
        <time>2012-02-12T07:18:44Z</time>
      </trkpt>
      <trkpt lat="42.85388" lon="0.20696">
        <ele>2243.85</ele>
        <time>2012-02-12T07:18:54Z</time>
      </trkpt>
      <trkpt lat="42.8539" lon="0.20695">
        <ele>2245.3</ele>
        <time>2012-02-12T07:19:13Z</time>
      </trkpt>
      <trkpt lat="42.85391" lon="0.20694">
        <ele>2244.82</ele>
        <time>2012-02-12T07:19:16Z</time>
      </trkpt>
      <trkpt lat="42.8539" lon="0.20691">
        <ele>2245.3</ele>
        <time>2012-02-12T07:19:19Z</time>
      </trkpt>
      <trkpt lat="42.85388" lon="0.20688">
        <ele>2245.78</ele>
        <time>2012-02-12T07:19:21Z</time>
      </trkpt>
      <trkpt lat="42.85385" lon="0.20683">
        <ele>2247.22</ele>
        <time>2012-02-12T07:19:27Z</time>
      </trkpt>
      <trkpt lat="42.85387" lon="0.2068">
        <ele>2248.66</ele>
        <time>2012-02-12T07:19:32Z</time>
      </trkpt>
      <trkpt lat="42.85394" lon="0.20675">
        <ele>2250.1</ele>
        <time>2012-02-12T07:19:43Z</time>
      </trkpt>
      <trkpt lat="42.85403" lon="0.20674">
        <ele>2252.03</ele>
        <time>2012-02-12T07:19:54Z</time>
      </trkpt>
      <trkpt lat="42.85406" lon="0.20669">
        <ele>2253.47</ele>
        <time>2012-02-12T07:20:02Z</time>
      </trkpt>
      <trkpt lat="42.85403" lon="0.20659">
        <ele>2254.91</ele>
        <time>2012-02-12T07:20:13Z</time>
      </trkpt>
      <trkpt lat="42.85405" lon="0.20655">
        <ele>2256.35</ele>
        <time>2012-02-12T07:20:24Z</time>
      </trkpt>
      <trkpt lat="42.85411" lon="0.20653">
        <ele>2257.79</ele>
        <time>2012-02-12T07:20:33Z</time>
      </trkpt>
      <trkpt lat="42.85416" lon="0.20654">
        <ele>2259.24</ele>
        <time>2012-02-12T07:20:39Z</time>
      </trkpt>
      <trkpt lat="42.85423" lon="0.20654">
        <ele>2260.68</ele>
        <time>2012-02-12T07:20:51Z</time>
      </trkpt>
      <trkpt lat="42.85424" lon="0.20648">
        <ele>2261.64</ele>
        <time>2012-02-12T07:21:00Z</time>
      </trkpt>
      <trkpt lat="42.85424" lon="0.20646">
        <ele>2261.64</ele>
        <time>2012-02-12T07:21:03Z</time>
      </trkpt>
      <trkpt lat="42.85425" lon="0.20639">
        <ele>2263.56</ele>
        <time>2012-02-12T07:21:11Z</time>
      </trkpt>
      <trkpt lat="42.8543" lon="0.20637">
        <ele>2264.04</ele>
        <time>2012-02-12T07:21:19Z</time>
      </trkpt>
      <trkpt lat="42.85436" lon="0.20629">
        <ele>2266.45</ele>
        <time>2012-02-12T07:21:31Z</time>
      </trkpt>
      <trkpt lat="42.85437" lon="0.20625">
        <ele>2267.41</ele>
        <time>2012-02-12T07:21:35Z</time>
      </trkpt>
      <trkpt lat="42.8544" lon="0.20615">
        <ele>2268.37</ele>
        <time>2012-02-12T07:21:46Z</time>
      </trkpt>
      <trkpt lat="42.8544" lon="0.20615">
        <ele>2268.37</ele>
        <time>2012-02-12T07:21:47Z</time>
      </trkpt>
      <trkpt lat="42.85447" lon="0.2061">
        <ele>2270.77</ele>
        <time>2012-02-12T07:21:57Z</time>
      </trkpt>
      <trkpt lat="42.85452" lon="0.20604">
        <ele>2271.73</ele>
        <time>2012-02-12T07:22:08Z</time>
      </trkpt>
      <trkpt lat="42.85452" lon="0.20602">
        <ele>2271.73</ele>
        <time>2012-02-12T07:22:17Z</time>
      </trkpt>
      <trkpt lat="42.85452" lon="0.20601">
        <ele>2272.21</ele>
        <time>2012-02-12T07:22:21Z</time>
      </trkpt>
      <trkpt lat="42.85453" lon="0.20596">
        <ele>2273.17</ele>
        <time>2012-02-12T07:22:31Z</time>
      </trkpt>
      <trkpt lat="42.85457" lon="0.20595">
        <ele>2276.06</ele>
        <time>2012-02-12T07:22:43Z</time>
      </trkpt>
      <trkpt lat="42.85464" lon="0.20592">
        <ele>2278.46</ele>
        <time>2012-02-12T07:22:54Z</time>
      </trkpt>
      <trkpt lat="42.85465" lon="0.20581">
        <ele>2279.9</ele>
        <time>2012-02-12T07:23:05Z</time>
      </trkpt>
      <trkpt lat="42.85469" lon="0.2058">
        <ele>2280.38</ele>
        <time>2012-02-12T07:23:13Z</time>
      </trkpt>
      <trkpt lat="42.85471" lon="0.20579">
        <ele>2281.83</ele>
        <time>2012-02-12T07:23:28Z</time>
      </trkpt>
      <trkpt lat="42.85479" lon="0.20578">
        <ele>2282.79</ele>
        <time>2012-02-12T07:23:39Z</time>
      </trkpt>
      <trkpt lat="42.8548" lon="0.20578">
        <ele>2283.27</ele>
        <time>2012-02-12T07:23:40Z</time>
      </trkpt>
      <trkpt lat="42.8549" lon="0.20579">
        <ele>2285.19</ele>
        <time>2012-02-12T07:23:52Z</time>
      </trkpt>
      <trkpt lat="42.85498" lon="0.20584">
        <ele>2286.63</ele>
        <time>2012-02-12T07:24:03Z</time>
      </trkpt>
      <trkpt lat="42.85501" lon="0.2059">
        <ele>2287.59</ele>
        <time>2012-02-12T07:24:12Z</time>
      </trkpt>
      <trkpt lat="42.85504" lon="0.20595">
        <ele>2289.04</ele>
        <time>2012-02-12T07:24:23Z</time>
      </trkpt>
      <trkpt lat="42.85505" lon="0.20596">
        <ele>2289.52</ele>
        <time>2012-02-12T07:24:28Z</time>
      </trkpt>
      <trkpt lat="42.85508" lon="0.206">
        <ele>2290.96</ele>
        <time>2012-02-12T07:24:32Z</time>
      </trkpt>
      <trkpt lat="42.85509" lon="0.20602">
        <ele>2290.96</ele>
        <time>2012-02-12T07:24:35Z</time>
      </trkpt>
      <trkpt lat="42.85511" lon="0.20608">
        <ele>2292.4</ele>
        <time>2012-02-12T07:24:44Z</time>
      </trkpt>
      <trkpt lat="42.85513" lon="0.20614">
        <ele>2293.84</ele>
        <time>2012-02-12T07:24:54Z</time>
      </trkpt>
      <trkpt lat="42.85515" lon="0.20614">
        <ele>2293.84</ele>
        <time>2012-02-12T07:25:06Z</time>
      </trkpt>
      <trkpt lat="42.8552" lon="0.20609">
        <ele>2294.32</ele>
        <time>2012-02-12T07:25:22Z</time>
      </trkpt>
      <trkpt lat="42.85527" lon="0.20608">
        <ele>2297.21</ele>
        <time>2012-02-12T07:25:31Z</time>
      </trkpt>
      <trkpt lat="42.85535" lon="0.20609">
        <ele>2298.17</ele>
        <time>2012-02-12T07:25:42Z</time>
      </trkpt>
      <trkpt lat="42.85541" lon="0.20609">
        <ele>2300.57</ele>
        <time>2012-02-12T07:25:53Z</time>
      </trkpt>
      <trkpt lat="42.85543" lon="0.20609">
        <ele>2300.57</ele>
        <time>2012-02-12T07:25:58Z</time>
      </trkpt>
      <trkpt lat="42.85542" lon="0.20605">
        <ele>2302.01</ele>
        <time>2012-02-12T07:26:07Z</time>
      </trkpt>
      <trkpt lat="42.8554" lon="0.206">
        <ele>2303.46</ele>
        <time>2012-02-12T07:26:21Z</time>
      </trkpt>
      <trkpt lat="42.85539" lon="0.20594">
        <ele>2304.9</ele>
        <time>2012-02-12T07:26:35Z</time>
      </trkpt>
      <trkpt lat="42.85541" lon="0.20585">
        <ele>2306.34</ele>
        <time>2012-02-12T07:26:45Z</time>
      </trkpt>
      <trkpt lat="42.85544" lon="0.20577">
        <ele>2308.26</ele>
        <time>2012-02-12T07:26:54Z</time>
      </trkpt>
      <trkpt lat="42.85546" lon="0.20572">
        <ele>2307.78</ele>
        <time>2012-02-12T07:27:06Z</time>
      </trkpt>
      <trkpt lat="42.8555" lon="0.2056">
        <ele>2309.22</ele>
        <time>2012-02-12T07:27:19Z</time>
      </trkpt>
      <trkpt lat="42.85553" lon="0.20552">
        <ele>2310.67</ele>
        <time>2012-02-12T07:27:29Z</time>
      </trkpt>
      <trkpt lat="42.85554" lon="0.20545">
        <ele>2313.07</ele>
        <time>2012-02-12T07:27:38Z</time>
      </trkpt>
      <trkpt lat="42.85554" lon="0.20537">
        <ele>2314.99</ele>
        <time>2012-02-12T07:27:47Z</time>
      </trkpt>
      <trkpt lat="42.85554" lon="0.2053">
        <ele>2316.91</ele>
        <time>2012-02-12T07:27:57Z</time>
      </trkpt>
      <trkpt lat="42.85555" lon="0.20523">
        <ele>2318.84</ele>
        <time>2012-02-12T07:28:07Z</time>
      </trkpt>
      <trkpt lat="42.85556" lon="0.20519">
        <ele>2319.32</ele>
        <time>2012-02-12T07:28:20Z</time>
      </trkpt>
      <trkpt lat="42.85559" lon="0.2051">
        <ele>2320.76</ele>
        <time>2012-02-12T07:28:33Z</time>
      </trkpt>
      <trkpt lat="42.85563" lon="0.20503">
        <ele>2322.2</ele>
        <time>2012-02-12T07:28:43Z</time>
      </trkpt>
      <trkpt lat="42.85566" lon="0.20495">
        <ele>2323.64</ele>
        <time>2012-02-12T07:28:53Z</time>
      </trkpt>
      <trkpt lat="42.85567" lon="0.20487">
        <ele>2325.57</ele>
        <time>2012-02-12T07:29:03Z</time>
      </trkpt>
      <trkpt lat="42.85571" lon="0.20482">
        <ele>2327.49</ele>
        <time>2012-02-12T07:29:13Z</time>
      </trkpt>
      <trkpt lat="42.85573" lon="0.20478">
        <ele>2327.01</ele>
        <time>2012-02-12T07:29:32Z</time>
      </trkpt>
      <trkpt lat="42.85578" lon="0.20472">
        <ele>2328.45</ele>
        <time>2012-02-12T07:29:41Z</time>
      </trkpt>
      <trkpt lat="42.85583" lon="0.20462">
        <ele>2328.93</ele>
        <time>2012-02-12T07:29:52Z</time>
      </trkpt>
      <trkpt lat="42.85585" lon="0.20458">
        <ele>2330.85</ele>
        <time>2012-02-12T07:30:01Z</time>
      </trkpt>
      <trkpt lat="42.85585" lon="0.20458">
        <ele>2329.89</ele>
        <time>2012-02-12T07:30:27Z</time>
      </trkpt>
      <trkpt lat="42.85584" lon="0.20457">
        <ele>2330.37</ele>
        <time>2012-02-12T07:31:01Z</time>
      </trkpt>
      <trkpt lat="42.85587" lon="0.20452">
        <ele>2331.33</ele>
        <time>2012-02-12T07:31:17Z</time>
      </trkpt>
      <trkpt lat="42.85587" lon="0.20449">
        <ele>2331.81</ele>
        <time>2012-02-12T07:31:20Z</time>
      </trkpt>
      <trkpt lat="42.85588" lon="0.20447">
        <ele>2332.3</ele>
        <time>2012-02-12T07:31:22Z</time>
      </trkpt>
      <trkpt lat="42.85593" lon="0.20441">
        <ele>2334.7</ele>
        <time>2012-02-12T07:31:32Z</time>
      </trkpt>
      <trkpt lat="42.85596" lon="0.20439">
        <ele>2334.7</ele>
        <time>2012-02-12T07:31:43Z</time>
      </trkpt>
      <trkpt lat="42.85598" lon="0.20439">
        <ele>2335.18</ele>
        <time>2012-02-12T07:31:45Z</time>
      </trkpt>
      <trkpt lat="42.856" lon="0.20439">
        <ele>2336.14</ele>
        <time>2012-02-12T07:31:48Z</time>
      </trkpt>
      <trkpt lat="42.85607" lon="0.20436">
        <ele>2338.06</ele>
        <time>2012-02-12T07:31:59Z</time>
      </trkpt>
      <trkpt lat="42.85615" lon="0.20437">
        <ele>2339.99</ele>
        <time>2012-02-12T07:32:09Z</time>
      </trkpt>
      <trkpt lat="42.8562" lon="0.20435">
        <ele>2342.39</ele>
        <time>2012-02-12T07:32:19Z</time>
      </trkpt>
      <trkpt lat="42.85619" lon="0.20432">
        <ele>2342.39</ele>
        <time>2012-02-12T07:32:23Z</time>
      </trkpt>
      <trkpt lat="42.85619" lon="0.20429">
        <ele>2342.87</ele>
        <time>2012-02-12T07:32:26Z</time>
      </trkpt>
      <trkpt lat="42.85617" lon="0.20422">
        <ele>2344.31</ele>
        <time>2012-02-12T07:32:37Z</time>
      </trkpt>
      <trkpt lat="42.85616" lon="0.20409">
        <ele>2345.75</ele>
        <time>2012-02-12T07:32:50Z</time>
      </trkpt>
      <trkpt lat="42.85616" lon="0.20403">
        <ele>2344.79</ele>
        <time>2012-02-12T07:33:06Z</time>
      </trkpt>
      <trkpt lat="42.85616" lon="0.20403">
        <ele>2343.83</ele>
        <time>2012-02-12T07:33:19Z</time>
      </trkpt>
      <trkpt lat="42.85616" lon="0.20403">
        <ele>2343.83</ele>
        <time>2012-02-12T07:33:39Z</time>
      </trkpt>
      <trkpt lat="42.85616" lon="0.20403">
        <ele>2343.35</ele>
        <time>2012-02-12T07:33:56Z</time>
      </trkpt>
      <trkpt lat="42.85616" lon="0.20403">
        <ele>2342.87</ele>
        <time>2012-02-12T07:34:21Z</time>
      </trkpt>
      <trkpt lat="42.85617" lon="0.20402">
        <ele>2343.35</ele>
        <time>2012-02-12T07:34:42Z</time>
      </trkpt>
      <trkpt lat="42.85617" lon="0.20402">
        <ele>2337.58</ele>
        <time>2012-02-12T07:34:43Z</time>
      </trkpt>
      <trkpt lat="42.85616" lon="0.20403">
        <ele>2341.91</ele>
        <time>2012-02-12T07:34:44Z</time>
      </trkpt>
      <trkpt lat="42.85616" lon="0.20403">
        <ele>2342.39</ele>
        <time>2012-02-12T07:35:17Z</time>
      </trkpt>
      <trkpt lat="42.85616" lon="0.20403">
        <ele>2341.43</ele>
        <time>2012-02-12T07:35:47Z</time>
      </trkpt>
      <trkpt lat="42.85616" lon="0.20403">
        <ele>2339.99</ele>
        <time>2012-02-12T07:36:20Z</time>
      </trkpt>
      <trkpt lat="42.85616" lon="0.20403">
        <ele>2342.87</ele>
        <time>2012-02-12T07:36:51Z</time>
      </trkpt>
      <trkpt lat="42.85616" lon="0.20403">
        <ele>2339.51</ele>
        <time>2012-02-12T07:36:52Z</time>
      </trkpt>
      <trkpt lat="42.85616" lon="0.20402">
        <ele>2339.99</ele>
        <time>2012-02-12T07:37:12Z</time>
      </trkpt>
      <trkpt lat="42.85616" lon="0.20402">
        <ele>2339.99</ele>
        <time>2012-02-12T07:37:43Z</time>
      </trkpt>
      <trkpt lat="42.85617" lon="0.20402">
        <ele>2339.99</ele>
        <time>2012-02-12T07:38:12Z</time>
      </trkpt>
      <trkpt lat="42.85617" lon="0.20402">
        <ele>2340.47</ele>
        <time>2012-02-12T07:38:45Z</time>
      </trkpt>
      <trkpt lat="42.85617" lon="0.20402">
        <ele>2339.99</ele>
        <time>2012-02-12T07:39:13Z</time>
      </trkpt>
      <trkpt lat="42.85617" lon="0.20402">
        <ele>2339.51</ele>
        <time>2012-02-12T07:39:43Z</time>
      </trkpt>
      <trkpt lat="42.85617" lon="0.20403">
        <ele>2339.51</ele>
        <time>2012-02-12T07:40:15Z</time>
      </trkpt>
      <trkpt lat="42.85617" lon="0.20403">
        <ele>2338.54</ele>
        <time>2012-02-12T07:40:47Z</time>
      </trkpt>
      <trkpt lat="42.85617" lon="0.20403">
        <ele>2339.02</ele>
        <time>2012-02-12T07:41:19Z</time>
      </trkpt>
      <trkpt lat="42.85617" lon="0.20403">
        <ele>2338.54</ele>
        <time>2012-02-12T07:41:50Z</time>
      </trkpt>
      <trkpt lat="42.85617" lon="0.20403">
        <ele>2338.06</ele>
        <time>2012-02-12T07:42:18Z</time>
      </trkpt>
      <trkpt lat="42.85617" lon="0.20403">
        <ele>2338.54</ele>
        <time>2012-02-12T07:42:49Z</time>
      </trkpt>
      <trkpt lat="42.85617" lon="0.20403">
        <ele>2338.06</ele>
        <time>2012-02-12T07:42:58Z</time>
      </trkpt>
      <trkpt lat="42.85617" lon="0.20403">
        <ele>2339.02</ele>
        <time>2012-02-12T07:43:10Z</time>
      </trkpt>
      <trkpt lat="42.85616" lon="0.20402">
        <ele>2339.51</ele>
        <time>2012-02-12T07:43:23Z</time>
      </trkpt>
      <trkpt lat="42.85615" lon="0.20401">
        <ele>2339.51</ele>
        <time>2012-02-12T07:43:39Z</time>
      </trkpt>
      <trkpt lat="42.85615" lon="0.20402">
        <ele>2339.51</ele>
        <time>2012-02-12T07:43:57Z</time>
      </trkpt>
      <trkpt lat="42.85616" lon="0.20401">
        <ele>2338.54</ele>
        <time>2012-02-12T07:44:17Z</time>
      </trkpt>
      <trkpt lat="42.85616" lon="0.20401">
        <ele>2339.02</ele>
        <time>2012-02-12T07:44:34Z</time>
      </trkpt>
      <trkpt lat="42.85617" lon="0.20402">
        <ele>2339.02</ele>
        <time>2012-02-12T07:44:46Z</time>
      </trkpt>
      <trkpt lat="42.85617" lon="0.20402">
        <ele>2338.54</ele>
        <time>2012-02-12T07:44:59Z</time>
      </trkpt>
      <trkpt lat="42.85617" lon="0.20402">
        <ele>2338.54</ele>
        <time>2012-02-12T07:45:10Z</time>
      </trkpt>
      <trkpt lat="42.85617" lon="0.20402">
        <ele>2338.54</ele>
        <time>2012-02-12T07:45:26Z</time>
      </trkpt>
      <trkpt lat="42.85617" lon="0.20402">
        <ele>2338.54</ele>
        <time>2012-02-12T07:45:49Z</time>
      </trkpt>
      <trkpt lat="42.85617" lon="0.20402">
        <ele>2338.06</ele>
        <time>2012-02-12T07:46:05Z</time>
      </trkpt>
      <trkpt lat="42.85617" lon="0.20402">
        <ele>2337.58</ele>
        <time>2012-02-12T07:46:29Z</time>
      </trkpt>
      <trkpt lat="42.85617" lon="0.20396">
        <ele>2336.62</ele>
        <time>2012-02-12T07:46:42Z</time>
      </trkpt>
      <trkpt lat="42.85617" lon="0.20391">
        <ele>2336.14</ele>
        <time>2012-02-12T07:46:57Z</time>
      </trkpt>
      <trkpt lat="42.8561" lon="0.20374">
        <ele>2332.3</ele>
        <time>2012-02-12T07:47:03Z</time>
      </trkpt>
      <trkpt lat="42.85609" lon="0.20374">
        <ele>2332.3</ele>
        <time>2012-02-12T07:47:04Z</time>
      </trkpt>
      <trkpt lat="42.85609" lon="0.20374">
        <ele>2332.3</ele>
        <time>2012-02-12T07:47:18Z</time>
      </trkpt>
      <trkpt lat="42.85609" lon="0.20374">
        <ele>2331.81</ele>
        <time>2012-02-12T07:47:36Z</time>
      </trkpt>
      <trkpt lat="42.85609" lon="0.20374">
        <ele>2331.33</ele>
        <time>2012-02-12T07:47:49Z</time>
      </trkpt>
      <trkpt lat="42.85609" lon="0.20374">
        <ele>2330.37</ele>
        <time>2012-02-12T07:48:08Z</time>
      </trkpt>
      <trkpt lat="42.8561" lon="0.20374">
        <ele>2330.37</ele>
        <time>2012-02-12T07:48:24Z</time>
      </trkpt>
      <trkpt lat="42.8561" lon="0.20374">
        <ele>2329.89</ele>
        <time>2012-02-12T07:48:51Z</time>
      </trkpt>
      <trkpt lat="42.85609" lon="0.20374">
        <ele>2329.89</ele>
        <time>2012-02-12T07:48:58Z</time>
      </trkpt>
      <trkpt lat="42.85603" lon="0.20368">
        <ele>2327.97</ele>
        <time>2012-02-12T07:49:02Z</time>
      </trkpt>
      <trkpt lat="42.85601" lon="0.20366">
        <ele>2325.09</ele>
        <time>2012-02-12T07:49:12Z</time>
      </trkpt>
      <trkpt lat="42.85601" lon="0.20365">
        <ele>2324.12</ele>
        <time>2012-02-12T07:49:16Z</time>
      </trkpt>
      <trkpt lat="42.85598" lon="0.20362">
        <ele>2321.24</ele>
        <time>2012-02-12T07:49:20Z</time>
      </trkpt>
      <trkpt lat="42.85588" lon="0.20354">
        <ele>2317.88</ele>
        <time>2012-02-12T07:49:25Z</time>
      </trkpt>
      <trkpt lat="42.85584" lon="0.20353">
        <ele>2316.91</ele>
        <time>2012-02-12T07:49:27Z</time>
      </trkpt>
      <trkpt lat="42.85584" lon="0.20352">
        <ele>2316.91</ele>
        <time>2012-02-12T07:49:48Z</time>
      </trkpt>
      <trkpt lat="42.85578" lon="0.20337">
        <ele>2312.59</ele>
        <time>2012-02-12T07:49:52Z</time>
      </trkpt>
      <trkpt lat="42.85573" lon="0.20331">
        <ele>2309.22</ele>
        <time>2012-02-12T07:49:55Z</time>
      </trkpt>
      <trkpt lat="42.85573" lon="0.20331">
        <ele>2310.67</ele>
        <time>2012-02-12T07:50:20Z</time>
      </trkpt>
      <trkpt lat="42.85573" lon="0.20331">
        <ele>2310.19</ele>
        <time>2012-02-12T07:50:41Z</time>
      </trkpt>
      <trkpt lat="42.85574" lon="0.20312">
        <ele>2306.82</ele>
        <time>2012-02-12T07:50:46Z</time>
      </trkpt>
      <trkpt lat="42.85591" lon="0.20289">
        <ele>2293.84</ele>
        <time>2012-02-12T07:50:50Z</time>
      </trkpt>
      <trkpt lat="42.85592" lon="0.20285">
        <ele>2290</ele>
        <time>2012-02-12T07:50:51Z</time>
      </trkpt>
      <trkpt lat="42.85591" lon="0.20284">
        <ele>2288.08</ele>
        <time>2012-02-12T07:50:53Z</time>
      </trkpt>
      <trkpt lat="42.85592" lon="0.20284">
        <ele>2288.56</ele>
        <time>2012-02-12T07:51:10Z</time>
      </trkpt>
      <trkpt lat="42.85592" lon="0.20284">
        <ele>2288.08</ele>
        <time>2012-02-12T07:51:35Z</time>
      </trkpt>
      <trkpt lat="42.85592" lon="0.20284">
        <ele>2287.59</ele>
        <time>2012-02-12T07:51:36Z</time>
      </trkpt>
      <trkpt lat="42.85597" lon="0.20264">
        <ele>2283.27</ele>
        <time>2012-02-12T07:51:40Z</time>
      </trkpt>
      <trkpt lat="42.85601" lon="0.20243">
        <ele>2274.62</ele>
        <time>2012-02-12T07:51:42Z</time>
      </trkpt>
      <trkpt lat="42.85602" lon="0.20233">
        <ele>2271.73</ele>
        <time>2012-02-12T07:51:43Z</time>
      </trkpt>
      <trkpt lat="42.85603" lon="0.20213">
        <ele>2266.45</ele>
        <time>2012-02-12T07:51:45Z</time>
      </trkpt>
      <trkpt lat="42.85602" lon="0.20194">
        <ele>2261.16</ele>
        <time>2012-02-12T07:51:48Z</time>
      </trkpt>
      <trkpt lat="42.85603" lon="0.20194">
        <ele>2261.16</ele>
        <time>2012-02-12T07:51:49Z</time>
      </trkpt>
      <trkpt lat="42.85603" lon="0.20196">
        <ele>2262.12</ele>
        <time>2012-02-12T07:52:00Z</time>
      </trkpt>
      <trkpt lat="42.85603" lon="0.20196">
        <ele>2260.2</ele>
        <time>2012-02-12T07:52:16Z</time>
      </trkpt>
      <trkpt lat="42.85603" lon="0.20196">
        <ele>2260.68</ele>
        <time>2012-02-12T07:52:36Z</time>
      </trkpt>
      <trkpt lat="42.85603" lon="0.20196">
        <ele>2260.68</ele>
        <time>2012-02-12T07:52:57Z</time>
      </trkpt>
      <trkpt lat="42.85603" lon="0.20197">
        <ele>2260.68</ele>
        <time>2012-02-12T07:53:16Z</time>
      </trkpt>
      <trkpt lat="42.85603" lon="0.20197">
        <ele>2261.16</ele>
        <time>2012-02-12T07:53:17Z</time>
      </trkpt>
      <trkpt lat="42.85604" lon="0.20188">
        <ele>2260.2</ele>
        <time>2012-02-12T07:53:21Z</time>
      </trkpt>
      <trkpt lat="42.85605" lon="0.2016">
        <ele>2255.87</ele>
        <time>2012-02-12T07:53:26Z</time>
      </trkpt>
      <trkpt lat="42.85606" lon="0.20143">
        <ele>2252.51</ele>
        <time>2012-02-12T07:53:28Z</time>
      </trkpt>
      <trkpt lat="42.85608" lon="0.2013">
        <ele>2250.58</ele>
        <time>2012-02-12T07:53:30Z</time>
      </trkpt>
      <trkpt lat="42.85612" lon="0.20116">
        <ele>2249.14</ele>
        <time>2012-02-12T07:53:34Z</time>
      </trkpt>
      <trkpt lat="42.85612" lon="0.20106">
        <ele>2245.78</ele>
        <time>2012-02-12T07:53:37Z</time>
      </trkpt>
      <trkpt lat="42.85612" lon="0.20105">
        <ele>2245.78</ele>
        <time>2012-02-12T07:53:38Z</time>
      </trkpt>
      <trkpt lat="42.85612" lon="0.20106">
        <ele>2244.82</ele>
        <time>2012-02-12T07:53:56Z</time>
      </trkpt>
      <trkpt lat="42.85612" lon="0.20106">
        <ele>2244.82</ele>
        <time>2012-02-12T07:53:57Z</time>
      </trkpt>
      <trkpt lat="42.85612" lon="0.20106">
        <ele>2243.85</ele>
        <time>2012-02-12T07:54:17Z</time>
      </trkpt>
      <trkpt lat="42.85612" lon="0.20106">
        <ele>2244.33</ele>
        <time>2012-02-12T07:54:37Z</time>
      </trkpt>
      <trkpt lat="42.85618" lon="0.20088">
        <ele>2240.49</ele>
        <time>2012-02-12T07:54:41Z</time>
      </trkpt>
      <trkpt lat="42.8562" lon="0.20072">
        <ele>2236.64</ele>
        <time>2012-02-12T07:54:43Z</time>
      </trkpt>
      <trkpt lat="42.85622" lon="0.20063">
        <ele>2234.24</ele>
        <time>2012-02-12T07:54:44Z</time>
      </trkpt>
      <trkpt lat="42.85623" lon="0.20034">
        <ele>2223.67</ele>
        <time>2012-02-12T07:54:47Z</time>
      </trkpt>
      <trkpt lat="42.8562" lon="0.2003">
        <ele>2219.82</ele>
        <time>2012-02-12T07:54:48Z</time>
      </trkpt>
      <trkpt lat="42.85619" lon="0.20029">
        <ele>2219.82</ele>
        <time>2012-02-12T07:54:49Z</time>
      </trkpt>
      <trkpt lat="42.8562" lon="0.2003">
        <ele>2219.82</ele>
        <time>2012-02-12T07:54:57Z</time>
      </trkpt>
      <trkpt lat="42.85623" lon="0.20009">
        <ele>2215.5</ele>
        <time>2012-02-12T07:55:03Z</time>
      </trkpt>
      <trkpt lat="42.85625" lon="0.20001">
        <ele>2214.05</ele>
        <time>2012-02-12T07:55:04Z</time>
      </trkpt>
      <trkpt lat="42.85633" lon="0.19972">
        <ele>2205.88</ele>
        <time>2012-02-12T07:55:08Z</time>
      </trkpt>
      <trkpt lat="42.85634" lon="0.19965">
        <ele>2204.92</ele>
        <time>2012-02-12T07:55:15Z</time>
      </trkpt>
      <trkpt lat="42.85634" lon="0.19965">
        <ele>2204.44</ele>
        <time>2012-02-12T07:55:37Z</time>
      </trkpt>
      <trkpt lat="42.85634" lon="0.19965">
        <ele>2203.48</ele>
        <time>2012-02-12T07:55:55Z</time>
      </trkpt>
      <trkpt lat="42.85634" lon="0.19965">
        <ele>2204.44</ele>
        <time>2012-02-12T07:56:16Z</time>
      </trkpt>
      <trkpt lat="42.85634" lon="0.19965">
        <ele>2203</ele>
        <time>2012-02-12T07:56:32Z</time>
      </trkpt>
      <trkpt lat="42.85633" lon="0.19962">
        <ele>2203.48</ele>
        <time>2012-02-12T07:56:37Z</time>
      </trkpt>
      <trkpt lat="42.85623" lon="0.19952">
        <ele>2200.11</ele>
        <time>2012-02-12T07:56:42Z</time>
      </trkpt>
      <trkpt lat="42.85613" lon="0.19949">
        <ele>2196.75</ele>
        <time>2012-02-12T07:56:44Z</time>
      </trkpt>
      <trkpt lat="42.85607" lon="0.19949">
        <ele>2195.79</ele>
        <time>2012-02-12T07:56:45Z</time>
      </trkpt>
      <trkpt lat="42.85598" lon="0.19949">
        <ele>2193.87</ele>
        <time>2012-02-12T07:56:53Z</time>
      </trkpt>
      <trkpt lat="42.85598" lon="0.19949">
        <ele>2193.87</ele>
        <time>2012-02-12T07:57:17Z</time>
      </trkpt>
      <trkpt lat="42.85598" lon="0.19949">
        <ele>2193.39</ele>
        <time>2012-02-12T07:57:24Z</time>
      </trkpt>
      <trkpt lat="42.85589" lon="0.19943">
        <ele>2190.98</ele>
        <time>2012-02-12T07:57:30Z</time>
      </trkpt>
      <trkpt lat="42.85589" lon="0.19943">
        <ele>2190.02</ele>
        <time>2012-02-12T07:57:43Z</time>
      </trkpt>
      <trkpt lat="42.85589" lon="0.19943">
        <ele>2190.5</ele>
        <time>2012-02-12T07:57:47Z</time>
      </trkpt>
      <trkpt lat="42.85579" lon="0.19936">
        <ele>2185.21</ele>
        <time>2012-02-12T07:57:51Z</time>
      </trkpt>
      <trkpt lat="42.85578" lon="0.19935">
        <ele>2184.25</ele>
        <time>2012-02-12T07:57:53Z</time>
      </trkpt>
      <trkpt lat="42.85578" lon="0.19935">
        <ele>2184.73</ele>
        <time>2012-02-12T07:58:08Z</time>
      </trkpt>
      <trkpt lat="42.85578" lon="0.19935">
        <ele>2184.25</ele>
        <time>2012-02-12T07:58:34Z</time>
      </trkpt>
      <trkpt lat="42.85578" lon="0.19935">
        <ele>2183.77</ele>
        <time>2012-02-12T07:58:58Z</time>
      </trkpt>
      <trkpt lat="42.85578" lon="0.19935">
        <ele>2183.29</ele>
        <time>2012-02-12T07:59:00Z</time>
      </trkpt>
      <trkpt lat="42.85578" lon="0.19916">
        <ele>2179.45</ele>
        <time>2012-02-12T07:59:04Z</time>
      </trkpt>
      <trkpt lat="42.85587" lon="0.19904">
        <ele>2174.16</ele>
        <time>2012-02-12T07:59:06Z</time>
      </trkpt>
      <trkpt lat="42.85594" lon="0.19899">
        <ele>2171.27</ele>
        <time>2012-02-12T07:59:08Z</time>
      </trkpt>
      <trkpt lat="42.85598" lon="0.19898">
        <ele>2170.31</ele>
        <time>2012-02-12T07:59:10Z</time>
      </trkpt>
      <trkpt lat="42.85598" lon="0.19898">
        <ele>2170.79</ele>
        <time>2012-02-12T07:59:26Z</time>
      </trkpt>
      <trkpt lat="42.85598" lon="0.19898">
        <ele>2170.79</ele>
        <time>2012-02-12T07:59:45Z</time>
      </trkpt>
      <trkpt lat="42.85598" lon="0.19898">
        <ele>2170.79</ele>
        <time>2012-02-12T07:59:55Z</time>
      </trkpt>
      <trkpt lat="42.85598" lon="0.19895">
        <ele>2170.79</ele>
        <time>2012-02-12T07:59:57Z</time>
      </trkpt>
      <trkpt lat="42.85607" lon="0.19885">
        <ele>2165.03</ele>
        <time>2012-02-12T08:00:00Z</time>
      </trkpt>
      <trkpt lat="42.85609" lon="0.19884">
        <ele>2164.55</ele>
        <time>2012-02-12T08:00:02Z</time>
      </trkpt>
      <trkpt lat="42.85609" lon="0.19884">
        <ele>2164.55</ele>
        <time>2012-02-12T08:00:24Z</time>
      </trkpt>
      <trkpt lat="42.85608" lon="0.19884">
        <ele>2165.03</ele>
        <time>2012-02-12T08:00:45Z</time>
      </trkpt>
      <trkpt lat="42.85608" lon="0.19884">
        <ele>2165.03</ele>
        <time>2012-02-12T08:01:18Z</time>
      </trkpt>
      <trkpt lat="42.85608" lon="0.19885">
        <ele>2164.55</ele>
        <time>2012-02-12T08:01:27Z</time>
      </trkpt>
      <trkpt lat="42.85611" lon="0.19871">
        <ele>2160.22</ele>
        <time>2012-02-12T08:01:30Z</time>
      </trkpt>
      <trkpt lat="42.85617" lon="0.19865">
        <ele>2156.86</ele>
        <time>2012-02-12T08:01:33Z</time>
      </trkpt>
      <trkpt lat="42.85619" lon="0.19865">
        <ele>2156.37</ele>
        <time>2012-02-12T08:01:34Z</time>
      </trkpt>
      <trkpt lat="42.85619" lon="0.19866">
        <ele>2156.37</ele>
        <time>2012-02-12T08:01:46Z</time>
      </trkpt>
      <trkpt lat="42.85619" lon="0.19866">
        <ele>2155.89</ele>
        <time>2012-02-12T08:02:11Z</time>
      </trkpt>
      <trkpt lat="42.85619" lon="0.19866">
        <ele>2155.41</ele>
        <time>2012-02-12T08:02:17Z</time>
      </trkpt>
      <trkpt lat="42.85612" lon="0.1985">
        <ele>2149.16</ele>
        <time>2012-02-12T08:02:21Z</time>
      </trkpt>
      <trkpt lat="42.85612" lon="0.19842">
        <ele>2146.28</ele>
        <time>2012-02-12T08:02:22Z</time>
      </trkpt>
      <trkpt lat="42.85611" lon="0.19829">
        <ele>2140.99</ele>
        <time>2012-02-12T08:02:24Z</time>
      </trkpt>
      <trkpt lat="42.8561" lon="0.19812">
        <ele>2134.26</ele>
        <time>2012-02-12T08:02:28Z</time>
      </trkpt>
      <trkpt lat="42.8562" lon="0.19792">
        <ele>2130.42</ele>
        <time>2012-02-12T08:02:32Z</time>
      </trkpt>
      <trkpt lat="42.85623" lon="0.19779">
        <ele>2127.53</ele>
        <time>2012-02-12T08:02:34Z</time>
      </trkpt>
      <trkpt lat="42.85632" lon="0.19766">
        <ele>2124.17</ele>
        <time>2012-02-12T08:02:39Z</time>
      </trkpt>
      <trkpt lat="42.85633" lon="0.19766">
        <ele>2123.69</ele>
        <time>2012-02-12T08:02:43Z</time>
      </trkpt>
      <trkpt lat="42.85635" lon="0.19763">
        <ele>2122.73</ele>
        <time>2012-02-12T08:02:45Z</time>
      </trkpt>
      <trkpt lat="42.85638" lon="0.19758">
        <ele>2121.77</ele>
        <time>2012-02-12T08:02:56Z</time>
      </trkpt>
      <trkpt lat="42.85638" lon="0.19758">
        <ele>2122.25</ele>
        <time>2012-02-12T08:03:15Z</time>
      </trkpt>
      <trkpt lat="42.85639" lon="0.19757">
        <ele>2121.77</ele>
        <time>2012-02-12T08:03:27Z</time>
      </trkpt>
      <trkpt lat="42.85642" lon="0.19739">
        <ele>2117.92</ele>
        <time>2012-02-12T08:03:32Z</time>
      </trkpt>
      <trkpt lat="42.85652" lon="0.19717">
        <ele>2110.71</ele>
        <time>2012-02-12T08:03:36Z</time>
      </trkpt>
      <trkpt lat="42.85655" lon="0.19698">
        <ele>2106.39</ele>
        <time>2012-02-12T08:03:39Z</time>
      </trkpt>
      <trkpt lat="42.85657" lon="0.1969">
        <ele>2105.42</ele>
        <time>2012-02-12T08:03:41Z</time>
      </trkpt>
      <trkpt lat="42.85662" lon="0.19665">
        <ele>2100.14</ele>
        <time>2012-02-12T08:03:46Z</time>
      </trkpt>
      <trkpt lat="42.85668" lon="0.19649">
        <ele>2096.29</ele>
        <time>2012-02-12T08:03:48Z</time>
      </trkpt>
      <trkpt lat="42.85681" lon="0.19626">
        <ele>2091.49</ele>
        <time>2012-02-12T08:03:52Z</time>
      </trkpt>
      <trkpt lat="42.85683" lon="0.19623">
        <ele>2091.49</ele>
        <time>2012-02-12T08:03:53Z</time>
      </trkpt>
      <trkpt lat="42.85694" lon="0.19612">
        <ele>2087.16</ele>
        <time>2012-02-12T08:03:59Z</time>
      </trkpt>
      <trkpt lat="42.85696" lon="0.1961">
        <ele>2087.16</ele>
        <time>2012-02-12T08:04:11Z</time>
      </trkpt>
      <trkpt lat="42.85696" lon="0.1961">
        <ele>2088.12</ele>
        <time>2012-02-12T08:04:34Z</time>
      </trkpt>
      <trkpt lat="42.85696" lon="0.1961">
        <ele>2088.12</ele>
        <time>2012-02-12T08:04:52Z</time>
      </trkpt>
      <trkpt lat="42.85697" lon="0.19607">
        <ele>2088.12</ele>
        <time>2012-02-12T08:05:08Z</time>
      </trkpt>
      <trkpt lat="42.85696" lon="0.19602">
        <ele>2088.12</ele>
        <time>2012-02-12T08:05:18Z</time>
      </trkpt>
      <trkpt lat="42.85698" lon="0.19594">
        <ele>2087.64</ele>
        <time>2012-02-12T08:05:35Z</time>
      </trkpt>
      <trkpt lat="42.85698" lon="0.19594">
        <ele>2087.16</ele>
        <time>2012-02-12T08:05:53Z</time>
      </trkpt>
      <trkpt lat="42.85698" lon="0.19593">
        <ele>2087.16</ele>
        <time>2012-02-12T08:06:15Z</time>
      </trkpt>
      <trkpt lat="42.85698" lon="0.19591">
        <ele>2087.16</ele>
        <time>2012-02-12T08:06:17Z</time>
      </trkpt>
      <trkpt lat="42.85692" lon="0.19573">
        <ele>2084.76</ele>
        <time>2012-02-12T08:06:27Z</time>
      </trkpt>
      <trkpt lat="42.85687" lon="0.19558">
        <ele>2083.31</ele>
        <time>2012-02-12T08:06:31Z</time>
      </trkpt>
      <trkpt lat="42.85692" lon="0.19534">
        <ele>2077.55</ele>
        <time>2012-02-12T08:06:35Z</time>
      </trkpt>
      <trkpt lat="42.85704" lon="0.19515">
        <ele>2074.18</ele>
        <time>2012-02-12T08:06:40Z</time>
      </trkpt>
      <trkpt lat="42.85705" lon="0.19514">
        <ele>2073.7</ele>
        <time>2012-02-12T08:06:42Z</time>
      </trkpt>
      <trkpt lat="42.85711" lon="0.19507">
        <ele>2072.26</ele>
        <time>2012-02-12T08:06:55Z</time>
      </trkpt>
      <trkpt lat="42.85714" lon="0.19502">
        <ele>2072.26</ele>
        <time>2012-02-12T08:07:01Z</time>
      </trkpt>
      <trkpt lat="42.85724" lon="0.19481">
        <ele>2069.38</ele>
        <time>2012-02-12T08:07:06Z</time>
      </trkpt>
      <trkpt lat="42.85736" lon="0.19454">
        <ele>2064.57</ele>
        <time>2012-02-12T08:07:12Z</time>
      </trkpt>
      <trkpt lat="42.85741" lon="0.19444">
        <ele>2063.61</ele>
        <time>2012-02-12T08:07:20Z</time>
      </trkpt>
      <trkpt lat="42.85742" lon="0.19437">
        <ele>2063.13</ele>
        <time>2012-02-12T08:07:27Z</time>
      </trkpt>
      <trkpt lat="42.85744" lon="0.19424">
        <ele>2062.17</ele>
        <time>2012-02-12T08:07:42Z</time>
      </trkpt>
      <trkpt lat="42.85744" lon="0.19424">
        <ele>2061.68</ele>
        <time>2012-02-12T08:08:02Z</time>
      </trkpt>
      <trkpt lat="42.85744" lon="0.19424">
        <ele>2062.65</ele>
        <time>2012-02-12T08:08:28Z</time>
      </trkpt>
      <trkpt lat="42.85744" lon="0.19424">
        <ele>2061.68</ele>
        <time>2012-02-12T08:08:58Z</time>
      </trkpt>
      <trkpt lat="42.85744" lon="0.19424">
        <ele>2062.65</ele>
        <time>2012-02-12T08:09:19Z</time>
      </trkpt>
      <trkpt lat="42.85744" lon="0.19424">
        <ele>2063.13</ele>
        <time>2012-02-12T08:09:43Z</time>
      </trkpt>
      <trkpt lat="42.85744" lon="0.19424">
        <ele>2063.13</ele>
        <time>2012-02-12T08:10:15Z</time>
      </trkpt>
      <trkpt lat="42.85746" lon="0.19418">
        <ele>2061.68</ele>
        <time>2012-02-12T08:10:41Z</time>
      </trkpt>
      <trkpt lat="42.85753" lon="0.19405">
        <ele>2057.84</ele>
        <time>2012-02-12T08:10:46Z</time>
      </trkpt>
      <trkpt lat="42.85746" lon="0.19397">
        <ele>2054.47</ele>
        <time>2012-02-12T08:10:49Z</time>
      </trkpt>
      <trkpt lat="42.85741" lon="0.19394">
        <ele>2050.63</ele>
        <time>2012-02-12T08:10:51Z</time>
      </trkpt>
      <trkpt lat="42.85741" lon="0.19394">
        <ele>2050.63</ele>
        <time>2012-02-12T08:10:52Z</time>
      </trkpt>
      <trkpt lat="42.85742" lon="0.19393">
        <ele>2050.15</ele>
        <time>2012-02-12T08:11:06Z</time>
      </trkpt>
      <trkpt lat="42.85742" lon="0.19393">
        <ele>2050.63</ele>
        <time>2012-02-12T08:11:18Z</time>
      </trkpt>
      <trkpt lat="42.85743" lon="0.1939">
        <ele>2049.67</ele>
        <time>2012-02-12T08:11:20Z</time>
      </trkpt>
      <trkpt lat="42.85748" lon="0.19383">
        <ele>2048.23</ele>
        <time>2012-02-12T08:11:30Z</time>
      </trkpt>
      <trkpt lat="42.85748" lon="0.19383">
        <ele>2048.71</ele>
        <time>2012-02-12T08:11:55Z</time>
      </trkpt>
      <trkpt lat="42.85748" lon="0.19383">
        <ele>2048.71</ele>
        <time>2012-02-12T08:12:20Z</time>
      </trkpt>
      <trkpt lat="42.85748" lon="0.19383">
        <ele>2049.19</ele>
        <time>2012-02-12T08:12:41Z</time>
      </trkpt>
      <trkpt lat="42.85748" lon="0.19383">
        <ele>2048.71</ele>
        <time>2012-02-12T08:13:04Z</time>
      </trkpt>
      <trkpt lat="42.85748" lon="0.19383">
        <ele>2048.71</ele>
        <time>2012-02-12T08:13:34Z</time>
      </trkpt>
      <trkpt lat="42.85749" lon="0.19379">
        <ele>2048.23</ele>
        <time>2012-02-12T08:13:54Z</time>
      </trkpt>
      <trkpt lat="42.85749" lon="0.19378">
        <ele>2049.67</ele>
        <time>2012-02-12T08:14:07Z</time>
      </trkpt>
      <trkpt lat="42.85749" lon="0.19376">
        <ele>2049.19</ele>
        <time>2012-02-12T08:14:21Z</time>
      </trkpt>
      <trkpt lat="42.85754" lon="0.19363">
        <ele>2045.82</ele>
        <time>2012-02-12T08:14:26Z</time>
      </trkpt>
      <trkpt lat="42.85751" lon="0.19364">
        <ele>2045.82</ele>
        <time>2012-02-12T08:14:40Z</time>
      </trkpt>
      <trkpt lat="42.85751" lon="0.19363">
        <ele>2045.34</ele>
        <time>2012-02-12T08:14:46Z</time>
      </trkpt>
      <trkpt lat="42.85754" lon="0.1935">
        <ele>2041.02</ele>
        <time>2012-02-12T08:14:50Z</time>
      </trkpt>
      <trkpt lat="42.85755" lon="0.1935">
        <ele>2040.54</ele>
        <time>2012-02-12T08:14:51Z</time>
      </trkpt>
      <trkpt lat="42.85754" lon="0.19351">
        <ele>2040.54</ele>
        <time>2012-02-12T08:15:03Z</time>
      </trkpt>
      <trkpt lat="42.85754" lon="0.19351">
        <ele>2041.02</ele>
        <time>2012-02-12T08:15:18Z</time>
      </trkpt>
      <trkpt lat="42.85754" lon="0.19351">
        <ele>2041.02</ele>
        <time>2012-02-12T08:15:38Z</time>
      </trkpt>
      <trkpt lat="42.85754" lon="0.19351">
        <ele>2041.02</ele>
        <time>2012-02-12T08:15:47Z</time>
      </trkpt>
      <trkpt lat="42.85749" lon="0.19348">
        <ele>2038.13</ele>
        <time>2012-02-12T08:15:51Z</time>
      </trkpt>
      <trkpt lat="42.8575" lon="0.19347">
        <ele>2037.65</ele>
        <time>2012-02-12T08:15:59Z</time>
      </trkpt>
      <trkpt lat="42.85745" lon="0.19345">
        <ele>2035.73</ele>
        <time>2012-02-12T08:16:03Z</time>
      </trkpt>
      <trkpt lat="42.85744" lon="0.19346">
        <ele>2035.73</ele>
        <time>2012-02-12T08:16:05Z</time>
      </trkpt>
      <trkpt lat="42.85743" lon="0.19337">
        <ele>2032.84</ele>
        <time>2012-02-12T08:16:09Z</time>
      </trkpt>
      <trkpt lat="42.85743" lon="0.19337">
        <ele>2032.84</ele>
        <time>2012-02-12T08:16:10Z</time>
      </trkpt>
      <trkpt lat="42.85743" lon="0.19336">
        <ele>2032.84</ele>
        <time>2012-02-12T08:16:23Z</time>
      </trkpt>
      <trkpt lat="42.85742" lon="0.19336">
        <ele>2033.33</ele>
        <time>2012-02-12T08:16:48Z</time>
      </trkpt>
      <trkpt lat="42.85743" lon="0.19336">
        <ele>2033.33</ele>
        <time>2012-02-12T08:17:00Z</time>
      </trkpt>
      <trkpt lat="42.85743" lon="0.19336">
        <ele>2032.84</ele>
        <time>2012-02-12T08:17:18Z</time>
      </trkpt>
      <trkpt lat="42.85743" lon="0.19336">
        <ele>2033.33</ele>
        <time>2012-02-12T08:17:21Z</time>
      </trkpt>
      <trkpt lat="42.85746" lon="0.19322">
        <ele>2029.48</ele>
        <time>2012-02-12T08:17:26Z</time>
      </trkpt>
      <trkpt lat="42.85745" lon="0.19322">
        <ele>2029.48</ele>
        <time>2012-02-12T08:17:34Z</time>
      </trkpt>
      <trkpt lat="42.85743" lon="0.19321">
        <ele>2029.48</ele>
        <time>2012-02-12T08:17:37Z</time>
      </trkpt>
      <trkpt lat="42.85738" lon="0.19321">
        <ele>2026.6</ele>
        <time>2012-02-12T08:17:40Z</time>
      </trkpt>
      <trkpt lat="42.85737" lon="0.19319">
        <ele>2026.6</ele>
        <time>2012-02-12T08:17:42Z</time>
      </trkpt>
      <trkpt lat="42.85739" lon="0.19313">
        <ele>2024.67</ele>
        <time>2012-02-12T08:17:48Z</time>
      </trkpt>
      <trkpt lat="42.85742" lon="0.19304">
        <ele>2023.71</ele>
        <time>2012-02-12T08:17:55Z</time>
      </trkpt>
      <trkpt lat="42.85732" lon="0.193">
        <ele>2018.91</ele>
        <time>2012-02-12T08:17:59Z</time>
      </trkpt>
      <trkpt lat="42.85731" lon="0.193">
        <ele>2019.39</ele>
        <time>2012-02-12T08:18:00Z</time>
      </trkpt>
      <trkpt lat="42.8573" lon="0.19296">
        <ele>2018.43</ele>
        <time>2012-02-12T08:18:06Z</time>
      </trkpt>
      <trkpt lat="42.85734" lon="0.19289">
        <ele>2016.5</ele>
        <time>2012-02-12T08:18:10Z</time>
      </trkpt>
      <trkpt lat="42.85733" lon="0.19275">
        <ele>2014.1</ele>
        <time>2012-02-12T08:18:15Z</time>
      </trkpt>
      <trkpt lat="42.85716" lon="0.19266">
        <ele>2008.81</ele>
        <time>2012-02-12T08:18:21Z</time>
      </trkpt>
      <trkpt lat="42.85713" lon="0.19266">
        <ele>2008.81</ele>
        <time>2012-02-12T08:18:22Z</time>
      </trkpt>
      <trkpt lat="42.85712" lon="0.19266">
        <ele>2007.85</ele>
        <time>2012-02-12T08:18:24Z</time>
      </trkpt>
      <trkpt lat="42.85712" lon="0.19265">
        <ele>2008.33</ele>
        <time>2012-02-12T08:18:33Z</time>
      </trkpt>
      <trkpt lat="42.85713" lon="0.19262">
        <ele>2008.33</ele>
        <time>2012-02-12T08:18:36Z</time>
      </trkpt>
      <trkpt lat="42.85715" lon="0.19258">
        <ele>2007.85</ele>
        <time>2012-02-12T08:18:38Z</time>
      </trkpt>
      <trkpt lat="42.85715" lon="0.19233">
        <ele>2003.52</ele>
        <time>2012-02-12T08:18:43Z</time>
      </trkpt>
      <trkpt lat="42.85714" lon="0.19216">
        <ele>1999.68</ele>
        <time>2012-02-12T08:18:46Z</time>
      </trkpt>
      <trkpt lat="42.85724" lon="0.19189">
        <ele>1996.32</ele>
        <time>2012-02-12T08:18:51Z</time>
      </trkpt>
      <trkpt lat="42.85726" lon="0.19186">
        <ele>1995.35</ele>
        <time>2012-02-12T08:19:02Z</time>
      </trkpt>
      <trkpt lat="42.85725" lon="0.19187">
        <ele>1995.35</ele>
        <time>2012-02-12T08:19:12Z</time>
      </trkpt>
      <trkpt lat="42.85725" lon="0.19187">
        <ele>1995.35</ele>
        <time>2012-02-12T08:19:28Z</time>
      </trkpt>
      <trkpt lat="42.85725" lon="0.19187">
        <ele>1995.35</ele>
        <time>2012-02-12T08:19:46Z</time>
      </trkpt>
      <trkpt lat="42.85725" lon="0.19187">
        <ele>1994.87</ele>
        <time>2012-02-12T08:20:01Z</time>
      </trkpt>
      <trkpt lat="42.85725" lon="0.19187">
        <ele>1995.83</ele>
        <time>2012-02-12T08:20:15Z</time>
      </trkpt>
      <trkpt lat="42.85725" lon="0.19187">
        <ele>1995.35</ele>
        <time>2012-02-12T08:20:20Z</time>
      </trkpt>
      <trkpt lat="42.85724" lon="0.19187">
        <ele>1988.62</ele>
        <time>2012-02-12T08:20:31Z</time>
      </trkpt>
      <trkpt lat="42.85724" lon="0.19187">
        <ele>1993.91</ele>
        <time>2012-02-12T08:20:32Z</time>
      </trkpt>
      <trkpt lat="42.85724" lon="0.19187">
        <ele>1994.39</ele>
        <time>2012-02-12T08:21:03Z</time>
      </trkpt>
      <trkpt lat="42.85724" lon="0.19187">
        <ele>1995.35</ele>
        <time>2012-02-12T08:21:37Z</time>
      </trkpt>
      <trkpt lat="42.85724" lon="0.19188">
        <ele>1995.83</ele>
        <time>2012-02-12T08:22:06Z</time>
      </trkpt>
      <trkpt lat="42.85724" lon="0.19189">
        <ele>1994.39</ele>
        <time>2012-02-12T08:22:32Z</time>
      </trkpt>
      <trkpt lat="42.85724" lon="0.19189">
        <ele>1994.87</ele>
        <time>2012-02-12T08:23:03Z</time>
      </trkpt>
      <trkpt lat="42.85724" lon="0.1919">
        <ele>1995.83</ele>
        <time>2012-02-12T08:23:41Z</time>
      </trkpt>
      <trkpt lat="42.85724" lon="0.1919">
        <ele>1991.99</ele>
        <time>2012-02-12T08:24:05Z</time>
      </trkpt>
      <trkpt lat="42.85724" lon="0.1919">
        <ele>1998.24</ele>
        <time>2012-02-12T08:24:06Z</time>
      </trkpt>
      <trkpt lat="42.85724" lon="0.1919">
        <ele>1989.1</ele>
        <time>2012-02-12T08:24:07Z</time>
      </trkpt>
      <trkpt lat="42.85724" lon="0.1919">
        <ele>1993.91</ele>
        <time>2012-02-12T08:24:08Z</time>
      </trkpt>
      <trkpt lat="42.85724" lon="0.1919">
        <ele>1998.72</ele>
        <time>2012-02-12T08:24:13Z</time>
      </trkpt>
      <trkpt lat="42.85724" lon="0.1919">
        <ele>1996.32</ele>
        <time>2012-02-12T08:24:38Z</time>
      </trkpt>
      <trkpt lat="42.85724" lon="0.1919">
        <ele>1996.32</ele>
        <time>2012-02-12T08:25:03Z</time>
      </trkpt>
      <trkpt lat="42.85725" lon="0.19189">
        <ele>1997.76</ele>
        <time>2012-02-12T08:25:12Z</time>
      </trkpt>
      <trkpt lat="42.85725" lon="0.19189">
        <ele>1998.24</ele>
        <time>2012-02-12T08:25:25Z</time>
      </trkpt>
      <trkpt lat="42.85726" lon="0.19188">
        <ele>1998.24</ele>
        <time>2012-02-12T08:25:43Z</time>
      </trkpt>
      <trkpt lat="42.85726" lon="0.19188">
        <ele>1998.72</ele>
        <time>2012-02-12T08:26:01Z</time>
      </trkpt>
      <trkpt lat="42.85726" lon="0.19188">
        <ele>1999.2</ele>
        <time>2012-02-12T08:26:14Z</time>
      </trkpt>
      <trkpt lat="42.85727" lon="0.19182">
        <ele>1998.72</ele>
        <time>2012-02-12T08:26:24Z</time>
      </trkpt>
      <trkpt lat="42.85732" lon="0.19175">
        <ele>1998.24</ele>
        <time>2012-02-12T08:26:36Z</time>
      </trkpt>
      <trkpt lat="42.85732" lon="0.19174">
        <ele>1998.24</ele>
        <time>2012-02-12T08:26:37Z</time>
      </trkpt>
      <trkpt lat="42.85738" lon="0.19169">
        <ele>1998.24</ele>
        <time>2012-02-12T08:26:43Z</time>
      </trkpt>
      <trkpt lat="42.8574" lon="0.19166">
        <ele>1998.24</ele>
        <time>2012-02-12T08:26:46Z</time>
      </trkpt>
      <trkpt lat="42.85755" lon="0.19159">
        <ele>1999.68</ele>
        <time>2012-02-12T08:27:01Z</time>
      </trkpt>
      <trkpt lat="42.85763" lon="0.19153">
        <ele>1999.2</ele>
        <time>2012-02-12T08:27:10Z</time>
      </trkpt>
      <trkpt lat="42.85768" lon="0.19146">
        <ele>2000.16</ele>
        <time>2012-02-12T08:27:17Z</time>
      </trkpt>
      <trkpt lat="42.85774" lon="0.19137">
        <ele>2000.64</ele>
        <time>2012-02-12T08:27:29Z</time>
      </trkpt>
      <trkpt lat="42.85776" lon="0.19131">
        <ele>1998.72</ele>
        <time>2012-02-12T08:27:39Z</time>
      </trkpt>
      <trkpt lat="42.85774" lon="0.19122">
        <ele>1998.72</ele>
        <time>2012-02-12T08:27:51Z</time>
      </trkpt>
      <trkpt lat="42.85783" lon="0.1911">
        <ele>2000.64</ele>
        <time>2012-02-12T08:28:03Z</time>
      </trkpt>
      <trkpt lat="42.85786" lon="0.19106">
        <ele>2000.64</ele>
        <time>2012-02-12T08:28:08Z</time>
      </trkpt>
      <trkpt lat="42.85789" lon="0.19104">
        <ele>2001.6</ele>
        <time>2012-02-12T08:28:11Z</time>
      </trkpt>
      <trkpt lat="42.85795" lon="0.19099">
        <ele>2001.6</ele>
        <time>2012-02-12T08:28:25Z</time>
      </trkpt>
      <trkpt lat="42.85795" lon="0.19099">
        <ele>2002.08</ele>
        <time>2012-02-12T08:28:54Z</time>
      </trkpt>
      <trkpt lat="42.85797" lon="0.19098">
        <ele>2002.08</ele>
        <time>2012-02-12T08:29:07Z</time>
      </trkpt>
      <trkpt lat="42.85799" lon="0.19096">
        <ele>2002.56</ele>
        <time>2012-02-12T08:29:10Z</time>
      </trkpt>
      <trkpt lat="42.85808" lon="0.19078">
        <ele>2004.49</ele>
        <time>2012-02-12T08:29:24Z</time>
      </trkpt>
      <trkpt lat="42.85813" lon="0.19072">
        <ele>2004.49</ele>
        <time>2012-02-12T08:29:30Z</time>
      </trkpt>
      <trkpt lat="42.85814" lon="0.19066">
        <ele>2004.97</ele>
        <time>2012-02-12T08:29:34Z</time>
      </trkpt>
      <trkpt lat="42.85818" lon="0.19059">
        <ele>2005.93</ele>
        <time>2012-02-12T08:29:42Z</time>
      </trkpt>
      <trkpt lat="42.85823" lon="0.19056">
        <ele>2007.37</ele>
        <time>2012-02-12T08:29:57Z</time>
      </trkpt>
      <trkpt lat="42.85824" lon="0.19055">
        <ele>2007.85</ele>
        <time>2012-02-12T08:30:02Z</time>
      </trkpt>
      <trkpt lat="42.85826" lon="0.19052">
        <ele>2006.89</ele>
        <time>2012-02-12T08:30:05Z</time>
      </trkpt>
      <trkpt lat="42.85829" lon="0.19049">
        <ele>2008.33</ele>
        <time>2012-02-12T08:30:08Z</time>
      </trkpt>
      <trkpt lat="42.85836" lon="0.19041">
        <ele>2008.33</ele>
        <time>2012-02-12T08:30:17Z</time>
      </trkpt>
      <trkpt lat="42.8584" lon="0.19032">
        <ele>2009.29</ele>
        <time>2012-02-12T08:30:30Z</time>
      </trkpt>
      <trkpt lat="42.85842" lon="0.19027">
        <ele>2009.77</ele>
        <time>2012-02-12T08:30:49Z</time>
      </trkpt>
      <trkpt lat="42.85843" lon="0.19025">
        <ele>2009.77</ele>
        <time>2012-02-12T08:30:51Z</time>
      </trkpt>
      <trkpt lat="42.85846" lon="0.19021">
        <ele>2010.73</ele>
        <time>2012-02-12T08:30:56Z</time>
      </trkpt>
      <trkpt lat="42.85853" lon="0.19008">
        <ele>2012.66</ele>
        <time>2012-02-12T08:31:11Z</time>
      </trkpt>
      <trkpt lat="42.85854" lon="0.18998">
        <ele>2014.58</ele>
        <time>2012-02-12T08:31:23Z</time>
      </trkpt>
      <trkpt lat="42.85858" lon="0.1899">
        <ele>2016.02</ele>
        <time>2012-02-12T08:31:34Z</time>
      </trkpt>
      <trkpt lat="42.85865" lon="0.18979">
        <ele>2017.46</ele>
        <time>2012-02-12T08:31:48Z</time>
      </trkpt>
      <trkpt lat="42.85868" lon="0.18973">
        <ele>2017.94</ele>
        <time>2012-02-12T08:31:55Z</time>
      </trkpt>
      <trkpt lat="42.85872" lon="0.1896">
        <ele>2018.91</ele>
        <time>2012-02-12T08:32:07Z</time>
      </trkpt>
      <trkpt lat="42.85878" lon="0.18945">
        <ele>2020.35</ele>
        <time>2012-02-12T08:32:21Z</time>
      </trkpt>
      <trkpt lat="42.85879" lon="0.18938">
        <ele>2021.31</ele>
        <time>2012-02-12T08:32:37Z</time>
      </trkpt>
      <trkpt lat="42.85882" lon="0.18927">
        <ele>2022.75</ele>
        <time>2012-02-12T08:32:50Z</time>
      </trkpt>
      <trkpt lat="42.85884" lon="0.18918">
        <ele>2024.19</ele>
        <time>2012-02-12T08:32:58Z</time>
      </trkpt>
      <trkpt lat="42.85885" lon="0.1891">
        <ele>2025.64</ele>
        <time>2012-02-12T08:33:14Z</time>
      </trkpt>
      <trkpt lat="42.85885" lon="0.1891">
        <ele>2025.64</ele>
        <time>2012-02-12T08:33:35Z</time>
      </trkpt>
      <trkpt lat="42.85889" lon="0.18914">
        <ele>2024.67</ele>
        <time>2012-02-12T08:33:49Z</time>
      </trkpt>
      <trkpt lat="42.85889" lon="0.18916">
        <ele>2025.64</ele>
        <time>2012-02-12T08:34:10Z</time>
      </trkpt>
      <trkpt lat="42.8589" lon="0.18917">
        <ele>2025.15</ele>
        <time>2012-02-12T08:34:11Z</time>
      </trkpt>
      <trkpt lat="42.85897" lon="0.18919">
        <ele>2027.08</ele>
        <time>2012-02-12T08:34:21Z</time>
      </trkpt>
      <trkpt lat="42.85899" lon="0.18914">
        <ele>2028.04</ele>
        <time>2012-02-12T08:34:34Z</time>
      </trkpt>
      <trkpt lat="42.85899" lon="0.18913">
        <ele>2027.08</ele>
        <time>2012-02-12T08:34:59Z</time>
      </trkpt>
      <trkpt lat="42.859" lon="0.1891">
        <ele>2028.04</ele>
        <time>2012-02-12T08:35:10Z</time>
      </trkpt>
      <trkpt lat="42.85901" lon="0.18915">
        <ele>2028.52</ele>
        <time>2012-02-12T08:35:19Z</time>
      </trkpt>
      <trkpt lat="42.85899" lon="0.18918">
        <ele>2028.52</ele>
        <time>2012-02-12T08:35:21Z</time>
      </trkpt>
      <trkpt lat="42.85897" lon="0.1892">
        <ele>2027.56</ele>
        <time>2012-02-12T08:35:31Z</time>
      </trkpt>
      <trkpt lat="42.85899" lon="0.18914">
        <ele>2028.04</ele>
        <time>2012-02-12T08:35:40Z</time>
      </trkpt>
      <trkpt lat="42.85903" lon="0.189">
        <ele>2029</ele>
        <time>2012-02-12T08:35:52Z</time>
      </trkpt>
      <trkpt lat="42.85906" lon="0.18888">
        <ele>2030.44</ele>
        <time>2012-02-12T08:36:04Z</time>
      </trkpt>
      <trkpt lat="42.85909" lon="0.1888">
        <ele>2031.88</ele>
        <time>2012-02-12T08:36:16Z</time>
      </trkpt>
      <trkpt lat="42.8591" lon="0.1888">
        <ele>2033.33</ele>
        <time>2012-02-12T08:36:27Z</time>
      </trkpt>
      <trkpt lat="42.85912" lon="0.18881">
        <ele>2033.33</ele>
        <time>2012-02-12T08:36:44Z</time>
      </trkpt>
      <trkpt lat="42.85918" lon="0.18891">
        <ele>2035.73</ele>
        <time>2012-02-12T08:36:57Z</time>
      </trkpt>
      <trkpt lat="42.85918" lon="0.18893">
        <ele>2036.21</ele>
        <time>2012-02-12T08:36:59Z</time>
      </trkpt>
      <trkpt lat="42.85918" lon="0.18899">
        <ele>2036.21</ele>
        <time>2012-02-12T08:37:10Z</time>
      </trkpt>
      <trkpt lat="42.8592" lon="0.18908">
        <ele>2037.65</ele>
        <time>2012-02-12T08:37:19Z</time>
      </trkpt>
      <trkpt lat="42.8592" lon="0.1891">
        <ele>2038.13</ele>
        <time>2012-02-12T08:37:35Z</time>
      </trkpt>
      <trkpt lat="42.8592" lon="0.1891">
        <ele>2039.09</ele>
        <time>2012-02-12T08:38:01Z</time>
      </trkpt>
      <trkpt lat="42.85921" lon="0.18911">
        <ele>2038.13</ele>
        <time>2012-02-12T08:38:30Z</time>
      </trkpt>
      <trkpt lat="42.85921" lon="0.18911">
        <ele>2039.09</ele>
        <time>2012-02-12T08:38:57Z</time>
      </trkpt>
      <trkpt lat="42.85921" lon="0.18911">
        <ele>2038.61</ele>
        <time>2012-02-12T08:39:02Z</time>
      </trkpt>
      <trkpt lat="42.85923" lon="0.18916">
        <ele>2039.57</ele>
        <time>2012-02-12T08:39:09Z</time>
      </trkpt>
      <trkpt lat="42.85925" lon="0.18921">
        <ele>2040.54</ele>
        <time>2012-02-12T08:39:21Z</time>
      </trkpt>
      <trkpt lat="42.85925" lon="0.18923">
        <ele>2041.5</ele>
        <time>2012-02-12T08:39:28Z</time>
      </trkpt>
      <trkpt lat="42.85926" lon="0.18923">
        <ele>2041.5</ele>
        <time>2012-02-12T08:39:29Z</time>
      </trkpt>
      <trkpt lat="42.85926" lon="0.18932">
        <ele>2041.02</ele>
        <time>2012-02-12T08:39:37Z</time>
      </trkpt>
      <trkpt lat="42.85928" lon="0.18937">
        <ele>2042.94</ele>
        <time>2012-02-12T08:39:50Z</time>
      </trkpt>
      <trkpt lat="42.85928" lon="0.18938">
        <ele>2043.42</ele>
        <time>2012-02-12T08:40:07Z</time>
      </trkpt>
      <trkpt lat="42.85929" lon="0.18945">
        <ele>2043.42</ele>
        <time>2012-02-12T08:40:19Z</time>
      </trkpt>
      <trkpt lat="42.85928" lon="0.18954">
        <ele>2044.38</ele>
        <time>2012-02-12T08:40:30Z</time>
      </trkpt>
      <trkpt lat="42.8593" lon="0.1896">
        <ele>2045.34</ele>
        <time>2012-02-12T08:40:39Z</time>
      </trkpt>
      <trkpt lat="42.85933" lon="0.18969">
        <ele>2045.34</ele>
        <time>2012-02-12T08:40:50Z</time>
      </trkpt>
      <trkpt lat="42.85934" lon="0.18969">
        <ele>2045.82</ele>
        <time>2012-02-12T08:41:10Z</time>
      </trkpt>
      <trkpt lat="42.85934" lon="0.1897">
        <ele>2046.78</ele>
        <time>2012-02-12T08:41:26Z</time>
      </trkpt>
      <trkpt lat="42.85934" lon="0.1897">
        <ele>2041.02</ele>
        <time>2012-02-12T08:41:30Z</time>
      </trkpt>
      <trkpt lat="42.85934" lon="0.1897">
        <ele>2044.38</ele>
        <time>2012-02-12T08:41:31Z</time>
      </trkpt>
      <trkpt lat="42.85934" lon="0.1897">
        <ele>2043.9</ele>
        <time>2012-02-12T08:42:01Z</time>
      </trkpt>
      <trkpt lat="42.85934" lon="0.1897">
        <ele>2043.42</ele>
        <time>2012-02-12T08:42:18Z</time>
      </trkpt>
      <trkpt lat="42.85934" lon="0.1897">
        <ele>2044.86</ele>
        <time>2012-02-12T08:42:20Z</time>
      </trkpt>
      <trkpt lat="42.85934" lon="0.18969">
        <ele>2044.86</ele>
        <time>2012-02-12T08:42:34Z</time>
      </trkpt>
      <trkpt lat="42.85934" lon="0.18969">
        <ele>2044.86</ele>
        <time>2012-02-12T08:43:02Z</time>
      </trkpt>
      <trkpt lat="42.85934" lon="0.18969">
        <ele>2045.34</ele>
        <time>2012-02-12T08:43:30Z</time>
      </trkpt>
      <trkpt lat="42.85934" lon="0.18969">
        <ele>2045.34</ele>
        <time>2012-02-12T08:44:01Z</time>
      </trkpt>
      <trkpt lat="42.85934" lon="0.18969">
        <ele>2045.34</ele>
        <time>2012-02-12T08:44:16Z</time>
      </trkpt>
      <trkpt lat="42.85934" lon="0.1897">
        <ele>2046.78</ele>
        <time>2012-02-12T08:44:25Z</time>
      </trkpt>
      <trkpt lat="42.85935" lon="0.18972">
        <ele>2047.26</ele>
        <time>2012-02-12T08:44:41Z</time>
      </trkpt>
      <trkpt lat="42.85936" lon="0.18973">
        <ele>2048.71</ele>
        <time>2012-02-12T08:44:53Z</time>
      </trkpt>
      <trkpt lat="42.85938" lon="0.18971">
        <ele>2049.19</ele>
        <time>2012-02-12T08:45:03Z</time>
      </trkpt>
      <trkpt lat="42.85938" lon="0.1897">
        <ele>2049.19</ele>
        <time>2012-02-12T08:45:04Z</time>
      </trkpt>
      <trkpt lat="42.85938" lon="0.18968">
        <ele>2049.19</ele>
        <time>2012-02-12T08:45:14Z</time>
      </trkpt>
      <trkpt lat="42.85938" lon="0.18967">
        <ele>2049.19</ele>
        <time>2012-02-12T08:45:20Z</time>
      </trkpt>
      <trkpt lat="42.85939" lon="0.18965">
        <ele>2049.67</ele>
        <time>2012-02-12T08:45:29Z</time>
      </trkpt>
      <trkpt lat="42.85939" lon="0.18964">
        <ele>2050.15</ele>
        <time>2012-02-12T08:45:32Z</time>
      </trkpt>
      <trkpt lat="42.8594" lon="0.1896">
        <ele>2049.67</ele>
        <time>2012-02-12T08:45:42Z</time>
      </trkpt>
      <trkpt lat="42.85941" lon="0.18956">
        <ele>2051.11</ele>
        <time>2012-02-12T08:45:52Z</time>
      </trkpt>
      <trkpt lat="42.85942" lon="0.18956">
        <ele>2052.07</ele>
        <time>2012-02-12T08:46:02Z</time>
      </trkpt>
      <trkpt lat="42.85943" lon="0.18956">
        <ele>2051.59</ele>
        <time>2012-02-12T08:46:14Z</time>
      </trkpt>
      <trkpt lat="42.85943" lon="0.18955">
        <ele>2046.3</ele>
        <time>2012-02-12T08:46:25Z</time>
      </trkpt>
      <trkpt lat="42.85943" lon="0.18955">
        <ele>2051.59</ele>
        <time>2012-02-12T08:46:26Z</time>
      </trkpt>
      <trkpt lat="42.85943" lon="0.18955">
        <ele>2047.26</ele>
        <time>2012-02-12T08:46:28Z</time>
      </trkpt>
      <trkpt lat="42.85943" lon="0.18955">
        <ele>2049.19</ele>
        <time>2012-02-12T08:46:29Z</time>
      </trkpt>
      <trkpt lat="42.85943" lon="0.18955">
        <ele>2050.63</ele>
        <time>2012-02-12T08:47:03Z</time>
      </trkpt>
      <trkpt lat="42.85943" lon="0.18955">
        <ele>2051.11</ele>
        <time>2012-02-12T08:47:31Z</time>
      </trkpt>
      <trkpt lat="42.85943" lon="0.18955">
        <ele>2050.63</ele>
        <time>2012-02-12T08:47:58Z</time>
      </trkpt>
      <trkpt lat="42.85943" lon="0.18955">
        <ele>2050.15</ele>
        <time>2012-02-12T08:48:10Z</time>
      </trkpt>
      <trkpt lat="42.85943" lon="0.18955">
        <ele>2053.03</ele>
        <time>2012-02-12T08:48:11Z</time>
      </trkpt>
      <trkpt lat="42.85943" lon="0.18955">
        <ele>2048.23</ele>
        <time>2012-02-12T08:48:16Z</time>
      </trkpt>
      <trkpt lat="42.85943" lon="0.18955">
        <ele>2051.59</ele>
        <time>2012-02-12T08:48:18Z</time>
      </trkpt>
      <trkpt lat="42.85942" lon="0.18956">
        <ele>2050.63</ele>
        <time>2012-02-12T08:48:33Z</time>
      </trkpt>
      <trkpt lat="42.85942" lon="0.18956">
        <ele>2050.63</ele>
        <time>2012-02-12T08:49:09Z</time>
      </trkpt>
      <trkpt lat="42.85942" lon="0.18956">
        <ele>2051.11</ele>
        <time>2012-02-12T08:49:34Z</time>
      </trkpt>
      <trkpt lat="42.85942" lon="0.18956">
        <ele>2046.78</ele>
        <time>2012-02-12T08:49:37Z</time>
      </trkpt>
      <trkpt lat="42.85942" lon="0.18956">
        <ele>2050.15</ele>
        <time>2012-02-12T08:49:38Z</time>
      </trkpt>
      <trkpt lat="42.85942" lon="0.18956">
        <ele>2052.07</ele>
        <time>2012-02-12T08:50:11Z</time>
      </trkpt>
      <trkpt lat="42.85941" lon="0.18956">
        <ele>2052.07</ele>
        <time>2012-02-12T08:50:19Z</time>
      </trkpt>
      <trkpt lat="42.85944" lon="0.18957">
        <ele>2053.03</ele>
        <time>2012-02-12T08:50:36Z</time>
      </trkpt>
      <trkpt lat="42.85947" lon="0.1896">
        <ele>2052.55</ele>
        <time>2012-02-12T08:50:45Z</time>
      </trkpt>
      <trkpt lat="42.85946" lon="0.1896">
        <ele>2052.07</ele>
        <time>2012-02-12T08:50:56Z</time>
      </trkpt>
      <trkpt lat="42.85946" lon="0.1896">
        <ele>2053.03</ele>
        <time>2012-02-12T08:51:10Z</time>
      </trkpt>
      <trkpt lat="42.85946" lon="0.18961">
        <ele>2053.03</ele>
        <time>2012-02-12T08:51:19Z</time>
      </trkpt>
      <trkpt lat="42.85948" lon="0.18961">
        <ele>2053.99</ele>
        <time>2012-02-12T08:51:30Z</time>
      </trkpt>
      <trkpt lat="42.85948" lon="0.18959">
        <ele>2054.47</ele>
        <time>2012-02-12T08:51:41Z</time>
      </trkpt>
      <trkpt lat="42.8595" lon="0.18956">
        <ele>2055.44</ele>
        <time>2012-02-12T08:51:55Z</time>
      </trkpt>
      <trkpt lat="42.85952" lon="0.18954">
        <ele>2055.92</ele>
        <time>2012-02-12T08:52:06Z</time>
      </trkpt>
      <trkpt lat="42.85953" lon="0.18951">
        <ele>2057.36</ele>
        <time>2012-02-12T08:52:19Z</time>
      </trkpt>
      <trkpt lat="42.85953" lon="0.18949">
        <ele>2057.36</ele>
        <time>2012-02-12T08:52:30Z</time>
      </trkpt>
      <trkpt lat="42.85956" lon="0.18946">
        <ele>2058.8</ele>
        <time>2012-02-12T08:52:40Z</time>
      </trkpt>
      <trkpt lat="42.85958" lon="0.18947">
        <ele>2058.8</ele>
        <time>2012-02-12T08:52:50Z</time>
      </trkpt>
      <trkpt lat="42.85961" lon="0.18948">
        <ele>2059.76</ele>
        <time>2012-02-12T08:53:01Z</time>
      </trkpt>
      <trkpt lat="42.85965" lon="0.18952">
        <ele>2060.24</ele>
        <time>2012-02-12T08:53:12Z</time>
      </trkpt>
      <trkpt lat="42.85965" lon="0.18952">
        <ele>2060.72</ele>
        <time>2012-02-12T08:53:22Z</time>
      </trkpt>
      <trkpt lat="42.85965" lon="0.18952">
        <ele>2061.68</ele>
        <time>2012-02-12T08:53:36Z</time>
      </trkpt>
      <trkpt lat="42.85968" lon="0.18952">
        <ele>2062.17</ele>
        <time>2012-02-12T08:53:46Z</time>
      </trkpt>
      <trkpt lat="42.85969" lon="0.18952">
        <ele>2062.65</ele>
        <time>2012-02-12T08:53:57Z</time>
      </trkpt>
      <trkpt lat="42.85973" lon="0.18952">
        <ele>2063.61</ele>
        <time>2012-02-12T08:54:07Z</time>
      </trkpt>
      <trkpt lat="42.85975" lon="0.18952">
        <ele>2063.61</ele>
        <time>2012-02-12T08:54:16Z</time>
      </trkpt>
      <trkpt lat="42.85979" lon="0.18953">
        <ele>2064.57</ele>
        <time>2012-02-12T08:54:28Z</time>
      </trkpt>
      <trkpt lat="42.8598" lon="0.18953">
        <ele>2065.05</ele>
        <time>2012-02-12T08:54:43Z</time>
      </trkpt>
      <trkpt lat="42.85982" lon="0.18954">
        <ele>2066.01</ele>
        <time>2012-02-12T08:54:55Z</time>
      </trkpt>
      <trkpt lat="42.85984" lon="0.18956">
        <ele>2067.45</ele>
        <time>2012-02-12T08:55:10Z</time>
      </trkpt>
      <trkpt lat="42.85986" lon="0.18957">
        <ele>2068.41</ele>
        <time>2012-02-12T08:55:22Z</time>
      </trkpt>
      <trkpt lat="42.8599" lon="0.18957">
        <ele>2068.89</ele>
        <time>2012-02-12T08:55:31Z</time>
      </trkpt>
      <trkpt lat="42.85991" lon="0.18955">
        <ele>2069.38</ele>
        <time>2012-02-12T08:55:43Z</time>
      </trkpt>
      <trkpt lat="42.85991" lon="0.18954">
        <ele>2068.89</ele>
        <time>2012-02-12T08:55:56Z</time>
      </trkpt>
      <trkpt lat="42.85991" lon="0.18953">
        <ele>2069.86</ele>
        <time>2012-02-12T08:56:06Z</time>
      </trkpt>
      <trkpt lat="42.85991" lon="0.18953">
        <ele>2069.38</ele>
        <time>2012-02-12T08:56:14Z</time>
      </trkpt>
      <trkpt lat="42.85991" lon="0.18953">
        <ele>2069.86</ele>
        <time>2012-02-12T08:56:27Z</time>
      </trkpt>
      <trkpt lat="42.85991" lon="0.18953">
        <ele>2070.34</ele>
        <time>2012-02-12T08:56:37Z</time>
      </trkpt>
      <trkpt lat="42.85992" lon="0.1895">
        <ele>2070.82</ele>
        <time>2012-02-12T08:56:49Z</time>
      </trkpt>
      <trkpt lat="42.85994" lon="0.18948">
        <ele>2071.78</ele>
        <time>2012-02-12T08:56:59Z</time>
      </trkpt>
      <trkpt lat="42.85996" lon="0.18944">
        <ele>2072.26</ele>
        <time>2012-02-12T08:57:10Z</time>
      </trkpt>
      <trkpt lat="42.85997" lon="0.18944">
        <ele>2073.7</ele>
        <time>2012-02-12T08:57:22Z</time>
      </trkpt>
      <trkpt lat="42.85999" lon="0.18946">
        <ele>2074.18</ele>
        <time>2012-02-12T08:57:37Z</time>
      </trkpt>
      <trkpt lat="42.86" lon="0.18948">
        <ele>2075.14</ele>
        <time>2012-02-12T08:57:47Z</time>
      </trkpt>
      <trkpt lat="42.86004" lon="0.18947">
        <ele>2075.62</ele>
        <time>2012-02-12T08:57:58Z</time>
      </trkpt>
      <trkpt lat="42.86005" lon="0.18945">
        <ele>2076.1</ele>
        <time>2012-02-12T08:58:10Z</time>
      </trkpt>
      <trkpt lat="42.86006" lon="0.18944">
        <ele>2077.55</ele>
        <time>2012-02-12T08:58:26Z</time>
      </trkpt>
      <trkpt lat="42.86006" lon="0.18942">
        <ele>2078.03</ele>
        <time>2012-02-12T08:58:37Z</time>
      </trkpt>
      <trkpt lat="42.86007" lon="0.1894">
        <ele>2078.99</ele>
        <time>2012-02-12T08:58:48Z</time>
      </trkpt>
      <trkpt lat="42.86008" lon="0.18939">
        <ele>2079.47</ele>
        <time>2012-02-12T08:59:00Z</time>
      </trkpt>
      <trkpt lat="42.86009" lon="0.18938">
        <ele>2079.95</ele>
        <time>2012-02-12T08:59:10Z</time>
      </trkpt>
      <trkpt lat="42.8601" lon="0.18937">
        <ele>2080.43</ele>
        <time>2012-02-12T08:59:20Z</time>
      </trkpt>
      <trkpt lat="42.86011" lon="0.18935">
        <ele>2079.95</ele>
        <time>2012-02-12T08:59:32Z</time>
      </trkpt>
      <trkpt lat="42.86012" lon="0.18934">
        <ele>2080.91</ele>
        <time>2012-02-12T08:59:42Z</time>
      </trkpt>
      <trkpt lat="42.86014" lon="0.18932">
        <ele>2080.91</ele>
        <time>2012-02-12T08:59:55Z</time>
      </trkpt>
      <trkpt lat="42.86014" lon="0.18931">
        <ele>2081.87</ele>
        <time>2012-02-12T09:00:05Z</time>
      </trkpt>
      <trkpt lat="42.86015" lon="0.18931">
        <ele>2081.39</ele>
        <time>2012-02-12T09:00:16Z</time>
      </trkpt>
      <trkpt lat="42.86016" lon="0.18928">
        <ele>2083.31</ele>
        <time>2012-02-12T09:00:26Z</time>
      </trkpt>
      <trkpt lat="42.86019" lon="0.18925">
        <ele>2084.28</ele>
        <time>2012-02-12T09:00:37Z</time>
      </trkpt>
      <trkpt lat="42.86021" lon="0.1892">
        <ele>2084.76</ele>
        <time>2012-02-12T09:00:49Z</time>
      </trkpt>
      <trkpt lat="42.86023" lon="0.18918">
        <ele>2085.24</ele>
        <time>2012-02-12T09:01:00Z</time>
      </trkpt>
      <trkpt lat="42.86026" lon="0.18916">
        <ele>2084.76</ele>
        <time>2012-02-12T09:01:12Z</time>
      </trkpt>
      <trkpt lat="42.86028" lon="0.1891">
        <ele>2085.72</ele>
        <time>2012-02-12T09:01:24Z</time>
      </trkpt>
      <trkpt lat="42.86029" lon="0.18908">
        <ele>2086.2</ele>
        <time>2012-02-12T09:01:33Z</time>
      </trkpt>
      <trkpt lat="42.8603" lon="0.18905">
        <ele>2087.16</ele>
        <time>2012-02-12T09:01:43Z</time>
      </trkpt>
      <trkpt lat="42.8603" lon="0.18905">
        <ele>2088.12</ele>
        <time>2012-02-12T09:01:47Z</time>
      </trkpt>
      <trkpt lat="42.86031" lon="0.18905">
        <ele>2087.64</ele>
        <time>2012-02-12T09:01:53Z</time>
      </trkpt>
      <trkpt lat="42.86032" lon="0.18904">
        <ele>2088.12</ele>
        <time>2012-02-12T09:01:55Z</time>
      </trkpt>
      <trkpt lat="42.86036" lon="0.189">
        <ele>2089.56</ele>
        <time>2012-02-12T09:02:07Z</time>
      </trkpt>
      <trkpt lat="42.86038" lon="0.18898">
        <ele>2091</ele>
        <time>2012-02-12T09:02:16Z</time>
      </trkpt>
      <trkpt lat="42.86041" lon="0.18896">
        <ele>2090.52</ele>
        <time>2012-02-12T09:02:27Z</time>
      </trkpt>
      <trkpt lat="42.86044" lon="0.18895">
        <ele>2091.49</ele>
        <time>2012-02-12T09:02:37Z</time>
      </trkpt>
      <trkpt lat="42.86046" lon="0.18894">
        <ele>2091.97</ele>
        <time>2012-02-12T09:02:54Z</time>
      </trkpt>
      <trkpt lat="42.8605" lon="0.18892">
        <ele>2092.45</ele>
        <time>2012-02-12T09:03:04Z</time>
      </trkpt>
      <trkpt lat="42.8605" lon="0.18891">
        <ele>2092.45</ele>
        <time>2012-02-12T09:03:18Z</time>
      </trkpt>
      <trkpt lat="42.86056" lon="0.18888">
        <ele>2093.89</ele>
        <time>2012-02-12T09:03:29Z</time>
      </trkpt>
      <trkpt lat="42.86057" lon="0.18886">
        <ele>2093.89</ele>
        <time>2012-02-12T09:03:31Z</time>
      </trkpt>
      <trkpt lat="42.8606" lon="0.18885">
        <ele>2095.33</ele>
        <time>2012-02-12T09:03:41Z</time>
      </trkpt>
      <trkpt lat="42.86065" lon="0.18881">
        <ele>2095.81</ele>
        <time>2012-02-12T09:03:53Z</time>
      </trkpt>
      <trkpt lat="42.86067" lon="0.1888">
        <ele>2096.29</ele>
        <time>2012-02-12T09:04:06Z</time>
      </trkpt>
      <trkpt lat="42.8607" lon="0.18875">
        <ele>2095.81</ele>
        <time>2012-02-12T09:04:17Z</time>
      </trkpt>
      <trkpt lat="42.86071" lon="0.18874">
        <ele>2095.81</ele>
        <time>2012-02-12T09:04:29Z</time>
      </trkpt>
      <trkpt lat="42.86072" lon="0.18873">
        <ele>2096.77</ele>
        <time>2012-02-12T09:04:40Z</time>
      </trkpt>
      <trkpt lat="42.86072" lon="0.18872">
        <ele>2097.25</ele>
        <time>2012-02-12T09:04:46Z</time>
      </trkpt>
      <trkpt lat="42.86079" lon="0.18864">
        <ele>2098.21</ele>
        <time>2012-02-12T09:04:57Z</time>
      </trkpt>
      <trkpt lat="42.86081" lon="0.18862">
        <ele>2099.18</ele>
        <time>2012-02-12T09:05:10Z</time>
      </trkpt>
      <trkpt lat="42.86085" lon="0.18856">
        <ele>2099.66</ele>
        <time>2012-02-12T09:05:22Z</time>
      </trkpt>
      <trkpt lat="42.86086" lon="0.18855">
        <ele>2100.14</ele>
        <time>2012-02-12T09:05:33Z</time>
      </trkpt>
      <trkpt lat="42.86087" lon="0.18852">
        <ele>2100.62</ele>
        <time>2012-02-12T09:05:54Z</time>
      </trkpt>
      <trkpt lat="42.86089" lon="0.1885">
        <ele>2100.62</ele>
        <time>2012-02-12T09:06:12Z</time>
      </trkpt>
      <trkpt lat="42.86092" lon="0.18847">
        <ele>2101.58</ele>
        <time>2012-02-12T09:06:25Z</time>
      </trkpt>
      <trkpt lat="42.86094" lon="0.18845">
        <ele>2101.58</ele>
        <time>2012-02-12T09:06:36Z</time>
      </trkpt>
      <trkpt lat="42.86094" lon="0.18844">
        <ele>2102.54</ele>
        <time>2012-02-12T09:06:46Z</time>
      </trkpt>
      <trkpt lat="42.86097" lon="0.18837">
        <ele>2103.5</ele>
        <time>2012-02-12T09:06:52Z</time>
      </trkpt>
      <trkpt lat="42.86105" lon="0.18829">
        <ele>2103.98</ele>
        <time>2012-02-12T09:07:04Z</time>
      </trkpt>
      <trkpt lat="42.86108" lon="0.18825">
        <ele>2104.94</ele>
        <time>2012-02-12T09:07:15Z</time>
      </trkpt>
      <trkpt lat="42.86113" lon="0.18815">
        <ele>2107.35</ele>
        <time>2012-02-12T09:07:25Z</time>
      </trkpt>
      <trkpt lat="42.86114" lon="0.18813">
        <ele>2106.87</ele>
        <time>2012-02-12T09:07:27Z</time>
      </trkpt>
      <trkpt lat="42.86116" lon="0.18811">
        <ele>2107.35</ele>
        <time>2012-02-12T09:07:31Z</time>
      </trkpt>
      <trkpt lat="42.86118" lon="0.18808">
        <ele>2108.79</ele>
        <time>2012-02-12T09:07:34Z</time>
      </trkpt>
      <trkpt lat="42.8612" lon="0.18807">
        <ele>2109.27</ele>
        <time>2012-02-12T09:07:36Z</time>
      </trkpt>
      <trkpt lat="42.86127" lon="0.18795">
        <ele>2109.27</ele>
        <time>2012-02-12T09:07:49Z</time>
      </trkpt>
      <trkpt lat="42.86128" lon="0.18794">
        <ele>2110.23</ele>
        <time>2012-02-12T09:07:50Z</time>
      </trkpt>
      <trkpt lat="42.86134" lon="0.18784">
        <ele>2111.19</ele>
        <time>2012-02-12T09:08:01Z</time>
      </trkpt>
      <trkpt lat="42.86135" lon="0.18782">
        <ele>2111.19</ele>
        <time>2012-02-12T09:08:03Z</time>
      </trkpt>
      <trkpt lat="42.8613" lon="0.18773">
        <ele>2113.6</ele>
        <time>2012-02-12T09:08:14Z</time>
      </trkpt>
      <trkpt lat="42.86124" lon="0.18761">
        <ele>2115.04</ele>
        <time>2012-02-12T09:08:25Z</time>
      </trkpt>
      <trkpt lat="42.86123" lon="0.18758">
        <ele>2114.08</ele>
        <time>2012-02-12T09:08:27Z</time>
      </trkpt>
      <trkpt lat="42.86122" lon="0.18745">
        <ele>2113.12</ele>
        <time>2012-02-12T09:08:36Z</time>
      </trkpt>
      <trkpt lat="42.86123" lon="0.18735">
        <ele>2110.23</ele>
        <time>2012-02-12T09:08:41Z</time>
      </trkpt>
      <trkpt lat="42.86123" lon="0.18733">
        <ele>2110.71</ele>
        <time>2012-02-12T09:08:42Z</time>
      </trkpt>
      <trkpt lat="42.86121" lon="0.18724">
        <ele>2108.31</ele>
        <time>2012-02-12T09:08:55Z</time>
      </trkpt>
      <trkpt lat="42.86118" lon="0.18716">
        <ele>2108.31</ele>
        <time>2012-02-12T09:09:03Z</time>
      </trkpt>
      <trkpt lat="42.86109" lon="0.18701">
        <ele>2108.79</ele>
        <time>2012-02-12T09:09:17Z</time>
      </trkpt>
      <trkpt lat="42.86108" lon="0.18699">
        <ele>2108.79</ele>
        <time>2012-02-12T09:09:19Z</time>
      </trkpt>
      <trkpt lat="42.86107" lon="0.18696">
        <ele>2108.79</ele>
        <time>2012-02-12T09:09:32Z</time>
      </trkpt>
      <trkpt lat="42.86108" lon="0.18696">
        <ele>2097.25</ele>
        <time>2012-02-12T09:09:39Z</time>
      </trkpt>
      <trkpt lat="42.86108" lon="0.18696">
        <ele>2106.87</ele>
        <time>2012-02-12T09:09:40Z</time>
      </trkpt>
      <trkpt lat="42.86108" lon="0.18695">
        <ele>2107.35</ele>
        <time>2012-02-12T09:10:20Z</time>
      </trkpt>
      <trkpt lat="42.86108" lon="0.18695">
        <ele>2107.35</ele>
        <time>2012-02-12T09:10:57Z</time>
      </trkpt>
      <trkpt lat="42.86108" lon="0.18696">
        <ele>2107.83</ele>
        <time>2012-02-12T09:11:35Z</time>
      </trkpt>
      <trkpt lat="42.86108" lon="0.18696">
        <ele>2106.87</ele>
        <time>2012-02-12T09:12:07Z</time>
      </trkpt>
      <trkpt lat="42.86108" lon="0.18696">
        <ele>2110.23</ele>
        <time>2012-02-12T09:12:15Z</time>
      </trkpt>
      <trkpt lat="42.86108" lon="0.18695">
        <ele>2103.98</ele>
        <time>2012-02-12T09:12:18Z</time>
      </trkpt>
      <trkpt lat="42.86108" lon="0.18695">
        <ele>2105.42</ele>
        <time>2012-02-12T09:12:19Z</time>
      </trkpt>
      <trkpt lat="42.86108" lon="0.18695">
        <ele>2107.35</ele>
        <time>2012-02-12T09:12:21Z</time>
      </trkpt>
      <trkpt lat="42.86108" lon="0.18695">
        <ele>2107.35</ele>
        <time>2012-02-12T09:12:43Z</time>
      </trkpt>
      <trkpt lat="42.86108" lon="0.18695">
        <ele>2106.87</ele>
        <time>2012-02-12T09:13:11Z</time>
      </trkpt>
      <trkpt lat="42.86108" lon="0.18695">
        <ele>2107.83</ele>
        <time>2012-02-12T09:13:39Z</time>
      </trkpt>
      <trkpt lat="42.86108" lon="0.18695">
        <ele>2106.39</ele>
        <time>2012-02-12T09:14:11Z</time>
      </trkpt>
      <trkpt lat="42.86108" lon="0.18695">
        <ele>2106.39</ele>
        <time>2012-02-12T09:14:37Z</time>
      </trkpt>
      <trkpt lat="42.86108" lon="0.18695">
        <ele>2105.91</ele>
        <time>2012-02-12T09:15:08Z</time>
      </trkpt>
      <trkpt lat="42.86108" lon="0.18695">
        <ele>2106.39</ele>
        <time>2012-02-12T09:15:09Z</time>
      </trkpt>
      <trkpt lat="42.86108" lon="0.18696">
        <ele>2106.39</ele>
        <time>2012-02-12T09:15:38Z</time>
      </trkpt>
      <trkpt lat="42.86108" lon="0.18693">
        <ele>2108.79</ele>
        <time>2012-02-12T09:15:47Z</time>
      </trkpt>
      <trkpt lat="42.8611" lon="0.18692">
        <ele>2106.87</ele>
        <time>2012-02-12T09:15:50Z</time>
      </trkpt>
      <trkpt lat="42.86109" lon="0.18692">
        <ele>2106.39</ele>
        <time>2012-02-12T09:16:13Z</time>
      </trkpt>
      <trkpt lat="42.86109" lon="0.18692">
        <ele>2106.39</ele>
        <time>2012-02-12T09:16:39Z</time>
      </trkpt>
      <trkpt lat="42.86109" lon="0.18692">
        <ele>2106.39</ele>
        <time>2012-02-12T09:17:08Z</time>
      </trkpt>
      <trkpt lat="42.86109" lon="0.18693">
        <ele>2105.91</ele>
        <time>2012-02-12T09:17:41Z</time>
      </trkpt>
      <trkpt lat="42.86109" lon="0.18692">
        <ele>2105.91</ele>
        <time>2012-02-12T09:18:12Z</time>
      </trkpt>
      <trkpt lat="42.86109" lon="0.18692">
        <ele>2107.35</ele>
        <time>2012-02-12T09:18:40Z</time>
      </trkpt>
      <trkpt lat="42.86109" lon="0.18692">
        <ele>2107.35</ele>
        <time>2012-02-12T09:18:41Z</time>
      </trkpt>
      <trkpt lat="42.86109" lon="0.18692">
        <ele>2106.39</ele>
        <time>2012-02-12T09:18:43Z</time>
      </trkpt>
      <trkpt lat="42.86109" lon="0.18693">
        <ele>2106.87</ele>
        <time>2012-02-12T09:19:19Z</time>
      </trkpt>
      <trkpt lat="42.86109" lon="0.18693">
        <ele>2106.39</ele>
        <time>2012-02-12T09:19:55Z</time>
      </trkpt>
      <trkpt lat="42.86109" lon="0.18693">
        <ele>2105.91</ele>
        <time>2012-02-12T09:20:30Z</time>
      </trkpt>
      <trkpt lat="42.86109" lon="0.18692">
        <ele>2105.91</ele>
        <time>2012-02-12T09:21:00Z</time>
      </trkpt>
      <trkpt lat="42.86109" lon="0.18692">
        <ele>2105.91</ele>
        <time>2012-02-12T09:21:36Z</time>
      </trkpt>
      <trkpt lat="42.86109" lon="0.18692">
        <ele>2105.91</ele>
        <time>2012-02-12T09:22:11Z</time>
      </trkpt>
      <trkpt lat="42.86109" lon="0.18692">
        <ele>2105.91</ele>
        <time>2012-02-12T09:22:49Z</time>
      </trkpt>
      <trkpt lat="42.86109" lon="0.18693">
        <ele>2106.39</ele>
        <time>2012-02-12T09:23:25Z</time>
      </trkpt>
      <trkpt lat="42.86108" lon="0.18693">
        <ele>2104.94</ele>
        <time>2012-02-12T09:24:00Z</time>
      </trkpt>
      <trkpt lat="42.86109" lon="0.18693">
        <ele>2105.42</ele>
        <time>2012-02-12T09:24:35Z</time>
      </trkpt>
      <trkpt lat="42.86108" lon="0.18693">
        <ele>2105.42</ele>
        <time>2012-02-12T09:25:07Z</time>
      </trkpt>
      <trkpt lat="42.86108" lon="0.18693">
        <ele>2105.42</ele>
        <time>2012-02-12T09:25:38Z</time>
      </trkpt>
      <trkpt lat="42.86108" lon="0.18693">
        <ele>2104.94</ele>
        <time>2012-02-12T09:26:14Z</time>
      </trkpt>
      <trkpt lat="42.86108" lon="0.18693">
        <ele>2104.94</ele>
        <time>2012-02-12T09:26:48Z</time>
      </trkpt>
      <trkpt lat="42.86108" lon="0.18692">
        <ele>2104.94</ele>
        <time>2012-02-12T09:27:28Z</time>
      </trkpt>
      <trkpt lat="42.86108" lon="0.18692">
        <ele>2104.94</ele>
        <time>2012-02-12T09:28:05Z</time>
      </trkpt>
      <trkpt lat="42.86108" lon="0.18692">
        <ele>2104.94</ele>
        <time>2012-02-12T09:28:38Z</time>
      </trkpt>
      <trkpt lat="42.86108" lon="0.18692">
        <ele>2104.46</ele>
        <time>2012-02-12T09:29:12Z</time>
      </trkpt>
      <trkpt lat="42.86108" lon="0.18692">
        <ele>2104.94</ele>
        <time>2012-02-12T09:29:47Z</time>
      </trkpt>
      <trkpt lat="42.86108" lon="0.18692">
        <ele>2104.94</ele>
        <time>2012-02-12T09:30:17Z</time>
      </trkpt>
      <trkpt lat="42.86109" lon="0.18691">
        <ele>2104.94</ele>
        <time>2012-02-12T09:30:37Z</time>
      </trkpt>
      <trkpt lat="42.86109" lon="0.18691">
        <ele>2104.46</ele>
        <time>2012-02-12T09:31:03Z</time>
      </trkpt>
      <trkpt lat="42.86108" lon="0.18692">
        <ele>2104.94</ele>
        <time>2012-02-12T09:31:28Z</time>
      </trkpt>
      <trkpt lat="42.86108" lon="0.18692">
        <ele>2101.58</ele>
        <time>2012-02-12T09:31:30Z</time>
      </trkpt>
      <trkpt lat="42.86108" lon="0.18692">
        <ele>2104.94</ele>
        <time>2012-02-12T09:31:41Z</time>
      </trkpt>
      <trkpt lat="42.86109" lon="0.18692">
        <ele>2104.46</ele>
        <time>2012-02-12T09:32:08Z</time>
      </trkpt>
      <trkpt lat="42.86109" lon="0.18691">
        <ele>2104.46</ele>
        <time>2012-02-12T09:32:45Z</time>
      </trkpt>
      <trkpt lat="42.8611" lon="0.18691">
        <ele>2104.94</ele>
        <time>2012-02-12T09:33:04Z</time>
      </trkpt>
      <trkpt lat="42.8611" lon="0.18691">
        <ele>2103.98</ele>
        <time>2012-02-12T09:33:07Z</time>
      </trkpt>
      <trkpt lat="42.86111" lon="0.18692">
        <ele>2104.46</ele>
        <time>2012-02-12T09:33:21Z</time>
      </trkpt>
      <trkpt lat="42.86111" lon="0.18692">
        <ele>2104.46</ele>
        <time>2012-02-12T09:33:52Z</time>
      </trkpt>
      <trkpt lat="42.86111" lon="0.18692">
        <ele>2105.91</ele>
        <time>2012-02-12T09:34:00Z</time>
      </trkpt>
      <trkpt lat="42.8611" lon="0.18692">
        <ele>2106.39</ele>
        <time>2012-02-12T09:34:10Z</time>
      </trkpt>
      <trkpt lat="42.8611" lon="0.18691">
        <ele>2105.91</ele>
        <time>2012-02-12T09:34:26Z</time>
      </trkpt>
      <trkpt lat="42.8611" lon="0.18692">
        <ele>2105.91</ele>
        <time>2012-02-12T09:34:43Z</time>
      </trkpt>
      <trkpt lat="42.86112" lon="0.18692">
        <ele>2107.35</ele>
        <time>2012-02-12T09:34:47Z</time>
      </trkpt>
      <trkpt lat="42.86112" lon="0.18694">
        <ele>2107.83</ele>
        <time>2012-02-12T09:35:00Z</time>
      </trkpt>
      <trkpt lat="42.86112" lon="0.18694">
        <ele>2106.87</ele>
        <time>2012-02-12T09:35:14Z</time>
      </trkpt>
      <trkpt lat="42.86113" lon="0.18695">
        <ele>2107.35</ele>
        <time>2012-02-12T09:35:24Z</time>
      </trkpt>
      <trkpt lat="42.86113" lon="0.18695">
        <ele>2107.35</ele>
        <time>2012-02-12T09:35:38Z</time>
      </trkpt>
      <trkpt lat="42.86114" lon="0.18701">
        <ele>2106.87</ele>
        <time>2012-02-12T09:35:44Z</time>
      </trkpt>
      <trkpt lat="42.86116" lon="0.18705">
        <ele>2106.39</ele>
        <time>2012-02-12T09:35:48Z</time>
      </trkpt>
      <trkpt lat="42.86119" lon="0.18714">
        <ele>2105.91</ele>
        <time>2012-02-12T09:35:55Z</time>
      </trkpt>
      <trkpt lat="42.8612" lon="0.18716">
        <ele>2106.39</ele>
        <time>2012-02-12T09:35:57Z</time>
      </trkpt>
      <trkpt lat="42.86122" lon="0.18724">
        <ele>2106.87</ele>
        <time>2012-02-12T09:36:04Z</time>
      </trkpt>
      <trkpt lat="42.86123" lon="0.18727">
        <ele>2106.87</ele>
        <time>2012-02-12T09:36:06Z</time>
      </trkpt>
      <trkpt lat="42.86124" lon="0.18731">
        <ele>2107.83</ele>
        <time>2012-02-12T09:36:15Z</time>
      </trkpt>
      <trkpt lat="42.86124" lon="0.18736">
        <ele>2108.31</ele>
        <time>2012-02-12T09:36:19Z</time>
      </trkpt>
      <trkpt lat="42.86124" lon="0.18739">
        <ele>2109.27</ele>
        <time>2012-02-12T09:36:22Z</time>
      </trkpt>
      <trkpt lat="42.86124" lon="0.18742">
        <ele>2109.75</ele>
        <time>2012-02-12T09:36:24Z</time>
      </trkpt>
      <trkpt lat="42.86123" lon="0.18744">
        <ele>2109.75</ele>
        <time>2012-02-12T09:36:26Z</time>
      </trkpt>
      <trkpt lat="42.86125" lon="0.18754">
        <ele>2111.67</ele>
        <time>2012-02-12T09:36:36Z</time>
      </trkpt>
      <trkpt lat="42.86128" lon="0.18761">
        <ele>2112.63</ele>
        <time>2012-02-12T09:36:47Z</time>
      </trkpt>
      <trkpt lat="42.86129" lon="0.18761">
        <ele>2111.67</ele>
        <time>2012-02-12T09:36:56Z</time>
      </trkpt>
      <trkpt lat="42.86131" lon="0.1876">
        <ele>2112.15</ele>
        <time>2012-02-12T09:37:08Z</time>
      </trkpt>
      <trkpt lat="42.86134" lon="0.1876">
        <ele>2112.63</ele>
        <time>2012-02-12T09:37:11Z</time>
      </trkpt>
      <trkpt lat="42.8614" lon="0.18759">
        <ele>2113.12</ele>
        <time>2012-02-12T09:37:18Z</time>
      </trkpt>
      <trkpt lat="42.86148" lon="0.18757">
        <ele>2112.63</ele>
        <time>2012-02-12T09:37:33Z</time>
      </trkpt>
      <trkpt lat="42.86148" lon="0.18757">
        <ele>2112.15</ele>
        <time>2012-02-12T09:37:42Z</time>
      </trkpt>
      <trkpt lat="42.86148" lon="0.18756">
        <ele>2112.63</ele>
        <time>2012-02-12T09:37:48Z</time>
      </trkpt>
      <trkpt lat="42.8615" lon="0.18756">
        <ele>2112.63</ele>
        <time>2012-02-12T09:37:51Z</time>
      </trkpt>
      <trkpt lat="42.86157" lon="0.18756">
        <ele>2112.15</ele>
        <time>2012-02-12T09:37:57Z</time>
      </trkpt>
      <trkpt lat="42.8617" lon="0.18756">
        <ele>2113.6</ele>
        <time>2012-02-12T09:38:09Z</time>
      </trkpt>
      <trkpt lat="42.86172" lon="0.18755">
        <ele>2114.08</ele>
        <time>2012-02-12T09:38:13Z</time>
      </trkpt>
      <trkpt lat="42.86181" lon="0.18754">
        <ele>2114.56</ele>
        <time>2012-02-12T09:38:24Z</time>
      </trkpt>
      <trkpt lat="42.86183" lon="0.18753">
        <ele>2115.04</ele>
        <time>2012-02-12T09:38:26Z</time>
      </trkpt>
      <trkpt lat="42.86184" lon="0.18753">
        <ele>2115.52</ele>
        <time>2012-02-12T09:38:28Z</time>
      </trkpt>
      <trkpt lat="42.8619" lon="0.18752">
        <ele>2115.52</ele>
        <time>2012-02-12T09:38:35Z</time>
      </trkpt>
      <trkpt lat="42.86194" lon="0.18751">
        <ele>2115.52</ele>
        <time>2012-02-12T09:38:43Z</time>
      </trkpt>
      <trkpt lat="42.86203" lon="0.18751">
        <ele>2116.48</ele>
        <time>2012-02-12T09:38:52Z</time>
      </trkpt>
      <trkpt lat="42.86206" lon="0.18752">
        <ele>2116.48</ele>
        <time>2012-02-12T09:38:55Z</time>
      </trkpt>
      <trkpt lat="42.86212" lon="0.18753">
        <ele>2117.44</ele>
        <time>2012-02-12T09:39:02Z</time>
      </trkpt>
      <trkpt lat="42.86221" lon="0.18753">
        <ele>2119.84</ele>
        <time>2012-02-12T09:39:14Z</time>
      </trkpt>
      <trkpt lat="42.86224" lon="0.18753">
        <ele>2119.84</ele>
        <time>2012-02-12T09:39:18Z</time>
      </trkpt>
      <trkpt lat="42.86226" lon="0.18754">
        <ele>2119.84</ele>
        <time>2012-02-12T09:39:20Z</time>
      </trkpt>
      <trkpt lat="42.86227" lon="0.18753">
        <ele>2120.81</ele>
        <time>2012-02-12T09:39:22Z</time>
      </trkpt>
      <trkpt lat="42.86229" lon="0.18754">
        <ele>2120.81</ele>
        <time>2012-02-12T09:39:24Z</time>
      </trkpt>
      <trkpt lat="42.86233" lon="0.18754">
        <ele>2121.29</ele>
        <time>2012-02-12T09:39:28Z</time>
      </trkpt>
      <trkpt lat="42.86238" lon="0.18753">
        <ele>2122.73</ele>
        <time>2012-02-12T09:39:35Z</time>
      </trkpt>
      <trkpt lat="42.86244" lon="0.18753">
        <ele>2123.69</ele>
        <time>2012-02-12T09:39:43Z</time>
      </trkpt>
      <trkpt lat="42.8625" lon="0.18752">
        <ele>2124.17</ele>
        <time>2012-02-12T09:39:52Z</time>
      </trkpt>
      <trkpt lat="42.86258" lon="0.18748">
        <ele>2125.61</ele>
        <time>2012-02-12T09:40:03Z</time>
      </trkpt>
      <trkpt lat="42.86266" lon="0.18746">
        <ele>2127.05</ele>
        <time>2012-02-12T09:40:12Z</time>
      </trkpt>
      <trkpt lat="42.86276" lon="0.18743">
        <ele>2127.53</ele>
        <time>2012-02-12T09:40:25Z</time>
      </trkpt>
      <trkpt lat="42.86281" lon="0.1874">
        <ele>2128.5</ele>
        <time>2012-02-12T09:40:33Z</time>
      </trkpt>
      <trkpt lat="42.86289" lon="0.18737">
        <ele>2129.94</ele>
        <time>2012-02-12T09:40:44Z</time>
      </trkpt>
      <trkpt lat="42.86294" lon="0.18733">
        <ele>2130.9</ele>
        <time>2012-02-12T09:40:52Z</time>
      </trkpt>
      <trkpt lat="42.86301" lon="0.1873">
        <ele>2132.82</ele>
        <time>2012-02-12T09:41:01Z</time>
      </trkpt>
      <trkpt lat="42.86302" lon="0.18731">
        <ele>2132.82</ele>
        <time>2012-02-12T09:41:03Z</time>
      </trkpt>
      <trkpt lat="42.86307" lon="0.18731">
        <ele>2133.78</ele>
        <time>2012-02-12T09:41:10Z</time>
      </trkpt>
      <trkpt lat="42.86316" lon="0.1873">
        <ele>2135.23</ele>
        <time>2012-02-12T09:41:22Z</time>
      </trkpt>
      <trkpt lat="42.86324" lon="0.18728">
        <ele>2136.67</ele>
        <time>2012-02-12T09:41:32Z</time>
      </trkpt>
      <trkpt lat="42.86331" lon="0.18726">
        <ele>2137.63</ele>
        <time>2012-02-12T09:41:42Z</time>
      </trkpt>
      <trkpt lat="42.86337" lon="0.18725">
        <ele>2139.07</ele>
        <time>2012-02-12T09:41:52Z</time>
      </trkpt>
      <trkpt lat="42.86339" lon="0.18723">
        <ele>2140.51</ele>
        <time>2012-02-12T09:41:56Z</time>
      </trkpt>
      <trkpt lat="42.86341" lon="0.18724">
        <ele>2140.03</ele>
        <time>2012-02-12T09:42:02Z</time>
      </trkpt>
      <trkpt lat="42.86344" lon="0.18722">
        <ele>2140.99</ele>
        <time>2012-02-12T09:42:20Z</time>
      </trkpt>
      <trkpt lat="42.86351" lon="0.18721">
        <ele>2142.44</ele>
        <time>2012-02-12T09:42:31Z</time>
      </trkpt>
      <trkpt lat="42.86354" lon="0.1872">
        <ele>2142.44</ele>
        <time>2012-02-12T09:42:34Z</time>
      </trkpt>
      <trkpt lat="42.86358" lon="0.18719">
        <ele>2142.92</ele>
        <time>2012-02-12T09:42:39Z</time>
      </trkpt>
      <trkpt lat="42.86363" lon="0.18717">
        <ele>2144.84</ele>
        <time>2012-02-12T09:42:52Z</time>
      </trkpt>
      <trkpt lat="42.86365" lon="0.18716">
        <ele>2145.32</ele>
        <time>2012-02-12T09:42:55Z</time>
      </trkpt>
      <trkpt lat="42.86372" lon="0.18713">
        <ele>2147.72</ele>
        <time>2012-02-12T09:43:05Z</time>
      </trkpt>
      <trkpt lat="42.86378" lon="0.18712">
        <ele>2148.68</ele>
        <time>2012-02-12T09:43:13Z</time>
      </trkpt>
      <trkpt lat="42.86385" lon="0.18709">
        <ele>2150.13</ele>
        <time>2012-02-12T09:43:23Z</time>
      </trkpt>
      <trkpt lat="42.86392" lon="0.18709">
        <ele>2151.09</ele>
        <time>2012-02-12T09:43:32Z</time>
      </trkpt>
      <trkpt lat="42.86395" lon="0.18709">
        <ele>2153.01</ele>
        <time>2012-02-12T09:43:37Z</time>
      </trkpt>
      <trkpt lat="42.86398" lon="0.18708">
        <ele>2152.53</ele>
        <time>2012-02-12T09:43:40Z</time>
      </trkpt>
      <trkpt lat="42.86402" lon="0.18707">
        <ele>2154.45</ele>
        <time>2012-02-12T09:43:46Z</time>
      </trkpt>
      <trkpt lat="42.86405" lon="0.18707">
        <ele>2153.97</ele>
        <time>2012-02-12T09:43:49Z</time>
      </trkpt>
      <trkpt lat="42.86413" lon="0.18705">
        <ele>2155.41</ele>
        <time>2012-02-12T09:44:00Z</time>
      </trkpt>
      <trkpt lat="42.8642" lon="0.18704">
        <ele>2156.86</ele>
        <time>2012-02-12T09:44:09Z</time>
      </trkpt>
      <trkpt lat="42.86425" lon="0.18702">
        <ele>2156.86</ele>
        <time>2012-02-12T09:44:21Z</time>
      </trkpt>
      <trkpt lat="42.86432" lon="0.187">
        <ele>2157.82</ele>
        <time>2012-02-12T09:44:29Z</time>
      </trkpt>
      <trkpt lat="42.8644" lon="0.18697">
        <ele>2158.3</ele>
        <time>2012-02-12T09:44:41Z</time>
      </trkpt>
      <trkpt lat="42.86446" lon="0.18695">
        <ele>2158.3</ele>
        <time>2012-02-12T09:44:54Z</time>
      </trkpt>
      <trkpt lat="42.86447" lon="0.18695">
        <ele>2158.3</ele>
        <time>2012-02-12T09:44:56Z</time>
      </trkpt>
      <trkpt lat="42.86451" lon="0.18695">
        <ele>2158.3</ele>
        <time>2012-02-12T09:45:00Z</time>
      </trkpt>
      <trkpt lat="42.86454" lon="0.18695">
        <ele>2158.3</ele>
        <time>2012-02-12T09:45:03Z</time>
      </trkpt>
      <trkpt lat="42.86456" lon="0.18694">
        <ele>2158.78</ele>
        <time>2012-02-12T09:45:05Z</time>
      </trkpt>
      <trkpt lat="42.86457" lon="0.18693">
        <ele>2159.26</ele>
        <time>2012-02-12T09:45:07Z</time>
      </trkpt>
      <trkpt lat="42.86459" lon="0.18693">
        <ele>2159.26</ele>
        <time>2012-02-12T09:45:09Z</time>
      </trkpt>
      <trkpt lat="42.86466" lon="0.18693">
        <ele>2160.22</ele>
        <time>2012-02-12T09:45:19Z</time>
      </trkpt>
      <trkpt lat="42.86471" lon="0.18691">
        <ele>2163.1</ele>
        <time>2012-02-12T09:45:27Z</time>
      </trkpt>
      <trkpt lat="42.86477" lon="0.18684">
        <ele>2165.03</ele>
        <time>2012-02-12T09:45:38Z</time>
      </trkpt>
      <trkpt lat="42.86479" lon="0.18684">
        <ele>2165.03</ele>
        <time>2012-02-12T09:45:51Z</time>
      </trkpt>
      <trkpt lat="42.86479" lon="0.18684">
        <ele>2165.03</ele>
        <time>2012-02-12T09:45:52Z</time>
      </trkpt>
      <trkpt lat="42.86479" lon="0.18686">
        <ele>2165.51</ele>
        <time>2012-02-12T09:45:58Z</time>
      </trkpt>
      <trkpt lat="42.86484" lon="0.18695">
        <ele>2167.91</ele>
        <time>2012-02-12T09:46:08Z</time>
      </trkpt>
      <trkpt lat="42.86488" lon="0.18699">
        <ele>2170.31</ele>
        <time>2012-02-12T09:46:16Z</time>
      </trkpt>
      <trkpt lat="42.86492" lon="0.18702">
        <ele>2171.27</ele>
        <time>2012-02-12T09:46:25Z</time>
      </trkpt>
      <trkpt lat="42.86492" lon="0.18702">
        <ele>2171.76</ele>
        <time>2012-02-12T09:46:49Z</time>
      </trkpt>
      <trkpt lat="42.86496" lon="0.18705">
        <ele>2173.2</ele>
        <time>2012-02-12T09:46:58Z</time>
      </trkpt>
      <trkpt lat="42.865" lon="0.18697">
        <ele>2174.16</ele>
        <time>2012-02-12T09:47:08Z</time>
      </trkpt>
      <trkpt lat="42.865" lon="0.18695">
        <ele>2175.12</ele>
        <time>2012-02-12T09:47:10Z</time>
      </trkpt>
      <trkpt lat="42.865" lon="0.18692">
        <ele>2176.08</ele>
        <time>2012-02-12T09:47:13Z</time>
      </trkpt>
      <trkpt lat="42.86503" lon="0.18688">
        <ele>2177.52</ele>
        <time>2012-02-12T09:47:20Z</time>
      </trkpt>
      <trkpt lat="42.86506" lon="0.18687">
        <ele>2178</ele>
        <time>2012-02-12T09:47:26Z</time>
      </trkpt>
      <trkpt lat="42.86509" lon="0.18689">
        <ele>2178.97</ele>
        <time>2012-02-12T09:47:38Z</time>
      </trkpt>
      <trkpt lat="42.8651" lon="0.18692">
        <ele>2179.45</ele>
        <time>2012-02-12T09:47:47Z</time>
      </trkpt>
      <trkpt lat="42.86515" lon="0.187">
        <ele>2180.41</ele>
        <time>2012-02-12T09:47:57Z</time>
      </trkpt>
      <trkpt lat="42.86516" lon="0.18702">
        <ele>2181.37</ele>
        <time>2012-02-12T09:48:07Z</time>
      </trkpt>
      <trkpt lat="42.86518" lon="0.18704">
        <ele>2182.33</ele>
        <time>2012-02-12T09:48:13Z</time>
      </trkpt>
      <trkpt lat="42.86519" lon="0.18706">
        <ele>2181.85</ele>
        <time>2012-02-12T09:48:16Z</time>
      </trkpt>
      <trkpt lat="42.86522" lon="0.18713">
        <ele>2184.25</ele>
        <time>2012-02-12T09:48:27Z</time>
      </trkpt>
      <trkpt lat="42.86526" lon="0.18714">
        <ele>2186.18</ele>
        <time>2012-02-12T09:48:37Z</time>
      </trkpt>
      <trkpt lat="42.86535" lon="0.18712">
        <ele>2189.54</ele>
        <time>2012-02-12T09:48:49Z</time>
      </trkpt>
      <trkpt lat="42.8654" lon="0.18712">
        <ele>2190.98</ele>
        <time>2012-02-12T09:48:59Z</time>
      </trkpt>
      <trkpt lat="42.86541" lon="0.18713">
        <ele>2191.46</ele>
        <time>2012-02-12T09:49:02Z</time>
      </trkpt>
      <trkpt lat="42.86545" lon="0.18714">
        <ele>2192.42</ele>
        <time>2012-02-12T09:49:07Z</time>
      </trkpt>
      <trkpt lat="42.86548" lon="0.18717">
        <ele>2192.9</ele>
        <time>2012-02-12T09:49:18Z</time>
      </trkpt>
      <trkpt lat="42.86553" lon="0.18721">
        <ele>2194.83</ele>
        <time>2012-02-12T09:49:31Z</time>
      </trkpt>
      <trkpt lat="42.86559" lon="0.18728">
        <ele>2195.79</ele>
        <time>2012-02-12T09:49:41Z</time>
      </trkpt>
      <trkpt lat="42.86564" lon="0.18732">
        <ele>2197.71</ele>
        <time>2012-02-12T09:49:51Z</time>
      </trkpt>
      <trkpt lat="42.86568" lon="0.18736">
        <ele>2199.63</ele>
        <time>2012-02-12T09:50:01Z</time>
      </trkpt>
      <trkpt lat="42.86574" lon="0.1874">
        <ele>2202.52</ele>
        <time>2012-02-12T09:50:11Z</time>
      </trkpt>
      <trkpt lat="42.86578" lon="0.18743">
        <ele>2203</ele>
        <time>2012-02-12T09:50:23Z</time>
      </trkpt>
      <trkpt lat="42.86585" lon="0.18749">
        <ele>2203.96</ele>
        <time>2012-02-12T09:50:33Z</time>
      </trkpt>
      <trkpt lat="42.86592" lon="0.18756">
        <ele>2204.92</ele>
        <time>2012-02-12T09:50:44Z</time>
      </trkpt>
      <trkpt lat="42.86594" lon="0.18758">
        <ele>2204.92</ele>
        <time>2012-02-12T09:50:48Z</time>
      </trkpt>
      <trkpt lat="42.86596" lon="0.18761">
        <ele>2205.4</ele>
        <time>2012-02-12T09:50:51Z</time>
      </trkpt>
      <trkpt lat="42.86602" lon="0.18767">
        <ele>2205.88</ele>
        <time>2012-02-12T09:51:03Z</time>
      </trkpt>
      <trkpt lat="42.86603" lon="0.18769">
        <ele>2206.36</ele>
        <time>2012-02-12T09:51:05Z</time>
      </trkpt>
      <trkpt lat="42.86606" lon="0.18775">
        <ele>2206.36</ele>
        <time>2012-02-12T09:51:10Z</time>
      </trkpt>
      <trkpt lat="42.8661" lon="0.18779">
        <ele>2207.81</ele>
        <time>2012-02-12T09:51:16Z</time>
      </trkpt>
      <trkpt lat="42.86612" lon="0.18791">
        <ele>2209.25</ele>
        <time>2012-02-12T09:51:28Z</time>
      </trkpt>
      <trkpt lat="42.86613" lon="0.18797">
        <ele>2210.69</ele>
        <time>2012-02-12T09:51:35Z</time>
      </trkpt>
      <trkpt lat="42.86617" lon="0.18809">
        <ele>2212.13</ele>
        <time>2012-02-12T09:51:47Z</time>
      </trkpt>
      <trkpt lat="42.86619" lon="0.18821">
        <ele>2214.05</ele>
        <time>2012-02-12T09:51:59Z</time>
      </trkpt>
      <trkpt lat="42.86621" lon="0.18832">
        <ele>2215.5</ele>
        <time>2012-02-12T09:52:11Z</time>
      </trkpt>
      <trkpt lat="42.86622" lon="0.18835">
        <ele>2215.5</ele>
        <time>2012-02-12T09:52:14Z</time>
      </trkpt>
      <trkpt lat="42.86624" lon="0.18839">
        <ele>2214.05</ele>
        <time>2012-02-12T09:52:17Z</time>
      </trkpt>
      <trkpt lat="42.86625" lon="0.18842">
        <ele>2214.05</ele>
        <time>2012-02-12T09:52:20Z</time>
      </trkpt>
      <trkpt lat="42.86626" lon="0.18844">
        <ele>2213.57</ele>
        <time>2012-02-12T09:52:22Z</time>
      </trkpt>
      <trkpt lat="42.86627" lon="0.18848">
        <ele>2214.53</ele>
        <time>2012-02-12T09:52:25Z</time>
      </trkpt>
      <trkpt lat="42.86627" lon="0.18852">
        <ele>2214.53</ele>
        <time>2012-02-12T09:52:29Z</time>
      </trkpt>
      <trkpt lat="42.86629" lon="0.18856">
        <ele>2215.98</ele>
        <time>2012-02-12T09:52:41Z</time>
      </trkpt>
      <trkpt lat="42.86631" lon="0.18864">
        <ele>2217.42</ele>
        <time>2012-02-12T09:52:50Z</time>
      </trkpt>
      <trkpt lat="42.86632" lon="0.18869">
        <ele>2218.38</ele>
        <time>2012-02-12T09:52:59Z</time>
      </trkpt>
      <trkpt lat="42.86634" lon="0.18875">
        <ele>2220.3</ele>
        <time>2012-02-12T09:53:19Z</time>
      </trkpt>
      <trkpt lat="42.86635" lon="0.18877">
        <ele>2220.78</ele>
        <time>2012-02-12T09:53:33Z</time>
      </trkpt>
      <trkpt lat="42.86636" lon="0.18878">
        <ele>2221.26</ele>
        <time>2012-02-12T09:53:45Z</time>
      </trkpt>
      <trkpt lat="42.86636" lon="0.18878">
        <ele>2221.74</ele>
        <time>2012-02-12T09:54:04Z</time>
      </trkpt>
      <trkpt lat="42.86636" lon="0.18879">
        <ele>2221.74</ele>
        <time>2012-02-12T09:54:17Z</time>
      </trkpt>
      <trkpt lat="42.86636" lon="0.18879">
        <ele>2221.74</ele>
        <time>2012-02-12T09:54:39Z</time>
      </trkpt>
      <trkpt lat="42.86636" lon="0.18879">
        <ele>2221.26</ele>
        <time>2012-02-12T09:55:03Z</time>
      </trkpt>
      <trkpt lat="42.86636" lon="0.1888">
        <ele>2222.71</ele>
        <time>2012-02-12T09:55:17Z</time>
      </trkpt>
      <trkpt lat="42.86636" lon="0.1888">
        <ele>2222.22</ele>
        <time>2012-02-12T09:55:38Z</time>
      </trkpt>
      <trkpt lat="42.86636" lon="0.1888">
        <ele>2222.22</ele>
        <time>2012-02-12T09:56:01Z</time>
      </trkpt>
      <trkpt lat="42.86636" lon="0.18881">
        <ele>2222.22</ele>
        <time>2012-02-12T09:56:25Z</time>
      </trkpt>
      <trkpt lat="42.86636" lon="0.18885">
        <ele>2221.74</ele>
        <time>2012-02-12T09:56:38Z</time>
      </trkpt>
      <trkpt lat="42.86636" lon="0.18885">
        <ele>2221.74</ele>
        <time>2012-02-12T09:56:55Z</time>
      </trkpt>
      <trkpt lat="42.86637" lon="0.18884">
        <ele>2221.74</ele>
        <time>2012-02-12T09:57:10Z</time>
      </trkpt>
      <trkpt lat="42.86637" lon="0.18884">
        <ele>2221.26</ele>
        <time>2012-02-12T09:57:33Z</time>
      </trkpt>
      <trkpt lat="42.86637" lon="0.18884">
        <ele>2221.26</ele>
        <time>2012-02-12T09:57:53Z</time>
      </trkpt>
      <trkpt lat="42.86636" lon="0.18884">
        <ele>2220.78</ele>
        <time>2012-02-12T09:58:06Z</time>
      </trkpt>
      <trkpt lat="42.86633" lon="0.18887">
        <ele>2220.78</ele>
        <time>2012-02-12T09:58:09Z</time>
      </trkpt>
      <trkpt lat="42.86632" lon="0.18889">
        <ele>2220.78</ele>
        <time>2012-02-12T09:58:11Z</time>
      </trkpt>
      <trkpt lat="42.86618" lon="0.18899">
        <ele>2219.34</ele>
        <time>2012-02-12T09:58:26Z</time>
      </trkpt>
      <trkpt lat="42.86617" lon="0.18901">
        <ele>2219.34</ele>
        <time>2012-02-12T09:58:36Z</time>
      </trkpt>
      <trkpt lat="42.8661" lon="0.18905">
        <ele>2218.86</ele>
        <time>2012-02-12T09:58:44Z</time>
      </trkpt>
      <trkpt lat="42.86603" lon="0.1891">
        <ele>2217.9</ele>
        <time>2012-02-12T09:58:55Z</time>
      </trkpt>
      <trkpt lat="42.86601" lon="0.18911">
        <ele>2217.42</ele>
        <time>2012-02-12T09:58:58Z</time>
      </trkpt>
      <trkpt lat="42.86595" lon="0.18914">
        <ele>2216.46</ele>
        <time>2012-02-12T09:59:04Z</time>
      </trkpt>
      <trkpt lat="42.86595" lon="0.18914">
        <ele>2216.94</ele>
        <time>2012-02-12T09:59:05Z</time>
      </trkpt>
      <trkpt lat="42.86586" lon="0.18919">
        <ele>2215.5</ele>
        <time>2012-02-12T09:59:15Z</time>
      </trkpt>
      <trkpt lat="42.86585" lon="0.1892">
        <ele>2215.01</ele>
        <time>2012-02-12T09:59:17Z</time>
      </trkpt>
      <trkpt lat="42.86582" lon="0.18921">
        <ele>2214.05</ele>
        <time>2012-02-12T09:59:21Z</time>
      </trkpt>
      <trkpt lat="42.86577" lon="0.18924">
        <ele>2213.09</ele>
        <time>2012-02-12T09:59:26Z</time>
      </trkpt>
      <trkpt lat="42.86572" lon="0.18925">
        <ele>2213.09</ele>
        <time>2012-02-12T09:59:30Z</time>
      </trkpt>
      <trkpt lat="42.8657" lon="0.18924">
        <ele>2213.09</ele>
        <time>2012-02-12T09:59:33Z</time>
      </trkpt>
      <trkpt lat="42.86565" lon="0.18926">
        <ele>2211.65</ele>
        <time>2012-02-12T09:59:38Z</time>
      </trkpt>
      <trkpt lat="42.86551" lon="0.18931">
        <ele>2208.77</ele>
        <time>2012-02-12T09:59:50Z</time>
      </trkpt>
      <trkpt lat="42.86542" lon="0.18935">
        <ele>2208.29</ele>
        <time>2012-02-12T09:59:59Z</time>
      </trkpt>
      <trkpt lat="42.86538" lon="0.18936">
        <ele>2207.81</ele>
        <time>2012-02-12T10:00:03Z</time>
      </trkpt>
      <trkpt lat="42.86528" lon="0.18944">
        <ele>2207.81</ele>
        <time>2012-02-12T10:00:16Z</time>
      </trkpt>
      <trkpt lat="42.8652" lon="0.18952">
        <ele>2207.81</ele>
        <time>2012-02-12T10:00:31Z</time>
      </trkpt>
      <trkpt lat="42.86517" lon="0.18954">
        <ele>2208.29</ele>
        <time>2012-02-12T10:00:36Z</time>
      </trkpt>
      <trkpt lat="42.86515" lon="0.18957">
        <ele>2208.77</ele>
        <time>2012-02-12T10:00:39Z</time>
      </trkpt>
      <trkpt lat="42.86514" lon="0.18959">
        <ele>2207.81</ele>
        <time>2012-02-12T10:00:41Z</time>
      </trkpt>
      <trkpt lat="42.86507" lon="0.18965">
        <ele>2208.29</ele>
        <time>2012-02-12T10:00:52Z</time>
      </trkpt>
      <trkpt lat="42.86507" lon="0.18965">
        <ele>2208.77</ele>
        <time>2012-02-12T10:01:08Z</time>
      </trkpt>
      <trkpt lat="42.86501" lon="0.18971">
        <ele>2209.73</ele>
        <time>2012-02-12T10:01:20Z</time>
      </trkpt>
      <trkpt lat="42.86499" lon="0.18973">
        <ele>2210.21</ele>
        <time>2012-02-12T10:01:22Z</time>
      </trkpt>
      <trkpt lat="42.86497" lon="0.18976">
        <ele>2209.73</ele>
        <time>2012-02-12T10:01:36Z</time>
      </trkpt>
      <trkpt lat="42.86496" lon="0.18976">
        <ele>2210.21</ele>
        <time>2012-02-12T10:01:51Z</time>
      </trkpt>
      <trkpt lat="42.86486" lon="0.18985">
        <ele>2210.21</ele>
        <time>2012-02-12T10:02:04Z</time>
      </trkpt>
      <trkpt lat="42.86477" lon="0.18994">
        <ele>2210.21</ele>
        <time>2012-02-12T10:02:15Z</time>
      </trkpt>
      <trkpt lat="42.86468" lon="0.19005">
        <ele>2211.65</ele>
        <time>2012-02-12T10:02:27Z</time>
      </trkpt>
      <trkpt lat="42.86467" lon="0.19007">
        <ele>2211.17</ele>
        <time>2012-02-12T10:02:29Z</time>
      </trkpt>
      <trkpt lat="42.8646" lon="0.1902">
        <ele>2211.17</ele>
        <time>2012-02-12T10:02:42Z</time>
      </trkpt>
      <trkpt lat="42.86458" lon="0.19026">
        <ele>2211.17</ele>
        <time>2012-02-12T10:02:48Z</time>
      </trkpt>
      <trkpt lat="42.86452" lon="0.19042">
        <ele>2211.17</ele>
        <time>2012-02-12T10:03:02Z</time>
      </trkpt>
      <trkpt lat="42.86449" lon="0.19047">
        <ele>2211.65</ele>
        <time>2012-02-12T10:03:09Z</time>
      </trkpt>
      <trkpt lat="42.86445" lon="0.19053">
        <ele>2214.05</ele>
        <time>2012-02-12T10:03:19Z</time>
      </trkpt>
      <trkpt lat="42.86444" lon="0.19054">
        <ele>2214.05</ele>
        <time>2012-02-12T10:03:22Z</time>
      </trkpt>
      <trkpt lat="42.86444" lon="0.19056">
        <ele>2215.01</ele>
        <time>2012-02-12T10:03:27Z</time>
      </trkpt>
      <trkpt lat="42.8645" lon="0.19061">
        <ele>2216.46</ele>
        <time>2012-02-12T10:03:35Z</time>
      </trkpt>
      <trkpt lat="42.86452" lon="0.19063">
        <ele>2216.94</ele>
        <time>2012-02-12T10:03:39Z</time>
      </trkpt>
      <trkpt lat="42.86455" lon="0.19065">
        <ele>2217.9</ele>
        <time>2012-02-12T10:03:44Z</time>
      </trkpt>
      <trkpt lat="42.86457" lon="0.19066">
        <ele>2218.86</ele>
        <time>2012-02-12T10:03:48Z</time>
      </trkpt>
      <trkpt lat="42.86462" lon="0.19068">
        <ele>2220.3</ele>
        <time>2012-02-12T10:03:58Z</time>
      </trkpt>
      <trkpt lat="42.86459" lon="0.1907">
        <ele>2221.26</ele>
        <time>2012-02-12T10:04:09Z</time>
      </trkpt>
      <trkpt lat="42.86458" lon="0.19072">
        <ele>2221.26</ele>
        <time>2012-02-12T10:04:13Z</time>
      </trkpt>
      <trkpt lat="42.86453" lon="0.19078">
        <ele>2223.19</ele>
        <time>2012-02-12T10:04:22Z</time>
      </trkpt>
      <trkpt lat="42.86448" lon="0.19083">
        <ele>2225.59</ele>
        <time>2012-02-12T10:04:32Z</time>
      </trkpt>
      <trkpt lat="42.86447" lon="0.19083">
        <ele>2225.59</ele>
        <time>2012-02-12T10:04:33Z</time>
      </trkpt>
      <trkpt lat="42.86446" lon="0.19086">
        <ele>2226.55</ele>
        <time>2012-02-12T10:04:44Z</time>
      </trkpt>
      <trkpt lat="42.86443" lon="0.19089">
        <ele>2227.51</ele>
        <time>2012-02-12T10:04:55Z</time>
      </trkpt>
      <trkpt lat="42.86442" lon="0.19088">
        <ele>2227.51</ele>
        <time>2012-02-12T10:05:04Z</time>
      </trkpt>
      <trkpt lat="42.86443" lon="0.19088">
        <ele>2227.99</ele>
        <time>2012-02-12T10:05:17Z</time>
      </trkpt>
      <trkpt lat="42.86445" lon="0.19094">
        <ele>2229.43</ele>
        <time>2012-02-12T10:05:32Z</time>
      </trkpt>
      <trkpt lat="42.86451" lon="0.19104">
        <ele>2231.36</ele>
        <time>2012-02-12T10:05:45Z</time>
      </trkpt>
      <trkpt lat="42.86448" lon="0.19106">
        <ele>2232.8</ele>
        <time>2012-02-12T10:05:53Z</time>
      </trkpt>
      <trkpt lat="42.86447" lon="0.19105">
        <ele>2232.8</ele>
        <time>2012-02-12T10:05:57Z</time>
      </trkpt>
      <trkpt lat="42.8644" lon="0.19107">
        <ele>2234.72</ele>
        <time>2012-02-12T10:06:08Z</time>
      </trkpt>
      <trkpt lat="42.86437" lon="0.19108">
        <ele>2236.64</ele>
        <time>2012-02-12T10:06:18Z</time>
      </trkpt>
      <trkpt lat="42.86437" lon="0.19108">
        <ele>2237.13</ele>
        <time>2012-02-12T10:06:19Z</time>
      </trkpt>
      <trkpt lat="42.86436" lon="0.19112">
        <ele>2237.13</ele>
        <time>2012-02-12T10:06:22Z</time>
      </trkpt>
      <trkpt lat="42.86435" lon="0.19117">
        <ele>2239.05</ele>
        <time>2012-02-12T10:06:32Z</time>
      </trkpt>
      <trkpt lat="42.86431" lon="0.19119">
        <ele>2240.49</ele>
        <time>2012-02-12T10:06:40Z</time>
      </trkpt>
      <trkpt lat="42.86431" lon="0.19122">
        <ele>2241.93</ele>
        <time>2012-02-12T10:06:45Z</time>
      </trkpt>
      <trkpt lat="42.86429" lon="0.19124">
        <ele>2241.93</ele>
        <time>2012-02-12T10:06:49Z</time>
      </trkpt>
      <trkpt lat="42.86423" lon="0.19127">
        <ele>2243.85</ele>
        <time>2012-02-12T10:06:58Z</time>
      </trkpt>
      <trkpt lat="42.86423" lon="0.19127">
        <ele>2244.82</ele>
        <time>2012-02-12T10:07:12Z</time>
      </trkpt>
      <trkpt lat="42.8642" lon="0.19133">
        <ele>2246.26</ele>
        <time>2012-02-12T10:07:22Z</time>
      </trkpt>
      <trkpt lat="42.86416" lon="0.19136">
        <ele>2248.18</ele>
        <time>2012-02-12T10:07:29Z</time>
      </trkpt>
      <trkpt lat="42.86413" lon="0.19142">
        <ele>2249.62</ele>
        <time>2012-02-12T10:07:39Z</time>
      </trkpt>
      <trkpt lat="42.8641" lon="0.19148">
        <ele>2251.06</ele>
        <time>2012-02-12T10:07:48Z</time>
      </trkpt>
      <trkpt lat="42.86407" lon="0.19151">
        <ele>2252.51</ele>
        <time>2012-02-12T10:07:57Z</time>
      </trkpt>
      <trkpt lat="42.86406" lon="0.19153">
        <ele>2252.99</ele>
        <time>2012-02-12T10:08:01Z</time>
      </trkpt>
      <trkpt lat="42.86405" lon="0.19158">
        <ele>2252.99</ele>
        <time>2012-02-12T10:08:06Z</time>
      </trkpt>
      <trkpt lat="42.86401" lon="0.19162">
        <ele>2254.91</ele>
        <time>2012-02-12T10:08:22Z</time>
      </trkpt>
      <trkpt lat="42.86396" lon="0.19168">
        <ele>2256.35</ele>
        <time>2012-02-12T10:08:33Z</time>
      </trkpt>
      <trkpt lat="42.86396" lon="0.1917">
        <ele>2257.31</ele>
        <time>2012-02-12T10:08:37Z</time>
      </trkpt>
      <trkpt lat="42.864" lon="0.19176">
        <ele>2258.75</ele>
        <time>2012-02-12T10:08:48Z</time>
      </trkpt>
      <trkpt lat="42.864" lon="0.19178">
        <ele>2258.75</ele>
        <time>2012-02-12T10:08:50Z</time>
      </trkpt>
      <trkpt lat="42.86402" lon="0.19183">
        <ele>2259.24</ele>
        <time>2012-02-12T10:08:56Z</time>
      </trkpt>
      <trkpt lat="42.86404" lon="0.19187">
        <ele>2258.75</ele>
        <time>2012-02-12T10:09:10Z</time>
      </trkpt>
      <trkpt lat="42.86404" lon="0.19187">
        <ele>2258.75</ele>
        <time>2012-02-12T10:09:11Z</time>
      </trkpt>
      <trkpt lat="42.86404" lon="0.19188">
        <ele>2260.2</ele>
        <time>2012-02-12T10:09:18Z</time>
      </trkpt>
      <trkpt lat="42.86404" lon="0.19188">
        <ele>2254.91</ele>
        <time>2012-02-12T10:09:20Z</time>
      </trkpt>
      <trkpt lat="42.86404" lon="0.19188">
        <ele>2258.75</ele>
        <time>2012-02-12T10:09:21Z</time>
      </trkpt>
      <trkpt lat="42.86404" lon="0.19188">
        <ele>2258.27</ele>
        <time>2012-02-12T10:09:52Z</time>
      </trkpt>
      <trkpt lat="42.86404" lon="0.19188">
        <ele>2258.27</ele>
        <time>2012-02-12T10:10:01Z</time>
      </trkpt>
      <trkpt lat="42.86404" lon="0.1919">
        <ele>2261.16</ele>
        <time>2012-02-12T10:10:03Z</time>
      </trkpt>
      <trkpt lat="42.86404" lon="0.19191">
        <ele>2258.27</ele>
        <time>2012-02-12T10:10:04Z</time>
      </trkpt>
      <trkpt lat="42.86404" lon="0.19191">
        <ele>2261.64</ele>
        <time>2012-02-12T10:10:13Z</time>
      </trkpt>
      <trkpt lat="42.86404" lon="0.19191">
        <ele>2257.79</ele>
        <time>2012-02-12T10:10:14Z</time>
      </trkpt>
      <trkpt lat="42.86404" lon="0.19191">
        <ele>2259.72</ele>
        <time>2012-02-12T10:10:16Z</time>
      </trkpt>
      <trkpt lat="42.86403" lon="0.1919">
        <ele>2259.24</ele>
        <time>2012-02-12T10:10:20Z</time>
      </trkpt>
      <trkpt lat="42.86402" lon="0.1919">
        <ele>2259.24</ele>
        <time>2012-02-12T10:10:34Z</time>
      </trkpt>
      <trkpt lat="42.86406" lon="0.19199">
        <ele>2260.2</ele>
        <time>2012-02-12T10:10:46Z</time>
      </trkpt>
      <trkpt lat="42.86407" lon="0.19205">
        <ele>2260.68</ele>
        <time>2012-02-12T10:10:51Z</time>
      </trkpt>
      <trkpt lat="42.86407" lon="0.19207">
        <ele>2261.16</ele>
        <time>2012-02-12T10:10:53Z</time>
      </trkpt>
      <trkpt lat="42.86408" lon="0.19209">
        <ele>2261.64</ele>
        <time>2012-02-12T10:10:55Z</time>
      </trkpt>
      <trkpt lat="42.86405" lon="0.19219">
        <ele>2263.08</ele>
        <time>2012-02-12T10:11:04Z</time>
      </trkpt>
      <trkpt lat="42.86397" lon="0.19231">
        <ele>2263.56</ele>
        <time>2012-02-12T10:11:17Z</time>
      </trkpt>
      <trkpt lat="42.8639" lon="0.19238">
        <ele>2265.48</ele>
        <time>2012-02-12T10:11:28Z</time>
      </trkpt>
      <trkpt lat="42.86386" lon="0.19241">
        <ele>2265.48</ele>
        <time>2012-02-12T10:11:33Z</time>
      </trkpt>
      <trkpt lat="42.8638" lon="0.19247">
        <ele>2267.89</ele>
        <time>2012-02-12T10:11:44Z</time>
      </trkpt>
      <trkpt lat="42.86378" lon="0.19251">
        <ele>2269.33</ele>
        <time>2012-02-12T10:11:53Z</time>
      </trkpt>
      <trkpt lat="42.86375" lon="0.19252">
        <ele>2270.29</ele>
        <time>2012-02-12T10:11:55Z</time>
      </trkpt>
      <trkpt lat="42.86371" lon="0.19255">
        <ele>2272.21</ele>
        <time>2012-02-12T10:12:02Z</time>
      </trkpt>
      <trkpt lat="42.86365" lon="0.19255">
        <ele>2273.66</ele>
        <time>2012-02-12T10:12:09Z</time>
      </trkpt>
      <trkpt lat="42.86356" lon="0.19259">
        <ele>2273.17</ele>
        <time>2012-02-12T10:12:21Z</time>
      </trkpt>
      <trkpt lat="42.86352" lon="0.19263">
        <ele>2273.66</ele>
        <time>2012-02-12T10:12:33Z</time>
      </trkpt>
      <trkpt lat="42.86351" lon="0.19263">
        <ele>2273.66</ele>
        <time>2012-02-12T10:12:51Z</time>
      </trkpt>
      <trkpt lat="42.86351" lon="0.19263">
        <ele>2274.62</ele>
        <time>2012-02-12T10:13:16Z</time>
      </trkpt>
      <trkpt lat="42.86352" lon="0.19263">
        <ele>2273.66</ele>
        <time>2012-02-12T10:13:42Z</time>
      </trkpt>
      <trkpt lat="42.86349" lon="0.19267">
        <ele>2273.17</ele>
        <time>2012-02-12T10:13:57Z</time>
      </trkpt>
      <trkpt lat="42.86344" lon="0.19272">
        <ele>2272.69</ele>
        <time>2012-02-12T10:14:06Z</time>
      </trkpt>
      <trkpt lat="42.86338" lon="0.19277">
        <ele>2271.25</ele>
        <time>2012-02-12T10:14:17Z</time>
      </trkpt>
      <trkpt lat="42.86335" lon="0.19284">
        <ele>2270.77</ele>
        <time>2012-02-12T10:14:25Z</time>
      </trkpt>
      <trkpt lat="42.86332" lon="0.19287">
        <ele>2269.81</ele>
        <time>2012-02-12T10:14:29Z</time>
      </trkpt>
      <trkpt lat="42.86327" lon="0.19291">
        <ele>2268.85</ele>
        <time>2012-02-12T10:14:33Z</time>
      </trkpt>
      <trkpt lat="42.86323" lon="0.19297">
        <ele>2266.93</ele>
        <time>2012-02-12T10:14:38Z</time>
      </trkpt>
      <trkpt lat="42.86319" lon="0.19306">
        <ele>2265.48</ele>
        <time>2012-02-12T10:14:45Z</time>
      </trkpt>
      <trkpt lat="42.86315" lon="0.19312">
        <ele>2266.45</ele>
        <time>2012-02-12T10:14:54Z</time>
      </trkpt>
      <trkpt lat="42.86314" lon="0.19315">
        <ele>2265.48</ele>
        <time>2012-02-12T10:14:57Z</time>
      </trkpt>
      <trkpt lat="42.86312" lon="0.19319">
        <ele>2265.48</ele>
        <time>2012-02-12T10:15:00Z</time>
      </trkpt>
      <trkpt lat="42.86309" lon="0.19324">
        <ele>2264.04</ele>
        <time>2012-02-12T10:15:04Z</time>
      </trkpt>
      <trkpt lat="42.86307" lon="0.19325">
        <ele>2265.48</ele>
        <time>2012-02-12T10:15:15Z</time>
      </trkpt>
      <trkpt lat="42.86307" lon="0.19326">
        <ele>2264.04</ele>
        <time>2012-02-12T10:15:16Z</time>
      </trkpt>
      <trkpt lat="42.86304" lon="0.19334">
        <ele>2264.52</ele>
        <time>2012-02-12T10:15:24Z</time>
      </trkpt>
      <trkpt lat="42.86299" lon="0.19344">
        <ele>2265.96</ele>
        <time>2012-02-12T10:15:34Z</time>
      </trkpt>
      <trkpt lat="42.86299" lon="0.19349">
        <ele>2267.41</ele>
        <time>2012-02-12T10:15:39Z</time>
      </trkpt>
      <trkpt lat="42.86295" lon="0.1936">
        <ele>2268.37</ele>
        <time>2012-02-12T10:15:51Z</time>
      </trkpt>
      <trkpt lat="42.8629" lon="0.19363">
        <ele>2268.85</ele>
        <time>2012-02-12T10:16:02Z</time>
      </trkpt>
      <trkpt lat="42.86288" lon="0.19364">
        <ele>2269.33</ele>
        <time>2012-02-12T10:16:05Z</time>
      </trkpt>
      <trkpt lat="42.86285" lon="0.19366">
        <ele>2269.81</ele>
        <time>2012-02-12T10:16:09Z</time>
      </trkpt>
      <trkpt lat="42.86279" lon="0.19368">
        <ele>2270.77</ele>
        <time>2012-02-12T10:16:17Z</time>
      </trkpt>
      <trkpt lat="42.86278" lon="0.19369">
        <ele>2271.73</ele>
        <time>2012-02-12T10:16:20Z</time>
      </trkpt>
      <trkpt lat="42.86272" lon="0.19371">
        <ele>2273.17</ele>
        <time>2012-02-12T10:16:30Z</time>
      </trkpt>
      <trkpt lat="42.86265" lon="0.19372">
        <ele>2275.1</ele>
        <time>2012-02-12T10:16:40Z</time>
      </trkpt>
      <trkpt lat="42.86261" lon="0.19374">
        <ele>2276.54</ele>
        <time>2012-02-12T10:16:47Z</time>
      </trkpt>
      <trkpt lat="42.86258" lon="0.19378">
        <ele>2277.98</ele>
        <time>2012-02-12T10:16:56Z</time>
      </trkpt>
      <trkpt lat="42.86258" lon="0.19378">
        <ele>2278.46</ele>
        <time>2012-02-12T10:16:57Z</time>
      </trkpt>
      <trkpt lat="42.86254" lon="0.1938">
        <ele>2279.42</ele>
        <time>2012-02-12T10:17:08Z</time>
      </trkpt>
      <trkpt lat="42.86249" lon="0.19383">
        <ele>2280.87</ele>
        <time>2012-02-12T10:17:17Z</time>
      </trkpt>
      <trkpt lat="42.86246" lon="0.19388">
        <ele>2281.83</ele>
        <time>2012-02-12T10:17:25Z</time>
      </trkpt>
      <trkpt lat="42.86246" lon="0.19389">
        <ele>2282.31</ele>
        <time>2012-02-12T10:17:30Z</time>
      </trkpt>
      <trkpt lat="42.86243" lon="0.19397">
        <ele>2283.75</ele>
        <time>2012-02-12T10:17:39Z</time>
      </trkpt>
      <trkpt lat="42.8624" lon="0.19403">
        <ele>2284.71</ele>
        <time>2012-02-12T10:17:50Z</time>
      </trkpt>
      <trkpt lat="42.86237" lon="0.19405">
        <ele>2284.23</ele>
        <time>2012-02-12T10:17:55Z</time>
      </trkpt>
      <trkpt lat="42.86231" lon="0.19417">
        <ele>2284.71</ele>
        <time>2012-02-12T10:18:07Z</time>
      </trkpt>
      <trkpt lat="42.86225" lon="0.19426">
        <ele>2284.23</ele>
        <time>2012-02-12T10:18:18Z</time>
      </trkpt>
      <trkpt lat="42.86222" lon="0.19431">
        <ele>2284.23</ele>
        <time>2012-02-12T10:18:24Z</time>
      </trkpt>
      <trkpt lat="42.86219" lon="0.19432">
        <ele>2285.19</ele>
        <time>2012-02-12T10:18:27Z</time>
      </trkpt>
      <trkpt lat="42.86212" lon="0.19442">
        <ele>2283.75</ele>
        <time>2012-02-12T10:18:38Z</time>
      </trkpt>
      <trkpt lat="42.86211" lon="0.19444">
        <ele>2285.19</ele>
        <time>2012-02-12T10:18:52Z</time>
      </trkpt>
      <trkpt lat="42.8621" lon="0.19446">
        <ele>2284.23</ele>
        <time>2012-02-12T10:18:54Z</time>
      </trkpt>
      <trkpt lat="42.86209" lon="0.19452">
        <ele>2284.71</ele>
        <time>2012-02-12T10:19:00Z</time>
      </trkpt>
      <trkpt lat="42.86207" lon="0.19457">
        <ele>2284.71</ele>
        <time>2012-02-12T10:19:04Z</time>
      </trkpt>
      <trkpt lat="42.86204" lon="0.19462">
        <ele>2284.23</ele>
        <time>2012-02-12T10:19:09Z</time>
      </trkpt>
      <trkpt lat="42.86201" lon="0.19471">
        <ele>2284.71</ele>
        <time>2012-02-12T10:19:16Z</time>
      </trkpt>
      <trkpt lat="42.86199" lon="0.19474">
        <ele>2283.27</ele>
        <time>2012-02-12T10:19:19Z</time>
      </trkpt>
      <trkpt lat="42.86198" lon="0.19489">
        <ele>2280.38</ele>
        <time>2012-02-12T10:19:29Z</time>
      </trkpt>
      <trkpt lat="42.86198" lon="0.19491">
        <ele>2280.87</ele>
        <time>2012-02-12T10:19:31Z</time>
      </trkpt>
      <trkpt lat="42.86195" lon="0.19505">
        <ele>2278.46</ele>
        <time>2012-02-12T10:19:41Z</time>
      </trkpt>
      <trkpt lat="42.86191" lon="0.1952">
        <ele>2275.58</ele>
        <time>2012-02-12T10:19:53Z</time>
      </trkpt>
      <trkpt lat="42.86192" lon="0.19522">
        <ele>2274.62</ele>
        <time>2012-02-12T10:19:55Z</time>
      </trkpt>
      <trkpt lat="42.86191" lon="0.19525">
        <ele>2273.66</ele>
        <time>2012-02-12T10:19:57Z</time>
      </trkpt>
      <trkpt lat="42.86187" lon="0.19531">
        <ele>2271.73</ele>
        <time>2012-02-12T10:20:03Z</time>
      </trkpt>
      <trkpt lat="42.86181" lon="0.19544">
        <ele>2270.77</ele>
        <time>2012-02-12T10:20:14Z</time>
      </trkpt>
      <trkpt lat="42.86179" lon="0.19555">
        <ele>2269.81</ele>
        <time>2012-02-12T10:20:26Z</time>
      </trkpt>
      <trkpt lat="42.86176" lon="0.19564">
        <ele>2266.93</ele>
        <time>2012-02-12T10:20:37Z</time>
      </trkpt>
      <trkpt lat="42.86171" lon="0.19575">
        <ele>2265.48</ele>
        <time>2012-02-12T10:20:49Z</time>
      </trkpt>
      <trkpt lat="42.86166" lon="0.19577">
        <ele>2263.56</ele>
        <time>2012-02-12T10:21:00Z</time>
      </trkpt>
      <trkpt lat="42.86164" lon="0.19579">
        <ele>2263.08</ele>
        <time>2012-02-12T10:21:05Z</time>
      </trkpt>
      <trkpt lat="42.86162" lon="0.19585">
        <ele>2263.08</ele>
        <time>2012-02-12T10:21:15Z</time>
      </trkpt>
      <trkpt lat="42.86156" lon="0.19592">
        <ele>2260.2</ele>
        <time>2012-02-12T10:21:27Z</time>
      </trkpt>
      <trkpt lat="42.86155" lon="0.19594">
        <ele>2259.72</ele>
        <time>2012-02-12T10:21:29Z</time>
      </trkpt>
      <trkpt lat="42.86154" lon="0.19598">
        <ele>2259.72</ele>
        <time>2012-02-12T10:21:33Z</time>
      </trkpt>
      <trkpt lat="42.86151" lon="0.196">
        <ele>2258.27</ele>
        <time>2012-02-12T10:21:36Z</time>
      </trkpt>
      <trkpt lat="42.86147" lon="0.196">
        <ele>2257.31</ele>
        <time>2012-02-12T10:21:41Z</time>
      </trkpt>
      <trkpt lat="42.86144" lon="0.19606">
        <ele>2254.91</ele>
        <time>2012-02-12T10:21:52Z</time>
      </trkpt>
      <trkpt lat="42.8614" lon="0.19611">
        <ele>2252.03</ele>
        <time>2012-02-12T10:22:02Z</time>
      </trkpt>
      <trkpt lat="42.86138" lon="0.19612">
        <ele>2251.06</ele>
        <time>2012-02-12T10:22:04Z</time>
      </trkpt>
      <trkpt lat="42.86135" lon="0.19616">
        <ele>2249.62</ele>
        <time>2012-02-12T10:22:08Z</time>
      </trkpt>
      <trkpt lat="42.86132" lon="0.1962">
        <ele>2249.62</ele>
        <time>2012-02-12T10:22:13Z</time>
      </trkpt>
      <trkpt lat="42.86129" lon="0.19623">
        <ele>2249.62</ele>
        <time>2012-02-12T10:22:17Z</time>
      </trkpt>
      <trkpt lat="42.86121" lon="0.19627">
        <ele>2249.62</ele>
        <time>2012-02-12T10:22:29Z</time>
      </trkpt>
      <trkpt lat="42.86121" lon="0.19628">
        <ele>2249.14</ele>
        <time>2012-02-12T10:22:45Z</time>
      </trkpt>
      <trkpt lat="42.86121" lon="0.19628">
        <ele>2249.62</ele>
        <time>2012-02-12T10:23:07Z</time>
      </trkpt>
      <trkpt lat="42.86119" lon="0.1963">
        <ele>2249.62</ele>
        <time>2012-02-12T10:23:21Z</time>
      </trkpt>
      <trkpt lat="42.86117" lon="0.19636">
        <ele>2250.1</ele>
        <time>2012-02-12T10:23:29Z</time>
      </trkpt>
      <trkpt lat="42.86114" lon="0.19641">
        <ele>2250.58</ele>
        <time>2012-02-12T10:23:35Z</time>
      </trkpt>
      <trkpt lat="42.86113" lon="0.19645">
        <ele>2250.1</ele>
        <time>2012-02-12T10:23:39Z</time>
      </trkpt>
      <trkpt lat="42.86109" lon="0.19654">
        <ele>2249.62</ele>
        <time>2012-02-12T10:23:46Z</time>
      </trkpt>
      <trkpt lat="42.86108" lon="0.19657">
        <ele>2249.62</ele>
        <time>2012-02-12T10:23:49Z</time>
      </trkpt>
      <trkpt lat="42.861" lon="0.19667">
        <ele>2249.62</ele>
        <time>2012-02-12T10:23:58Z</time>
      </trkpt>
      <trkpt lat="42.86097" lon="0.19671">
        <ele>2249.62</ele>
        <time>2012-02-12T10:24:02Z</time>
      </trkpt>
      <trkpt lat="42.86094" lon="0.19675">
        <ele>2250.1</ele>
        <time>2012-02-12T10:24:07Z</time>
      </trkpt>
      <trkpt lat="42.86087" lon="0.19682">
        <ele>2248.66</ele>
        <time>2012-02-12T10:24:15Z</time>
      </trkpt>
      <trkpt lat="42.86085" lon="0.19685">
        <ele>2249.62</ele>
        <time>2012-02-12T10:24:18Z</time>
      </trkpt>
      <trkpt lat="42.86084" lon="0.19688">
        <ele>2249.62</ele>
        <time>2012-02-12T10:24:21Z</time>
      </trkpt>
      <trkpt lat="42.86081" lon="0.19693">
        <ele>2249.14</ele>
        <time>2012-02-12T10:24:26Z</time>
      </trkpt>
      <trkpt lat="42.86079" lon="0.19696">
        <ele>2249.14</ele>
        <time>2012-02-12T10:24:29Z</time>
      </trkpt>
      <trkpt lat="42.86072" lon="0.19706">
        <ele>2249.14</ele>
        <time>2012-02-12T10:24:39Z</time>
      </trkpt>
      <trkpt lat="42.8607" lon="0.19708">
        <ele>2249.62</ele>
        <time>2012-02-12T10:24:42Z</time>
      </trkpt>
      <trkpt lat="42.86066" lon="0.19712">
        <ele>2249.14</ele>
        <time>2012-02-12T10:24:47Z</time>
      </trkpt>
      <trkpt lat="42.86062" lon="0.19716">
        <ele>2250.1</ele>
        <time>2012-02-12T10:24:52Z</time>
      </trkpt>
      <trkpt lat="42.86053" lon="0.19728">
        <ele>2249.62</ele>
        <time>2012-02-12T10:25:03Z</time>
      </trkpt>
      <trkpt lat="42.86046" lon="0.19737">
        <ele>2249.62</ele>
        <time>2012-02-12T10:25:12Z</time>
      </trkpt>
      <trkpt lat="42.86038" lon="0.19749">
        <ele>2250.1</ele>
        <time>2012-02-12T10:25:23Z</time>
      </trkpt>
      <trkpt lat="42.86037" lon="0.19752">
        <ele>2249.62</ele>
        <time>2012-02-12T10:25:25Z</time>
      </trkpt>
      <trkpt lat="42.86032" lon="0.19761">
        <ele>2250.58</ele>
        <time>2012-02-12T10:25:33Z</time>
      </trkpt>
      <trkpt lat="42.86026" lon="0.19768">
        <ele>2250.58</ele>
        <time>2012-02-12T10:25:41Z</time>
      </trkpt>
      <trkpt lat="42.86021" lon="0.19776">
        <ele>2252.03</ele>
        <time>2012-02-12T10:25:49Z</time>
      </trkpt>
      <trkpt lat="42.86015" lon="0.19788">
        <ele>2253.47</ele>
        <time>2012-02-12T10:26:02Z</time>
      </trkpt>
      <trkpt lat="42.86008" lon="0.19798">
        <ele>2254.43</ele>
        <time>2012-02-12T10:26:14Z</time>
      </trkpt>
      <trkpt lat="42.86006" lon="0.198">
        <ele>2254.43</ele>
        <time>2012-02-12T10:26:17Z</time>
      </trkpt>
      <trkpt lat="42.86004" lon="0.19801">
        <ele>2254.43</ele>
        <time>2012-02-12T10:26:19Z</time>
      </trkpt>
      <trkpt lat="42.85997" lon="0.19814">
        <ele>2253.95</ele>
        <time>2012-02-12T10:26:34Z</time>
      </trkpt>
      <trkpt lat="42.85994" lon="0.19822">
        <ele>2252.99</ele>
        <time>2012-02-12T10:26:41Z</time>
      </trkpt>
      <trkpt lat="42.85994" lon="0.19824">
        <ele>2252.03</ele>
        <time>2012-02-12T10:26:43Z</time>
      </trkpt>
      <trkpt lat="42.8599" lon="0.19833">
        <ele>2249.62</ele>
        <time>2012-02-12T10:26:52Z</time>
      </trkpt>
      <trkpt lat="42.85988" lon="0.19836">
        <ele>2248.66</ele>
        <time>2012-02-12T10:26:55Z</time>
      </trkpt>
      <trkpt lat="42.85985" lon="0.1984">
        <ele>2247.7</ele>
        <time>2012-02-12T10:27:06Z</time>
      </trkpt>
      <trkpt lat="42.85981" lon="0.19843">
        <ele>2247.22</ele>
        <time>2012-02-12T10:27:23Z</time>
      </trkpt>
      <trkpt lat="42.85976" lon="0.19846">
        <ele>2244.82</ele>
        <time>2012-02-12T10:27:30Z</time>
      </trkpt>
      <trkpt lat="42.85968" lon="0.1985">
        <ele>2242.41</ele>
        <time>2012-02-12T10:27:40Z</time>
      </trkpt>
      <trkpt lat="42.85966" lon="0.1985">
        <ele>2241.93</ele>
        <time>2012-02-12T10:27:42Z</time>
      </trkpt>
      <trkpt lat="42.85962" lon="0.19851">
        <ele>2240.97</ele>
        <time>2012-02-12T10:27:45Z</time>
      </trkpt>
      <trkpt lat="42.85957" lon="0.19854">
        <ele>2239.05</ele>
        <time>2012-02-12T10:27:49Z</time>
      </trkpt>
      <trkpt lat="42.85951" lon="0.19856">
        <ele>2236.64</ele>
        <time>2012-02-12T10:27:53Z</time>
      </trkpt>
      <trkpt lat="42.85949" lon="0.19857">
        <ele>2236.16</ele>
        <time>2012-02-12T10:27:55Z</time>
      </trkpt>
      <trkpt lat="42.85945" lon="0.19858">
        <ele>2234.72</ele>
        <time>2012-02-12T10:27:59Z</time>
      </trkpt>
      <trkpt lat="42.85934" lon="0.19865">
        <ele>2232.32</ele>
        <time>2012-02-12T10:28:09Z</time>
      </trkpt>
      <trkpt lat="42.85923" lon="0.1987">
        <ele>2229.92</ele>
        <time>2012-02-12T10:28:18Z</time>
      </trkpt>
      <trkpt lat="42.85914" lon="0.19876">
        <ele>2229.43</ele>
        <time>2012-02-12T10:28:27Z</time>
      </trkpt>
      <trkpt lat="42.85908" lon="0.19881">
        <ele>2228.47</ele>
        <time>2012-02-12T10:28:34Z</time>
      </trkpt>
      <trkpt lat="42.85904" lon="0.19883">
        <ele>2227.99</ele>
        <time>2012-02-12T10:28:38Z</time>
      </trkpt>
      <trkpt lat="42.85898" lon="0.19888">
        <ele>2227.03</ele>
        <time>2012-02-12T10:28:47Z</time>
      </trkpt>
      <trkpt lat="42.85897" lon="0.19888">
        <ele>2227.03</ele>
        <time>2012-02-12T10:28:48Z</time>
      </trkpt>
      <trkpt lat="42.85885" lon="0.19896">
        <ele>2225.59</ele>
        <time>2012-02-12T10:29:00Z</time>
      </trkpt>
      <trkpt lat="42.85881" lon="0.19899">
        <ele>2225.11</ele>
        <time>2012-02-12T10:29:03Z</time>
      </trkpt>
      <trkpt lat="42.85877" lon="0.19904">
        <ele>2223.19</ele>
        <time>2012-02-12T10:29:08Z</time>
      </trkpt>
      <trkpt lat="42.85873" lon="0.19909">
        <ele>2223.19</ele>
        <time>2012-02-12T10:29:13Z</time>
      </trkpt>
      <trkpt lat="42.85868" lon="0.19912">
        <ele>2222.71</ele>
        <time>2012-02-12T10:29:18Z</time>
      </trkpt>
      <trkpt lat="42.85863" lon="0.19917">
        <ele>2220.3</ele>
        <time>2012-02-12T10:29:24Z</time>
      </trkpt>
      <trkpt lat="42.85862" lon="0.19919">
        <ele>2219.82</ele>
        <time>2012-02-12T10:29:26Z</time>
      </trkpt>
      <trkpt lat="42.8586" lon="0.19921">
        <ele>2218.38</ele>
        <time>2012-02-12T10:29:29Z</time>
      </trkpt>
      <trkpt lat="42.85858" lon="0.19923">
        <ele>2217.42</ele>
        <time>2012-02-12T10:29:31Z</time>
      </trkpt>
      <trkpt lat="42.85855" lon="0.19928">
        <ele>2215.5</ele>
        <time>2012-02-12T10:29:35Z</time>
      </trkpt>
      <trkpt lat="42.85851" lon="0.19933">
        <ele>2213.57</ele>
        <time>2012-02-12T10:29:40Z</time>
      </trkpt>
      <trkpt lat="42.85849" lon="0.19935">
        <ele>2213.57</ele>
        <time>2012-02-12T10:29:42Z</time>
      </trkpt>
      <trkpt lat="42.85844" lon="0.19944">
        <ele>2210.69</ele>
        <time>2012-02-12T10:29:49Z</time>
      </trkpt>
      <trkpt lat="42.85841" lon="0.19948">
        <ele>2209.73</ele>
        <time>2012-02-12T10:29:53Z</time>
      </trkpt>
      <trkpt lat="42.85837" lon="0.1996">
        <ele>2204.92</ele>
        <time>2012-02-12T10:30:02Z</time>
      </trkpt>
      <trkpt lat="42.85837" lon="0.19961">
        <ele>2204.44</ele>
        <time>2012-02-12T10:30:03Z</time>
      </trkpt>
      <trkpt lat="42.85836" lon="0.19963">
        <ele>2204.44</ele>
        <time>2012-02-12T10:30:04Z</time>
      </trkpt>
      <trkpt lat="42.85834" lon="0.1997">
        <ele>2203.48</ele>
        <time>2012-02-12T10:30:09Z</time>
      </trkpt>
      <trkpt lat="42.85832" lon="0.19972">
        <ele>2202.04</ele>
        <time>2012-02-12T10:30:12Z</time>
      </trkpt>
      <trkpt lat="42.85825" lon="0.19988">
        <ele>2199.15</ele>
        <time>2012-02-12T10:30:24Z</time>
      </trkpt>
      <trkpt lat="42.85821" lon="0.19998">
        <ele>2197.23</ele>
        <time>2012-02-12T10:30:33Z</time>
      </trkpt>
      <trkpt lat="42.85815" lon="0.20011">
        <ele>2196.75</ele>
        <time>2012-02-12T10:30:44Z</time>
      </trkpt>
      <trkpt lat="42.85812" lon="0.20012">
        <ele>2196.75</ele>
        <time>2012-02-12T10:30:55Z</time>
      </trkpt>
      <trkpt lat="42.85809" lon="0.20014">
        <ele>2196.75</ele>
        <time>2012-02-12T10:30:59Z</time>
      </trkpt>
      <trkpt lat="42.858" lon="0.20016">
        <ele>2196.27</ele>
        <time>2012-02-12T10:31:08Z</time>
      </trkpt>
      <trkpt lat="42.8579" lon="0.20019">
        <ele>2197.23</ele>
        <time>2012-02-12T10:31:18Z</time>
      </trkpt>
      <trkpt lat="42.85788" lon="0.2002">
        <ele>2197.71</ele>
        <time>2012-02-12T10:31:20Z</time>
      </trkpt>
      <trkpt lat="42.85785" lon="0.20021">
        <ele>2197.71</ele>
        <time>2012-02-12T10:31:23Z</time>
      </trkpt>
      <trkpt lat="42.8578" lon="0.20024">
        <ele>2198.67</ele>
        <time>2012-02-12T10:31:29Z</time>
      </trkpt>
      <trkpt lat="42.85775" lon="0.20027">
        <ele>2198.67</ele>
        <time>2012-02-12T10:31:41Z</time>
      </trkpt>
      <trkpt lat="42.85773" lon="0.20028">
        <ele>2198.67</ele>
        <time>2012-02-12T10:31:43Z</time>
      </trkpt>
      <trkpt lat="42.8577" lon="0.2003">
        <ele>2199.15</ele>
        <time>2012-02-12T10:31:46Z</time>
      </trkpt>
      <trkpt lat="42.85766" lon="0.20034">
        <ele>2199.63</ele>
        <time>2012-02-12T10:31:51Z</time>
      </trkpt>
      <trkpt lat="42.85765" lon="0.20036">
        <ele>2200.11</ele>
        <time>2012-02-12T10:31:53Z</time>
      </trkpt>
      <trkpt lat="42.85762" lon="0.20037">
        <ele>2200.59</ele>
        <time>2012-02-12T10:31:56Z</time>
      </trkpt>
      <trkpt lat="42.85757" lon="0.20043">
        <ele>2202.04</ele>
        <time>2012-02-12T10:32:04Z</time>
      </trkpt>
      <trkpt lat="42.85748" lon="0.20045">
        <ele>2203.48</ele>
        <time>2012-02-12T10:32:16Z</time>
      </trkpt>
      <trkpt lat="42.85744" lon="0.20047">
        <ele>2204.44</ele>
        <time>2012-02-12T10:32:30Z</time>
      </trkpt>
      <trkpt lat="42.85741" lon="0.20047">
        <ele>2205.4</ele>
        <time>2012-02-12T10:32:40Z</time>
      </trkpt>
      <trkpt lat="42.85737" lon="0.20047">
        <ele>2205.4</ele>
        <time>2012-02-12T10:32:47Z</time>
      </trkpt>
      <trkpt lat="42.85736" lon="0.20048">
        <ele>2205.4</ele>
        <time>2012-02-12T10:32:49Z</time>
      </trkpt>
      <trkpt lat="42.85733" lon="0.20049">
        <ele>2205.4</ele>
        <time>2012-02-12T10:32:51Z</time>
      </trkpt>
      <trkpt lat="42.85732" lon="0.20049">
        <ele>2205.4</ele>
        <time>2012-02-12T10:32:53Z</time>
      </trkpt>
      <trkpt lat="42.85726" lon="0.2005">
        <ele>2206.36</ele>
        <time>2012-02-12T10:32:59Z</time>
      </trkpt>
      <trkpt lat="42.85723" lon="0.20052">
        <ele>2206.36</ele>
        <time>2012-02-12T10:33:03Z</time>
      </trkpt>
      <trkpt lat="42.85715" lon="0.20053">
        <ele>2206.84</ele>
        <time>2012-02-12T10:33:15Z</time>
      </trkpt>
      <trkpt lat="42.85707" lon="0.20055">
        <ele>2208.77</ele>
        <time>2012-02-12T10:33:25Z</time>
      </trkpt>
      <trkpt lat="42.85694" lon="0.20053">
        <ele>2210.21</ele>
        <time>2012-02-12T10:33:38Z</time>
      </trkpt>
      <trkpt lat="42.85688" lon="0.20051">
        <ele>2211.65</ele>
        <time>2012-02-12T10:33:46Z</time>
      </trkpt>
      <trkpt lat="42.85682" lon="0.2005">
        <ele>2213.09</ele>
        <time>2012-02-12T10:33:56Z</time>
      </trkpt>
      <trkpt lat="42.85679" lon="0.2005">
        <ele>2214.05</ele>
        <time>2012-02-12T10:34:05Z</time>
      </trkpt>
      <trkpt lat="42.85678" lon="0.20051">
        <ele>2214.53</ele>
        <time>2012-02-12T10:34:08Z</time>
      </trkpt>
      <trkpt lat="42.85678" lon="0.20061">
        <ele>2215.98</ele>
        <time>2012-02-12T10:34:19Z</time>
      </trkpt>
      <trkpt lat="42.85677" lon="0.2007">
        <ele>2217.9</ele>
        <time>2012-02-12T10:34:31Z</time>
      </trkpt>
      <trkpt lat="42.85676" lon="0.20079">
        <ele>2219.82</ele>
        <time>2012-02-12T10:34:41Z</time>
      </trkpt>
      <trkpt lat="42.85676" lon="0.20083">
        <ele>2220.3</ele>
        <time>2012-02-12T10:34:51Z</time>
      </trkpt>
      <trkpt lat="42.85676" lon="0.20087">
        <ele>2220.3</ele>
        <time>2012-02-12T10:35:18Z</time>
      </trkpt>
      <trkpt lat="42.85675" lon="0.20095">
        <ele>2221.74</ele>
        <time>2012-02-12T10:35:27Z</time>
      </trkpt>
      <trkpt lat="42.85676" lon="0.20106">
        <ele>2223.67</ele>
        <time>2012-02-12T10:35:39Z</time>
      </trkpt>
      <trkpt lat="42.85676" lon="0.20109">
        <ele>2224.15</ele>
        <time>2012-02-12T10:35:42Z</time>
      </trkpt>
      <trkpt lat="42.85674" lon="0.20114">
        <ele>2225.59</ele>
        <time>2012-02-12T10:35:49Z</time>
      </trkpt>
      <trkpt lat="42.85668" lon="0.20112">
        <ele>2225.59</ele>
        <time>2012-02-12T10:35:58Z</time>
      </trkpt>
      <trkpt lat="42.85666" lon="0.20111">
        <ele>2226.55</ele>
        <time>2012-02-12T10:36:02Z</time>
      </trkpt>
      <trkpt lat="42.85661" lon="0.2011">
        <ele>2228.47</ele>
        <time>2012-02-12T10:36:09Z</time>
      </trkpt>
      <trkpt lat="42.85656" lon="0.20107">
        <ele>2229.43</ele>
        <time>2012-02-12T10:36:19Z</time>
      </trkpt>
      <trkpt lat="42.8565" lon="0.20105">
        <ele>2230.88</ele>
        <time>2012-02-12T10:36:28Z</time>
      </trkpt>
      <trkpt lat="42.85644" lon="0.20103">
        <ele>2232.8</ele>
        <time>2012-02-12T10:36:39Z</time>
      </trkpt>
      <trkpt lat="42.85643" lon="0.20109">
        <ele>2233.76</ele>
        <time>2012-02-12T10:36:46Z</time>
      </trkpt>
      <trkpt lat="42.85642" lon="0.20116">
        <ele>2235.68</ele>
        <time>2012-02-12T10:36:57Z</time>
      </trkpt>
      <trkpt lat="42.85641" lon="0.20119">
        <ele>2235.2</ele>
        <time>2012-02-12T10:37:07Z</time>
      </trkpt>
      <trkpt lat="42.8564" lon="0.20123">
        <ele>2235.68</ele>
        <time>2012-02-12T10:37:11Z</time>
      </trkpt>
      <trkpt lat="42.85637" lon="0.20132">
        <ele>2238.09</ele>
        <time>2012-02-12T10:37:24Z</time>
      </trkpt>
      <trkpt lat="42.85634" lon="0.20141">
        <ele>2239.53</ele>
        <time>2012-02-12T10:37:36Z</time>
      </trkpt>
      <trkpt lat="42.85629" lon="0.2015">
        <ele>2240.97</ele>
        <time>2012-02-12T10:37:47Z</time>
      </trkpt>
      <trkpt lat="42.85628" lon="0.2015">
        <ele>2241.45</ele>
        <time>2012-02-12T10:37:51Z</time>
      </trkpt>
      <trkpt lat="42.85625" lon="0.20147">
        <ele>2241.93</ele>
        <time>2012-02-12T10:37:58Z</time>
      </trkpt>
      <trkpt lat="42.8562" lon="0.20141">
        <ele>2242.89</ele>
        <time>2012-02-12T10:38:08Z</time>
      </trkpt>
      <trkpt lat="42.85615" lon="0.20134">
        <ele>2245.3</ele>
        <time>2012-02-12T10:38:17Z</time>
      </trkpt>
      <trkpt lat="42.85612" lon="0.2013">
        <ele>2246.26</ele>
        <time>2012-02-12T10:38:26Z</time>
      </trkpt>
      <trkpt lat="42.8561" lon="0.20133">
        <ele>2246.74</ele>
        <time>2012-02-12T10:38:36Z</time>
      </trkpt>
      <trkpt lat="42.8561" lon="0.20133">
        <ele>2247.22</ele>
        <time>2012-02-12T10:38:38Z</time>
      </trkpt>
      <trkpt lat="42.85607" lon="0.20139">
        <ele>2247.22</ele>
        <time>2012-02-12T10:38:44Z</time>
      </trkpt>
      <trkpt lat="42.85607" lon="0.20141">
        <ele>2248.18</ele>
        <time>2012-02-12T10:38:46Z</time>
      </trkpt>
      <trkpt lat="42.85606" lon="0.2015">
        <ele>2248.66</ele>
        <time>2012-02-12T10:38:57Z</time>
      </trkpt>
      <trkpt lat="42.85605" lon="0.20154">
        <ele>2250.1</ele>
        <time>2012-02-12T10:39:01Z</time>
      </trkpt>
      <trkpt lat="42.85605" lon="0.20155">
        <ele>2250.58</ele>
        <time>2012-02-12T10:39:03Z</time>
      </trkpt>
      <trkpt lat="42.85605" lon="0.20158">
        <ele>2250.58</ele>
        <time>2012-02-12T10:39:06Z</time>
      </trkpt>
      <trkpt lat="42.85604" lon="0.20168">
        <ele>2253.47</ele>
        <time>2012-02-12T10:39:17Z</time>
      </trkpt>
      <trkpt lat="42.85605" lon="0.20173">
        <ele>2256.83</ele>
        <time>2012-02-12T10:39:22Z</time>
      </trkpt>
      <trkpt lat="42.85605" lon="0.20175">
        <ele>2255.39</ele>
        <time>2012-02-12T10:39:25Z</time>
      </trkpt>
      <trkpt lat="42.85606" lon="0.20182">
        <ele>2256.83</ele>
        <time>2012-02-12T10:39:35Z</time>
      </trkpt>
      <trkpt lat="42.85606" lon="0.20189">
        <ele>2256.83</ele>
        <time>2012-02-12T10:39:45Z</time>
      </trkpt>
      <trkpt lat="42.85605" lon="0.20197">
        <ele>2257.79</ele>
        <time>2012-02-12T10:39:55Z</time>
      </trkpt>
      <trkpt lat="42.85606" lon="0.202">
        <ele>2259.24</ele>
        <time>2012-02-12T10:40:05Z</time>
      </trkpt>
      <trkpt lat="42.85606" lon="0.20201">
        <ele>2259.24</ele>
        <time>2012-02-12T10:40:14Z</time>
      </trkpt>
      <trkpt lat="42.85605" lon="0.20207">
        <ele>2260.2</ele>
        <time>2012-02-12T10:40:19Z</time>
      </trkpt>
      <trkpt lat="42.85603" lon="0.20211">
        <ele>2260.2</ele>
        <time>2012-02-12T10:40:23Z</time>
      </trkpt>
      <trkpt lat="42.85601" lon="0.20216">
        <ele>2261.16</ele>
        <time>2012-02-12T10:40:34Z</time>
      </trkpt>
      <trkpt lat="42.85598" lon="0.20224">
        <ele>2263.08</ele>
        <time>2012-02-12T10:40:43Z</time>
      </trkpt>
      <trkpt lat="42.856" lon="0.20235">
        <ele>2264.04</ele>
        <time>2012-02-12T10:40:53Z</time>
      </trkpt>
      <trkpt lat="42.856" lon="0.20242">
        <ele>2265.96</ele>
        <time>2012-02-12T10:41:02Z</time>
      </trkpt>
      <trkpt lat="42.85602" lon="0.20247">
        <ele>2267.89</ele>
        <time>2012-02-12T10:41:12Z</time>
      </trkpt>
      <trkpt lat="42.85605" lon="0.20251">
        <ele>2269.81</ele>
        <time>2012-02-12T10:41:23Z</time>
      </trkpt>
      <trkpt lat="42.85607" lon="0.2026">
        <ele>2271.25</ele>
        <time>2012-02-12T10:41:33Z</time>
      </trkpt>
      <trkpt lat="42.85608" lon="0.2026">
        <ele>2272.21</ele>
        <time>2012-02-12T10:41:35Z</time>
      </trkpt>
      <trkpt lat="42.8561" lon="0.20267">
        <ele>2272.69</ele>
        <time>2012-02-12T10:41:45Z</time>
      </trkpt>
      <trkpt lat="42.85605" lon="0.20269">
        <ele>2273.66</ele>
        <time>2012-02-12T10:41:55Z</time>
      </trkpt>
      <trkpt lat="42.85601" lon="0.20269">
        <ele>2274.62</ele>
        <time>2012-02-12T10:42:01Z</time>
      </trkpt>
      <trkpt lat="42.85599" lon="0.20271">
        <ele>2275.58</ele>
        <time>2012-02-12T10:42:11Z</time>
      </trkpt>
      <trkpt lat="42.85605" lon="0.20279">
        <ele>2276.54</ele>
        <time>2012-02-12T10:42:23Z</time>
      </trkpt>
      <trkpt lat="42.8561" lon="0.20284">
        <ele>2277.98</ele>
        <time>2012-02-12T10:42:35Z</time>
      </trkpt>
      <trkpt lat="42.85616" lon="0.20289">
        <ele>2280.38</ele>
        <time>2012-02-12T10:42:46Z</time>
      </trkpt>
      <trkpt lat="42.85623" lon="0.20292">
        <ele>2281.83</ele>
        <time>2012-02-12T10:42:57Z</time>
      </trkpt>
      <trkpt lat="42.85628" lon="0.20296">
        <ele>2283.27</ele>
        <time>2012-02-12T10:43:09Z</time>
      </trkpt>
      <trkpt lat="42.85633" lon="0.203">
        <ele>2286.15</ele>
        <time>2012-02-12T10:43:21Z</time>
      </trkpt>
      <trkpt lat="42.85637" lon="0.20301">
        <ele>2286.63</ele>
        <time>2012-02-12T10:43:33Z</time>
      </trkpt>
      <trkpt lat="42.85642" lon="0.20303">
        <ele>2288.56</ele>
        <time>2012-02-12T10:43:43Z</time>
      </trkpt>
      <trkpt lat="42.85648" lon="0.20306">
        <ele>2289.52</ele>
        <time>2012-02-12T10:43:54Z</time>
      </trkpt>
      <trkpt lat="42.85651" lon="0.20307">
        <ele>2290.48</ele>
        <time>2012-02-12T10:44:03Z</time>
      </trkpt>
      <trkpt lat="42.85656" lon="0.20308">
        <ele>2291.44</ele>
        <time>2012-02-12T10:44:16Z</time>
      </trkpt>
      <trkpt lat="42.85657" lon="0.20309">
        <ele>2292.88</ele>
        <time>2012-02-12T10:44:18Z</time>
      </trkpt>
      <trkpt lat="42.85658" lon="0.2031">
        <ele>2293.36</ele>
        <time>2012-02-12T10:44:23Z</time>
      </trkpt>
      <trkpt lat="42.85664" lon="0.20316">
        <ele>2295.77</ele>
        <time>2012-02-12T10:44:33Z</time>
      </trkpt>
      <trkpt lat="42.85666" lon="0.20319">
        <ele>2296.73</ele>
        <time>2012-02-12T10:44:45Z</time>
      </trkpt>
      <trkpt lat="42.85669" lon="0.20324">
        <ele>2296.73</ele>
        <time>2012-02-12T10:44:53Z</time>
      </trkpt>
      <trkpt lat="42.85674" lon="0.20329">
        <ele>2298.65</ele>
        <time>2012-02-12T10:45:04Z</time>
      </trkpt>
      <trkpt lat="42.85678" lon="0.20333">
        <ele>2299.61</ele>
        <time>2012-02-12T10:45:14Z</time>
      </trkpt>
      <trkpt lat="42.85682" lon="0.2034">
        <ele>2301.53</ele>
        <time>2012-02-12T10:45:24Z</time>
      </trkpt>
      <trkpt lat="42.85685" lon="0.20341">
        <ele>2302.01</ele>
        <time>2012-02-12T10:45:28Z</time>
      </trkpt>
      <trkpt lat="42.85686" lon="0.20342">
        <ele>2302.49</ele>
        <time>2012-02-12T10:45:30Z</time>
      </trkpt>
      <trkpt lat="42.85688" lon="0.20343">
        <ele>2302.98</ele>
        <time>2012-02-12T10:45:36Z</time>
      </trkpt>
      <trkpt lat="42.8569" lon="0.20346">
        <ele>2303.94</ele>
        <time>2012-02-12T10:45:43Z</time>
      </trkpt>
      <trkpt lat="42.8569" lon="0.20354">
        <ele>2305.38</ele>
        <time>2012-02-12T10:45:54Z</time>
      </trkpt>
      <trkpt lat="42.85689" lon="0.20355">
        <ele>2305.38</ele>
        <time>2012-02-12T10:46:04Z</time>
      </trkpt>
      <trkpt lat="42.85689" lon="0.20358">
        <ele>2305.86</ele>
        <time>2012-02-12T10:46:21Z</time>
      </trkpt>
      <trkpt lat="42.85689" lon="0.20359">
        <ele>2305.38</ele>
        <time>2012-02-12T10:46:22Z</time>
      </trkpt>
      <trkpt lat="42.8569" lon="0.20361">
        <ele>2304.9</ele>
        <time>2012-02-12T10:46:24Z</time>
      </trkpt>
      <trkpt lat="42.85692" lon="0.20367">
        <ele>2305.38</ele>
        <time>2012-02-12T10:46:30Z</time>
      </trkpt>
      <trkpt lat="42.85695" lon="0.20372">
        <ele>2304.9</ele>
        <time>2012-02-12T10:46:35Z</time>
      </trkpt>
      <trkpt lat="42.85696" lon="0.20374">
        <ele>2304.9</ele>
        <time>2012-02-12T10:46:37Z</time>
      </trkpt>
      <trkpt lat="42.85698" lon="0.20378">
        <ele>2305.38</ele>
        <time>2012-02-12T10:46:49Z</time>
      </trkpt>
      <trkpt lat="42.85698" lon="0.20379">
        <ele>2305.38</ele>
        <time>2012-02-12T10:46:50Z</time>
      </trkpt>
      <trkpt lat="42.85702" lon="0.20384">
        <ele>2305.38</ele>
        <time>2012-02-12T10:46:55Z</time>
      </trkpt>
      <trkpt lat="42.85705" lon="0.20388">
        <ele>2305.38</ele>
        <time>2012-02-12T10:47:00Z</time>
      </trkpt>
      <trkpt lat="42.85713" lon="0.20399">
        <ele>2307.3</ele>
        <time>2012-02-12T10:47:12Z</time>
      </trkpt>
      <trkpt lat="42.85716" lon="0.20403">
        <ele>2308.26</ele>
        <time>2012-02-12T10:47:17Z</time>
      </trkpt>
      <trkpt lat="42.85723" lon="0.20409">
        <ele>2310.67</ele>
        <time>2012-02-12T10:47:28Z</time>
      </trkpt>
      <trkpt lat="42.85726" lon="0.20412">
        <ele>2310.67</ele>
        <time>2012-02-12T10:47:44Z</time>
      </trkpt>
      <trkpt lat="42.85727" lon="0.20412">
        <ele>2311.63</ele>
        <time>2012-02-12T10:47:45Z</time>
      </trkpt>
      <trkpt lat="42.85734" lon="0.20418">
        <ele>2312.59</ele>
        <time>2012-02-12T10:47:56Z</time>
      </trkpt>
      <trkpt lat="42.85735" lon="0.20419">
        <ele>2312.59</ele>
        <time>2012-02-12T10:47:58Z</time>
      </trkpt>
      <trkpt lat="42.8574" lon="0.20424">
        <ele>2314.51</ele>
        <time>2012-02-12T10:48:07Z</time>
      </trkpt>
      <trkpt lat="42.8574" lon="0.20428">
        <ele>2314.99</ele>
        <time>2012-02-12T10:48:10Z</time>
      </trkpt>
      <trkpt lat="42.8574" lon="0.20437">
        <ele>2317.4</ele>
        <time>2012-02-12T10:48:20Z</time>
      </trkpt>
      <trkpt lat="42.85741" lon="0.20447">
        <ele>2317.88</ele>
        <time>2012-02-12T10:48:30Z</time>
      </trkpt>
      <trkpt lat="42.85742" lon="0.20454">
        <ele>2318.36</ele>
        <time>2012-02-12T10:48:38Z</time>
      </trkpt>
      <trkpt lat="42.85742" lon="0.20463">
        <ele>2318.84</ele>
        <time>2012-02-12T10:48:49Z</time>
      </trkpt>
      <trkpt lat="42.85739" lon="0.20466">
        <ele>2319.32</ele>
        <time>2012-02-12T10:48:54Z</time>
      </trkpt>
      <trkpt lat="42.85734" lon="0.20465">
        <ele>2319.32</ele>
        <time>2012-02-12T10:49:04Z</time>
      </trkpt>
      <trkpt lat="42.85734" lon="0.20465">
        <ele>2319.8</ele>
        <time>2012-02-12T10:49:21Z</time>
      </trkpt>
      <trkpt lat="42.85731" lon="0.20465">
        <ele>2320.76</ele>
        <time>2012-02-12T10:49:29Z</time>
      </trkpt>
      <trkpt lat="42.85728" lon="0.20462">
        <ele>2320.76</ele>
        <time>2012-02-12T10:49:54Z</time>
      </trkpt>
      <trkpt lat="42.85726" lon="0.20462">
        <ele>2321.72</ele>
        <time>2012-02-12T10:49:59Z</time>
      </trkpt>
      <trkpt lat="42.85723" lon="0.20462">
        <ele>2322.2</ele>
        <time>2012-02-12T10:50:01Z</time>
      </trkpt>
      <trkpt lat="42.85717" lon="0.2046">
        <ele>2322.2</ele>
        <time>2012-02-12T10:50:07Z</time>
      </trkpt>
      <trkpt lat="42.85716" lon="0.20459">
        <ele>2322.68</ele>
        <time>2012-02-12T10:50:09Z</time>
      </trkpt>
      <trkpt lat="42.85713" lon="0.20457">
        <ele>2322.68</ele>
        <time>2012-02-12T10:50:12Z</time>
      </trkpt>
      <trkpt lat="42.85707" lon="0.20457">
        <ele>2321.72</ele>
        <time>2012-02-12T10:50:20Z</time>
      </trkpt>
      <trkpt lat="42.85703" lon="0.20459">
        <ele>2322.68</ele>
        <time>2012-02-12T10:50:25Z</time>
      </trkpt>
      <trkpt lat="42.85701" lon="0.20458">
        <ele>2322.2</ele>
        <time>2012-02-12T10:50:27Z</time>
      </trkpt>
      <trkpt lat="42.85698" lon="0.20459">
        <ele>2322.2</ele>
        <time>2012-02-12T10:50:30Z</time>
      </trkpt>
      <trkpt lat="42.85695" lon="0.2046">
        <ele>2324.12</ele>
        <time>2012-02-12T10:50:35Z</time>
      </trkpt>
      <trkpt lat="42.85691" lon="0.20454">
        <ele>2325.57</ele>
        <time>2012-02-12T10:50:43Z</time>
      </trkpt>
      <trkpt lat="42.85687" lon="0.20452">
        <ele>2327.01</ele>
        <time>2012-02-12T10:50:52Z</time>
      </trkpt>
      <trkpt lat="42.85682" lon="0.20455">
        <ele>2327.49</ele>
        <time>2012-02-12T10:51:00Z</time>
      </trkpt>
      <trkpt lat="42.85679" lon="0.20457">
        <ele>2328.93</ele>
        <time>2012-02-12T10:51:05Z</time>
      </trkpt>
      <trkpt lat="42.85678" lon="0.20457">
        <ele>2329.41</ele>
        <time>2012-02-12T10:51:07Z</time>
      </trkpt>
      <trkpt lat="42.85668" lon="0.2046">
        <ele>2328.93</ele>
        <time>2012-02-12T10:51:20Z</time>
      </trkpt>
      <trkpt lat="42.85665" lon="0.20461">
        <ele>2329.41</ele>
        <time>2012-02-12T10:51:24Z</time>
      </trkpt>
      <trkpt lat="42.85662" lon="0.20463">
        <ele>2328.93</ele>
        <time>2012-02-12T10:51:28Z</time>
      </trkpt>
      <trkpt lat="42.85657" lon="0.20466">
        <ele>2330.37</ele>
        <time>2012-02-12T10:51:36Z</time>
      </trkpt>
      <trkpt lat="42.85651" lon="0.20468">
        <ele>2331.33</ele>
        <time>2012-02-12T10:51:46Z</time>
      </trkpt>
      <trkpt lat="42.85649" lon="0.2047">
        <ele>2330.85</ele>
        <time>2012-02-12T10:51:57Z</time>
      </trkpt>
      <trkpt lat="42.85649" lon="0.2047">
        <ele>2329.41</ele>
        <time>2012-02-12T10:52:15Z</time>
      </trkpt>
      <trkpt lat="42.85649" lon="0.2047">
        <ele>2328.93</ele>
        <time>2012-02-12T10:52:30Z</time>
      </trkpt>
      <trkpt lat="42.85649" lon="0.2047">
        <ele>2327.49</ele>
        <time>2012-02-12T10:52:40Z</time>
      </trkpt>
      <trkpt lat="42.85649" lon="0.2047">
        <ele>2328.93</ele>
        <time>2012-02-12T10:52:42Z</time>
      </trkpt>
      <trkpt lat="42.85649" lon="0.20469">
        <ele>2328.45</ele>
        <time>2012-02-12T10:52:56Z</time>
      </trkpt>
      <trkpt lat="42.85649" lon="0.20469">
        <ele>2327.01</ele>
        <time>2012-02-12T10:53:24Z</time>
      </trkpt>
      <trkpt lat="42.85649" lon="0.20469">
        <ele>2328.45</ele>
        <time>2012-02-12T10:53:53Z</time>
      </trkpt>
      <trkpt lat="42.85648" lon="0.20469">
        <ele>2328.93</ele>
        <time>2012-02-12T10:54:14Z</time>
      </trkpt>
      <trkpt lat="42.85648" lon="0.20469">
        <ele>2328.93</ele>
        <time>2012-02-12T10:54:26Z</time>
      </trkpt>
      <trkpt lat="42.85648" lon="0.20469">
        <ele>2328.45</ele>
        <time>2012-02-12T10:54:41Z</time>
      </trkpt>
      <trkpt lat="42.85648" lon="0.20469">
        <ele>2328.93</ele>
        <time>2012-02-12T10:54:48Z</time>
      </trkpt>
      <trkpt lat="42.85648" lon="0.20469">
        <ele>2328.45</ele>
        <time>2012-02-12T10:55:15Z</time>
      </trkpt>
      <trkpt lat="42.85648" lon="0.20469">
        <ele>2328.93</ele>
        <time>2012-02-12T10:55:40Z</time>
      </trkpt>
      <trkpt lat="42.85648" lon="0.20468">
        <ele>2328.93</ele>
        <time>2012-02-12T10:56:07Z</time>
      </trkpt>
      <trkpt lat="42.85647" lon="0.20469">
        <ele>2318.36</ele>
        <time>2012-02-12T10:56:20Z</time>
      </trkpt>
      <trkpt lat="42.85647" lon="0.20469">
        <ele>2331.33</ele>
        <time>2012-02-12T10:56:21Z</time>
      </trkpt>
      <trkpt lat="42.85647" lon="0.20469">
        <ele>2327.97</ele>
        <time>2012-02-12T10:56:23Z</time>
      </trkpt>
      <trkpt lat="42.85647" lon="0.20469">
        <ele>2331.81</ele>
        <time>2012-02-12T10:56:24Z</time>
      </trkpt>
      <trkpt lat="42.85647" lon="0.20469">
        <ele>2327.97</ele>
        <time>2012-02-12T10:56:25Z</time>
      </trkpt>
      <trkpt lat="42.85647" lon="0.20469">
        <ele>2331.33</ele>
        <time>2012-02-12T10:56:29Z</time>
      </trkpt>
      <trkpt lat="42.85647" lon="0.20469">
        <ele>2328.45</ele>
        <time>2012-02-12T10:56:45Z</time>
      </trkpt>
      <trkpt lat="42.85648" lon="0.2047">
        <ele>2329.41</ele>
        <time>2012-02-12T10:57:11Z</time>
      </trkpt>
      <trkpt lat="42.85648" lon="0.2047">
        <ele>2329.89</ele>
        <time>2012-02-12T10:57:19Z</time>
      </trkpt>
      <trkpt lat="42.85649" lon="0.2047">
        <ele>2329.89</ele>
        <time>2012-02-12T10:57:31Z</time>
      </trkpt>
      <trkpt lat="42.85648" lon="0.2047">
        <ele>2329.41</ele>
        <time>2012-02-12T10:57:48Z</time>
      </trkpt>
      <trkpt lat="42.85648" lon="0.2047">
        <ele>2329.89</ele>
        <time>2012-02-12T10:58:08Z</time>
      </trkpt>
      <trkpt lat="42.85649" lon="0.20469">
        <ele>2329.89</ele>
        <time>2012-02-12T10:58:22Z</time>
      </trkpt>
      <trkpt lat="42.85649" lon="0.20469">
        <ele>2328.93</ele>
        <time>2012-02-12T10:58:28Z</time>
      </trkpt>
      <trkpt lat="42.8565" lon="0.20468">
        <ele>2329.41</ele>
        <time>2012-02-12T10:58:48Z</time>
      </trkpt>
      <trkpt lat="42.85649" lon="0.20469">
        <ele>2330.37</ele>
        <time>2012-02-12T10:59:03Z</time>
      </trkpt>
      <trkpt lat="42.85648" lon="0.20468">
        <ele>2329.41</ele>
        <time>2012-02-12T10:59:08Z</time>
      </trkpt>
      <trkpt lat="42.85646" lon="0.20469">
        <ele>2329.41</ele>
        <time>2012-02-12T10:59:10Z</time>
      </trkpt>
      <trkpt lat="42.85632" lon="0.20467">
        <ele>2327.01</ele>
        <time>2012-02-12T10:59:15Z</time>
      </trkpt>
      <trkpt lat="42.85615" lon="0.20472">
        <ele>2323.64</ele>
        <time>2012-02-12T10:59:18Z</time>
      </trkpt>
      <trkpt lat="42.85602" lon="0.20473">
        <ele>2320.28</ele>
        <time>2012-02-12T10:59:20Z</time>
      </trkpt>
      <trkpt lat="42.8559" lon="0.20472">
        <ele>2317.4</ele>
        <time>2012-02-12T10:59:22Z</time>
      </trkpt>
      <trkpt lat="42.85579" lon="0.20468">
        <ele>2313.55</ele>
        <time>2012-02-12T10:59:24Z</time>
      </trkpt>
      <trkpt lat="42.85568" lon="0.2048">
        <ele>2310.67</ele>
        <time>2012-02-12T10:59:28Z</time>
      </trkpt>
      <trkpt lat="42.85567" lon="0.20484">
        <ele>2310.19</ele>
        <time>2012-02-12T10:59:30Z</time>
      </trkpt>
      <trkpt lat="42.85567" lon="0.20486">
        <ele>2309.22</ele>
        <time>2012-02-12T10:59:41Z</time>
      </trkpt>
      <trkpt lat="42.85567" lon="0.20486">
        <ele>2309.7</ele>
        <time>2012-02-12T11:00:05Z</time>
      </trkpt>
      <trkpt lat="42.85567" lon="0.20487">
        <ele>2310.67</ele>
        <time>2012-02-12T11:00:28Z</time>
      </trkpt>
      <trkpt lat="42.85563" lon="0.20509">
        <ele>2306.82</ele>
        <time>2012-02-12T11:00:35Z</time>
      </trkpt>
      <trkpt lat="42.8556" lon="0.20522">
        <ele>2305.38</ele>
        <time>2012-02-12T11:00:38Z</time>
      </trkpt>
      <trkpt lat="42.85555" lon="0.20554">
        <ele>2298.65</ele>
        <time>2012-02-12T11:00:42Z</time>
      </trkpt>
      <trkpt lat="42.85547" lon="0.20577">
        <ele>2293.36</ele>
        <time>2012-02-12T11:00:45Z</time>
      </trkpt>
      <trkpt lat="42.8554" lon="0.206">
        <ele>2288.08</ele>
        <time>2012-02-12T11:00:49Z</time>
      </trkpt>
      <trkpt lat="42.85528" lon="0.20605">
        <ele>2282.79</ele>
        <time>2012-02-12T11:00:51Z</time>
      </trkpt>
      <trkpt lat="42.85521" lon="0.20601">
        <ele>2278.46</ele>
        <time>2012-02-12T11:00:52Z</time>
      </trkpt>
      <trkpt lat="42.85501" lon="0.20583">
        <ele>2272.21</ele>
        <time>2012-02-12T11:00:55Z</time>
      </trkpt>
      <trkpt lat="42.85481" lon="0.20574">
        <ele>2268.37</ele>
        <time>2012-02-12T11:00:58Z</time>
      </trkpt>
      <trkpt lat="42.85466" lon="0.20585">
        <ele>2264.52</ele>
        <time>2012-02-12T11:01:01Z</time>
      </trkpt>
      <trkpt lat="42.85461" lon="0.20591">
        <ele>2262.12</ele>
        <time>2012-02-12T11:01:02Z</time>
      </trkpt>
      <trkpt lat="42.85443" lon="0.20615">
        <ele>2254.43</ele>
        <time>2012-02-12T11:01:06Z</time>
      </trkpt>
      <trkpt lat="42.85439" lon="0.20621">
        <ele>2252.99</ele>
        <time>2012-02-12T11:01:07Z</time>
      </trkpt>
      <trkpt lat="42.85433" lon="0.20634">
        <ele>2250.58</ele>
        <time>2012-02-12T11:01:09Z</time>
      </trkpt>
      <trkpt lat="42.85423" lon="0.20641">
        <ele>2245.3</ele>
        <time>2012-02-12T11:01:12Z</time>
      </trkpt>
      <trkpt lat="42.85422" lon="0.2064">
        <ele>2245.3</ele>
        <time>2012-02-12T11:01:13Z</time>
      </trkpt>
      <trkpt lat="42.85421" lon="0.2064">
        <ele>2244.82</ele>
        <time>2012-02-12T11:01:27Z</time>
      </trkpt>
      <trkpt lat="42.85421" lon="0.2064">
        <ele>2244.82</ele>
        <time>2012-02-12T11:01:54Z</time>
      </trkpt>
      <trkpt lat="42.85421" lon="0.20639">
        <ele>2244.82</ele>
        <time>2012-02-12T11:02:26Z</time>
      </trkpt>
      <trkpt lat="42.85422" lon="0.2064">
        <ele>2244.82</ele>
        <time>2012-02-12T11:02:45Z</time>
      </trkpt>
      <trkpt lat="42.85422" lon="0.2064">
        <ele>2244.33</ele>
        <time>2012-02-12T11:03:02Z</time>
      </trkpt>
      <trkpt lat="42.85422" lon="0.20639">
        <ele>2244.33</ele>
        <time>2012-02-12T11:03:30Z</time>
      </trkpt>
      <trkpt lat="42.85421" lon="0.20639">
        <ele>2244.82</ele>
        <time>2012-02-12T11:03:45Z</time>
      </trkpt>
      <trkpt lat="42.85422" lon="0.20639">
        <ele>2245.3</ele>
        <time>2012-02-12T11:04:16Z</time>
      </trkpt>
      <trkpt lat="42.85422" lon="0.20639">
        <ele>2246.74</ele>
        <time>2012-02-12T11:04:36Z</time>
      </trkpt>
      <trkpt lat="42.85421" lon="0.20639">
        <ele>2244.82</ele>
        <time>2012-02-12T11:05:00Z</time>
      </trkpt>
      <trkpt lat="42.85421" lon="0.20639">
        <ele>2244.82</ele>
        <time>2012-02-12T11:05:03Z</time>
      </trkpt>
      <trkpt lat="42.85417" lon="0.20647">
        <ele>2244.33</ele>
        <time>2012-02-12T11:05:07Z</time>
      </trkpt>
      <trkpt lat="42.85413" lon="0.20659">
        <ele>2241.93</ele>
        <time>2012-02-12T11:05:09Z</time>
      </trkpt>
      <trkpt lat="42.85405" lon="0.2068">
        <ele>2237.61</ele>
        <time>2012-02-12T11:05:12Z</time>
      </trkpt>
      <trkpt lat="42.85394" lon="0.20697">
        <ele>2230.88</ele>
        <time>2012-02-12T11:05:15Z</time>
      </trkpt>
      <trkpt lat="42.85384" lon="0.20722">
        <ele>2223.19</ele>
        <time>2012-02-12T11:05:18Z</time>
      </trkpt>
      <trkpt lat="42.85381" lon="0.20732">
        <ele>2221.74</ele>
        <time>2012-02-12T11:05:19Z</time>
      </trkpt>
      <trkpt lat="42.85375" lon="0.20763">
        <ele>2217.9</ele>
        <time>2012-02-12T11:05:22Z</time>
      </trkpt>
      <trkpt lat="42.85373" lon="0.20781">
        <ele>2216.46</ele>
        <time>2012-02-12T11:05:24Z</time>
      </trkpt>
      <trkpt lat="42.8537" lon="0.20808">
        <ele>2214.53</ele>
        <time>2012-02-12T11:05:32Z</time>
      </trkpt>
      <trkpt lat="42.8537" lon="0.2081">
        <ele>2214.05</ele>
        <time>2012-02-12T11:05:47Z</time>
      </trkpt>
      <trkpt lat="42.8537" lon="0.2081">
        <ele>2214.05</ele>
        <time>2012-02-12T11:05:50Z</time>
      </trkpt>
      <trkpt lat="42.8537" lon="0.2081">
        <ele>2214.05</ele>
        <time>2012-02-12T11:06:02Z</time>
      </trkpt>
      <trkpt lat="42.85371" lon="0.2081">
        <ele>2214.53</ele>
        <time>2012-02-12T11:06:16Z</time>
      </trkpt>
      <trkpt lat="42.8537" lon="0.20811">
        <ele>2215.01</ele>
        <time>2012-02-12T11:06:29Z</time>
      </trkpt>
      <trkpt lat="42.8537" lon="0.2081">
        <ele>2214.05</ele>
        <time>2012-02-12T11:06:40Z</time>
      </trkpt>
      <trkpt lat="42.8537" lon="0.2081">
        <ele>2214.05</ele>
        <time>2012-02-12T11:07:08Z</time>
      </trkpt>
      <trkpt lat="42.85369" lon="0.20811">
        <ele>2215.01</ele>
        <time>2012-02-12T11:07:36Z</time>
      </trkpt>
      <trkpt lat="42.85368" lon="0.20815">
        <ele>2214.53</ele>
        <time>2012-02-12T11:07:39Z</time>
      </trkpt>
      <trkpt lat="42.85368" lon="0.20828">
        <ele>2215.01</ele>
        <time>2012-02-12T11:07:51Z</time>
      </trkpt>
      <trkpt lat="42.85369" lon="0.20833">
        <ele>2214.53</ele>
        <time>2012-02-12T11:07:57Z</time>
      </trkpt>
      <trkpt lat="42.85369" lon="0.20838">
        <ele>2215.5</ele>
        <time>2012-02-12T11:08:09Z</time>
      </trkpt>
      <trkpt lat="42.85369" lon="0.20838">
        <ele>2214.53</ele>
        <time>2012-02-12T11:08:23Z</time>
      </trkpt>
      <trkpt lat="42.85369" lon="0.20838">
        <ele>2214.53</ele>
        <time>2012-02-12T11:08:35Z</time>
      </trkpt>
      <trkpt lat="42.8537" lon="0.20838">
        <ele>2214.05</ele>
        <time>2012-02-12T11:08:47Z</time>
      </trkpt>
      <trkpt lat="42.8537" lon="0.20838">
        <ele>2214.53</ele>
        <time>2012-02-12T11:09:10Z</time>
      </trkpt>
      <trkpt lat="42.8537" lon="0.20837">
        <ele>2218.38</ele>
        <time>2012-02-12T11:09:22Z</time>
      </trkpt>
      <trkpt lat="42.8537" lon="0.20837">
        <ele>2215.01</ele>
        <time>2012-02-12T11:09:23Z</time>
      </trkpt>
      <trkpt lat="42.8537" lon="0.20837">
        <ele>2211.65</ele>
        <time>2012-02-12T11:09:24Z</time>
      </trkpt>
      <trkpt lat="42.8537" lon="0.20838">
        <ele>2214.05</ele>
        <time>2012-02-12T11:09:25Z</time>
      </trkpt>
      <trkpt lat="42.8537" lon="0.20838">
        <ele>2214.05</ele>
        <time>2012-02-12T11:09:53Z</time>
      </trkpt>
      <trkpt lat="42.8537" lon="0.20838">
        <ele>2215.01</ele>
        <time>2012-02-12T11:10:02Z</time>
      </trkpt>
      <trkpt lat="42.8537" lon="0.20837">
        <ele>2215.5</ele>
        <time>2012-02-12T11:10:12Z</time>
      </trkpt>
      <trkpt lat="42.8537" lon="0.20841">
        <ele>2215.98</ele>
        <time>2012-02-12T11:10:29Z</time>
      </trkpt>
      <trkpt lat="42.8537" lon="0.20848">
        <ele>2216.46</ele>
        <time>2012-02-12T11:10:40Z</time>
      </trkpt>
      <trkpt lat="42.85371" lon="0.20854">
        <ele>2217.42</ele>
        <time>2012-02-12T11:10:51Z</time>
      </trkpt>
      <trkpt lat="42.85371" lon="0.20856">
        <ele>2216.94</ele>
        <time>2012-02-12T11:10:55Z</time>
      </trkpt>
      <trkpt lat="42.85371" lon="0.20861">
        <ele>2217.9</ele>
        <time>2012-02-12T11:11:07Z</time>
      </trkpt>
      <trkpt lat="42.85371" lon="0.20862">
        <ele>2217.9</ele>
        <time>2012-02-12T11:11:24Z</time>
      </trkpt>
      <trkpt lat="42.8537" lon="0.20868">
        <ele>2218.38</ele>
        <time>2012-02-12T11:11:43Z</time>
      </trkpt>
      <trkpt lat="42.85371" lon="0.20874">
        <ele>2218.86</ele>
        <time>2012-02-12T11:11:52Z</time>
      </trkpt>
      <trkpt lat="42.85373" lon="0.20884">
        <ele>2218.86</ele>
        <time>2012-02-12T11:12:03Z</time>
      </trkpt>
      <trkpt lat="42.85375" lon="0.20889">
        <ele>2218.86</ele>
        <time>2012-02-12T11:12:21Z</time>
      </trkpt>
      <trkpt lat="42.85374" lon="0.20889">
        <ele>2218.38</ele>
        <time>2012-02-12T11:12:25Z</time>
      </trkpt>
      <trkpt lat="42.85376" lon="0.20892">
        <ele>2218.86</ele>
        <time>2012-02-12T11:12:36Z</time>
      </trkpt>
      <trkpt lat="42.85377" lon="0.20899">
        <ele>2219.82</ele>
        <time>2012-02-12T11:12:51Z</time>
      </trkpt>
      <trkpt lat="42.85376" lon="0.20906">
        <ele>2220.78</ele>
        <time>2012-02-12T11:13:09Z</time>
      </trkpt>
      <trkpt lat="42.85372" lon="0.20911">
        <ele>2221.74</ele>
        <time>2012-02-12T11:13:18Z</time>
      </trkpt>
      <trkpt lat="42.85369" lon="0.20917">
        <ele>2223.19</ele>
        <time>2012-02-12T11:13:29Z</time>
      </trkpt>
      <trkpt lat="42.85368" lon="0.20919">
        <ele>2224.15</ele>
        <time>2012-02-12T11:13:41Z</time>
      </trkpt>
      <trkpt lat="42.85368" lon="0.2092">
        <ele>2225.11</ele>
        <time>2012-02-12T11:13:58Z</time>
      </trkpt>
      <trkpt lat="42.85368" lon="0.20921">
        <ele>2225.11</ele>
        <time>2012-02-12T11:14:13Z</time>
      </trkpt>
      <trkpt lat="42.85367" lon="0.20922">
        <ele>2225.59</ele>
        <time>2012-02-12T11:14:18Z</time>
      </trkpt>
      <trkpt lat="42.85364" lon="0.20927">
        <ele>2226.55</ele>
        <time>2012-02-12T11:14:30Z</time>
      </trkpt>
      <trkpt lat="42.85363" lon="0.20928">
        <ele>2227.51</ele>
        <time>2012-02-12T11:14:34Z</time>
      </trkpt>
      <trkpt lat="42.85363" lon="0.20929">
        <ele>2228.47</ele>
        <time>2012-02-12T11:14:45Z</time>
      </trkpt>
      <trkpt lat="42.85361" lon="0.2093">
        <ele>2228.95</ele>
        <time>2012-02-12T11:15:03Z</time>
      </trkpt>
      <trkpt lat="42.85358" lon="0.20933">
        <ele>2230.4</ele>
        <time>2012-02-12T11:15:15Z</time>
      </trkpt>
      <trkpt lat="42.85356" lon="0.20935">
        <ele>2230.88</ele>
        <time>2012-02-12T11:15:18Z</time>
      </trkpt>
      <trkpt lat="42.85351" lon="0.20937">
        <ele>2232.8</ele>
        <time>2012-02-12T11:15:30Z</time>
      </trkpt>
      <trkpt lat="42.85349" lon="0.20938">
        <ele>2233.76</ele>
        <time>2012-02-12T11:15:40Z</time>
      </trkpt>
      <trkpt lat="42.85348" lon="0.20941">
        <ele>2235.2</ele>
        <time>2012-02-12T11:15:54Z</time>
      </trkpt>
      <trkpt lat="42.85348" lon="0.20942">
        <ele>2235.68</ele>
        <time>2012-02-12T11:16:04Z</time>
      </trkpt>
      <trkpt lat="42.85348" lon="0.20945">
        <ele>2236.16</ele>
        <time>2012-02-12T11:16:15Z</time>
      </trkpt>
      <trkpt lat="42.85346" lon="0.20949">
        <ele>2238.57</ele>
        <time>2012-02-12T11:16:29Z</time>
      </trkpt>
      <trkpt lat="42.85346" lon="0.20949">
        <ele>2238.09</ele>
        <time>2012-02-12T11:16:30Z</time>
      </trkpt>
      <trkpt lat="42.85345" lon="0.20951">
        <ele>2240.01</ele>
        <time>2012-02-12T11:16:41Z</time>
      </trkpt>
      <trkpt lat="42.85344" lon="0.20956">
        <ele>2240.97</ele>
        <time>2012-02-12T11:16:50Z</time>
      </trkpt>
      <trkpt lat="42.85341" lon="0.20963">
        <ele>2241.45</ele>
        <time>2012-02-12T11:17:01Z</time>
      </trkpt>
      <trkpt lat="42.8534" lon="0.20966">
        <ele>2243.85</ele>
        <time>2012-02-12T11:17:11Z</time>
      </trkpt>
      <trkpt lat="42.85332" lon="0.20972">
        <ele>2243.37</ele>
        <time>2012-02-12T11:17:23Z</time>
      </trkpt>
      <trkpt lat="42.85332" lon="0.20973">
        <ele>2243.37</ele>
        <time>2012-02-12T11:17:24Z</time>
      </trkpt>
      <trkpt lat="42.85332" lon="0.20971">
        <ele>2243.85</ele>
        <time>2012-02-12T11:17:34Z</time>
      </trkpt>
      <trkpt lat="42.85332" lon="0.20971">
        <ele>2241.93</ele>
        <time>2012-02-12T11:17:44Z</time>
      </trkpt>
      <trkpt lat="42.85331" lon="0.20973">
        <ele>2242.89</ele>
        <time>2012-02-12T11:17:50Z</time>
      </trkpt>
      <trkpt lat="42.85322" lon="0.20968">
        <ele>2244.82</ele>
        <time>2012-02-12T11:18:22Z</time>
      </trkpt>
      <trkpt lat="42.8533" lon="0.20976">
        <ele>2245.3</ele>
        <time>2012-02-12T11:18:44Z</time>
      </trkpt>
      <trkpt lat="42.85334" lon="0.20968">
        <ele>2246.74</ele>
        <time>2012-02-12T11:18:49Z</time>
      </trkpt>
      <trkpt lat="42.85332" lon="0.20963">
        <ele>2243.85</ele>
        <time>2012-02-12T11:19:11Z</time>
      </trkpt>
      <trkpt lat="42.85338" lon="0.20973">
        <ele>2243.37</ele>
        <time>2012-02-12T11:19:34Z</time>
      </trkpt>
      <trkpt lat="42.85346" lon="0.20973">
        <ele>2241.93</ele>
        <time>2012-02-12T11:19:55Z</time>
      </trkpt>
      <trkpt lat="42.85333" lon="0.20967">
        <ele>2242.41</ele>
        <time>2012-02-12T11:20:18Z</time>
      </trkpt>
      <trkpt lat="42.85333" lon="0.20966">
        <ele>2243.37</ele>
        <time>2012-02-12T11:20:40Z</time>
      </trkpt>
      <trkpt lat="42.85332" lon="0.20973">
        <ele>2243.37</ele>
        <time>2012-02-12T11:21:03Z</time>
      </trkpt>
      <trkpt lat="42.85332" lon="0.20973">
        <ele>2243.37</ele>
        <time>2012-02-12T11:21:25Z</time>
      </trkpt>
      <trkpt lat="42.85329" lon="0.20965">
        <ele>2243.37</ele>
        <time>2012-02-12T11:21:43Z</time>
      </trkpt>
      <trkpt lat="42.85328" lon="0.20965">
        <ele>2243.37</ele>
        <time>2012-02-12T11:22:03Z</time>
      </trkpt>
      <trkpt lat="42.85337" lon="0.20977">
        <ele>2244.33</ele>
        <time>2012-02-12T11:22:24Z</time>
      </trkpt>
      <trkpt lat="42.85344" lon="0.2098">
        <ele>2243.85</ele>
        <time>2012-02-12T11:22:44Z</time>
      </trkpt>
      <trkpt lat="42.85342" lon="0.20977">
        <ele>2243.37</ele>
        <time>2012-02-12T11:23:04Z</time>
      </trkpt>
      <trkpt lat="42.85348" lon="0.20975">
        <ele>2245.78</ele>
        <time>2012-02-12T11:23:32Z</time>
      </trkpt>
      <trkpt lat="42.85348" lon="0.20974">
        <ele>2242.41</ele>
        <time>2012-02-12T11:23:33Z</time>
      </trkpt>
      <trkpt lat="42.85351" lon="0.20974">
        <ele>2243.85</ele>
        <time>2012-02-12T11:23:42Z</time>
      </trkpt>
      <trkpt lat="42.85335" lon="0.20971">
        <ele>2247.22</ele>
        <time>2012-02-12T12:44:53Z</time>
      </trkpt>
      <trkpt lat="42.85336" lon="0.20973">
        <ele>2246.26</ele>
        <time>2012-02-12T12:44:58Z</time>
      </trkpt>
      <trkpt lat="42.85334" lon="0.20963">
        <ele>2249.62</ele>
        <time>2012-02-12T12:45:12Z</time>
      </trkpt>
      <trkpt lat="42.85336" lon="0.20964">
        <ele>2248.18</ele>
        <time>2012-02-12T12:45:13Z</time>
      </trkpt>
      <trkpt lat="42.85334" lon="0.20967">
        <ele>2240.01</ele>
        <time>2012-02-12T12:45:18Z</time>
      </trkpt>
      <trkpt lat="42.85335" lon="0.20967">
        <ele>2249.14</ele>
        <time>2012-02-12T12:45:19Z</time>
      </trkpt>
      <trkpt lat="42.85333" lon="0.20972">
        <ele>2245.78</ele>
        <time>2012-02-12T12:45:27Z</time>
      </trkpt>
      <trkpt lat="42.85334" lon="0.20972">
        <ele>2247.7</ele>
        <time>2012-02-12T12:45:30Z</time>
      </trkpt>
      <trkpt lat="42.85334" lon="0.20971">
        <ele>2259.24</ele>
        <time>2012-02-12T12:45:32Z</time>
      </trkpt>
      <trkpt lat="42.85334" lon="0.20971">
        <ele>2248.18</ele>
        <time>2012-02-12T12:45:33Z</time>
      </trkpt>
      <trkpt lat="42.85334" lon="0.20973">
        <ele>2248.66</ele>
        <time>2012-02-12T12:45:45Z</time>
      </trkpt>
      <trkpt lat="42.85334" lon="0.20972">
        <ele>2248.18</ele>
        <time>2012-02-12T12:46:04Z</time>
      </trkpt>
      <trkpt lat="42.85334" lon="0.20972">
        <ele>2247.22</ele>
        <time>2012-02-12T12:46:17Z</time>
      </trkpt>
      <trkpt lat="42.85335" lon="0.20972">
        <ele>2247.22</ele>
        <time>2012-02-12T12:46:26Z</time>
      </trkpt>
      <trkpt lat="42.85335" lon="0.20972">
        <ele>2248.66</ele>
        <time>2012-02-12T12:46:31Z</time>
      </trkpt>
      <trkpt lat="42.85337" lon="0.20969">
        <ele>2248.18</ele>
        <time>2012-02-12T12:46:34Z</time>
      </trkpt>
      <trkpt lat="42.85346" lon="0.20951">
        <ele>2245.78</ele>
        <time>2012-02-12T12:46:42Z</time>
      </trkpt>
      <trkpt lat="42.85361" lon="0.2093">
        <ele>2238.57</ele>
        <time>2012-02-12T12:46:46Z</time>
      </trkpt>
      <trkpt lat="42.85379" lon="0.20919">
        <ele>2233.76</ele>
        <time>2012-02-12T12:46:49Z</time>
      </trkpt>
      <trkpt lat="42.85381" lon="0.20917">
        <ele>2233.76</ele>
        <time>2012-02-12T12:46:50Z</time>
      </trkpt>
      <trkpt lat="42.85383" lon="0.20916">
        <ele>2233.76</ele>
        <time>2012-02-12T12:46:51Z</time>
      </trkpt>
      <trkpt lat="42.85376" lon="0.20892">
        <ele>2228.95</ele>
        <time>2012-02-12T12:46:55Z</time>
      </trkpt>
      <trkpt lat="42.8537" lon="0.20874">
        <ele>2225.59</ele>
        <time>2012-02-12T12:46:57Z</time>
      </trkpt>
      <trkpt lat="42.85365" lon="0.2086">
        <ele>2224.63</ele>
        <time>2012-02-12T12:46:59Z</time>
      </trkpt>
      <trkpt lat="42.85353" lon="0.2084">
        <ele>2223.19</ele>
        <time>2012-02-12T12:47:08Z</time>
      </trkpt>
      <trkpt lat="42.85353" lon="0.2084">
        <ele>2222.71</ele>
        <time>2012-02-12T12:47:16Z</time>
      </trkpt>
      <trkpt lat="42.85351" lon="0.20837">
        <ele>2223.19</ele>
        <time>2012-02-12T12:47:18Z</time>
      </trkpt>
      <trkpt lat="42.85332" lon="0.20823">
        <ele>2218.86</ele>
        <time>2012-02-12T12:47:24Z</time>
      </trkpt>
      <trkpt lat="42.85317" lon="0.20814">
        <ele>2216.94</ele>
        <time>2012-02-12T12:47:31Z</time>
      </trkpt>
      <trkpt lat="42.85312" lon="0.20812">
        <ele>2216.46</ele>
        <time>2012-02-12T12:47:42Z</time>
      </trkpt>
      <trkpt lat="42.85305" lon="0.20811">
        <ele>2216.94</ele>
        <time>2012-02-12T12:47:47Z</time>
      </trkpt>
      <trkpt lat="42.85298" lon="0.2081">
        <ele>2216.94</ele>
        <time>2012-02-12T12:47:52Z</time>
      </trkpt>
      <trkpt lat="42.85292" lon="0.20808">
        <ele>2217.9</ele>
        <time>2012-02-12T12:48:04Z</time>
      </trkpt>
      <trkpt lat="42.85291" lon="0.20809">
        <ele>2217.9</ele>
        <time>2012-02-12T12:48:07Z</time>
      </trkpt>
      <trkpt lat="42.85286" lon="0.20809">
        <ele>2218.86</ele>
        <time>2012-02-12T12:48:13Z</time>
      </trkpt>
      <trkpt lat="42.85282" lon="0.20808">
        <ele>2218.86</ele>
        <time>2012-02-12T12:48:22Z</time>
      </trkpt>
      <trkpt lat="42.85282" lon="0.20808">
        <ele>2218.38</ele>
        <time>2012-02-12T12:48:43Z</time>
      </trkpt>
      <trkpt lat="42.85281" lon="0.20808">
        <ele>2218.86</ele>
        <time>2012-02-12T12:48:51Z</time>
      </trkpt>
      <trkpt lat="42.85272" lon="0.20819">
        <ele>2217.42</ele>
        <time>2012-02-12T12:49:03Z</time>
      </trkpt>
      <trkpt lat="42.85266" lon="0.20829">
        <ele>2217.42</ele>
        <time>2012-02-12T12:49:13Z</time>
      </trkpt>
      <trkpt lat="42.85264" lon="0.20832">
        <ele>2217.9</ele>
        <time>2012-02-12T12:49:16Z</time>
      </trkpt>
      <trkpt lat="42.85262" lon="0.20836">
        <ele>2217.42</ele>
        <time>2012-02-12T12:49:19Z</time>
      </trkpt>
      <trkpt lat="42.85257" lon="0.20842">
        <ele>2217.42</ele>
        <time>2012-02-12T12:49:31Z</time>
      </trkpt>
      <trkpt lat="42.85254" lon="0.2085">
        <ele>2217.42</ele>
        <time>2012-02-12T12:49:42Z</time>
      </trkpt>
      <trkpt lat="42.85253" lon="0.2085">
        <ele>2217.9</ele>
        <time>2012-02-12T12:49:54Z</time>
      </trkpt>
      <trkpt lat="42.85252" lon="0.20853">
        <ele>2217.42</ele>
        <time>2012-02-12T12:49:56Z</time>
      </trkpt>
      <trkpt lat="42.85245" lon="0.20875">
        <ele>2214.53</ele>
        <time>2012-02-12T12:50:07Z</time>
      </trkpt>
      <trkpt lat="42.85244" lon="0.20881">
        <ele>2214.53</ele>
        <time>2012-02-12T12:50:20Z</time>
      </trkpt>
      <trkpt lat="42.85243" lon="0.20883">
        <ele>2214.53</ele>
        <time>2012-02-12T12:50:22Z</time>
      </trkpt>
      <trkpt lat="42.85237" lon="0.20897">
        <ele>2214.53</ele>
        <time>2012-02-12T12:50:32Z</time>
      </trkpt>
      <trkpt lat="42.85235" lon="0.20902">
        <ele>2214.05</ele>
        <time>2012-02-12T12:50:36Z</time>
      </trkpt>
      <trkpt lat="42.85234" lon="0.20904">
        <ele>2214.05</ele>
        <time>2012-02-12T12:50:38Z</time>
      </trkpt>
      <trkpt lat="42.85233" lon="0.20906">
        <ele>2214.05</ele>
        <time>2012-02-12T12:50:40Z</time>
      </trkpt>
      <trkpt lat="42.85228" lon="0.20916">
        <ele>2214.05</ele>
        <time>2012-02-12T12:50:50Z</time>
      </trkpt>
      <trkpt lat="42.85226" lon="0.20923">
        <ele>2214.53</ele>
        <time>2012-02-12T12:51:00Z</time>
      </trkpt>
      <trkpt lat="42.85224" lon="0.20925">
        <ele>2214.53</ele>
        <time>2012-02-12T12:51:02Z</time>
      </trkpt>
      <trkpt lat="42.8522" lon="0.20937">
        <ele>2215.01</ele>
        <time>2012-02-12T12:51:11Z</time>
      </trkpt>
      <trkpt lat="42.85218" lon="0.20946">
        <ele>2215.01</ele>
        <time>2012-02-12T12:51:18Z</time>
      </trkpt>
      <trkpt lat="42.85216" lon="0.20953">
        <ele>2215.5</ele>
        <time>2012-02-12T12:51:24Z</time>
      </trkpt>
      <trkpt lat="42.85213" lon="0.20961">
        <ele>2215.5</ele>
        <time>2012-02-12T12:51:36Z</time>
      </trkpt>
      <trkpt lat="42.85213" lon="0.20964">
        <ele>2215.5</ele>
        <time>2012-02-12T12:51:38Z</time>
      </trkpt>
      <trkpt lat="42.85212" lon="0.20966">
        <ele>2215.5</ele>
        <time>2012-02-12T12:51:40Z</time>
      </trkpt>
      <trkpt lat="42.85207" lon="0.20981">
        <ele>2215.01</ele>
        <time>2012-02-12T12:51:53Z</time>
      </trkpt>
      <trkpt lat="42.85207" lon="0.20981">
        <ele>2214.53</ele>
        <time>2012-02-12T12:51:54Z</time>
      </trkpt>
      <trkpt lat="42.85206" lon="0.20984">
        <ele>2215.01</ele>
        <time>2012-02-12T12:51:56Z</time>
      </trkpt>
      <trkpt lat="42.85203" lon="0.20991">
        <ele>2215.01</ele>
        <time>2012-02-12T12:52:03Z</time>
      </trkpt>
      <trkpt lat="42.852" lon="0.21001">
        <ele>2215.01</ele>
        <time>2012-02-12T12:52:12Z</time>
      </trkpt>
      <trkpt lat="42.85199" lon="0.21003">
        <ele>2215.5</ele>
        <time>2012-02-12T12:52:29Z</time>
      </trkpt>
      <trkpt lat="42.85197" lon="0.21008">
        <ele>2215.01</ele>
        <time>2012-02-12T12:52:35Z</time>
      </trkpt>
      <trkpt lat="42.85196" lon="0.2101">
        <ele>2215.01</ele>
        <time>2012-02-12T12:52:37Z</time>
      </trkpt>
      <trkpt lat="42.85194" lon="0.21015">
        <ele>2215.5</ele>
        <time>2012-02-12T12:52:40Z</time>
      </trkpt>
      <trkpt lat="42.85192" lon="0.21022">
        <ele>2215.5</ele>
        <time>2012-02-12T12:52:47Z</time>
      </trkpt>
      <trkpt lat="42.85182" lon="0.2103">
        <ele>2215.5</ele>
        <time>2012-02-12T12:52:59Z</time>
      </trkpt>
      <trkpt lat="42.85175" lon="0.21037">
        <ele>2215.5</ele>
        <time>2012-02-12T12:53:06Z</time>
      </trkpt>
      <trkpt lat="42.85168" lon="0.21047">
        <ele>2215.5</ele>
        <time>2012-02-12T12:53:15Z</time>
      </trkpt>
      <trkpt lat="42.85167" lon="0.2105">
        <ele>2215.98</ele>
        <time>2012-02-12T12:53:17Z</time>
      </trkpt>
      <trkpt lat="42.85165" lon="0.21051">
        <ele>2215.5</ele>
        <time>2012-02-12T12:53:19Z</time>
      </trkpt>
      <trkpt lat="42.85158" lon="0.21061">
        <ele>2215.01</ele>
        <time>2012-02-12T12:53:27Z</time>
      </trkpt>
      <trkpt lat="42.85157" lon="0.21064">
        <ele>2215.5</ele>
        <time>2012-02-12T12:53:29Z</time>
      </trkpt>
      <trkpt lat="42.85151" lon="0.21069">
        <ele>2215.5</ele>
        <time>2012-02-12T12:53:35Z</time>
      </trkpt>
      <trkpt lat="42.85144" lon="0.21081">
        <ele>2215.98</ele>
        <time>2012-02-12T12:53:44Z</time>
      </trkpt>
      <trkpt lat="42.85137" lon="0.21087">
        <ele>2215.5</ele>
        <time>2012-02-12T12:53:52Z</time>
      </trkpt>
      <trkpt lat="42.85134" lon="0.21089">
        <ele>2215.98</ele>
        <time>2012-02-12T12:53:56Z</time>
      </trkpt>
      <trkpt lat="42.85125" lon="0.21097">
        <ele>2216.94</ele>
        <time>2012-02-12T12:54:05Z</time>
      </trkpt>
      <trkpt lat="42.85121" lon="0.211">
        <ele>2216.46</ele>
        <time>2012-02-12T12:54:10Z</time>
      </trkpt>
      <trkpt lat="42.85114" lon="0.21107">
        <ele>2215.98</ele>
        <time>2012-02-12T12:54:19Z</time>
      </trkpt>
      <trkpt lat="42.85113" lon="0.21109">
        <ele>2216.46</ele>
        <time>2012-02-12T12:54:21Z</time>
      </trkpt>
      <trkpt lat="42.851" lon="0.21123">
        <ele>2215.98</ele>
        <time>2012-02-12T12:54:34Z</time>
      </trkpt>
      <trkpt lat="42.85093" lon="0.2113">
        <ele>2215.98</ele>
        <time>2012-02-12T12:54:45Z</time>
      </trkpt>
      <trkpt lat="42.85092" lon="0.21133">
        <ele>2217.42</ele>
        <time>2012-02-12T12:55:00Z</time>
      </trkpt>
      <trkpt lat="42.85089" lon="0.21136">
        <ele>2215.98</ele>
        <time>2012-02-12T12:55:05Z</time>
      </trkpt>
      <trkpt lat="42.85087" lon="0.21138">
        <ele>2215.5</ele>
        <time>2012-02-12T12:55:07Z</time>
      </trkpt>
      <trkpt lat="42.85077" lon="0.21149">
        <ele>2215.5</ele>
        <time>2012-02-12T12:55:17Z</time>
      </trkpt>
      <trkpt lat="42.85069" lon="0.21157">
        <ele>2215.01</ele>
        <time>2012-02-12T12:55:26Z</time>
      </trkpt>
      <trkpt lat="42.85061" lon="0.21165">
        <ele>2215.5</ele>
        <time>2012-02-12T12:55:35Z</time>
      </trkpt>
      <trkpt lat="42.85057" lon="0.21169">
        <ele>2215.01</ele>
        <time>2012-02-12T12:55:39Z</time>
      </trkpt>
      <trkpt lat="42.85051" lon="0.21176">
        <ele>2215.01</ele>
        <time>2012-02-12T12:55:46Z</time>
      </trkpt>
      <trkpt lat="42.85049" lon="0.21178">
        <ele>2215.5</ele>
        <time>2012-02-12T12:55:48Z</time>
      </trkpt>
      <trkpt lat="42.85045" lon="0.21182">
        <ele>2215.5</ele>
        <time>2012-02-12T12:55:52Z</time>
      </trkpt>
      <trkpt lat="42.85037" lon="0.21191">
        <ele>2215.5</ele>
        <time>2012-02-12T12:56:02Z</time>
      </trkpt>
      <trkpt lat="42.85036" lon="0.21192">
        <ele>2215.98</ele>
        <time>2012-02-12T12:56:04Z</time>
      </trkpt>
      <trkpt lat="42.85033" lon="0.21195">
        <ele>2215.98</ele>
        <time>2012-02-12T12:56:07Z</time>
      </trkpt>
      <trkpt lat="42.85031" lon="0.21197">
        <ele>2215.5</ele>
        <time>2012-02-12T12:56:10Z</time>
      </trkpt>
      <trkpt lat="42.85026" lon="0.21201">
        <ele>2216.46</ele>
        <time>2012-02-12T12:56:25Z</time>
      </trkpt>
      <trkpt lat="42.85026" lon="0.21202">
        <ele>2216.46</ele>
        <time>2012-02-12T12:56:35Z</time>
      </trkpt>
      <trkpt lat="42.8502" lon="0.21207">
        <ele>2216.94</ele>
        <time>2012-02-12T12:56:43Z</time>
      </trkpt>
      <trkpt lat="42.85019" lon="0.21208">
        <ele>2217.42</ele>
        <time>2012-02-12T12:56:45Z</time>
      </trkpt>
      <trkpt lat="42.85016" lon="0.2121">
        <ele>2216.94</ele>
        <time>2012-02-12T12:56:50Z</time>
      </trkpt>
      <trkpt lat="42.85014" lon="0.21212">
        <ele>2216.94</ele>
        <time>2012-02-12T12:56:52Z</time>
      </trkpt>
      <trkpt lat="42.85006" lon="0.21216">
        <ele>2216.46</ele>
        <time>2012-02-12T12:56:59Z</time>
      </trkpt>
      <trkpt lat="42.85004" lon="0.21218">
        <ele>2216.94</ele>
        <time>2012-02-12T12:57:01Z</time>
      </trkpt>
      <trkpt lat="42.84995" lon="0.21221">
        <ele>2217.42</ele>
        <time>2012-02-12T12:57:12Z</time>
      </trkpt>
      <trkpt lat="42.8499" lon="0.21222">
        <ele>2216.94</ele>
        <time>2012-02-12T12:57:28Z</time>
      </trkpt>
      <trkpt lat="42.84988" lon="0.21223">
        <ele>2216.94</ele>
        <time>2012-02-12T12:57:43Z</time>
      </trkpt>
      <trkpt lat="42.84981" lon="0.21224">
        <ele>2217.42</ele>
        <time>2012-02-12T12:57:53Z</time>
      </trkpt>
      <trkpt lat="42.84976" lon="0.21225">
        <ele>2217.42</ele>
        <time>2012-02-12T12:58:03Z</time>
      </trkpt>
      <trkpt lat="42.84973" lon="0.21224">
        <ele>2217.42</ele>
        <time>2012-02-12T12:58:12Z</time>
      </trkpt>
      <trkpt lat="42.84961" lon="0.21223">
        <ele>2215.98</ele>
        <time>2012-02-12T12:58:17Z</time>
      </trkpt>
      <trkpt lat="42.84947" lon="0.2122">
        <ele>2211.65</ele>
        <time>2012-02-12T12:58:19Z</time>
      </trkpt>
      <trkpt lat="42.84932" lon="0.21217">
        <ele>2207.81</ele>
        <time>2012-02-12T12:58:21Z</time>
      </trkpt>
      <trkpt lat="42.84926" lon="0.21216">
        <ele>2207.81</ele>
        <time>2012-02-12T12:58:22Z</time>
      </trkpt>
      <trkpt lat="42.84903" lon="0.21215">
        <ele>2203</ele>
        <time>2012-02-12T12:58:27Z</time>
      </trkpt>
      <trkpt lat="42.84874" lon="0.21233">
        <ele>2200.59</ele>
        <time>2012-02-12T12:58:35Z</time>
      </trkpt>
      <trkpt lat="42.84866" lon="0.21239">
        <ele>2200.11</ele>
        <time>2012-02-12T12:58:38Z</time>
      </trkpt>
      <trkpt lat="42.84859" lon="0.21245">
        <ele>2199.63</ele>
        <time>2012-02-12T12:58:43Z</time>
      </trkpt>
      <trkpt lat="42.84855" lon="0.2125">
        <ele>2199.63</ele>
        <time>2012-02-12T12:58:47Z</time>
      </trkpt>
      <trkpt lat="42.84844" lon="0.21262">
        <ele>2199.63</ele>
        <time>2012-02-12T12:58:58Z</time>
      </trkpt>
      <trkpt lat="42.84834" lon="0.21271">
        <ele>2200.11</ele>
        <time>2012-02-12T12:59:07Z</time>
      </trkpt>
      <trkpt lat="42.84832" lon="0.21274">
        <ele>2199.63</ele>
        <time>2012-02-12T12:59:10Z</time>
      </trkpt>
      <trkpt lat="42.84824" lon="0.21282">
        <ele>2200.11</ele>
        <time>2012-02-12T12:59:20Z</time>
      </trkpt>
      <trkpt lat="42.84813" lon="0.21294">
        <ele>2198.67</ele>
        <time>2012-02-12T12:59:31Z</time>
      </trkpt>
      <trkpt lat="42.8481" lon="0.21297">
        <ele>2199.15</ele>
        <time>2012-02-12T12:59:34Z</time>
      </trkpt>
      <trkpt lat="42.84805" lon="0.21302">
        <ele>2198.67</ele>
        <time>2012-02-12T12:59:38Z</time>
      </trkpt>
      <trkpt lat="42.84799" lon="0.21307">
        <ele>2198.67</ele>
        <time>2012-02-12T12:59:53Z</time>
      </trkpt>
      <trkpt lat="42.84799" lon="0.21307">
        <ele>2199.15</ele>
        <time>2012-02-12T13:00:17Z</time>
      </trkpt>
      <trkpt lat="42.84795" lon="0.21311">
        <ele>2199.15</ele>
        <time>2012-02-12T13:00:36Z</time>
      </trkpt>
      <trkpt lat="42.84785" lon="0.21319">
        <ele>2198.67</ele>
        <time>2012-02-12T13:00:48Z</time>
      </trkpt>
      <trkpt lat="42.84783" lon="0.2132">
        <ele>2198.67</ele>
        <time>2012-02-12T13:00:55Z</time>
      </trkpt>
      <trkpt lat="42.84783" lon="0.2132">
        <ele>2197.71</ele>
        <time>2012-02-12T13:01:12Z</time>
      </trkpt>
      <trkpt lat="42.84783" lon="0.2132">
        <ele>2197.23</ele>
        <time>2012-02-12T13:01:23Z</time>
      </trkpt>
      <trkpt lat="42.84783" lon="0.21319">
        <ele>2196.75</ele>
        <time>2012-02-12T13:01:40Z</time>
      </trkpt>
      <trkpt lat="42.84783" lon="0.21319">
        <ele>2197.71</ele>
        <time>2012-02-12T13:01:57Z</time>
      </trkpt>
      <trkpt lat="42.8478" lon="0.21319">
        <ele>2197.71</ele>
        <time>2012-02-12T13:02:03Z</time>
      </trkpt>
      <trkpt lat="42.84775" lon="0.21318">
        <ele>2198.67</ele>
        <time>2012-02-12T13:02:11Z</time>
      </trkpt>
      <trkpt lat="42.84772" lon="0.21315">
        <ele>2198.67</ele>
        <time>2012-02-12T13:02:18Z</time>
      </trkpt>
      <trkpt lat="42.84772" lon="0.21315">
        <ele>2198.67</ele>
        <time>2012-02-12T13:02:20Z</time>
      </trkpt>
      <trkpt lat="42.84768" lon="0.2131">
        <ele>2199.15</ele>
        <time>2012-02-12T13:02:32Z</time>
      </trkpt>
      <trkpt lat="42.84767" lon="0.21308">
        <ele>2199.15</ele>
        <time>2012-02-12T13:02:36Z</time>
      </trkpt>
      <trkpt lat="42.84765" lon="0.21305">
        <ele>2199.63</ele>
        <time>2012-02-12T13:02:44Z</time>
      </trkpt>
      <trkpt lat="42.84765" lon="0.21304">
        <ele>2200.11</ele>
        <time>2012-02-12T13:02:46Z</time>
      </trkpt>
      <trkpt lat="42.84762" lon="0.21302">
        <ele>2199.63</ele>
        <time>2012-02-12T13:02:52Z</time>
      </trkpt>
      <trkpt lat="42.84758" lon="0.21301">
        <ele>2200.11</ele>
        <time>2012-02-12T13:02:58Z</time>
      </trkpt>
      <trkpt lat="42.84756" lon="0.213">
        <ele>2200.59</ele>
        <time>2012-02-12T13:03:04Z</time>
      </trkpt>
      <trkpt lat="42.84753" lon="0.21298">
        <ele>2201.08</ele>
        <time>2012-02-12T13:03:11Z</time>
      </trkpt>
      <trkpt lat="42.84753" lon="0.21298">
        <ele>2201.08</ele>
        <time>2012-02-12T13:03:20Z</time>
      </trkpt>
      <trkpt lat="42.84749" lon="0.21296">
        <ele>2202.04</ele>
        <time>2012-02-12T13:03:27Z</time>
      </trkpt>
      <trkpt lat="42.84745" lon="0.21293">
        <ele>2202.04</ele>
        <time>2012-02-12T13:03:34Z</time>
      </trkpt>
      <trkpt lat="42.84744" lon="0.21293">
        <ele>2202.52</ele>
        <time>2012-02-12T13:03:38Z</time>
      </trkpt>
      <trkpt lat="42.8474" lon="0.21289">
        <ele>2203</ele>
        <time>2012-02-12T13:03:47Z</time>
      </trkpt>
      <trkpt lat="42.8474" lon="0.21288">
        <ele>2203</ele>
        <time>2012-02-12T13:03:48Z</time>
      </trkpt>
      <trkpt lat="42.84735" lon="0.21286">
        <ele>2202.52</ele>
        <time>2012-02-12T13:03:56Z</time>
      </trkpt>
      <trkpt lat="42.84731" lon="0.21285">
        <ele>2202.52</ele>
        <time>2012-02-12T13:04:04Z</time>
      </trkpt>
      <trkpt lat="42.84727" lon="0.21282">
        <ele>2203</ele>
        <time>2012-02-12T13:04:10Z</time>
      </trkpt>
      <trkpt lat="42.84726" lon="0.21282">
        <ele>2202.52</ele>
        <time>2012-02-12T13:04:13Z</time>
      </trkpt>
      <trkpt lat="42.84725" lon="0.21282">
        <ele>2202.52</ele>
        <time>2012-02-12T13:04:24Z</time>
      </trkpt>
      <trkpt lat="42.84725" lon="0.21282">
        <ele>2203.96</ele>
        <time>2012-02-12T13:04:35Z</time>
      </trkpt>
      <trkpt lat="42.8472" lon="0.2128">
        <ele>2203.96</ele>
        <time>2012-02-12T13:04:43Z</time>
      </trkpt>
      <trkpt lat="42.8472" lon="0.2128">
        <ele>2203.96</ele>
        <time>2012-02-12T13:04:44Z</time>
      </trkpt>
      <trkpt lat="42.84717" lon="0.21276">
        <ele>2203.96</ele>
        <time>2012-02-12T13:04:54Z</time>
      </trkpt>
      <trkpt lat="42.84712" lon="0.21272">
        <ele>2204.44</ele>
        <time>2012-02-12T13:05:01Z</time>
      </trkpt>
      <trkpt lat="42.84707" lon="0.2127">
        <ele>2204.44</ele>
        <time>2012-02-12T13:05:10Z</time>
      </trkpt>
      <trkpt lat="42.84704" lon="0.2127">
        <ele>2203.96</ele>
        <time>2012-02-12T13:05:26Z</time>
      </trkpt>
      <trkpt lat="42.84681" lon="0.21261">
        <ele>2200.11</ele>
        <time>2012-02-12T13:05:35Z</time>
      </trkpt>
      <trkpt lat="42.84674" lon="0.21258">
        <ele>2200.59</ele>
        <time>2012-02-12T13:05:43Z</time>
      </trkpt>
      <trkpt lat="42.84674" lon="0.21258">
        <ele>2200.59</ele>
        <time>2012-02-12T13:06:00Z</time>
      </trkpt>
      <trkpt lat="42.84673" lon="0.21258">
        <ele>2201.08</ele>
        <time>2012-02-12T13:06:20Z</time>
      </trkpt>
      <trkpt lat="42.84673" lon="0.21258">
        <ele>2201.08</ele>
        <time>2012-02-12T13:06:46Z</time>
      </trkpt>
      <trkpt lat="42.84674" lon="0.21258">
        <ele>2201.56</ele>
        <time>2012-02-12T13:07:03Z</time>
      </trkpt>
      <trkpt lat="42.84673" lon="0.21257">
        <ele>2201.08</ele>
        <time>2012-02-12T13:07:23Z</time>
      </trkpt>
      <trkpt lat="42.84669" lon="0.21255">
        <ele>2201.08</ele>
        <time>2012-02-12T13:07:28Z</time>
      </trkpt>
      <trkpt lat="42.84662" lon="0.21255">
        <ele>2201.56</ele>
        <time>2012-02-12T13:07:39Z</time>
      </trkpt>
      <trkpt lat="42.8466" lon="0.21256">
        <ele>2202.04</ele>
        <time>2012-02-12T13:07:41Z</time>
      </trkpt>
      <trkpt lat="42.84649" lon="0.21264">
        <ele>2199.15</ele>
        <time>2012-02-12T13:07:56Z</time>
      </trkpt>
      <trkpt lat="42.84644" lon="0.21267">
        <ele>2197.71</ele>
        <time>2012-02-12T13:07:59Z</time>
      </trkpt>
      <trkpt lat="42.84638" lon="0.21267">
        <ele>2197.71</ele>
        <time>2012-02-12T13:08:07Z</time>
      </trkpt>
      <trkpt lat="42.84633" lon="0.21266">
        <ele>2197.71</ele>
        <time>2012-02-12T13:08:15Z</time>
      </trkpt>
      <trkpt lat="42.84628" lon="0.21268">
        <ele>2198.19</ele>
        <time>2012-02-12T13:08:22Z</time>
      </trkpt>
      <trkpt lat="42.84628" lon="0.21268">
        <ele>2197.71</ele>
        <time>2012-02-12T13:08:28Z</time>
      </trkpt>
      <trkpt lat="42.84626" lon="0.21269">
        <ele>2197.71</ele>
        <time>2012-02-12T13:08:37Z</time>
      </trkpt>
      <trkpt lat="42.84625" lon="0.21269">
        <ele>2198.19</ele>
        <time>2012-02-12T13:08:39Z</time>
      </trkpt>
      <trkpt lat="42.84625" lon="0.21268">
        <ele>2198.19</ele>
        <time>2012-02-12T13:08:49Z</time>
      </trkpt>
      <trkpt lat="42.84625" lon="0.21268">
        <ele>2198.19</ele>
        <time>2012-02-12T13:08:50Z</time>
      </trkpt>
      <trkpt lat="42.84623" lon="0.21269">
        <ele>2199.15</ele>
        <time>2012-02-12T13:08:57Z</time>
      </trkpt>
      <trkpt lat="42.8462" lon="0.21267">
        <ele>2199.15</ele>
        <time>2012-02-12T13:09:03Z</time>
      </trkpt>
      <trkpt lat="42.84619" lon="0.21265">
        <ele>2199.63</ele>
        <time>2012-02-12T13:09:10Z</time>
      </trkpt>
      <trkpt lat="42.84618" lon="0.21266">
        <ele>2200.11</ele>
        <time>2012-02-12T13:09:20Z</time>
      </trkpt>
      <trkpt lat="42.84616" lon="0.21266">
        <ele>2201.56</ele>
        <time>2012-02-12T13:09:30Z</time>
      </trkpt>
      <trkpt lat="42.84615" lon="0.21264">
        <ele>2202.04</ele>
        <time>2012-02-12T13:09:37Z</time>
      </trkpt>
      <trkpt lat="42.8461" lon="0.21262">
        <ele>2201.56</ele>
        <time>2012-02-12T13:09:44Z</time>
      </trkpt>
      <trkpt lat="42.84605" lon="0.21259">
        <ele>2202.04</ele>
        <time>2012-02-12T13:09:51Z</time>
      </trkpt>
      <trkpt lat="42.84604" lon="0.21261">
        <ele>2202.04</ele>
        <time>2012-02-12T13:10:05Z</time>
      </trkpt>
      <trkpt lat="42.84602" lon="0.21262">
        <ele>2202.52</ele>
        <time>2012-02-12T13:10:07Z</time>
      </trkpt>
      <trkpt lat="42.84598" lon="0.21265">
        <ele>2202.52</ele>
        <time>2012-02-12T13:10:15Z</time>
      </trkpt>
      <trkpt lat="42.84596" lon="0.21265">
        <ele>2202.52</ele>
        <time>2012-02-12T13:10:30Z</time>
      </trkpt>
      <trkpt lat="42.84592" lon="0.21267">
        <ele>2203</ele>
        <time>2012-02-12T13:10:39Z</time>
      </trkpt>
      <trkpt lat="42.84584" lon="0.21269">
        <ele>2202.04</ele>
        <time>2012-02-12T13:10:49Z</time>
      </trkpt>
      <trkpt lat="42.84579" lon="0.21271">
        <ele>2202.04</ele>
        <time>2012-02-12T13:10:58Z</time>
      </trkpt>
      <trkpt lat="42.84576" lon="0.21271">
        <ele>2202.04</ele>
        <time>2012-02-12T13:11:04Z</time>
      </trkpt>
      <trkpt lat="42.84574" lon="0.21272">
        <ele>2202.04</ele>
        <time>2012-02-12T13:11:08Z</time>
      </trkpt>
      <trkpt lat="42.84571" lon="0.21273">
        <ele>2201.56</ele>
        <time>2012-02-12T13:11:11Z</time>
      </trkpt>
      <trkpt lat="42.84554" lon="0.21265">
        <ele>2198.67</ele>
        <time>2012-02-12T13:11:21Z</time>
      </trkpt>
      <trkpt lat="42.84551" lon="0.21262">
        <ele>2198.19</ele>
        <time>2012-02-12T13:11:26Z</time>
      </trkpt>
      <trkpt lat="42.84547" lon="0.21255">
        <ele>2197.71</ele>
        <time>2012-02-12T13:11:34Z</time>
      </trkpt>
      <trkpt lat="42.84543" lon="0.2124">
        <ele>2196.75</ele>
        <time>2012-02-12T13:11:45Z</time>
      </trkpt>
      <trkpt lat="42.84539" lon="0.21233">
        <ele>2196.27</ele>
        <time>2012-02-12T13:11:50Z</time>
      </trkpt>
      <trkpt lat="42.84531" lon="0.21224">
        <ele>2194.35</ele>
        <time>2012-02-12T13:11:55Z</time>
      </trkpt>
      <trkpt lat="42.84526" lon="0.21215">
        <ele>2192.9</ele>
        <time>2012-02-12T13:11:57Z</time>
      </trkpt>
      <trkpt lat="42.84517" lon="0.21193">
        <ele>2189.06</ele>
        <time>2012-02-12T13:12:00Z</time>
      </trkpt>
      <trkpt lat="42.84511" lon="0.21179">
        <ele>2188.58</ele>
        <time>2012-02-12T13:12:02Z</time>
      </trkpt>
      <trkpt lat="42.84499" lon="0.21166">
        <ele>2187.14</ele>
        <time>2012-02-12T13:12:10Z</time>
      </trkpt>
      <trkpt lat="42.84499" lon="0.21162">
        <ele>2187.14</ele>
        <time>2012-02-12T13:12:13Z</time>
      </trkpt>
      <trkpt lat="42.8449" lon="0.21145">
        <ele>2186.18</ele>
        <time>2012-02-12T13:12:23Z</time>
      </trkpt>
      <trkpt lat="42.84489" lon="0.21141">
        <ele>2185.69</ele>
        <time>2012-02-12T13:12:27Z</time>
      </trkpt>
      <trkpt lat="42.84484" lon="0.21134">
        <ele>2186.66</ele>
        <time>2012-02-12T13:12:37Z</time>
      </trkpt>
      <trkpt lat="42.84482" lon="0.21128">
        <ele>2187.62</ele>
        <time>2012-02-12T13:12:48Z</time>
      </trkpt>
      <trkpt lat="42.84481" lon="0.21127">
        <ele>2187.62</ele>
        <time>2012-02-12T13:13:09Z</time>
      </trkpt>
      <trkpt lat="42.84479" lon="0.21123">
        <ele>2187.14</ele>
        <time>2012-02-12T13:13:15Z</time>
      </trkpt>
      <trkpt lat="42.84477" lon="0.21118">
        <ele>2187.14</ele>
        <time>2012-02-12T13:13:20Z</time>
      </trkpt>
      <trkpt lat="42.84476" lon="0.21116">
        <ele>2187.14</ele>
        <time>2012-02-12T13:13:22Z</time>
      </trkpt>
      <trkpt lat="42.84473" lon="0.21109">
        <ele>2187.14</ele>
        <time>2012-02-12T13:13:27Z</time>
      </trkpt>
      <trkpt lat="42.84471" lon="0.211">
        <ele>2187.14</ele>
        <time>2012-02-12T13:13:34Z</time>
      </trkpt>
      <trkpt lat="42.84471" lon="0.21091">
        <ele>2187.62</ele>
        <time>2012-02-12T13:13:42Z</time>
      </trkpt>
      <trkpt lat="42.84466" lon="0.21083">
        <ele>2187.62</ele>
        <time>2012-02-12T13:13:56Z</time>
      </trkpt>
      <trkpt lat="42.84466" lon="0.21082">
        <ele>2188.1</ele>
        <time>2012-02-12T13:14:09Z</time>
      </trkpt>
      <trkpt lat="42.84466" lon="0.2108">
        <ele>2187.62</ele>
        <time>2012-02-12T13:14:26Z</time>
      </trkpt>
      <trkpt lat="42.84466" lon="0.2108">
        <ele>2187.62</ele>
        <time>2012-02-12T13:14:50Z</time>
      </trkpt>
      <trkpt lat="42.84465" lon="0.21079">
        <ele>2188.1</ele>
        <time>2012-02-12T13:15:20Z</time>
      </trkpt>
      <trkpt lat="42.84466" lon="0.21079">
        <ele>2186.66</ele>
        <time>2012-02-12T13:15:51Z</time>
      </trkpt>
      <trkpt lat="42.84466" lon="0.21079">
        <ele>2187.14</ele>
        <time>2012-02-12T13:16:11Z</time>
      </trkpt>
      <trkpt lat="42.84466" lon="0.21079">
        <ele>2187.62</ele>
        <time>2012-02-12T13:16:31Z</time>
      </trkpt>
      <trkpt lat="42.84466" lon="0.21079">
        <ele>2188.1</ele>
        <time>2012-02-12T13:17:03Z</time>
      </trkpt>
      <trkpt lat="42.84466" lon="0.2108">
        <ele>2188.58</ele>
        <time>2012-02-12T13:17:25Z</time>
      </trkpt>
      <trkpt lat="42.84465" lon="0.21077">
        <ele>2187.62</ele>
        <time>2012-02-12T13:17:48Z</time>
      </trkpt>
      <trkpt lat="42.84463" lon="0.21074">
        <ele>2187.14</ele>
        <time>2012-02-12T13:17:54Z</time>
      </trkpt>
      <trkpt lat="42.84462" lon="0.21047">
        <ele>2183.29</ele>
        <time>2012-02-12T13:18:01Z</time>
      </trkpt>
      <trkpt lat="42.84461" lon="0.21041">
        <ele>2181.37</ele>
        <time>2012-02-12T13:18:03Z</time>
      </trkpt>
      <trkpt lat="42.8446" lon="0.21041">
        <ele>2181.37</ele>
        <time>2012-02-12T13:18:15Z</time>
      </trkpt>
      <trkpt lat="42.84458" lon="0.21041">
        <ele>2180.41</ele>
        <time>2012-02-12T13:18:30Z</time>
      </trkpt>
      <trkpt lat="42.84453" lon="0.21032">
        <ele>2178.48</ele>
        <time>2012-02-12T13:18:35Z</time>
      </trkpt>
      <trkpt lat="42.84453" lon="0.21031">
        <ele>2178.48</ele>
        <time>2012-02-12T13:18:44Z</time>
      </trkpt>
      <trkpt lat="42.84453" lon="0.21031">
        <ele>2178.48</ele>
        <time>2012-02-12T13:19:06Z</time>
      </trkpt>
      <trkpt lat="42.84453" lon="0.21032">
        <ele>2178.48</ele>
        <time>2012-02-12T13:19:35Z</time>
      </trkpt>
      <trkpt lat="42.84451" lon="0.21028">
        <ele>2177.04</ele>
        <time>2012-02-12T13:19:49Z</time>
      </trkpt>
      <trkpt lat="42.84443" lon="0.21025">
        <ele>2174.64</ele>
        <time>2012-02-12T13:19:51Z</time>
      </trkpt>
      <trkpt lat="42.84434" lon="0.21026">
        <ele>2173.68</ele>
        <time>2012-02-12T13:19:53Z</time>
      </trkpt>
      <trkpt lat="42.84433" lon="0.21028">
        <ele>2172.72</ele>
        <time>2012-02-12T13:20:02Z</time>
      </trkpt>
      <trkpt lat="42.84433" lon="0.21027">
        <ele>2173.2</ele>
        <time>2012-02-12T13:20:12Z</time>
      </trkpt>
      <trkpt lat="42.84425" lon="0.21022">
        <ele>2169.83</ele>
        <time>2012-02-12T13:20:16Z</time>
      </trkpt>
      <trkpt lat="42.84424" lon="0.21022">
        <ele>2170.31</ele>
        <time>2012-02-12T13:20:17Z</time>
      </trkpt>
      <trkpt lat="42.84423" lon="0.21022">
        <ele>2170.79</ele>
        <time>2012-02-12T13:20:34Z</time>
      </trkpt>
      <trkpt lat="42.84412" lon="0.21015">
        <ele>2166.95</ele>
        <time>2012-02-12T13:20:38Z</time>
      </trkpt>
      <trkpt lat="42.84407" lon="0.21013">
        <ele>2164.06</ele>
        <time>2012-02-12T13:20:39Z</time>
      </trkpt>
      <trkpt lat="42.84391" lon="0.21008">
        <ele>2158.78</ele>
        <time>2012-02-12T13:20:41Z</time>
      </trkpt>
      <trkpt lat="42.84375" lon="0.20999">
        <ele>2154.93</ele>
        <time>2012-02-12T13:20:43Z</time>
      </trkpt>
      <trkpt lat="42.84358" lon="0.20972">
        <ele>2151.09</ele>
        <time>2012-02-12T13:20:47Z</time>
      </trkpt>
      <trkpt lat="42.84351" lon="0.20957">
        <ele>2148.2</ele>
        <time>2012-02-12T13:20:49Z</time>
      </trkpt>
      <trkpt lat="42.84337" lon="0.20948">
        <ele>2145.32</ele>
        <time>2012-02-12T13:20:52Z</time>
      </trkpt>
      <trkpt lat="42.84336" lon="0.20949">
        <ele>2145.32</ele>
        <time>2012-02-12T13:20:58Z</time>
      </trkpt>
      <trkpt lat="42.84336" lon="0.20949">
        <ele>2146.28</ele>
        <time>2012-02-12T13:21:16Z</time>
      </trkpt>
      <trkpt lat="42.84337" lon="0.20949">
        <ele>2145.32</ele>
        <time>2012-02-12T13:21:41Z</time>
      </trkpt>
      <trkpt lat="42.84337" lon="0.20949">
        <ele>2145.32</ele>
        <time>2012-02-12T13:22:02Z</time>
      </trkpt>
      <trkpt lat="42.84336" lon="0.20949">
        <ele>2145.32</ele>
        <time>2012-02-12T13:22:05Z</time>
      </trkpt>
      <trkpt lat="42.84333" lon="0.20948">
        <ele>2144.36</ele>
        <time>2012-02-12T13:22:07Z</time>
      </trkpt>
      <trkpt lat="42.84324" lon="0.20945">
        <ele>2143.4</ele>
        <time>2012-02-12T13:22:10Z</time>
      </trkpt>
      <trkpt lat="42.843" lon="0.20936">
        <ele>2137.63</ele>
        <time>2012-02-12T13:22:15Z</time>
      </trkpt>
      <trkpt lat="42.84293" lon="0.20933">
        <ele>2135.71</ele>
        <time>2012-02-12T13:22:16Z</time>
      </trkpt>
      <trkpt lat="42.84274" lon="0.20921">
        <ele>2131.38</ele>
        <time>2012-02-12T13:22:19Z</time>
      </trkpt>
      <trkpt lat="42.84256" lon="0.20903">
        <ele>2126.57</ele>
        <time>2012-02-12T13:22:22Z</time>
      </trkpt>
      <trkpt lat="42.84243" lon="0.20888">
        <ele>2123.21</ele>
        <time>2012-02-12T13:22:24Z</time>
      </trkpt>
      <trkpt lat="42.84229" lon="0.20871">
        <ele>2119.84</ele>
        <time>2012-02-12T13:22:26Z</time>
      </trkpt>
      <trkpt lat="42.84213" lon="0.20843">
        <ele>2115.04</ele>
        <time>2012-02-12T13:22:29Z</time>
      </trkpt>
      <trkpt lat="42.84198" lon="0.20814">
        <ele>2109.75</ele>
        <time>2012-02-12T13:22:32Z</time>
      </trkpt>
      <trkpt lat="42.84183" lon="0.20793">
        <ele>2105.91</ele>
        <time>2012-02-12T13:22:35Z</time>
      </trkpt>
      <trkpt lat="42.84176" lon="0.20782">
        <ele>2105.42</ele>
        <time>2012-02-12T13:22:41Z</time>
      </trkpt>
      <trkpt lat="42.84175" lon="0.20782">
        <ele>2105.91</ele>
        <time>2012-02-12T13:22:56Z</time>
      </trkpt>
      <trkpt lat="42.84175" lon="0.20782">
        <ele>2105.91</ele>
        <time>2012-02-12T13:23:09Z</time>
      </trkpt>
      <trkpt lat="42.84174" lon="0.20781">
        <ele>2106.87</ele>
        <time>2012-02-12T13:23:13Z</time>
      </trkpt>
      <trkpt lat="42.8417" lon="0.20779">
        <ele>2107.35</ele>
        <time>2012-02-12T13:23:21Z</time>
      </trkpt>
      <trkpt lat="42.84168" lon="0.20778">
        <ele>2107.83</ele>
        <time>2012-02-12T13:23:32Z</time>
      </trkpt>
      <trkpt lat="42.84166" lon="0.20777">
        <ele>2108.31</ele>
        <time>2012-02-12T13:23:41Z</time>
      </trkpt>
      <trkpt lat="42.84163" lon="0.20777">
        <ele>2108.79</ele>
        <time>2012-02-12T13:23:49Z</time>
      </trkpt>
      <trkpt lat="42.84163" lon="0.20778">
        <ele>2109.75</ele>
        <time>2012-02-12T13:24:02Z</time>
      </trkpt>
      <trkpt lat="42.8416" lon="0.20778">
        <ele>2109.75</ele>
        <time>2012-02-12T13:24:11Z</time>
      </trkpt>
      <trkpt lat="42.84159" lon="0.20778">
        <ele>2109.75</ele>
        <time>2012-02-12T13:24:22Z</time>
      </trkpt>
      <trkpt lat="42.84159" lon="0.20778">
        <ele>2109.75</ele>
        <time>2012-02-12T13:24:44Z</time>
      </trkpt>
      <trkpt lat="42.84159" lon="0.20778">
        <ele>2109.75</ele>
        <time>2012-02-12T13:25:12Z</time>
      </trkpt>
      <trkpt lat="42.84159" lon="0.20778">
        <ele>2110.71</ele>
        <time>2012-02-12T13:25:28Z</time>
      </trkpt>
      <trkpt lat="42.84158" lon="0.20778">
        <ele>2109.27</ele>
        <time>2012-02-12T13:25:46Z</time>
      </trkpt>
      <trkpt lat="42.84158" lon="0.20778">
        <ele>2108.79</ele>
        <time>2012-02-12T13:26:13Z</time>
      </trkpt>
      <trkpt lat="42.84155" lon="0.20775">
        <ele>2109.27</ele>
        <time>2012-02-12T13:26:23Z</time>
      </trkpt>
      <trkpt lat="42.84149" lon="0.20771">
        <ele>2106.87</ele>
        <time>2012-02-12T13:26:36Z</time>
      </trkpt>
      <trkpt lat="42.84143" lon="0.20767">
        <ele>2106.87</ele>
        <time>2012-02-12T13:26:39Z</time>
      </trkpt>
      <trkpt lat="42.84128" lon="0.20749">
        <ele>2101.58</ele>
        <time>2012-02-12T13:26:43Z</time>
      </trkpt>
      <trkpt lat="42.84117" lon="0.20729">
        <ele>2097.73</ele>
        <time>2012-02-12T13:26:46Z</time>
      </trkpt>
      <trkpt lat="42.84108" lon="0.20706">
        <ele>2093.41</ele>
        <time>2012-02-12T13:26:50Z</time>
      </trkpt>
      <trkpt lat="42.84106" lon="0.20701">
        <ele>2092.45</ele>
        <time>2012-02-12T13:26:51Z</time>
      </trkpt>
      <trkpt lat="42.84098" lon="0.20673">
        <ele>2087.64</ele>
        <time>2012-02-12T13:26:55Z</time>
      </trkpt>
      <trkpt lat="42.84095" lon="0.20657">
        <ele>2084.28</ele>
        <time>2012-02-12T13:26:57Z</time>
      </trkpt>
      <trkpt lat="42.84094" lon="0.2065">
        <ele>2081.87</ele>
        <time>2012-02-12T13:26:58Z</time>
      </trkpt>
      <trkpt lat="42.84093" lon="0.20628">
        <ele>2078.99</ele>
        <time>2012-02-12T13:27:00Z</time>
      </trkpt>
      <trkpt lat="42.84092" lon="0.20618">
        <ele>2075.62</ele>
        <time>2012-02-12T13:27:01Z</time>
      </trkpt>
      <trkpt lat="42.8409" lon="0.20608">
        <ele>2074.66</ele>
        <time>2012-02-12T13:27:02Z</time>
      </trkpt>
      <trkpt lat="42.8409" lon="0.20587">
        <ele>2071.3</ele>
        <time>2012-02-12T13:27:04Z</time>
      </trkpt>
      <trkpt lat="42.8409" lon="0.20578">
        <ele>2068.89</ele>
        <time>2012-02-12T13:27:05Z</time>
      </trkpt>
      <trkpt lat="42.84088" lon="0.2057">
        <ele>2066.97</ele>
        <time>2012-02-12T13:27:06Z</time>
      </trkpt>
      <trkpt lat="42.84082" lon="0.20557">
        <ele>2063.13</ele>
        <time>2012-02-12T13:27:07Z</time>
      </trkpt>
      <trkpt lat="42.84077" lon="0.20549">
        <ele>2060.24</ele>
        <time>2012-02-12T13:27:10Z</time>
      </trkpt>
      <trkpt lat="42.84077" lon="0.20549">
        <ele>2059.76</ele>
        <time>2012-02-12T13:27:16Z</time>
      </trkpt>
      <trkpt lat="42.84077" lon="0.20549">
        <ele>2059.76</ele>
        <time>2012-02-12T13:27:36Z</time>
      </trkpt>
      <trkpt lat="42.84071" lon="0.2055">
        <ele>2058.8</ele>
        <time>2012-02-12T13:27:56Z</time>
      </trkpt>
      <trkpt lat="42.84069" lon="0.2055">
        <ele>2059.76</ele>
        <time>2012-02-12T13:27:58Z</time>
      </trkpt>
      <trkpt lat="42.84061" lon="0.20536">
        <ele>2055.92</ele>
        <time>2012-02-12T13:28:06Z</time>
      </trkpt>
      <trkpt lat="42.8406" lon="0.20536">
        <ele>2056.4</ele>
        <time>2012-02-12T13:28:29Z</time>
      </trkpt>
      <trkpt lat="42.84058" lon="0.20535">
        <ele>2057.36</ele>
        <time>2012-02-12T13:28:50Z</time>
      </trkpt>
      <trkpt lat="42.84057" lon="0.20536">
        <ele>2057.84</ele>
        <time>2012-02-12T13:29:18Z</time>
      </trkpt>
      <trkpt lat="42.84057" lon="0.20534">
        <ele>2058.8</ele>
        <time>2012-02-12T13:29:40Z</time>
      </trkpt>
      <trkpt lat="42.84055" lon="0.20531">
        <ele>2058.32</ele>
        <time>2012-02-12T13:29:42Z</time>
      </trkpt>
      <trkpt lat="42.84053" lon="0.20525">
        <ele>2059.76</ele>
        <time>2012-02-12T13:29:54Z</time>
      </trkpt>
      <trkpt lat="42.84053" lon="0.20525">
        <ele>2059.28</ele>
        <time>2012-02-12T13:30:09Z</time>
      </trkpt>
      <trkpt lat="42.84053" lon="0.20525">
        <ele>2056.4</ele>
        <time>2012-02-12T13:30:31Z</time>
      </trkpt>
      <trkpt lat="42.84053" lon="0.20525">
        <ele>2055.44</ele>
        <time>2012-02-12T13:30:47Z</time>
      </trkpt>
      <trkpt lat="42.84053" lon="0.20525">
        <ele>2054.47</ele>
        <time>2012-02-12T13:31:15Z</time>
      </trkpt>
      <trkpt lat="42.84048" lon="0.20513">
        <ele>2052.55</ele>
        <time>2012-02-12T13:31:31Z</time>
      </trkpt>
      <trkpt lat="42.84042" lon="0.20504">
        <ele>2051.11</ele>
        <time>2012-02-12T13:31:42Z</time>
      </trkpt>
      <trkpt lat="42.84038" lon="0.20499">
        <ele>2048.71</ele>
        <time>2012-02-12T13:31:48Z</time>
      </trkpt>
      <trkpt lat="42.84032" lon="0.20493">
        <ele>2046.78</ele>
        <time>2012-02-12T13:31:51Z</time>
      </trkpt>
      <trkpt lat="42.84029" lon="0.2049">
        <ele>2045.82</ele>
        <time>2012-02-12T13:32:01Z</time>
      </trkpt>
      <trkpt lat="42.84027" lon="0.20488">
        <ele>2045.82</ele>
        <time>2012-02-12T13:32:11Z</time>
      </trkpt>
      <trkpt lat="42.84027" lon="0.20488">
        <ele>2046.3</ele>
        <time>2012-02-12T13:32:43Z</time>
      </trkpt>
      <trkpt lat="42.84027" lon="0.20487">
        <ele>2046.3</ele>
        <time>2012-02-12T13:32:45Z</time>
      </trkpt>
      <trkpt lat="42.84015" lon="0.2048">
        <ele>2042.94</ele>
        <time>2012-02-12T13:32:49Z</time>
      </trkpt>
      <trkpt lat="42.84012" lon="0.20479">
        <ele>2042.94</ele>
        <time>2012-02-12T13:32:50Z</time>
      </trkpt>
      <trkpt lat="42.84005" lon="0.20464">
        <ele>2039.57</ele>
        <time>2012-02-12T13:32:53Z</time>
      </trkpt>
      <trkpt lat="42.84001" lon="0.20457">
        <ele>2036.21</ele>
        <time>2012-02-12T13:32:54Z</time>
      </trkpt>
      <trkpt lat="42.8399" lon="0.20446">
        <ele>2032.84</ele>
        <time>2012-02-12T13:32:56Z</time>
      </trkpt>
      <trkpt lat="42.83977" lon="0.20441">
        <ele>2027.56</ele>
        <time>2012-02-12T13:32:58Z</time>
      </trkpt>
      <trkpt lat="42.83973" lon="0.20438">
        <ele>2027.08</ele>
        <time>2012-02-12T13:32:59Z</time>
      </trkpt>
      <trkpt lat="42.83966" lon="0.20436">
        <ele>2024.67</ele>
        <time>2012-02-12T13:33:04Z</time>
      </trkpt>
      <trkpt lat="42.83966" lon="0.20436">
        <ele>2025.15</ele>
        <time>2012-02-12T13:33:18Z</time>
      </trkpt>
      <trkpt lat="42.83966" lon="0.20435">
        <ele>2024.67</ele>
        <time>2012-02-12T13:33:38Z</time>
      </trkpt>
      <trkpt lat="42.83966" lon="0.20436">
        <ele>2025.15</ele>
        <time>2012-02-12T13:34:06Z</time>
      </trkpt>
      <trkpt lat="42.83965" lon="0.20436">
        <ele>2024.67</ele>
        <time>2012-02-12T13:34:16Z</time>
      </trkpt>
      <trkpt lat="42.83952" lon="0.20434">
        <ele>2022.27</ele>
        <time>2012-02-12T13:34:21Z</time>
      </trkpt>
      <trkpt lat="42.8395" lon="0.20435">
        <ele>2021.79</ele>
        <time>2012-02-12T13:34:28Z</time>
      </trkpt>
      <trkpt lat="42.83931" lon="0.20433">
        <ele>2017.94</ele>
        <time>2012-02-12T13:34:37Z</time>
      </trkpt>
      <trkpt lat="42.83916" lon="0.20435">
        <ele>2016.02</ele>
        <time>2012-02-12T13:34:46Z</time>
      </trkpt>
      <trkpt lat="42.83916" lon="0.20435">
        <ele>2016.98</ele>
        <time>2012-02-12T13:35:05Z</time>
      </trkpt>
      <trkpt lat="42.83916" lon="0.20435">
        <ele>2016.98</ele>
        <time>2012-02-12T13:35:20Z</time>
      </trkpt>
      <trkpt lat="42.83916" lon="0.20435">
        <ele>2017.94</ele>
        <time>2012-02-12T13:35:41Z</time>
      </trkpt>
      <trkpt lat="42.83916" lon="0.20435">
        <ele>2017.46</ele>
        <time>2012-02-12T13:36:03Z</time>
      </trkpt>
      <trkpt lat="42.83916" lon="0.20435">
        <ele>2016.98</ele>
        <time>2012-02-12T13:36:24Z</time>
      </trkpt>
      <trkpt lat="42.83914" lon="0.20434">
        <ele>2016.5</ele>
        <time>2012-02-12T13:36:32Z</time>
      </trkpt>
      <trkpt lat="42.8391" lon="0.20434">
        <ele>2016.5</ele>
        <time>2012-02-12T13:36:34Z</time>
      </trkpt>
      <trkpt lat="42.83894" lon="0.20431">
        <ele>2012.66</ele>
        <time>2012-02-12T13:36:38Z</time>
      </trkpt>
      <trkpt lat="42.83892" lon="0.20433">
        <ele>2011.7</ele>
        <time>2012-02-12T13:36:40Z</time>
      </trkpt>
      <trkpt lat="42.83891" lon="0.20432">
        <ele>2011.22</ele>
        <time>2012-02-12T13:36:47Z</time>
      </trkpt>
      <trkpt lat="42.83881" lon="0.2043">
        <ele>2006.89</ele>
        <time>2012-02-12T13:36:51Z</time>
      </trkpt>
      <trkpt lat="42.83877" lon="0.2043">
        <ele>2007.85</ele>
        <time>2012-02-12T13:36:52Z</time>
      </trkpt>
      <trkpt lat="42.83874" lon="0.2043">
        <ele>2006.89</ele>
        <time>2012-02-12T13:36:53Z</time>
      </trkpt>
      <trkpt lat="42.83868" lon="0.20433">
        <ele>2006.41</ele>
        <time>2012-02-12T13:37:03Z</time>
      </trkpt>
      <trkpt lat="42.83861" lon="0.20436">
        <ele>2006.41</ele>
        <time>2012-02-12T13:37:15Z</time>
      </trkpt>
      <trkpt lat="42.83856" lon="0.20437">
        <ele>2005.93</ele>
        <time>2012-02-12T13:37:27Z</time>
      </trkpt>
      <trkpt lat="42.83856" lon="0.20437">
        <ele>2005.93</ele>
        <time>2012-02-12T13:37:38Z</time>
      </trkpt>
      <trkpt lat="42.83852" lon="0.20438">
        <ele>2005.93</ele>
        <time>2012-02-12T13:37:50Z</time>
      </trkpt>
      <trkpt lat="42.83849" lon="0.20437">
        <ele>2005.45</ele>
        <time>2012-02-12T13:38:02Z</time>
      </trkpt>
      <trkpt lat="42.8383" lon="0.2044">
        <ele>2002.56</ele>
        <time>2012-02-12T13:38:06Z</time>
      </trkpt>
      <trkpt lat="42.83804" lon="0.20444">
        <ele>1997.28</ele>
        <time>2012-02-12T13:38:11Z</time>
      </trkpt>
      <trkpt lat="42.83791" lon="0.20446">
        <ele>1995.35</ele>
        <time>2012-02-12T13:38:15Z</time>
      </trkpt>
      <trkpt lat="42.83784" lon="0.20448">
        <ele>1995.35</ele>
        <time>2012-02-12T13:38:21Z</time>
      </trkpt>
      <trkpt lat="42.83777" lon="0.2045">
        <ele>1995.35</ele>
        <time>2012-02-12T13:38:25Z</time>
      </trkpt>
      <trkpt lat="42.83759" lon="0.20456">
        <ele>1994.87</ele>
        <time>2012-02-12T13:38:36Z</time>
      </trkpt>
      <trkpt lat="42.83757" lon="0.20457">
        <ele>1995.35</ele>
        <time>2012-02-12T13:38:38Z</time>
      </trkpt>
      <trkpt lat="42.8375" lon="0.20461">
        <ele>1994.87</ele>
        <time>2012-02-12T13:38:50Z</time>
      </trkpt>
      <trkpt lat="42.83744" lon="0.20463">
        <ele>1994.87</ele>
        <time>2012-02-12T13:39:02Z</time>
      </trkpt>
      <trkpt lat="42.83743" lon="0.20463">
        <ele>1996.8</ele>
        <time>2012-02-12T13:39:16Z</time>
      </trkpt>
      <trkpt lat="42.83741" lon="0.20461">
        <ele>1995.83</ele>
        <time>2012-02-12T13:39:33Z</time>
      </trkpt>
      <trkpt lat="42.8374" lon="0.20462">
        <ele>1995.83</ele>
        <time>2012-02-12T13:39:43Z</time>
      </trkpt>
      <trkpt lat="42.8374" lon="0.20462">
        <ele>1996.8</ele>
        <time>2012-02-12T13:40:03Z</time>
      </trkpt>
      <trkpt lat="42.8374" lon="0.20462">
        <ele>1995.83</ele>
        <time>2012-02-12T13:40:24Z</time>
      </trkpt>
      <trkpt lat="42.83739" lon="0.20462">
        <ele>1996.32</ele>
        <time>2012-02-12T13:40:48Z</time>
      </trkpt>
      <trkpt lat="42.83739" lon="0.20462">
        <ele>1996.8</ele>
        <time>2012-02-12T13:41:14Z</time>
      </trkpt>
      <trkpt lat="42.83735" lon="0.20464">
        <ele>1995.83</ele>
        <time>2012-02-12T13:41:19Z</time>
      </trkpt>
      <trkpt lat="42.83725" lon="0.20467">
        <ele>1993.43</ele>
        <time>2012-02-12T13:41:22Z</time>
      </trkpt>
      <trkpt lat="42.83704" lon="0.20481">
        <ele>1988.62</ele>
        <time>2012-02-12T13:41:26Z</time>
      </trkpt>
      <trkpt lat="42.83693" lon="0.20487">
        <ele>1988.14</ele>
        <time>2012-02-12T13:41:28Z</time>
      </trkpt>
      <trkpt lat="42.83682" lon="0.20493">
        <ele>1984.78</ele>
        <time>2012-02-12T13:41:30Z</time>
      </trkpt>
      <trkpt lat="42.83667" lon="0.20482">
        <ele>1979.49</ele>
        <time>2012-02-12T13:41:33Z</time>
      </trkpt>
      <trkpt lat="42.83663" lon="0.20477">
        <ele>1976.13</ele>
        <time>2012-02-12T13:41:34Z</time>
      </trkpt>
      <trkpt lat="42.83653" lon="0.20476">
        <ele>1971.8</ele>
        <time>2012-02-12T13:41:36Z</time>
      </trkpt>
      <trkpt lat="42.83646" lon="0.20475">
        <ele>1970.84</ele>
        <time>2012-02-12T13:41:39Z</time>
      </trkpt>
      <trkpt lat="42.83645" lon="0.20455">
        <ele>1966.51</ele>
        <time>2012-02-12T13:41:43Z</time>
      </trkpt>
      <trkpt lat="42.8364" lon="0.20449">
        <ele>1962.67</ele>
        <time>2012-02-12T13:41:44Z</time>
      </trkpt>
      <trkpt lat="42.83626" lon="0.20445">
        <ele>1957.86</ele>
        <time>2012-02-12T13:41:46Z</time>
      </trkpt>
      <trkpt lat="42.83611" lon="0.20443">
        <ele>1955.46</ele>
        <time>2012-02-12T13:41:48Z</time>
      </trkpt>
      <trkpt lat="42.83598" lon="0.20447">
        <ele>1951.13</ele>
        <time>2012-02-12T13:41:51Z</time>
      </trkpt>
      <trkpt lat="42.83594" lon="0.20449">
        <ele>1950.65</ele>
        <time>2012-02-12T13:42:01Z</time>
      </trkpt>
      <trkpt lat="42.83594" lon="0.20449">
        <ele>1951.13</ele>
        <time>2012-02-12T13:42:20Z</time>
      </trkpt>
      <trkpt lat="42.83595" lon="0.20448">
        <ele>1951.61</ele>
        <time>2012-02-12T13:42:30Z</time>
      </trkpt>
      <trkpt lat="42.83599" lon="0.20443">
        <ele>1951.61</ele>
        <time>2012-02-12T13:42:43Z</time>
      </trkpt>
      <trkpt lat="42.83602" lon="0.20443">
        <ele>1951.61</ele>
        <time>2012-02-12T13:42:49Z</time>
      </trkpt>
      <trkpt lat="42.83608" lon="0.20439">
        <ele>1951.13</ele>
        <time>2012-02-12T13:42:59Z</time>
      </trkpt>
      <trkpt lat="42.83622" lon="0.20425">
        <ele>1947.77</ele>
        <time>2012-02-12T13:43:07Z</time>
      </trkpt>
      <trkpt lat="42.83623" lon="0.20425">
        <ele>1947.29</ele>
        <time>2012-02-12T13:43:15Z</time>
      </trkpt>
      <trkpt lat="42.83629" lon="0.20405">
        <ele>1943.92</ele>
        <time>2012-02-12T13:43:20Z</time>
      </trkpt>
      <trkpt lat="42.83633" lon="0.20404">
        <ele>1941.52</ele>
        <time>2012-02-12T13:43:22Z</time>
      </trkpt>
      <trkpt lat="42.83632" lon="0.20405">
        <ele>1941.04</ele>
        <time>2012-02-12T13:43:37Z</time>
      </trkpt>
      <trkpt lat="42.8363" lon="0.20404">
        <ele>1941.04</ele>
        <time>2012-02-12T13:43:54Z</time>
      </trkpt>
      <trkpt lat="42.8363" lon="0.20403">
        <ele>1941.04</ele>
        <time>2012-02-12T13:43:58Z</time>
      </trkpt>
      <trkpt lat="42.83631" lon="0.20401">
        <ele>1940.56</ele>
        <time>2012-02-12T13:44:12Z</time>
      </trkpt>
      <trkpt lat="42.8363" lon="0.20402">
        <ele>1940.56</ele>
        <time>2012-02-12T13:44:25Z</time>
      </trkpt>
      <trkpt lat="42.83629" lon="0.20402">
        <ele>1940.56</ele>
        <time>2012-02-12T13:44:37Z</time>
      </trkpt>
      <trkpt lat="42.83624" lon="0.20397">
        <ele>1936.71</ele>
        <time>2012-02-12T13:44:41Z</time>
      </trkpt>
      <trkpt lat="42.83621" lon="0.20398">
        <ele>1936.71</ele>
        <time>2012-02-12T13:44:42Z</time>
      </trkpt>
      <trkpt lat="42.83607" lon="0.20394">
        <ele>1932.39</ele>
        <time>2012-02-12T13:44:45Z</time>
      </trkpt>
      <trkpt lat="42.83596" lon="0.20397">
        <ele>1928.06</ele>
        <time>2012-02-12T13:44:47Z</time>
      </trkpt>
      <trkpt lat="42.83585" lon="0.20399">
        <ele>1925.66</ele>
        <time>2012-02-12T13:44:52Z</time>
      </trkpt>
      <trkpt lat="42.83584" lon="0.204">
        <ele>1924.7</ele>
        <time>2012-02-12T13:44:57Z</time>
      </trkpt>
      <trkpt lat="42.83583" lon="0.20394">
        <ele>1923.74</ele>
        <time>2012-02-12T13:44:59Z</time>
      </trkpt>
      <trkpt lat="42.83587" lon="0.20386">
        <ele>1920.85</ele>
        <time>2012-02-12T13:45:01Z</time>
      </trkpt>
      <trkpt lat="42.83587" lon="0.20385">
        <ele>1920.37</ele>
        <time>2012-02-12T13:45:09Z</time>
      </trkpt>
      <trkpt lat="42.83587" lon="0.20385">
        <ele>1920.85</ele>
        <time>2012-02-12T13:45:27Z</time>
      </trkpt>
      <trkpt lat="42.83587" lon="0.20385">
        <ele>1920.37</ele>
        <time>2012-02-12T13:45:51Z</time>
      </trkpt>
      <trkpt lat="42.83587" lon="0.20386">
        <ele>1920.37</ele>
        <time>2012-02-12T13:46:04Z</time>
      </trkpt>
      <trkpt lat="42.83592" lon="0.20375">
        <ele>1919.89</ele>
        <time>2012-02-12T13:46:08Z</time>
      </trkpt>
      <trkpt lat="42.83601" lon="0.20361">
        <ele>1915.56</ele>
        <time>2012-02-12T13:46:11Z</time>
      </trkpt>
      <trkpt lat="42.83611" lon="0.20343">
        <ele>1910.76</ele>
        <time>2012-02-12T13:46:14Z</time>
      </trkpt>
      <trkpt lat="42.83614" lon="0.20339">
        <ele>1908.83</ele>
        <time>2012-02-12T13:46:15Z</time>
      </trkpt>
      <trkpt lat="42.83618" lon="0.20335">
        <ele>1905.47</ele>
        <time>2012-02-12T13:46:18Z</time>
      </trkpt>
      <trkpt lat="42.83618" lon="0.20335">
        <ele>1905.47</ele>
        <time>2012-02-12T13:46:19Z</time>
      </trkpt>
      <trkpt lat="42.83613" lon="0.20328">
        <ele>1901.14</ele>
        <time>2012-02-12T13:46:23Z</time>
      </trkpt>
      <trkpt lat="42.83611" lon="0.20329">
        <ele>1900.66</ele>
        <time>2012-02-12T13:46:24Z</time>
      </trkpt>
      <trkpt lat="42.83612" lon="0.20329">
        <ele>1901.14</ele>
        <time>2012-02-12T13:46:35Z</time>
      </trkpt>
      <trkpt lat="42.83612" lon="0.20329">
        <ele>1901.14</ele>
        <time>2012-02-12T13:46:49Z</time>
      </trkpt>
      <trkpt lat="42.83612" lon="0.20328">
        <ele>1900.66</ele>
        <time>2012-02-12T13:47:08Z</time>
      </trkpt>
      <trkpt lat="42.83616" lon="0.2032">
        <ele>1898.74</ele>
        <time>2012-02-12T13:47:13Z</time>
      </trkpt>
      <trkpt lat="42.83616" lon="0.2032">
        <ele>1898.26</ele>
        <time>2012-02-12T13:47:16Z</time>
      </trkpt>
      <trkpt lat="42.83614" lon="0.20316">
        <ele>1896.34</ele>
        <time>2012-02-12T13:47:20Z</time>
      </trkpt>
      <trkpt lat="42.83613" lon="0.20316">
        <ele>1896.34</ele>
        <time>2012-02-12T13:47:33Z</time>
      </trkpt>
      <trkpt lat="42.83613" lon="0.20315">
        <ele>1894.9</ele>
        <time>2012-02-12T13:47:44Z</time>
      </trkpt>
      <trkpt lat="42.83606" lon="0.20314">
        <ele>1892.49</ele>
        <time>2012-02-12T13:47:48Z</time>
      </trkpt>
      <trkpt lat="42.83603" lon="0.20314">
        <ele>1892.01</ele>
        <time>2012-02-12T13:47:58Z</time>
      </trkpt>
      <trkpt lat="42.83603" lon="0.20314">
        <ele>1891.53</ele>
        <time>2012-02-12T13:48:01Z</time>
      </trkpt>
      <trkpt lat="42.83596" lon="0.20312">
        <ele>1889.13</ele>
        <time>2012-02-12T13:48:10Z</time>
      </trkpt>
      <trkpt lat="42.83597" lon="0.20313">
        <ele>1890.09</ele>
        <time>2012-02-12T13:48:31Z</time>
      </trkpt>
      <trkpt lat="42.83597" lon="0.20313">
        <ele>1888.65</ele>
        <time>2012-02-12T13:48:34Z</time>
      </trkpt>
      <trkpt lat="42.83592" lon="0.20311">
        <ele>1888.17</ele>
        <time>2012-02-12T13:48:37Z</time>
      </trkpt>
      <trkpt lat="42.83584" lon="0.20306">
        <ele>1885.28</ele>
        <time>2012-02-12T13:48:42Z</time>
      </trkpt>
      <trkpt lat="42.83588" lon="0.20294">
        <ele>1880.48</ele>
        <time>2012-02-12T13:48:44Z</time>
      </trkpt>
      <trkpt lat="42.83594" lon="0.20285">
        <ele>1875.19</ele>
        <time>2012-02-12T13:48:47Z</time>
      </trkpt>
      <trkpt lat="42.83597" lon="0.20282">
        <ele>1875.19</ele>
        <time>2012-02-12T13:48:57Z</time>
      </trkpt>
      <trkpt lat="42.83597" lon="0.20283">
        <ele>1874.71</ele>
        <time>2012-02-12T13:49:09Z</time>
      </trkpt>
      <trkpt lat="42.83597" lon="0.20283">
        <ele>1874.71</ele>
        <time>2012-02-12T13:49:16Z</time>
      </trkpt>
      <trkpt lat="42.83599" lon="0.20278">
        <ele>1872.79</ele>
        <time>2012-02-12T13:49:19Z</time>
      </trkpt>
      <trkpt lat="42.83602" lon="0.20276">
        <ele>1871.82</ele>
        <time>2012-02-12T13:49:31Z</time>
      </trkpt>
      <trkpt lat="42.83602" lon="0.20274">
        <ele>1870.86</ele>
        <time>2012-02-12T13:49:41Z</time>
      </trkpt>
      <trkpt lat="42.83602" lon="0.20274">
        <ele>1870.38</ele>
        <time>2012-02-12T13:49:43Z</time>
      </trkpt>
      <trkpt lat="42.83609" lon="0.20262">
        <ele>1867.02</ele>
        <time>2012-02-12T13:49:48Z</time>
      </trkpt>
      <trkpt lat="42.83607" lon="0.20253">
        <ele>1862.69</ele>
        <time>2012-02-12T13:49:51Z</time>
      </trkpt>
      <trkpt lat="42.83604" lon="0.20252">
        <ele>1861.25</ele>
        <time>2012-02-12T13:49:52Z</time>
      </trkpt>
      <trkpt lat="42.83598" lon="0.20253">
        <ele>1860.29</ele>
        <time>2012-02-12T13:49:54Z</time>
      </trkpt>
      <trkpt lat="42.83597" lon="0.20254">
        <ele>1859.33</ele>
        <time>2012-02-12T13:50:01Z</time>
      </trkpt>
      <trkpt lat="42.83588" lon="0.20252">
        <ele>1856.44</ele>
        <time>2012-02-12T13:50:05Z</time>
      </trkpt>
      <trkpt lat="42.83586" lon="0.20253">
        <ele>1856.44</ele>
        <time>2012-02-12T13:50:06Z</time>
      </trkpt>
      <trkpt lat="42.83586" lon="0.20253">
        <ele>1856.44</ele>
        <time>2012-02-12T13:50:09Z</time>
      </trkpt>
      <trkpt lat="42.8359" lon="0.2024">
        <ele>1853.08</ele>
        <time>2012-02-12T13:50:13Z</time>
      </trkpt>
      <trkpt lat="42.836" lon="0.20224">
        <ele>1849.71</ele>
        <time>2012-02-12T13:50:17Z</time>
      </trkpt>
      <trkpt lat="42.83594" lon="0.2022">
        <ele>1846.83</ele>
        <time>2012-02-12T13:50:20Z</time>
      </trkpt>
      <trkpt lat="42.83594" lon="0.20221">
        <ele>1845.87</ele>
        <time>2012-02-12T13:50:28Z</time>
      </trkpt>
      <trkpt lat="42.83593" lon="0.20221">
        <ele>1845.87</ele>
        <time>2012-02-12T13:50:42Z</time>
      </trkpt>
      <trkpt lat="42.83593" lon="0.20221">
        <ele>1846.35</ele>
        <time>2012-02-12T13:50:43Z</time>
      </trkpt>
      <trkpt lat="42.8359" lon="0.20222">
        <ele>1845.39</ele>
        <time>2012-02-12T13:50:45Z</time>
      </trkpt>
      <trkpt lat="42.83588" lon="0.20223">
        <ele>1845.39</ele>
        <time>2012-02-12T13:51:01Z</time>
      </trkpt>
      <trkpt lat="42.83588" lon="0.20223">
        <ele>1845.87</ele>
        <time>2012-02-12T13:51:25Z</time>
      </trkpt>
      <trkpt lat="42.83586" lon="0.20223">
        <ele>1845.87</ele>
        <time>2012-02-12T13:51:51Z</time>
      </trkpt>
      <trkpt lat="42.83587" lon="0.20223">
        <ele>1846.35</ele>
        <time>2012-02-12T13:52:14Z</time>
      </trkpt>
      <trkpt lat="42.83587" lon="0.20223">
        <ele>1845.87</ele>
        <time>2012-02-12T13:52:42Z</time>
      </trkpt>
      <trkpt lat="42.83587" lon="0.20223">
        <ele>1846.35</ele>
        <time>2012-02-12T13:53:02Z</time>
      </trkpt>
      <trkpt lat="42.83586" lon="0.20222">
        <ele>1846.83</ele>
        <time>2012-02-12T13:53:26Z</time>
      </trkpt>
      <trkpt lat="42.83586" lon="0.20222">
        <ele>1846.35</ele>
        <time>2012-02-12T13:53:46Z</time>
      </trkpt>
      <trkpt lat="42.83586" lon="0.20222">
        <ele>1846.83</ele>
        <time>2012-02-12T13:54:11Z</time>
      </trkpt>
      <trkpt lat="42.83586" lon="0.20222">
        <ele>1846.83</ele>
        <time>2012-02-12T13:54:24Z</time>
      </trkpt>
      <trkpt lat="42.83575" lon="0.2022">
        <ele>1843.47</ele>
        <time>2012-02-12T13:54:28Z</time>
      </trkpt>
      <trkpt lat="42.83572" lon="0.20222">
        <ele>1841.54</ele>
        <time>2012-02-12T13:54:33Z</time>
      </trkpt>
      <trkpt lat="42.83572" lon="0.20223">
        <ele>1842.02</ele>
        <time>2012-02-12T13:54:51Z</time>
      </trkpt>
      <trkpt lat="42.83572" lon="0.20222">
        <ele>1841.54</ele>
        <time>2012-02-12T13:54:58Z</time>
      </trkpt>
      <trkpt lat="42.83563" lon="0.20221">
        <ele>1838.66</ele>
        <time>2012-02-12T13:55:01Z</time>
      </trkpt>
      <trkpt lat="42.83552" lon="0.20221">
        <ele>1836.26</ele>
        <time>2012-02-12T13:55:04Z</time>
      </trkpt>
      <trkpt lat="42.83551" lon="0.20207">
        <ele>1832.41</ele>
        <time>2012-02-12T13:55:06Z</time>
      </trkpt>
      <trkpt lat="42.83548" lon="0.20204">
        <ele>1829.05</ele>
        <time>2012-02-12T13:55:07Z</time>
      </trkpt>
      <trkpt lat="42.83534" lon="0.20194">
        <ele>1819.91</ele>
        <time>2012-02-12T13:55:11Z</time>
      </trkpt>
      <trkpt lat="42.83532" lon="0.20194">
        <ele>1818.95</ele>
        <time>2012-02-12T13:55:13Z</time>
      </trkpt>
      <trkpt lat="42.83533" lon="0.20194">
        <ele>1818.95</ele>
        <time>2012-02-12T13:55:30Z</time>
      </trkpt>
      <trkpt lat="42.83534" lon="0.20193">
        <ele>1818.47</ele>
        <time>2012-02-12T13:55:45Z</time>
      </trkpt>
      <trkpt lat="42.8353" lon="0.20194">
        <ele>1818.47</ele>
        <time>2012-02-12T13:55:56Z</time>
      </trkpt>
      <trkpt lat="42.8353" lon="0.20195">
        <ele>1818.47</ele>
        <time>2012-02-12T13:56:12Z</time>
      </trkpt>
      <trkpt lat="42.83531" lon="0.20194">
        <ele>1818.95</ele>
        <time>2012-02-12T13:56:25Z</time>
      </trkpt>
      <trkpt lat="42.8353" lon="0.20193">
        <ele>1818.95</ele>
        <time>2012-02-12T13:56:37Z</time>
      </trkpt>
      <trkpt lat="42.8353" lon="0.20193">
        <ele>1819.43</ele>
        <time>2012-02-12T13:56:49Z</time>
      </trkpt>
      <trkpt lat="42.83529" lon="0.20194">
        <ele>1819.43</ele>
        <time>2012-02-12T13:57:06Z</time>
      </trkpt>
      <trkpt lat="42.83529" lon="0.20194">
        <ele>1819.43</ele>
        <time>2012-02-12T13:57:30Z</time>
      </trkpt>
      <trkpt lat="42.83529" lon="0.20192">
        <ele>1819.43</ele>
        <time>2012-02-12T13:57:52Z</time>
      </trkpt>
      <trkpt lat="42.83525" lon="0.20196">
        <ele>1819.43</ele>
        <time>2012-02-12T13:57:59Z</time>
      </trkpt>
      <trkpt lat="42.83516" lon="0.20203">
        <ele>1819.43</ele>
        <time>2012-02-12T13:58:08Z</time>
      </trkpt>
      <trkpt lat="42.83514" lon="0.20205">
        <ele>1819.91</ele>
        <time>2012-02-12T13:58:10Z</time>
      </trkpt>
      <trkpt lat="42.8351" lon="0.20208">
        <ele>1819.91</ele>
        <time>2012-02-12T13:58:16Z</time>
      </trkpt>
      <trkpt lat="42.83507" lon="0.2021">
        <ele>1820.39</ele>
        <time>2012-02-12T13:58:19Z</time>
      </trkpt>
      <trkpt lat="42.83501" lon="0.2021">
        <ele>1820.39</ele>
        <time>2012-02-12T13:58:25Z</time>
      </trkpt>
      <trkpt lat="42.83491" lon="0.20214">
        <ele>1820.87</ele>
        <time>2012-02-12T13:58:34Z</time>
      </trkpt>
      <trkpt lat="42.83489" lon="0.20217">
        <ele>1821.35</ele>
        <time>2012-02-12T13:58:38Z</time>
      </trkpt>
      <trkpt lat="42.83478" lon="0.20234">
        <ele>1820.39</ele>
        <time>2012-02-12T13:58:50Z</time>
      </trkpt>
      <trkpt lat="42.83473" lon="0.20241">
        <ele>1820.87</ele>
        <time>2012-02-12T13:58:57Z</time>
      </trkpt>
      <trkpt lat="42.83466" lon="0.20248">
        <ele>1820.87</ele>
        <time>2012-02-12T13:59:09Z</time>
      </trkpt>
      <trkpt lat="42.83464" lon="0.20251">
        <ele>1820.87</ele>
        <time>2012-02-12T13:59:12Z</time>
      </trkpt>
      <trkpt lat="42.83462" lon="0.20253">
        <ele>1821.35</ele>
        <time>2012-02-12T13:59:15Z</time>
      </trkpt>
      <trkpt lat="42.83458" lon="0.20256">
        <ele>1821.35</ele>
        <time>2012-02-12T13:59:19Z</time>
      </trkpt>
      <trkpt lat="42.83455" lon="0.20261">
        <ele>1821.35</ele>
        <time>2012-02-12T13:59:24Z</time>
      </trkpt>
      <trkpt lat="42.83449" lon="0.20264">
        <ele>1821.35</ele>
        <time>2012-02-12T13:59:29Z</time>
      </trkpt>
      <trkpt lat="42.83444" lon="0.20268">
        <ele>1821.35</ele>
        <time>2012-02-12T13:59:34Z</time>
      </trkpt>
      <trkpt lat="42.83427" lon="0.20277">
        <ele>1822.32</ele>
        <time>2012-02-12T13:59:47Z</time>
      </trkpt>
      <trkpt lat="42.83424" lon="0.20278">
        <ele>1822.32</ele>
        <time>2012-02-12T13:59:51Z</time>
      </trkpt>
      <trkpt lat="42.8342" lon="0.20281">
        <ele>1822.8</ele>
        <time>2012-02-12T13:59:57Z</time>
      </trkpt>
      <trkpt lat="42.83418" lon="0.20281">
        <ele>1822.8</ele>
        <time>2012-02-12T13:59:59Z</time>
      </trkpt>
      <trkpt lat="42.83416" lon="0.20282">
        <ele>1823.28</ele>
        <time>2012-02-12T14:00:01Z</time>
      </trkpt>
      <trkpt lat="42.83413" lon="0.20284">
        <ele>1823.28</ele>
        <time>2012-02-12T14:00:04Z</time>
      </trkpt>
      <trkpt lat="42.83409" lon="0.20286">
        <ele>1823.76</ele>
        <time>2012-02-12T14:00:08Z</time>
      </trkpt>
      <trkpt lat="42.83404" lon="0.20292">
        <ele>1823.28</ele>
        <time>2012-02-12T14:00:14Z</time>
      </trkpt>
      <trkpt lat="42.83398" lon="0.20296">
        <ele>1823.28</ele>
        <time>2012-02-12T14:00:18Z</time>
      </trkpt>
      <trkpt lat="42.83387" lon="0.20317">
        <ele>1821.84</ele>
        <time>2012-02-12T14:00:27Z</time>
      </trkpt>
      <trkpt lat="42.83376" lon="0.20328">
        <ele>1822.32</ele>
        <time>2012-02-12T14:00:34Z</time>
      </trkpt>
      <trkpt lat="42.83375" lon="0.2033">
        <ele>1821.35</ele>
        <time>2012-02-12T14:00:42Z</time>
      </trkpt>
      <trkpt lat="42.83375" lon="0.2033">
        <ele>1820.87</ele>
        <time>2012-02-12T14:01:00Z</time>
      </trkpt>
      <trkpt lat="42.83376" lon="0.2033">
        <ele>1820.39</ele>
        <time>2012-02-12T14:01:15Z</time>
      </trkpt>
      <trkpt lat="42.83375" lon="0.2033">
        <ele>1820.87</ele>
        <time>2012-02-12T14:01:30Z</time>
      </trkpt>
      <trkpt lat="42.83375" lon="0.2033">
        <ele>1821.35</ele>
        <time>2012-02-12T14:02:02Z</time>
      </trkpt>
      <trkpt lat="42.83375" lon="0.2033">
        <ele>1821.84</ele>
        <time>2012-02-12T14:02:08Z</time>
      </trkpt>
      <trkpt lat="42.83376" lon="0.2033">
        <ele>1823.76</ele>
        <time>2012-02-12T14:02:18Z</time>
      </trkpt>
      <trkpt lat="42.83376" lon="0.2033">
        <ele>1822.8</ele>
        <time>2012-02-12T14:02:34Z</time>
      </trkpt>
      <trkpt lat="42.83376" lon="0.2033">
        <ele>1823.28</ele>
        <time>2012-02-12T14:02:43Z</time>
      </trkpt>
      <trkpt lat="42.83371" lon="0.20334">
        <ele>1823.28</ele>
        <time>2012-02-12T14:02:52Z</time>
      </trkpt>
      <trkpt lat="42.83368" lon="0.20336">
        <ele>1823.28</ele>
        <time>2012-02-12T14:02:55Z</time>
      </trkpt>
      <trkpt lat="42.83365" lon="0.20338">
        <ele>1823.76</ele>
        <time>2012-02-12T14:02:58Z</time>
      </trkpt>
      <trkpt lat="42.83357" lon="0.20345">
        <ele>1823.76</ele>
        <time>2012-02-12T14:03:08Z</time>
      </trkpt>
      <trkpt lat="42.83347" lon="0.20352">
        <ele>1824.24</ele>
        <time>2012-02-12T14:03:20Z</time>
      </trkpt>
      <trkpt lat="42.83344" lon="0.20356">
        <ele>1824.24</ele>
        <time>2012-02-12T14:03:23Z</time>
      </trkpt>
      <trkpt lat="42.83342" lon="0.20356">
        <ele>1824.72</ele>
        <time>2012-02-12T14:03:25Z</time>
      </trkpt>
      <trkpt lat="42.83339" lon="0.2036">
        <ele>1824.24</ele>
        <time>2012-02-12T14:03:32Z</time>
      </trkpt>
      <trkpt lat="42.83331" lon="0.20368">
        <ele>1823.76</ele>
        <time>2012-02-12T14:03:39Z</time>
      </trkpt>
      <trkpt lat="42.83321" lon="0.2038">
        <ele>1824.72</ele>
        <time>2012-02-12T14:03:50Z</time>
      </trkpt>
      <trkpt lat="42.83318" lon="0.20382">
        <ele>1824.72</ele>
        <time>2012-02-12T14:03:54Z</time>
      </trkpt>
      <trkpt lat="42.83318" lon="0.20384">
        <ele>1824.72</ele>
        <time>2012-02-12T14:03:56Z</time>
      </trkpt>
      <trkpt lat="42.83309" lon="0.20395">
        <ele>1824.72</ele>
        <time>2012-02-12T14:04:08Z</time>
      </trkpt>
      <trkpt lat="42.83305" lon="0.20398">
        <ele>1824.72</ele>
        <time>2012-02-12T14:04:13Z</time>
      </trkpt>
      <trkpt lat="42.83303" lon="0.204">
        <ele>1824.72</ele>
        <time>2012-02-12T14:04:15Z</time>
      </trkpt>
      <trkpt lat="42.83301" lon="0.20402">
        <ele>1825.2</ele>
        <time>2012-02-12T14:04:18Z</time>
      </trkpt>
      <trkpt lat="42.83299" lon="0.20403">
        <ele>1824.72</ele>
        <time>2012-02-12T14:04:20Z</time>
      </trkpt>
      <trkpt lat="42.8329" lon="0.2041">
        <ele>1824.72</ele>
        <time>2012-02-12T14:04:31Z</time>
      </trkpt>
      <trkpt lat="42.83287" lon="0.20411">
        <ele>1824.72</ele>
        <time>2012-02-12T14:04:42Z</time>
      </trkpt>
      <trkpt lat="42.83284" lon="0.20413">
        <ele>1824.72</ele>
        <time>2012-02-12T14:04:55Z</time>
      </trkpt>
      <trkpt lat="42.83277" lon="0.20418">
        <ele>1825.68</ele>
        <time>2012-02-12T14:05:05Z</time>
      </trkpt>
      <trkpt lat="42.83267" lon="0.20428">
        <ele>1824.72</ele>
        <time>2012-02-12T14:05:17Z</time>
      </trkpt>
      <trkpt lat="42.83265" lon="0.20429">
        <ele>1824.72</ele>
        <time>2012-02-12T14:05:19Z</time>
      </trkpt>
      <trkpt lat="42.83256" lon="0.20438">
        <ele>1824.72</ele>
        <time>2012-02-12T14:05:31Z</time>
      </trkpt>
      <trkpt lat="42.83255" lon="0.20438">
        <ele>1824.72</ele>
        <time>2012-02-12T14:05:32Z</time>
      </trkpt>
      <trkpt lat="42.83251" lon="0.20441">
        <ele>1825.2</ele>
        <time>2012-02-12T14:05:44Z</time>
      </trkpt>
      <trkpt lat="42.8325" lon="0.20442">
        <ele>1825.2</ele>
        <time>2012-02-12T14:05:45Z</time>
      </trkpt>
      <trkpt lat="42.8324" lon="0.20444">
        <ele>1825.68</ele>
        <time>2012-02-12T14:05:56Z</time>
      </trkpt>
      <trkpt lat="42.8323" lon="0.20449">
        <ele>1826.64</ele>
        <time>2012-02-12T14:06:08Z</time>
      </trkpt>
      <trkpt lat="42.83227" lon="0.2045">
        <ele>1826.64</ele>
        <time>2012-02-12T14:06:11Z</time>
      </trkpt>
      <trkpt lat="42.83222" lon="0.20452">
        <ele>1826.64</ele>
        <time>2012-02-12T14:06:17Z</time>
      </trkpt>
      <trkpt lat="42.8322" lon="0.20454">
        <ele>1826.64</ele>
        <time>2012-02-12T14:06:19Z</time>
      </trkpt>
      <trkpt lat="42.83217" lon="0.20456">
        <ele>1826.64</ele>
        <time>2012-02-12T14:06:22Z</time>
      </trkpt>
      <trkpt lat="42.8321" lon="0.20462">
        <ele>1827.12</ele>
        <time>2012-02-12T14:06:31Z</time>
      </trkpt>
      <trkpt lat="42.83207" lon="0.20464">
        <ele>1827.6</ele>
        <time>2012-02-12T14:06:34Z</time>
      </trkpt>
      <trkpt lat="42.83204" lon="0.20465">
        <ele>1827.6</ele>
        <time>2012-02-12T14:06:37Z</time>
      </trkpt>
      <trkpt lat="42.83202" lon="0.20468">
        <ele>1827.12</ele>
        <time>2012-02-12T14:06:40Z</time>
      </trkpt>
      <trkpt lat="42.832" lon="0.20469">
        <ele>1828.08</ele>
        <time>2012-02-12T14:06:42Z</time>
      </trkpt>
      <trkpt lat="42.83196" lon="0.20471">
        <ele>1827.6</ele>
        <time>2012-02-12T14:06:46Z</time>
      </trkpt>
      <trkpt lat="42.83192" lon="0.20475">
        <ele>1828.08</ele>
        <time>2012-02-12T14:06:51Z</time>
      </trkpt>
      <trkpt lat="42.8319" lon="0.20474">
        <ele>1828.56</ele>
        <time>2012-02-12T14:06:53Z</time>
      </trkpt>
      <trkpt lat="42.83185" lon="0.20478">
        <ele>1828.08</ele>
        <time>2012-02-12T14:06:58Z</time>
      </trkpt>
      <trkpt lat="42.83176" lon="0.20482">
        <ele>1828.56</ele>
        <time>2012-02-12T14:07:06Z</time>
      </trkpt>
      <trkpt lat="42.83174" lon="0.20484">
        <ele>1828.56</ele>
        <time>2012-02-12T14:07:08Z</time>
      </trkpt>
      <trkpt lat="42.83173" lon="0.20485">
        <ele>1828.56</ele>
        <time>2012-02-12T14:07:10Z</time>
      </trkpt>
      <trkpt lat="42.83165" lon="0.20487">
        <ele>1828.56</ele>
        <time>2012-02-12T14:07:16Z</time>
      </trkpt>
      <trkpt lat="42.83164" lon="0.20489">
        <ele>1828.08</ele>
        <time>2012-02-12T14:07:18Z</time>
      </trkpt>
      <trkpt lat="42.83159" lon="0.2049">
        <ele>1828.56</ele>
        <time>2012-02-12T14:07:26Z</time>
      </trkpt>
      <trkpt lat="42.83154" lon="0.20492">
        <ele>1828.08</ele>
        <time>2012-02-12T14:07:33Z</time>
      </trkpt>
      <trkpt lat="42.83151" lon="0.20493">
        <ele>1828.56</ele>
        <time>2012-02-12T14:07:37Z</time>
      </trkpt>
      <trkpt lat="42.83148" lon="0.20492">
        <ele>1828.56</ele>
        <time>2012-02-12T14:07:40Z</time>
      </trkpt>
      <trkpt lat="42.83134" lon="0.20497">
        <ele>1828.56</ele>
        <time>2012-02-12T14:07:49Z</time>
      </trkpt>
      <trkpt lat="42.83132" lon="0.205">
        <ele>1829.05</ele>
        <time>2012-02-12T14:07:53Z</time>
      </trkpt>
      <trkpt lat="42.83127" lon="0.20502">
        <ele>1829.05</ele>
        <time>2012-02-12T14:07:58Z</time>
      </trkpt>
      <trkpt lat="42.83125" lon="0.20502">
        <ele>1829.05</ele>
        <time>2012-02-12T14:08:00Z</time>
      </trkpt>
      <trkpt lat="42.83121" lon="0.20505">
        <ele>1829.05</ele>
        <time>2012-02-12T14:08:04Z</time>
      </trkpt>
      <trkpt lat="42.83118" lon="0.20507">
        <ele>1829.53</ele>
        <time>2012-02-12T14:08:08Z</time>
      </trkpt>
      <trkpt lat="42.83107" lon="0.2051">
        <ele>1829.05</ele>
        <time>2012-02-12T14:08:20Z</time>
      </trkpt>
      <trkpt lat="42.83105" lon="0.2051">
        <ele>1829.53</ele>
        <time>2012-02-12T14:08:23Z</time>
      </trkpt>
      <trkpt lat="42.83099" lon="0.20513">
        <ele>1829.05</ele>
        <time>2012-02-12T14:08:31Z</time>
      </trkpt>
      <trkpt lat="42.83094" lon="0.20515">
        <ele>1829.53</ele>
        <time>2012-02-12T14:08:36Z</time>
      </trkpt>
      <trkpt lat="42.83088" lon="0.20515">
        <ele>1829.53</ele>
        <time>2012-02-12T14:08:41Z</time>
      </trkpt>
      <trkpt lat="42.8308" lon="0.2052">
        <ele>1829.53</ele>
        <time>2012-02-12T14:08:49Z</time>
      </trkpt>
      <trkpt lat="42.83074" lon="0.20523">
        <ele>1829.53</ele>
        <time>2012-02-12T14:08:55Z</time>
      </trkpt>
      <trkpt lat="42.83071" lon="0.20524">
        <ele>1829.05</ele>
        <time>2012-02-12T14:08:57Z</time>
      </trkpt>
      <trkpt lat="42.8307" lon="0.20526">
        <ele>1829.05</ele>
        <time>2012-02-12T14:08:59Z</time>
      </trkpt>
      <trkpt lat="42.83057" lon="0.20528">
        <ele>1829.05</ele>
        <time>2012-02-12T14:09:10Z</time>
      </trkpt>
      <trkpt lat="42.83054" lon="0.2053">
        <ele>1829.05</ele>
        <time>2012-02-12T14:09:14Z</time>
      </trkpt>
      <trkpt lat="42.83049" lon="0.20531">
        <ele>1830.01</ele>
        <time>2012-02-12T14:09:19Z</time>
      </trkpt>
      <trkpt lat="42.83037" lon="0.20534">
        <ele>1829.53</ele>
        <time>2012-02-12T14:09:30Z</time>
      </trkpt>
      <trkpt lat="42.83032" lon="0.20536">
        <ele>1830.49</ele>
        <time>2012-02-12T14:09:36Z</time>
      </trkpt>
      <trkpt lat="42.83024" lon="0.20539">
        <ele>1829.53</ele>
        <time>2012-02-12T14:09:47Z</time>
      </trkpt>
      <trkpt lat="42.83022" lon="0.20541">
        <ele>1829.53</ele>
        <time>2012-02-12T14:09:49Z</time>
      </trkpt>
      <trkpt lat="42.83019" lon="0.20541">
        <ele>1830.49</ele>
        <time>2012-02-12T14:09:53Z</time>
      </trkpt>
      <trkpt lat="42.83014" lon="0.20544">
        <ele>1830.49</ele>
        <time>2012-02-12T14:09:58Z</time>
      </trkpt>
      <trkpt lat="42.83013" lon="0.20545">
        <ele>1830.01</ele>
        <time>2012-02-12T14:10:00Z</time>
      </trkpt>
      <trkpt lat="42.8301" lon="0.20547">
        <ele>1830.49</ele>
        <time>2012-02-12T14:10:15Z</time>
      </trkpt>
      <trkpt lat="42.83001" lon="0.20551">
        <ele>1831.45</ele>
        <time>2012-02-12T14:10:25Z</time>
      </trkpt>
      <trkpt lat="42.82997" lon="0.20552">
        <ele>1830.97</ele>
        <time>2012-02-12T14:10:30Z</time>
      </trkpt>
      <trkpt lat="42.82994" lon="0.20553">
        <ele>1830.49</ele>
        <time>2012-02-12T14:10:33Z</time>
      </trkpt>
      <trkpt lat="42.82983" lon="0.20556">
        <ele>1830.97</ele>
        <time>2012-02-12T14:10:45Z</time>
      </trkpt>
      <trkpt lat="42.82981" lon="0.20556">
        <ele>1830.97</ele>
        <time>2012-02-12T14:10:48Z</time>
      </trkpt>
      <trkpt lat="42.82978" lon="0.20557">
        <ele>1831.45</ele>
        <time>2012-02-12T14:10:51Z</time>
      </trkpt>
      <trkpt lat="42.82969" lon="0.2056">
        <ele>1831.93</ele>
        <time>2012-02-12T14:10:59Z</time>
      </trkpt>
      <trkpt lat="42.82962" lon="0.20561">
        <ele>1831.93</ele>
        <time>2012-02-12T14:11:06Z</time>
      </trkpt>
      <trkpt lat="42.82953" lon="0.20563">
        <ele>1832.41</ele>
        <time>2012-02-12T14:11:16Z</time>
      </trkpt>
      <trkpt lat="42.82951" lon="0.20563">
        <ele>1832.41</ele>
        <time>2012-02-12T14:11:18Z</time>
      </trkpt>
      <trkpt lat="42.82947" lon="0.20564">
        <ele>1832.41</ele>
        <time>2012-02-12T14:11:22Z</time>
      </trkpt>
      <trkpt lat="42.8294" lon="0.20563">
        <ele>1832.41</ele>
        <time>2012-02-12T14:11:30Z</time>
      </trkpt>
      <trkpt lat="42.82933" lon="0.20564">
        <ele>1832.41</ele>
        <time>2012-02-12T14:11:36Z</time>
      </trkpt>
      <trkpt lat="42.82924" lon="0.20567">
        <ele>1833.37</ele>
        <time>2012-02-12T14:11:45Z</time>
      </trkpt>
      <trkpt lat="42.82923" lon="0.20567">
        <ele>1833.37</ele>
        <time>2012-02-12T14:11:54Z</time>
      </trkpt>
      <trkpt lat="42.8292" lon="0.20568">
        <ele>1833.37</ele>
        <time>2012-02-12T14:12:00Z</time>
      </trkpt>
      <trkpt lat="42.82911" lon="0.20571">
        <ele>1833.37</ele>
        <time>2012-02-12T14:12:11Z</time>
      </trkpt>
      <trkpt lat="42.82902" lon="0.20572">
        <ele>1833.37</ele>
        <time>2012-02-12T14:12:22Z</time>
      </trkpt>
      <trkpt lat="42.829" lon="0.20572">
        <ele>1833.37</ele>
        <time>2012-02-12T14:12:25Z</time>
      </trkpt>
      <trkpt lat="42.82897" lon="0.20575">
        <ele>1833.85</ele>
        <time>2012-02-12T14:12:33Z</time>
      </trkpt>
      <trkpt lat="42.82896" lon="0.20576">
        <ele>1834.81</ele>
        <time>2012-02-12T14:12:58Z</time>
      </trkpt>
      <trkpt lat="42.82895" lon="0.20576">
        <ele>1833.37</ele>
        <time>2012-02-12T14:13:02Z</time>
      </trkpt>
      <trkpt lat="42.82889" lon="0.20575">
        <ele>1833.85</ele>
        <time>2012-02-12T14:13:12Z</time>
      </trkpt>
      <trkpt lat="42.82887" lon="0.20575">
        <ele>1834.33</ele>
        <time>2012-02-12T14:13:23Z</time>
      </trkpt>
      <trkpt lat="42.82884" lon="0.20577">
        <ele>1833.85</ele>
        <time>2012-02-12T14:13:27Z</time>
      </trkpt>
      <trkpt lat="42.82877" lon="0.20574">
        <ele>1834.33</ele>
        <time>2012-02-12T14:13:39Z</time>
      </trkpt>
      <trkpt lat="42.8287" lon="0.20572">
        <ele>1834.33</ele>
        <time>2012-02-12T14:13:47Z</time>
      </trkpt>
      <trkpt lat="42.82867" lon="0.20571">
        <ele>1833.85</ele>
        <time>2012-02-12T14:13:50Z</time>
      </trkpt>
      <trkpt lat="42.82863" lon="0.2057">
        <ele>1834.81</ele>
        <time>2012-02-12T14:13:59Z</time>
      </trkpt>
      <trkpt lat="42.82862" lon="0.20569">
        <ele>1834.33</ele>
        <time>2012-02-12T14:14:01Z</time>
      </trkpt>
      <trkpt lat="42.82853" lon="0.20564">
        <ele>1834.81</ele>
        <time>2012-02-12T14:14:12Z</time>
      </trkpt>
      <trkpt lat="42.82851" lon="0.20564">
        <ele>1834.81</ele>
        <time>2012-02-12T14:14:14Z</time>
      </trkpt>
      <trkpt lat="42.82848" lon="0.20563">
        <ele>1835.29</ele>
        <time>2012-02-12T14:14:17Z</time>
      </trkpt>
      <trkpt lat="42.82842" lon="0.20561">
        <ele>1834.81</ele>
        <time>2012-02-12T14:14:26Z</time>
      </trkpt>
      <trkpt lat="42.82839" lon="0.20561">
        <ele>1834.81</ele>
        <time>2012-02-12T14:14:29Z</time>
      </trkpt>
      <trkpt lat="42.82834" lon="0.20562">
        <ele>1834.81</ele>
        <time>2012-02-12T14:14:33Z</time>
      </trkpt>
      <trkpt lat="42.82827" lon="0.20562">
        <ele>1834.81</ele>
        <time>2012-02-12T14:14:47Z</time>
      </trkpt>
      <trkpt lat="42.82827" lon="0.20562">
        <ele>1835.29</ele>
        <time>2012-02-12T14:15:00Z</time>
      </trkpt>
      <trkpt lat="42.82827" lon="0.20562">
        <ele>1835.29</ele>
        <time>2012-02-12T14:15:13Z</time>
      </trkpt>
      <trkpt lat="42.82827" lon="0.20562">
        <ele>1835.77</ele>
        <time>2012-02-12T14:15:34Z</time>
      </trkpt>
      <trkpt lat="42.82825" lon="0.20563">
        <ele>1836.26</ele>
        <time>2012-02-12T14:15:45Z</time>
      </trkpt>
      <trkpt lat="42.82824" lon="0.20563">
        <ele>1836.26</ele>
        <time>2012-02-12T14:15:47Z</time>
      </trkpt>
      <trkpt lat="42.8282" lon="0.2056">
        <ele>1836.74</ele>
        <time>2012-02-12T14:15:54Z</time>
      </trkpt>
      <trkpt lat="42.82819" lon="0.2056">
        <ele>1837.7</ele>
        <time>2012-02-12T14:15:58Z</time>
      </trkpt>
      <trkpt lat="42.82818" lon="0.20559">
        <ele>1838.18</ele>
        <time>2012-02-12T14:16:04Z</time>
      </trkpt>
      <trkpt lat="42.82817" lon="0.20559">
        <ele>1838.66</ele>
        <time>2012-02-12T14:16:14Z</time>
      </trkpt>
      <trkpt lat="42.82815" lon="0.20558">
        <ele>1838.18</ele>
        <time>2012-02-12T14:16:22Z</time>
      </trkpt>
      <trkpt lat="42.82813" lon="0.20558">
        <ele>1838.18</ele>
        <time>2012-02-12T14:16:31Z</time>
      </trkpt>
      <trkpt lat="42.82812" lon="0.20558">
        <ele>1837.7</ele>
        <time>2012-02-12T14:16:41Z</time>
      </trkpt>
      <trkpt lat="42.8281" lon="0.20558">
        <ele>1838.66</ele>
        <time>2012-02-12T14:16:51Z</time>
      </trkpt>
      <trkpt lat="42.82807" lon="0.20559">
        <ele>1839.14</ele>
        <time>2012-02-12T14:17:00Z</time>
      </trkpt>
      <trkpt lat="42.82806" lon="0.20558">
        <ele>1839.62</ele>
        <time>2012-02-12T14:17:13Z</time>
      </trkpt>
      <trkpt lat="42.82803" lon="0.20558">
        <ele>1839.62</ele>
        <time>2012-02-12T14:17:31Z</time>
      </trkpt>
      <trkpt lat="42.82774" lon="0.20549">
        <ele>1839.14</ele>
        <time>2012-02-12T14:17:48Z</time>
      </trkpt>
      <trkpt lat="42.82769" lon="0.20548">
        <ele>1838.18</ele>
        <time>2012-02-12T14:17:51Z</time>
      </trkpt>
      <trkpt lat="42.82755" lon="0.2055">
        <ele>1839.14</ele>
        <time>2012-02-12T14:18:00Z</time>
      </trkpt>
      <trkpt lat="42.82753" lon="0.2055">
        <ele>1839.62</ele>
        <time>2012-02-12T14:18:01Z</time>
      </trkpt>
      <trkpt lat="42.82737" lon="0.20554">
        <ele>1839.14</ele>
        <time>2012-02-12T14:18:10Z</time>
      </trkpt>
      <trkpt lat="42.82719" lon="0.2056">
        <ele>1839.14</ele>
        <time>2012-02-12T14:18:20Z</time>
      </trkpt>
      <trkpt lat="42.82713" lon="0.20565">
        <ele>1839.62</ele>
        <time>2012-02-12T14:18:24Z</time>
      </trkpt>
      <trkpt lat="42.82711" lon="0.20568">
        <ele>1839.62</ele>
        <time>2012-02-12T14:18:27Z</time>
      </trkpt>
      <trkpt lat="42.82707" lon="0.20569">
        <ele>1839.14</ele>
        <time>2012-02-12T14:18:30Z</time>
      </trkpt>
      <trkpt lat="42.82703" lon="0.20574">
        <ele>1840.1</ele>
        <time>2012-02-12T14:18:36Z</time>
      </trkpt>
      <trkpt lat="42.82693" lon="0.20577">
        <ele>1839.62</ele>
        <time>2012-02-12T14:18:41Z</time>
      </trkpt>
      <trkpt lat="42.82678" lon="0.20585">
        <ele>1839.62</ele>
        <time>2012-02-12T14:18:50Z</time>
      </trkpt>
      <trkpt lat="42.82669" lon="0.20592">
        <ele>1840.1</ele>
        <time>2012-02-12T14:18:59Z</time>
      </trkpt>
      <trkpt lat="42.82657" lon="0.20597">
        <ele>1840.58</ele>
        <time>2012-02-12T14:19:09Z</time>
      </trkpt>
      <trkpt lat="42.82655" lon="0.20599">
        <ele>1840.1</ele>
        <time>2012-02-12T14:19:12Z</time>
      </trkpt>
      <trkpt lat="42.82642" lon="0.20611">
        <ele>1840.58</ele>
        <time>2012-02-12T14:19:21Z</time>
      </trkpt>
      <trkpt lat="42.82638" lon="0.20614">
        <ele>1840.58</ele>
        <time>2012-02-12T14:19:33Z</time>
      </trkpt>
      <trkpt lat="42.82638" lon="0.20614">
        <ele>1840.1</ele>
        <time>2012-02-12T14:19:46Z</time>
      </trkpt>
      <trkpt lat="42.82638" lon="0.20614">
        <ele>1840.1</ele>
        <time>2012-02-12T14:19:56Z</time>
      </trkpt>
      <trkpt lat="42.82637" lon="0.20614">
        <ele>1840.58</ele>
        <time>2012-02-12T14:20:08Z</time>
      </trkpt>
      <trkpt lat="42.82636" lon="0.20616">
        <ele>1841.54</ele>
        <time>2012-02-12T14:20:19Z</time>
      </trkpt>
      <trkpt lat="42.82634" lon="0.20618">
        <ele>1841.54</ele>
        <time>2012-02-12T14:20:21Z</time>
      </trkpt>
      <trkpt lat="42.82632" lon="0.2062">
        <ele>1841.06</ele>
        <time>2012-02-12T14:20:23Z</time>
      </trkpt>
      <trkpt lat="42.82621" lon="0.20628">
        <ele>1841.54</ele>
        <time>2012-02-12T14:20:33Z</time>
      </trkpt>
      <trkpt lat="42.82617" lon="0.20631">
        <ele>1842.02</ele>
        <time>2012-02-12T14:20:39Z</time>
      </trkpt>
      <trkpt lat="42.82614" lon="0.20633">
        <ele>1841.54</ele>
        <time>2012-02-12T14:20:42Z</time>
      </trkpt>
      <trkpt lat="42.82602" lon="0.20642">
        <ele>1842.02</ele>
        <time>2012-02-12T14:20:57Z</time>
      </trkpt>
      <trkpt lat="42.82591" lon="0.20652">
        <ele>1842.98</ele>
        <time>2012-02-12T14:21:10Z</time>
      </trkpt>
      <trkpt lat="42.8259" lon="0.20653">
        <ele>1843.47</ele>
        <time>2012-02-12T14:21:21Z</time>
      </trkpt>
      <trkpt lat="42.82589" lon="0.20652">
        <ele>1843.95</ele>
        <time>2012-02-12T14:21:34Z</time>
      </trkpt>
      <trkpt lat="42.82589" lon="0.20652">
        <ele>1843.47</ele>
        <time>2012-02-12T14:21:51Z</time>
      </trkpt>
      <trkpt lat="42.82589" lon="0.20651">
        <ele>1843.95</ele>
        <time>2012-02-12T14:22:04Z</time>
      </trkpt>
      <trkpt lat="42.82588" lon="0.20652">
        <ele>1844.43</ele>
        <time>2012-02-12T14:22:09Z</time>
      </trkpt>
      <trkpt lat="42.8258" lon="0.2066">
        <ele>1843.47</ele>
        <time>2012-02-12T14:22:14Z</time>
      </trkpt>
      <trkpt lat="42.82566" lon="0.2068">
        <ele>1843.47</ele>
        <time>2012-02-12T14:22:25Z</time>
      </trkpt>
      <trkpt lat="42.82549" lon="0.20697">
        <ele>1842.98</ele>
        <time>2012-02-12T14:22:35Z</time>
      </trkpt>
      <trkpt lat="42.82534" lon="0.20716">
        <ele>1842.5</ele>
        <time>2012-02-12T14:22:45Z</time>
      </trkpt>
      <trkpt lat="42.8251" lon="0.20738">
        <ele>1839.62</ele>
        <time>2012-02-12T14:22:57Z</time>
      </trkpt>
      <trkpt lat="42.82498" lon="0.20747">
        <ele>1837.7</ele>
        <time>2012-02-12T14:23:05Z</time>
      </trkpt>
      <trkpt lat="42.82491" lon="0.20749">
        <ele>1836.26</ele>
        <time>2012-02-12T14:23:16Z</time>
      </trkpt>
      <trkpt lat="42.82491" lon="0.20749">
        <ele>1836.26</ele>
        <time>2012-02-12T14:23:33Z</time>
      </trkpt>
      <trkpt lat="42.82491" lon="0.20748">
        <ele>1836.26</ele>
        <time>2012-02-12T14:23:38Z</time>
      </trkpt>
      <trkpt lat="42.82486" lon="0.2075">
        <ele>1834.81</ele>
        <time>2012-02-12T14:23:42Z</time>
      </trkpt>
      <trkpt lat="42.8248" lon="0.20755">
        <ele>1833.37</ele>
        <time>2012-02-12T14:23:45Z</time>
      </trkpt>
      <trkpt lat="42.82478" lon="0.20756">
        <ele>1832.41</ele>
        <time>2012-02-12T14:23:47Z</time>
      </trkpt>
      <trkpt lat="42.82475" lon="0.20748">
        <ele>1830.97</ele>
        <time>2012-02-12T14:23:56Z</time>
      </trkpt>
      <trkpt lat="42.82475" lon="0.20748">
        <ele>1830.01</ele>
        <time>2012-02-12T14:23:57Z</time>
      </trkpt>
      <trkpt lat="42.82473" lon="0.20726">
        <ele>1826.16</ele>
        <time>2012-02-12T14:24:02Z</time>
      </trkpt>
      <trkpt lat="42.82473" lon="0.20725">
        <ele>1825.68</ele>
        <time>2012-02-12T14:24:09Z</time>
      </trkpt>
      <trkpt lat="42.82472" lon="0.20727">
        <ele>1825.2</ele>
        <time>2012-02-12T14:24:13Z</time>
      </trkpt>
      <trkpt lat="42.82469" lon="0.2073">
        <ele>1825.2</ele>
        <time>2012-02-12T14:24:17Z</time>
      </trkpt>
      <trkpt lat="42.82465" lon="0.20732">
        <ele>1825.68</ele>
        <time>2012-02-12T14:24:21Z</time>
      </trkpt>
      <trkpt lat="42.82456" lon="0.20732">
        <ele>1824.24</ele>
        <time>2012-02-12T14:24:33Z</time>
      </trkpt>
      <trkpt lat="42.82456" lon="0.20731">
        <ele>1825.68</ele>
        <time>2012-02-12T14:24:49Z</time>
      </trkpt>
      <trkpt lat="42.82456" lon="0.20731">
        <ele>1826.16</ele>
        <time>2012-02-12T14:24:59Z</time>
      </trkpt>
      <trkpt lat="42.82454" lon="0.20728">
        <ele>1825.2</ele>
        <time>2012-02-12T14:25:02Z</time>
      </trkpt>
      <trkpt lat="42.82452" lon="0.20729">
        <ele>1824.24</ele>
        <time>2012-02-12T14:25:12Z</time>
      </trkpt>
      <trkpt lat="42.82451" lon="0.2073">
        <ele>1823.28</ele>
        <time>2012-02-12T14:25:14Z</time>
      </trkpt>
      <trkpt lat="42.8245" lon="0.20729">
        <ele>1824.24</ele>
        <time>2012-02-12T14:25:16Z</time>
      </trkpt>
      <trkpt lat="42.8244" lon="0.20732">
        <ele>1825.2</ele>
        <time>2012-02-12T14:25:28Z</time>
      </trkpt>
      <trkpt lat="42.8244" lon="0.20734">
        <ele>1825.2</ele>
        <time>2012-02-12T14:25:31Z</time>
      </trkpt>
      <trkpt lat="42.82438" lon="0.20736">
        <ele>1825.68</ele>
        <time>2012-02-12T14:25:38Z</time>
      </trkpt>
      <trkpt lat="42.82442" lon="0.20732">
        <ele>1824.72</ele>
        <time>2012-02-12T14:25:50Z</time>
      </trkpt>
      <trkpt lat="42.82441" lon="0.20734">
        <ele>1826.16</ele>
        <time>2012-02-12T14:26:00Z</time>
      </trkpt>
      <trkpt lat="42.82442" lon="0.20734">
        <ele>1826.64</ele>
        <time>2012-02-12T14:26:24Z</time>
      </trkpt>
      <trkpt lat="42.82443" lon="0.20735">
        <ele>1825.68</ele>
        <time>2012-02-12T14:26:37Z</time>
      </trkpt>
      <trkpt lat="42.82451" lon="0.20754">
        <ele>1827.12</ele>
        <time>2012-02-12T14:26:51Z</time>
      </trkpt>
      <trkpt lat="42.82452" lon="0.20754">
        <ele>1826.64</ele>
        <time>2012-02-12T14:26:52Z</time>
      </trkpt>
      <trkpt lat="42.82439" lon="0.20742">
        <ele>1825.2</ele>
        <time>2012-02-12T14:27:14Z</time>
      </trkpt>
      <trkpt lat="42.82435" lon="0.20736">
        <ele>1826.16</ele>
        <time>2012-02-12T14:27:33Z</time>
      </trkpt>
      <trkpt lat="42.82433" lon="0.20738">
        <ele>1826.16</ele>
        <time>2012-02-12T14:27:53Z</time>
      </trkpt>
      <trkpt lat="42.82436" lon="0.20739">
        <ele>1824.72</ele>
        <time>2012-02-12T14:27:58Z</time>
      </trkpt>
      <trkpt lat="42.82437" lon="0.20739">
        <ele>1826.16</ele>
        <time>2012-02-12T14:28:00Z</time>
      </trkpt>
      <trkpt lat="42.82438" lon="0.20746">
        <ele>1825.68</ele>
        <time>2012-02-12T14:28:10Z</time>
      </trkpt>
      <trkpt lat="42.8244" lon="0.20749">
        <ele>1824.24</ele>
        <time>2012-02-12T14:28:12Z</time>
      </trkpt>
      <trkpt lat="42.82448" lon="0.20759">
        <ele>1825.68</ele>
        <time>2012-02-12T14:28:31Z</time>
      </trkpt>
      <trkpt lat="42.82448" lon="0.20761">
        <ele>1826.16</ele>
        <time>2012-02-12T14:28:43Z</time>
      </trkpt>
      <trkpt lat="42.82447" lon="0.20748">
        <ele>1824.24</ele>
        <time>2012-02-12T14:28:54Z</time>
      </trkpt>
      <trkpt lat="42.82445" lon="0.20736">
        <ele>1823.76</ele>
        <time>2012-02-12T14:28:57Z</time>
      </trkpt>
      <trkpt lat="42.82453" lon="0.20729">
        <ele>1822.32</ele>
        <time>2012-02-12T14:29:09Z</time>
      </trkpt>
      <trkpt lat="42.82454" lon="0.2073">
        <ele>1825.2</ele>
        <time>2012-02-12T14:29:18Z</time>
      </trkpt>
      <trkpt lat="42.82455" lon="0.20731">
        <ele>1822.8</ele>
        <time>2012-02-12T14:29:23Z</time>
      </trkpt>
      <trkpt lat="42.82457" lon="0.20732">
        <ele>1823.76</ele>
        <time>2012-02-12T14:29:35Z</time>
      </trkpt>
      <trkpt lat="42.82457" lon="0.20732">
        <ele>1823.76</ele>
        <time>2012-02-12T14:29:47Z</time>
      </trkpt>
      <trkpt lat="42.82457" lon="0.20732">
        <ele>1823.76</ele>
        <time>2012-02-12T14:30:00Z</time>
      </trkpt>
      <trkpt lat="42.82458" lon="0.20732">
        <ele>1824.24</ele>
        <time>2012-02-12T14:30:02Z</time>
      </trkpt>
      <trkpt lat="42.82459" lon="0.20733">
        <ele>1823.76</ele>
        <time>2012-02-12T14:30:10Z</time>
      </trkpt>
      <trkpt lat="42.82462" lon="0.20734">
        <ele>1823.76</ele>
        <time>2012-02-12T14:30:13Z</time>
      </trkpt>
      <trkpt lat="42.82468" lon="0.20733">
        <ele>1823.28</ele>
        <time>2012-02-12T14:30:17Z</time>
      </trkpt>
      <trkpt lat="42.82479" lon="0.20717">
        <ele>1824.24</ele>
        <time>2012-02-12T14:30:29Z</time>
      </trkpt>
      <trkpt lat="42.82481" lon="0.20712">
        <ele>1823.76</ele>
        <time>2012-02-12T14:30:33Z</time>
      </trkpt>
      <trkpt lat="42.82485" lon="0.20707">
        <ele>1824.24</ele>
        <time>2012-02-12T14:30:39Z</time>
      </trkpt>
      <trkpt lat="42.82492" lon="0.20704">
        <ele>1825.2</ele>
        <time>2012-02-12T14:30:44Z</time>
      </trkpt>
      <trkpt lat="42.82494" lon="0.20705">
        <ele>1825.2</ele>
        <time>2012-02-12T14:30:46Z</time>
      </trkpt>
      <trkpt lat="42.82495" lon="0.20704">
        <ele>1826.16</ele>
        <time>2012-02-12T14:30:48Z</time>
      </trkpt>
      <trkpt lat="42.82495" lon="0.20708">
        <ele>1825.68</ele>
        <time>2012-02-12T14:30:56Z</time>
      </trkpt>
      <trkpt lat="42.82495" lon="0.20708">
        <ele>1825.2</ele>
        <time>2012-02-12T14:31:08Z</time>
      </trkpt>
      <trkpt lat="42.82495" lon="0.20708">
        <ele>1825.68</ele>
        <time>2012-02-12T14:31:26Z</time>
      </trkpt>
      <trkpt lat="42.82494" lon="0.20708">
        <ele>1825.68</ele>
        <time>2012-02-12T14:31:43Z</time>
      </trkpt>
      <trkpt lat="42.82494" lon="0.20708">
        <ele>1825.2</ele>
        <time>2012-02-12T14:31:50Z</time>
      </trkpt>
      <trkpt lat="42.82492" lon="0.2071">
        <ele>1825.2</ele>
        <time>2012-02-12T14:31:56Z</time>
      </trkpt>
      <trkpt lat="42.82491" lon="0.2071">
        <ele>1824.72</ele>
        <time>2012-02-12T14:32:04Z</time>
      </trkpt>
      <trkpt lat="42.82491" lon="0.20711">
        <ele>1825.68</ele>
        <time>2012-02-12T14:32:14Z</time>
      </trkpt>
      <trkpt lat="42.82491" lon="0.20711">
        <ele>1825.2</ele>
        <time>2012-02-12T14:32:23Z</time>
      </trkpt>
      <trkpt lat="42.82491" lon="0.20711">
        <ele>1825.68</ele>
        <time>2012-02-12T14:32:42Z</time>
      </trkpt>
      <trkpt lat="42.82491" lon="0.20711">
        <ele>1825.68</ele>
        <time>2012-02-12T14:33:02Z</time>
      </trkpt>
      <trkpt lat="42.82491" lon="0.2071">
        <ele>1825.2</ele>
        <time>2012-02-12T14:33:22Z</time>
      </trkpt>
      <trkpt lat="42.82491" lon="0.20711">
        <ele>1824.72</ele>
        <time>2012-02-12T14:33:30Z</time>
      </trkpt>
      <trkpt lat="42.82489" lon="0.20713">
        <ele>1824.24</ele>
        <time>2012-02-12T14:33:41Z</time>
      </trkpt>
      <trkpt lat="42.82489" lon="0.20714">
        <ele>1824.72</ele>
        <time>2012-02-12T14:33:45Z</time>
      </trkpt>
      <trkpt lat="42.82491" lon="0.2072">
        <ele>1824.24</ele>
        <time>2012-02-12T14:33:48Z</time>
      </trkpt>
      <trkpt lat="42.82493" lon="0.20729">
        <ele>1825.68</ele>
        <time>2012-02-12T14:33:52Z</time>
      </trkpt>
      <trkpt lat="42.82494" lon="0.20734">
        <ele>1829.05</ele>
        <time>2012-02-12T14:33:55Z</time>
      </trkpt>
      <trkpt lat="42.82495" lon="0.20741">
        <ele>1832.41</ele>
        <time>2012-02-12T14:33:59Z</time>
      </trkpt>
      <trkpt lat="42.82496" lon="0.20745">
        <ele>1835.77</ele>
        <time>2012-02-12T14:34:02Z</time>
      </trkpt>
      <trkpt lat="42.82497" lon="0.20749">
        <ele>1836.74</ele>
        <time>2012-02-12T14:34:04Z</time>
      </trkpt>
      <trkpt lat="42.82498" lon="0.20755">
        <ele>1840.58</ele>
        <time>2012-02-12T14:34:08Z</time>
      </trkpt>
      <trkpt lat="42.82499" lon="0.20761">
        <ele>1843.95</ele>
        <time>2012-02-12T14:34:11Z</time>
      </trkpt>
      <trkpt lat="42.825" lon="0.20763">
        <ele>1845.39</ele>
        <time>2012-02-12T14:34:13Z</time>
      </trkpt>
      <trkpt lat="42.82501" lon="0.20767">
        <ele>1848.75</ele>
        <time>2012-02-12T14:34:15Z</time>
      </trkpt>
      <trkpt lat="42.82501" lon="0.20769">
        <ele>1848.75</ele>
        <time>2012-02-12T14:34:16Z</time>
      </trkpt>
      <trkpt lat="42.82502" lon="0.20773">
        <ele>1852.6</ele>
        <time>2012-02-12T14:34:19Z</time>
      </trkpt>
      <trkpt lat="42.82502" lon="0.20774">
        <ele>1853.08</ele>
        <time>2012-02-12T14:34:20Z</time>
      </trkpt>
      <trkpt lat="42.82503" lon="0.20777">
        <ele>1856.44</ele>
        <time>2012-02-12T14:34:22Z</time>
      </trkpt>
      <trkpt lat="42.82503" lon="0.20778">
        <ele>1856.44</ele>
        <time>2012-02-12T14:34:23Z</time>
      </trkpt>
      <trkpt lat="42.82505" lon="0.20784">
        <ele>1860.29</ele>
        <time>2012-02-12T14:34:27Z</time>
      </trkpt>
      <trkpt lat="42.82506" lon="0.20791">
        <ele>1863.65</ele>
        <time>2012-02-12T14:34:31Z</time>
      </trkpt>
      <trkpt lat="42.82508" lon="0.20795">
        <ele>1865.09</ele>
        <time>2012-02-12T14:34:34Z</time>
      </trkpt>
      <trkpt lat="42.82508" lon="0.20799">
        <ele>1867.02</ele>
        <time>2012-02-12T14:34:36Z</time>
      </trkpt>
      <trkpt lat="42.82509" lon="0.20804">
        <ele>1870.38</ele>
        <time>2012-02-12T14:34:40Z</time>
      </trkpt>
      <trkpt lat="42.82509" lon="0.20807">
        <ele>1871.82</ele>
        <time>2012-02-12T14:34:42Z</time>
      </trkpt>
      <trkpt lat="42.82511" lon="0.20812">
        <ele>1875.19</ele>
        <time>2012-02-12T14:34:46Z</time>
      </trkpt>
      <trkpt lat="42.82513" lon="0.20818">
        <ele>1878.55</ele>
        <time>2012-02-12T14:34:50Z</time>
      </trkpt>
      <trkpt lat="42.82513" lon="0.20821">
        <ele>1879.51</ele>
        <time>2012-02-12T14:34:52Z</time>
      </trkpt>
      <trkpt lat="42.82514" lon="0.20828">
        <ele>1882.88</ele>
        <time>2012-02-12T14:34:56Z</time>
      </trkpt>
      <trkpt lat="42.82516" lon="0.20836">
        <ele>1885.76</ele>
        <time>2012-02-12T14:35:00Z</time>
      </trkpt>
      <trkpt lat="42.82519" lon="0.20845">
        <ele>1889.61</ele>
        <time>2012-02-12T14:35:05Z</time>
      </trkpt>
      <trkpt lat="42.8252" lon="0.20849">
        <ele>1892.49</ele>
        <time>2012-02-12T14:35:08Z</time>
      </trkpt>
      <trkpt lat="42.82521" lon="0.20856">
        <ele>1896.34</ele>
        <time>2012-02-12T14:35:12Z</time>
      </trkpt>
      <trkpt lat="42.82523" lon="0.20863">
        <ele>1899.7</ele>
        <time>2012-02-12T14:35:16Z</time>
      </trkpt>
      <trkpt lat="42.82524" lon="0.20866">
        <ele>1900.66</ele>
        <time>2012-02-12T14:35:18Z</time>
      </trkpt>
      <trkpt lat="42.82525" lon="0.20871">
        <ele>1902.59</ele>
        <time>2012-02-12T14:35:21Z</time>
      </trkpt>
      <trkpt lat="42.82526" lon="0.20877">
        <ele>1904.99</ele>
        <time>2012-02-12T14:35:24Z</time>
      </trkpt>
      <trkpt lat="42.82528" lon="0.20884">
        <ele>1907.87</ele>
        <time>2012-02-12T14:35:28Z</time>
      </trkpt>
      <trkpt lat="42.8253" lon="0.20892">
        <ele>1911.72</ele>
        <time>2012-02-12T14:35:33Z</time>
      </trkpt>
      <trkpt lat="42.82531" lon="0.20899">
        <ele>1914.12</ele>
        <time>2012-02-12T14:35:37Z</time>
      </trkpt>
      <trkpt lat="42.82533" lon="0.20908">
        <ele>1917.49</ele>
        <time>2012-02-12T14:35:42Z</time>
      </trkpt>
      <trkpt lat="42.82535" lon="0.20914">
        <ele>1920.85</ele>
        <time>2012-02-12T14:35:46Z</time>
      </trkpt>
      <trkpt lat="42.82537" lon="0.20921">
        <ele>1923.74</ele>
        <time>2012-02-12T14:35:50Z</time>
      </trkpt>
      <trkpt lat="42.82537" lon="0.20922">
        <ele>1924.22</ele>
        <time>2012-02-12T14:35:51Z</time>
      </trkpt>
      <trkpt lat="42.82538" lon="0.20927">
        <ele>1927.1</ele>
        <time>2012-02-12T14:35:54Z</time>
      </trkpt>
      <trkpt lat="42.82539" lon="0.2093">
        <ele>1928.06</ele>
        <time>2012-02-12T14:35:56Z</time>
      </trkpt>
      <trkpt lat="42.8254" lon="0.20934">
        <ele>1929.98</ele>
        <time>2012-02-12T14:35:58Z</time>
      </trkpt>
      <trkpt lat="42.82541" lon="0.20939">
        <ele>1932.87</ele>
        <time>2012-02-12T14:36:01Z</time>
      </trkpt>
      <trkpt lat="42.82543" lon="0.20947">
        <ele>1936.23</ele>
        <time>2012-02-12T14:36:06Z</time>
      </trkpt>
      <trkpt lat="42.82545" lon="0.20954">
        <ele>1940.08</ele>
        <time>2012-02-12T14:36:10Z</time>
      </trkpt>
      <trkpt lat="42.82545" lon="0.20957">
        <ele>1942.96</ele>
        <time>2012-02-12T14:36:12Z</time>
      </trkpt>
      <trkpt lat="42.82546" lon="0.20959">
        <ele>1943.44</ele>
        <time>2012-02-12T14:36:13Z</time>
      </trkpt>
      <trkpt lat="42.82546" lon="0.20962">
        <ele>1947.77</ele>
        <time>2012-02-12T14:36:15Z</time>
      </trkpt>
      <trkpt lat="42.82547" lon="0.20964">
        <ele>1946.33</ele>
        <time>2012-02-12T14:36:16Z</time>
      </trkpt>
      <trkpt lat="42.82548" lon="0.2097">
        <ele>1950.17</ele>
        <time>2012-02-12T14:36:20Z</time>
      </trkpt>
      <trkpt lat="42.8255" lon="0.20976">
        <ele>1953.06</ele>
        <time>2012-02-12T14:36:24Z</time>
      </trkpt>
      <trkpt lat="42.8255" lon="0.20978">
        <ele>1953.06</ele>
        <time>2012-02-12T14:36:25Z</time>
      </trkpt>
      <trkpt lat="42.82552" lon="0.20985">
        <ele>1955.46</ele>
        <time>2012-02-12T14:36:29Z</time>
      </trkpt>
      <trkpt lat="42.82554" lon="0.20995">
        <ele>1958.82</ele>
        <time>2012-02-12T14:36:35Z</time>
      </trkpt>
      <trkpt lat="42.82555" lon="0.20999">
        <ele>1960.75</ele>
        <time>2012-02-12T14:36:38Z</time>
      </trkpt>
      <trkpt lat="42.82557" lon="0.21008">
        <ele>1964.11</ele>
        <time>2012-02-12T14:36:43Z</time>
      </trkpt>
      <trkpt lat="42.82558" lon="0.21011">
        <ele>1965.55</ele>
        <time>2012-02-12T14:36:45Z</time>
      </trkpt>
      <trkpt lat="42.82559" lon="0.21016">
        <ele>1968.92</ele>
        <time>2012-02-12T14:36:48Z</time>
      </trkpt>
      <trkpt lat="42.82561" lon="0.21023">
        <ele>1971.8</ele>
        <time>2012-02-12T14:36:52Z</time>
      </trkpt>
      <trkpt lat="42.82562" lon="0.21028">
        <ele>1975.17</ele>
        <time>2012-02-12T14:36:55Z</time>
      </trkpt>
      <trkpt lat="42.82564" lon="0.21033">
        <ele>1979.01</ele>
        <time>2012-02-12T14:36:58Z</time>
      </trkpt>
      <trkpt lat="42.82564" lon="0.21037">
        <ele>1979.97</ele>
        <time>2012-02-12T14:37:00Z</time>
      </trkpt>
      <trkpt lat="42.82568" lon="0.21051">
        <ele>1983.34</ele>
        <time>2012-02-12T14:37:08Z</time>
      </trkpt>
      <trkpt lat="42.8257" lon="0.2106">
        <ele>1985.74</ele>
        <time>2012-02-12T14:37:13Z</time>
      </trkpt>
      <trkpt lat="42.82571" lon="0.21067">
        <ele>1988.62</ele>
        <time>2012-02-12T14:37:17Z</time>
      </trkpt>
      <trkpt lat="42.82573" lon="0.21077">
        <ele>1991.99</ele>
        <time>2012-02-12T14:37:23Z</time>
      </trkpt>
      <trkpt lat="42.82575" lon="0.21087">
        <ele>1993.91</ele>
        <time>2012-02-12T14:37:29Z</time>
      </trkpt>
      <trkpt lat="42.82576" lon="0.2109">
        <ele>1995.35</ele>
        <time>2012-02-12T14:37:31Z</time>
      </trkpt>
      <trkpt lat="42.82578" lon="0.21098">
        <ele>1998.72</ele>
        <time>2012-02-12T14:37:35Z</time>
      </trkpt>
      <trkpt lat="42.82578" lon="0.211">
        <ele>1998.72</ele>
        <time>2012-02-12T14:37:36Z</time>
      </trkpt>
      <trkpt lat="42.82579" lon="0.21104">
        <ele>2000.64</ele>
        <time>2012-02-12T14:37:39Z</time>
      </trkpt>
      <trkpt lat="42.8258" lon="0.21109">
        <ele>2004.01</ele>
        <time>2012-02-12T14:37:42Z</time>
      </trkpt>
      <trkpt lat="42.82584" lon="0.21127">
        <ele>2007.85</ele>
        <time>2012-02-12T14:37:52Z</time>
      </trkpt>
      <trkpt lat="42.82585" lon="0.21131">
        <ele>2008.81</ele>
        <time>2012-02-12T14:37:54Z</time>
      </trkpt>
      <trkpt lat="42.82587" lon="0.21138">
        <ele>2011.22</ele>
        <time>2012-02-12T14:37:58Z</time>
      </trkpt>
      <trkpt lat="42.82589" lon="0.21147">
        <ele>2012.66</ele>
        <time>2012-02-12T14:38:03Z</time>
      </trkpt>
      <trkpt lat="42.82591" lon="0.21156">
        <ele>2016.02</ele>
        <time>2012-02-12T14:38:08Z</time>
      </trkpt>
      <trkpt lat="42.82591" lon="0.21158">
        <ele>2016.02</ele>
        <time>2012-02-12T14:38:09Z</time>
      </trkpt>
      <trkpt lat="42.82595" lon="0.21171">
        <ele>2019.39</ele>
        <time>2012-02-12T14:38:16Z</time>
      </trkpt>
      <trkpt lat="42.82596" lon="0.21175">
        <ele>2020.35</ele>
        <time>2012-02-12T14:38:18Z</time>
      </trkpt>
      <trkpt lat="42.82596" lon="0.2118">
        <ele>2021.31</ele>
        <time>2012-02-12T14:38:21Z</time>
      </trkpt>
      <trkpt lat="42.82598" lon="0.21187">
        <ele>2023.23</ele>
        <time>2012-02-12T14:38:25Z</time>
      </trkpt>
      <trkpt lat="42.826" lon="0.21198">
        <ele>2026.6</ele>
        <time>2012-02-12T14:38:33Z</time>
      </trkpt>
      <trkpt lat="42.82603" lon="0.21208">
        <ele>2029.96</ele>
        <time>2012-02-12T14:38:41Z</time>
      </trkpt>
      <trkpt lat="42.82605" lon="0.21217">
        <ele>2032.36</ele>
        <time>2012-02-12T14:38:48Z</time>
      </trkpt>
      <trkpt lat="42.82614" lon="0.21255">
        <ele>2033.33</ele>
        <time>2012-02-12T14:39:11Z</time>
      </trkpt>
      <trkpt lat="42.82624" lon="0.21296">
        <ele>2035.25</ele>
        <time>2012-02-12T14:39:32Z</time>
      </trkpt>
      <trkpt lat="42.82632" lon="0.21333">
        <ele>2038.13</ele>
        <time>2012-02-12T14:39:51Z</time>
      </trkpt>
      <trkpt lat="42.82642" lon="0.21377">
        <ele>2040.05</ele>
        <time>2012-02-12T14:40:15Z</time>
      </trkpt>
      <trkpt lat="42.82651" lon="0.21414">
        <ele>2042.94</ele>
        <time>2012-02-12T14:40:35Z</time>
      </trkpt>
      <trkpt lat="42.8266" lon="0.21451">
        <ele>2041.02</ele>
        <time>2012-02-12T14:40:58Z</time>
      </trkpt>
      <trkpt lat="42.82668" lon="0.21488">
        <ele>2041.5</ele>
        <time>2012-02-12T14:41:26Z</time>
      </trkpt>
      <trkpt lat="42.82675" lon="0.21522">
        <ele>2040.05</ele>
        <time>2012-02-12T14:41:54Z</time>
      </trkpt>
      <trkpt lat="42.82678" lon="0.21538">
        <ele>2036.21</ele>
        <time>2012-02-12T14:42:07Z</time>
      </trkpt>
      <trkpt lat="42.82679" lon="0.2154">
        <ele>2036.21</ele>
        <time>2012-02-12T14:42:08Z</time>
      </trkpt>
      <trkpt lat="42.82684" lon="0.21563">
        <ele>2032.84</ele>
        <time>2012-02-12T14:42:27Z</time>
      </trkpt>
      <trkpt lat="42.82694" lon="0.216">
        <ele>2030.92</ele>
        <time>2012-02-12T14:42:56Z</time>
      </trkpt>
      <trkpt lat="42.82699" lon="0.21619">
        <ele>2027.56</ele>
        <time>2012-02-12T14:43:11Z</time>
      </trkpt>
      <trkpt lat="42.82707" lon="0.21653">
        <ele>2026.12</ele>
        <time>2012-02-12T14:43:37Z</time>
      </trkpt>
      <trkpt lat="42.82715" lon="0.21687">
        <ele>2026.6</ele>
        <time>2012-02-12T14:44:04Z</time>
      </trkpt>
      <trkpt lat="42.82722" lon="0.21718">
        <ele>2026.12</ele>
        <time>2012-02-12T14:44:28Z</time>
      </trkpt>
      <trkpt lat="42.8273" lon="0.21753">
        <ele>2027.08</ele>
        <time>2012-02-12T14:44:55Z</time>
      </trkpt>
      <trkpt lat="42.82739" lon="0.21788">
        <ele>2028.04</ele>
        <time>2012-02-12T14:45:22Z</time>
      </trkpt>
      <trkpt lat="42.82744" lon="0.21806">
        <ele>2031.4</ele>
        <time>2012-02-12T14:45:37Z</time>
      </trkpt>
      <trkpt lat="42.8275" lon="0.21836">
        <ele>2034.29</ele>
        <time>2012-02-12T14:46:01Z</time>
      </trkpt>
      <trkpt lat="42.82759" lon="0.21875">
        <ele>2034.29</ele>
        <time>2012-02-12T14:46:22Z</time>
      </trkpt>
      <trkpt lat="42.82767" lon="0.21905">
        <ele>2034.77</ele>
        <time>2012-02-12T14:46:38Z</time>
      </trkpt>
      <trkpt lat="42.82767" lon="0.2191">
        <ele>2035.73</ele>
        <time>2012-02-12T14:46:41Z</time>
      </trkpt>
      <trkpt lat="42.82769" lon="0.21919">
        <ele>2035.25</ele>
        <time>2012-02-12T14:46:46Z</time>
      </trkpt>
      <trkpt lat="42.82768" lon="0.21932">
        <ele>2034.77</ele>
        <time>2012-02-12T14:46:56Z</time>
      </trkpt>
      <trkpt lat="42.82768" lon="0.21932">
        <ele>2034.77</ele>
        <time>2012-02-12T14:47:07Z</time>
      </trkpt>
      <trkpt lat="42.82768" lon="0.21932">
        <ele>2036.69</ele>
        <time>2012-02-12T14:47:27Z</time>
      </trkpt>
      <trkpt lat="42.8277" lon="0.21934">
        <ele>2036.69</ele>
        <time>2012-02-12T14:47:35Z</time>
      </trkpt>
      <trkpt lat="42.82769" lon="0.21933">
        <ele>2036.69</ele>
        <time>2012-02-12T14:47:57Z</time>
      </trkpt>
      <trkpt lat="42.82769" lon="0.21933">
        <ele>2036.21</ele>
        <time>2012-02-12T14:48:14Z</time>
      </trkpt>
      <trkpt lat="42.82769" lon="0.21936">
        <ele>2036.21</ele>
        <time>2012-02-12T14:48:29Z</time>
      </trkpt>
      <trkpt lat="42.8277" lon="0.21939">
        <ele>2034.77</ele>
        <time>2012-02-12T14:48:49Z</time>
      </trkpt>
      <trkpt lat="42.8277" lon="0.21939">
        <ele>2034.29</ele>
        <time>2012-02-12T14:49:08Z</time>
      </trkpt>
      <trkpt lat="42.82771" lon="0.2194">
        <ele>2034.29</ele>
        <time>2012-02-12T14:49:25Z</time>
      </trkpt>
      <trkpt lat="42.82771" lon="0.21939">
        <ele>2034.77</ele>
        <time>2012-02-12T14:49:37Z</time>
      </trkpt>
      <trkpt lat="42.82771" lon="0.21944">
        <ele>2034.77</ele>
        <time>2012-02-12T14:49:46Z</time>
      </trkpt>
      <trkpt lat="42.82775" lon="0.21958">
        <ele>2034.29</ele>
        <time>2012-02-12T14:49:58Z</time>
      </trkpt>
      <trkpt lat="42.82777" lon="0.21967">
        <ele>2034.77</ele>
        <time>2012-02-12T14:50:06Z</time>
      </trkpt>
      <trkpt lat="42.82778" lon="0.21975">
        <ele>2034.77</ele>
        <time>2012-02-12T14:50:13Z</time>
      </trkpt>
      <trkpt lat="42.82781" lon="0.21988">
        <ele>2035.25</ele>
        <time>2012-02-12T14:50:26Z</time>
      </trkpt>
      <trkpt lat="42.82781" lon="0.21996">
        <ele>2035.25</ele>
        <time>2012-02-12T14:50:33Z</time>
      </trkpt>
      <trkpt lat="42.82777" lon="0.22001">
        <ele>2034.77</ele>
        <time>2012-02-12T14:50:43Z</time>
      </trkpt>
      <trkpt lat="42.82776" lon="0.22004">
        <ele>2034.77</ele>
        <time>2012-02-12T14:50:56Z</time>
      </trkpt>
      <trkpt lat="42.82776" lon="0.22004">
        <ele>2035.25</ele>
        <time>2012-02-12T14:51:03Z</time>
      </trkpt>
      <trkpt lat="42.82776" lon="0.22005">
        <ele>2035.25</ele>
        <time>2012-02-12T14:51:13Z</time>
      </trkpt>
      <trkpt lat="42.82776" lon="0.22005">
        <ele>2034.77</ele>
        <time>2012-02-12T14:51:25Z</time>
      </trkpt>
      <trkpt lat="42.8278" lon="0.22008">
        <ele>2034.29</ele>
        <time>2012-02-12T14:51:30Z</time>
      </trkpt>
      <trkpt lat="42.82781" lon="0.22014">
        <ele>2034.77</ele>
        <time>2012-02-12T14:51:35Z</time>
      </trkpt>
      <trkpt lat="42.82781" lon="0.22015">
        <ele>2034.77</ele>
        <time>2012-02-12T14:51:37Z</time>
      </trkpt>
      <trkpt lat="42.82783" lon="0.22021">
        <ele>2034.77</ele>
        <time>2012-02-12T14:51:41Z</time>
      </trkpt>
      <trkpt lat="42.82783" lon="0.22025">
        <ele>2034.77</ele>
        <time>2012-02-12T14:51:44Z</time>
      </trkpt>
      <trkpt lat="42.82784" lon="0.22027">
        <ele>2034.77</ele>
        <time>2012-02-12T14:51:46Z</time>
      </trkpt>
      <trkpt lat="42.82785" lon="0.22034">
        <ele>2035.73</ele>
        <time>2012-02-12T14:52:00Z</time>
      </trkpt>
      <trkpt lat="42.82785" lon="0.22034">
        <ele>2035.25</ele>
        <time>2012-02-12T14:52:21Z</time>
      </trkpt>
      <trkpt lat="42.82785" lon="0.22035">
        <ele>2035.25</ele>
        <time>2012-02-12T14:52:37Z</time>
      </trkpt>
      <trkpt lat="42.82785" lon="0.22035">
        <ele>2035.25</ele>
        <time>2012-02-12T14:53:02Z</time>
      </trkpt>
      <trkpt lat="42.82785" lon="0.22035">
        <ele>2035.73</ele>
        <time>2012-02-12T14:53:22Z</time>
      </trkpt>
      <trkpt lat="42.82787" lon="0.22037">
        <ele>2035.73</ele>
        <time>2012-02-12T14:53:29Z</time>
      </trkpt>
      <trkpt lat="42.82787" lon="0.22037">
        <ele>2035.25</ele>
        <time>2012-02-12T14:53:30Z</time>
      </trkpt>
      <trkpt lat="42.82786" lon="0.22035">
        <ele>2035.25</ele>
        <time>2012-02-12T14:53:43Z</time>
      </trkpt>
      <trkpt lat="42.82786" lon="0.22032">
        <ele>2035.73</ele>
        <time>2012-02-12T14:53:54Z</time>
      </trkpt>
      <trkpt lat="42.82786" lon="0.2203">
        <ele>2036.69</ele>
        <time>2012-02-12T14:54:08Z</time>
      </trkpt>
      <trkpt lat="42.82785" lon="0.22029">
        <ele>2035.25</ele>
        <time>2012-02-12T14:54:17Z</time>
      </trkpt>
      <trkpt lat="42.82782" lon="0.22012">
        <ele>2035.73</ele>
        <time>2012-02-12T14:54:30Z</time>
      </trkpt>
      <trkpt lat="42.82782" lon="0.22012">
        <ele>2034.77</ele>
        <time>2012-02-12T14:54:31Z</time>
      </trkpt>
      <trkpt lat="42.82777" lon="0.2201">
        <ele>2034.77</ele>
        <time>2012-02-12T14:54:37Z</time>
      </trkpt>
      <trkpt lat="42.82773" lon="0.22012">
        <ele>2035.25</ele>
        <time>2012-02-12T14:54:49Z</time>
      </trkpt>
      <trkpt lat="42.82772" lon="0.22021">
        <ele>2034.77</ele>
        <time>2012-02-12T14:55:00Z</time>
      </trkpt>
      <trkpt lat="42.82774" lon="0.22026">
        <ele>2034.29</ele>
        <time>2012-02-12T14:55:11Z</time>
      </trkpt>
      <trkpt lat="42.82774" lon="0.22029">
        <ele>2034.29</ele>
        <time>2012-02-12T14:55:23Z</time>
      </trkpt>
      <trkpt lat="42.82775" lon="0.22035">
        <ele>2033.81</ele>
        <time>2012-02-12T14:55:29Z</time>
      </trkpt>
      <trkpt lat="42.82776" lon="0.2204">
        <ele>2031.4</ele>
        <time>2012-02-12T14:55:32Z</time>
      </trkpt>
      <trkpt lat="42.82779" lon="0.22065">
        <ele>2036.21</ele>
        <time>2012-02-12T14:55:40Z</time>
      </trkpt>
      <trkpt lat="42.82781" lon="0.22077">
        <ele>2038.13</ele>
        <time>2012-02-12T14:55:45Z</time>
      </trkpt>
      <trkpt lat="42.82783" lon="0.22099">
        <ele>2041.5</ele>
        <time>2012-02-12T14:55:54Z</time>
      </trkpt>
      <trkpt lat="42.82786" lon="0.22127">
        <ele>2044.38</ele>
        <time>2012-02-12T14:56:06Z</time>
      </trkpt>
      <trkpt lat="42.82787" lon="0.22154">
        <ele>2048.23</ele>
        <time>2012-02-12T14:56:17Z</time>
      </trkpt>
      <trkpt lat="42.82788" lon="0.22159">
        <ele>2048.71</ele>
        <time>2012-02-12T14:56:19Z</time>
      </trkpt>
      <trkpt lat="42.82789" lon="0.22169">
        <ele>2047.26</ele>
        <time>2012-02-12T14:56:23Z</time>
      </trkpt>
      <trkpt lat="42.82792" lon="0.22198">
        <ele>2050.63</ele>
        <time>2012-02-12T14:56:35Z</time>
      </trkpt>
      <trkpt lat="42.82794" lon="0.22224">
        <ele>2053.99</ele>
        <time>2012-02-12T14:56:46Z</time>
      </trkpt>
      <trkpt lat="42.82794" lon="0.22227">
        <ele>2054.47</ele>
        <time>2012-02-12T14:56:47Z</time>
      </trkpt>
      <trkpt lat="42.82797" lon="0.22277">
        <ele>2057.36</ele>
        <time>2012-02-12T14:57:07Z</time>
      </trkpt>
      <trkpt lat="42.82797" lon="0.22301">
        <ele>2060.72</ele>
        <time>2012-02-12T14:57:17Z</time>
      </trkpt>
      <trkpt lat="42.82797" lon="0.22314">
        <ele>2064.57</ele>
        <time>2012-02-12T14:57:22Z</time>
      </trkpt>
      <trkpt lat="42.82797" lon="0.22317">
        <ele>2063.61</ele>
        <time>2012-02-12T14:57:23Z</time>
      </trkpt>
      <trkpt lat="42.82799" lon="0.22328">
        <ele>2066.01</ele>
        <time>2012-02-12T14:57:28Z</time>
      </trkpt>
      <trkpt lat="42.828" lon="0.22348">
        <ele>2069.38</ele>
        <time>2012-02-12T14:57:36Z</time>
      </trkpt>
      <trkpt lat="42.828" lon="0.22355">
        <ele>2070.82</ele>
        <time>2012-02-12T14:57:39Z</time>
      </trkpt>
      <trkpt lat="42.82801" lon="0.22362">
        <ele>2072.74</ele>
        <time>2012-02-12T14:57:42Z</time>
      </trkpt>
      <trkpt lat="42.82801" lon="0.22391">
        <ele>2074.18</ele>
        <time>2012-02-12T14:57:58Z</time>
      </trkpt>
      <trkpt lat="42.82805" lon="0.22417">
        <ele>2073.7</ele>
        <time>2012-02-12T14:58:20Z</time>
      </trkpt>
      <trkpt lat="42.82805" lon="0.22417">
        <ele>2072.26</ele>
        <time>2012-02-12T14:58:48Z</time>
      </trkpt>
      <trkpt lat="42.82805" lon="0.22417">
        <ele>2071.3</ele>
        <time>2012-02-12T14:59:14Z</time>
      </trkpt>
      <trkpt lat="42.82805" lon="0.22418">
        <ele>2071.78</ele>
        <time>2012-02-12T14:59:44Z</time>
      </trkpt>
      <trkpt lat="42.82804" lon="0.22424">
        <ele>2072.74</ele>
        <time>2012-02-12T15:00:12Z</time>
      </trkpt>
      <trkpt lat="42.82804" lon="0.22425">
        <ele>2072.74</ele>
        <time>2012-02-12T15:00:13Z</time>
      </trkpt>
      <trkpt lat="42.82807" lon="0.22447">
        <ele>2075.62</ele>
        <time>2012-02-12T15:00:28Z</time>
      </trkpt>
      <trkpt lat="42.82807" lon="0.22466">
        <ele>2078.99</ele>
        <time>2012-02-12T15:00:41Z</time>
      </trkpt>
      <trkpt lat="42.8281" lon="0.22498">
        <ele>2081.39</ele>
        <time>2012-02-12T15:01:04Z</time>
      </trkpt>
      <trkpt lat="42.82813" lon="0.22537">
        <ele>2083.79</ele>
        <time>2012-02-12T15:01:27Z</time>
      </trkpt>
      <trkpt lat="42.82814" lon="0.22565">
        <ele>2086.68</ele>
        <time>2012-02-12T15:01:38Z</time>
      </trkpt>
      <trkpt lat="42.82816" lon="0.22587">
        <ele>2090.04</ele>
        <time>2012-02-12T15:01:47Z</time>
      </trkpt>
      <trkpt lat="42.82817" lon="0.22601">
        <ele>2092.45</ele>
        <time>2012-02-12T15:01:53Z</time>
      </trkpt>
      <trkpt lat="42.82817" lon="0.22611">
        <ele>2093.89</ele>
        <time>2012-02-12T15:01:57Z</time>
      </trkpt>
      <trkpt lat="42.82819" lon="0.22628">
        <ele>2097.25</ele>
        <time>2012-02-12T15:02:04Z</time>
      </trkpt>
      <trkpt lat="42.82823" lon="0.22676">
        <ele>2099.66</ele>
        <time>2012-02-12T15:02:24Z</time>
      </trkpt>
      <trkpt lat="42.82825" lon="0.22706">
        <ele>2102.06</ele>
        <time>2012-02-12T15:02:36Z</time>
      </trkpt>
      <trkpt lat="42.82828" lon="0.22738">
        <ele>2105.42</ele>
        <time>2012-02-12T15:02:49Z</time>
      </trkpt>
      <trkpt lat="42.8283" lon="0.22762">
        <ele>2108.79</ele>
        <time>2012-02-12T15:02:59Z</time>
      </trkpt>
      <trkpt lat="42.82832" lon="0.22782">
        <ele>2112.15</ele>
        <time>2012-02-12T15:03:07Z</time>
      </trkpt>
      <trkpt lat="42.82833" lon="0.22794">
        <ele>2114.08</ele>
        <time>2012-02-12T15:03:12Z</time>
      </trkpt>
      <trkpt lat="42.82834" lon="0.2281">
        <ele>2116.96</ele>
        <time>2012-02-12T15:03:19Z</time>
      </trkpt>
      <trkpt lat="42.82835" lon="0.22815">
        <ele>2117.44</ele>
        <time>2012-02-12T15:03:21Z</time>
      </trkpt>
      <trkpt lat="42.82835" lon="0.2284">
        <ele>2121.29</ele>
        <time>2012-02-12T15:03:31Z</time>
      </trkpt>
      <trkpt lat="42.82836" lon="0.22845">
        <ele>2121.77</ele>
        <time>2012-02-12T15:03:33Z</time>
      </trkpt>
      <trkpt lat="42.82836" lon="0.22859">
        <ele>2125.13</ele>
        <time>2012-02-12T15:03:39Z</time>
      </trkpt>
      <trkpt lat="42.82837" lon="0.22871">
        <ele>2128.02</ele>
        <time>2012-02-12T15:03:44Z</time>
      </trkpt>
      <trkpt lat="42.82838" lon="0.22876">
        <ele>2129.46</ele>
        <time>2012-02-12T15:03:46Z</time>
      </trkpt>
      <trkpt lat="42.82839" lon="0.22889">
        <ele>2132.82</ele>
        <time>2012-02-12T15:03:52Z</time>
      </trkpt>
      <trkpt lat="42.82841" lon="0.22905">
        <ele>2136.19</ele>
        <time>2012-02-12T15:03:59Z</time>
      </trkpt>
      <trkpt lat="42.82842" lon="0.22918">
        <ele>2139.07</ele>
        <time>2012-02-12T15:04:04Z</time>
      </trkpt>
      <trkpt lat="42.82843" lon="0.22932">
        <ele>2143.4</ele>
        <time>2012-02-12T15:04:10Z</time>
      </trkpt>
      <trkpt lat="42.82843" lon="0.22937">
        <ele>2143.88</ele>
        <time>2012-02-12T15:04:12Z</time>
      </trkpt>
      <trkpt lat="42.82844" lon="0.22947">
        <ele>2145.8</ele>
        <time>2012-02-12T15:04:16Z</time>
      </trkpt>
      <trkpt lat="42.82845" lon="0.22956">
        <ele>2148.68</ele>
        <time>2012-02-12T15:04:20Z</time>
      </trkpt>
      <trkpt lat="42.82846" lon="0.22962">
        <ele>2151.09</ele>
        <time>2012-02-12T15:04:23Z</time>
      </trkpt>
      <trkpt lat="42.82847" lon="0.2297">
        <ele>2154.45</ele>
        <time>2012-02-12T15:04:26Z</time>
      </trkpt>
      <trkpt lat="42.82847" lon="0.22973">
        <ele>2154.45</ele>
        <time>2012-02-12T15:04:27Z</time>
      </trkpt>
      <trkpt lat="42.82848" lon="0.22984">
        <ele>2157.82</ele>
        <time>2012-02-12T15:04:32Z</time>
      </trkpt>
      <trkpt lat="42.82848" lon="0.22989">
        <ele>2158.78</ele>
        <time>2012-02-12T15:04:34Z</time>
      </trkpt>
      <trkpt lat="42.82848" lon="0.22996">
        <ele>2160.22</ele>
        <time>2012-02-12T15:04:37Z</time>
      </trkpt>
      <trkpt lat="42.82848" lon="0.23001">
        <ele>2161.66</ele>
        <time>2012-02-12T15:04:39Z</time>
      </trkpt>
      <trkpt lat="42.82848" lon="0.23012">
        <ele>2165.03</ele>
        <time>2012-02-12T15:04:44Z</time>
      </trkpt>
      <trkpt lat="42.82849" lon="0.23024">
        <ele>2168.39</ele>
        <time>2012-02-12T15:04:49Z</time>
      </trkpt>
      <trkpt lat="42.82849" lon="0.23027">
        <ele>2168.39</ele>
        <time>2012-02-12T15:04:50Z</time>
      </trkpt>
      <trkpt lat="42.82849" lon="0.23038">
        <ele>2171.27</ele>
        <time>2012-02-12T15:04:55Z</time>
      </trkpt>
      <trkpt lat="42.8285" lon="0.23044">
        <ele>2175.12</ele>
        <time>2012-02-12T15:04:58Z</time>
      </trkpt>
      <trkpt lat="42.82851" lon="0.23047">
        <ele>2175.12</ele>
        <time>2012-02-12T15:04:59Z</time>
      </trkpt>
      <trkpt lat="42.82852" lon="0.23056">
        <ele>2178.48</ele>
        <time>2012-02-12T15:05:03Z</time>
      </trkpt>
      <trkpt lat="42.82852" lon="0.23065">
        <ele>2181.85</ele>
        <time>2012-02-12T15:05:07Z</time>
      </trkpt>
      <trkpt lat="42.82853" lon="0.23072">
        <ele>2185.69</ele>
        <time>2012-02-12T15:05:10Z</time>
      </trkpt>
      <trkpt lat="42.82854" lon="0.23075">
        <ele>2185.69</ele>
        <time>2012-02-12T15:05:11Z</time>
      </trkpt>
      <trkpt lat="42.82854" lon="0.2308">
        <ele>2187.14</ele>
        <time>2012-02-12T15:05:13Z</time>
      </trkpt>
      <trkpt lat="42.82854" lon="0.23087">
        <ele>2189.54</ele>
        <time>2012-02-12T15:05:16Z</time>
      </trkpt>
      <trkpt lat="42.82855" lon="0.23094">
        <ele>2193.39</ele>
        <time>2012-02-12T15:05:19Z</time>
      </trkpt>
      <trkpt lat="42.82855" lon="0.23096">
        <ele>2193.39</ele>
        <time>2012-02-12T15:05:20Z</time>
      </trkpt>
      <trkpt lat="42.82856" lon="0.23105">
        <ele>2196.27</ele>
        <time>2012-02-12T15:05:24Z</time>
      </trkpt>
      <trkpt lat="42.82858" lon="0.23114">
        <ele>2199.63</ele>
        <time>2012-02-12T15:05:28Z</time>
      </trkpt>
      <trkpt lat="42.82858" lon="0.23116">
        <ele>2199.15</ele>
        <time>2012-02-12T15:05:29Z</time>
      </trkpt>
      <trkpt lat="42.82858" lon="0.23123">
        <ele>2202.04</ele>
        <time>2012-02-12T15:05:32Z</time>
      </trkpt>
      <trkpt lat="42.82859" lon="0.23134">
        <ele>2206.36</ele>
        <time>2012-02-12T15:05:37Z</time>
      </trkpt>
      <trkpt lat="42.8286" lon="0.23144">
        <ele>2209.25</ele>
        <time>2012-02-12T15:05:41Z</time>
      </trkpt>
      <trkpt lat="42.82861" lon="0.23156">
        <ele>2211.17</ele>
        <time>2012-02-12T15:05:46Z</time>
      </trkpt>
      <trkpt lat="42.82861" lon="0.23162">
        <ele>2213.57</ele>
        <time>2012-02-12T15:05:49Z</time>
      </trkpt>
      <trkpt lat="42.82861" lon="0.2317">
        <ele>2215.01</ele>
        <time>2012-02-12T15:05:52Z</time>
      </trkpt>
      <trkpt lat="42.82862" lon="0.23177">
        <ele>2216.94</ele>
        <time>2012-02-12T15:05:55Z</time>
      </trkpt>
      <trkpt lat="42.82863" lon="0.23191">
        <ele>2220.78</ele>
        <time>2012-02-12T15:06:01Z</time>
      </trkpt>
      <trkpt lat="42.82863" lon="0.23198">
        <ele>2223.19</ele>
        <time>2012-02-12T15:06:04Z</time>
      </trkpt>
      <trkpt lat="42.82864" lon="0.2321">
        <ele>2227.03</ele>
        <time>2012-02-12T15:06:09Z</time>
      </trkpt>
      <trkpt lat="42.82864" lon="0.23213">
        <ele>2227.03</ele>
        <time>2012-02-12T15:06:10Z</time>
      </trkpt>
      <trkpt lat="42.82865" lon="0.23224">
        <ele>2230.4</ele>
        <time>2012-02-12T15:06:15Z</time>
      </trkpt>
      <trkpt lat="42.82865" lon="0.23226">
        <ele>2230.4</ele>
        <time>2012-02-12T15:06:16Z</time>
      </trkpt>
      <trkpt lat="42.82865" lon="0.23231">
        <ele>2232.32</ele>
        <time>2012-02-12T15:06:18Z</time>
      </trkpt>
      <trkpt lat="42.82866" lon="0.2324">
        <ele>2235.2</ele>
        <time>2012-02-12T15:06:22Z</time>
      </trkpt>
      <trkpt lat="42.82866" lon="0.23251">
        <ele>2239.53</ele>
        <time>2012-02-12T15:06:27Z</time>
      </trkpt>
      <trkpt lat="42.82868" lon="0.23262">
        <ele>2243.37</ele>
        <time>2012-02-12T15:06:32Z</time>
      </trkpt>
      <trkpt lat="42.82868" lon="0.23264">
        <ele>2243.85</ele>
        <time>2012-02-12T15:06:33Z</time>
      </trkpt>
      <trkpt lat="42.82869" lon="0.23273">
        <ele>2247.22</ele>
        <time>2012-02-12T15:06:37Z</time>
      </trkpt>
      <trkpt lat="42.82871" lon="0.2329">
        <ele>2250.1</ele>
        <time>2012-02-12T15:06:44Z</time>
      </trkpt>
      <trkpt lat="42.82871" lon="0.23297">
        <ele>2251.54</ele>
        <time>2012-02-12T15:06:47Z</time>
      </trkpt>
      <trkpt lat="42.82872" lon="0.23307">
        <ele>2253.95</ele>
        <time>2012-02-12T15:06:51Z</time>
      </trkpt>
      <trkpt lat="42.82872" lon="0.23325">
        <ele>2257.31</ele>
        <time>2012-02-12T15:06:59Z</time>
      </trkpt>
      <trkpt lat="42.82873" lon="0.23337">
        <ele>2260.2</ele>
        <time>2012-02-12T15:07:04Z</time>
      </trkpt>
      <trkpt lat="42.82873" lon="0.23352">
        <ele>2263.56</ele>
        <time>2012-02-12T15:07:10Z</time>
      </trkpt>
      <trkpt lat="42.82874" lon="0.23361">
        <ele>2266.93</ele>
        <time>2012-02-12T15:07:14Z</time>
      </trkpt>
      <trkpt lat="42.82875" lon="0.23372">
        <ele>2270.29</ele>
        <time>2012-02-12T15:07:19Z</time>
      </trkpt>
      <trkpt lat="42.82876" lon="0.23377">
        <ele>2271.25</ele>
        <time>2012-02-12T15:07:21Z</time>
      </trkpt>
      <trkpt lat="42.82876" lon="0.23386">
        <ele>2274.62</ele>
        <time>2012-02-12T15:07:25Z</time>
      </trkpt>
      <trkpt lat="42.82877" lon="0.23395">
        <ele>2277.02</ele>
        <time>2012-02-12T15:07:29Z</time>
      </trkpt>
      <trkpt lat="42.82877" lon="0.23403">
        <ele>2278.94</ele>
        <time>2012-02-12T15:07:32Z</time>
      </trkpt>
      <trkpt lat="42.82879" lon="0.23417">
        <ele>2282.31</ele>
        <time>2012-02-12T15:07:38Z</time>
      </trkpt>
      <trkpt lat="42.8288" lon="0.23434">
        <ele>2285.67</ele>
        <time>2012-02-12T15:07:45Z</time>
      </trkpt>
      <trkpt lat="42.8288" lon="0.23441">
        <ele>2288.56</ele>
        <time>2012-02-12T15:07:48Z</time>
      </trkpt>
      <trkpt lat="42.82881" lon="0.23448">
        <ele>2292.4</ele>
        <time>2012-02-12T15:07:51Z</time>
      </trkpt>
      <trkpt lat="42.82881" lon="0.2345">
        <ele>2292.88</ele>
        <time>2012-02-12T15:07:52Z</time>
      </trkpt>
      <trkpt lat="42.82883" lon="0.23479">
        <ele>2296.25</ele>
        <time>2012-02-12T15:08:04Z</time>
      </trkpt>
      <trkpt lat="42.82883" lon="0.23483">
        <ele>2297.21</ele>
        <time>2012-02-12T15:08:06Z</time>
      </trkpt>
      <trkpt lat="42.82883" lon="0.23493">
        <ele>2300.57</ele>
        <time>2012-02-12T15:08:10Z</time>
      </trkpt>
      <trkpt lat="42.82884" lon="0.23502">
        <ele>2304.42</ele>
        <time>2012-02-12T15:08:14Z</time>
      </trkpt>
      <trkpt lat="42.82885" lon="0.23514">
        <ele>2307.78</ele>
        <time>2012-02-12T15:08:19Z</time>
      </trkpt>
      <trkpt lat="42.82888" lon="0.23537">
        <ele>2311.15</ele>
        <time>2012-02-12T15:08:29Z</time>
      </trkpt>
      <trkpt lat="42.82888" lon="0.23547">
        <ele>2313.55</ele>
        <time>2012-02-12T15:08:33Z</time>
      </trkpt>
      <trkpt lat="42.82888" lon="0.2356">
        <ele>2315.95</ele>
        <time>2012-02-12T15:08:38Z</time>
      </trkpt>
      <trkpt lat="42.8289" lon="0.23584">
        <ele>2319.32</ele>
        <time>2012-02-12T15:08:48Z</time>
      </trkpt>
      <trkpt lat="42.82892" lon="0.23598">
        <ele>2322.68</ele>
        <time>2012-02-12T15:08:54Z</time>
      </trkpt>
      <trkpt lat="42.82892" lon="0.23603">
        <ele>2326.05</ele>
        <time>2012-02-12T15:08:56Z</time>
      </trkpt>
      <trkpt lat="42.82892" lon="0.23605">
        <ele>2326.05</ele>
        <time>2012-02-12T15:08:57Z</time>
      </trkpt>
      <trkpt lat="42.82894" lon="0.23624">
        <ele>2327.49</ele>
        <time>2012-02-12T15:09:05Z</time>
      </trkpt>
      <trkpt lat="42.82896" lon="0.2365">
        <ele>2331.81</ele>
        <time>2012-02-12T15:09:16Z</time>
      </trkpt>
      <trkpt lat="42.82898" lon="0.23677">
        <ele>2334.22</ele>
        <time>2012-02-12T15:09:27Z</time>
      </trkpt>
      <trkpt lat="42.82898" lon="0.23683">
        <ele>2335.66</ele>
        <time>2012-02-12T15:09:29Z</time>
      </trkpt>
      <trkpt lat="42.82901" lon="0.23709">
        <ele>2339.02</ele>
        <time>2012-02-12T15:09:40Z</time>
      </trkpt>
      <trkpt lat="42.82901" lon="0.23714">
        <ele>2339.99</ele>
        <time>2012-02-12T15:09:42Z</time>
      </trkpt>
      <trkpt lat="42.82904" lon="0.23748">
        <ele>2341.91</ele>
        <time>2012-02-12T15:09:53Z</time>
      </trkpt>
      <trkpt lat="42.82899" lon="0.23754">
        <ele>2339.99</ele>
        <time>2012-02-12T15:10:04Z</time>
      </trkpt>
      <trkpt lat="42.82899" lon="0.23754">
        <ele>2338.54</ele>
        <time>2012-02-12T15:10:19Z</time>
      </trkpt>
      <trkpt lat="42.82899" lon="0.23754">
        <ele>2340.95</ele>
        <time>2012-02-12T15:10:43Z</time>
      </trkpt>
      <trkpt lat="42.82899" lon="0.23754">
        <ele>2341.43</ele>
        <time>2012-02-12T15:10:56Z</time>
      </trkpt>
      <trkpt lat="42.82899" lon="0.23754">
        <ele>2344.79</ele>
        <time>2012-02-12T15:11:10Z</time>
      </trkpt>
      <trkpt lat="42.82899" lon="0.23754">
        <ele>2341.91</ele>
        <time>2012-02-12T15:11:27Z</time>
      </trkpt>
      <trkpt lat="42.82899" lon="0.23754">
        <ele>2340.47</ele>
        <time>2012-02-12T15:11:43Z</time>
      </trkpt>
      <trkpt lat="42.82899" lon="0.23754">
        <ele>2339.99</ele>
        <time>2012-02-12T15:11:59Z</time>
      </trkpt>
      <trkpt lat="42.82899" lon="0.23754">
        <ele>2341.91</ele>
        <time>2012-02-12T15:12:07Z</time>
      </trkpt>
      <trkpt lat="42.82899" lon="0.23754">
        <ele>2340.47</ele>
        <time>2012-02-12T15:12:31Z</time>
      </trkpt>
      <trkpt lat="42.82898" lon="0.23753">
        <ele>2339.51</ele>
        <time>2012-02-12T15:12:47Z</time>
      </trkpt>
      <trkpt lat="42.82897" lon="0.23753">
        <ele>2339.02</ele>
        <time>2012-02-12T15:12:52Z</time>
      </trkpt>
      <trkpt lat="42.82893" lon="0.23748">
        <ele>2337.58</ele>
        <time>2012-02-12T15:12:56Z</time>
      </trkpt>
      <trkpt lat="42.82882" lon="0.23726">
        <ele>2334.22</ele>
        <time>2012-02-12T15:13:08Z</time>
      </trkpt>
      <trkpt lat="42.82878" lon="0.23712">
        <ele>2332.78</ele>
        <time>2012-02-12T15:13:12Z</time>
      </trkpt>
      <trkpt lat="42.82881" lon="0.23703">
        <ele>2331.33</ele>
        <time>2012-02-12T15:13:17Z</time>
      </trkpt>
      <trkpt lat="42.82883" lon="0.23701">
        <ele>2330.37</ele>
        <time>2012-02-12T15:13:19Z</time>
      </trkpt>
      <trkpt lat="42.82882" lon="0.23693">
        <ele>2329.41</ele>
        <time>2012-02-12T15:13:28Z</time>
      </trkpt>
      <trkpt lat="42.82882" lon="0.2369">
        <ele>2331.81</ele>
        <time>2012-02-12T15:13:39Z</time>
      </trkpt>
      <trkpt lat="42.82894" lon="0.2367">
        <ele>2326.53</ele>
        <time>2012-02-12T15:13:46Z</time>
      </trkpt>
      <trkpt lat="42.829" lon="0.23665">
        <ele>2322.68</ele>
        <time>2012-02-12T15:13:48Z</time>
      </trkpt>
      <trkpt lat="42.82911" lon="0.23659">
        <ele>2319.32</ele>
        <time>2012-02-12T15:13:51Z</time>
      </trkpt>
      <trkpt lat="42.82914" lon="0.2366">
        <ele>2320.28</ele>
        <time>2012-02-12T15:13:52Z</time>
      </trkpt>
      <trkpt lat="42.82924" lon="0.23661">
        <ele>2316.91</ele>
        <time>2012-02-12T15:13:56Z</time>
      </trkpt>
      <trkpt lat="42.82953" lon="0.23674">
        <ele>2313.55</ele>
        <time>2012-02-12T15:14:06Z</time>
      </trkpt>
      <trkpt lat="42.82957" lon="0.23676">
        <ele>2313.55</ele>
        <time>2012-02-12T15:14:07Z</time>
      </trkpt>
      <trkpt lat="42.82982" lon="0.23687">
        <ele>2309.7</ele>
        <time>2012-02-12T15:14:14Z</time>
      </trkpt>
      <trkpt lat="42.82996" lon="0.23693">
        <ele>2306.34</ele>
        <time>2012-02-12T15:14:18Z</time>
      </trkpt>
      <trkpt lat="42.83001" lon="0.23695">
        <ele>2306.34</ele>
        <time>2012-02-12T15:14:19Z</time>
      </trkpt>
      <trkpt lat="42.83009" lon="0.23699">
        <ele>2303.46</ele>
        <time>2012-02-12T15:14:21Z</time>
      </trkpt>
      <trkpt lat="42.83014" lon="0.23701">
        <ele>2301.05</ele>
        <time>2012-02-12T15:14:22Z</time>
      </trkpt>
      <trkpt lat="42.83026" lon="0.23713">
        <ele>2299.13</ele>
        <time>2012-02-12T15:14:27Z</time>
      </trkpt>
      <trkpt lat="42.83027" lon="0.2372">
        <ele>2300.57</ele>
        <time>2012-02-12T15:14:40Z</time>
      </trkpt>
      <trkpt lat="42.83027" lon="0.23719">
        <ele>2298.65</ele>
        <time>2012-02-12T15:14:54Z</time>
      </trkpt>
      <trkpt lat="42.83027" lon="0.23719">
        <ele>2301.05</ele>
        <time>2012-02-12T15:15:12Z</time>
      </trkpt>
      <trkpt lat="42.83027" lon="0.23719">
        <ele>2299.13</ele>
        <time>2012-02-12T15:15:24Z</time>
      </trkpt>
      <trkpt lat="42.83027" lon="0.23719">
        <ele>2298.65</ele>
        <time>2012-02-12T15:15:40Z</time>
      </trkpt>
      <trkpt lat="42.83027" lon="0.23719">
        <ele>2297.69</ele>
        <time>2012-02-12T15:16:07Z</time>
      </trkpt>
      <trkpt lat="42.83027" lon="0.23718">
        <ele>2297.21</ele>
        <time>2012-02-12T15:16:21Z</time>
      </trkpt>
      <trkpt lat="42.83027" lon="0.23718">
        <ele>2298.65</ele>
        <time>2012-02-12T15:16:35Z</time>
      </trkpt>
      <trkpt lat="42.83027" lon="0.23718">
        <ele>2296.73</ele>
        <time>2012-02-12T15:16:50Z</time>
      </trkpt>
      <trkpt lat="42.83026" lon="0.23721">
        <ele>2294.8</ele>
        <time>2012-02-12T15:16:56Z</time>
      </trkpt>
      <trkpt lat="42.83023" lon="0.23731">
        <ele>2293.84</ele>
        <time>2012-02-12T15:17:01Z</time>
      </trkpt>
      <trkpt lat="42.83018" lon="0.23749">
        <ele>2290.96</ele>
        <time>2012-02-12T15:17:05Z</time>
      </trkpt>
      <trkpt lat="42.83004" lon="0.23788">
        <ele>2283.27</ele>
        <time>2012-02-12T15:17:11Z</time>
      </trkpt>
      <trkpt lat="42.83001" lon="0.23795">
        <ele>2281.83</ele>
        <time>2012-02-12T15:17:12Z</time>
      </trkpt>
      <trkpt lat="42.82996" lon="0.2381">
        <ele>2279.42</ele>
        <time>2012-02-12T15:17:14Z</time>
      </trkpt>
      <trkpt lat="42.82991" lon="0.23831">
        <ele>2277.98</ele>
        <time>2012-02-12T15:17:17Z</time>
      </trkpt>
      <trkpt lat="42.82979" lon="0.23855">
        <ele>2276.06</ele>
        <time>2012-02-12T15:17:22Z</time>
      </trkpt>
      <trkpt lat="42.82969" lon="0.23871">
        <ele>2273.17</ele>
        <time>2012-02-12T15:17:27Z</time>
      </trkpt>
      <trkpt lat="42.82955" lon="0.23887">
        <ele>2271.25</ele>
        <time>2012-02-12T15:17:33Z</time>
      </trkpt>
      <trkpt lat="42.82958" lon="0.23893">
        <ele>2273.66</ele>
        <time>2012-02-12T15:17:40Z</time>
      </trkpt>
      <trkpt lat="42.82959" lon="0.23893">
        <ele>2275.58</ele>
        <time>2012-02-12T15:17:42Z</time>
      </trkpt>
      <trkpt lat="42.82973" lon="0.23885">
        <ele>2270.29</ele>
        <time>2012-02-12T15:17:50Z</time>
      </trkpt>
      <trkpt lat="42.82975" lon="0.23883">
        <ele>2270.29</ele>
        <time>2012-02-12T15:17:51Z</time>
      </trkpt>
      <trkpt lat="42.82982" lon="0.23878">
        <ele>2268.37</ele>
        <time>2012-02-12T15:17:54Z</time>
      </trkpt>
      <trkpt lat="42.82992" lon="0.2387">
        <ele>2267.41</ele>
        <time>2012-02-12T15:17:57Z</time>
      </trkpt>
      <trkpt lat="42.83005" lon="0.2386">
        <ele>2265</ele>
        <time>2012-02-12T15:18:00Z</time>
      </trkpt>
      <trkpt lat="42.83025" lon="0.23846">
        <ele>2260.2</ele>
        <time>2012-02-12T15:18:04Z</time>
      </trkpt>
      <trkpt lat="42.83042" lon="0.23833">
        <ele>2256.35</ele>
        <time>2012-02-12T15:18:07Z</time>
      </trkpt>
      <trkpt lat="42.83048" lon="0.23829">
        <ele>2256.35</ele>
        <time>2012-02-12T15:18:08Z</time>
      </trkpt>
      <trkpt lat="42.83068" lon="0.23814">
        <ele>2253.95</ele>
        <time>2012-02-12T15:18:11Z</time>
      </trkpt>
      <trkpt lat="42.83074" lon="0.23808">
        <ele>2252.99</ele>
        <time>2012-02-12T15:18:12Z</time>
      </trkpt>
      <trkpt lat="42.831" lon="0.23785">
        <ele>2248.66</ele>
        <time>2012-02-12T15:18:16Z</time>
      </trkpt>
      <trkpt lat="42.83106" lon="0.2378">
        <ele>2246.26</ele>
        <time>2012-02-12T15:18:17Z</time>
      </trkpt>
      <trkpt lat="42.83121" lon="0.23765">
        <ele>2241.45</ele>
        <time>2012-02-12T15:18:20Z</time>
      </trkpt>
      <trkpt lat="42.83125" lon="0.23761">
        <ele>2238.09</ele>
        <time>2012-02-12T15:18:21Z</time>
      </trkpt>
      <trkpt lat="42.83132" lon="0.23752">
        <ele>2237.13</ele>
        <time>2012-02-12T15:18:23Z</time>
      </trkpt>
      <trkpt lat="42.8316" lon="0.23725">
        <ele>2234.24</ele>
        <time>2012-02-12T15:18:32Z</time>
      </trkpt>
      <trkpt lat="42.83163" lon="0.23721">
        <ele>2232.32</ele>
        <time>2012-02-12T15:18:34Z</time>
      </trkpt>
      <trkpt lat="42.83164" lon="0.2372">
        <ele>2231.36</ele>
        <time>2012-02-12T15:18:36Z</time>
      </trkpt>
      <trkpt lat="42.83165" lon="0.23719">
        <ele>2230.88</ele>
        <time>2012-02-12T15:18:50Z</time>
      </trkpt>
      <trkpt lat="42.83165" lon="0.23719">
        <ele>2231.36</ele>
        <time>2012-02-12T15:19:11Z</time>
      </trkpt>
      <trkpt lat="42.83165" lon="0.23721">
        <ele>2231.36</ele>
        <time>2012-02-12T15:19:24Z</time>
      </trkpt>
      <trkpt lat="42.83165" lon="0.23721">
        <ele>2232.32</ele>
        <time>2012-02-12T15:19:38Z</time>
      </trkpt>
      <trkpt lat="42.83165" lon="0.23721">
        <ele>2231.36</ele>
        <time>2012-02-12T15:20:08Z</time>
      </trkpt>
      <trkpt lat="42.83164" lon="0.2372">
        <ele>2231.36</ele>
        <time>2012-02-12T15:20:28Z</time>
      </trkpt>
      <trkpt lat="42.83167" lon="0.23719">
        <ele>2230.4</ele>
        <time>2012-02-12T15:20:43Z</time>
      </trkpt>
      <trkpt lat="42.83169" lon="0.23718">
        <ele>2229.92</ele>
        <time>2012-02-12T15:20:50Z</time>
      </trkpt>
      <trkpt lat="42.83171" lon="0.23716">
        <ele>2229.92</ele>
        <time>2012-02-12T15:20:52Z</time>
      </trkpt>
      <trkpt lat="42.83196" lon="0.23704">
        <ele>2228.47</ele>
        <time>2012-02-12T15:21:09Z</time>
      </trkpt>
      <trkpt lat="42.83217" lon="0.23687">
        <ele>2225.11</ele>
        <time>2012-02-12T15:21:17Z</time>
      </trkpt>
      <trkpt lat="42.83229" lon="0.23668">
        <ele>2223.67</ele>
        <time>2012-02-12T15:21:28Z</time>
      </trkpt>
      <trkpt lat="42.83229" lon="0.23668">
        <ele>2222.71</ele>
        <time>2012-02-12T15:21:43Z</time>
      </trkpt>
      <trkpt lat="42.83231" lon="0.23666">
        <ele>2223.19</ele>
        <time>2012-02-12T15:21:57Z</time>
      </trkpt>
      <trkpt lat="42.83231" lon="0.23666">
        <ele>2222.71</ele>
        <time>2012-02-12T15:22:20Z</time>
      </trkpt>
      <trkpt lat="42.83233" lon="0.23666">
        <ele>2224.15</ele>
        <time>2012-02-12T15:22:32Z</time>
      </trkpt>
      <trkpt lat="42.83254" lon="0.2367">
        <ele>2222.71</ele>
        <time>2012-02-12T15:22:47Z</time>
      </trkpt>
      <trkpt lat="42.83255" lon="0.23671">
        <ele>2221.74</ele>
        <time>2012-02-12T15:23:02Z</time>
      </trkpt>
      <trkpt lat="42.83256" lon="0.23671">
        <ele>2221.26</ele>
        <time>2012-02-12T15:23:04Z</time>
      </trkpt>
      <trkpt lat="42.8326" lon="0.23671">
        <ele>2221.26</ele>
        <time>2012-02-12T15:23:08Z</time>
      </trkpt>
      <trkpt lat="42.83279" lon="0.23666">
        <ele>2222.71</ele>
        <time>2012-02-12T15:23:13Z</time>
      </trkpt>
      <trkpt lat="42.83299" lon="0.23663">
        <ele>2217.42</ele>
        <time>2012-02-12T15:23:17Z</time>
      </trkpt>
      <trkpt lat="42.83302" lon="0.23662">
        <ele>2217.42</ele>
        <time>2012-02-12T15:23:18Z</time>
      </trkpt>
      <trkpt lat="42.83312" lon="0.23665">
        <ele>2214.53</ele>
        <time>2012-02-12T15:23:23Z</time>
      </trkpt>
      <trkpt lat="42.83313" lon="0.23667">
        <ele>2214.53</ele>
        <time>2012-02-12T15:23:24Z</time>
      </trkpt>
      <trkpt lat="42.83319" lon="0.23674">
        <ele>2211.17</ele>
        <time>2012-02-12T15:23:31Z</time>
      </trkpt>
      <trkpt lat="42.83321" lon="0.23687">
        <ele>2210.21</ele>
        <time>2012-02-12T15:23:37Z</time>
      </trkpt>
      <trkpt lat="42.83311" lon="0.23705">
        <ele>2205.88</ele>
        <time>2012-02-12T15:23:41Z</time>
      </trkpt>
      <trkpt lat="42.83298" lon="0.23715">
        <ele>2204.44</ele>
        <time>2012-02-12T15:23:44Z</time>
      </trkpt>
      <trkpt lat="42.83294" lon="0.23718">
        <ele>2203.96</ele>
        <time>2012-02-12T15:23:45Z</time>
      </trkpt>
      <trkpt lat="42.83249" lon="0.23742">
        <ele>2200.11</ele>
        <time>2012-02-12T15:23:56Z</time>
      </trkpt>
      <trkpt lat="42.83231" lon="0.23764">
        <ele>2198.19</ele>
        <time>2012-02-12T15:24:00Z</time>
      </trkpt>
      <trkpt lat="42.83218" lon="0.23795">
        <ele>2195.31</ele>
        <time>2012-02-12T15:24:04Z</time>
      </trkpt>
      <trkpt lat="42.83211" lon="0.23811">
        <ele>2193.39</ele>
        <time>2012-02-12T15:24:06Z</time>
      </trkpt>
      <trkpt lat="42.83191" lon="0.23842">
        <ele>2189.54</ele>
        <time>2012-02-12T15:24:11Z</time>
      </trkpt>
      <trkpt lat="42.83186" lon="0.23847">
        <ele>2189.54</ele>
        <time>2012-02-12T15:24:12Z</time>
      </trkpt>
      <trkpt lat="42.83169" lon="0.23873">
        <ele>2187.14</ele>
        <time>2012-02-12T15:24:16Z</time>
      </trkpt>
      <trkpt lat="42.83151" lon="0.23899">
        <ele>2182.81</ele>
        <time>2012-02-12T15:24:20Z</time>
      </trkpt>
      <trkpt lat="42.83122" lon="0.23936">
        <ele>2178.48</ele>
        <time>2012-02-12T15:24:26Z</time>
      </trkpt>
      <trkpt lat="42.83109" lon="0.23952">
        <ele>2176.56</ele>
        <time>2012-02-12T15:24:29Z</time>
      </trkpt>
      <trkpt lat="42.831" lon="0.23965">
        <ele>2174.64</ele>
        <time>2012-02-12T15:24:32Z</time>
      </trkpt>
      <trkpt lat="42.83099" lon="0.23967">
        <ele>2175.12</ele>
        <time>2012-02-12T15:24:38Z</time>
      </trkpt>
      <trkpt lat="42.83099" lon="0.23969">
        <ele>2174.64</ele>
        <time>2012-02-12T15:24:54Z</time>
      </trkpt>
      <trkpt lat="42.83094" lon="0.23977">
        <ele>2172.72</ele>
        <time>2012-02-12T15:25:00Z</time>
      </trkpt>
      <trkpt lat="42.8308" lon="0.24002">
        <ele>2169.83</ele>
        <time>2012-02-12T15:25:08Z</time>
      </trkpt>
      <trkpt lat="42.8307" lon="0.24022">
        <ele>2167.91</ele>
        <time>2012-02-12T15:25:12Z</time>
      </trkpt>
      <trkpt lat="42.83053" lon="0.24066">
        <ele>2165.51</ele>
        <time>2012-02-12T15:25:19Z</time>
      </trkpt>
    </trkseg>
  </trk>
</gpx>